<?xml version="1.0" encoding="UTF-8" standalone="no" ?>
<gpx xmlns="http://www.topografix.com/GPX/1/1" xmlns:xsi="http://www.w3.org/2001/XMLSchema-instance" xsi:schemaLocation="http://www.topografix.com/GPX/1/1 http://www.topografix.com/GPX/1/1/gpx.xsd" version="1.1" creator="VisuGPX - https://www.visugpx.com">
  <metadata>
    <name>5 petit bois sympa </name>
    <desc><![CDATA[Des petits bois sympa qui reste bien praticable malgre la pluie ]]></desc>
  </metadata>
  <trk>
    <name><![CDATA[1 ere 2016 c'est la gadoue ]]></name>
    <trkseg>
      <trkpt lat="47.35774" lon="-1.94124">
        <ele>52</ele>
        <time>2016-01-02T13:31:51Z</time>
      </trkpt>
      <trkpt lat="47.35777" lon="-1.94122">
        <ele>52</ele>
        <time>2016-01-02T13:31:52Z</time>
      </trkpt>
      <trkpt lat="47.3578" lon="-1.94121">
        <ele>52</ele>
        <time>2016-01-02T13:31:53Z</time>
      </trkpt>
      <trkpt lat="47.35783" lon="-1.9412">
        <ele>52</ele>
        <time>2016-01-02T13:31:54Z</time>
      </trkpt>
      <trkpt lat="47.35786" lon="-1.94119">
        <ele>52</ele>
        <time>2016-01-02T13:31:55Z</time>
      </trkpt>
      <trkpt lat="47.35791" lon="-1.94115">
        <ele>53</ele>
        <time>2016-01-02T13:31:57Z</time>
      </trkpt>
      <trkpt lat="47.35795" lon="-1.9411">
        <ele>53</ele>
        <time>2016-01-02T13:31:59Z</time>
      </trkpt>
      <trkpt lat="47.35797" lon="-1.94107">
        <ele>53</ele>
        <time>2016-01-02T13:32:00Z</time>
      </trkpt>
      <trkpt lat="47.35798" lon="-1.94103">
        <ele>53</ele>
        <time>2016-01-02T13:32:01Z</time>
      </trkpt>
      <trkpt lat="47.35799" lon="-1.94098">
        <ele>53</ele>
        <time>2016-01-02T13:32:02Z</time>
      </trkpt>
      <trkpt lat="47.35799" lon="-1.94094">
        <ele>53</ele>
        <time>2016-01-02T13:32:03Z</time>
      </trkpt>
      <trkpt lat="47.35798" lon="-1.94089">
        <ele>53</ele>
        <time>2016-01-02T13:32:04Z</time>
      </trkpt>
      <trkpt lat="47.35797" lon="-1.94085">
        <ele>53</ele>
        <time>2016-01-02T13:32:05Z</time>
      </trkpt>
      <trkpt lat="47.35794" lon="-1.9408">
        <ele>55</ele>
        <time>2016-01-02T13:32:06Z</time>
      </trkpt>
      <trkpt lat="47.35792" lon="-1.94076">
        <ele>54</ele>
        <time>2016-01-02T13:32:07Z</time>
      </trkpt>
      <trkpt lat="47.35789" lon="-1.9407">
        <ele>54</ele>
        <time>2016-01-02T13:32:08Z</time>
      </trkpt>
      <trkpt lat="47.35787" lon="-1.94066">
        <ele>54</ele>
        <time>2016-01-02T13:32:09Z</time>
      </trkpt>
      <trkpt lat="47.35785" lon="-1.94061">
        <ele>54</ele>
        <time>2016-01-02T13:32:10Z</time>
      </trkpt>
      <trkpt lat="47.35783" lon="-1.94056">
        <ele>54</ele>
        <time>2016-01-02T13:32:11Z</time>
      </trkpt>
      <trkpt lat="47.35781" lon="-1.9405">
        <ele>54</ele>
        <time>2016-01-02T13:32:12Z</time>
      </trkpt>
      <trkpt lat="47.35779" lon="-1.94045">
        <ele>54</ele>
        <time>2016-01-02T13:32:13Z</time>
      </trkpt>
      <trkpt lat="47.35777" lon="-1.9404">
        <ele>54</ele>
        <time>2016-01-02T13:32:14Z</time>
      </trkpt>
      <trkpt lat="47.35775" lon="-1.94034">
        <ele>54</ele>
        <time>2016-01-02T13:32:15Z</time>
      </trkpt>
      <trkpt lat="47.35773" lon="-1.94028">
        <ele>55</ele>
        <time>2016-01-02T13:32:16Z</time>
      </trkpt>
      <trkpt lat="47.35771" lon="-1.94023">
        <ele>55</ele>
        <time>2016-01-02T13:32:17Z</time>
      </trkpt>
      <trkpt lat="47.3577" lon="-1.94018">
        <ele>54</ele>
        <time>2016-01-02T13:32:18Z</time>
      </trkpt>
      <trkpt lat="47.35769" lon="-1.94011">
        <ele>54</ele>
        <time>2016-01-02T13:32:19Z</time>
      </trkpt>
      <trkpt lat="47.35767" lon="-1.94005">
        <ele>54</ele>
        <time>2016-01-02T13:32:20Z</time>
      </trkpt>
      <trkpt lat="47.35766" lon="-1.93999">
        <ele>55</ele>
        <time>2016-01-02T13:32:21Z</time>
      </trkpt>
      <trkpt lat="47.35764" lon="-1.93993">
        <ele>55</ele>
        <time>2016-01-02T13:32:22Z</time>
      </trkpt>
      <trkpt lat="47.35762" lon="-1.93988">
        <ele>55</ele>
        <time>2016-01-02T13:32:23Z</time>
      </trkpt>
      <trkpt lat="47.3576" lon="-1.93983">
        <ele>56</ele>
        <time>2016-01-02T13:32:24Z</time>
      </trkpt>
      <trkpt lat="47.35758" lon="-1.93976">
        <ele>56</ele>
        <time>2016-01-02T13:32:25Z</time>
      </trkpt>
      <trkpt lat="47.35758" lon="-1.93969">
        <ele>56</ele>
        <time>2016-01-02T13:32:26Z</time>
      </trkpt>
      <trkpt lat="47.35758" lon="-1.93963">
        <ele>56</ele>
        <time>2016-01-02T13:32:27Z</time>
      </trkpt>
      <trkpt lat="47.35758" lon="-1.93957">
        <ele>56</ele>
        <time>2016-01-02T13:32:28Z</time>
      </trkpt>
      <trkpt lat="47.35762" lon="-1.93947">
        <ele>57</ele>
        <time>2016-01-02T13:32:30Z</time>
      </trkpt>
      <trkpt lat="47.35766" lon="-1.93943">
        <ele>57</ele>
        <time>2016-01-02T13:32:31Z</time>
      </trkpt>
      <trkpt lat="47.35768" lon="-1.93938">
        <ele>57</ele>
        <time>2016-01-02T13:32:32Z</time>
      </trkpt>
      <trkpt lat="47.35773" lon="-1.93938">
        <ele>57</ele>
        <time>2016-01-02T13:32:33Z</time>
      </trkpt>
      <trkpt lat="47.35776" lon="-1.93935">
        <ele>57</ele>
        <time>2016-01-02T13:32:34Z</time>
      </trkpt>
      <trkpt lat="47.35779" lon="-1.93932">
        <ele>57</ele>
        <time>2016-01-02T13:32:35Z</time>
      </trkpt>
      <trkpt lat="47.35784" lon="-1.93934">
        <ele>57</ele>
        <time>2016-01-02T13:32:36Z</time>
      </trkpt>
      <trkpt lat="47.35787" lon="-1.93933">
        <ele>57</ele>
        <time>2016-01-02T13:32:37Z</time>
      </trkpt>
      <trkpt lat="47.35791" lon="-1.93932">
        <ele>57</ele>
        <time>2016-01-02T13:32:38Z</time>
      </trkpt>
      <trkpt lat="47.35794" lon="-1.9393">
        <ele>57</ele>
        <time>2016-01-02T13:32:39Z</time>
      </trkpt>
      <trkpt lat="47.35798" lon="-1.93928">
        <ele>57</ele>
        <time>2016-01-02T13:32:40Z</time>
      </trkpt>
      <trkpt lat="47.35802" lon="-1.93927">
        <ele>57</ele>
        <time>2016-01-02T13:32:42Z</time>
      </trkpt>
      <trkpt lat="47.35806" lon="-1.93925">
        <ele>57</ele>
        <time>2016-01-02T13:32:43Z</time>
      </trkpt>
      <trkpt lat="47.35809" lon="-1.93923">
        <ele>58</ele>
        <time>2016-01-02T13:32:44Z</time>
      </trkpt>
      <trkpt lat="47.35814" lon="-1.9392">
        <ele>58</ele>
        <time>2016-01-02T13:32:46Z</time>
      </trkpt>
      <trkpt lat="47.35818" lon="-1.93918">
        <ele>58</ele>
        <time>2016-01-02T13:32:47Z</time>
      </trkpt>
      <trkpt lat="47.35823" lon="-1.93915">
        <ele>59</ele>
        <time>2016-01-02T13:32:49Z</time>
      </trkpt>
      <trkpt lat="47.35827" lon="-1.93913">
        <ele>59</ele>
        <time>2016-01-02T13:32:50Z</time>
      </trkpt>
      <trkpt lat="47.35833" lon="-1.93912">
        <ele>59</ele>
        <time>2016-01-02T13:32:52Z</time>
      </trkpt>
      <trkpt lat="47.35836" lon="-1.9391">
        <ele>59</ele>
        <time>2016-01-02T13:32:53Z</time>
      </trkpt>
      <trkpt lat="47.35842" lon="-1.93908">
        <ele>59</ele>
        <time>2016-01-02T13:32:55Z</time>
      </trkpt>
      <trkpt lat="47.35845" lon="-1.93907">
        <ele>59</ele>
        <time>2016-01-02T13:32:56Z</time>
      </trkpt>
      <trkpt lat="47.35849" lon="-1.93902">
        <ele>59</ele>
        <time>2016-01-02T13:32:58Z</time>
      </trkpt>
      <trkpt lat="47.3585" lon="-1.93896">
        <ele>59</ele>
        <time>2016-01-02T13:32:59Z</time>
      </trkpt>
      <trkpt lat="47.3585" lon="-1.93891">
        <ele>59</ele>
        <time>2016-01-02T13:33:00Z</time>
      </trkpt>
      <trkpt lat="47.3585" lon="-1.93886">
        <ele>59</ele>
        <time>2016-01-02T13:33:01Z</time>
      </trkpt>
      <trkpt lat="47.3585" lon="-1.93881">
        <ele>59</ele>
        <time>2016-01-02T13:33:02Z</time>
      </trkpt>
      <trkpt lat="47.35847" lon="-1.93875">
        <ele>59</ele>
        <time>2016-01-02T13:33:03Z</time>
      </trkpt>
      <trkpt lat="47.35846" lon="-1.9387">
        <ele>59</ele>
        <time>2016-01-02T13:33:04Z</time>
      </trkpt>
      <trkpt lat="47.35845" lon="-1.93866">
        <ele>59</ele>
        <time>2016-01-02T13:33:05Z</time>
      </trkpt>
      <trkpt lat="47.35843" lon="-1.9386">
        <ele>59</ele>
        <time>2016-01-02T13:33:06Z</time>
      </trkpt>
      <trkpt lat="47.35842" lon="-1.93855">
        <ele>59</ele>
        <time>2016-01-02T13:33:07Z</time>
      </trkpt>
      <trkpt lat="47.3584" lon="-1.9385">
        <ele>59</ele>
        <time>2016-01-02T13:33:08Z</time>
      </trkpt>
      <trkpt lat="47.35839" lon="-1.93845">
        <ele>59</ele>
        <time>2016-01-02T13:33:09Z</time>
      </trkpt>
      <trkpt lat="47.35837" lon="-1.93839">
        <ele>59</ele>
        <time>2016-01-02T13:33:10Z</time>
      </trkpt>
      <trkpt lat="47.35836" lon="-1.93834">
        <ele>59</ele>
        <time>2016-01-02T13:33:11Z</time>
      </trkpt>
      <trkpt lat="47.35835" lon="-1.93829">
        <ele>59</ele>
        <time>2016-01-02T13:33:12Z</time>
      </trkpt>
      <trkpt lat="47.35834" lon="-1.93824">
        <ele>59</ele>
        <time>2016-01-02T13:33:13Z</time>
      </trkpt>
      <trkpt lat="47.35832" lon="-1.93817">
        <ele>59</ele>
        <time>2016-01-02T13:33:14Z</time>
      </trkpt>
      <trkpt lat="47.35832" lon="-1.9381">
        <ele>59</ele>
        <time>2016-01-02T13:33:15Z</time>
      </trkpt>
      <trkpt lat="47.35831" lon="-1.93804">
        <ele>59</ele>
        <time>2016-01-02T13:33:16Z</time>
      </trkpt>
      <trkpt lat="47.3583" lon="-1.93799">
        <ele>59</ele>
        <time>2016-01-02T13:33:17Z</time>
      </trkpt>
      <trkpt lat="47.35829" lon="-1.93794">
        <ele>59</ele>
        <time>2016-01-02T13:33:18Z</time>
      </trkpt>
      <trkpt lat="47.35828" lon="-1.93787">
        <ele>59</ele>
        <time>2016-01-02T13:33:19Z</time>
      </trkpt>
      <trkpt lat="47.35827" lon="-1.93781">
        <ele>59</ele>
        <time>2016-01-02T13:33:20Z</time>
      </trkpt>
      <trkpt lat="47.35826" lon="-1.93776">
        <ele>59</ele>
        <time>2016-01-02T13:33:21Z</time>
      </trkpt>
      <trkpt lat="47.35825" lon="-1.93769">
        <ele>59</ele>
        <time>2016-01-02T13:33:22Z</time>
      </trkpt>
      <trkpt lat="47.35824" lon="-1.93764">
        <ele>60</ele>
        <time>2016-01-02T13:33:23Z</time>
      </trkpt>
      <trkpt lat="47.35823" lon="-1.93758">
        <ele>60</ele>
        <time>2016-01-02T13:33:24Z</time>
      </trkpt>
      <trkpt lat="47.35821" lon="-1.93753">
        <ele>60</ele>
        <time>2016-01-02T13:33:25Z</time>
      </trkpt>
      <trkpt lat="47.3582" lon="-1.93748">
        <ele>60</ele>
        <time>2016-01-02T13:33:26Z</time>
      </trkpt>
      <trkpt lat="47.35819" lon="-1.93742">
        <ele>60</ele>
        <time>2016-01-02T13:33:27Z</time>
      </trkpt>
      <trkpt lat="47.35818" lon="-1.93735">
        <ele>60</ele>
        <time>2016-01-02T13:33:28Z</time>
      </trkpt>
      <trkpt lat="47.35817" lon="-1.9373">
        <ele>60</ele>
        <time>2016-01-02T13:33:29Z</time>
      </trkpt>
      <trkpt lat="47.35817" lon="-1.93725">
        <ele>60</ele>
        <time>2016-01-02T13:33:30Z</time>
      </trkpt>
      <trkpt lat="47.35816" lon="-1.93718">
        <ele>60</ele>
        <time>2016-01-02T13:33:31Z</time>
      </trkpt>
      <trkpt lat="47.35815" lon="-1.93713">
        <ele>60</ele>
        <time>2016-01-02T13:33:32Z</time>
      </trkpt>
      <trkpt lat="47.35814" lon="-1.93707">
        <ele>59</ele>
        <time>2016-01-02T13:33:33Z</time>
      </trkpt>
      <trkpt lat="47.35813" lon="-1.93702">
        <ele>59</ele>
        <time>2016-01-02T13:33:34Z</time>
      </trkpt>
      <trkpt lat="47.35815" lon="-1.93697">
        <ele>59</ele>
        <time>2016-01-02T13:33:35Z</time>
      </trkpt>
      <trkpt lat="47.35817" lon="-1.93693">
        <ele>59</ele>
        <time>2016-01-02T13:33:36Z</time>
      </trkpt>
      <trkpt lat="47.35818" lon="-1.93689">
        <ele>59</ele>
        <time>2016-01-02T13:33:37Z</time>
      </trkpt>
      <trkpt lat="47.35821" lon="-1.93691">
        <ele>59</ele>
        <time>2016-01-02T13:33:38Z</time>
      </trkpt>
      <trkpt lat="47.35824" lon="-1.93691">
        <ele>59</ele>
        <time>2016-01-02T13:33:40Z</time>
      </trkpt>
      <trkpt lat="47.35827" lon="-1.93693">
        <ele>59</ele>
        <time>2016-01-02T13:33:49Z</time>
      </trkpt>
      <trkpt lat="47.3583" lon="-1.93693">
        <ele>59</ele>
        <time>2016-01-02T13:33:52Z</time>
      </trkpt>
      <trkpt lat="47.35827" lon="-1.93695">
        <ele>59</ele>
        <time>2016-01-02T13:34:03Z</time>
      </trkpt>
      <trkpt lat="47.35826" lon="-1.93699">
        <ele>59</ele>
        <time>2016-01-02T13:41:42Z</time>
      </trkpt>
      <trkpt lat="47.35825" lon="-1.93703">
        <ele>59</ele>
        <time>2016-01-02T13:41:51Z</time>
      </trkpt>
      <trkpt lat="47.35822" lon="-1.93704">
        <ele>59</ele>
        <time>2016-01-02T13:42:01Z</time>
      </trkpt>
      <trkpt lat="47.35815" lon="-1.93707">
        <ele>59</ele>
        <time>2016-01-02T13:45:02Z</time>
      </trkpt>
      <trkpt lat="47.35812" lon="-1.93708">
        <ele>59</ele>
        <time>2016-01-02T13:46:33Z</time>
      </trkpt>
      <trkpt lat="47.35807" lon="-1.93704">
        <ele>59</ele>
        <time>2016-01-02T13:49:59Z</time>
      </trkpt>
      <trkpt lat="47.35805" lon="-1.93699">
        <ele>59</ele>
        <time>2016-01-02T13:50:01Z</time>
      </trkpt>
      <trkpt lat="47.35805" lon="-1.93695">
        <ele>59</ele>
        <time>2016-01-02T13:50:02Z</time>
      </trkpt>
      <trkpt lat="47.35803" lon="-1.93689">
        <ele>59</ele>
        <time>2016-01-02T13:50:04Z</time>
      </trkpt>
      <trkpt lat="47.35803" lon="-1.93684">
        <ele>59</ele>
        <time>2016-01-02T13:50:05Z</time>
      </trkpt>
      <trkpt lat="47.35802" lon="-1.93679">
        <ele>59</ele>
        <time>2016-01-02T13:50:06Z</time>
      </trkpt>
      <trkpt lat="47.358" lon="-1.93671">
        <ele>59</ele>
        <time>2016-01-02T13:50:08Z</time>
      </trkpt>
      <trkpt lat="47.35798" lon="-1.93664">
        <ele>59</ele>
        <time>2016-01-02T13:50:09Z</time>
      </trkpt>
      <trkpt lat="47.35797" lon="-1.93658">
        <ele>59</ele>
        <time>2016-01-02T13:50:10Z</time>
      </trkpt>
      <trkpt lat="47.35796" lon="-1.93653">
        <ele>59</ele>
        <time>2016-01-02T13:50:11Z</time>
      </trkpt>
      <trkpt lat="47.35795" lon="-1.93647">
        <ele>59</ele>
        <time>2016-01-02T13:50:12Z</time>
      </trkpt>
      <trkpt lat="47.35794" lon="-1.93643">
        <ele>59</ele>
        <time>2016-01-02T13:50:13Z</time>
      </trkpt>
      <trkpt lat="47.35793" lon="-1.93638">
        <ele>59</ele>
        <time>2016-01-02T13:50:14Z</time>
      </trkpt>
      <trkpt lat="47.35792" lon="-1.93632">
        <ele>59</ele>
        <time>2016-01-02T13:50:15Z</time>
      </trkpt>
      <trkpt lat="47.35791" lon="-1.93627">
        <ele>59</ele>
        <time>2016-01-02T13:50:16Z</time>
      </trkpt>
      <trkpt lat="47.3579" lon="-1.93623">
        <ele>59</ele>
        <time>2016-01-02T13:50:17Z</time>
      </trkpt>
      <trkpt lat="47.35789" lon="-1.93616">
        <ele>59</ele>
        <time>2016-01-02T13:50:18Z</time>
      </trkpt>
      <trkpt lat="47.35788" lon="-1.93611">
        <ele>59</ele>
        <time>2016-01-02T13:50:19Z</time>
      </trkpt>
      <trkpt lat="47.35787" lon="-1.93606">
        <ele>59</ele>
        <time>2016-01-02T13:50:20Z</time>
      </trkpt>
      <trkpt lat="47.35781" lon="-1.93571">
        <ele>57</ele>
        <time>2016-01-02T13:50:22Z</time>
      </trkpt>
      <trkpt lat="47.3578" lon="-1.93562">
        <ele>56</ele>
        <time>2016-01-02T13:50:23Z</time>
      </trkpt>
      <trkpt lat="47.35778" lon="-1.93553">
        <ele>56</ele>
        <time>2016-01-02T13:50:24Z</time>
      </trkpt>
      <trkpt lat="47.35776" lon="-1.93544">
        <ele>55</ele>
        <time>2016-01-02T13:50:25Z</time>
      </trkpt>
      <trkpt lat="47.35772" lon="-1.93533">
        <ele>55</ele>
        <time>2016-01-02T13:50:26Z</time>
      </trkpt>
      <trkpt lat="47.35766" lon="-1.93523">
        <ele>54</ele>
        <time>2016-01-02T13:50:27Z</time>
      </trkpt>
      <trkpt lat="47.35764" lon="-1.93512">
        <ele>53</ele>
        <time>2016-01-02T13:50:28Z</time>
      </trkpt>
      <trkpt lat="47.35762" lon="-1.93502">
        <ele>53</ele>
        <time>2016-01-02T13:50:29Z</time>
      </trkpt>
      <trkpt lat="47.3576" lon="-1.93492">
        <ele>51</ele>
        <time>2016-01-02T13:50:30Z</time>
      </trkpt>
      <trkpt lat="47.35758" lon="-1.9348">
        <ele>51</ele>
        <time>2016-01-02T13:50:31Z</time>
      </trkpt>
      <trkpt lat="47.35756" lon="-1.93468">
        <ele>51</ele>
        <time>2016-01-02T13:50:32Z</time>
      </trkpt>
      <trkpt lat="47.35754" lon="-1.93457">
        <ele>51</ele>
        <time>2016-01-02T13:50:33Z</time>
      </trkpt>
      <trkpt lat="47.35752" lon="-1.93447">
        <ele>50</ele>
        <time>2016-01-02T13:50:34Z</time>
      </trkpt>
      <trkpt lat="47.35751" lon="-1.93433">
        <ele>50</ele>
        <time>2016-01-02T13:50:35Z</time>
      </trkpt>
      <trkpt lat="47.3575" lon="-1.93422">
        <ele>49</ele>
        <time>2016-01-02T13:50:36Z</time>
      </trkpt>
      <trkpt lat="47.35748" lon="-1.93407">
        <ele>47</ele>
        <time>2016-01-02T13:50:37Z</time>
      </trkpt>
      <trkpt lat="47.35746" lon="-1.93395">
        <ele>47</ele>
        <time>2016-01-02T13:50:38Z</time>
      </trkpt>
      <trkpt lat="47.35745" lon="-1.93382">
        <ele>47</ele>
        <time>2016-01-02T13:50:39Z</time>
      </trkpt>
      <trkpt lat="47.35748" lon="-1.93366">
        <ele>47</ele>
        <time>2016-01-02T13:50:40Z</time>
      </trkpt>
      <trkpt lat="47.3575" lon="-1.93352">
        <ele>47</ele>
        <time>2016-01-02T13:50:41Z</time>
      </trkpt>
      <trkpt lat="47.3575" lon="-1.93336">
        <ele>46</ele>
        <time>2016-01-02T13:50:42Z</time>
      </trkpt>
      <trkpt lat="47.3575" lon="-1.93321">
        <ele>46</ele>
        <time>2016-01-02T13:50:43Z</time>
      </trkpt>
      <trkpt lat="47.3575" lon="-1.93306">
        <ele>48</ele>
        <time>2016-01-02T13:50:44Z</time>
      </trkpt>
      <trkpt lat="47.3575" lon="-1.93291">
        <ele>46</ele>
        <time>2016-01-02T13:50:45Z</time>
      </trkpt>
      <trkpt lat="47.3575" lon="-1.93277">
        <ele>46</ele>
        <time>2016-01-02T13:50:46Z</time>
      </trkpt>
      <trkpt lat="47.35752" lon="-1.93264">
        <ele>47</ele>
        <time>2016-01-02T13:50:47Z</time>
      </trkpt>
      <trkpt lat="47.35754" lon="-1.93251">
        <ele>47</ele>
        <time>2016-01-02T13:50:48Z</time>
      </trkpt>
      <trkpt lat="47.35755" lon="-1.93238">
        <ele>48</ele>
        <time>2016-01-02T13:50:49Z</time>
      </trkpt>
      <trkpt lat="47.35751" lon="-1.93234">
        <ele>48</ele>
        <time>2016-01-02T13:50:50Z</time>
      </trkpt>
      <trkpt lat="47.35751" lon="-1.93226">
        <ele>48</ele>
        <time>2016-01-02T13:50:51Z</time>
      </trkpt>
      <trkpt lat="47.35751" lon="-1.93218">
        <ele>48</ele>
        <time>2016-01-02T13:50:52Z</time>
      </trkpt>
      <trkpt lat="47.35755" lon="-1.93219">
        <ele>48</ele>
        <time>2016-01-02T13:50:53Z</time>
      </trkpt>
      <trkpt lat="47.35754" lon="-1.93215">
        <ele>48</ele>
        <time>2016-01-02T13:50:56Z</time>
      </trkpt>
      <trkpt lat="47.35757" lon="-1.93215">
        <ele>48</ele>
        <time>2016-01-02T13:50:57Z</time>
      </trkpt>
      <trkpt lat="47.35763" lon="-1.93203">
        <ele>49</ele>
        <time>2016-01-02T13:51:00Z</time>
      </trkpt>
      <trkpt lat="47.35764" lon="-1.93197">
        <ele>49</ele>
        <time>2016-01-02T13:51:01Z</time>
      </trkpt>
      <trkpt lat="47.35766" lon="-1.93193">
        <ele>49</ele>
        <time>2016-01-02T13:51:02Z</time>
      </trkpt>
      <trkpt lat="47.35767" lon="-1.93188">
        <ele>49</ele>
        <time>2016-01-02T13:51:03Z</time>
      </trkpt>
      <trkpt lat="47.35769" lon="-1.93183">
        <ele>49</ele>
        <time>2016-01-02T13:51:04Z</time>
      </trkpt>
      <trkpt lat="47.35772" lon="-1.9318">
        <ele>49</ele>
        <time>2016-01-02T13:51:05Z</time>
      </trkpt>
      <trkpt lat="47.35774" lon="-1.93178">
        <ele>49</ele>
        <time>2016-01-02T13:51:06Z</time>
      </trkpt>
      <trkpt lat="47.35776" lon="-1.93174">
        <ele>49</ele>
        <time>2016-01-02T13:51:07Z</time>
      </trkpt>
      <trkpt lat="47.35778" lon="-1.9317">
        <ele>49</ele>
        <time>2016-01-02T13:51:26Z</time>
      </trkpt>
      <trkpt lat="47.35781" lon="-1.93166">
        <ele>51</ele>
        <time>2016-01-02T13:51:29Z</time>
      </trkpt>
      <trkpt lat="47.35783" lon="-1.93161">
        <ele>52</ele>
        <time>2016-01-02T13:51:31Z</time>
      </trkpt>
      <trkpt lat="47.35787" lon="-1.93154">
        <ele>52</ele>
        <time>2016-01-02T13:51:33Z</time>
      </trkpt>
      <trkpt lat="47.3579" lon="-1.93148">
        <ele>52</ele>
        <time>2016-01-02T13:51:35Z</time>
      </trkpt>
      <trkpt lat="47.35792" lon="-1.93143">
        <ele>52</ele>
        <time>2016-01-02T13:51:36Z</time>
      </trkpt>
      <trkpt lat="47.35794" lon="-1.9314">
        <ele>52</ele>
        <time>2016-01-02T13:51:37Z</time>
      </trkpt>
      <trkpt lat="47.35796" lon="-1.93137">
        <ele>52</ele>
        <time>2016-01-02T13:51:38Z</time>
      </trkpt>
      <trkpt lat="47.35798" lon="-1.93133">
        <ele>52</ele>
        <time>2016-01-02T13:51:39Z</time>
      </trkpt>
      <trkpt lat="47.35801" lon="-1.93126">
        <ele>52</ele>
        <time>2016-01-02T13:51:41Z</time>
      </trkpt>
      <trkpt lat="47.35803" lon="-1.93122">
        <ele>52</ele>
        <time>2016-01-02T13:51:42Z</time>
      </trkpt>
      <trkpt lat="47.35805" lon="-1.93118">
        <ele>52</ele>
        <time>2016-01-02T13:51:43Z</time>
      </trkpt>
      <trkpt lat="47.35806" lon="-1.93114">
        <ele>52</ele>
        <time>2016-01-02T13:51:44Z</time>
      </trkpt>
      <trkpt lat="47.35808" lon="-1.93107">
        <ele>52</ele>
        <time>2016-01-02T13:51:46Z</time>
      </trkpt>
      <trkpt lat="47.35809" lon="-1.93104">
        <ele>53</ele>
        <time>2016-01-02T13:51:47Z</time>
      </trkpt>
      <trkpt lat="47.35811" lon="-1.93096">
        <ele>53</ele>
        <time>2016-01-02T13:51:49Z</time>
      </trkpt>
      <trkpt lat="47.35814" lon="-1.9309">
        <ele>53</ele>
        <time>2016-01-02T13:51:51Z</time>
      </trkpt>
      <trkpt lat="47.35817" lon="-1.93084">
        <ele>53</ele>
        <time>2016-01-02T13:51:53Z</time>
      </trkpt>
      <trkpt lat="47.35819" lon="-1.9308">
        <ele>54</ele>
        <time>2016-01-02T13:51:54Z</time>
      </trkpt>
      <trkpt lat="47.3582" lon="-1.93076">
        <ele>55</ele>
        <time>2016-01-02T13:51:55Z</time>
      </trkpt>
      <trkpt lat="47.35821" lon="-1.93072">
        <ele>55</ele>
        <time>2016-01-02T13:51:56Z</time>
      </trkpt>
      <trkpt lat="47.35822" lon="-1.93064">
        <ele>55</ele>
        <time>2016-01-02T13:51:58Z</time>
      </trkpt>
      <trkpt lat="47.35822" lon="-1.93059">
        <ele>55</ele>
        <time>2016-01-02T13:51:59Z</time>
      </trkpt>
      <trkpt lat="47.35822" lon="-1.93055">
        <ele>55</ele>
        <time>2016-01-02T13:52:00Z</time>
      </trkpt>
      <trkpt lat="47.35822" lon="-1.9305">
        <ele>55</ele>
        <time>2016-01-02T13:52:01Z</time>
      </trkpt>
      <trkpt lat="47.35823" lon="-1.93046">
        <ele>55</ele>
        <time>2016-01-02T13:52:02Z</time>
      </trkpt>
      <trkpt lat="47.35824" lon="-1.93038">
        <ele>56</ele>
        <time>2016-01-02T13:52:04Z</time>
      </trkpt>
      <trkpt lat="47.35824" lon="-1.93033">
        <ele>56</ele>
        <time>2016-01-02T13:52:05Z</time>
      </trkpt>
      <trkpt lat="47.35825" lon="-1.93025">
        <ele>56</ele>
        <time>2016-01-02T13:52:07Z</time>
      </trkpt>
      <trkpt lat="47.35826" lon="-1.93021">
        <ele>57</ele>
        <time>2016-01-02T13:52:08Z</time>
      </trkpt>
      <trkpt lat="47.35826" lon="-1.93017">
        <ele>57</ele>
        <time>2016-01-02T13:52:09Z</time>
      </trkpt>
      <trkpt lat="47.35826" lon="-1.93012">
        <ele>57</ele>
        <time>2016-01-02T13:52:10Z</time>
      </trkpt>
      <trkpt lat="47.35826" lon="-1.93008">
        <ele>58</ele>
        <time>2016-01-02T13:52:11Z</time>
      </trkpt>
      <trkpt lat="47.35827" lon="-1.93">
        <ele>58</ele>
        <time>2016-01-02T13:52:13Z</time>
      </trkpt>
      <trkpt lat="47.35828" lon="-1.92992">
        <ele>58</ele>
        <time>2016-01-02T13:52:15Z</time>
      </trkpt>
      <trkpt lat="47.35829" lon="-1.92988">
        <ele>58</ele>
        <time>2016-01-02T13:52:16Z</time>
      </trkpt>
      <trkpt lat="47.3583" lon="-1.9298">
        <ele>58</ele>
        <time>2016-01-02T13:52:18Z</time>
      </trkpt>
      <trkpt lat="47.35829" lon="-1.92976">
        <ele>58</ele>
        <time>2016-01-02T13:52:19Z</time>
      </trkpt>
      <trkpt lat="47.35828" lon="-1.92972">
        <ele>58</ele>
        <time>2016-01-02T13:52:20Z</time>
      </trkpt>
      <trkpt lat="47.35827" lon="-1.92968">
        <ele>58</ele>
        <time>2016-01-02T13:52:21Z</time>
      </trkpt>
      <trkpt lat="47.35826" lon="-1.92961">
        <ele>58</ele>
        <time>2016-01-02T13:52:23Z</time>
      </trkpt>
      <trkpt lat="47.35827" lon="-1.92956">
        <ele>58</ele>
        <time>2016-01-02T13:52:24Z</time>
      </trkpt>
      <trkpt lat="47.35827" lon="-1.92947">
        <ele>58</ele>
        <time>2016-01-02T13:52:26Z</time>
      </trkpt>
      <trkpt lat="47.35827" lon="-1.92941">
        <ele>58</ele>
        <time>2016-01-02T13:52:27Z</time>
      </trkpt>
      <trkpt lat="47.35827" lon="-1.92936">
        <ele>58</ele>
        <time>2016-01-02T13:52:28Z</time>
      </trkpt>
      <trkpt lat="47.35827" lon="-1.92931">
        <ele>59</ele>
        <time>2016-01-02T13:52:29Z</time>
      </trkpt>
      <trkpt lat="47.35827" lon="-1.92926">
        <ele>59</ele>
        <time>2016-01-02T13:52:30Z</time>
      </trkpt>
      <trkpt lat="47.35827" lon="-1.92921">
        <ele>59</ele>
        <time>2016-01-02T13:52:31Z</time>
      </trkpt>
      <trkpt lat="47.35827" lon="-1.92915">
        <ele>59</ele>
        <time>2016-01-02T13:52:32Z</time>
      </trkpt>
      <trkpt lat="47.35827" lon="-1.9291">
        <ele>59</ele>
        <time>2016-01-02T13:52:33Z</time>
      </trkpt>
      <trkpt lat="47.35826" lon="-1.92905">
        <ele>58</ele>
        <time>2016-01-02T13:52:34Z</time>
      </trkpt>
      <trkpt lat="47.35826" lon="-1.92899">
        <ele>58</ele>
        <time>2016-01-02T13:52:35Z</time>
      </trkpt>
      <trkpt lat="47.35826" lon="-1.92894">
        <ele>58</ele>
        <time>2016-01-02T13:52:36Z</time>
      </trkpt>
      <trkpt lat="47.35826" lon="-1.92888">
        <ele>57</ele>
        <time>2016-01-02T13:52:37Z</time>
      </trkpt>
      <trkpt lat="47.35826" lon="-1.92882">
        <ele>57</ele>
        <time>2016-01-02T13:52:38Z</time>
      </trkpt>
      <trkpt lat="47.35825" lon="-1.92876">
        <ele>57</ele>
        <time>2016-01-02T13:52:39Z</time>
      </trkpt>
      <trkpt lat="47.35825" lon="-1.92869">
        <ele>57</ele>
        <time>2016-01-02T13:52:40Z</time>
      </trkpt>
      <trkpt lat="47.35825" lon="-1.92864">
        <ele>57</ele>
        <time>2016-01-02T13:52:41Z</time>
      </trkpt>
      <trkpt lat="47.35824" lon="-1.92857">
        <ele>57</ele>
        <time>2016-01-02T13:52:42Z</time>
      </trkpt>
      <trkpt lat="47.35824" lon="-1.92851">
        <ele>57</ele>
        <time>2016-01-02T13:52:43Z</time>
      </trkpt>
      <trkpt lat="47.35824" lon="-1.92846">
        <ele>57</ele>
        <time>2016-01-02T13:52:44Z</time>
      </trkpt>
      <trkpt lat="47.35822" lon="-1.92833">
        <ele>56</ele>
        <time>2016-01-02T13:52:45Z</time>
      </trkpt>
      <trkpt lat="47.35822" lon="-1.92825">
        <ele>56</ele>
        <time>2016-01-02T13:52:46Z</time>
      </trkpt>
      <trkpt lat="47.35823" lon="-1.92816">
        <ele>55</ele>
        <time>2016-01-02T13:52:47Z</time>
      </trkpt>
      <trkpt lat="47.35823" lon="-1.92807">
        <ele>55</ele>
        <time>2016-01-02T13:52:48Z</time>
      </trkpt>
      <trkpt lat="47.35822" lon="-1.928">
        <ele>55</ele>
        <time>2016-01-02T13:52:49Z</time>
      </trkpt>
      <trkpt lat="47.35821" lon="-1.92792">
        <ele>54</ele>
        <time>2016-01-02T13:52:50Z</time>
      </trkpt>
      <trkpt lat="47.3582" lon="-1.92785">
        <ele>54</ele>
        <time>2016-01-02T13:52:51Z</time>
      </trkpt>
      <trkpt lat="47.35819" lon="-1.92777">
        <ele>54</ele>
        <time>2016-01-02T13:52:52Z</time>
      </trkpt>
      <trkpt lat="47.35818" lon="-1.92767">
        <ele>54</ele>
        <time>2016-01-02T13:52:53Z</time>
      </trkpt>
      <trkpt lat="47.35817" lon="-1.92759">
        <ele>54</ele>
        <time>2016-01-02T13:52:54Z</time>
      </trkpt>
      <trkpt lat="47.35818" lon="-1.92749">
        <ele>53</ele>
        <time>2016-01-02T13:52:55Z</time>
      </trkpt>
      <trkpt lat="47.35818" lon="-1.92739">
        <ele>52</ele>
        <time>2016-01-02T13:52:56Z</time>
      </trkpt>
      <trkpt lat="47.35817" lon="-1.92731">
        <ele>52</ele>
        <time>2016-01-02T13:52:57Z</time>
      </trkpt>
      <trkpt lat="47.35816" lon="-1.92722">
        <ele>52</ele>
        <time>2016-01-02T13:52:58Z</time>
      </trkpt>
      <trkpt lat="47.35816" lon="-1.92714">
        <ele>51</ele>
        <time>2016-01-02T13:52:59Z</time>
      </trkpt>
      <trkpt lat="47.35815" lon="-1.92708">
        <ele>51</ele>
        <time>2016-01-02T13:53:00Z</time>
      </trkpt>
      <trkpt lat="47.35812" lon="-1.92695">
        <ele>51</ele>
        <time>2016-01-02T13:53:02Z</time>
      </trkpt>
      <trkpt lat="47.35813" lon="-1.92688">
        <ele>51</ele>
        <time>2016-01-02T13:53:03Z</time>
      </trkpt>
      <trkpt lat="47.35813" lon="-1.92681">
        <ele>50</ele>
        <time>2016-01-02T13:53:04Z</time>
      </trkpt>
      <trkpt lat="47.35813" lon="-1.92675">
        <ele>50</ele>
        <time>2016-01-02T13:53:05Z</time>
      </trkpt>
      <trkpt lat="47.35813" lon="-1.92667">
        <ele>50</ele>
        <time>2016-01-02T13:53:06Z</time>
      </trkpt>
      <trkpt lat="47.35811" lon="-1.9266">
        <ele>50</ele>
        <time>2016-01-02T13:53:07Z</time>
      </trkpt>
      <trkpt lat="47.35809" lon="-1.92653">
        <ele>50</ele>
        <time>2016-01-02T13:53:08Z</time>
      </trkpt>
      <trkpt lat="47.35807" lon="-1.92647">
        <ele>50</ele>
        <time>2016-01-02T13:53:09Z</time>
      </trkpt>
      <trkpt lat="47.35807" lon="-1.92635">
        <ele>50</ele>
        <time>2016-01-02T13:53:10Z</time>
      </trkpt>
      <trkpt lat="47.35805" lon="-1.92629">
        <ele>50</ele>
        <time>2016-01-02T13:53:11Z</time>
      </trkpt>
      <trkpt lat="47.35802" lon="-1.92624">
        <ele>50</ele>
        <time>2016-01-02T13:53:12Z</time>
      </trkpt>
      <trkpt lat="47.358" lon="-1.92617">
        <ele>50</ele>
        <time>2016-01-02T13:53:13Z</time>
      </trkpt>
      <trkpt lat="47.35798" lon="-1.92611">
        <ele>50</ele>
        <time>2016-01-02T13:53:14Z</time>
      </trkpt>
      <trkpt lat="47.35794" lon="-1.92605">
        <ele>50</ele>
        <time>2016-01-02T13:53:15Z</time>
      </trkpt>
      <trkpt lat="47.35791" lon="-1.92601">
        <ele>50</ele>
        <time>2016-01-02T13:53:16Z</time>
      </trkpt>
      <trkpt lat="47.35787" lon="-1.92595">
        <ele>50</ele>
        <time>2016-01-02T13:53:17Z</time>
      </trkpt>
      <trkpt lat="47.35784" lon="-1.9259">
        <ele>50</ele>
        <time>2016-01-02T13:53:18Z</time>
      </trkpt>
      <trkpt lat="47.35781" lon="-1.92585">
        <ele>51</ele>
        <time>2016-01-02T13:53:19Z</time>
      </trkpt>
      <trkpt lat="47.35778" lon="-1.9258">
        <ele>52</ele>
        <time>2016-01-02T13:53:20Z</time>
      </trkpt>
      <trkpt lat="47.35775" lon="-1.92575">
        <ele>52</ele>
        <time>2016-01-02T13:53:21Z</time>
      </trkpt>
      <trkpt lat="47.35772" lon="-1.9257">
        <ele>52</ele>
        <time>2016-01-02T13:53:22Z</time>
      </trkpt>
      <trkpt lat="47.3577" lon="-1.92565">
        <ele>52</ele>
        <time>2016-01-02T13:53:23Z</time>
      </trkpt>
      <trkpt lat="47.35768" lon="-1.92559">
        <ele>52</ele>
        <time>2016-01-02T13:53:24Z</time>
      </trkpt>
      <trkpt lat="47.35765" lon="-1.92553">
        <ele>52</ele>
        <time>2016-01-02T13:53:25Z</time>
      </trkpt>
      <trkpt lat="47.35763" lon="-1.92547">
        <ele>53</ele>
        <time>2016-01-02T13:53:26Z</time>
      </trkpt>
      <trkpt lat="47.35761" lon="-1.92542">
        <ele>53</ele>
        <time>2016-01-02T13:53:27Z</time>
      </trkpt>
      <trkpt lat="47.35758" lon="-1.92536">
        <ele>53</ele>
        <time>2016-01-02T13:53:28Z</time>
      </trkpt>
      <trkpt lat="47.35755" lon="-1.92529">
        <ele>53</ele>
        <time>2016-01-02T13:53:29Z</time>
      </trkpt>
      <trkpt lat="47.35755" lon="-1.92521">
        <ele>53</ele>
        <time>2016-01-02T13:53:30Z</time>
      </trkpt>
      <trkpt lat="47.35753" lon="-1.92514">
        <ele>54</ele>
        <time>2016-01-02T13:53:31Z</time>
      </trkpt>
      <trkpt lat="47.35752" lon="-1.92508">
        <ele>54</ele>
        <time>2016-01-02T13:53:32Z</time>
      </trkpt>
      <trkpt lat="47.35748" lon="-1.925">
        <ele>55</ele>
        <time>2016-01-02T13:53:33Z</time>
      </trkpt>
      <trkpt lat="47.35747" lon="-1.92493">
        <ele>54</ele>
        <time>2016-01-02T13:53:34Z</time>
      </trkpt>
      <trkpt lat="47.35746" lon="-1.92486">
        <ele>53</ele>
        <time>2016-01-02T13:53:35Z</time>
      </trkpt>
      <trkpt lat="47.3575" lon="-1.92483">
        <ele>53</ele>
        <time>2016-01-02T13:53:36Z</time>
      </trkpt>
      <trkpt lat="47.35751" lon="-1.92477">
        <ele>54</ele>
        <time>2016-01-02T13:53:37Z</time>
      </trkpt>
      <trkpt lat="47.3575" lon="-1.92472">
        <ele>53</ele>
        <time>2016-01-02T13:53:38Z</time>
      </trkpt>
      <trkpt lat="47.3575" lon="-1.92464">
        <ele>53</ele>
        <time>2016-01-02T13:53:39Z</time>
      </trkpt>
      <trkpt lat="47.35752" lon="-1.92458">
        <ele>53</ele>
        <time>2016-01-02T13:53:40Z</time>
      </trkpt>
      <trkpt lat="47.35753" lon="-1.92453">
        <ele>53</ele>
        <time>2016-01-02T13:53:41Z</time>
      </trkpt>
      <trkpt lat="47.35753" lon="-1.92448">
        <ele>53</ele>
        <time>2016-01-02T13:53:42Z</time>
      </trkpt>
      <trkpt lat="47.35753" lon="-1.92439">
        <ele>52</ele>
        <time>2016-01-02T13:53:44Z</time>
      </trkpt>
      <trkpt lat="47.35754" lon="-1.92433">
        <ele>52</ele>
        <time>2016-01-02T13:53:45Z</time>
      </trkpt>
      <trkpt lat="47.35757" lon="-1.9243">
        <ele>52</ele>
        <time>2016-01-02T13:53:46Z</time>
      </trkpt>
      <trkpt lat="47.35755" lon="-1.92424">
        <ele>52</ele>
        <time>2016-01-02T13:53:48Z</time>
      </trkpt>
      <trkpt lat="47.35758" lon="-1.92416">
        <ele>51</ele>
        <time>2016-01-02T13:53:51Z</time>
      </trkpt>
      <trkpt lat="47.35757" lon="-1.92409">
        <ele>51</ele>
        <time>2016-01-02T13:53:53Z</time>
      </trkpt>
      <trkpt lat="47.35761" lon="-1.92397">
        <ele>52</ele>
        <time>2016-01-02T13:53:54Z</time>
      </trkpt>
      <trkpt lat="47.3576" lon="-1.92391">
        <ele>52</ele>
        <time>2016-01-02T13:53:56Z</time>
      </trkpt>
      <trkpt lat="47.35762" lon="-1.92386">
        <ele>52</ele>
        <time>2016-01-02T13:53:57Z</time>
      </trkpt>
      <trkpt lat="47.35764" lon="-1.92384">
        <ele>52</ele>
        <time>2016-01-02T13:53:59Z</time>
      </trkpt>
      <trkpt lat="47.35761" lon="-1.92381">
        <ele>52</ele>
        <time>2016-01-02T13:54:00Z</time>
      </trkpt>
      <trkpt lat="47.3576" lon="-1.92375">
        <ele>52</ele>
        <time>2016-01-02T13:54:02Z</time>
      </trkpt>
      <trkpt lat="47.35759" lon="-1.9237">
        <ele>52</ele>
        <time>2016-01-02T13:54:04Z</time>
      </trkpt>
      <trkpt lat="47.3576" lon="-1.92362">
        <ele>52</ele>
        <time>2016-01-02T13:54:06Z</time>
      </trkpt>
      <trkpt lat="47.35761" lon="-1.92358">
        <ele>52</ele>
        <time>2016-01-02T13:54:07Z</time>
      </trkpt>
      <trkpt lat="47.35762" lon="-1.92353">
        <ele>52</ele>
        <time>2016-01-02T13:54:08Z</time>
      </trkpt>
      <trkpt lat="47.35763" lon="-1.92348">
        <ele>51</ele>
        <time>2016-01-02T13:54:09Z</time>
      </trkpt>
      <trkpt lat="47.35763" lon="-1.92343">
        <ele>51</ele>
        <time>2016-01-02T13:54:10Z</time>
      </trkpt>
      <trkpt lat="47.35763" lon="-1.92338">
        <ele>51</ele>
        <time>2016-01-02T13:54:11Z</time>
      </trkpt>
      <trkpt lat="47.35763" lon="-1.92333">
        <ele>51</ele>
        <time>2016-01-02T13:54:12Z</time>
      </trkpt>
      <trkpt lat="47.35763" lon="-1.92327">
        <ele>51</ele>
        <time>2016-01-02T13:54:13Z</time>
      </trkpt>
      <trkpt lat="47.35763" lon="-1.92322">
        <ele>51</ele>
        <time>2016-01-02T13:54:14Z</time>
      </trkpt>
      <trkpt lat="47.35763" lon="-1.92317">
        <ele>51</ele>
        <time>2016-01-02T13:54:15Z</time>
      </trkpt>
      <trkpt lat="47.35763" lon="-1.92311">
        <ele>51</ele>
        <time>2016-01-02T13:54:16Z</time>
      </trkpt>
      <trkpt lat="47.35762" lon="-1.92307">
        <ele>52</ele>
        <time>2016-01-02T13:54:17Z</time>
      </trkpt>
      <trkpt lat="47.35762" lon="-1.92301">
        <ele>52</ele>
        <time>2016-01-02T13:54:18Z</time>
      </trkpt>
      <trkpt lat="47.35762" lon="-1.92296">
        <ele>52</ele>
        <time>2016-01-02T13:54:19Z</time>
      </trkpt>
      <trkpt lat="47.35762" lon="-1.92291">
        <ele>52</ele>
        <time>2016-01-02T13:54:20Z</time>
      </trkpt>
      <trkpt lat="47.35762" lon="-1.92286">
        <ele>51</ele>
        <time>2016-01-02T13:54:21Z</time>
      </trkpt>
      <trkpt lat="47.35763" lon="-1.92281">
        <ele>51</ele>
        <time>2016-01-02T13:54:22Z</time>
      </trkpt>
      <trkpt lat="47.35763" lon="-1.92276">
        <ele>51</ele>
        <time>2016-01-02T13:54:23Z</time>
      </trkpt>
      <trkpt lat="47.35763" lon="-1.92271">
        <ele>51</ele>
        <time>2016-01-02T13:54:24Z</time>
      </trkpt>
      <trkpt lat="47.35763" lon="-1.92266">
        <ele>51</ele>
        <time>2016-01-02T13:54:25Z</time>
      </trkpt>
      <trkpt lat="47.35763" lon="-1.92262">
        <ele>51</ele>
        <time>2016-01-02T13:54:26Z</time>
      </trkpt>
      <trkpt lat="47.35763" lon="-1.92257">
        <ele>51</ele>
        <time>2016-01-02T13:54:27Z</time>
      </trkpt>
      <trkpt lat="47.35762" lon="-1.92251">
        <ele>50</ele>
        <time>2016-01-02T13:54:28Z</time>
      </trkpt>
      <trkpt lat="47.35762" lon="-1.92245">
        <ele>49</ele>
        <time>2016-01-02T13:54:29Z</time>
      </trkpt>
      <trkpt lat="47.35761" lon="-1.92239">
        <ele>49</ele>
        <time>2016-01-02T13:54:30Z</time>
      </trkpt>
      <trkpt lat="47.3576" lon="-1.92233">
        <ele>49</ele>
        <time>2016-01-02T13:54:31Z</time>
      </trkpt>
      <trkpt lat="47.3576" lon="-1.92227">
        <ele>49</ele>
        <time>2016-01-02T13:54:32Z</time>
      </trkpt>
      <trkpt lat="47.35758" lon="-1.92221">
        <ele>49</ele>
        <time>2016-01-02T13:54:33Z</time>
      </trkpt>
      <trkpt lat="47.35757" lon="-1.92215">
        <ele>49</ele>
        <time>2016-01-02T13:54:34Z</time>
      </trkpt>
      <trkpt lat="47.35756" lon="-1.92209">
        <ele>49</ele>
        <time>2016-01-02T13:54:35Z</time>
      </trkpt>
      <trkpt lat="47.35755" lon="-1.92203">
        <ele>49</ele>
        <time>2016-01-02T13:54:36Z</time>
      </trkpt>
      <trkpt lat="47.35754" lon="-1.92197">
        <ele>48</ele>
        <time>2016-01-02T13:54:37Z</time>
      </trkpt>
      <trkpt lat="47.35752" lon="-1.92191">
        <ele>48</ele>
        <time>2016-01-02T13:54:38Z</time>
      </trkpt>
      <trkpt lat="47.35751" lon="-1.92185">
        <ele>47</ele>
        <time>2016-01-02T13:54:39Z</time>
      </trkpt>
      <trkpt lat="47.35747" lon="-1.92175">
        <ele>45</ele>
        <time>2016-01-02T13:54:40Z</time>
      </trkpt>
      <trkpt lat="47.35744" lon="-1.92168">
        <ele>45</ele>
        <time>2016-01-02T13:54:41Z</time>
      </trkpt>
      <trkpt lat="47.35742" lon="-1.92161">
        <ele>45</ele>
        <time>2016-01-02T13:54:42Z</time>
      </trkpt>
      <trkpt lat="47.3574" lon="-1.92156">
        <ele>45</ele>
        <time>2016-01-02T13:54:43Z</time>
      </trkpt>
      <trkpt lat="47.35738" lon="-1.92149">
        <ele>46</ele>
        <time>2016-01-02T13:54:44Z</time>
      </trkpt>
      <trkpt lat="47.35735" lon="-1.92143">
        <ele>46</ele>
        <time>2016-01-02T13:54:45Z</time>
      </trkpt>
      <trkpt lat="47.35734" lon="-1.92136">
        <ele>46</ele>
        <time>2016-01-02T13:54:46Z</time>
      </trkpt>
      <trkpt lat="47.35731" lon="-1.9213">
        <ele>46</ele>
        <time>2016-01-02T13:54:47Z</time>
      </trkpt>
      <trkpt lat="47.35729" lon="-1.92125">
        <ele>46</ele>
        <time>2016-01-02T13:54:48Z</time>
      </trkpt>
      <trkpt lat="47.35724" lon="-1.92122">
        <ele>46</ele>
        <time>2016-01-02T13:54:49Z</time>
      </trkpt>
      <trkpt lat="47.3572" lon="-1.92119">
        <ele>46</ele>
        <time>2016-01-02T13:54:50Z</time>
      </trkpt>
      <trkpt lat="47.35717" lon="-1.92117">
        <ele>46</ele>
        <time>2016-01-02T13:54:51Z</time>
      </trkpt>
      <trkpt lat="47.35714" lon="-1.92115">
        <ele>46</ele>
        <time>2016-01-02T13:54:52Z</time>
      </trkpt>
      <trkpt lat="47.35709" lon="-1.92115">
        <ele>46</ele>
        <time>2016-01-02T13:54:53Z</time>
      </trkpt>
      <trkpt lat="47.35705" lon="-1.92119">
        <ele>46</ele>
        <time>2016-01-02T13:54:54Z</time>
      </trkpt>
      <trkpt lat="47.35701" lon="-1.92124">
        <ele>46</ele>
        <time>2016-01-02T13:54:55Z</time>
      </trkpt>
      <trkpt lat="47.35699" lon="-1.92129">
        <ele>46</ele>
        <time>2016-01-02T13:54:56Z</time>
      </trkpt>
      <trkpt lat="47.35699" lon="-1.92134">
        <ele>46</ele>
        <time>2016-01-02T13:54:57Z</time>
      </trkpt>
      <trkpt lat="47.35701" lon="-1.92139">
        <ele>46</ele>
        <time>2016-01-02T13:54:58Z</time>
      </trkpt>
      <trkpt lat="47.35702" lon="-1.92144">
        <ele>46</ele>
        <time>2016-01-02T13:54:59Z</time>
      </trkpt>
      <trkpt lat="47.35704" lon="-1.92151">
        <ele>46</ele>
        <time>2016-01-02T13:55:00Z</time>
      </trkpt>
      <trkpt lat="47.35704" lon="-1.92158">
        <ele>46</ele>
        <time>2016-01-02T13:55:01Z</time>
      </trkpt>
      <trkpt lat="47.35703" lon="-1.92164">
        <ele>46</ele>
        <time>2016-01-02T13:55:02Z</time>
      </trkpt>
      <trkpt lat="47.357" lon="-1.92171">
        <ele>45</ele>
        <time>2016-01-02T13:55:03Z</time>
      </trkpt>
      <trkpt lat="47.35697" lon="-1.92178">
        <ele>45</ele>
        <time>2016-01-02T13:55:04Z</time>
      </trkpt>
      <trkpt lat="47.35693" lon="-1.92184">
        <ele>45</ele>
        <time>2016-01-02T13:55:05Z</time>
      </trkpt>
      <trkpt lat="47.35688" lon="-1.9219">
        <ele>45</ele>
        <time>2016-01-02T13:55:06Z</time>
      </trkpt>
      <trkpt lat="47.35684" lon="-1.92196">
        <ele>45</ele>
        <time>2016-01-02T13:55:07Z</time>
      </trkpt>
      <trkpt lat="47.35679" lon="-1.922">
        <ele>45</ele>
        <time>2016-01-02T13:55:08Z</time>
      </trkpt>
      <trkpt lat="47.35675" lon="-1.92205">
        <ele>45</ele>
        <time>2016-01-02T13:55:09Z</time>
      </trkpt>
      <trkpt lat="47.35668" lon="-1.92206">
        <ele>45</ele>
        <time>2016-01-02T13:55:10Z</time>
      </trkpt>
      <trkpt lat="47.35662" lon="-1.9221">
        <ele>46</ele>
        <time>2016-01-02T13:55:11Z</time>
      </trkpt>
      <trkpt lat="47.35658" lon="-1.92214">
        <ele>46</ele>
        <time>2016-01-02T13:55:12Z</time>
      </trkpt>
      <trkpt lat="47.35654" lon="-1.92219">
        <ele>46</ele>
        <time>2016-01-02T13:55:13Z</time>
      </trkpt>
      <trkpt lat="47.35649" lon="-1.92224">
        <ele>46</ele>
        <time>2016-01-02T13:55:14Z</time>
      </trkpt>
      <trkpt lat="47.35655" lon="-1.92234">
        <ele>46</ele>
        <time>2016-01-02T13:55:15Z</time>
      </trkpt>
      <trkpt lat="47.35656" lon="-1.92239">
        <ele>46</ele>
        <time>2016-01-02T13:55:16Z</time>
      </trkpt>
      <trkpt lat="47.35656" lon="-1.92243">
        <ele>45</ele>
        <time>2016-01-02T13:55:17Z</time>
      </trkpt>
      <trkpt lat="47.35654" lon="-1.92246">
        <ele>45</ele>
        <time>2016-01-02T13:55:18Z</time>
      </trkpt>
      <trkpt lat="47.35651" lon="-1.92248">
        <ele>46</ele>
        <time>2016-01-02T13:55:19Z</time>
      </trkpt>
      <trkpt lat="47.35648" lon="-1.9225">
        <ele>45</ele>
        <time>2016-01-02T13:55:20Z</time>
      </trkpt>
      <trkpt lat="47.35644" lon="-1.92253">
        <ele>46</ele>
        <time>2016-01-02T13:55:21Z</time>
      </trkpt>
      <trkpt lat="47.35641" lon="-1.92257">
        <ele>46</ele>
        <time>2016-01-02T13:55:22Z</time>
      </trkpt>
      <trkpt lat="47.35641" lon="-1.92263">
        <ele>46</ele>
        <time>2016-01-02T13:55:23Z</time>
      </trkpt>
      <trkpt lat="47.3564" lon="-1.92271">
        <ele>46</ele>
        <time>2016-01-02T13:55:25Z</time>
      </trkpt>
      <trkpt lat="47.35639" lon="-1.92275">
        <ele>46</ele>
        <time>2016-01-02T13:55:26Z</time>
      </trkpt>
      <trkpt lat="47.35637" lon="-1.92278">
        <ele>46</ele>
        <time>2016-01-02T13:55:27Z</time>
      </trkpt>
      <trkpt lat="47.35634" lon="-1.92282">
        <ele>46</ele>
        <time>2016-01-02T13:55:28Z</time>
      </trkpt>
      <trkpt lat="47.35629" lon="-1.92288">
        <ele>46</ele>
        <time>2016-01-02T13:55:30Z</time>
      </trkpt>
      <trkpt lat="47.35626" lon="-1.92291">
        <ele>46</ele>
        <time>2016-01-02T13:55:31Z</time>
      </trkpt>
      <trkpt lat="47.35623" lon="-1.92294">
        <ele>47</ele>
        <time>2016-01-02T13:55:32Z</time>
      </trkpt>
      <trkpt lat="47.3562" lon="-1.92297">
        <ele>47</ele>
        <time>2016-01-02T13:55:33Z</time>
      </trkpt>
      <trkpt lat="47.35617" lon="-1.923">
        <ele>47</ele>
        <time>2016-01-02T13:55:34Z</time>
      </trkpt>
      <trkpt lat="47.35612" lon="-1.92305">
        <ele>47</ele>
        <time>2016-01-02T13:55:35Z</time>
      </trkpt>
      <trkpt lat="47.35608" lon="-1.9231">
        <ele>47</ele>
        <time>2016-01-02T13:55:36Z</time>
      </trkpt>
      <trkpt lat="47.35604" lon="-1.92315">
        <ele>46</ele>
        <time>2016-01-02T13:55:37Z</time>
      </trkpt>
      <trkpt lat="47.35602" lon="-1.92319">
        <ele>46</ele>
        <time>2016-01-02T13:55:38Z</time>
      </trkpt>
      <trkpt lat="47.35599" lon="-1.92324">
        <ele>46</ele>
        <time>2016-01-02T13:55:39Z</time>
      </trkpt>
      <trkpt lat="47.35593" lon="-1.92328">
        <ele>46</ele>
        <time>2016-01-02T13:55:40Z</time>
      </trkpt>
      <trkpt lat="47.35589" lon="-1.92332">
        <ele>46</ele>
        <time>2016-01-02T13:55:41Z</time>
      </trkpt>
      <trkpt lat="47.35583" lon="-1.92335">
        <ele>46</ele>
        <time>2016-01-02T13:55:42Z</time>
      </trkpt>
      <trkpt lat="47.3558" lon="-1.92337">
        <ele>46</ele>
        <time>2016-01-02T13:55:43Z</time>
      </trkpt>
      <trkpt lat="47.35577" lon="-1.9234">
        <ele>46</ele>
        <time>2016-01-02T13:55:44Z</time>
      </trkpt>
      <trkpt lat="47.35575" lon="-1.92343">
        <ele>46</ele>
        <time>2016-01-02T13:55:45Z</time>
      </trkpt>
      <trkpt lat="47.35572" lon="-1.92346">
        <ele>46</ele>
        <time>2016-01-02T13:55:46Z</time>
      </trkpt>
      <trkpt lat="47.35569" lon="-1.92349">
        <ele>46</ele>
        <time>2016-01-02T13:55:47Z</time>
      </trkpt>
      <trkpt lat="47.35564" lon="-1.92353">
        <ele>46</ele>
        <time>2016-01-02T13:55:48Z</time>
      </trkpt>
      <trkpt lat="47.35561" lon="-1.92357">
        <ele>46</ele>
        <time>2016-01-02T13:55:49Z</time>
      </trkpt>
      <trkpt lat="47.35558" lon="-1.92361">
        <ele>46</ele>
        <time>2016-01-02T13:55:50Z</time>
      </trkpt>
      <trkpt lat="47.35554" lon="-1.9236">
        <ele>46</ele>
        <time>2016-01-02T13:55:51Z</time>
      </trkpt>
      <trkpt lat="47.35548" lon="-1.92364">
        <ele>46</ele>
        <time>2016-01-02T13:55:53Z</time>
      </trkpt>
      <trkpt lat="47.35541" lon="-1.9237">
        <ele>46</ele>
        <time>2016-01-02T13:55:55Z</time>
      </trkpt>
      <trkpt lat="47.35539" lon="-1.92374">
        <ele>46</ele>
        <time>2016-01-02T13:55:56Z</time>
      </trkpt>
      <trkpt lat="47.35537" lon="-1.92376">
        <ele>46</ele>
        <time>2016-01-02T13:55:57Z</time>
      </trkpt>
      <trkpt lat="47.35527" lon="-1.92379">
        <ele>46</ele>
        <time>2016-01-02T13:55:59Z</time>
      </trkpt>
      <trkpt lat="47.35523" lon="-1.92381">
        <ele>46</ele>
        <time>2016-01-02T13:56:01Z</time>
      </trkpt>
      <trkpt lat="47.35517" lon="-1.92385">
        <ele>46</ele>
        <time>2016-01-02T13:56:02Z</time>
      </trkpt>
      <trkpt lat="47.35515" lon="-1.92386">
        <ele>46</ele>
        <time>2016-01-02T13:56:03Z</time>
      </trkpt>
      <trkpt lat="47.35512" lon="-1.92386">
        <ele>46</ele>
        <time>2016-01-02T13:56:04Z</time>
      </trkpt>
      <trkpt lat="47.35503" lon="-1.92384">
        <ele>46</ele>
        <time>2016-01-02T13:56:05Z</time>
      </trkpt>
      <trkpt lat="47.355" lon="-1.92383">
        <ele>49</ele>
        <time>2016-01-02T13:56:06Z</time>
      </trkpt>
      <trkpt lat="47.35497" lon="-1.92378">
        <ele>49</ele>
        <time>2016-01-02T13:56:08Z</time>
      </trkpt>
      <trkpt lat="47.35493" lon="-1.9237">
        <ele>49</ele>
        <time>2016-01-02T13:56:10Z</time>
      </trkpt>
      <trkpt lat="47.3549" lon="-1.92365">
        <ele>49</ele>
        <time>2016-01-02T13:56:12Z</time>
      </trkpt>
      <trkpt lat="47.35488" lon="-1.92361">
        <ele>50</ele>
        <time>2016-01-02T13:56:13Z</time>
      </trkpt>
      <trkpt lat="47.35485" lon="-1.92357">
        <ele>50</ele>
        <time>2016-01-02T13:56:15Z</time>
      </trkpt>
      <trkpt lat="47.35481" lon="-1.92353">
        <ele>50</ele>
        <time>2016-01-02T13:56:16Z</time>
      </trkpt>
      <trkpt lat="47.35479" lon="-1.9235">
        <ele>50</ele>
        <time>2016-01-02T13:56:17Z</time>
      </trkpt>
      <trkpt lat="47.35478" lon="-1.92343">
        <ele>50</ele>
        <time>2016-01-02T13:56:19Z</time>
      </trkpt>
      <trkpt lat="47.35475" lon="-1.92338">
        <ele>50</ele>
        <time>2016-01-02T13:56:20Z</time>
      </trkpt>
      <trkpt lat="47.35472" lon="-1.92336">
        <ele>50</ele>
        <time>2016-01-02T13:56:21Z</time>
      </trkpt>
      <trkpt lat="47.35469" lon="-1.9233">
        <ele>52</ele>
        <time>2016-01-02T13:56:23Z</time>
      </trkpt>
      <trkpt lat="47.35467" lon="-1.92323">
        <ele>52</ele>
        <time>2016-01-02T13:56:25Z</time>
      </trkpt>
      <trkpt lat="47.35465" lon="-1.9232">
        <ele>52</ele>
        <time>2016-01-02T13:56:26Z</time>
      </trkpt>
      <trkpt lat="47.35463" lon="-1.92316">
        <ele>52</ele>
        <time>2016-01-02T13:56:27Z</time>
      </trkpt>
      <trkpt lat="47.3546" lon="-1.9231">
        <ele>52</ele>
        <time>2016-01-02T13:56:29Z</time>
      </trkpt>
      <trkpt lat="47.35456" lon="-1.92304">
        <ele>53</ele>
        <time>2016-01-02T13:56:31Z</time>
      </trkpt>
      <trkpt lat="47.35454" lon="-1.923">
        <ele>53</ele>
        <time>2016-01-02T13:56:32Z</time>
      </trkpt>
      <trkpt lat="47.35451" lon="-1.92298">
        <ele>53</ele>
        <time>2016-01-02T13:56:33Z</time>
      </trkpt>
      <trkpt lat="47.35449" lon="-1.92296">
        <ele>53</ele>
        <time>2016-01-02T13:56:34Z</time>
      </trkpt>
      <trkpt lat="47.35446" lon="-1.92294">
        <ele>53</ele>
        <time>2016-01-02T13:56:35Z</time>
      </trkpt>
      <trkpt lat="47.35443" lon="-1.92291">
        <ele>53</ele>
        <time>2016-01-02T13:56:36Z</time>
      </trkpt>
      <trkpt lat="47.35439" lon="-1.92289">
        <ele>53</ele>
        <time>2016-01-02T13:56:37Z</time>
      </trkpt>
      <trkpt lat="47.35436" lon="-1.92286">
        <ele>53</ele>
        <time>2016-01-02T13:56:38Z</time>
      </trkpt>
      <trkpt lat="47.35434" lon="-1.92284">
        <ele>53</ele>
        <time>2016-01-02T13:56:39Z</time>
      </trkpt>
      <trkpt lat="47.35432" lon="-1.92281">
        <ele>53</ele>
        <time>2016-01-02T13:56:40Z</time>
      </trkpt>
      <trkpt lat="47.3543" lon="-1.92277">
        <ele>53</ele>
        <time>2016-01-02T13:56:41Z</time>
      </trkpt>
      <trkpt lat="47.35428" lon="-1.92274">
        <ele>54</ele>
        <time>2016-01-02T13:56:42Z</time>
      </trkpt>
      <trkpt lat="47.35427" lon="-1.9227">
        <ele>54</ele>
        <time>2016-01-02T13:56:43Z</time>
      </trkpt>
      <trkpt lat="47.35426" lon="-1.92263">
        <ele>54</ele>
        <time>2016-01-02T13:56:45Z</time>
      </trkpt>
      <trkpt lat="47.35427" lon="-1.92256">
        <ele>54</ele>
        <time>2016-01-02T13:56:47Z</time>
      </trkpt>
      <trkpt lat="47.35428" lon="-1.9225">
        <ele>55</ele>
        <time>2016-01-02T13:56:48Z</time>
      </trkpt>
      <trkpt lat="47.3543" lon="-1.92245">
        <ele>55</ele>
        <time>2016-01-02T13:56:49Z</time>
      </trkpt>
      <trkpt lat="47.35431" lon="-1.92241">
        <ele>55</ele>
        <time>2016-01-02T13:56:50Z</time>
      </trkpt>
      <trkpt lat="47.35433" lon="-1.92237">
        <ele>56</ele>
        <time>2016-01-02T13:56:51Z</time>
      </trkpt>
      <trkpt lat="47.35434" lon="-1.92233">
        <ele>56</ele>
        <time>2016-01-02T13:56:52Z</time>
      </trkpt>
      <trkpt lat="47.35435" lon="-1.92226">
        <ele>56</ele>
        <time>2016-01-02T13:56:54Z</time>
      </trkpt>
      <trkpt lat="47.35435" lon="-1.9222">
        <ele>56</ele>
        <time>2016-01-02T13:56:56Z</time>
      </trkpt>
      <trkpt lat="47.35433" lon="-1.92213">
        <ele>56</ele>
        <time>2016-01-02T13:56:58Z</time>
      </trkpt>
      <trkpt lat="47.35431" lon="-1.9221">
        <ele>56</ele>
        <time>2016-01-02T13:56:59Z</time>
      </trkpt>
      <trkpt lat="47.35429" lon="-1.92207">
        <ele>56</ele>
        <time>2016-01-02T13:57:00Z</time>
      </trkpt>
      <trkpt lat="47.35428" lon="-1.92203">
        <ele>57</ele>
        <time>2016-01-02T13:57:01Z</time>
      </trkpt>
      <trkpt lat="47.35426" lon="-1.92199">
        <ele>57</ele>
        <time>2016-01-02T13:57:02Z</time>
      </trkpt>
      <trkpt lat="47.35425" lon="-1.92196">
        <ele>57</ele>
        <time>2016-01-02T13:57:03Z</time>
      </trkpt>
      <trkpt lat="47.35423" lon="-1.92192">
        <ele>57</ele>
        <time>2016-01-02T13:57:04Z</time>
      </trkpt>
      <trkpt lat="47.35419" lon="-1.92186">
        <ele>57</ele>
        <time>2016-01-02T13:57:06Z</time>
      </trkpt>
      <trkpt lat="47.35416" lon="-1.9218">
        <ele>58</ele>
        <time>2016-01-02T13:57:08Z</time>
      </trkpt>
      <trkpt lat="47.35414" lon="-1.92177">
        <ele>58</ele>
        <time>2016-01-02T13:57:09Z</time>
      </trkpt>
      <trkpt lat="47.35411" lon="-1.9217">
        <ele>58</ele>
        <time>2016-01-02T13:57:11Z</time>
      </trkpt>
      <trkpt lat="47.35408" lon="-1.92164">
        <ele>59</ele>
        <time>2016-01-02T13:57:13Z</time>
      </trkpt>
      <trkpt lat="47.35407" lon="-1.9216">
        <ele>59</ele>
        <time>2016-01-02T13:57:14Z</time>
      </trkpt>
      <trkpt lat="47.35406" lon="-1.92157">
        <ele>59</ele>
        <time>2016-01-02T13:57:15Z</time>
      </trkpt>
      <trkpt lat="47.35405" lon="-1.92152">
        <ele>59</ele>
        <time>2016-01-02T13:57:16Z</time>
      </trkpt>
      <trkpt lat="47.35404" lon="-1.92148">
        <ele>59</ele>
        <time>2016-01-02T13:57:17Z</time>
      </trkpt>
      <trkpt lat="47.35403" lon="-1.92144">
        <ele>59</ele>
        <time>2016-01-02T13:57:18Z</time>
      </trkpt>
      <trkpt lat="47.35401" lon="-1.9214">
        <ele>59</ele>
        <time>2016-01-02T13:57:19Z</time>
      </trkpt>
      <trkpt lat="47.354" lon="-1.92137">
        <ele>59</ele>
        <time>2016-01-02T13:57:20Z</time>
      </trkpt>
      <trkpt lat="47.35398" lon="-1.92132">
        <ele>59</ele>
        <time>2016-01-02T13:57:21Z</time>
      </trkpt>
      <trkpt lat="47.35397" lon="-1.92129">
        <ele>59</ele>
        <time>2016-01-02T13:57:22Z</time>
      </trkpt>
      <trkpt lat="47.35393" lon="-1.92121">
        <ele>59</ele>
        <time>2016-01-02T13:57:24Z</time>
      </trkpt>
      <trkpt lat="47.3539" lon="-1.92118">
        <ele>59</ele>
        <time>2016-01-02T13:57:25Z</time>
      </trkpt>
      <trkpt lat="47.35386" lon="-1.92112">
        <ele>59</ele>
        <time>2016-01-02T13:57:27Z</time>
      </trkpt>
      <trkpt lat="47.35383" lon="-1.92108">
        <ele>59</ele>
        <time>2016-01-02T13:57:28Z</time>
      </trkpt>
      <trkpt lat="47.35381" lon="-1.92105">
        <ele>59</ele>
        <time>2016-01-02T13:57:29Z</time>
      </trkpt>
      <trkpt lat="47.3538" lon="-1.92101">
        <ele>59</ele>
        <time>2016-01-02T13:57:30Z</time>
      </trkpt>
      <trkpt lat="47.35378" lon="-1.92098">
        <ele>59</ele>
        <time>2016-01-02T13:57:31Z</time>
      </trkpt>
      <trkpt lat="47.35376" lon="-1.92094">
        <ele>59</ele>
        <time>2016-01-02T13:57:32Z</time>
      </trkpt>
      <trkpt lat="47.35375" lon="-1.9209">
        <ele>59</ele>
        <time>2016-01-02T13:57:33Z</time>
      </trkpt>
      <trkpt lat="47.35375" lon="-1.92085">
        <ele>59</ele>
        <time>2016-01-02T13:57:34Z</time>
      </trkpt>
      <trkpt lat="47.35374" lon="-1.92081">
        <ele>61</ele>
        <time>2016-01-02T13:57:35Z</time>
      </trkpt>
      <trkpt lat="47.35373" lon="-1.92076">
        <ele>61</ele>
        <time>2016-01-02T13:57:36Z</time>
      </trkpt>
      <trkpt lat="47.35372" lon="-1.92072">
        <ele>61</ele>
        <time>2016-01-02T13:57:37Z</time>
      </trkpt>
      <trkpt lat="47.35373" lon="-1.92068">
        <ele>61</ele>
        <time>2016-01-02T13:57:38Z</time>
      </trkpt>
      <trkpt lat="47.35375" lon="-1.92064">
        <ele>61</ele>
        <time>2016-01-02T13:57:39Z</time>
      </trkpt>
      <trkpt lat="47.35376" lon="-1.9206">
        <ele>61</ele>
        <time>2016-01-02T13:57:40Z</time>
      </trkpt>
      <trkpt lat="47.35378" lon="-1.92056">
        <ele>61</ele>
        <time>2016-01-02T13:57:41Z</time>
      </trkpt>
      <trkpt lat="47.3538" lon="-1.92052">
        <ele>61</ele>
        <time>2016-01-02T13:57:42Z</time>
      </trkpt>
      <trkpt lat="47.35382" lon="-1.92049">
        <ele>61</ele>
        <time>2016-01-02T13:57:43Z</time>
      </trkpt>
      <trkpt lat="47.35384" lon="-1.92046">
        <ele>61</ele>
        <time>2016-01-02T13:57:44Z</time>
      </trkpt>
      <trkpt lat="47.35387" lon="-1.9204">
        <ele>61</ele>
        <time>2016-01-02T13:57:46Z</time>
      </trkpt>
      <trkpt lat="47.3539" lon="-1.92036">
        <ele>62</ele>
        <time>2016-01-02T13:57:47Z</time>
      </trkpt>
      <trkpt lat="47.35391" lon="-1.92032">
        <ele>62</ele>
        <time>2016-01-02T13:57:48Z</time>
      </trkpt>
      <trkpt lat="47.35393" lon="-1.92028">
        <ele>62</ele>
        <time>2016-01-02T13:57:49Z</time>
      </trkpt>
      <trkpt lat="47.35395" lon="-1.92024">
        <ele>62</ele>
        <time>2016-01-02T13:57:50Z</time>
      </trkpt>
      <trkpt lat="47.35396" lon="-1.92021">
        <ele>62</ele>
        <time>2016-01-02T13:57:51Z</time>
      </trkpt>
      <trkpt lat="47.35398" lon="-1.92017">
        <ele>62</ele>
        <time>2016-01-02T13:57:52Z</time>
      </trkpt>
      <trkpt lat="47.354" lon="-1.92012">
        <ele>62</ele>
        <time>2016-01-02T13:57:53Z</time>
      </trkpt>
      <trkpt lat="47.35401" lon="-1.92008">
        <ele>63</ele>
        <time>2016-01-02T13:57:54Z</time>
      </trkpt>
      <trkpt lat="47.35404" lon="-1.91999">
        <ele>64</ele>
        <time>2016-01-02T13:57:56Z</time>
      </trkpt>
      <trkpt lat="47.35405" lon="-1.91993">
        <ele>64</ele>
        <time>2016-01-02T13:57:57Z</time>
      </trkpt>
      <trkpt lat="47.35407" lon="-1.91988">
        <ele>64</ele>
        <time>2016-01-02T13:57:58Z</time>
      </trkpt>
      <trkpt lat="47.35408" lon="-1.91983">
        <ele>64</ele>
        <time>2016-01-02T13:57:59Z</time>
      </trkpt>
      <trkpt lat="47.35408" lon="-1.91979">
        <ele>63</ele>
        <time>2016-01-02T13:58:00Z</time>
      </trkpt>
      <trkpt lat="47.35408" lon="-1.91975">
        <ele>63</ele>
        <time>2016-01-02T13:58:01Z</time>
      </trkpt>
      <trkpt lat="47.35407" lon="-1.91971">
        <ele>63</ele>
        <time>2016-01-02T13:58:02Z</time>
      </trkpt>
      <trkpt lat="47.35406" lon="-1.91967">
        <ele>63</ele>
        <time>2016-01-02T13:58:03Z</time>
      </trkpt>
      <trkpt lat="47.35402" lon="-1.9196">
        <ele>63</ele>
        <time>2016-01-02T13:58:05Z</time>
      </trkpt>
      <trkpt lat="47.354" lon="-1.91957">
        <ele>63</ele>
        <time>2016-01-02T13:58:06Z</time>
      </trkpt>
      <trkpt lat="47.35399" lon="-1.91954">
        <ele>63</ele>
        <time>2016-01-02T13:58:07Z</time>
      </trkpt>
      <trkpt lat="47.35397" lon="-1.9195">
        <ele>63</ele>
        <time>2016-01-02T13:58:08Z</time>
      </trkpt>
      <trkpt lat="47.35397" lon="-1.91946">
        <ele>64</ele>
        <time>2016-01-02T13:58:09Z</time>
      </trkpt>
      <trkpt lat="47.35396" lon="-1.91941">
        <ele>64</ele>
        <time>2016-01-02T13:58:10Z</time>
      </trkpt>
      <trkpt lat="47.35394" lon="-1.91934">
        <ele>64</ele>
        <time>2016-01-02T13:58:12Z</time>
      </trkpt>
      <trkpt lat="47.35394" lon="-1.91928">
        <ele>64</ele>
        <time>2016-01-02T13:58:13Z</time>
      </trkpt>
      <trkpt lat="47.35394" lon="-1.91923">
        <ele>64</ele>
        <time>2016-01-02T13:58:14Z</time>
      </trkpt>
      <trkpt lat="47.35393" lon="-1.91918">
        <ele>64</ele>
        <time>2016-01-02T13:58:15Z</time>
      </trkpt>
      <trkpt lat="47.35392" lon="-1.91914">
        <ele>64</ele>
        <time>2016-01-02T13:58:16Z</time>
      </trkpt>
      <trkpt lat="47.35391" lon="-1.9191">
        <ele>64</ele>
        <time>2016-01-02T13:58:17Z</time>
      </trkpt>
      <trkpt lat="47.3539" lon="-1.91905">
        <ele>64</ele>
        <time>2016-01-02T13:58:18Z</time>
      </trkpt>
      <trkpt lat="47.35389" lon="-1.91901">
        <ele>64</ele>
        <time>2016-01-02T13:58:19Z</time>
      </trkpt>
      <trkpt lat="47.35387" lon="-1.91893">
        <ele>64</ele>
        <time>2016-01-02T13:58:21Z</time>
      </trkpt>
      <trkpt lat="47.35386" lon="-1.91888">
        <ele>64</ele>
        <time>2016-01-02T13:58:22Z</time>
      </trkpt>
      <trkpt lat="47.35385" lon="-1.91884">
        <ele>64</ele>
        <time>2016-01-02T13:58:23Z</time>
      </trkpt>
      <trkpt lat="47.35384" lon="-1.9188">
        <ele>64</ele>
        <time>2016-01-02T13:58:24Z</time>
      </trkpt>
      <trkpt lat="47.35383" lon="-1.91875">
        <ele>64</ele>
        <time>2016-01-02T13:58:25Z</time>
      </trkpt>
      <trkpt lat="47.35381" lon="-1.91871">
        <ele>64</ele>
        <time>2016-01-02T13:58:26Z</time>
      </trkpt>
      <trkpt lat="47.35379" lon="-1.91862">
        <ele>64</ele>
        <time>2016-01-02T13:58:28Z</time>
      </trkpt>
      <trkpt lat="47.35378" lon="-1.91858">
        <ele>64</ele>
        <time>2016-01-02T13:58:29Z</time>
      </trkpt>
      <trkpt lat="47.35377" lon="-1.91853">
        <ele>64</ele>
        <time>2016-01-02T13:58:30Z</time>
      </trkpt>
      <trkpt lat="47.35375" lon="-1.91849">
        <ele>64</ele>
        <time>2016-01-02T13:58:31Z</time>
      </trkpt>
      <trkpt lat="47.35374" lon="-1.91846">
        <ele>64</ele>
        <time>2016-01-02T13:58:32Z</time>
      </trkpt>
      <trkpt lat="47.35373" lon="-1.9184">
        <ele>65</ele>
        <time>2016-01-02T13:58:33Z</time>
      </trkpt>
      <trkpt lat="47.35372" lon="-1.91835">
        <ele>65</ele>
        <time>2016-01-02T13:58:34Z</time>
      </trkpt>
      <trkpt lat="47.3537" lon="-1.91831">
        <ele>65</ele>
        <time>2016-01-02T13:58:35Z</time>
      </trkpt>
      <trkpt lat="47.35367" lon="-1.91821">
        <ele>65</ele>
        <time>2016-01-02T13:58:37Z</time>
      </trkpt>
      <trkpt lat="47.35365" lon="-1.91818">
        <ele>65</ele>
        <time>2016-01-02T13:58:38Z</time>
      </trkpt>
      <trkpt lat="47.35363" lon="-1.91815">
        <ele>65</ele>
        <time>2016-01-02T13:58:39Z</time>
      </trkpt>
      <trkpt lat="47.35361" lon="-1.91809">
        <ele>65</ele>
        <time>2016-01-02T13:58:40Z</time>
      </trkpt>
      <trkpt lat="47.35358" lon="-1.91803">
        <ele>65</ele>
        <time>2016-01-02T13:58:42Z</time>
      </trkpt>
      <trkpt lat="47.35357" lon="-1.91797">
        <ele>65</ele>
        <time>2016-01-02T13:58:43Z</time>
      </trkpt>
      <trkpt lat="47.35355" lon="-1.91793">
        <ele>65</ele>
        <time>2016-01-02T13:58:44Z</time>
      </trkpt>
      <trkpt lat="47.35354" lon="-1.91789">
        <ele>65</ele>
        <time>2016-01-02T13:58:45Z</time>
      </trkpt>
      <trkpt lat="47.35353" lon="-1.91783">
        <ele>65</ele>
        <time>2016-01-02T13:58:46Z</time>
      </trkpt>
      <trkpt lat="47.35351" lon="-1.91778">
        <ele>65</ele>
        <time>2016-01-02T13:58:47Z</time>
      </trkpt>
      <trkpt lat="47.35349" lon="-1.91773">
        <ele>65</ele>
        <time>2016-01-02T13:58:48Z</time>
      </trkpt>
      <trkpt lat="47.35347" lon="-1.9177">
        <ele>65</ele>
        <time>2016-01-02T13:58:49Z</time>
      </trkpt>
      <trkpt lat="47.35346" lon="-1.91766">
        <ele>65</ele>
        <time>2016-01-02T13:58:50Z</time>
      </trkpt>
      <trkpt lat="47.35343" lon="-1.9176">
        <ele>65</ele>
        <time>2016-01-02T13:58:51Z</time>
      </trkpt>
      <trkpt lat="47.35341" lon="-1.91756">
        <ele>65</ele>
        <time>2016-01-02T13:58:52Z</time>
      </trkpt>
      <trkpt lat="47.35339" lon="-1.91751">
        <ele>65</ele>
        <time>2016-01-02T13:58:53Z</time>
      </trkpt>
      <trkpt lat="47.35337" lon="-1.91745">
        <ele>65</ele>
        <time>2016-01-02T13:58:54Z</time>
      </trkpt>
      <trkpt lat="47.35335" lon="-1.91741">
        <ele>65</ele>
        <time>2016-01-02T13:58:55Z</time>
      </trkpt>
      <trkpt lat="47.35334" lon="-1.91737">
        <ele>65</ele>
        <time>2016-01-02T13:58:56Z</time>
      </trkpt>
      <trkpt lat="47.35332" lon="-1.91732">
        <ele>65</ele>
        <time>2016-01-02T13:58:57Z</time>
      </trkpt>
      <trkpt lat="47.3533" lon="-1.91728">
        <ele>65</ele>
        <time>2016-01-02T13:58:58Z</time>
      </trkpt>
      <trkpt lat="47.35329" lon="-1.91724">
        <ele>65</ele>
        <time>2016-01-02T13:58:59Z</time>
      </trkpt>
      <trkpt lat="47.35327" lon="-1.91718">
        <ele>65</ele>
        <time>2016-01-02T13:59:00Z</time>
      </trkpt>
      <trkpt lat="47.35325" lon="-1.91713">
        <ele>65</ele>
        <time>2016-01-02T13:59:01Z</time>
      </trkpt>
      <trkpt lat="47.35324" lon="-1.91709">
        <ele>65</ele>
        <time>2016-01-02T13:59:02Z</time>
      </trkpt>
      <trkpt lat="47.35322" lon="-1.91705">
        <ele>65</ele>
        <time>2016-01-02T13:59:03Z</time>
      </trkpt>
      <trkpt lat="47.3532" lon="-1.91699">
        <ele>65</ele>
        <time>2016-01-02T13:59:04Z</time>
      </trkpt>
      <trkpt lat="47.35318" lon="-1.91694">
        <ele>65</ele>
        <time>2016-01-02T13:59:05Z</time>
      </trkpt>
      <trkpt lat="47.35316" lon="-1.91689">
        <ele>65</ele>
        <time>2016-01-02T13:59:06Z</time>
      </trkpt>
      <trkpt lat="47.35315" lon="-1.91685">
        <ele>65</ele>
        <time>2016-01-02T13:59:07Z</time>
      </trkpt>
      <trkpt lat="47.35313" lon="-1.91679">
        <ele>65</ele>
        <time>2016-01-02T13:59:08Z</time>
      </trkpt>
      <trkpt lat="47.35311" lon="-1.91673">
        <ele>65</ele>
        <time>2016-01-02T13:59:09Z</time>
      </trkpt>
      <trkpt lat="47.35309" lon="-1.91669">
        <ele>65</ele>
        <time>2016-01-02T13:59:10Z</time>
      </trkpt>
      <trkpt lat="47.35307" lon="-1.91663">
        <ele>66</ele>
        <time>2016-01-02T13:59:11Z</time>
      </trkpt>
      <trkpt lat="47.35305" lon="-1.91658">
        <ele>66</ele>
        <time>2016-01-02T13:59:12Z</time>
      </trkpt>
      <trkpt lat="47.35304" lon="-1.91654">
        <ele>66</ele>
        <time>2016-01-02T13:59:13Z</time>
      </trkpt>
      <trkpt lat="47.35302" lon="-1.91649">
        <ele>66</ele>
        <time>2016-01-02T13:59:14Z</time>
      </trkpt>
      <trkpt lat="47.35301" lon="-1.91644">
        <ele>66</ele>
        <time>2016-01-02T13:59:15Z</time>
      </trkpt>
      <trkpt lat="47.35299" lon="-1.91639">
        <ele>66</ele>
        <time>2016-01-02T13:59:16Z</time>
      </trkpt>
      <trkpt lat="47.35298" lon="-1.91634">
        <ele>66</ele>
        <time>2016-01-02T13:59:17Z</time>
      </trkpt>
      <trkpt lat="47.35297" lon="-1.91627">
        <ele>66</ele>
        <time>2016-01-02T13:59:18Z</time>
      </trkpt>
      <trkpt lat="47.35295" lon="-1.91622">
        <ele>66</ele>
        <time>2016-01-02T13:59:19Z</time>
      </trkpt>
      <trkpt lat="47.35293" lon="-1.91612">
        <ele>66</ele>
        <time>2016-01-02T13:59:21Z</time>
      </trkpt>
      <trkpt lat="47.35291" lon="-1.91607">
        <ele>66</ele>
        <time>2016-01-02T13:59:22Z</time>
      </trkpt>
      <trkpt lat="47.3529" lon="-1.91602">
        <ele>66</ele>
        <time>2016-01-02T13:59:23Z</time>
      </trkpt>
      <trkpt lat="47.35289" lon="-1.91598">
        <ele>66</ele>
        <time>2016-01-02T13:59:24Z</time>
      </trkpt>
      <trkpt lat="47.35287" lon="-1.91594">
        <ele>66</ele>
        <time>2016-01-02T13:59:25Z</time>
      </trkpt>
      <trkpt lat="47.35286" lon="-1.91589">
        <ele>66</ele>
        <time>2016-01-02T13:59:26Z</time>
      </trkpt>
      <trkpt lat="47.35285" lon="-1.91581">
        <ele>67</ele>
        <time>2016-01-02T13:59:28Z</time>
      </trkpt>
      <trkpt lat="47.35285" lon="-1.91576">
        <ele>67</ele>
        <time>2016-01-02T13:59:29Z</time>
      </trkpt>
      <trkpt lat="47.35284" lon="-1.91572">
        <ele>67</ele>
        <time>2016-01-02T13:59:30Z</time>
      </trkpt>
      <trkpt lat="47.35283" lon="-1.91567">
        <ele>67</ele>
        <time>2016-01-02T13:59:31Z</time>
      </trkpt>
      <trkpt lat="47.35282" lon="-1.91562">
        <ele>67</ele>
        <time>2016-01-02T13:59:32Z</time>
      </trkpt>
      <trkpt lat="47.35281" lon="-1.91557">
        <ele>67</ele>
        <time>2016-01-02T13:59:33Z</time>
      </trkpt>
      <trkpt lat="47.35279" lon="-1.91552">
        <ele>67</ele>
        <time>2016-01-02T13:59:34Z</time>
      </trkpt>
      <trkpt lat="47.35278" lon="-1.91547">
        <ele>67</ele>
        <time>2016-01-02T13:59:35Z</time>
      </trkpt>
      <trkpt lat="47.35276" lon="-1.91543">
        <ele>67</ele>
        <time>2016-01-02T13:59:36Z</time>
      </trkpt>
      <trkpt lat="47.35273" lon="-1.91535">
        <ele>66</ele>
        <time>2016-01-02T13:59:37Z</time>
      </trkpt>
      <trkpt lat="47.3527" lon="-1.9153">
        <ele>66</ele>
        <time>2016-01-02T13:59:38Z</time>
      </trkpt>
      <trkpt lat="47.35268" lon="-1.91524">
        <ele>66</ele>
        <time>2016-01-02T13:59:39Z</time>
      </trkpt>
      <trkpt lat="47.35265" lon="-1.91519">
        <ele>66</ele>
        <time>2016-01-02T13:59:40Z</time>
      </trkpt>
      <trkpt lat="47.35263" lon="-1.91513">
        <ele>66</ele>
        <time>2016-01-02T13:59:41Z</time>
      </trkpt>
      <trkpt lat="47.35259" lon="-1.91504">
        <ele>66</ele>
        <time>2016-01-02T13:59:42Z</time>
      </trkpt>
      <trkpt lat="47.35255" lon="-1.91498">
        <ele>66</ele>
        <time>2016-01-02T13:59:43Z</time>
      </trkpt>
      <trkpt lat="47.35252" lon="-1.91493">
        <ele>66</ele>
        <time>2016-01-02T13:59:44Z</time>
      </trkpt>
      <trkpt lat="47.35247" lon="-1.91491">
        <ele>65</ele>
        <time>2016-01-02T13:59:45Z</time>
      </trkpt>
      <trkpt lat="47.35244" lon="-1.91485">
        <ele>65</ele>
        <time>2016-01-02T13:59:46Z</time>
      </trkpt>
      <trkpt lat="47.3524" lon="-1.9148">
        <ele>64</ele>
        <time>2016-01-02T13:59:47Z</time>
      </trkpt>
      <trkpt lat="47.35236" lon="-1.91475">
        <ele>64</ele>
        <time>2016-01-02T13:59:48Z</time>
      </trkpt>
      <trkpt lat="47.35234" lon="-1.91467">
        <ele>64</ele>
        <time>2016-01-02T13:59:49Z</time>
      </trkpt>
      <trkpt lat="47.3523" lon="-1.91462">
        <ele>64</ele>
        <time>2016-01-02T13:59:50Z</time>
      </trkpt>
      <trkpt lat="47.35227" lon="-1.91456">
        <ele>64</ele>
        <time>2016-01-02T13:59:51Z</time>
      </trkpt>
      <trkpt lat="47.35222" lon="-1.91451">
        <ele>63</ele>
        <time>2016-01-02T13:59:52Z</time>
      </trkpt>
      <trkpt lat="47.35219" lon="-1.91446">
        <ele>63</ele>
        <time>2016-01-02T13:59:53Z</time>
      </trkpt>
      <trkpt lat="47.35215" lon="-1.9144">
        <ele>63</ele>
        <time>2016-01-02T13:59:54Z</time>
      </trkpt>
      <trkpt lat="47.35211" lon="-1.91433">
        <ele>63</ele>
        <time>2016-01-02T13:59:55Z</time>
      </trkpt>
      <trkpt lat="47.35206" lon="-1.91427">
        <ele>63</ele>
        <time>2016-01-02T13:59:56Z</time>
      </trkpt>
      <trkpt lat="47.35204" lon="-1.91419">
        <ele>63</ele>
        <time>2016-01-02T13:59:57Z</time>
      </trkpt>
      <trkpt lat="47.352" lon="-1.91412">
        <ele>61</ele>
        <time>2016-01-02T13:59:58Z</time>
      </trkpt>
      <trkpt lat="47.35196" lon="-1.91405">
        <ele>61</ele>
        <time>2016-01-02T14:00:00Z</time>
      </trkpt>
      <trkpt lat="47.35193" lon="-1.91401">
        <ele>61</ele>
        <time>2016-01-02T14:00:01Z</time>
      </trkpt>
      <trkpt lat="47.35191" lon="-1.91395">
        <ele>61</ele>
        <time>2016-01-02T14:00:02Z</time>
      </trkpt>
      <trkpt lat="47.35188" lon="-1.9139">
        <ele>61</ele>
        <time>2016-01-02T14:00:03Z</time>
      </trkpt>
      <trkpt lat="47.35187" lon="-1.91384">
        <ele>61</ele>
        <time>2016-01-02T14:00:04Z</time>
      </trkpt>
      <trkpt lat="47.35185" lon="-1.91378">
        <ele>61</ele>
        <time>2016-01-02T14:00:05Z</time>
      </trkpt>
      <trkpt lat="47.35184" lon="-1.91373">
        <ele>61</ele>
        <time>2016-01-02T14:00:06Z</time>
      </trkpt>
      <trkpt lat="47.35182" lon="-1.91366">
        <ele>60</ele>
        <time>2016-01-02T14:00:07Z</time>
      </trkpt>
      <trkpt lat="47.35181" lon="-1.9136">
        <ele>60</ele>
        <time>2016-01-02T14:00:08Z</time>
      </trkpt>
      <trkpt lat="47.35182" lon="-1.91354">
        <ele>60</ele>
        <time>2016-01-02T14:00:09Z</time>
      </trkpt>
      <trkpt lat="47.35181" lon="-1.91348">
        <ele>60</ele>
        <time>2016-01-02T14:00:10Z</time>
      </trkpt>
      <trkpt lat="47.3518" lon="-1.91341">
        <ele>60</ele>
        <time>2016-01-02T14:00:11Z</time>
      </trkpt>
      <trkpt lat="47.35179" lon="-1.91336">
        <ele>60</ele>
        <time>2016-01-02T14:00:12Z</time>
      </trkpt>
      <trkpt lat="47.35178" lon="-1.9133">
        <ele>60</ele>
        <time>2016-01-02T14:00:13Z</time>
      </trkpt>
      <trkpt lat="47.35174" lon="-1.91324">
        <ele>60</ele>
        <time>2016-01-02T14:00:14Z</time>
      </trkpt>
      <trkpt lat="47.35172" lon="-1.91318">
        <ele>60</ele>
        <time>2016-01-02T14:00:15Z</time>
      </trkpt>
      <trkpt lat="47.3517" lon="-1.91313">
        <ele>60</ele>
        <time>2016-01-02T14:00:16Z</time>
      </trkpt>
      <trkpt lat="47.35168" lon="-1.91302">
        <ele>61</ele>
        <time>2016-01-02T14:00:17Z</time>
      </trkpt>
      <trkpt lat="47.35168" lon="-1.91293">
        <ele>61</ele>
        <time>2016-01-02T14:00:18Z</time>
      </trkpt>
      <trkpt lat="47.35168" lon="-1.91285">
        <ele>61</ele>
        <time>2016-01-02T14:00:19Z</time>
      </trkpt>
      <trkpt lat="47.35168" lon="-1.91276">
        <ele>61</ele>
        <time>2016-01-02T14:00:20Z</time>
      </trkpt>
      <trkpt lat="47.35173" lon="-1.9127">
        <ele>61</ele>
        <time>2016-01-02T14:00:21Z</time>
      </trkpt>
      <trkpt lat="47.35176" lon="-1.91265">
        <ele>61</ele>
        <time>2016-01-02T14:00:22Z</time>
      </trkpt>
      <trkpt lat="47.35179" lon="-1.9126">
        <ele>62</ele>
        <time>2016-01-02T14:00:23Z</time>
      </trkpt>
      <trkpt lat="47.35178" lon="-1.91255">
        <ele>62</ele>
        <time>2016-01-02T14:00:24Z</time>
      </trkpt>
      <trkpt lat="47.35179" lon="-1.91252">
        <ele>62</ele>
        <time>2016-01-02T14:00:25Z</time>
      </trkpt>
      <trkpt lat="47.35181" lon="-1.91248">
        <ele>62</ele>
        <time>2016-01-02T14:00:26Z</time>
      </trkpt>
      <trkpt lat="47.3518" lon="-1.91244">
        <ele>63</ele>
        <time>2016-01-02T14:00:27Z</time>
      </trkpt>
      <trkpt lat="47.35181" lon="-1.91238">
        <ele>63</ele>
        <time>2016-01-02T14:00:29Z</time>
      </trkpt>
      <trkpt lat="47.3518" lon="-1.9123">
        <ele>63</ele>
        <time>2016-01-02T14:00:31Z</time>
      </trkpt>
      <trkpt lat="47.3518" lon="-1.91223">
        <ele>63</ele>
        <time>2016-01-02T14:00:33Z</time>
      </trkpt>
      <trkpt lat="47.35177" lon="-1.91218">
        <ele>63</ele>
        <time>2016-01-02T14:00:35Z</time>
      </trkpt>
      <trkpt lat="47.35177" lon="-1.9121">
        <ele>63</ele>
        <time>2016-01-02T14:00:37Z</time>
      </trkpt>
      <trkpt lat="47.35175" lon="-1.91203">
        <ele>63</ele>
        <time>2016-01-02T14:00:39Z</time>
      </trkpt>
      <trkpt lat="47.35174" lon="-1.91195">
        <ele>63</ele>
        <time>2016-01-02T14:00:40Z</time>
      </trkpt>
      <trkpt lat="47.35172" lon="-1.91192">
        <ele>63</ele>
        <time>2016-01-02T14:00:41Z</time>
      </trkpt>
      <trkpt lat="47.3517" lon="-1.91188">
        <ele>64</ele>
        <time>2016-01-02T14:00:42Z</time>
      </trkpt>
      <trkpt lat="47.35168" lon="-1.91183">
        <ele>64</ele>
        <time>2016-01-02T14:00:43Z</time>
      </trkpt>
      <trkpt lat="47.35165" lon="-1.91185">
        <ele>64</ele>
        <time>2016-01-02T14:00:44Z</time>
      </trkpt>
      <trkpt lat="47.3516" lon="-1.91189">
        <ele>63</ele>
        <time>2016-01-02T14:00:45Z</time>
      </trkpt>
      <trkpt lat="47.35157" lon="-1.91192">
        <ele>63</ele>
        <time>2016-01-02T14:00:46Z</time>
      </trkpt>
      <trkpt lat="47.35153" lon="-1.91194">
        <ele>63</ele>
        <time>2016-01-02T14:00:47Z</time>
      </trkpt>
      <trkpt lat="47.35149" lon="-1.91199">
        <ele>63</ele>
        <time>2016-01-02T14:00:48Z</time>
      </trkpt>
      <trkpt lat="47.35146" lon="-1.91202">
        <ele>63</ele>
        <time>2016-01-02T14:00:49Z</time>
      </trkpt>
      <trkpt lat="47.35142" lon="-1.91205">
        <ele>63</ele>
        <time>2016-01-02T14:00:50Z</time>
      </trkpt>
      <trkpt lat="47.35146" lon="-1.91208">
        <ele>63</ele>
        <time>2016-01-02T14:00:51Z</time>
      </trkpt>
      <trkpt lat="47.35145" lon="-1.91215">
        <ele>63</ele>
        <time>2016-01-02T14:00:53Z</time>
      </trkpt>
      <trkpt lat="47.35143" lon="-1.9122">
        <ele>63</ele>
        <time>2016-01-02T14:00:54Z</time>
      </trkpt>
      <trkpt lat="47.3514" lon="-1.91218">
        <ele>63</ele>
        <time>2016-01-02T14:00:55Z</time>
      </trkpt>
      <trkpt lat="47.35142" lon="-1.91225">
        <ele>63</ele>
        <time>2016-01-02T14:00:56Z</time>
      </trkpt>
      <trkpt lat="47.35141" lon="-1.91229">
        <ele>63</ele>
        <time>2016-01-02T14:00:57Z</time>
      </trkpt>
      <trkpt lat="47.35141" lon="-1.91236">
        <ele>63</ele>
        <time>2016-01-02T14:00:59Z</time>
      </trkpt>
      <trkpt lat="47.35138" lon="-1.91245">
        <ele>63</ele>
        <time>2016-01-02T14:01:00Z</time>
      </trkpt>
      <trkpt lat="47.35135" lon="-1.91252">
        <ele>61</ele>
        <time>2016-01-02T14:01:01Z</time>
      </trkpt>
      <trkpt lat="47.35133" lon="-1.91256">
        <ele>61</ele>
        <time>2016-01-02T14:01:02Z</time>
      </trkpt>
      <trkpt lat="47.35127" lon="-1.9126">
        <ele>61</ele>
        <time>2016-01-02T14:01:04Z</time>
      </trkpt>
      <trkpt lat="47.35125" lon="-1.91262">
        <ele>61</ele>
        <time>2016-01-02T14:01:05Z</time>
      </trkpt>
      <trkpt lat="47.35122" lon="-1.91263">
        <ele>61</ele>
        <time>2016-01-02T14:01:06Z</time>
      </trkpt>
      <trkpt lat="47.35119" lon="-1.91265">
        <ele>61</ele>
        <time>2016-01-02T14:01:07Z</time>
      </trkpt>
      <trkpt lat="47.35116" lon="-1.91266">
        <ele>61</ele>
        <time>2016-01-02T14:01:08Z</time>
      </trkpt>
      <trkpt lat="47.35112" lon="-1.9127">
        <ele>61</ele>
        <time>2016-01-02T14:01:10Z</time>
      </trkpt>
      <trkpt lat="47.35109" lon="-1.91272">
        <ele>61</ele>
        <time>2016-01-02T14:01:11Z</time>
      </trkpt>
      <trkpt lat="47.35106" lon="-1.91273">
        <ele>61</ele>
        <time>2016-01-02T14:01:12Z</time>
      </trkpt>
      <trkpt lat="47.35102" lon="-1.91276">
        <ele>61</ele>
        <time>2016-01-02T14:01:14Z</time>
      </trkpt>
      <trkpt lat="47.351" lon="-1.91278">
        <ele>61</ele>
        <time>2016-01-02T14:01:15Z</time>
      </trkpt>
      <trkpt lat="47.35094" lon="-1.91282">
        <ele>61</ele>
        <time>2016-01-02T14:01:17Z</time>
      </trkpt>
      <trkpt lat="47.35091" lon="-1.91284">
        <ele>61</ele>
        <time>2016-01-02T14:01:18Z</time>
      </trkpt>
      <trkpt lat="47.35086" lon="-1.9129">
        <ele>61</ele>
        <time>2016-01-02T14:01:20Z</time>
      </trkpt>
      <trkpt lat="47.35083" lon="-1.91295">
        <ele>61</ele>
        <time>2016-01-02T14:01:22Z</time>
      </trkpt>
      <trkpt lat="47.35078" lon="-1.91297">
        <ele>61</ele>
        <time>2016-01-02T14:01:23Z</time>
      </trkpt>
      <trkpt lat="47.35073" lon="-1.91301">
        <ele>61</ele>
        <time>2016-01-02T14:01:25Z</time>
      </trkpt>
      <trkpt lat="47.35068" lon="-1.91302">
        <ele>61</ele>
        <time>2016-01-02T14:01:26Z</time>
      </trkpt>
      <trkpt lat="47.35063" lon="-1.91305">
        <ele>61</ele>
        <time>2016-01-02T14:01:28Z</time>
      </trkpt>
      <trkpt lat="47.35056" lon="-1.91306">
        <ele>61</ele>
        <time>2016-01-02T14:01:29Z</time>
      </trkpt>
      <trkpt lat="47.35052" lon="-1.91308">
        <ele>61</ele>
        <time>2016-01-02T14:01:30Z</time>
      </trkpt>
      <trkpt lat="47.35048" lon="-1.91311">
        <ele>61</ele>
        <time>2016-01-02T14:01:31Z</time>
      </trkpt>
      <trkpt lat="47.35043" lon="-1.91313">
        <ele>61</ele>
        <time>2016-01-02T14:01:32Z</time>
      </trkpt>
      <trkpt lat="47.35039" lon="-1.91316">
        <ele>61</ele>
        <time>2016-01-02T14:01:33Z</time>
      </trkpt>
      <trkpt lat="47.35035" lon="-1.91318">
        <ele>61</ele>
        <time>2016-01-02T14:01:34Z</time>
      </trkpt>
      <trkpt lat="47.35032" lon="-1.91321">
        <ele>61</ele>
        <time>2016-01-02T14:01:35Z</time>
      </trkpt>
      <trkpt lat="47.35028" lon="-1.91324">
        <ele>61</ele>
        <time>2016-01-02T14:01:36Z</time>
      </trkpt>
      <trkpt lat="47.35025" lon="-1.91327">
        <ele>61</ele>
        <time>2016-01-02T14:01:37Z</time>
      </trkpt>
      <trkpt lat="47.35022" lon="-1.91331">
        <ele>61</ele>
        <time>2016-01-02T14:01:38Z</time>
      </trkpt>
      <trkpt lat="47.35019" lon="-1.91335">
        <ele>60</ele>
        <time>2016-01-02T14:01:39Z</time>
      </trkpt>
      <trkpt lat="47.35016" lon="-1.91338">
        <ele>60</ele>
        <time>2016-01-02T14:01:40Z</time>
      </trkpt>
      <trkpt lat="47.35013" lon="-1.91341">
        <ele>60</ele>
        <time>2016-01-02T14:01:41Z</time>
      </trkpt>
      <trkpt lat="47.35009" lon="-1.91343">
        <ele>60</ele>
        <time>2016-01-02T14:01:42Z</time>
      </trkpt>
      <trkpt lat="47.35005" lon="-1.91346">
        <ele>60</ele>
        <time>2016-01-02T14:01:43Z</time>
      </trkpt>
      <trkpt lat="47.35" lon="-1.91348">
        <ele>60</ele>
        <time>2016-01-02T14:01:44Z</time>
      </trkpt>
      <trkpt lat="47.34996" lon="-1.91351">
        <ele>60</ele>
        <time>2016-01-02T14:01:45Z</time>
      </trkpt>
      <trkpt lat="47.34991" lon="-1.91353">
        <ele>60</ele>
        <time>2016-01-02T14:01:46Z</time>
      </trkpt>
      <trkpt lat="47.34987" lon="-1.91356">
        <ele>60</ele>
        <time>2016-01-02T14:01:47Z</time>
      </trkpt>
      <trkpt lat="47.3498" lon="-1.91358">
        <ele>60</ele>
        <time>2016-01-02T14:01:48Z</time>
      </trkpt>
      <trkpt lat="47.34973" lon="-1.91359">
        <ele>60</ele>
        <time>2016-01-02T14:01:49Z</time>
      </trkpt>
      <trkpt lat="47.34969" lon="-1.9136">
        <ele>60</ele>
        <time>2016-01-02T14:01:50Z</time>
      </trkpt>
      <trkpt lat="47.34964" lon="-1.9136">
        <ele>60</ele>
        <time>2016-01-02T14:01:51Z</time>
      </trkpt>
      <trkpt lat="47.3496" lon="-1.91361">
        <ele>60</ele>
        <time>2016-01-02T14:01:52Z</time>
      </trkpt>
      <trkpt lat="47.34956" lon="-1.91363">
        <ele>60</ele>
        <time>2016-01-02T14:01:53Z</time>
      </trkpt>
      <trkpt lat="47.34951" lon="-1.91365">
        <ele>60</ele>
        <time>2016-01-02T14:01:54Z</time>
      </trkpt>
      <trkpt lat="47.34947" lon="-1.91366">
        <ele>60</ele>
        <time>2016-01-02T14:01:55Z</time>
      </trkpt>
      <trkpt lat="47.34943" lon="-1.91367">
        <ele>60</ele>
        <time>2016-01-02T14:01:56Z</time>
      </trkpt>
      <trkpt lat="47.34938" lon="-1.9137">
        <ele>60</ele>
        <time>2016-01-02T14:01:57Z</time>
      </trkpt>
      <trkpt lat="47.34935" lon="-1.91371">
        <ele>60</ele>
        <time>2016-01-02T14:01:58Z</time>
      </trkpt>
      <trkpt lat="47.34931" lon="-1.91373">
        <ele>60</ele>
        <time>2016-01-02T14:01:59Z</time>
      </trkpt>
      <trkpt lat="47.34927" lon="-1.91374">
        <ele>60</ele>
        <time>2016-01-02T14:02:00Z</time>
      </trkpt>
      <trkpt lat="47.34922" lon="-1.91375">
        <ele>60</ele>
        <time>2016-01-02T14:02:01Z</time>
      </trkpt>
      <trkpt lat="47.34918" lon="-1.91376">
        <ele>60</ele>
        <time>2016-01-02T14:02:02Z</time>
      </trkpt>
      <trkpt lat="47.34913" lon="-1.91377">
        <ele>60</ele>
        <time>2016-01-02T14:02:03Z</time>
      </trkpt>
      <trkpt lat="47.34908" lon="-1.91378">
        <ele>60</ele>
        <time>2016-01-02T14:02:04Z</time>
      </trkpt>
      <trkpt lat="47.34902" lon="-1.91378">
        <ele>60</ele>
        <time>2016-01-02T14:02:05Z</time>
      </trkpt>
      <trkpt lat="47.34897" lon="-1.9138">
        <ele>60</ele>
        <time>2016-01-02T14:02:06Z</time>
      </trkpt>
      <trkpt lat="47.34892" lon="-1.9138">
        <ele>60</ele>
        <time>2016-01-02T14:02:07Z</time>
      </trkpt>
      <trkpt lat="47.34886" lon="-1.9138">
        <ele>60</ele>
        <time>2016-01-02T14:02:08Z</time>
      </trkpt>
      <trkpt lat="47.34881" lon="-1.91381">
        <ele>60</ele>
        <time>2016-01-02T14:02:09Z</time>
      </trkpt>
      <trkpt lat="47.34877" lon="-1.91383">
        <ele>59</ele>
        <time>2016-01-02T14:02:10Z</time>
      </trkpt>
      <trkpt lat="47.34873" lon="-1.91385">
        <ele>59</ele>
        <time>2016-01-02T14:02:11Z</time>
      </trkpt>
      <trkpt lat="47.34868" lon="-1.91386">
        <ele>59</ele>
        <time>2016-01-02T14:02:12Z</time>
      </trkpt>
      <trkpt lat="47.34863" lon="-1.91388">
        <ele>59</ele>
        <time>2016-01-02T14:02:13Z</time>
      </trkpt>
      <trkpt lat="47.34855" lon="-1.9139">
        <ele>59</ele>
        <time>2016-01-02T14:02:15Z</time>
      </trkpt>
      <trkpt lat="47.34851" lon="-1.91392">
        <ele>59</ele>
        <time>2016-01-02T14:02:16Z</time>
      </trkpt>
      <trkpt lat="47.34845" lon="-1.91394">
        <ele>59</ele>
        <time>2016-01-02T14:02:17Z</time>
      </trkpt>
      <trkpt lat="47.3484" lon="-1.91396">
        <ele>59</ele>
        <time>2016-01-02T14:02:18Z</time>
      </trkpt>
      <trkpt lat="47.34836" lon="-1.91398">
        <ele>59</ele>
        <time>2016-01-02T14:02:19Z</time>
      </trkpt>
      <trkpt lat="47.34829" lon="-1.91401">
        <ele>58</ele>
        <time>2016-01-02T14:02:20Z</time>
      </trkpt>
      <trkpt lat="47.34825" lon="-1.91403">
        <ele>58</ele>
        <time>2016-01-02T14:02:21Z</time>
      </trkpt>
      <trkpt lat="47.3482" lon="-1.91405">
        <ele>58</ele>
        <time>2016-01-02T14:02:22Z</time>
      </trkpt>
      <trkpt lat="47.34815" lon="-1.91408">
        <ele>59</ele>
        <time>2016-01-02T14:02:23Z</time>
      </trkpt>
      <trkpt lat="47.3481" lon="-1.91411">
        <ele>59</ele>
        <time>2016-01-02T14:02:24Z</time>
      </trkpt>
      <trkpt lat="47.34805" lon="-1.91413">
        <ele>59</ele>
        <time>2016-01-02T14:02:25Z</time>
      </trkpt>
      <trkpt lat="47.34802" lon="-1.91417">
        <ele>57</ele>
        <time>2016-01-02T14:02:27Z</time>
      </trkpt>
      <trkpt lat="47.34799" lon="-1.91418">
        <ele>57</ele>
        <time>2016-01-02T14:02:28Z</time>
      </trkpt>
      <trkpt lat="47.34793" lon="-1.91421">
        <ele>57</ele>
        <time>2016-01-02T14:02:30Z</time>
      </trkpt>
      <trkpt lat="47.34788" lon="-1.91422">
        <ele>57</ele>
        <time>2016-01-02T14:02:31Z</time>
      </trkpt>
      <trkpt lat="47.34781" lon="-1.91423">
        <ele>57</ele>
        <time>2016-01-02T14:02:32Z</time>
      </trkpt>
      <trkpt lat="47.34778" lon="-1.91424">
        <ele>57</ele>
        <time>2016-01-02T14:02:33Z</time>
      </trkpt>
      <trkpt lat="47.34771" lon="-1.91426">
        <ele>57</ele>
        <time>2016-01-02T14:02:34Z</time>
      </trkpt>
      <trkpt lat="47.34767" lon="-1.91427">
        <ele>57</ele>
        <time>2016-01-02T14:02:35Z</time>
      </trkpt>
      <trkpt lat="47.34763" lon="-1.91426">
        <ele>57</ele>
        <time>2016-01-02T14:02:36Z</time>
      </trkpt>
      <trkpt lat="47.3476" lon="-1.91425">
        <ele>57</ele>
        <time>2016-01-02T14:02:37Z</time>
      </trkpt>
      <trkpt lat="47.34757" lon="-1.91425">
        <ele>57</ele>
        <time>2016-01-02T14:02:38Z</time>
      </trkpt>
      <trkpt lat="47.3475" lon="-1.91419">
        <ele>58</ele>
        <time>2016-01-02T14:02:39Z</time>
      </trkpt>
      <trkpt lat="47.34746" lon="-1.91416">
        <ele>58</ele>
        <time>2016-01-02T14:02:40Z</time>
      </trkpt>
      <trkpt lat="47.34743" lon="-1.91414">
        <ele>58</ele>
        <time>2016-01-02T14:02:41Z</time>
      </trkpt>
      <trkpt lat="47.34742" lon="-1.91401">
        <ele>58</ele>
        <time>2016-01-02T14:02:42Z</time>
      </trkpt>
      <trkpt lat="47.3474" lon="-1.91395">
        <ele>58</ele>
        <time>2016-01-02T14:02:43Z</time>
      </trkpt>
      <trkpt lat="47.34739" lon="-1.91389">
        <ele>58</ele>
        <time>2016-01-02T14:02:44Z</time>
      </trkpt>
      <trkpt lat="47.34738" lon="-1.91383">
        <ele>58</ele>
        <time>2016-01-02T14:02:45Z</time>
      </trkpt>
      <trkpt lat="47.34737" lon="-1.91378">
        <ele>58</ele>
        <time>2016-01-02T14:02:47Z</time>
      </trkpt>
      <trkpt lat="47.34735" lon="-1.91374">
        <ele>58</ele>
        <time>2016-01-02T14:02:48Z</time>
      </trkpt>
      <trkpt lat="47.34734" lon="-1.91362">
        <ele>58</ele>
        <time>2016-01-02T14:02:49Z</time>
      </trkpt>
      <trkpt lat="47.34732" lon="-1.91354">
        <ele>59</ele>
        <time>2016-01-02T14:02:50Z</time>
      </trkpt>
      <trkpt lat="47.3473" lon="-1.91348">
        <ele>59</ele>
        <time>2016-01-02T14:02:51Z</time>
      </trkpt>
      <trkpt lat="47.3473" lon="-1.91342">
        <ele>59</ele>
        <time>2016-01-02T14:02:52Z</time>
      </trkpt>
      <trkpt lat="47.34729" lon="-1.91337">
        <ele>59</ele>
        <time>2016-01-02T14:02:53Z</time>
      </trkpt>
      <trkpt lat="47.34729" lon="-1.91331">
        <ele>60</ele>
        <time>2016-01-02T14:02:54Z</time>
      </trkpt>
      <trkpt lat="47.34729" lon="-1.91324">
        <ele>60</ele>
        <time>2016-01-02T14:02:55Z</time>
      </trkpt>
      <trkpt lat="47.34728" lon="-1.91318">
        <ele>60</ele>
        <time>2016-01-02T14:02:56Z</time>
      </trkpt>
      <trkpt lat="47.34728" lon="-1.91312">
        <ele>60</ele>
        <time>2016-01-02T14:02:57Z</time>
      </trkpt>
      <trkpt lat="47.34728" lon="-1.91306">
        <ele>61</ele>
        <time>2016-01-02T14:02:58Z</time>
      </trkpt>
      <trkpt lat="47.34727" lon="-1.91301">
        <ele>61</ele>
        <time>2016-01-02T14:02:59Z</time>
      </trkpt>
      <trkpt lat="47.34726" lon="-1.91297">
        <ele>61</ele>
        <time>2016-01-02T14:03:00Z</time>
      </trkpt>
      <trkpt lat="47.34725" lon="-1.91291">
        <ele>61</ele>
        <time>2016-01-02T14:03:01Z</time>
      </trkpt>
      <trkpt lat="47.34724" lon="-1.91286">
        <ele>61</ele>
        <time>2016-01-02T14:03:02Z</time>
      </trkpt>
      <trkpt lat="47.34724" lon="-1.9128">
        <ele>61</ele>
        <time>2016-01-02T14:03:03Z</time>
      </trkpt>
      <trkpt lat="47.34723" lon="-1.91275">
        <ele>61</ele>
        <time>2016-01-02T14:03:04Z</time>
      </trkpt>
      <trkpt lat="47.34723" lon="-1.91269">
        <ele>62</ele>
        <time>2016-01-02T14:03:05Z</time>
      </trkpt>
      <trkpt lat="47.34722" lon="-1.91264">
        <ele>62</ele>
        <time>2016-01-02T14:03:06Z</time>
      </trkpt>
      <trkpt lat="47.34722" lon="-1.91258">
        <ele>62</ele>
        <time>2016-01-02T14:03:07Z</time>
      </trkpt>
      <trkpt lat="47.34721" lon="-1.91254">
        <ele>62</ele>
        <time>2016-01-02T14:03:08Z</time>
      </trkpt>
      <trkpt lat="47.34721" lon="-1.91249">
        <ele>64</ele>
        <time>2016-01-02T14:03:09Z</time>
      </trkpt>
      <trkpt lat="47.34721" lon="-1.91244">
        <ele>64</ele>
        <time>2016-01-02T14:03:10Z</time>
      </trkpt>
      <trkpt lat="47.34721" lon="-1.91235">
        <ele>64</ele>
        <time>2016-01-02T14:03:12Z</time>
      </trkpt>
      <trkpt lat="47.34721" lon="-1.9123">
        <ele>64</ele>
        <time>2016-01-02T14:03:13Z</time>
      </trkpt>
      <trkpt lat="47.34717" lon="-1.91226">
        <ele>64</ele>
        <time>2016-01-02T14:03:15Z</time>
      </trkpt>
      <trkpt lat="47.34713" lon="-1.91222">
        <ele>65</ele>
        <time>2016-01-02T14:03:17Z</time>
      </trkpt>
      <trkpt lat="47.3471" lon="-1.91217">
        <ele>65</ele>
        <time>2016-01-02T14:03:19Z</time>
      </trkpt>
      <trkpt lat="47.34707" lon="-1.91211">
        <ele>65</ele>
        <time>2016-01-02T14:03:21Z</time>
      </trkpt>
      <trkpt lat="47.34705" lon="-1.91205">
        <ele>65</ele>
        <time>2016-01-02T14:03:23Z</time>
      </trkpt>
      <trkpt lat="47.34705" lon="-1.91198">
        <ele>65</ele>
        <time>2016-01-02T14:03:24Z</time>
      </trkpt>
      <trkpt lat="47.34704" lon="-1.91193">
        <ele>65</ele>
        <time>2016-01-02T14:03:25Z</time>
      </trkpt>
      <trkpt lat="47.34704" lon="-1.91189">
        <ele>65</ele>
        <time>2016-01-02T14:03:26Z</time>
      </trkpt>
      <trkpt lat="47.34702" lon="-1.91182">
        <ele>65</ele>
        <time>2016-01-02T14:03:27Z</time>
      </trkpt>
      <trkpt lat="47.34701" lon="-1.91176">
        <ele>65</ele>
        <time>2016-01-02T14:03:28Z</time>
      </trkpt>
      <trkpt lat="47.347" lon="-1.91171">
        <ele>65</ele>
        <time>2016-01-02T14:03:29Z</time>
      </trkpt>
      <trkpt lat="47.34699" lon="-1.91167">
        <ele>65</ele>
        <time>2016-01-02T14:03:30Z</time>
      </trkpt>
      <trkpt lat="47.34697" lon="-1.91163">
        <ele>66</ele>
        <time>2016-01-02T14:03:31Z</time>
      </trkpt>
      <trkpt lat="47.34696" lon="-1.9116">
        <ele>66</ele>
        <time>2016-01-02T14:03:32Z</time>
      </trkpt>
      <trkpt lat="47.34692" lon="-1.91158">
        <ele>66</ele>
        <time>2016-01-02T14:03:34Z</time>
      </trkpt>
      <trkpt lat="47.34687" lon="-1.9116">
        <ele>66</ele>
        <time>2016-01-02T14:03:36Z</time>
      </trkpt>
      <trkpt lat="47.34684" lon="-1.91162">
        <ele>66</ele>
        <time>2016-01-02T14:03:37Z</time>
      </trkpt>
      <trkpt lat="47.3468" lon="-1.91164">
        <ele>66</ele>
        <time>2016-01-02T14:03:38Z</time>
      </trkpt>
      <trkpt lat="47.34677" lon="-1.91165">
        <ele>66</ele>
        <time>2016-01-02T14:03:39Z</time>
      </trkpt>
      <trkpt lat="47.34673" lon="-1.91167">
        <ele>66</ele>
        <time>2016-01-02T14:03:40Z</time>
      </trkpt>
      <trkpt lat="47.3467" lon="-1.91168">
        <ele>66</ele>
        <time>2016-01-02T14:03:41Z</time>
      </trkpt>
      <trkpt lat="47.34666" lon="-1.91167">
        <ele>66</ele>
        <time>2016-01-02T14:03:42Z</time>
      </trkpt>
      <trkpt lat="47.34661" lon="-1.91165">
        <ele>65</ele>
        <time>2016-01-02T14:03:43Z</time>
      </trkpt>
      <trkpt lat="47.34655" lon="-1.91153">
        <ele>64</ele>
        <time>2016-01-02T14:03:44Z</time>
      </trkpt>
      <trkpt lat="47.34652" lon="-1.91148">
        <ele>64</ele>
        <time>2016-01-02T14:03:45Z</time>
      </trkpt>
      <trkpt lat="47.3465" lon="-1.9114">
        <ele>64</ele>
        <time>2016-01-02T14:03:46Z</time>
      </trkpt>
      <trkpt lat="47.34648" lon="-1.91135">
        <ele>64</ele>
        <time>2016-01-02T14:03:47Z</time>
      </trkpt>
      <trkpt lat="47.34646" lon="-1.91129">
        <ele>64</ele>
        <time>2016-01-02T14:03:48Z</time>
      </trkpt>
      <trkpt lat="47.34643" lon="-1.91125">
        <ele>64</ele>
        <time>2016-01-02T14:03:49Z</time>
      </trkpt>
      <trkpt lat="47.34639" lon="-1.91123">
        <ele>63</ele>
        <time>2016-01-02T14:03:50Z</time>
      </trkpt>
      <trkpt lat="47.34634" lon="-1.91123">
        <ele>63</ele>
        <time>2016-01-02T14:03:51Z</time>
      </trkpt>
      <trkpt lat="47.34628" lon="-1.91128">
        <ele>63</ele>
        <time>2016-01-02T14:03:52Z</time>
      </trkpt>
      <trkpt lat="47.34624" lon="-1.91131">
        <ele>63</ele>
        <time>2016-01-02T14:03:53Z</time>
      </trkpt>
      <trkpt lat="47.34618" lon="-1.91134">
        <ele>63</ele>
        <time>2016-01-02T14:03:54Z</time>
      </trkpt>
      <trkpt lat="47.34612" lon="-1.91136">
        <ele>63</ele>
        <time>2016-01-02T14:03:55Z</time>
      </trkpt>
      <trkpt lat="47.34607" lon="-1.91138">
        <ele>62</ele>
        <time>2016-01-02T14:03:56Z</time>
      </trkpt>
      <trkpt lat="47.34601" lon="-1.91141">
        <ele>62</ele>
        <time>2016-01-02T14:03:57Z</time>
      </trkpt>
      <trkpt lat="47.34596" lon="-1.91143">
        <ele>62</ele>
        <time>2016-01-02T14:03:58Z</time>
      </trkpt>
      <trkpt lat="47.3459" lon="-1.91144">
        <ele>62</ele>
        <time>2016-01-02T14:03:59Z</time>
      </trkpt>
      <trkpt lat="47.34583" lon="-1.91142">
        <ele>60</ele>
        <time>2016-01-02T14:04:00Z</time>
      </trkpt>
      <trkpt lat="47.34579" lon="-1.91141">
        <ele>61</ele>
        <time>2016-01-02T14:04:01Z</time>
      </trkpt>
      <trkpt lat="47.34575" lon="-1.91141">
        <ele>61</ele>
        <time>2016-01-02T14:04:02Z</time>
      </trkpt>
      <trkpt lat="47.3457" lon="-1.91142">
        <ele>61</ele>
        <time>2016-01-02T14:04:03Z</time>
      </trkpt>
      <trkpt lat="47.34565" lon="-1.91142">
        <ele>61</ele>
        <time>2016-01-02T14:04:04Z</time>
      </trkpt>
      <trkpt lat="47.3456" lon="-1.91146">
        <ele>61</ele>
        <time>2016-01-02T14:04:05Z</time>
      </trkpt>
      <trkpt lat="47.34555" lon="-1.91149">
        <ele>61</ele>
        <time>2016-01-02T14:04:06Z</time>
      </trkpt>
      <trkpt lat="47.3455" lon="-1.91152">
        <ele>61</ele>
        <time>2016-01-02T14:04:07Z</time>
      </trkpt>
      <trkpt lat="47.34544" lon="-1.91157">
        <ele>61</ele>
        <time>2016-01-02T14:04:08Z</time>
      </trkpt>
      <trkpt lat="47.34539" lon="-1.91159">
        <ele>61</ele>
        <time>2016-01-02T14:04:09Z</time>
      </trkpt>
      <trkpt lat="47.34536" lon="-1.9116">
        <ele>61</ele>
        <time>2016-01-02T14:04:10Z</time>
      </trkpt>
      <trkpt lat="47.34531" lon="-1.91162">
        <ele>61</ele>
        <time>2016-01-02T14:04:11Z</time>
      </trkpt>
      <trkpt lat="47.34527" lon="-1.91163">
        <ele>61</ele>
        <time>2016-01-02T14:04:12Z</time>
      </trkpt>
      <trkpt lat="47.34523" lon="-1.91167">
        <ele>60</ele>
        <time>2016-01-02T14:04:13Z</time>
      </trkpt>
      <trkpt lat="47.3452" lon="-1.91171">
        <ele>60</ele>
        <time>2016-01-02T14:04:14Z</time>
      </trkpt>
      <trkpt lat="47.34516" lon="-1.91173">
        <ele>60</ele>
        <time>2016-01-02T14:04:15Z</time>
      </trkpt>
      <trkpt lat="47.34512" lon="-1.91175">
        <ele>60</ele>
        <time>2016-01-02T14:04:16Z</time>
      </trkpt>
      <trkpt lat="47.34508" lon="-1.91177">
        <ele>60</ele>
        <time>2016-01-02T14:04:17Z</time>
      </trkpt>
      <trkpt lat="47.34504" lon="-1.91179">
        <ele>60</ele>
        <time>2016-01-02T14:04:18Z</time>
      </trkpt>
      <trkpt lat="47.345" lon="-1.9118">
        <ele>60</ele>
        <time>2016-01-02T14:04:20Z</time>
      </trkpt>
      <trkpt lat="47.34497" lon="-1.91182">
        <ele>60</ele>
        <time>2016-01-02T14:04:21Z</time>
      </trkpt>
      <trkpt lat="47.34494" lon="-1.91183">
        <ele>60</ele>
        <time>2016-01-02T14:04:22Z</time>
      </trkpt>
      <trkpt lat="47.34493" lon="-1.91176">
        <ele>60</ele>
        <time>2016-01-02T14:04:23Z</time>
      </trkpt>
      <trkpt lat="47.34492" lon="-1.91171">
        <ele>60</ele>
        <time>2016-01-02T14:04:24Z</time>
      </trkpt>
      <trkpt lat="47.34491" lon="-1.91166">
        <ele>61</ele>
        <time>2016-01-02T14:04:25Z</time>
      </trkpt>
      <trkpt lat="47.3449" lon="-1.91161">
        <ele>60</ele>
        <time>2016-01-02T14:04:26Z</time>
      </trkpt>
      <trkpt lat="47.3449" lon="-1.91155">
        <ele>60</ele>
        <time>2016-01-02T14:04:27Z</time>
      </trkpt>
      <trkpt lat="47.3449" lon="-1.9115">
        <ele>60</ele>
        <time>2016-01-02T14:04:28Z</time>
      </trkpt>
      <trkpt lat="47.3449" lon="-1.91145">
        <ele>60</ele>
        <time>2016-01-02T14:04:29Z</time>
      </trkpt>
      <trkpt lat="47.34487" lon="-1.91138">
        <ele>60</ele>
        <time>2016-01-02T14:04:30Z</time>
      </trkpt>
      <trkpt lat="47.34487" lon="-1.9113">
        <ele>60</ele>
        <time>2016-01-02T14:04:31Z</time>
      </trkpt>
      <trkpt lat="47.34486" lon="-1.91123">
        <ele>60</ele>
        <time>2016-01-02T14:04:32Z</time>
      </trkpt>
      <trkpt lat="47.34484" lon="-1.91116">
        <ele>60</ele>
        <time>2016-01-02T14:04:33Z</time>
      </trkpt>
      <trkpt lat="47.34483" lon="-1.91109">
        <ele>60</ele>
        <time>2016-01-02T14:04:34Z</time>
      </trkpt>
      <trkpt lat="47.34482" lon="-1.91102">
        <ele>60</ele>
        <time>2016-01-02T14:04:35Z</time>
      </trkpt>
      <trkpt lat="47.34482" lon="-1.91093">
        <ele>60</ele>
        <time>2016-01-02T14:04:36Z</time>
      </trkpt>
      <trkpt lat="47.3448" lon="-1.91087">
        <ele>60</ele>
        <time>2016-01-02T14:04:37Z</time>
      </trkpt>
      <trkpt lat="47.34479" lon="-1.9108">
        <ele>60</ele>
        <time>2016-01-02T14:04:38Z</time>
      </trkpt>
      <trkpt lat="47.34477" lon="-1.91072">
        <ele>60</ele>
        <time>2016-01-02T14:04:39Z</time>
      </trkpt>
      <trkpt lat="47.34474" lon="-1.91066">
        <ele>59</ele>
        <time>2016-01-02T14:04:40Z</time>
      </trkpt>
      <trkpt lat="47.34473" lon="-1.91059">
        <ele>59</ele>
        <time>2016-01-02T14:04:41Z</time>
      </trkpt>
      <trkpt lat="47.34471" lon="-1.91051">
        <ele>59</ele>
        <time>2016-01-02T14:04:42Z</time>
      </trkpt>
      <trkpt lat="47.34469" lon="-1.91043">
        <ele>59</ele>
        <time>2016-01-02T14:04:43Z</time>
      </trkpt>
      <trkpt lat="47.3447" lon="-1.91035">
        <ele>59</ele>
        <time>2016-01-02T14:04:44Z</time>
      </trkpt>
      <trkpt lat="47.34468" lon="-1.91029">
        <ele>59</ele>
        <time>2016-01-02T14:04:45Z</time>
      </trkpt>
      <trkpt lat="47.34467" lon="-1.91024">
        <ele>59</ele>
        <time>2016-01-02T14:04:46Z</time>
      </trkpt>
      <trkpt lat="47.34471" lon="-1.91017">
        <ele>59</ele>
        <time>2016-01-02T14:04:47Z</time>
      </trkpt>
      <trkpt lat="47.34473" lon="-1.91011">
        <ele>59</ele>
        <time>2016-01-02T14:04:48Z</time>
      </trkpt>
      <trkpt lat="47.34474" lon="-1.91006">
        <ele>59</ele>
        <time>2016-01-02T14:04:49Z</time>
      </trkpt>
      <trkpt lat="47.34486" lon="-1.91003">
        <ele>59</ele>
        <time>2016-01-02T14:04:50Z</time>
      </trkpt>
      <trkpt lat="47.3449" lon="-1.91">
        <ele>60</ele>
        <time>2016-01-02T14:04:51Z</time>
      </trkpt>
      <trkpt lat="47.34494" lon="-1.90997">
        <ele>59</ele>
        <time>2016-01-02T14:04:52Z</time>
      </trkpt>
      <trkpt lat="47.34499" lon="-1.90997">
        <ele>60</ele>
        <time>2016-01-02T14:04:53Z</time>
      </trkpt>
      <trkpt lat="47.34504" lon="-1.90996">
        <ele>60</ele>
        <time>2016-01-02T14:04:54Z</time>
      </trkpt>
      <trkpt lat="47.34509" lon="-1.90995">
        <ele>60</ele>
        <time>2016-01-02T14:04:55Z</time>
      </trkpt>
      <trkpt lat="47.34514" lon="-1.90998">
        <ele>60</ele>
        <time>2016-01-02T14:04:56Z</time>
      </trkpt>
      <trkpt lat="47.34519" lon="-1.90998">
        <ele>60</ele>
        <time>2016-01-02T14:04:57Z</time>
      </trkpt>
      <trkpt lat="47.34524" lon="-1.90997">
        <ele>61</ele>
        <time>2016-01-02T14:04:58Z</time>
      </trkpt>
      <trkpt lat="47.3453" lon="-1.90997">
        <ele>61</ele>
        <time>2016-01-02T14:04:59Z</time>
      </trkpt>
      <trkpt lat="47.34534" lon="-1.90997">
        <ele>61</ele>
        <time>2016-01-02T14:05:00Z</time>
      </trkpt>
      <trkpt lat="47.34541" lon="-1.90996">
        <ele>61</ele>
        <time>2016-01-02T14:05:01Z</time>
      </trkpt>
      <trkpt lat="47.34546" lon="-1.90995">
        <ele>61</ele>
        <time>2016-01-02T14:05:02Z</time>
      </trkpt>
      <trkpt lat="47.34551" lon="-1.90995">
        <ele>61</ele>
        <time>2016-01-02T14:05:03Z</time>
      </trkpt>
      <trkpt lat="47.34559" lon="-1.90994">
        <ele>61</ele>
        <time>2016-01-02T14:05:04Z</time>
      </trkpt>
      <trkpt lat="47.34564" lon="-1.90993">
        <ele>61</ele>
        <time>2016-01-02T14:05:05Z</time>
      </trkpt>
      <trkpt lat="47.34569" lon="-1.90991">
        <ele>61</ele>
        <time>2016-01-02T14:05:06Z</time>
      </trkpt>
      <trkpt lat="47.34573" lon="-1.9099">
        <ele>61</ele>
        <time>2016-01-02T14:05:07Z</time>
      </trkpt>
      <trkpt lat="47.34578" lon="-1.90988">
        <ele>61</ele>
        <time>2016-01-02T14:05:08Z</time>
      </trkpt>
      <trkpt lat="47.34584" lon="-1.90986">
        <ele>62</ele>
        <time>2016-01-02T14:05:09Z</time>
      </trkpt>
      <trkpt lat="47.34589" lon="-1.90984">
        <ele>62</ele>
        <time>2016-01-02T14:05:10Z</time>
      </trkpt>
      <trkpt lat="47.34593" lon="-1.90983">
        <ele>62</ele>
        <time>2016-01-02T14:05:11Z</time>
      </trkpt>
      <trkpt lat="47.34598" lon="-1.90981">
        <ele>63</ele>
        <time>2016-01-02T14:05:12Z</time>
      </trkpt>
      <trkpt lat="47.34602" lon="-1.9098">
        <ele>63</ele>
        <time>2016-01-02T14:05:13Z</time>
      </trkpt>
      <trkpt lat="47.34608" lon="-1.90977">
        <ele>63</ele>
        <time>2016-01-02T14:05:14Z</time>
      </trkpt>
      <trkpt lat="47.34612" lon="-1.90975">
        <ele>63</ele>
        <time>2016-01-02T14:05:15Z</time>
      </trkpt>
      <trkpt lat="47.34617" lon="-1.90974">
        <ele>63</ele>
        <time>2016-01-02T14:05:16Z</time>
      </trkpt>
      <trkpt lat="47.34623" lon="-1.90971">
        <ele>63</ele>
        <time>2016-01-02T14:05:17Z</time>
      </trkpt>
      <trkpt lat="47.34627" lon="-1.90969">
        <ele>63</ele>
        <time>2016-01-02T14:05:18Z</time>
      </trkpt>
      <trkpt lat="47.34632" lon="-1.90967">
        <ele>63</ele>
        <time>2016-01-02T14:05:19Z</time>
      </trkpt>
      <trkpt lat="47.34637" lon="-1.90966">
        <ele>63</ele>
        <time>2016-01-02T14:05:20Z</time>
      </trkpt>
      <trkpt lat="47.34641" lon="-1.9096">
        <ele>63</ele>
        <time>2016-01-02T14:05:21Z</time>
      </trkpt>
      <trkpt lat="47.34645" lon="-1.90956">
        <ele>63</ele>
        <time>2016-01-02T14:05:22Z</time>
      </trkpt>
      <trkpt lat="47.34649" lon="-1.90953">
        <ele>63</ele>
        <time>2016-01-02T14:05:23Z</time>
      </trkpt>
      <trkpt lat="47.34653" lon="-1.90947">
        <ele>64</ele>
        <time>2016-01-02T14:05:25Z</time>
      </trkpt>
      <trkpt lat="47.34655" lon="-1.90943">
        <ele>64</ele>
        <time>2016-01-02T14:05:26Z</time>
      </trkpt>
      <trkpt lat="47.34651" lon="-1.90939">
        <ele>64</ele>
        <time>2016-01-02T14:05:27Z</time>
      </trkpt>
      <trkpt lat="47.3465" lon="-1.90933">
        <ele>64</ele>
        <time>2016-01-02T14:05:28Z</time>
      </trkpt>
      <trkpt lat="47.3465" lon="-1.90928">
        <ele>64</ele>
        <time>2016-01-02T14:05:29Z</time>
      </trkpt>
      <trkpt lat="47.34648" lon="-1.90914">
        <ele>64</ele>
        <time>2016-01-02T14:05:30Z</time>
      </trkpt>
      <trkpt lat="47.34648" lon="-1.90908">
        <ele>64</ele>
        <time>2016-01-02T14:05:31Z</time>
      </trkpt>
      <trkpt lat="47.34646" lon="-1.90901">
        <ele>63</ele>
        <time>2016-01-02T14:05:32Z</time>
      </trkpt>
      <trkpt lat="47.34645" lon="-1.90894">
        <ele>63</ele>
        <time>2016-01-02T14:05:33Z</time>
      </trkpt>
      <trkpt lat="47.34643" lon="-1.90887">
        <ele>63</ele>
        <time>2016-01-02T14:05:34Z</time>
      </trkpt>
      <trkpt lat="47.34641" lon="-1.90883">
        <ele>63</ele>
        <time>2016-01-02T14:05:35Z</time>
      </trkpt>
      <trkpt lat="47.3464" lon="-1.90876">
        <ele>63</ele>
        <time>2016-01-02T14:05:36Z</time>
      </trkpt>
      <trkpt lat="47.34638" lon="-1.90869">
        <ele>63</ele>
        <time>2016-01-02T14:05:37Z</time>
      </trkpt>
      <trkpt lat="47.34639" lon="-1.90863">
        <ele>63</ele>
        <time>2016-01-02T14:05:38Z</time>
      </trkpt>
      <trkpt lat="47.34638" lon="-1.90856">
        <ele>63</ele>
        <time>2016-01-02T14:05:39Z</time>
      </trkpt>
      <trkpt lat="47.34637" lon="-1.90849">
        <ele>63</ele>
        <time>2016-01-02T14:05:40Z</time>
      </trkpt>
      <trkpt lat="47.34638" lon="-1.9084">
        <ele>63</ele>
        <time>2016-01-02T14:05:41Z</time>
      </trkpt>
      <trkpt lat="47.34637" lon="-1.90832">
        <ele>63</ele>
        <time>2016-01-02T14:05:42Z</time>
      </trkpt>
      <trkpt lat="47.34636" lon="-1.90822">
        <ele>63</ele>
        <time>2016-01-02T14:05:43Z</time>
      </trkpt>
      <trkpt lat="47.34634" lon="-1.90814">
        <ele>62</ele>
        <time>2016-01-02T14:05:44Z</time>
      </trkpt>
      <trkpt lat="47.34633" lon="-1.90806">
        <ele>62</ele>
        <time>2016-01-02T14:05:45Z</time>
      </trkpt>
      <trkpt lat="47.34631" lon="-1.90798">
        <ele>62</ele>
        <time>2016-01-02T14:05:46Z</time>
      </trkpt>
      <trkpt lat="47.34628" lon="-1.90791">
        <ele>62</ele>
        <time>2016-01-02T14:05:47Z</time>
      </trkpt>
      <trkpt lat="47.34625" lon="-1.90786">
        <ele>62</ele>
        <time>2016-01-02T14:05:48Z</time>
      </trkpt>
      <trkpt lat="47.34623" lon="-1.9078">
        <ele>62</ele>
        <time>2016-01-02T14:05:49Z</time>
      </trkpt>
      <trkpt lat="47.34623" lon="-1.90769">
        <ele>62</ele>
        <time>2016-01-02T14:05:50Z</time>
      </trkpt>
      <trkpt lat="47.34621" lon="-1.90762">
        <ele>62</ele>
        <time>2016-01-02T14:05:51Z</time>
      </trkpt>
      <trkpt lat="47.34619" lon="-1.90754">
        <ele>62</ele>
        <time>2016-01-02T14:05:52Z</time>
      </trkpt>
      <trkpt lat="47.34617" lon="-1.90741">
        <ele>61</ele>
        <time>2016-01-02T14:05:53Z</time>
      </trkpt>
      <trkpt lat="47.34614" lon="-1.90731">
        <ele>61</ele>
        <time>2016-01-02T14:05:54Z</time>
      </trkpt>
      <trkpt lat="47.34612" lon="-1.90724">
        <ele>61</ele>
        <time>2016-01-02T14:05:55Z</time>
      </trkpt>
      <trkpt lat="47.3461" lon="-1.90716">
        <ele>61</ele>
        <time>2016-01-02T14:05:56Z</time>
      </trkpt>
      <trkpt lat="47.34604" lon="-1.90706">
        <ele>61</ele>
        <time>2016-01-02T14:05:57Z</time>
      </trkpt>
      <trkpt lat="47.346" lon="-1.907">
        <ele>61</ele>
        <time>2016-01-02T14:05:58Z</time>
      </trkpt>
      <trkpt lat="47.34596" lon="-1.90692">
        <ele>61</ele>
        <time>2016-01-02T14:05:59Z</time>
      </trkpt>
      <trkpt lat="47.34592" lon="-1.90685">
        <ele>61</ele>
        <time>2016-01-02T14:06:00Z</time>
      </trkpt>
      <trkpt lat="47.34588" lon="-1.90686">
        <ele>61</ele>
        <time>2016-01-02T14:06:01Z</time>
      </trkpt>
      <trkpt lat="47.34586" lon="-1.90687">
        <ele>61</ele>
        <time>2016-01-02T14:06:02Z</time>
      </trkpt>
      <trkpt lat="47.34583" lon="-1.90685">
        <ele>59</ele>
        <time>2016-01-02T14:06:03Z</time>
      </trkpt>
      <trkpt lat="47.3458" lon="-1.90688">
        <ele>59</ele>
        <time>2016-01-02T14:06:05Z</time>
      </trkpt>
      <trkpt lat="47.34578" lon="-1.90698">
        <ele>58</ele>
        <time>2016-01-02T14:06:07Z</time>
      </trkpt>
      <trkpt lat="47.34575" lon="-1.90701">
        <ele>58</ele>
        <time>2016-01-02T14:06:08Z</time>
      </trkpt>
      <trkpt lat="47.34572" lon="-1.90705">
        <ele>58</ele>
        <time>2016-01-02T14:06:09Z</time>
      </trkpt>
      <trkpt lat="47.34569" lon="-1.90712">
        <ele>58</ele>
        <time>2016-01-02T14:06:11Z</time>
      </trkpt>
      <trkpt lat="47.34566" lon="-1.90718">
        <ele>58</ele>
        <time>2016-01-02T14:06:12Z</time>
      </trkpt>
      <trkpt lat="47.34562" lon="-1.90724">
        <ele>58</ele>
        <time>2016-01-02T14:06:13Z</time>
      </trkpt>
      <trkpt lat="47.34559" lon="-1.90729">
        <ele>58</ele>
        <time>2016-01-02T14:06:14Z</time>
      </trkpt>
      <trkpt lat="47.34555" lon="-1.90736">
        <ele>57</ele>
        <time>2016-01-02T14:06:15Z</time>
      </trkpt>
      <trkpt lat="47.34553" lon="-1.90742">
        <ele>57</ele>
        <time>2016-01-02T14:06:16Z</time>
      </trkpt>
      <trkpt lat="47.34549" lon="-1.90746">
        <ele>57</ele>
        <time>2016-01-02T14:06:17Z</time>
      </trkpt>
      <trkpt lat="47.34547" lon="-1.90753">
        <ele>57</ele>
        <time>2016-01-02T14:06:18Z</time>
      </trkpt>
      <trkpt lat="47.34541" lon="-1.90755">
        <ele>56</ele>
        <time>2016-01-02T14:06:19Z</time>
      </trkpt>
      <trkpt lat="47.34537" lon="-1.90759">
        <ele>56</ele>
        <time>2016-01-02T14:06:20Z</time>
      </trkpt>
      <trkpt lat="47.34533" lon="-1.90763">
        <ele>56</ele>
        <time>2016-01-02T14:06:21Z</time>
      </trkpt>
      <trkpt lat="47.34529" lon="-1.90765">
        <ele>56</ele>
        <time>2016-01-02T14:06:22Z</time>
      </trkpt>
      <trkpt lat="47.34523" lon="-1.90765">
        <ele>56</ele>
        <time>2016-01-02T14:06:23Z</time>
      </trkpt>
      <trkpt lat="47.34519" lon="-1.90767">
        <ele>56</ele>
        <time>2016-01-02T14:06:24Z</time>
      </trkpt>
      <trkpt lat="47.34513" lon="-1.90762">
        <ele>55</ele>
        <time>2016-01-02T14:06:25Z</time>
      </trkpt>
      <trkpt lat="47.34508" lon="-1.90763">
        <ele>55</ele>
        <time>2016-01-02T14:06:26Z</time>
      </trkpt>
      <trkpt lat="47.34504" lon="-1.90764">
        <ele>55</ele>
        <time>2016-01-02T14:06:27Z</time>
      </trkpt>
      <trkpt lat="47.345" lon="-1.90761">
        <ele>55</ele>
        <time>2016-01-02T14:06:28Z</time>
      </trkpt>
      <trkpt lat="47.34495" lon="-1.90764">
        <ele>55</ele>
        <time>2016-01-02T14:06:29Z</time>
      </trkpt>
      <trkpt lat="47.34492" lon="-1.90764">
        <ele>55</ele>
        <time>2016-01-02T14:06:30Z</time>
      </trkpt>
      <trkpt lat="47.34487" lon="-1.90765">
        <ele>55</ele>
        <time>2016-01-02T14:06:31Z</time>
      </trkpt>
      <trkpt lat="47.34481" lon="-1.90767">
        <ele>55</ele>
        <time>2016-01-02T14:06:32Z</time>
      </trkpt>
      <trkpt lat="47.34475" lon="-1.90769">
        <ele>55</ele>
        <time>2016-01-02T14:06:33Z</time>
      </trkpt>
      <trkpt lat="47.34469" lon="-1.90771">
        <ele>55</ele>
        <time>2016-01-02T14:06:34Z</time>
      </trkpt>
      <trkpt lat="47.34463" lon="-1.90774">
        <ele>55</ele>
        <time>2016-01-02T14:06:35Z</time>
      </trkpt>
      <trkpt lat="47.34457" lon="-1.90776">
        <ele>56</ele>
        <time>2016-01-02T14:06:36Z</time>
      </trkpt>
      <trkpt lat="47.34451" lon="-1.90777">
        <ele>56</ele>
        <time>2016-01-02T14:06:37Z</time>
      </trkpt>
      <trkpt lat="47.34446" lon="-1.90779">
        <ele>56</ele>
        <time>2016-01-02T14:06:38Z</time>
      </trkpt>
      <trkpt lat="47.34439" lon="-1.9078">
        <ele>56</ele>
        <time>2016-01-02T14:06:39Z</time>
      </trkpt>
      <trkpt lat="47.34433" lon="-1.90781">
        <ele>56</ele>
        <time>2016-01-02T14:06:40Z</time>
      </trkpt>
      <trkpt lat="47.34429" lon="-1.90781">
        <ele>56</ele>
        <time>2016-01-02T14:06:41Z</time>
      </trkpt>
      <trkpt lat="47.34424" lon="-1.90782">
        <ele>56</ele>
        <time>2016-01-02T14:06:42Z</time>
      </trkpt>
      <trkpt lat="47.34419" lon="-1.90782">
        <ele>56</ele>
        <time>2016-01-02T14:06:43Z</time>
      </trkpt>
      <trkpt lat="47.34419" lon="-1.90791">
        <ele>55</ele>
        <time>2016-01-02T14:06:44Z</time>
      </trkpt>
      <trkpt lat="47.34414" lon="-1.90791">
        <ele>57</ele>
        <time>2016-01-02T14:06:45Z</time>
      </trkpt>
      <trkpt lat="47.34409" lon="-1.90792">
        <ele>57</ele>
        <time>2016-01-02T14:06:46Z</time>
      </trkpt>
      <trkpt lat="47.34405" lon="-1.90793">
        <ele>57</ele>
        <time>2016-01-02T14:06:47Z</time>
      </trkpt>
      <trkpt lat="47.34398" lon="-1.90804">
        <ele>56</ele>
        <time>2016-01-02T14:06:49Z</time>
      </trkpt>
      <trkpt lat="47.34394" lon="-1.90811">
        <ele>56</ele>
        <time>2016-01-02T14:06:50Z</time>
      </trkpt>
      <trkpt lat="47.3439" lon="-1.90817">
        <ele>56</ele>
        <time>2016-01-02T14:06:51Z</time>
      </trkpt>
      <trkpt lat="47.34386" lon="-1.90823">
        <ele>56</ele>
        <time>2016-01-02T14:06:52Z</time>
      </trkpt>
      <trkpt lat="47.34383" lon="-1.90826">
        <ele>56</ele>
        <time>2016-01-02T14:06:53Z</time>
      </trkpt>
      <trkpt lat="47.34381" lon="-1.9083">
        <ele>56</ele>
        <time>2016-01-02T14:06:54Z</time>
      </trkpt>
      <trkpt lat="47.34378" lon="-1.90835">
        <ele>53</ele>
        <time>2016-01-02T14:06:55Z</time>
      </trkpt>
      <trkpt lat="47.34373" lon="-1.90841">
        <ele>53</ele>
        <time>2016-01-02T14:06:56Z</time>
      </trkpt>
      <trkpt lat="47.3437" lon="-1.90845">
        <ele>53</ele>
        <time>2016-01-02T14:06:57Z</time>
      </trkpt>
      <trkpt lat="47.34366" lon="-1.9085">
        <ele>53</ele>
        <time>2016-01-02T14:06:58Z</time>
      </trkpt>
      <trkpt lat="47.34363" lon="-1.90854">
        <ele>52</ele>
        <time>2016-01-02T14:06:59Z</time>
      </trkpt>
      <trkpt lat="47.34359" lon="-1.90859">
        <ele>52</ele>
        <time>2016-01-02T14:07:00Z</time>
      </trkpt>
      <trkpt lat="47.34354" lon="-1.90864">
        <ele>52</ele>
        <time>2016-01-02T14:07:01Z</time>
      </trkpt>
      <trkpt lat="47.3435" lon="-1.90867">
        <ele>52</ele>
        <time>2016-01-02T14:07:02Z</time>
      </trkpt>
      <trkpt lat="47.34347" lon="-1.90871">
        <ele>52</ele>
        <time>2016-01-02T14:07:03Z</time>
      </trkpt>
      <trkpt lat="47.34343" lon="-1.90875">
        <ele>52</ele>
        <time>2016-01-02T14:07:04Z</time>
      </trkpt>
      <trkpt lat="47.3434" lon="-1.90879">
        <ele>51</ele>
        <time>2016-01-02T14:07:05Z</time>
      </trkpt>
      <trkpt lat="47.34336" lon="-1.90882">
        <ele>51</ele>
        <time>2016-01-02T14:07:06Z</time>
      </trkpt>
      <trkpt lat="47.34332" lon="-1.90887">
        <ele>49</ele>
        <time>2016-01-02T14:07:07Z</time>
      </trkpt>
      <trkpt lat="47.34326" lon="-1.90891">
        <ele>48</ele>
        <time>2016-01-02T14:07:08Z</time>
      </trkpt>
      <trkpt lat="47.3432" lon="-1.90896">
        <ele>48</ele>
        <time>2016-01-02T14:07:09Z</time>
      </trkpt>
      <trkpt lat="47.34315" lon="-1.90899">
        <ele>48</ele>
        <time>2016-01-02T14:07:10Z</time>
      </trkpt>
      <trkpt lat="47.3431" lon="-1.90903">
        <ele>48</ele>
        <time>2016-01-02T14:07:11Z</time>
      </trkpt>
      <trkpt lat="47.34305" lon="-1.9091">
        <ele>48</ele>
        <time>2016-01-02T14:07:12Z</time>
      </trkpt>
      <trkpt lat="47.34301" lon="-1.90914">
        <ele>47</ele>
        <time>2016-01-02T14:07:13Z</time>
      </trkpt>
      <trkpt lat="47.34295" lon="-1.90919">
        <ele>43</ele>
        <time>2016-01-02T14:07:14Z</time>
      </trkpt>
      <trkpt lat="47.3429" lon="-1.90926">
        <ele>43</ele>
        <time>2016-01-02T14:07:15Z</time>
      </trkpt>
      <trkpt lat="47.34286" lon="-1.90932">
        <ele>43</ele>
        <time>2016-01-02T14:07:16Z</time>
      </trkpt>
      <trkpt lat="47.34282" lon="-1.90937">
        <ele>42</ele>
        <time>2016-01-02T14:07:17Z</time>
      </trkpt>
      <trkpt lat="47.34277" lon="-1.9094">
        <ele>42</ele>
        <time>2016-01-02T14:07:18Z</time>
      </trkpt>
      <trkpt lat="47.34273" lon="-1.90945">
        <ele>42</ele>
        <time>2016-01-02T14:07:19Z</time>
      </trkpt>
      <trkpt lat="47.3427" lon="-1.90949">
        <ele>42</ele>
        <time>2016-01-02T14:07:20Z</time>
      </trkpt>
      <trkpt lat="47.34266" lon="-1.90954">
        <ele>41</ele>
        <time>2016-01-02T14:07:21Z</time>
      </trkpt>
      <trkpt lat="47.34264" lon="-1.90957">
        <ele>41</ele>
        <time>2016-01-02T14:07:22Z</time>
      </trkpt>
      <trkpt lat="47.34257" lon="-1.90962">
        <ele>41</ele>
        <time>2016-01-02T14:07:23Z</time>
      </trkpt>
      <trkpt lat="47.34254" lon="-1.90967">
        <ele>40</ele>
        <time>2016-01-02T14:07:24Z</time>
      </trkpt>
      <trkpt lat="47.3425" lon="-1.90971">
        <ele>35</ele>
        <time>2016-01-02T14:07:26Z</time>
      </trkpt>
      <trkpt lat="47.34244" lon="-1.90973">
        <ele>35</ele>
        <time>2016-01-02T14:07:27Z</time>
      </trkpt>
      <trkpt lat="47.34241" lon="-1.90973">
        <ele>35</ele>
        <time>2016-01-02T14:07:29Z</time>
      </trkpt>
      <trkpt lat="47.34236" lon="-1.90969">
        <ele>35</ele>
        <time>2016-01-02T14:07:32Z</time>
      </trkpt>
      <trkpt lat="47.34233" lon="-1.90967">
        <ele>35</ele>
        <time>2016-01-02T14:07:34Z</time>
      </trkpt>
      <trkpt lat="47.34229" lon="-1.90963">
        <ele>35</ele>
        <time>2016-01-02T14:07:36Z</time>
      </trkpt>
      <trkpt lat="47.34227" lon="-1.90959">
        <ele>35</ele>
        <time>2016-01-02T14:07:38Z</time>
      </trkpt>
      <trkpt lat="47.34226" lon="-1.90953">
        <ele>36</ele>
        <time>2016-01-02T14:07:39Z</time>
      </trkpt>
      <trkpt lat="47.34223" lon="-1.90947">
        <ele>36</ele>
        <time>2016-01-02T14:07:41Z</time>
      </trkpt>
      <trkpt lat="47.3422" lon="-1.90941">
        <ele>36</ele>
        <time>2016-01-02T14:07:42Z</time>
      </trkpt>
      <trkpt lat="47.34219" lon="-1.90935">
        <ele>36</ele>
        <time>2016-01-02T14:07:43Z</time>
      </trkpt>
      <trkpt lat="47.34218" lon="-1.90931">
        <ele>36</ele>
        <time>2016-01-02T14:07:44Z</time>
      </trkpt>
      <trkpt lat="47.34218" lon="-1.90925">
        <ele>37</ele>
        <time>2016-01-02T14:07:45Z</time>
      </trkpt>
      <trkpt lat="47.34217" lon="-1.90919">
        <ele>37</ele>
        <time>2016-01-02T14:07:47Z</time>
      </trkpt>
      <trkpt lat="47.34217" lon="-1.90905">
        <ele>41</ele>
        <time>2016-01-02T14:07:48Z</time>
      </trkpt>
      <trkpt lat="47.34217" lon="-1.909">
        <ele>41</ele>
        <time>2016-01-02T14:07:49Z</time>
      </trkpt>
      <trkpt lat="47.34216" lon="-1.90895">
        <ele>41</ele>
        <time>2016-01-02T14:07:50Z</time>
      </trkpt>
      <trkpt lat="47.34214" lon="-1.90889">
        <ele>41</ele>
        <time>2016-01-02T14:07:51Z</time>
      </trkpt>
      <trkpt lat="47.34213" lon="-1.90882">
        <ele>41</ele>
        <time>2016-01-02T14:07:52Z</time>
      </trkpt>
      <trkpt lat="47.34211" lon="-1.90878">
        <ele>41</ele>
        <time>2016-01-02T14:07:53Z</time>
      </trkpt>
      <trkpt lat="47.3421" lon="-1.90873">
        <ele>41</ele>
        <time>2016-01-02T14:07:54Z</time>
      </trkpt>
      <trkpt lat="47.34209" lon="-1.90868">
        <ele>42</ele>
        <time>2016-01-02T14:07:55Z</time>
      </trkpt>
      <trkpt lat="47.34207" lon="-1.90863">
        <ele>42</ele>
        <time>2016-01-02T14:07:56Z</time>
      </trkpt>
      <trkpt lat="47.34206" lon="-1.90858">
        <ele>42</ele>
        <time>2016-01-02T14:07:57Z</time>
      </trkpt>
      <trkpt lat="47.34205" lon="-1.90853">
        <ele>42</ele>
        <time>2016-01-02T14:07:58Z</time>
      </trkpt>
      <trkpt lat="47.34203" lon="-1.90847">
        <ele>42</ele>
        <time>2016-01-02T14:07:59Z</time>
      </trkpt>
      <trkpt lat="47.34201" lon="-1.90841">
        <ele>41</ele>
        <time>2016-01-02T14:08:00Z</time>
      </trkpt>
      <trkpt lat="47.34199" lon="-1.90836">
        <ele>41</ele>
        <time>2016-01-02T14:08:01Z</time>
      </trkpt>
      <trkpt lat="47.34197" lon="-1.90831">
        <ele>45</ele>
        <time>2016-01-02T14:08:02Z</time>
      </trkpt>
      <trkpt lat="47.34199" lon="-1.90824">
        <ele>46</ele>
        <time>2016-01-02T14:08:03Z</time>
      </trkpt>
      <trkpt lat="47.34196" lon="-1.90813">
        <ele>46</ele>
        <time>2016-01-02T14:08:05Z</time>
      </trkpt>
      <trkpt lat="47.34194" lon="-1.90808">
        <ele>46</ele>
        <time>2016-01-02T14:08:06Z</time>
      </trkpt>
      <trkpt lat="47.34192" lon="-1.90803">
        <ele>46</ele>
        <time>2016-01-02T14:08:07Z</time>
      </trkpt>
      <trkpt lat="47.34188" lon="-1.90799">
        <ele>46</ele>
        <time>2016-01-02T14:08:08Z</time>
      </trkpt>
      <trkpt lat="47.34184" lon="-1.90795">
        <ele>46</ele>
        <time>2016-01-02T14:08:09Z</time>
      </trkpt>
      <trkpt lat="47.34181" lon="-1.90792">
        <ele>46</ele>
        <time>2016-01-02T14:08:10Z</time>
      </trkpt>
      <trkpt lat="47.34176" lon="-1.90789">
        <ele>46</ele>
        <time>2016-01-02T14:08:11Z</time>
      </trkpt>
      <trkpt lat="47.34173" lon="-1.90787">
        <ele>46</ele>
        <time>2016-01-02T14:08:12Z</time>
      </trkpt>
      <trkpt lat="47.34169" lon="-1.90784">
        <ele>46</ele>
        <time>2016-01-02T14:08:13Z</time>
      </trkpt>
      <trkpt lat="47.34166" lon="-1.90781">
        <ele>40</ele>
        <time>2016-01-02T14:08:14Z</time>
      </trkpt>
      <trkpt lat="47.34163" lon="-1.90777">
        <ele>40</ele>
        <time>2016-01-02T14:08:15Z</time>
      </trkpt>
      <trkpt lat="47.3416" lon="-1.90773">
        <ele>41</ele>
        <time>2016-01-02T14:08:16Z</time>
      </trkpt>
      <trkpt lat="47.34157" lon="-1.9077">
        <ele>41</ele>
        <time>2016-01-02T14:08:17Z</time>
      </trkpt>
      <trkpt lat="47.34155" lon="-1.90764">
        <ele>41</ele>
        <time>2016-01-02T14:08:18Z</time>
      </trkpt>
      <trkpt lat="47.34152" lon="-1.9076">
        <ele>41</ele>
        <time>2016-01-02T14:08:19Z</time>
      </trkpt>
      <trkpt lat="47.34149" lon="-1.90756">
        <ele>41</ele>
        <time>2016-01-02T14:08:20Z</time>
      </trkpt>
      <trkpt lat="47.34149" lon="-1.90747">
        <ele>45</ele>
        <time>2016-01-02T14:08:21Z</time>
      </trkpt>
      <trkpt lat="47.34148" lon="-1.90742">
        <ele>45</ele>
        <time>2016-01-02T14:08:22Z</time>
      </trkpt>
      <trkpt lat="47.34146" lon="-1.90737">
        <ele>44</ele>
        <time>2016-01-02T14:08:23Z</time>
      </trkpt>
      <trkpt lat="47.34146" lon="-1.90731">
        <ele>44</ele>
        <time>2016-01-02T14:08:24Z</time>
      </trkpt>
      <trkpt lat="47.34146" lon="-1.90724">
        <ele>44</ele>
        <time>2016-01-02T14:08:25Z</time>
      </trkpt>
      <trkpt lat="47.34145" lon="-1.90719">
        <ele>45</ele>
        <time>2016-01-02T14:08:26Z</time>
      </trkpt>
      <trkpt lat="47.34144" lon="-1.90714">
        <ele>45</ele>
        <time>2016-01-02T14:08:27Z</time>
      </trkpt>
      <trkpt lat="47.34145" lon="-1.90706">
        <ele>45</ele>
        <time>2016-01-02T14:08:28Z</time>
      </trkpt>
      <trkpt lat="47.34144" lon="-1.907">
        <ele>45</ele>
        <time>2016-01-02T14:08:29Z</time>
      </trkpt>
      <trkpt lat="47.34144" lon="-1.90695">
        <ele>46</ele>
        <time>2016-01-02T14:08:30Z</time>
      </trkpt>
      <trkpt lat="47.34143" lon="-1.90689">
        <ele>46</ele>
        <time>2016-01-02T14:08:31Z</time>
      </trkpt>
      <trkpt lat="47.34142" lon="-1.90682">
        <ele>46</ele>
        <time>2016-01-02T14:08:32Z</time>
      </trkpt>
      <trkpt lat="47.34141" lon="-1.90677">
        <ele>46</ele>
        <time>2016-01-02T14:08:33Z</time>
      </trkpt>
      <trkpt lat="47.3414" lon="-1.90671">
        <ele>46</ele>
        <time>2016-01-02T14:08:34Z</time>
      </trkpt>
      <trkpt lat="47.34139" lon="-1.90666">
        <ele>49</ele>
        <time>2016-01-02T14:08:35Z</time>
      </trkpt>
      <trkpt lat="47.34138" lon="-1.9066">
        <ele>49</ele>
        <time>2016-01-02T14:08:36Z</time>
      </trkpt>
      <trkpt lat="47.34138" lon="-1.90655">
        <ele>49</ele>
        <time>2016-01-02T14:08:37Z</time>
      </trkpt>
      <trkpt lat="47.34137" lon="-1.9065">
        <ele>49</ele>
        <time>2016-01-02T14:08:38Z</time>
      </trkpt>
      <trkpt lat="47.34136" lon="-1.90645">
        <ele>48</ele>
        <time>2016-01-02T14:08:39Z</time>
      </trkpt>
      <trkpt lat="47.34136" lon="-1.90639">
        <ele>49</ele>
        <time>2016-01-02T14:08:40Z</time>
      </trkpt>
      <trkpt lat="47.34135" lon="-1.90634">
        <ele>49</ele>
        <time>2016-01-02T14:08:41Z</time>
      </trkpt>
      <trkpt lat="47.34134" lon="-1.90629">
        <ele>49</ele>
        <time>2016-01-02T14:08:42Z</time>
      </trkpt>
      <trkpt lat="47.34133" lon="-1.90624">
        <ele>49</ele>
        <time>2016-01-02T14:08:43Z</time>
      </trkpt>
      <trkpt lat="47.34133" lon="-1.90618">
        <ele>49</ele>
        <time>2016-01-02T14:08:44Z</time>
      </trkpt>
      <trkpt lat="47.34132" lon="-1.90613">
        <ele>49</ele>
        <time>2016-01-02T14:08:45Z</time>
      </trkpt>
      <trkpt lat="47.34131" lon="-1.90608">
        <ele>49</ele>
        <time>2016-01-02T14:08:46Z</time>
      </trkpt>
      <trkpt lat="47.3413" lon="-1.90601">
        <ele>49</ele>
        <time>2016-01-02T14:08:47Z</time>
      </trkpt>
      <trkpt lat="47.34129" lon="-1.90595">
        <ele>49</ele>
        <time>2016-01-02T14:08:48Z</time>
      </trkpt>
      <trkpt lat="47.34128" lon="-1.9059">
        <ele>49</ele>
        <time>2016-01-02T14:08:49Z</time>
      </trkpt>
      <trkpt lat="47.34127" lon="-1.90585">
        <ele>49</ele>
        <time>2016-01-02T14:08:50Z</time>
      </trkpt>
      <trkpt lat="47.34126" lon="-1.90579">
        <ele>51</ele>
        <time>2016-01-02T14:08:51Z</time>
      </trkpt>
      <trkpt lat="47.34125" lon="-1.90574">
        <ele>51</ele>
        <time>2016-01-02T14:08:52Z</time>
      </trkpt>
      <trkpt lat="47.34123" lon="-1.90569">
        <ele>51</ele>
        <time>2016-01-02T14:08:53Z</time>
      </trkpt>
      <trkpt lat="47.34122" lon="-1.90564">
        <ele>51</ele>
        <time>2016-01-02T14:08:54Z</time>
      </trkpt>
      <trkpt lat="47.3412" lon="-1.9056">
        <ele>51</ele>
        <time>2016-01-02T14:08:55Z</time>
      </trkpt>
      <trkpt lat="47.34118" lon="-1.90555">
        <ele>51</ele>
        <time>2016-01-02T14:08:56Z</time>
      </trkpt>
      <trkpt lat="47.34117" lon="-1.90552">
        <ele>51</ele>
        <time>2016-01-02T14:08:57Z</time>
      </trkpt>
      <trkpt lat="47.34115" lon="-1.90547">
        <ele>51</ele>
        <time>2016-01-02T14:08:58Z</time>
      </trkpt>
      <trkpt lat="47.34114" lon="-1.90543">
        <ele>51</ele>
        <time>2016-01-02T14:08:59Z</time>
      </trkpt>
      <trkpt lat="47.34113" lon="-1.90538">
        <ele>51</ele>
        <time>2016-01-02T14:09:00Z</time>
      </trkpt>
      <trkpt lat="47.34111" lon="-1.90534">
        <ele>51</ele>
        <time>2016-01-02T14:09:01Z</time>
      </trkpt>
      <trkpt lat="47.3411" lon="-1.9053">
        <ele>51</ele>
        <time>2016-01-02T14:09:02Z</time>
      </trkpt>
      <trkpt lat="47.34108" lon="-1.90526">
        <ele>51</ele>
        <time>2016-01-02T14:09:03Z</time>
      </trkpt>
      <trkpt lat="47.34107" lon="-1.90521">
        <ele>51</ele>
        <time>2016-01-02T14:09:04Z</time>
      </trkpt>
      <trkpt lat="47.34106" lon="-1.90517">
        <ele>51</ele>
        <time>2016-01-02T14:09:05Z</time>
      </trkpt>
      <trkpt lat="47.34105" lon="-1.90513">
        <ele>51</ele>
        <time>2016-01-02T14:09:06Z</time>
      </trkpt>
      <trkpt lat="47.34103" lon="-1.90508">
        <ele>51</ele>
        <time>2016-01-02T14:09:07Z</time>
      </trkpt>
      <trkpt lat="47.34102" lon="-1.90504">
        <ele>50</ele>
        <time>2016-01-02T14:09:08Z</time>
      </trkpt>
      <trkpt lat="47.341" lon="-1.905">
        <ele>51</ele>
        <time>2016-01-02T14:09:09Z</time>
      </trkpt>
      <trkpt lat="47.34099" lon="-1.90495">
        <ele>51</ele>
        <time>2016-01-02T14:09:10Z</time>
      </trkpt>
      <trkpt lat="47.34097" lon="-1.90491">
        <ele>51</ele>
        <time>2016-01-02T14:09:11Z</time>
      </trkpt>
      <trkpt lat="47.34096" lon="-1.90486">
        <ele>51</ele>
        <time>2016-01-02T14:09:12Z</time>
      </trkpt>
      <trkpt lat="47.34094" lon="-1.90481">
        <ele>52</ele>
        <time>2016-01-02T14:09:13Z</time>
      </trkpt>
      <trkpt lat="47.34093" lon="-1.90477">
        <ele>52</ele>
        <time>2016-01-02T14:09:14Z</time>
      </trkpt>
      <trkpt lat="47.34091" lon="-1.90473">
        <ele>52</ele>
        <time>2016-01-02T14:09:15Z</time>
      </trkpt>
      <trkpt lat="47.34089" lon="-1.90469">
        <ele>52</ele>
        <time>2016-01-02T14:09:16Z</time>
      </trkpt>
      <trkpt lat="47.34088" lon="-1.90465">
        <ele>52</ele>
        <time>2016-01-02T14:09:17Z</time>
      </trkpt>
      <trkpt lat="47.34086" lon="-1.90459">
        <ele>52</ele>
        <time>2016-01-02T14:09:18Z</time>
      </trkpt>
      <trkpt lat="47.34085" lon="-1.90455">
        <ele>52</ele>
        <time>2016-01-02T14:09:19Z</time>
      </trkpt>
      <trkpt lat="47.34083" lon="-1.9045">
        <ele>52</ele>
        <time>2016-01-02T14:09:20Z</time>
      </trkpt>
      <trkpt lat="47.34082" lon="-1.90445">
        <ele>47</ele>
        <time>2016-01-02T14:09:21Z</time>
      </trkpt>
      <trkpt lat="47.34081" lon="-1.9044">
        <ele>47</ele>
        <time>2016-01-02T14:09:22Z</time>
      </trkpt>
      <trkpt lat="47.34079" lon="-1.90436">
        <ele>47</ele>
        <time>2016-01-02T14:09:23Z</time>
      </trkpt>
      <trkpt lat="47.34077" lon="-1.90431">
        <ele>47</ele>
        <time>2016-01-02T14:09:24Z</time>
      </trkpt>
      <trkpt lat="47.34077" lon="-1.90424">
        <ele>48</ele>
        <time>2016-01-02T14:09:25Z</time>
      </trkpt>
      <trkpt lat="47.34076" lon="-1.90417">
        <ele>48</ele>
        <time>2016-01-02T14:09:26Z</time>
      </trkpt>
      <trkpt lat="47.34076" lon="-1.9041">
        <ele>49</ele>
        <time>2016-01-02T14:09:27Z</time>
      </trkpt>
      <trkpt lat="47.34076" lon="-1.90405">
        <ele>49</ele>
        <time>2016-01-02T14:09:28Z</time>
      </trkpt>
      <trkpt lat="47.34077" lon="-1.90399">
        <ele>49</ele>
        <time>2016-01-02T14:09:29Z</time>
      </trkpt>
      <trkpt lat="47.34077" lon="-1.90394">
        <ele>49</ele>
        <time>2016-01-02T14:09:30Z</time>
      </trkpt>
      <trkpt lat="47.34077" lon="-1.90389">
        <ele>49</ele>
        <time>2016-01-02T14:09:31Z</time>
      </trkpt>
      <trkpt lat="47.34081" lon="-1.90383">
        <ele>49</ele>
        <time>2016-01-02T14:09:32Z</time>
      </trkpt>
      <trkpt lat="47.34083" lon="-1.90379">
        <ele>49</ele>
        <time>2016-01-02T14:09:33Z</time>
      </trkpt>
      <trkpt lat="47.34085" lon="-1.90375">
        <ele>54</ele>
        <time>2016-01-02T14:09:34Z</time>
      </trkpt>
      <trkpt lat="47.34087" lon="-1.9037">
        <ele>55</ele>
        <time>2016-01-02T14:09:35Z</time>
      </trkpt>
      <trkpt lat="47.34089" lon="-1.90365">
        <ele>55</ele>
        <time>2016-01-02T14:09:36Z</time>
      </trkpt>
      <trkpt lat="47.34091" lon="-1.90361">
        <ele>55</ele>
        <time>2016-01-02T14:09:37Z</time>
      </trkpt>
      <trkpt lat="47.34092" lon="-1.90356">
        <ele>55</ele>
        <time>2016-01-02T14:09:38Z</time>
      </trkpt>
      <trkpt lat="47.34093" lon="-1.90353">
        <ele>55</ele>
        <time>2016-01-02T14:09:39Z</time>
      </trkpt>
      <trkpt lat="47.34093" lon="-1.90348">
        <ele>55</ele>
        <time>2016-01-02T14:09:40Z</time>
      </trkpt>
      <trkpt lat="47.34094" lon="-1.90343">
        <ele>55</ele>
        <time>2016-01-02T14:09:41Z</time>
      </trkpt>
      <trkpt lat="47.34093" lon="-1.90335">
        <ele>55</ele>
        <time>2016-01-02T14:09:43Z</time>
      </trkpt>
      <trkpt lat="47.34093" lon="-1.9033">
        <ele>56</ele>
        <time>2016-01-02T14:09:44Z</time>
      </trkpt>
      <trkpt lat="47.34093" lon="-1.90326">
        <ele>56</ele>
        <time>2016-01-02T14:09:45Z</time>
      </trkpt>
      <trkpt lat="47.34093" lon="-1.90321">
        <ele>56</ele>
        <time>2016-01-02T14:09:46Z</time>
      </trkpt>
      <trkpt lat="47.34094" lon="-1.90317">
        <ele>56</ele>
        <time>2016-01-02T14:09:47Z</time>
      </trkpt>
      <trkpt lat="47.34093" lon="-1.90312">
        <ele>57</ele>
        <time>2016-01-02T14:09:48Z</time>
      </trkpt>
      <trkpt lat="47.34093" lon="-1.90308">
        <ele>57</ele>
        <time>2016-01-02T14:09:49Z</time>
      </trkpt>
      <trkpt lat="47.34093" lon="-1.90303">
        <ele>57</ele>
        <time>2016-01-02T14:09:50Z</time>
      </trkpt>
      <trkpt lat="47.34092" lon="-1.90299">
        <ele>57</ele>
        <time>2016-01-02T14:09:51Z</time>
      </trkpt>
      <trkpt lat="47.34092" lon="-1.90294">
        <ele>57</ele>
        <time>2016-01-02T14:09:52Z</time>
      </trkpt>
      <trkpt lat="47.34092" lon="-1.9029">
        <ele>57</ele>
        <time>2016-01-02T14:09:53Z</time>
      </trkpt>
      <trkpt lat="47.34091" lon="-1.90285">
        <ele>57</ele>
        <time>2016-01-02T14:09:54Z</time>
      </trkpt>
      <trkpt lat="47.34091" lon="-1.90281">
        <ele>57</ele>
        <time>2016-01-02T14:09:55Z</time>
      </trkpt>
      <trkpt lat="47.34091" lon="-1.90276">
        <ele>57</ele>
        <time>2016-01-02T14:09:56Z</time>
      </trkpt>
      <trkpt lat="47.34093" lon="-1.90272">
        <ele>57</ele>
        <time>2016-01-02T14:09:57Z</time>
      </trkpt>
      <trkpt lat="47.34094" lon="-1.90268">
        <ele>56</ele>
        <time>2016-01-02T14:09:58Z</time>
      </trkpt>
      <trkpt lat="47.34095" lon="-1.90264">
        <ele>56</ele>
        <time>2016-01-02T14:09:59Z</time>
      </trkpt>
      <trkpt lat="47.34096" lon="-1.90259">
        <ele>56</ele>
        <time>2016-01-02T14:10:00Z</time>
      </trkpt>
      <trkpt lat="47.34098" lon="-1.90256">
        <ele>56</ele>
        <time>2016-01-02T14:10:01Z</time>
      </trkpt>
      <trkpt lat="47.341" lon="-1.90252">
        <ele>56</ele>
        <time>2016-01-02T14:10:02Z</time>
      </trkpt>
      <trkpt lat="47.34101" lon="-1.90249">
        <ele>57</ele>
        <time>2016-01-02T14:10:03Z</time>
      </trkpt>
      <trkpt lat="47.34104" lon="-1.90247">
        <ele>57</ele>
        <time>2016-01-02T14:10:04Z</time>
      </trkpt>
      <trkpt lat="47.34107" lon="-1.90244">
        <ele>57</ele>
        <time>2016-01-02T14:10:05Z</time>
      </trkpt>
      <trkpt lat="47.3411" lon="-1.90242">
        <ele>58</ele>
        <time>2016-01-02T14:10:06Z</time>
      </trkpt>
      <trkpt lat="47.34113" lon="-1.9024">
        <ele>58</ele>
        <time>2016-01-02T14:10:07Z</time>
      </trkpt>
      <trkpt lat="47.34116" lon="-1.90238">
        <ele>58</ele>
        <time>2016-01-02T14:10:08Z</time>
      </trkpt>
      <trkpt lat="47.34118" lon="-1.90236">
        <ele>58</ele>
        <time>2016-01-02T14:10:09Z</time>
      </trkpt>
      <trkpt lat="47.34123" lon="-1.90235">
        <ele>59</ele>
        <time>2016-01-02T14:10:10Z</time>
      </trkpt>
      <trkpt lat="47.34125" lon="-1.90233">
        <ele>59</ele>
        <time>2016-01-02T14:10:11Z</time>
      </trkpt>
      <trkpt lat="47.34128" lon="-1.90231">
        <ele>59</ele>
        <time>2016-01-02T14:10:12Z</time>
      </trkpt>
      <trkpt lat="47.34137" lon="-1.90219">
        <ele>60</ele>
        <time>2016-01-02T14:10:13Z</time>
      </trkpt>
      <trkpt lat="47.34139" lon="-1.90212">
        <ele>60</ele>
        <time>2016-01-02T14:10:14Z</time>
      </trkpt>
      <trkpt lat="47.34142" lon="-1.90204">
        <ele>60</ele>
        <time>2016-01-02T14:10:15Z</time>
      </trkpt>
      <trkpt lat="47.34144" lon="-1.90196">
        <ele>60</ele>
        <time>2016-01-02T14:10:16Z</time>
      </trkpt>
      <trkpt lat="47.3414" lon="-1.90187">
        <ele>60</ele>
        <time>2016-01-02T14:10:17Z</time>
      </trkpt>
      <trkpt lat="47.34139" lon="-1.90179">
        <ele>60</ele>
        <time>2016-01-02T14:10:18Z</time>
      </trkpt>
      <trkpt lat="47.34138" lon="-1.90171">
        <ele>60</ele>
        <time>2016-01-02T14:10:19Z</time>
      </trkpt>
      <trkpt lat="47.34136" lon="-1.9016">
        <ele>61</ele>
        <time>2016-01-02T14:10:21Z</time>
      </trkpt>
      <trkpt lat="47.34135" lon="-1.90154">
        <ele>61</ele>
        <time>2016-01-02T14:10:22Z</time>
      </trkpt>
      <trkpt lat="47.34136" lon="-1.90147">
        <ele>61</ele>
        <time>2016-01-02T14:10:23Z</time>
      </trkpt>
      <trkpt lat="47.34135" lon="-1.90141">
        <ele>61</ele>
        <time>2016-01-02T14:10:24Z</time>
      </trkpt>
      <trkpt lat="47.34134" lon="-1.90133">
        <ele>61</ele>
        <time>2016-01-02T14:10:26Z</time>
      </trkpt>
      <trkpt lat="47.34133" lon="-1.90129">
        <ele>61</ele>
        <time>2016-01-02T14:10:27Z</time>
      </trkpt>
      <trkpt lat="47.3413" lon="-1.90124">
        <ele>61</ele>
        <time>2016-01-02T14:10:28Z</time>
      </trkpt>
      <trkpt lat="47.34129" lon="-1.90119">
        <ele>61</ele>
        <time>2016-01-02T14:10:29Z</time>
      </trkpt>
      <trkpt lat="47.34128" lon="-1.90114">
        <ele>61</ele>
        <time>2016-01-02T14:10:30Z</time>
      </trkpt>
      <trkpt lat="47.34125" lon="-1.90112">
        <ele>61</ele>
        <time>2016-01-02T14:10:31Z</time>
      </trkpt>
      <trkpt lat="47.34124" lon="-1.90107">
        <ele>61</ele>
        <time>2016-01-02T14:10:32Z</time>
      </trkpt>
      <trkpt lat="47.34123" lon="-1.90102">
        <ele>61</ele>
        <time>2016-01-02T14:10:33Z</time>
      </trkpt>
      <trkpt lat="47.34123" lon="-1.90097">
        <ele>61</ele>
        <time>2016-01-02T14:10:34Z</time>
      </trkpt>
      <trkpt lat="47.34122" lon="-1.90091">
        <ele>61</ele>
        <time>2016-01-02T14:10:35Z</time>
      </trkpt>
      <trkpt lat="47.34121" lon="-1.90087">
        <ele>61</ele>
        <time>2016-01-02T14:10:36Z</time>
      </trkpt>
      <trkpt lat="47.3412" lon="-1.90081">
        <ele>63</ele>
        <time>2016-01-02T14:10:37Z</time>
      </trkpt>
      <trkpt lat="47.34117" lon="-1.90077">
        <ele>62</ele>
        <time>2016-01-02T14:10:38Z</time>
      </trkpt>
      <trkpt lat="47.34117" lon="-1.90071">
        <ele>62</ele>
        <time>2016-01-02T14:10:39Z</time>
      </trkpt>
      <trkpt lat="47.34116" lon="-1.90066">
        <ele>62</ele>
        <time>2016-01-02T14:10:40Z</time>
      </trkpt>
      <trkpt lat="47.34114" lon="-1.90061">
        <ele>62</ele>
        <time>2016-01-02T14:10:41Z</time>
      </trkpt>
      <trkpt lat="47.34114" lon="-1.90055">
        <ele>63</ele>
        <time>2016-01-02T14:10:42Z</time>
      </trkpt>
      <trkpt lat="47.34113" lon="-1.9005">
        <ele>63</ele>
        <time>2016-01-02T14:10:43Z</time>
      </trkpt>
      <trkpt lat="47.34112" lon="-1.90045">
        <ele>63</ele>
        <time>2016-01-02T14:10:44Z</time>
      </trkpt>
      <trkpt lat="47.34113" lon="-1.90039">
        <ele>63</ele>
        <time>2016-01-02T14:10:45Z</time>
      </trkpt>
      <trkpt lat="47.34111" lon="-1.90033">
        <ele>63</ele>
        <time>2016-01-02T14:10:46Z</time>
      </trkpt>
      <trkpt lat="47.3411" lon="-1.90028">
        <ele>63</ele>
        <time>2016-01-02T14:10:47Z</time>
      </trkpt>
      <trkpt lat="47.34109" lon="-1.90022">
        <ele>63</ele>
        <time>2016-01-02T14:10:48Z</time>
      </trkpt>
      <trkpt lat="47.34109" lon="-1.90016">
        <ele>63</ele>
        <time>2016-01-02T14:10:49Z</time>
      </trkpt>
      <trkpt lat="47.34109" lon="-1.9001">
        <ele>63</ele>
        <time>2016-01-02T14:10:50Z</time>
      </trkpt>
      <trkpt lat="47.34108" lon="-1.90005">
        <ele>63</ele>
        <time>2016-01-02T14:10:51Z</time>
      </trkpt>
      <trkpt lat="47.34108" lon="-1.9">
        <ele>63</ele>
        <time>2016-01-02T14:10:52Z</time>
      </trkpt>
      <trkpt lat="47.34107" lon="-1.89995">
        <ele>63</ele>
        <time>2016-01-02T14:10:53Z</time>
      </trkpt>
      <trkpt lat="47.34107" lon="-1.89989">
        <ele>63</ele>
        <time>2016-01-02T14:10:54Z</time>
      </trkpt>
      <trkpt lat="47.34106" lon="-1.89984">
        <ele>63</ele>
        <time>2016-01-02T14:10:55Z</time>
      </trkpt>
      <trkpt lat="47.34105" lon="-1.89978">
        <ele>63</ele>
        <time>2016-01-02T14:10:56Z</time>
      </trkpt>
      <trkpt lat="47.34103" lon="-1.8997">
        <ele>63</ele>
        <time>2016-01-02T14:10:58Z</time>
      </trkpt>
      <trkpt lat="47.34102" lon="-1.89965">
        <ele>63</ele>
        <time>2016-01-02T14:10:59Z</time>
      </trkpt>
      <trkpt lat="47.34101" lon="-1.8996">
        <ele>63</ele>
        <time>2016-01-02T14:11:00Z</time>
      </trkpt>
      <trkpt lat="47.34099" lon="-1.89956">
        <ele>63</ele>
        <time>2016-01-02T14:11:01Z</time>
      </trkpt>
      <trkpt lat="47.34098" lon="-1.89951">
        <ele>63</ele>
        <time>2016-01-02T14:11:02Z</time>
      </trkpt>
      <trkpt lat="47.34097" lon="-1.89946">
        <ele>63</ele>
        <time>2016-01-02T14:11:03Z</time>
      </trkpt>
      <trkpt lat="47.34095" lon="-1.89942">
        <ele>63</ele>
        <time>2016-01-02T14:11:04Z</time>
      </trkpt>
      <trkpt lat="47.34093" lon="-1.89939">
        <ele>63</ele>
        <time>2016-01-02T14:11:05Z</time>
      </trkpt>
      <trkpt lat="47.34091" lon="-1.89934">
        <ele>63</ele>
        <time>2016-01-02T14:11:06Z</time>
      </trkpt>
      <trkpt lat="47.34089" lon="-1.89929">
        <ele>63</ele>
        <time>2016-01-02T14:11:07Z</time>
      </trkpt>
      <trkpt lat="47.34088" lon="-1.89924">
        <ele>63</ele>
        <time>2016-01-02T14:11:08Z</time>
      </trkpt>
      <trkpt lat="47.34087" lon="-1.89919">
        <ele>63</ele>
        <time>2016-01-02T14:11:09Z</time>
      </trkpt>
      <trkpt lat="47.34085" lon="-1.89915">
        <ele>63</ele>
        <time>2016-01-02T14:11:10Z</time>
      </trkpt>
      <trkpt lat="47.34084" lon="-1.8991">
        <ele>64</ele>
        <time>2016-01-02T14:11:11Z</time>
      </trkpt>
      <trkpt lat="47.34083" lon="-1.89905">
        <ele>63</ele>
        <time>2016-01-02T14:11:12Z</time>
      </trkpt>
      <trkpt lat="47.34082" lon="-1.89902">
        <ele>63</ele>
        <time>2016-01-02T14:11:13Z</time>
      </trkpt>
      <trkpt lat="47.34081" lon="-1.89898">
        <ele>63</ele>
        <time>2016-01-02T14:11:14Z</time>
      </trkpt>
      <trkpt lat="47.3408" lon="-1.89893">
        <ele>64</ele>
        <time>2016-01-02T14:11:15Z</time>
      </trkpt>
      <trkpt lat="47.3408" lon="-1.89889">
        <ele>64</ele>
        <time>2016-01-02T14:11:16Z</time>
      </trkpt>
      <trkpt lat="47.34079" lon="-1.89885">
        <ele>64</ele>
        <time>2016-01-02T14:11:17Z</time>
      </trkpt>
      <trkpt lat="47.34078" lon="-1.89877">
        <ele>64</ele>
        <time>2016-01-02T14:11:19Z</time>
      </trkpt>
      <trkpt lat="47.34077" lon="-1.89872">
        <ele>64</ele>
        <time>2016-01-02T14:11:20Z</time>
      </trkpt>
      <trkpt lat="47.34077" lon="-1.89868">
        <ele>64</ele>
        <time>2016-01-02T14:11:21Z</time>
      </trkpt>
      <trkpt lat="47.34076" lon="-1.89863">
        <ele>65</ele>
        <time>2016-01-02T14:11:22Z</time>
      </trkpt>
      <trkpt lat="47.34075" lon="-1.89857">
        <ele>65</ele>
        <time>2016-01-02T14:11:23Z</time>
      </trkpt>
      <trkpt lat="47.34075" lon="-1.89852">
        <ele>65</ele>
        <time>2016-01-02T14:11:24Z</time>
      </trkpt>
      <trkpt lat="47.34075" lon="-1.89847">
        <ele>65</ele>
        <time>2016-01-02T14:11:25Z</time>
      </trkpt>
      <trkpt lat="47.34076" lon="-1.89843">
        <ele>66</ele>
        <time>2016-01-02T14:11:26Z</time>
      </trkpt>
      <trkpt lat="47.34076" lon="-1.89838">
        <ele>66</ele>
        <time>2016-01-02T14:11:27Z</time>
      </trkpt>
      <trkpt lat="47.34077" lon="-1.89833">
        <ele>67</ele>
        <time>2016-01-02T14:11:28Z</time>
      </trkpt>
      <trkpt lat="47.34077" lon="-1.89828">
        <ele>67</ele>
        <time>2016-01-02T14:11:29Z</time>
      </trkpt>
      <trkpt lat="47.34078" lon="-1.89824">
        <ele>67</ele>
        <time>2016-01-02T14:11:30Z</time>
      </trkpt>
      <trkpt lat="47.34078" lon="-1.89819">
        <ele>66</ele>
        <time>2016-01-02T14:11:31Z</time>
      </trkpt>
      <trkpt lat="47.34079" lon="-1.89815">
        <ele>66</ele>
        <time>2016-01-02T14:11:32Z</time>
      </trkpt>
      <trkpt lat="47.34079" lon="-1.8981">
        <ele>66</ele>
        <time>2016-01-02T14:11:33Z</time>
      </trkpt>
      <trkpt lat="47.3408" lon="-1.89806">
        <ele>66</ele>
        <time>2016-01-02T14:11:34Z</time>
      </trkpt>
      <trkpt lat="47.34081" lon="-1.89801">
        <ele>66</ele>
        <time>2016-01-02T14:11:35Z</time>
      </trkpt>
      <trkpt lat="47.34081" lon="-1.89796">
        <ele>66</ele>
        <time>2016-01-02T14:11:36Z</time>
      </trkpt>
      <trkpt lat="47.34082" lon="-1.89792">
        <ele>66</ele>
        <time>2016-01-02T14:11:37Z</time>
      </trkpt>
      <trkpt lat="47.34083" lon="-1.89788">
        <ele>66</ele>
        <time>2016-01-02T14:11:38Z</time>
      </trkpt>
      <trkpt lat="47.34084" lon="-1.89783">
        <ele>68</ele>
        <time>2016-01-02T14:11:39Z</time>
      </trkpt>
      <trkpt lat="47.34084" lon="-1.89778">
        <ele>68</ele>
        <time>2016-01-02T14:11:40Z</time>
      </trkpt>
      <trkpt lat="47.34085" lon="-1.89774">
        <ele>68</ele>
        <time>2016-01-02T14:11:41Z</time>
      </trkpt>
      <trkpt lat="47.34086" lon="-1.8977">
        <ele>68</ele>
        <time>2016-01-02T14:11:42Z</time>
      </trkpt>
      <trkpt lat="47.34086" lon="-1.89765">
        <ele>68</ele>
        <time>2016-01-02T14:11:43Z</time>
      </trkpt>
      <trkpt lat="47.34088" lon="-1.8976">
        <ele>68</ele>
        <time>2016-01-02T14:11:44Z</time>
      </trkpt>
      <trkpt lat="47.34089" lon="-1.89755">
        <ele>68</ele>
        <time>2016-01-02T14:11:45Z</time>
      </trkpt>
      <trkpt lat="47.3409" lon="-1.8975">
        <ele>68</ele>
        <time>2016-01-02T14:11:46Z</time>
      </trkpt>
      <trkpt lat="47.34091" lon="-1.89745">
        <ele>68</ele>
        <time>2016-01-02T14:11:47Z</time>
      </trkpt>
      <trkpt lat="47.34093" lon="-1.89741">
        <ele>68</ele>
        <time>2016-01-02T14:11:48Z</time>
      </trkpt>
      <trkpt lat="47.34095" lon="-1.89736">
        <ele>68</ele>
        <time>2016-01-02T14:11:49Z</time>
      </trkpt>
      <trkpt lat="47.34096" lon="-1.89733">
        <ele>68</ele>
        <time>2016-01-02T14:11:50Z</time>
      </trkpt>
      <trkpt lat="47.341" lon="-1.89725">
        <ele>68</ele>
        <time>2016-01-02T14:11:51Z</time>
      </trkpt>
      <trkpt lat="47.34103" lon="-1.89719">
        <ele>68</ele>
        <time>2016-01-02T14:11:52Z</time>
      </trkpt>
      <trkpt lat="47.34105" lon="-1.89714">
        <ele>68</ele>
        <time>2016-01-02T14:11:53Z</time>
      </trkpt>
      <trkpt lat="47.34108" lon="-1.89709">
        <ele>68</ele>
        <time>2016-01-02T14:11:54Z</time>
      </trkpt>
      <trkpt lat="47.34111" lon="-1.89703">
        <ele>67</ele>
        <time>2016-01-02T14:11:55Z</time>
      </trkpt>
      <trkpt lat="47.34113" lon="-1.89699">
        <ele>67</ele>
        <time>2016-01-02T14:11:56Z</time>
      </trkpt>
      <trkpt lat="47.34116" lon="-1.89693">
        <ele>67</ele>
        <time>2016-01-02T14:11:57Z</time>
      </trkpt>
      <trkpt lat="47.34117" lon="-1.89684">
        <ele>67</ele>
        <time>2016-01-02T14:11:58Z</time>
      </trkpt>
      <trkpt lat="47.34118" lon="-1.89677">
        <ele>67</ele>
        <time>2016-01-02T14:11:59Z</time>
      </trkpt>
      <trkpt lat="47.34118" lon="-1.89669">
        <ele>67</ele>
        <time>2016-01-02T14:12:00Z</time>
      </trkpt>
      <trkpt lat="47.34118" lon="-1.89662">
        <ele>65</ele>
        <time>2016-01-02T14:12:01Z</time>
      </trkpt>
      <trkpt lat="47.34116" lon="-1.89656">
        <ele>65</ele>
        <time>2016-01-02T14:12:02Z</time>
      </trkpt>
      <trkpt lat="47.34115" lon="-1.89651">
        <ele>65</ele>
        <time>2016-01-02T14:12:03Z</time>
      </trkpt>
      <trkpt lat="47.34113" lon="-1.89643">
        <ele>65</ele>
        <time>2016-01-02T14:12:04Z</time>
      </trkpt>
      <trkpt lat="47.34111" lon="-1.89636">
        <ele>65</ele>
        <time>2016-01-02T14:12:05Z</time>
      </trkpt>
      <trkpt lat="47.3411" lon="-1.89628">
        <ele>65</ele>
        <time>2016-01-02T14:12:06Z</time>
      </trkpt>
      <trkpt lat="47.34107" lon="-1.8962">
        <ele>65</ele>
        <time>2016-01-02T14:12:07Z</time>
      </trkpt>
      <trkpt lat="47.34105" lon="-1.89613">
        <ele>65</ele>
        <time>2016-01-02T14:12:08Z</time>
      </trkpt>
      <trkpt lat="47.34102" lon="-1.89609">
        <ele>64</ele>
        <time>2016-01-02T14:12:09Z</time>
      </trkpt>
      <trkpt lat="47.341" lon="-1.89601">
        <ele>64</ele>
        <time>2016-01-02T14:12:10Z</time>
      </trkpt>
      <trkpt lat="47.34097" lon="-1.89594">
        <ele>64</ele>
        <time>2016-01-02T14:12:11Z</time>
      </trkpt>
      <trkpt lat="47.34095" lon="-1.89592">
        <ele>64</ele>
        <time>2016-01-02T14:12:12Z</time>
      </trkpt>
      <trkpt lat="47.34093" lon="-1.89587">
        <ele>64</ele>
        <time>2016-01-02T14:12:13Z</time>
      </trkpt>
      <trkpt lat="47.34092" lon="-1.89583">
        <ele>63</ele>
        <time>2016-01-02T14:12:14Z</time>
      </trkpt>
      <trkpt lat="47.34089" lon="-1.89583">
        <ele>63</ele>
        <time>2016-01-02T14:12:15Z</time>
      </trkpt>
      <trkpt lat="47.34086" lon="-1.89583">
        <ele>63</ele>
        <time>2016-01-02T14:12:16Z</time>
      </trkpt>
      <trkpt lat="47.34079" lon="-1.89586">
        <ele>63</ele>
        <time>2016-01-02T14:12:18Z</time>
      </trkpt>
      <trkpt lat="47.34075" lon="-1.89591">
        <ele>63</ele>
        <time>2016-01-02T14:12:19Z</time>
      </trkpt>
      <trkpt lat="47.3407" lon="-1.89594">
        <ele>62</ele>
        <time>2016-01-02T14:12:20Z</time>
      </trkpt>
      <trkpt lat="47.34065" lon="-1.89597">
        <ele>62</ele>
        <time>2016-01-02T14:12:21Z</time>
      </trkpt>
      <trkpt lat="47.34057" lon="-1.89598">
        <ele>62</ele>
        <time>2016-01-02T14:12:22Z</time>
      </trkpt>
      <trkpt lat="47.3405" lon="-1.89601">
        <ele>62</ele>
        <time>2016-01-02T14:12:23Z</time>
      </trkpt>
      <trkpt lat="47.34036" lon="-1.89604">
        <ele>62</ele>
        <time>2016-01-02T14:12:25Z</time>
      </trkpt>
      <trkpt lat="47.34026" lon="-1.89607">
        <ele>61</ele>
        <time>2016-01-02T14:12:26Z</time>
      </trkpt>
      <trkpt lat="47.34019" lon="-1.89609">
        <ele>61</ele>
        <time>2016-01-02T14:12:27Z</time>
      </trkpt>
      <trkpt lat="47.34015" lon="-1.89606">
        <ele>61</ele>
        <time>2016-01-02T14:12:28Z</time>
      </trkpt>
      <trkpt lat="47.34009" lon="-1.89607">
        <ele>61</ele>
        <time>2016-01-02T14:12:29Z</time>
      </trkpt>
      <trkpt lat="47.34003" lon="-1.89609">
        <ele>61</ele>
        <time>2016-01-02T14:12:30Z</time>
      </trkpt>
      <trkpt lat="47.33997" lon="-1.8961">
        <ele>59</ele>
        <time>2016-01-02T14:12:31Z</time>
      </trkpt>
      <trkpt lat="47.33992" lon="-1.89614">
        <ele>59</ele>
        <time>2016-01-02T14:12:32Z</time>
      </trkpt>
      <trkpt lat="47.33988" lon="-1.89614">
        <ele>59</ele>
        <time>2016-01-02T14:12:33Z</time>
      </trkpt>
      <trkpt lat="47.33983" lon="-1.89615">
        <ele>58</ele>
        <time>2016-01-02T14:12:34Z</time>
      </trkpt>
      <trkpt lat="47.33976" lon="-1.89612">
        <ele>58</ele>
        <time>2016-01-02T14:12:35Z</time>
      </trkpt>
      <trkpt lat="47.33971" lon="-1.89612">
        <ele>58</ele>
        <time>2016-01-02T14:12:36Z</time>
      </trkpt>
      <trkpt lat="47.33968" lon="-1.89612">
        <ele>58</ele>
        <time>2016-01-02T14:12:37Z</time>
      </trkpt>
      <trkpt lat="47.33962" lon="-1.89611">
        <ele>58</ele>
        <time>2016-01-02T14:12:39Z</time>
      </trkpt>
      <trkpt lat="47.33957" lon="-1.89613">
        <ele>58</ele>
        <time>2016-01-02T14:12:40Z</time>
      </trkpt>
      <trkpt lat="47.3395" lon="-1.89616">
        <ele>58</ele>
        <time>2016-01-02T14:12:41Z</time>
      </trkpt>
      <trkpt lat="47.33943" lon="-1.89618">
        <ele>58</ele>
        <time>2016-01-02T14:12:42Z</time>
      </trkpt>
      <trkpt lat="47.33937" lon="-1.89622">
        <ele>58</ele>
        <time>2016-01-02T14:12:43Z</time>
      </trkpt>
      <trkpt lat="47.33932" lon="-1.89624">
        <ele>57</ele>
        <time>2016-01-02T14:12:44Z</time>
      </trkpt>
      <trkpt lat="47.33927" lon="-1.89627">
        <ele>57</ele>
        <time>2016-01-02T14:12:45Z</time>
      </trkpt>
      <trkpt lat="47.33922" lon="-1.8963">
        <ele>57</ele>
        <time>2016-01-02T14:12:46Z</time>
      </trkpt>
      <trkpt lat="47.33917" lon="-1.89632">
        <ele>57</ele>
        <time>2016-01-02T14:12:47Z</time>
      </trkpt>
      <trkpt lat="47.33912" lon="-1.89635">
        <ele>55</ele>
        <time>2016-01-02T14:12:48Z</time>
      </trkpt>
      <trkpt lat="47.33908" lon="-1.89635">
        <ele>55</ele>
        <time>2016-01-02T14:12:49Z</time>
      </trkpt>
      <trkpt lat="47.33903" lon="-1.89637">
        <ele>55</ele>
        <time>2016-01-02T14:12:50Z</time>
      </trkpt>
      <trkpt lat="47.33899" lon="-1.89639">
        <ele>55</ele>
        <time>2016-01-02T14:12:51Z</time>
      </trkpt>
      <trkpt lat="47.3389" lon="-1.89638">
        <ele>54</ele>
        <time>2016-01-02T14:12:52Z</time>
      </trkpt>
      <trkpt lat="47.33885" lon="-1.89641">
        <ele>54</ele>
        <time>2016-01-02T14:12:53Z</time>
      </trkpt>
      <trkpt lat="47.3388" lon="-1.89642">
        <ele>54</ele>
        <time>2016-01-02T14:12:54Z</time>
      </trkpt>
      <trkpt lat="47.33877" lon="-1.89643">
        <ele>54</ele>
        <time>2016-01-02T14:12:56Z</time>
      </trkpt>
      <trkpt lat="47.33865" lon="-1.89642">
        <ele>54</ele>
        <time>2016-01-02T14:12:58Z</time>
      </trkpt>
      <trkpt lat="47.3386" lon="-1.89641">
        <ele>54</ele>
        <time>2016-01-02T14:12:59Z</time>
      </trkpt>
      <trkpt lat="47.33856" lon="-1.89641">
        <ele>53</ele>
        <time>2016-01-02T14:13:00Z</time>
      </trkpt>
      <trkpt lat="47.3385" lon="-1.89646">
        <ele>53</ele>
        <time>2016-01-02T14:13:01Z</time>
      </trkpt>
      <trkpt lat="47.33843" lon="-1.89648">
        <ele>53</ele>
        <time>2016-01-02T14:13:02Z</time>
      </trkpt>
      <trkpt lat="47.33835" lon="-1.89649">
        <ele>53</ele>
        <time>2016-01-02T14:13:03Z</time>
      </trkpt>
      <trkpt lat="47.33829" lon="-1.89652">
        <ele>52</ele>
        <time>2016-01-02T14:13:04Z</time>
      </trkpt>
      <trkpt lat="47.33824" lon="-1.89655">
        <ele>52</ele>
        <time>2016-01-02T14:13:05Z</time>
      </trkpt>
      <trkpt lat="47.33819" lon="-1.89658">
        <ele>52</ele>
        <time>2016-01-02T14:13:06Z</time>
      </trkpt>
      <trkpt lat="47.33812" lon="-1.89666">
        <ele>52</ele>
        <time>2016-01-02T14:13:08Z</time>
      </trkpt>
      <trkpt lat="47.33809" lon="-1.89671">
        <ele>50</ele>
        <time>2016-01-02T14:13:09Z</time>
      </trkpt>
      <trkpt lat="47.33805" lon="-1.89676">
        <ele>50</ele>
        <time>2016-01-02T14:13:10Z</time>
      </trkpt>
      <trkpt lat="47.33802" lon="-1.89682">
        <ele>50</ele>
        <time>2016-01-02T14:13:11Z</time>
      </trkpt>
      <trkpt lat="47.33798" lon="-1.89688">
        <ele>50</ele>
        <time>2016-01-02T14:13:12Z</time>
      </trkpt>
      <trkpt lat="47.33796" lon="-1.89693">
        <ele>50</ele>
        <time>2016-01-02T14:13:13Z</time>
      </trkpt>
      <trkpt lat="47.33794" lon="-1.897">
        <ele>50</ele>
        <time>2016-01-02T14:13:14Z</time>
      </trkpt>
      <trkpt lat="47.33789" lon="-1.89706">
        <ele>49</ele>
        <time>2016-01-02T14:13:15Z</time>
      </trkpt>
      <trkpt lat="47.33786" lon="-1.8971">
        <ele>49</ele>
        <time>2016-01-02T14:13:16Z</time>
      </trkpt>
      <trkpt lat="47.33782" lon="-1.89714">
        <ele>49</ele>
        <time>2016-01-02T14:13:17Z</time>
      </trkpt>
      <trkpt lat="47.33777" lon="-1.8972">
        <ele>49</ele>
        <time>2016-01-02T14:13:18Z</time>
      </trkpt>
      <trkpt lat="47.33771" lon="-1.89724">
        <ele>48</ele>
        <time>2016-01-02T14:13:19Z</time>
      </trkpt>
      <trkpt lat="47.33766" lon="-1.89728">
        <ele>48</ele>
        <time>2016-01-02T14:13:20Z</time>
      </trkpt>
      <trkpt lat="47.33759" lon="-1.89728">
        <ele>48</ele>
        <time>2016-01-02T14:13:21Z</time>
      </trkpt>
      <trkpt lat="47.33752" lon="-1.8973">
        <ele>47</ele>
        <time>2016-01-02T14:13:22Z</time>
      </trkpt>
      <trkpt lat="47.33745" lon="-1.89731">
        <ele>45</ele>
        <time>2016-01-02T14:13:23Z</time>
      </trkpt>
      <trkpt lat="47.33736" lon="-1.89733">
        <ele>45</ele>
        <time>2016-01-02T14:13:24Z</time>
      </trkpt>
      <trkpt lat="47.33728" lon="-1.89732">
        <ele>45</ele>
        <time>2016-01-02T14:13:25Z</time>
      </trkpt>
      <trkpt lat="47.3372" lon="-1.89731">
        <ele>44</ele>
        <time>2016-01-02T14:13:26Z</time>
      </trkpt>
      <trkpt lat="47.33713" lon="-1.89727">
        <ele>44</ele>
        <time>2016-01-02T14:13:27Z</time>
      </trkpt>
      <trkpt lat="47.33706" lon="-1.89722">
        <ele>44</ele>
        <time>2016-01-02T14:13:28Z</time>
      </trkpt>
      <trkpt lat="47.33701" lon="-1.89717">
        <ele>44</ele>
        <time>2016-01-02T14:13:29Z</time>
      </trkpt>
      <trkpt lat="47.33694" lon="-1.89711">
        <ele>44</ele>
        <time>2016-01-02T14:13:30Z</time>
      </trkpt>
      <trkpt lat="47.33687" lon="-1.89705">
        <ele>44</ele>
        <time>2016-01-02T14:13:31Z</time>
      </trkpt>
      <trkpt lat="47.33681" lon="-1.897">
        <ele>44</ele>
        <time>2016-01-02T14:13:32Z</time>
      </trkpt>
      <trkpt lat="47.3368" lon="-1.89694">
        <ele>44</ele>
        <time>2016-01-02T14:13:33Z</time>
      </trkpt>
      <trkpt lat="47.33677" lon="-1.89687">
        <ele>43</ele>
        <time>2016-01-02T14:13:34Z</time>
      </trkpt>
      <trkpt lat="47.33673" lon="-1.8968">
        <ele>43</ele>
        <time>2016-01-02T14:13:35Z</time>
      </trkpt>
      <trkpt lat="47.33675" lon="-1.8967">
        <ele>43</ele>
        <time>2016-01-02T14:13:36Z</time>
      </trkpt>
      <trkpt lat="47.33673" lon="-1.89665">
        <ele>43</ele>
        <time>2016-01-02T14:13:37Z</time>
      </trkpt>
      <trkpt lat="47.33672" lon="-1.89659">
        <ele>43</ele>
        <time>2016-01-02T14:13:38Z</time>
      </trkpt>
      <trkpt lat="47.3367" lon="-1.89653">
        <ele>44</ele>
        <time>2016-01-02T14:13:39Z</time>
      </trkpt>
      <trkpt lat="47.33669" lon="-1.89647">
        <ele>44</ele>
        <time>2016-01-02T14:13:40Z</time>
      </trkpt>
      <trkpt lat="47.33669" lon="-1.89639">
        <ele>45</ele>
        <time>2016-01-02T14:13:41Z</time>
      </trkpt>
      <trkpt lat="47.33668" lon="-1.89634">
        <ele>45</ele>
        <time>2016-01-02T14:13:42Z</time>
      </trkpt>
      <trkpt lat="47.33667" lon="-1.89627">
        <ele>45</ele>
        <time>2016-01-02T14:13:43Z</time>
      </trkpt>
      <trkpt lat="47.33666" lon="-1.8962">
        <ele>40</ele>
        <time>2016-01-02T14:13:44Z</time>
      </trkpt>
      <trkpt lat="47.33666" lon="-1.89613">
        <ele>40</ele>
        <time>2016-01-02T14:13:45Z</time>
      </trkpt>
      <trkpt lat="47.33662" lon="-1.89611">
        <ele>40</ele>
        <time>2016-01-02T14:13:46Z</time>
      </trkpt>
      <trkpt lat="47.3366" lon="-1.89603">
        <ele>40</ele>
        <time>2016-01-02T14:13:47Z</time>
      </trkpt>
      <trkpt lat="47.33658" lon="-1.89596">
        <ele>41</ele>
        <time>2016-01-02T14:13:48Z</time>
      </trkpt>
      <trkpt lat="47.33655" lon="-1.89589">
        <ele>41</ele>
        <time>2016-01-02T14:13:49Z</time>
      </trkpt>
      <trkpt lat="47.33653" lon="-1.89581">
        <ele>40</ele>
        <time>2016-01-02T14:13:50Z</time>
      </trkpt>
      <trkpt lat="47.33651" lon="-1.89574">
        <ele>40</ele>
        <time>2016-01-02T14:13:51Z</time>
      </trkpt>
      <trkpt lat="47.33649" lon="-1.8957">
        <ele>40</ele>
        <time>2016-01-02T14:13:52Z</time>
      </trkpt>
      <trkpt lat="47.33647" lon="-1.89565">
        <ele>39</ele>
        <time>2016-01-02T14:13:53Z</time>
      </trkpt>
      <trkpt lat="47.33647" lon="-1.89561">
        <ele>39</ele>
        <time>2016-01-02T14:13:54Z</time>
      </trkpt>
      <trkpt lat="47.33645" lon="-1.89552">
        <ele>39</ele>
        <time>2016-01-02T14:13:56Z</time>
      </trkpt>
      <trkpt lat="47.33643" lon="-1.89549">
        <ele>38</ele>
        <time>2016-01-02T14:13:58Z</time>
      </trkpt>
      <trkpt lat="47.33641" lon="-1.89543">
        <ele>38</ele>
        <time>2016-01-02T14:14:00Z</time>
      </trkpt>
      <trkpt lat="47.3364" lon="-1.89538">
        <ele>38</ele>
        <time>2016-01-02T14:14:02Z</time>
      </trkpt>
      <trkpt lat="47.33639" lon="-1.89534">
        <ele>38</ele>
        <time>2016-01-02T14:14:03Z</time>
      </trkpt>
      <trkpt lat="47.33639" lon="-1.89528">
        <ele>38</ele>
        <time>2016-01-02T14:14:05Z</time>
      </trkpt>
      <trkpt lat="47.3364" lon="-1.89523">
        <ele>38</ele>
        <time>2016-01-02T14:14:07Z</time>
      </trkpt>
      <trkpt lat="47.33641" lon="-1.89518">
        <ele>38</ele>
        <time>2016-01-02T14:14:09Z</time>
      </trkpt>
      <trkpt lat="47.33643" lon="-1.89513">
        <ele>38</ele>
        <time>2016-01-02T14:14:12Z</time>
      </trkpt>
      <trkpt lat="47.33645" lon="-1.8951">
        <ele>39</ele>
        <time>2016-01-02T14:14:25Z</time>
      </trkpt>
      <trkpt lat="47.33648" lon="-1.89507">
        <ele>39</ele>
        <time>2016-01-02T14:14:29Z</time>
      </trkpt>
      <trkpt lat="47.33652" lon="-1.89509">
        <ele>39</ele>
        <time>2016-01-02T14:14:31Z</time>
      </trkpt>
      <trkpt lat="47.33658" lon="-1.89505">
        <ele>40</ele>
        <time>2016-01-02T14:14:34Z</time>
      </trkpt>
      <trkpt lat="47.33661" lon="-1.89504">
        <ele>40</ele>
        <time>2016-01-02T14:14:37Z</time>
      </trkpt>
      <trkpt lat="47.33664" lon="-1.89503">
        <ele>40</ele>
        <time>2016-01-02T14:14:41Z</time>
      </trkpt>
      <trkpt lat="47.33666" lon="-1.89498">
        <ele>41</ele>
        <time>2016-01-02T14:14:44Z</time>
      </trkpt>
      <trkpt lat="47.33667" lon="-1.89495">
        <ele>41</ele>
        <time>2016-01-02T14:14:50Z</time>
      </trkpt>
      <trkpt lat="47.33668" lon="-1.89491">
        <ele>42</ele>
        <time>2016-01-02T14:14:54Z</time>
      </trkpt>
      <trkpt lat="47.33671" lon="-1.89487">
        <ele>42</ele>
        <time>2016-01-02T14:14:56Z</time>
      </trkpt>
      <trkpt lat="47.33672" lon="-1.89483">
        <ele>42</ele>
        <time>2016-01-02T14:14:59Z</time>
      </trkpt>
      <trkpt lat="47.33673" lon="-1.89479">
        <ele>42</ele>
        <time>2016-01-02T14:15:03Z</time>
      </trkpt>
      <trkpt lat="47.33675" lon="-1.89474">
        <ele>42</ele>
        <time>2016-01-02T14:15:13Z</time>
      </trkpt>
      <trkpt lat="47.33676" lon="-1.89469">
        <ele>42</ele>
        <time>2016-01-02T14:15:16Z</time>
      </trkpt>
      <trkpt lat="47.33677" lon="-1.89465">
        <ele>42</ele>
        <time>2016-01-02T14:15:24Z</time>
      </trkpt>
      <trkpt lat="47.33682" lon="-1.89459">
        <ele>42</ele>
        <time>2016-01-02T14:15:57Z</time>
      </trkpt>
      <trkpt lat="47.33682" lon="-1.89454">
        <ele>42</ele>
        <time>2016-01-02T14:16:00Z</time>
      </trkpt>
      <trkpt lat="47.33683" lon="-1.89448">
        <ele>42</ele>
        <time>2016-01-02T14:16:11Z</time>
      </trkpt>
      <trkpt lat="47.33684" lon="-1.89444">
        <ele>42</ele>
        <time>2016-01-02T14:16:13Z</time>
      </trkpt>
      <trkpt lat="47.33685" lon="-1.89439">
        <ele>42</ele>
        <time>2016-01-02T14:16:14Z</time>
      </trkpt>
      <trkpt lat="47.33687" lon="-1.89433">
        <ele>42</ele>
        <time>2016-01-02T14:16:16Z</time>
      </trkpt>
      <trkpt lat="47.33689" lon="-1.89427">
        <ele>42</ele>
        <time>2016-01-02T14:16:18Z</time>
      </trkpt>
      <trkpt lat="47.3369" lon="-1.89422">
        <ele>42</ele>
        <time>2016-01-02T14:16:20Z</time>
      </trkpt>
      <trkpt lat="47.33694" lon="-1.89421">
        <ele>42</ele>
        <time>2016-01-02T14:16:22Z</time>
      </trkpt>
      <trkpt lat="47.33699" lon="-1.89421">
        <ele>42</ele>
        <time>2016-01-02T14:16:24Z</time>
      </trkpt>
      <trkpt lat="47.33703" lon="-1.89421">
        <ele>43</ele>
        <time>2016-01-02T14:16:26Z</time>
      </trkpt>
      <trkpt lat="47.33707" lon="-1.89421">
        <ele>43</ele>
        <time>2016-01-02T14:16:28Z</time>
      </trkpt>
      <trkpt lat="47.3371" lon="-1.89422">
        <ele>43</ele>
        <time>2016-01-02T14:16:30Z</time>
      </trkpt>
      <trkpt lat="47.33713" lon="-1.89419">
        <ele>43</ele>
        <time>2016-01-02T14:16:33Z</time>
      </trkpt>
      <trkpt lat="47.33715" lon="-1.89416">
        <ele>45</ele>
        <time>2016-01-02T14:16:36Z</time>
      </trkpt>
      <trkpt lat="47.33718" lon="-1.89414">
        <ele>45</ele>
        <time>2016-01-02T14:16:44Z</time>
      </trkpt>
      <trkpt lat="47.33719" lon="-1.8941">
        <ele>45</ele>
        <time>2016-01-02T14:16:48Z</time>
      </trkpt>
      <trkpt lat="47.3372" lon="-1.89405">
        <ele>45</ele>
        <time>2016-01-02T14:16:52Z</time>
      </trkpt>
      <trkpt lat="47.33719" lon="-1.89401">
        <ele>45</ele>
        <time>2016-01-02T14:16:56Z</time>
      </trkpt>
      <trkpt lat="47.3372" lon="-1.89397">
        <ele>45</ele>
        <time>2016-01-02T14:16:59Z</time>
      </trkpt>
      <trkpt lat="47.33721" lon="-1.89393">
        <ele>45</ele>
        <time>2016-01-02T14:17:03Z</time>
      </trkpt>
      <trkpt lat="47.33721" lon="-1.89388">
        <ele>45</ele>
        <time>2016-01-02T14:17:09Z</time>
      </trkpt>
      <trkpt lat="47.33723" lon="-1.89384">
        <ele>46</ele>
        <time>2016-01-02T14:17:13Z</time>
      </trkpt>
      <trkpt lat="47.33724" lon="-1.8938">
        <ele>46</ele>
        <time>2016-01-02T14:17:16Z</time>
      </trkpt>
      <trkpt lat="47.33725" lon="-1.89375">
        <ele>46</ele>
        <time>2016-01-02T14:17:19Z</time>
      </trkpt>
      <trkpt lat="47.33726" lon="-1.89371">
        <ele>46</ele>
        <time>2016-01-02T14:17:24Z</time>
      </trkpt>
      <trkpt lat="47.33728" lon="-1.89367">
        <ele>46</ele>
        <time>2016-01-02T14:17:29Z</time>
      </trkpt>
      <trkpt lat="47.33729" lon="-1.89362">
        <ele>47</ele>
        <time>2016-01-02T14:17:32Z</time>
      </trkpt>
      <trkpt lat="47.33729" lon="-1.89357">
        <ele>47</ele>
        <time>2016-01-02T14:17:35Z</time>
      </trkpt>
      <trkpt lat="47.3373" lon="-1.89352">
        <ele>47</ele>
        <time>2016-01-02T14:17:38Z</time>
      </trkpt>
      <trkpt lat="47.33731" lon="-1.89347">
        <ele>47</ele>
        <time>2016-01-02T14:17:41Z</time>
      </trkpt>
      <trkpt lat="47.33731" lon="-1.89343">
        <ele>48</ele>
        <time>2016-01-02T14:17:44Z</time>
      </trkpt>
      <trkpt lat="47.33733" lon="-1.8934">
        <ele>48</ele>
        <time>2016-01-02T14:17:48Z</time>
      </trkpt>
      <trkpt lat="47.33734" lon="-1.89336">
        <ele>48</ele>
        <time>2016-01-02T14:17:51Z</time>
      </trkpt>
      <trkpt lat="47.33736" lon="-1.89332">
        <ele>50</ele>
        <time>2016-01-02T14:17:54Z</time>
      </trkpt>
      <trkpt lat="47.33739" lon="-1.8933">
        <ele>50</ele>
        <time>2016-01-02T14:17:59Z</time>
      </trkpt>
      <trkpt lat="47.33742" lon="-1.89329">
        <ele>50</ele>
        <time>2016-01-02T14:18:14Z</time>
      </trkpt>
      <trkpt lat="47.33745" lon="-1.89329">
        <ele>50</ele>
        <time>2016-01-02T14:18:17Z</time>
      </trkpt>
      <trkpt lat="47.33748" lon="-1.89328">
        <ele>50</ele>
        <time>2016-01-02T14:18:20Z</time>
      </trkpt>
      <trkpt lat="47.33752" lon="-1.89329">
        <ele>51</ele>
        <time>2016-01-02T14:18:23Z</time>
      </trkpt>
      <trkpt lat="47.33755" lon="-1.89329">
        <ele>51</ele>
        <time>2016-01-02T14:18:26Z</time>
      </trkpt>
      <trkpt lat="47.33755" lon="-1.89324">
        <ele>51</ele>
        <time>2016-01-02T14:18:32Z</time>
      </trkpt>
      <trkpt lat="47.3376" lon="-1.89321">
        <ele>52</ele>
        <time>2016-01-02T14:18:36Z</time>
      </trkpt>
      <trkpt lat="47.33763" lon="-1.89321">
        <ele>52</ele>
        <time>2016-01-02T14:18:38Z</time>
      </trkpt>
      <trkpt lat="47.33767" lon="-1.8932">
        <ele>52</ele>
        <time>2016-01-02T14:18:39Z</time>
      </trkpt>
      <trkpt lat="47.3377" lon="-1.89319">
        <ele>53</ele>
        <time>2016-01-02T14:18:41Z</time>
      </trkpt>
      <trkpt lat="47.33773" lon="-1.89318">
        <ele>53</ele>
        <time>2016-01-02T14:18:42Z</time>
      </trkpt>
      <trkpt lat="47.33778" lon="-1.89317">
        <ele>53</ele>
        <time>2016-01-02T14:18:44Z</time>
      </trkpt>
      <trkpt lat="47.33781" lon="-1.89316">
        <ele>53</ele>
        <time>2016-01-02T14:18:46Z</time>
      </trkpt>
      <trkpt lat="47.33785" lon="-1.89313">
        <ele>53</ele>
        <time>2016-01-02T14:18:48Z</time>
      </trkpt>
      <trkpt lat="47.33787" lon="-1.89311">
        <ele>54</ele>
        <time>2016-01-02T14:18:50Z</time>
      </trkpt>
      <trkpt lat="47.33789" lon="-1.89308">
        <ele>54</ele>
        <time>2016-01-02T14:18:52Z</time>
      </trkpt>
      <trkpt lat="47.3379" lon="-1.89303">
        <ele>54</ele>
        <time>2016-01-02T14:18:56Z</time>
      </trkpt>
      <trkpt lat="47.33791" lon="-1.89307">
        <ele>54</ele>
        <time>2016-01-02T14:18:59Z</time>
      </trkpt>
      <trkpt lat="47.33794" lon="-1.89313">
        <ele>54</ele>
        <time>2016-01-02T14:19:07Z</time>
      </trkpt>
      <trkpt lat="47.33796" lon="-1.89316">
        <ele>54</ele>
        <time>2016-01-02T14:19:10Z</time>
      </trkpt>
      <trkpt lat="47.33799" lon="-1.89318">
        <ele>54</ele>
        <time>2016-01-02T14:19:12Z</time>
      </trkpt>
      <trkpt lat="47.33802" lon="-1.8932">
        <ele>54</ele>
        <time>2016-01-02T14:19:14Z</time>
      </trkpt>
      <trkpt lat="47.33806" lon="-1.89323">
        <ele>54</ele>
        <time>2016-01-02T14:19:16Z</time>
      </trkpt>
      <trkpt lat="47.33809" lon="-1.89325">
        <ele>54</ele>
        <time>2016-01-02T14:19:18Z</time>
      </trkpt>
      <trkpt lat="47.33811" lon="-1.89328">
        <ele>55</ele>
        <time>2016-01-02T14:19:20Z</time>
      </trkpt>
      <trkpt lat="47.33814" lon="-1.8933">
        <ele>55</ele>
        <time>2016-01-02T14:19:22Z</time>
      </trkpt>
      <trkpt lat="47.33817" lon="-1.8933">
        <ele>55</ele>
        <time>2016-01-02T14:19:24Z</time>
      </trkpt>
      <trkpt lat="47.3382" lon="-1.89328">
        <ele>55</ele>
        <time>2016-01-02T14:19:26Z</time>
      </trkpt>
      <trkpt lat="47.33821" lon="-1.89323">
        <ele>55</ele>
        <time>2016-01-02T14:19:28Z</time>
      </trkpt>
      <trkpt lat="47.33823" lon="-1.89321">
        <ele>55</ele>
        <time>2016-01-02T14:19:30Z</time>
      </trkpt>
      <trkpt lat="47.33826" lon="-1.89317">
        <ele>55</ele>
        <time>2016-01-02T14:19:32Z</time>
      </trkpt>
      <trkpt lat="47.33827" lon="-1.89312">
        <ele>55</ele>
        <time>2016-01-02T14:19:33Z</time>
      </trkpt>
      <trkpt lat="47.33827" lon="-1.89308">
        <ele>55</ele>
        <time>2016-01-02T14:19:34Z</time>
      </trkpt>
      <trkpt lat="47.33828" lon="-1.89303">
        <ele>55</ele>
        <time>2016-01-02T14:19:35Z</time>
      </trkpt>
      <trkpt lat="47.33829" lon="-1.89297">
        <ele>55</ele>
        <time>2016-01-02T14:19:37Z</time>
      </trkpt>
      <trkpt lat="47.33832" lon="-1.89292">
        <ele>55</ele>
        <time>2016-01-02T14:19:39Z</time>
      </trkpt>
      <trkpt lat="47.33834" lon="-1.89288">
        <ele>56</ele>
        <time>2016-01-02T14:19:41Z</time>
      </trkpt>
      <trkpt lat="47.33837" lon="-1.89283">
        <ele>56</ele>
        <time>2016-01-02T14:19:43Z</time>
      </trkpt>
      <trkpt lat="47.33839" lon="-1.89279">
        <ele>56</ele>
        <time>2016-01-02T14:19:45Z</time>
      </trkpt>
      <trkpt lat="47.33842" lon="-1.89275">
        <ele>56</ele>
        <time>2016-01-02T14:19:47Z</time>
      </trkpt>
      <trkpt lat="47.33845" lon="-1.89272">
        <ele>56</ele>
        <time>2016-01-02T14:19:49Z</time>
      </trkpt>
      <trkpt lat="47.33848" lon="-1.89271">
        <ele>56</ele>
        <time>2016-01-02T14:19:51Z</time>
      </trkpt>
      <trkpt lat="47.33852" lon="-1.89272">
        <ele>56</ele>
        <time>2016-01-02T14:19:53Z</time>
      </trkpt>
      <trkpt lat="47.33855" lon="-1.89273">
        <ele>56</ele>
        <time>2016-01-02T14:19:55Z</time>
      </trkpt>
      <trkpt lat="47.33858" lon="-1.89276">
        <ele>56</ele>
        <time>2016-01-02T14:19:57Z</time>
      </trkpt>
      <trkpt lat="47.33861" lon="-1.89277">
        <ele>56</ele>
        <time>2016-01-02T14:19:59Z</time>
      </trkpt>
      <trkpt lat="47.3386" lon="-1.89282">
        <ele>56</ele>
        <time>2016-01-02T14:20:02Z</time>
      </trkpt>
      <trkpt lat="47.33857" lon="-1.89286">
        <ele>56</ele>
        <time>2016-01-02T14:20:04Z</time>
      </trkpt>
      <trkpt lat="47.33854" lon="-1.89289">
        <ele>56</ele>
        <time>2016-01-02T14:20:05Z</time>
      </trkpt>
      <trkpt lat="47.3385" lon="-1.89291">
        <ele>56</ele>
        <time>2016-01-02T14:20:07Z</time>
      </trkpt>
      <trkpt lat="47.33846" lon="-1.89298">
        <ele>56</ele>
        <time>2016-01-02T14:20:08Z</time>
      </trkpt>
      <trkpt lat="47.33844" lon="-1.89304">
        <ele>56</ele>
        <time>2016-01-02T14:20:10Z</time>
      </trkpt>
      <trkpt lat="47.33844" lon="-1.89309">
        <ele>56</ele>
        <time>2016-01-02T14:20:12Z</time>
      </trkpt>
      <trkpt lat="47.33843" lon="-1.89313">
        <ele>56</ele>
        <time>2016-01-02T14:20:15Z</time>
      </trkpt>
      <trkpt lat="47.33843" lon="-1.89318">
        <ele>56</ele>
        <time>2016-01-02T14:20:18Z</time>
      </trkpt>
      <trkpt lat="47.33847" lon="-1.89316">
        <ele>56</ele>
        <time>2016-01-02T14:20:22Z</time>
      </trkpt>
      <trkpt lat="47.3385" lon="-1.89313">
        <ele>56</ele>
        <time>2016-01-02T14:20:24Z</time>
      </trkpt>
      <trkpt lat="47.33852" lon="-1.89309">
        <ele>56</ele>
        <time>2016-01-02T14:20:26Z</time>
      </trkpt>
      <trkpt lat="47.33856" lon="-1.89307">
        <ele>56</ele>
        <time>2016-01-02T14:20:28Z</time>
      </trkpt>
      <trkpt lat="47.33859" lon="-1.89307">
        <ele>56</ele>
        <time>2016-01-02T14:20:30Z</time>
      </trkpt>
      <trkpt lat="47.33863" lon="-1.89308">
        <ele>56</ele>
        <time>2016-01-02T14:20:32Z</time>
      </trkpt>
      <trkpt lat="47.33867" lon="-1.89305">
        <ele>56</ele>
        <time>2016-01-02T14:20:34Z</time>
      </trkpt>
      <trkpt lat="47.3387" lon="-1.89303">
        <ele>56</ele>
        <time>2016-01-02T14:20:36Z</time>
      </trkpt>
      <trkpt lat="47.33873" lon="-1.89301">
        <ele>56</ele>
        <time>2016-01-02T14:20:38Z</time>
      </trkpt>
      <trkpt lat="47.33876" lon="-1.89301">
        <ele>56</ele>
        <time>2016-01-02T14:20:39Z</time>
      </trkpt>
      <trkpt lat="47.3388" lon="-1.89297">
        <ele>56</ele>
        <time>2016-01-02T14:20:41Z</time>
      </trkpt>
      <trkpt lat="47.33882" lon="-1.89293">
        <ele>56</ele>
        <time>2016-01-02T14:20:43Z</time>
      </trkpt>
      <trkpt lat="47.3388" lon="-1.89291">
        <ele>56</ele>
        <time>2016-01-02T14:20:47Z</time>
      </trkpt>
      <trkpt lat="47.3388" lon="-1.89286">
        <ele>56</ele>
        <time>2016-01-02T14:20:49Z</time>
      </trkpt>
      <trkpt lat="47.3388" lon="-1.89281">
        <ele>56</ele>
        <time>2016-01-02T14:20:51Z</time>
      </trkpt>
      <trkpt lat="47.33881" lon="-1.89275">
        <ele>56</ele>
        <time>2016-01-02T14:20:53Z</time>
      </trkpt>
      <trkpt lat="47.3388" lon="-1.89272">
        <ele>56</ele>
        <time>2016-01-02T14:20:55Z</time>
      </trkpt>
      <trkpt lat="47.33878" lon="-1.8927">
        <ele>56</ele>
        <time>2016-01-02T14:20:57Z</time>
      </trkpt>
      <trkpt lat="47.33877" lon="-1.89266">
        <ele>56</ele>
        <time>2016-01-02T14:20:59Z</time>
      </trkpt>
      <trkpt lat="47.33875" lon="-1.8926">
        <ele>56</ele>
        <time>2016-01-02T14:21:01Z</time>
      </trkpt>
      <trkpt lat="47.33873" lon="-1.89256">
        <ele>56</ele>
        <time>2016-01-02T14:21:03Z</time>
      </trkpt>
      <trkpt lat="47.3387" lon="-1.89252">
        <ele>56</ele>
        <time>2016-01-02T14:21:05Z</time>
      </trkpt>
      <trkpt lat="47.33866" lon="-1.89255">
        <ele>56</ele>
        <time>2016-01-02T14:21:08Z</time>
      </trkpt>
      <trkpt lat="47.33862" lon="-1.89249">
        <ele>58</ele>
        <time>2016-01-02T14:21:10Z</time>
      </trkpt>
      <trkpt lat="47.33862" lon="-1.89243">
        <ele>58</ele>
        <time>2016-01-02T14:21:11Z</time>
      </trkpt>
      <trkpt lat="47.33863" lon="-1.89237">
        <ele>59</ele>
        <time>2016-01-02T14:21:13Z</time>
      </trkpt>
      <trkpt lat="47.33866" lon="-1.89231">
        <ele>59</ele>
        <time>2016-01-02T14:21:15Z</time>
      </trkpt>
      <trkpt lat="47.33868" lon="-1.89226">
        <ele>59</ele>
        <time>2016-01-02T14:21:17Z</time>
      </trkpt>
      <trkpt lat="47.33868" lon="-1.89221">
        <ele>59</ele>
        <time>2016-01-02T14:21:19Z</time>
      </trkpt>
      <trkpt lat="47.33865" lon="-1.89218">
        <ele>59</ele>
        <time>2016-01-02T14:21:21Z</time>
      </trkpt>
      <trkpt lat="47.33861" lon="-1.89218">
        <ele>59</ele>
        <time>2016-01-02T14:21:23Z</time>
      </trkpt>
      <trkpt lat="47.33857" lon="-1.89217">
        <ele>59</ele>
        <time>2016-01-02T14:21:25Z</time>
      </trkpt>
      <trkpt lat="47.33859" lon="-1.89212">
        <ele>59</ele>
        <time>2016-01-02T14:21:27Z</time>
      </trkpt>
      <trkpt lat="47.33862" lon="-1.89209">
        <ele>59</ele>
        <time>2016-01-02T14:21:29Z</time>
      </trkpt>
      <trkpt lat="47.33865" lon="-1.8921">
        <ele>59</ele>
        <time>2016-01-02T14:21:31Z</time>
      </trkpt>
      <trkpt lat="47.33869" lon="-1.89209">
        <ele>59</ele>
        <time>2016-01-02T14:21:33Z</time>
      </trkpt>
      <trkpt lat="47.33872" lon="-1.89208">
        <ele>59</ele>
        <time>2016-01-02T14:21:35Z</time>
      </trkpt>
      <trkpt lat="47.33876" lon="-1.89204">
        <ele>59</ele>
        <time>2016-01-02T14:21:37Z</time>
      </trkpt>
      <trkpt lat="47.33878" lon="-1.892">
        <ele>59</ele>
        <time>2016-01-02T14:21:39Z</time>
      </trkpt>
      <trkpt lat="47.33879" lon="-1.89194">
        <ele>60</ele>
        <time>2016-01-02T14:21:41Z</time>
      </trkpt>
      <trkpt lat="47.3388" lon="-1.89188">
        <ele>60</ele>
        <time>2016-01-02T14:21:43Z</time>
      </trkpt>
      <trkpt lat="47.33881" lon="-1.89183">
        <ele>60</ele>
        <time>2016-01-02T14:21:44Z</time>
      </trkpt>
      <trkpt lat="47.33884" lon="-1.89177">
        <ele>60</ele>
        <time>2016-01-02T14:21:46Z</time>
      </trkpt>
      <trkpt lat="47.33887" lon="-1.89171">
        <ele>60</ele>
        <time>2016-01-02T14:21:48Z</time>
      </trkpt>
      <trkpt lat="47.33889" lon="-1.89168">
        <ele>60</ele>
        <time>2016-01-02T14:21:49Z</time>
      </trkpt>
      <trkpt lat="47.33891" lon="-1.89163">
        <ele>60</ele>
        <time>2016-01-02T14:21:51Z</time>
      </trkpt>
      <trkpt lat="47.33894" lon="-1.89157">
        <ele>60</ele>
        <time>2016-01-02T14:21:52Z</time>
      </trkpt>
      <trkpt lat="47.33896" lon="-1.89151">
        <ele>60</ele>
        <time>2016-01-02T14:21:53Z</time>
      </trkpt>
      <trkpt lat="47.33897" lon="-1.89146">
        <ele>60</ele>
        <time>2016-01-02T14:21:54Z</time>
      </trkpt>
      <trkpt lat="47.33898" lon="-1.89142">
        <ele>60</ele>
        <time>2016-01-02T14:21:55Z</time>
      </trkpt>
      <trkpt lat="47.33901" lon="-1.89139">
        <ele>60</ele>
        <time>2016-01-02T14:21:57Z</time>
      </trkpt>
      <trkpt lat="47.33901" lon="-1.89144">
        <ele>60</ele>
        <time>2016-01-02T14:21:59Z</time>
      </trkpt>
      <trkpt lat="47.339" lon="-1.89149">
        <ele>60</ele>
        <time>2016-01-02T14:22:01Z</time>
      </trkpt>
      <trkpt lat="47.33899" lon="-1.89155">
        <ele>60</ele>
        <time>2016-01-02T14:22:03Z</time>
      </trkpt>
      <trkpt lat="47.33897" lon="-1.8916">
        <ele>60</ele>
        <time>2016-01-02T14:22:05Z</time>
      </trkpt>
      <trkpt lat="47.33898" lon="-1.89166">
        <ele>61</ele>
        <time>2016-01-02T14:22:07Z</time>
      </trkpt>
      <trkpt lat="47.33896" lon="-1.89172">
        <ele>60</ele>
        <time>2016-01-02T14:22:09Z</time>
      </trkpt>
      <trkpt lat="47.33895" lon="-1.89176">
        <ele>60</ele>
        <time>2016-01-02T14:22:10Z</time>
      </trkpt>
      <trkpt lat="47.33894" lon="-1.89182">
        <ele>60</ele>
        <time>2016-01-02T14:22:11Z</time>
      </trkpt>
      <trkpt lat="47.33893" lon="-1.89189">
        <ele>60</ele>
        <time>2016-01-02T14:22:13Z</time>
      </trkpt>
      <trkpt lat="47.33892" lon="-1.89197">
        <ele>60</ele>
        <time>2016-01-02T14:22:15Z</time>
      </trkpt>
      <trkpt lat="47.33892" lon="-1.89204">
        <ele>59</ele>
        <time>2016-01-02T14:22:17Z</time>
      </trkpt>
      <trkpt lat="47.33891" lon="-1.8921">
        <ele>59</ele>
        <time>2016-01-02T14:22:19Z</time>
      </trkpt>
      <trkpt lat="47.33887" lon="-1.89213">
        <ele>59</ele>
        <time>2016-01-02T14:22:21Z</time>
      </trkpt>
      <trkpt lat="47.33884" lon="-1.89218">
        <ele>59</ele>
        <time>2016-01-02T14:22:23Z</time>
      </trkpt>
      <trkpt lat="47.33882" lon="-1.89223">
        <ele>59</ele>
        <time>2016-01-02T14:22:25Z</time>
      </trkpt>
      <trkpt lat="47.33883" lon="-1.89227">
        <ele>59</ele>
        <time>2016-01-02T14:22:26Z</time>
      </trkpt>
      <trkpt lat="47.33885" lon="-1.89234">
        <ele>59</ele>
        <time>2016-01-02T14:22:28Z</time>
      </trkpt>
      <trkpt lat="47.33888" lon="-1.89233">
        <ele>59</ele>
        <time>2016-01-02T14:22:30Z</time>
      </trkpt>
      <trkpt lat="47.33892" lon="-1.89229">
        <ele>59</ele>
        <time>2016-01-02T14:22:32Z</time>
      </trkpt>
      <trkpt lat="47.33895" lon="-1.89225">
        <ele>59</ele>
        <time>2016-01-02T14:22:34Z</time>
      </trkpt>
      <trkpt lat="47.33896" lon="-1.89221">
        <ele>59</ele>
        <time>2016-01-02T14:22:35Z</time>
      </trkpt>
      <trkpt lat="47.33897" lon="-1.89217">
        <ele>59</ele>
        <time>2016-01-02T14:22:36Z</time>
      </trkpt>
      <trkpt lat="47.33899" lon="-1.89211">
        <ele>59</ele>
        <time>2016-01-02T14:22:38Z</time>
      </trkpt>
      <trkpt lat="47.33901" lon="-1.89203">
        <ele>59</ele>
        <time>2016-01-02T14:22:40Z</time>
      </trkpt>
      <trkpt lat="47.33902" lon="-1.89199">
        <ele>60</ele>
        <time>2016-01-02T14:22:41Z</time>
      </trkpt>
      <trkpt lat="47.33904" lon="-1.89193">
        <ele>60</ele>
        <time>2016-01-02T14:22:43Z</time>
      </trkpt>
      <trkpt lat="47.33906" lon="-1.89188">
        <ele>60</ele>
        <time>2016-01-02T14:22:44Z</time>
      </trkpt>
      <trkpt lat="47.33909" lon="-1.89182">
        <ele>60</ele>
        <time>2016-01-02T14:22:45Z</time>
      </trkpt>
      <trkpt lat="47.33911" lon="-1.89176">
        <ele>60</ele>
        <time>2016-01-02T14:22:46Z</time>
      </trkpt>
      <trkpt lat="47.33912" lon="-1.8917">
        <ele>61</ele>
        <time>2016-01-02T14:22:47Z</time>
      </trkpt>
      <trkpt lat="47.33914" lon="-1.89165">
        <ele>61</ele>
        <time>2016-01-02T14:22:48Z</time>
      </trkpt>
      <trkpt lat="47.33915" lon="-1.89159">
        <ele>61</ele>
        <time>2016-01-02T14:22:49Z</time>
      </trkpt>
      <trkpt lat="47.33916" lon="-1.89153">
        <ele>61</ele>
        <time>2016-01-02T14:22:50Z</time>
      </trkpt>
      <trkpt lat="47.33919" lon="-1.8915">
        <ele>60</ele>
        <time>2016-01-02T14:22:51Z</time>
      </trkpt>
      <trkpt lat="47.3392" lon="-1.89146">
        <ele>60</ele>
        <time>2016-01-02T14:22:52Z</time>
      </trkpt>
      <trkpt lat="47.33922" lon="-1.8915">
        <ele>60</ele>
        <time>2016-01-02T14:22:53Z</time>
      </trkpt>
      <trkpt lat="47.33923" lon="-1.89156">
        <ele>60</ele>
        <time>2016-01-02T14:22:55Z</time>
      </trkpt>
      <trkpt lat="47.33922" lon="-1.89161">
        <ele>60</ele>
        <time>2016-01-02T14:22:56Z</time>
      </trkpt>
      <trkpt lat="47.33922" lon="-1.89167">
        <ele>61</ele>
        <time>2016-01-02T14:22:58Z</time>
      </trkpt>
      <trkpt lat="47.33923" lon="-1.89171">
        <ele>61</ele>
        <time>2016-01-02T14:22:59Z</time>
      </trkpt>
      <trkpt lat="47.33925" lon="-1.89177">
        <ele>60</ele>
        <time>2016-01-02T14:23:01Z</time>
      </trkpt>
      <trkpt lat="47.33926" lon="-1.89184">
        <ele>60</ele>
        <time>2016-01-02T14:23:03Z</time>
      </trkpt>
      <trkpt lat="47.33924" lon="-1.89191">
        <ele>60</ele>
        <time>2016-01-02T14:23:05Z</time>
      </trkpt>
      <trkpt lat="47.33922" lon="-1.89197">
        <ele>60</ele>
        <time>2016-01-02T14:23:07Z</time>
      </trkpt>
      <trkpt lat="47.3392" lon="-1.89202">
        <ele>60</ele>
        <time>2016-01-02T14:23:09Z</time>
      </trkpt>
      <trkpt lat="47.33919" lon="-1.89208">
        <ele>60</ele>
        <time>2016-01-02T14:23:11Z</time>
      </trkpt>
      <trkpt lat="47.33917" lon="-1.89212">
        <ele>60</ele>
        <time>2016-01-02T14:23:13Z</time>
      </trkpt>
      <trkpt lat="47.33916" lon="-1.89218">
        <ele>59</ele>
        <time>2016-01-02T14:23:15Z</time>
      </trkpt>
      <trkpt lat="47.33919" lon="-1.89222">
        <ele>59</ele>
        <time>2016-01-02T14:23:17Z</time>
      </trkpt>
      <trkpt lat="47.33918" lon="-1.89228">
        <ele>59</ele>
        <time>2016-01-02T14:23:19Z</time>
      </trkpt>
      <trkpt lat="47.33917" lon="-1.89233">
        <ele>59</ele>
        <time>2016-01-02T14:23:20Z</time>
      </trkpt>
      <trkpt lat="47.33917" lon="-1.8924">
        <ele>59</ele>
        <time>2016-01-02T14:23:21Z</time>
      </trkpt>
      <trkpt lat="47.33917" lon="-1.89247">
        <ele>58</ele>
        <time>2016-01-02T14:23:22Z</time>
      </trkpt>
      <trkpt lat="47.33917" lon="-1.89253">
        <ele>58</ele>
        <time>2016-01-02T14:23:23Z</time>
      </trkpt>
      <trkpt lat="47.33915" lon="-1.89259">
        <ele>57</ele>
        <time>2016-01-02T14:23:24Z</time>
      </trkpt>
      <trkpt lat="47.33914" lon="-1.89264">
        <ele>57</ele>
        <time>2016-01-02T14:23:25Z</time>
      </trkpt>
      <trkpt lat="47.33914" lon="-1.8927">
        <ele>57</ele>
        <time>2016-01-02T14:23:26Z</time>
      </trkpt>
      <trkpt lat="47.33909" lon="-1.89272">
        <ele>56</ele>
        <time>2016-01-02T14:23:27Z</time>
      </trkpt>
      <trkpt lat="47.33906" lon="-1.89276">
        <ele>56</ele>
        <time>2016-01-02T14:23:29Z</time>
      </trkpt>
      <trkpt lat="47.33906" lon="-1.89281">
        <ele>56</ele>
        <time>2016-01-02T14:23:31Z</time>
      </trkpt>
      <trkpt lat="47.33904" lon="-1.89287">
        <ele>56</ele>
        <time>2016-01-02T14:23:33Z</time>
      </trkpt>
      <trkpt lat="47.33901" lon="-1.89295">
        <ele>55</ele>
        <time>2016-01-02T14:23:35Z</time>
      </trkpt>
      <trkpt lat="47.339" lon="-1.893">
        <ele>55</ele>
        <time>2016-01-02T14:23:36Z</time>
      </trkpt>
      <trkpt lat="47.33899" lon="-1.89305">
        <ele>55</ele>
        <time>2016-01-02T14:23:37Z</time>
      </trkpt>
      <trkpt lat="47.33899" lon="-1.89309">
        <ele>55</ele>
        <time>2016-01-02T14:23:38Z</time>
      </trkpt>
      <trkpt lat="47.33898" lon="-1.89313">
        <ele>55</ele>
        <time>2016-01-02T14:23:39Z</time>
      </trkpt>
      <trkpt lat="47.33898" lon="-1.89317">
        <ele>54</ele>
        <time>2016-01-02T14:23:40Z</time>
      </trkpt>
      <trkpt lat="47.33899" lon="-1.89323">
        <ele>54</ele>
        <time>2016-01-02T14:23:42Z</time>
      </trkpt>
      <trkpt lat="47.33898" lon="-1.8933">
        <ele>54</ele>
        <time>2016-01-02T14:23:44Z</time>
      </trkpt>
      <trkpt lat="47.33895" lon="-1.89334">
        <ele>52</ele>
        <time>2016-01-02T14:23:46Z</time>
      </trkpt>
      <trkpt lat="47.33892" lon="-1.89337">
        <ele>52</ele>
        <time>2016-01-02T14:23:48Z</time>
      </trkpt>
      <trkpt lat="47.33891" lon="-1.89341">
        <ele>52</ele>
        <time>2016-01-02T14:23:49Z</time>
      </trkpt>
      <trkpt lat="47.33888" lon="-1.89345">
        <ele>52</ele>
        <time>2016-01-02T14:23:51Z</time>
      </trkpt>
      <trkpt lat="47.33885" lon="-1.89346">
        <ele>53</ele>
        <time>2016-01-02T14:23:53Z</time>
      </trkpt>
      <trkpt lat="47.33882" lon="-1.89345">
        <ele>53</ele>
        <time>2016-01-02T14:23:55Z</time>
      </trkpt>
      <trkpt lat="47.33877" lon="-1.89345">
        <ele>53</ele>
        <time>2016-01-02T14:23:57Z</time>
      </trkpt>
      <trkpt lat="47.33873" lon="-1.89343">
        <ele>53</ele>
        <time>2016-01-02T14:23:59Z</time>
      </trkpt>
      <trkpt lat="47.33868" lon="-1.89344">
        <ele>53</ele>
        <time>2016-01-02T14:24:01Z</time>
      </trkpt>
      <trkpt lat="47.33866" lon="-1.89348">
        <ele>53</ele>
        <time>2016-01-02T14:24:03Z</time>
      </trkpt>
      <trkpt lat="47.33864" lon="-1.89352">
        <ele>53</ele>
        <time>2016-01-02T14:24:05Z</time>
      </trkpt>
      <trkpt lat="47.33862" lon="-1.89358">
        <ele>53</ele>
        <time>2016-01-02T14:24:07Z</time>
      </trkpt>
      <trkpt lat="47.3386" lon="-1.89362">
        <ele>53</ele>
        <time>2016-01-02T14:24:09Z</time>
      </trkpt>
      <trkpt lat="47.33855" lon="-1.89364">
        <ele>53</ele>
        <time>2016-01-02T14:24:11Z</time>
      </trkpt>
      <trkpt lat="47.33852" lon="-1.89365">
        <ele>53</ele>
        <time>2016-01-02T14:24:13Z</time>
      </trkpt>
      <trkpt lat="47.33849" lon="-1.89368">
        <ele>53</ele>
        <time>2016-01-02T14:24:14Z</time>
      </trkpt>
      <trkpt lat="47.33845" lon="-1.89375">
        <ele>52</ele>
        <time>2016-01-02T14:24:16Z</time>
      </trkpt>
      <trkpt lat="47.33846" lon="-1.89381">
        <ele>52</ele>
        <time>2016-01-02T14:24:18Z</time>
      </trkpt>
      <trkpt lat="47.33848" lon="-1.89384">
        <ele>52</ele>
        <time>2016-01-02T14:24:20Z</time>
      </trkpt>
      <trkpt lat="47.33851" lon="-1.89387">
        <ele>52</ele>
        <time>2016-01-02T14:24:22Z</time>
      </trkpt>
      <trkpt lat="47.3385" lon="-1.89383">
        <ele>52</ele>
        <time>2016-01-02T14:24:23Z</time>
      </trkpt>
      <trkpt lat="47.33848" lon="-1.89379">
        <ele>52</ele>
        <time>2016-01-02T14:24:26Z</time>
      </trkpt>
      <trkpt lat="47.33851" lon="-1.89375">
        <ele>52</ele>
        <time>2016-01-02T14:24:29Z</time>
      </trkpt>
      <trkpt lat="47.33855" lon="-1.89376">
        <ele>52</ele>
        <time>2016-01-02T14:24:32Z</time>
      </trkpt>
      <trkpt lat="47.33856" lon="-1.8938">
        <ele>52</ele>
        <time>2016-01-02T14:24:34Z</time>
      </trkpt>
      <trkpt lat="47.33856" lon="-1.89385">
        <ele>52</ele>
        <time>2016-01-02T14:24:36Z</time>
      </trkpt>
      <trkpt lat="47.33856" lon="-1.8939">
        <ele>52</ele>
        <time>2016-01-02T14:24:38Z</time>
      </trkpt>
      <trkpt lat="47.33856" lon="-1.89395">
        <ele>52</ele>
        <time>2016-01-02T14:24:40Z</time>
      </trkpt>
      <trkpt lat="47.33855" lon="-1.894">
        <ele>52</ele>
        <time>2016-01-02T14:24:42Z</time>
      </trkpt>
      <trkpt lat="47.33853" lon="-1.89404">
        <ele>51</ele>
        <time>2016-01-02T14:24:43Z</time>
      </trkpt>
      <trkpt lat="47.3385" lon="-1.89409">
        <ele>51</ele>
        <time>2016-01-02T14:24:45Z</time>
      </trkpt>
      <trkpt lat="47.33845" lon="-1.89412">
        <ele>51</ele>
        <time>2016-01-02T14:24:47Z</time>
      </trkpt>
      <trkpt lat="47.3384" lon="-1.89411">
        <ele>51</ele>
        <time>2016-01-02T14:24:49Z</time>
      </trkpt>
      <trkpt lat="47.33836" lon="-1.89411">
        <ele>51</ele>
        <time>2016-01-02T14:24:51Z</time>
      </trkpt>
      <trkpt lat="47.33831" lon="-1.8941">
        <ele>50</ele>
        <time>2016-01-02T14:24:53Z</time>
      </trkpt>
      <trkpt lat="47.33826" lon="-1.89409">
        <ele>50</ele>
        <time>2016-01-02T14:24:55Z</time>
      </trkpt>
      <trkpt lat="47.33822" lon="-1.89408">
        <ele>50</ele>
        <time>2016-01-02T14:24:57Z</time>
      </trkpt>
      <trkpt lat="47.33821" lon="-1.89404">
        <ele>50</ele>
        <time>2016-01-02T14:24:58Z</time>
      </trkpt>
      <trkpt lat="47.33818" lon="-1.894">
        <ele>50</ele>
        <time>2016-01-02T14:25:00Z</time>
      </trkpt>
      <trkpt lat="47.33817" lon="-1.89396">
        <ele>50</ele>
        <time>2016-01-02T14:25:01Z</time>
      </trkpt>
      <trkpt lat="47.33814" lon="-1.89392">
        <ele>51</ele>
        <time>2016-01-02T14:25:03Z</time>
      </trkpt>
      <trkpt lat="47.3381" lon="-1.89388">
        <ele>51</ele>
        <time>2016-01-02T14:25:05Z</time>
      </trkpt>
      <trkpt lat="47.33806" lon="-1.89383">
        <ele>51</ele>
        <time>2016-01-02T14:25:07Z</time>
      </trkpt>
      <trkpt lat="47.33803" lon="-1.89379">
        <ele>51</ele>
        <time>2016-01-02T14:25:09Z</time>
      </trkpt>
      <trkpt lat="47.33798" lon="-1.89377">
        <ele>51</ele>
        <time>2016-01-02T14:25:11Z</time>
      </trkpt>
      <trkpt lat="47.33794" lon="-1.89376">
        <ele>51</ele>
        <time>2016-01-02T14:25:13Z</time>
      </trkpt>
      <trkpt lat="47.33789" lon="-1.89375">
        <ele>50</ele>
        <time>2016-01-02T14:25:14Z</time>
      </trkpt>
      <trkpt lat="47.33786" lon="-1.89375">
        <ele>50</ele>
        <time>2016-01-02T14:25:15Z</time>
      </trkpt>
      <trkpt lat="47.33783" lon="-1.89378">
        <ele>50</ele>
        <time>2016-01-02T14:25:17Z</time>
      </trkpt>
      <trkpt lat="47.33781" lon="-1.89384">
        <ele>50</ele>
        <time>2016-01-02T14:25:19Z</time>
      </trkpt>
      <trkpt lat="47.33785" lon="-1.89385">
        <ele>50</ele>
        <time>2016-01-02T14:25:20Z</time>
      </trkpt>
      <trkpt lat="47.33789" lon="-1.89387">
        <ele>50</ele>
        <time>2016-01-02T14:25:22Z</time>
      </trkpt>
      <trkpt lat="47.33793" lon="-1.89389">
        <ele>50</ele>
        <time>2016-01-02T14:25:24Z</time>
      </trkpt>
      <trkpt lat="47.33796" lon="-1.89392">
        <ele>50</ele>
        <time>2016-01-02T14:25:26Z</time>
      </trkpt>
      <trkpt lat="47.33801" lon="-1.89394">
        <ele>50</ele>
        <time>2016-01-02T14:25:28Z</time>
      </trkpt>
      <trkpt lat="47.33804" lon="-1.89397">
        <ele>50</ele>
        <time>2016-01-02T14:25:30Z</time>
      </trkpt>
      <trkpt lat="47.33809" lon="-1.89399">
        <ele>50</ele>
        <time>2016-01-02T14:25:31Z</time>
      </trkpt>
      <trkpt lat="47.33811" lon="-1.89401">
        <ele>50</ele>
        <time>2016-01-02T14:25:32Z</time>
      </trkpt>
      <trkpt lat="47.33815" lon="-1.89405">
        <ele>50</ele>
        <time>2016-01-02T14:25:34Z</time>
      </trkpt>
      <trkpt lat="47.33815" lon="-1.8941">
        <ele>50</ele>
        <time>2016-01-02T14:25:35Z</time>
      </trkpt>
      <trkpt lat="47.33813" lon="-1.89413">
        <ele>50</ele>
        <time>2016-01-02T14:25:36Z</time>
      </trkpt>
      <trkpt lat="47.33809" lon="-1.89418">
        <ele>48</ele>
        <time>2016-01-02T14:25:38Z</time>
      </trkpt>
      <trkpt lat="47.33803" lon="-1.89416">
        <ele>50</ele>
        <time>2016-01-02T14:25:39Z</time>
      </trkpt>
      <trkpt lat="47.33799" lon="-1.89417">
        <ele>50</ele>
        <time>2016-01-02T14:25:40Z</time>
      </trkpt>
      <trkpt lat="47.33796" lon="-1.89417">
        <ele>48</ele>
        <time>2016-01-02T14:25:41Z</time>
      </trkpt>
      <trkpt lat="47.33793" lon="-1.89416">
        <ele>50</ele>
        <time>2016-01-02T14:25:42Z</time>
      </trkpt>
      <trkpt lat="47.33791" lon="-1.89415">
        <ele>50</ele>
        <time>2016-01-02T14:25:43Z</time>
      </trkpt>
      <trkpt lat="47.33788" lon="-1.89414">
        <ele>49</ele>
        <time>2016-01-02T14:25:44Z</time>
      </trkpt>
      <trkpt lat="47.33784" lon="-1.8941">
        <ele>49</ele>
        <time>2016-01-02T14:25:47Z</time>
      </trkpt>
      <trkpt lat="47.33781" lon="-1.89408">
        <ele>49</ele>
        <time>2016-01-02T14:25:49Z</time>
      </trkpt>
      <trkpt lat="47.33777" lon="-1.89407">
        <ele>49</ele>
        <time>2016-01-02T14:25:51Z</time>
      </trkpt>
      <trkpt lat="47.33773" lon="-1.89405">
        <ele>49</ele>
        <time>2016-01-02T14:25:53Z</time>
      </trkpt>
      <trkpt lat="47.33775" lon="-1.894">
        <ele>49</ele>
        <time>2016-01-02T14:25:55Z</time>
      </trkpt>
      <trkpt lat="47.33777" lon="-1.89396">
        <ele>49</ele>
        <time>2016-01-02T14:25:57Z</time>
      </trkpt>
      <trkpt lat="47.33778" lon="-1.89392">
        <ele>50</ele>
        <time>2016-01-02T14:25:59Z</time>
      </trkpt>
      <trkpt lat="47.33777" lon="-1.89388">
        <ele>50</ele>
        <time>2016-01-02T14:26:01Z</time>
      </trkpt>
      <trkpt lat="47.33776" lon="-1.89383">
        <ele>50</ele>
        <time>2016-01-02T14:26:03Z</time>
      </trkpt>
      <trkpt lat="47.33773" lon="-1.89378">
        <ele>50</ele>
        <time>2016-01-02T14:26:05Z</time>
      </trkpt>
      <trkpt lat="47.3377" lon="-1.89376">
        <ele>50</ele>
        <time>2016-01-02T14:26:07Z</time>
      </trkpt>
      <trkpt lat="47.33767" lon="-1.89374">
        <ele>50</ele>
        <time>2016-01-02T14:26:08Z</time>
      </trkpt>
      <trkpt lat="47.33764" lon="-1.89369">
        <ele>50</ele>
        <time>2016-01-02T14:26:10Z</time>
      </trkpt>
      <trkpt lat="47.33761" lon="-1.89365">
        <ele>50</ele>
        <time>2016-01-02T14:26:12Z</time>
      </trkpt>
      <trkpt lat="47.3376" lon="-1.8936">
        <ele>50</ele>
        <time>2016-01-02T14:26:13Z</time>
      </trkpt>
      <trkpt lat="47.33761" lon="-1.89354">
        <ele>50</ele>
        <time>2016-01-02T14:26:15Z</time>
      </trkpt>
      <trkpt lat="47.33764" lon="-1.8935">
        <ele>50</ele>
        <time>2016-01-02T14:26:17Z</time>
      </trkpt>
      <trkpt lat="47.33768" lon="-1.89349">
        <ele>50</ele>
        <time>2016-01-02T14:26:19Z</time>
      </trkpt>
      <trkpt lat="47.3377" lon="-1.89345">
        <ele>50</ele>
        <time>2016-01-02T14:26:21Z</time>
      </trkpt>
      <trkpt lat="47.33772" lon="-1.8934">
        <ele>51</ele>
        <time>2016-01-02T14:26:23Z</time>
      </trkpt>
      <trkpt lat="47.33771" lon="-1.89335">
        <ele>51</ele>
        <time>2016-01-02T14:26:25Z</time>
      </trkpt>
      <trkpt lat="47.33768" lon="-1.89332">
        <ele>52</ele>
        <time>2016-01-02T14:26:27Z</time>
      </trkpt>
      <trkpt lat="47.33767" lon="-1.89327">
        <ele>52</ele>
        <time>2016-01-02T14:26:29Z</time>
      </trkpt>
      <trkpt lat="47.33771" lon="-1.89325">
        <ele>52</ele>
        <time>2016-01-02T14:26:31Z</time>
      </trkpt>
      <trkpt lat="47.33774" lon="-1.89323">
        <ele>53</ele>
        <time>2016-01-02T14:26:33Z</time>
      </trkpt>
      <trkpt lat="47.33777" lon="-1.89322">
        <ele>53</ele>
        <time>2016-01-02T14:26:34Z</time>
      </trkpt>
      <trkpt lat="47.33782" lon="-1.89321">
        <ele>53</ele>
        <time>2016-01-02T14:26:36Z</time>
      </trkpt>
      <trkpt lat="47.33786" lon="-1.8932">
        <ele>53</ele>
        <time>2016-01-02T14:26:38Z</time>
      </trkpt>
      <trkpt lat="47.33788" lon="-1.89314">
        <ele>54</ele>
        <time>2016-01-02T14:26:40Z</time>
      </trkpt>
      <trkpt lat="47.3379" lon="-1.89309">
        <ele>54</ele>
        <time>2016-01-02T14:26:42Z</time>
      </trkpt>
      <trkpt lat="47.33791" lon="-1.89302">
        <ele>54</ele>
        <time>2016-01-02T14:26:44Z</time>
      </trkpt>
      <trkpt lat="47.33791" lon="-1.89297">
        <ele>54</ele>
        <time>2016-01-02T14:26:45Z</time>
      </trkpt>
      <trkpt lat="47.33792" lon="-1.8929">
        <ele>54</ele>
        <time>2016-01-02T14:26:47Z</time>
      </trkpt>
      <trkpt lat="47.33793" lon="-1.89285">
        <ele>54</ele>
        <time>2016-01-02T14:26:48Z</time>
      </trkpt>
      <trkpt lat="47.33794" lon="-1.89281">
        <ele>54</ele>
        <time>2016-01-02T14:26:49Z</time>
      </trkpt>
      <trkpt lat="47.33795" lon="-1.89276">
        <ele>54</ele>
        <time>2016-01-02T14:26:50Z</time>
      </trkpt>
      <trkpt lat="47.33797" lon="-1.89272">
        <ele>54</ele>
        <time>2016-01-02T14:26:51Z</time>
      </trkpt>
      <trkpt lat="47.338" lon="-1.89265">
        <ele>55</ele>
        <time>2016-01-02T14:26:53Z</time>
      </trkpt>
      <trkpt lat="47.33802" lon="-1.89263">
        <ele>55</ele>
        <time>2016-01-02T14:26:54Z</time>
      </trkpt>
      <trkpt lat="47.33804" lon="-1.8926">
        <ele>55</ele>
        <time>2016-01-02T14:26:55Z</time>
      </trkpt>
      <trkpt lat="47.33807" lon="-1.89257">
        <ele>55</ele>
        <time>2016-01-02T14:26:56Z</time>
      </trkpt>
      <trkpt lat="47.33812" lon="-1.89255">
        <ele>55</ele>
        <time>2016-01-02T14:26:58Z</time>
      </trkpt>
      <trkpt lat="47.33815" lon="-1.89256">
        <ele>55</ele>
        <time>2016-01-02T14:27:00Z</time>
      </trkpt>
      <trkpt lat="47.33818" lon="-1.89256">
        <ele>56</ele>
        <time>2016-01-02T14:27:02Z</time>
      </trkpt>
      <trkpt lat="47.33821" lon="-1.89253">
        <ele>56</ele>
        <time>2016-01-02T14:27:04Z</time>
      </trkpt>
      <trkpt lat="47.33824" lon="-1.8925">
        <ele>57</ele>
        <time>2016-01-02T14:27:06Z</time>
      </trkpt>
      <trkpt lat="47.33827" lon="-1.89246">
        <ele>57</ele>
        <time>2016-01-02T14:27:08Z</time>
      </trkpt>
      <trkpt lat="47.33831" lon="-1.89244">
        <ele>57</ele>
        <time>2016-01-02T14:27:10Z</time>
      </trkpt>
      <trkpt lat="47.33835" lon="-1.89242">
        <ele>58</ele>
        <time>2016-01-02T14:27:12Z</time>
      </trkpt>
      <trkpt lat="47.33839" lon="-1.89239">
        <ele>58</ele>
        <time>2016-01-02T14:27:14Z</time>
      </trkpt>
      <trkpt lat="47.33841" lon="-1.89235">
        <ele>58</ele>
        <time>2016-01-02T14:27:16Z</time>
      </trkpt>
      <trkpt lat="47.33842" lon="-1.8923">
        <ele>58</ele>
        <time>2016-01-02T14:27:19Z</time>
      </trkpt>
      <trkpt lat="47.33842" lon="-1.89225">
        <ele>59</ele>
        <time>2016-01-02T14:27:21Z</time>
      </trkpt>
      <trkpt lat="47.33842" lon="-1.8922">
        <ele>59</ele>
        <time>2016-01-02T14:27:23Z</time>
      </trkpt>
      <trkpt lat="47.33845" lon="-1.89215">
        <ele>59</ele>
        <time>2016-01-02T14:27:25Z</time>
      </trkpt>
      <trkpt lat="47.33846" lon="-1.8921">
        <ele>59</ele>
        <time>2016-01-02T14:27:27Z</time>
      </trkpt>
      <trkpt lat="47.33847" lon="-1.89205">
        <ele>59</ele>
        <time>2016-01-02T14:27:28Z</time>
      </trkpt>
      <trkpt lat="47.33849" lon="-1.89201">
        <ele>59</ele>
        <time>2016-01-02T14:27:29Z</time>
      </trkpt>
      <trkpt lat="47.3385" lon="-1.89197">
        <ele>60</ele>
        <time>2016-01-02T14:27:30Z</time>
      </trkpt>
      <trkpt lat="47.33852" lon="-1.89191">
        <ele>60</ele>
        <time>2016-01-02T14:27:32Z</time>
      </trkpt>
      <trkpt lat="47.33853" lon="-1.89184">
        <ele>60</ele>
        <time>2016-01-02T14:27:34Z</time>
      </trkpt>
      <trkpt lat="47.33853" lon="-1.89176">
        <ele>60</ele>
        <time>2016-01-02T14:27:36Z</time>
      </trkpt>
      <trkpt lat="47.33854" lon="-1.89169">
        <ele>60</ele>
        <time>2016-01-02T14:27:38Z</time>
      </trkpt>
      <trkpt lat="47.33854" lon="-1.89164">
        <ele>61</ele>
        <time>2016-01-02T14:27:39Z</time>
      </trkpt>
      <trkpt lat="47.33854" lon="-1.89159">
        <ele>60</ele>
        <time>2016-01-02T14:27:40Z</time>
      </trkpt>
      <trkpt lat="47.33855" lon="-1.89155">
        <ele>60</ele>
        <time>2016-01-02T14:27:41Z</time>
      </trkpt>
      <trkpt lat="47.33855" lon="-1.89147">
        <ele>60</ele>
        <time>2016-01-02T14:27:43Z</time>
      </trkpt>
      <trkpt lat="47.33854" lon="-1.89138">
        <ele>60</ele>
        <time>2016-01-02T14:27:45Z</time>
      </trkpt>
      <trkpt lat="47.33853" lon="-1.89134">
        <ele>60</ele>
        <time>2016-01-02T14:27:46Z</time>
      </trkpt>
      <trkpt lat="47.33852" lon="-1.8913">
        <ele>60</ele>
        <time>2016-01-02T14:27:47Z</time>
      </trkpt>
      <trkpt lat="47.3385" lon="-1.89113">
        <ele>60</ele>
        <time>2016-01-02T14:27:50Z</time>
      </trkpt>
      <trkpt lat="47.33849" lon="-1.89106">
        <ele>60</ele>
        <time>2016-01-02T14:27:51Z</time>
      </trkpt>
      <trkpt lat="47.33849" lon="-1.89099">
        <ele>60</ele>
        <time>2016-01-02T14:27:52Z</time>
      </trkpt>
      <trkpt lat="47.33849" lon="-1.89093">
        <ele>60</ele>
        <time>2016-01-02T14:27:53Z</time>
      </trkpt>
      <trkpt lat="47.33848" lon="-1.89087">
        <ele>60</ele>
        <time>2016-01-02T14:27:54Z</time>
      </trkpt>
      <trkpt lat="47.33848" lon="-1.89082">
        <ele>59</ele>
        <time>2016-01-02T14:27:55Z</time>
      </trkpt>
      <trkpt lat="47.33847" lon="-1.89078">
        <ele>59</ele>
        <time>2016-01-02T14:27:56Z</time>
      </trkpt>
      <trkpt lat="47.33845" lon="-1.89074">
        <ele>59</ele>
        <time>2016-01-02T14:27:57Z</time>
      </trkpt>
      <trkpt lat="47.33842" lon="-1.89072">
        <ele>59</ele>
        <time>2016-01-02T14:27:58Z</time>
      </trkpt>
      <trkpt lat="47.33838" lon="-1.89073">
        <ele>59</ele>
        <time>2016-01-02T14:27:59Z</time>
      </trkpt>
      <trkpt lat="47.33835" lon="-1.89072">
        <ele>60</ele>
        <time>2016-01-02T14:28:00Z</time>
      </trkpt>
      <trkpt lat="47.3383" lon="-1.89076">
        <ele>59</ele>
        <time>2016-01-02T14:28:01Z</time>
      </trkpt>
      <trkpt lat="47.33823" lon="-1.89083">
        <ele>59</ele>
        <time>2016-01-02T14:28:02Z</time>
      </trkpt>
      <trkpt lat="47.33819" lon="-1.89085">
        <ele>59</ele>
        <time>2016-01-02T14:28:03Z</time>
      </trkpt>
      <trkpt lat="47.33813" lon="-1.89089">
        <ele>58</ele>
        <time>2016-01-02T14:28:05Z</time>
      </trkpt>
      <trkpt lat="47.33808" lon="-1.89091">
        <ele>58</ele>
        <time>2016-01-02T14:28:06Z</time>
      </trkpt>
      <trkpt lat="47.33803" lon="-1.89094">
        <ele>58</ele>
        <time>2016-01-02T14:28:07Z</time>
      </trkpt>
      <trkpt lat="47.33798" lon="-1.89095">
        <ele>58</ele>
        <time>2016-01-02T14:28:08Z</time>
      </trkpt>
      <trkpt lat="47.33792" lon="-1.89096">
        <ele>57</ele>
        <time>2016-01-02T14:28:09Z</time>
      </trkpt>
      <trkpt lat="47.33786" lon="-1.89097">
        <ele>57</ele>
        <time>2016-01-02T14:28:10Z</time>
      </trkpt>
      <trkpt lat="47.3378" lon="-1.89098">
        <ele>57</ele>
        <time>2016-01-02T14:28:11Z</time>
      </trkpt>
      <trkpt lat="47.33775" lon="-1.89099">
        <ele>57</ele>
        <time>2016-01-02T14:28:12Z</time>
      </trkpt>
      <trkpt lat="47.3377" lon="-1.89101">
        <ele>56</ele>
        <time>2016-01-02T14:28:13Z</time>
      </trkpt>
      <trkpt lat="47.33764" lon="-1.89103">
        <ele>56</ele>
        <time>2016-01-02T14:28:14Z</time>
      </trkpt>
      <trkpt lat="47.33758" lon="-1.89104">
        <ele>56</ele>
        <time>2016-01-02T14:28:15Z</time>
      </trkpt>
      <trkpt lat="47.3375" lon="-1.89105">
        <ele>56</ele>
        <time>2016-01-02T14:28:16Z</time>
      </trkpt>
      <trkpt lat="47.33745" lon="-1.89104">
        <ele>54</ele>
        <time>2016-01-02T14:28:17Z</time>
      </trkpt>
      <trkpt lat="47.3374" lon="-1.89105">
        <ele>54</ele>
        <time>2016-01-02T14:28:18Z</time>
      </trkpt>
      <trkpt lat="47.33734" lon="-1.89106">
        <ele>54</ele>
        <time>2016-01-02T14:28:19Z</time>
      </trkpt>
      <trkpt lat="47.33728" lon="-1.89107">
        <ele>54</ele>
        <time>2016-01-02T14:28:20Z</time>
      </trkpt>
      <trkpt lat="47.33722" lon="-1.89108">
        <ele>54</ele>
        <time>2016-01-02T14:28:21Z</time>
      </trkpt>
      <trkpt lat="47.33717" lon="-1.89109">
        <ele>54</ele>
        <time>2016-01-02T14:28:22Z</time>
      </trkpt>
      <trkpt lat="47.33712" lon="-1.8911">
        <ele>54</ele>
        <time>2016-01-02T14:28:23Z</time>
      </trkpt>
      <trkpt lat="47.33706" lon="-1.89111">
        <ele>54</ele>
        <time>2016-01-02T14:28:24Z</time>
      </trkpt>
      <trkpt lat="47.337" lon="-1.89114">
        <ele>54</ele>
        <time>2016-01-02T14:28:25Z</time>
      </trkpt>
      <trkpt lat="47.33695" lon="-1.89116">
        <ele>54</ele>
        <time>2016-01-02T14:28:26Z</time>
      </trkpt>
      <trkpt lat="47.33689" lon="-1.89118">
        <ele>54</ele>
        <time>2016-01-02T14:28:27Z</time>
      </trkpt>
      <trkpt lat="47.33686" lon="-1.89122">
        <ele>54</ele>
        <time>2016-01-02T14:28:28Z</time>
      </trkpt>
      <trkpt lat="47.3368" lon="-1.89125">
        <ele>54</ele>
        <time>2016-01-02T14:28:29Z</time>
      </trkpt>
      <trkpt lat="47.33674" lon="-1.89127">
        <ele>55</ele>
        <time>2016-01-02T14:28:30Z</time>
      </trkpt>
      <trkpt lat="47.33669" lon="-1.89131">
        <ele>55</ele>
        <time>2016-01-02T14:28:31Z</time>
      </trkpt>
      <trkpt lat="47.33663" lon="-1.89135">
        <ele>53</ele>
        <time>2016-01-02T14:28:32Z</time>
      </trkpt>
      <trkpt lat="47.33658" lon="-1.89138">
        <ele>53</ele>
        <time>2016-01-02T14:28:33Z</time>
      </trkpt>
      <trkpt lat="47.33649" lon="-1.89139">
        <ele>53</ele>
        <time>2016-01-02T14:28:34Z</time>
      </trkpt>
      <trkpt lat="47.33644" lon="-1.89143">
        <ele>53</ele>
        <time>2016-01-02T14:28:35Z</time>
      </trkpt>
      <trkpt lat="47.33638" lon="-1.89146">
        <ele>52</ele>
        <time>2016-01-02T14:28:36Z</time>
      </trkpt>
      <trkpt lat="47.33632" lon="-1.8915">
        <ele>52</ele>
        <time>2016-01-02T14:28:37Z</time>
      </trkpt>
      <trkpt lat="47.33629" lon="-1.89152">
        <ele>52</ele>
        <time>2016-01-02T14:28:38Z</time>
      </trkpt>
      <trkpt lat="47.33625" lon="-1.89152">
        <ele>52</ele>
        <time>2016-01-02T14:28:39Z</time>
      </trkpt>
      <trkpt lat="47.33621" lon="-1.89149">
        <ele>52</ele>
        <time>2016-01-02T14:28:40Z</time>
      </trkpt>
      <trkpt lat="47.33619" lon="-1.89146">
        <ele>52</ele>
        <time>2016-01-02T14:28:41Z</time>
      </trkpt>
      <trkpt lat="47.33617" lon="-1.89141">
        <ele>52</ele>
        <time>2016-01-02T14:28:42Z</time>
      </trkpt>
      <trkpt lat="47.33615" lon="-1.89134">
        <ele>52</ele>
        <time>2016-01-02T14:28:44Z</time>
      </trkpt>
      <trkpt lat="47.33614" lon="-1.8913">
        <ele>52</ele>
        <time>2016-01-02T14:28:45Z</time>
      </trkpt>
      <trkpt lat="47.33613" lon="-1.89127">
        <ele>52</ele>
        <time>2016-01-02T14:28:46Z</time>
      </trkpt>
      <trkpt lat="47.33612" lon="-1.8912">
        <ele>52</ele>
        <time>2016-01-02T14:28:48Z</time>
      </trkpt>
      <trkpt lat="47.33611" lon="-1.89116">
        <ele>52</ele>
        <time>2016-01-02T14:28:49Z</time>
      </trkpt>
      <trkpt lat="47.3361" lon="-1.89112">
        <ele>52</ele>
        <time>2016-01-02T14:28:50Z</time>
      </trkpt>
      <trkpt lat="47.33608" lon="-1.89108">
        <ele>52</ele>
        <time>2016-01-02T14:28:52Z</time>
      </trkpt>
      <trkpt lat="47.33606" lon="-1.89101">
        <ele>52</ele>
        <time>2016-01-02T14:28:53Z</time>
      </trkpt>
      <trkpt lat="47.33603" lon="-1.89089">
        <ele>52</ele>
        <time>2016-01-02T14:28:55Z</time>
      </trkpt>
      <trkpt lat="47.33602" lon="-1.89084">
        <ele>52</ele>
        <time>2016-01-02T14:28:56Z</time>
      </trkpt>
      <trkpt lat="47.33601" lon="-1.89079">
        <ele>53</ele>
        <time>2016-01-02T14:28:57Z</time>
      </trkpt>
      <trkpt lat="47.336" lon="-1.89075">
        <ele>53</ele>
        <time>2016-01-02T14:28:58Z</time>
      </trkpt>
      <trkpt lat="47.33599" lon="-1.89067">
        <ele>53</ele>
        <time>2016-01-02T14:29:00Z</time>
      </trkpt>
      <trkpt lat="47.33598" lon="-1.89063">
        <ele>53</ele>
        <time>2016-01-02T14:29:01Z</time>
      </trkpt>
      <trkpt lat="47.33597" lon="-1.89058">
        <ele>54</ele>
        <time>2016-01-02T14:29:02Z</time>
      </trkpt>
      <trkpt lat="47.33596" lon="-1.89051">
        <ele>54</ele>
        <time>2016-01-02T14:29:03Z</time>
      </trkpt>
      <trkpt lat="47.33595" lon="-1.89045">
        <ele>54</ele>
        <time>2016-01-02T14:29:04Z</time>
      </trkpt>
      <trkpt lat="47.33594" lon="-1.89041">
        <ele>54</ele>
        <time>2016-01-02T14:29:05Z</time>
      </trkpt>
      <trkpt lat="47.33593" lon="-1.89036">
        <ele>54</ele>
        <time>2016-01-02T14:29:06Z</time>
      </trkpt>
      <trkpt lat="47.33589" lon="-1.89031">
        <ele>55</ele>
        <time>2016-01-02T14:29:08Z</time>
      </trkpt>
      <trkpt lat="47.33588" lon="-1.89028">
        <ele>55</ele>
        <time>2016-01-02T14:29:09Z</time>
      </trkpt>
      <trkpt lat="47.33591" lon="-1.89024">
        <ele>55</ele>
        <time>2016-01-02T14:29:10Z</time>
      </trkpt>
      <trkpt lat="47.3359" lon="-1.89016">
        <ele>55</ele>
        <time>2016-01-02T14:29:12Z</time>
      </trkpt>
      <trkpt lat="47.3359" lon="-1.8901">
        <ele>55</ele>
        <time>2016-01-02T14:29:14Z</time>
      </trkpt>
      <trkpt lat="47.33588" lon="-1.89006">
        <ele>56</ele>
        <time>2016-01-02T14:29:17Z</time>
      </trkpt>
      <trkpt lat="47.33585" lon="-1.89003">
        <ele>56</ele>
        <time>2016-01-02T14:29:19Z</time>
      </trkpt>
      <trkpt lat="47.33581" lon="-1.89002">
        <ele>55</ele>
        <time>2016-01-02T14:29:21Z</time>
      </trkpt>
      <trkpt lat="47.33576" lon="-1.89001">
        <ele>54</ele>
        <time>2016-01-02T14:29:23Z</time>
      </trkpt>
      <trkpt lat="47.33573" lon="-1.88998">
        <ele>54</ele>
        <time>2016-01-02T14:29:26Z</time>
      </trkpt>
      <trkpt lat="47.33569" lon="-1.88995">
        <ele>53</ele>
        <time>2016-01-02T14:29:29Z</time>
      </trkpt>
      <trkpt lat="47.33565" lon="-1.88994">
        <ele>53</ele>
        <time>2016-01-02T14:29:32Z</time>
      </trkpt>
      <trkpt lat="47.33563" lon="-1.88999">
        <ele>52</ele>
        <time>2016-01-02T14:29:35Z</time>
      </trkpt>
      <trkpt lat="47.33561" lon="-1.89003">
        <ele>52</ele>
        <time>2016-01-02T14:29:37Z</time>
      </trkpt>
      <trkpt lat="47.33558" lon="-1.89003">
        <ele>51</ele>
        <time>2016-01-02T14:29:38Z</time>
      </trkpt>
      <trkpt lat="47.33552" lon="-1.89004">
        <ele>51</ele>
        <time>2016-01-02T14:29:40Z</time>
      </trkpt>
      <trkpt lat="47.33549" lon="-1.89005">
        <ele>50</ele>
        <time>2016-01-02T14:29:42Z</time>
      </trkpt>
      <trkpt lat="47.33541" lon="-1.89004">
        <ele>50</ele>
        <time>2016-01-02T14:29:43Z</time>
      </trkpt>
      <trkpt lat="47.33536" lon="-1.89003">
        <ele>49</ele>
        <time>2016-01-02T14:29:44Z</time>
      </trkpt>
      <trkpt lat="47.33532" lon="-1.89002">
        <ele>49</ele>
        <time>2016-01-02T14:29:45Z</time>
      </trkpt>
      <trkpt lat="47.33525" lon="-1.89001">
        <ele>48</ele>
        <time>2016-01-02T14:29:46Z</time>
      </trkpt>
      <trkpt lat="47.33521" lon="-1.89001">
        <ele>48</ele>
        <time>2016-01-02T14:29:47Z</time>
      </trkpt>
      <trkpt lat="47.33518" lon="-1.89001">
        <ele>47</ele>
        <time>2016-01-02T14:29:48Z</time>
      </trkpt>
      <trkpt lat="47.33513" lon="-1.89002">
        <ele>47</ele>
        <time>2016-01-02T14:29:49Z</time>
      </trkpt>
      <trkpt lat="47.3351" lon="-1.89003">
        <ele>47</ele>
        <time>2016-01-02T14:29:50Z</time>
      </trkpt>
      <trkpt lat="47.33507" lon="-1.89003">
        <ele>46</ele>
        <time>2016-01-02T14:29:51Z</time>
      </trkpt>
      <trkpt lat="47.33504" lon="-1.89003">
        <ele>46</ele>
        <time>2016-01-02T14:29:52Z</time>
      </trkpt>
      <trkpt lat="47.33501" lon="-1.89002">
        <ele>45</ele>
        <time>2016-01-02T14:29:53Z</time>
      </trkpt>
      <trkpt lat="47.33496" lon="-1.89002">
        <ele>44</ele>
        <time>2016-01-02T14:29:55Z</time>
      </trkpt>
      <trkpt lat="47.33495" lon="-1.89009">
        <ele>43</ele>
        <time>2016-01-02T14:29:57Z</time>
      </trkpt>
      <trkpt lat="47.33497" lon="-1.89014">
        <ele>43</ele>
        <time>2016-01-02T14:30:00Z</time>
      </trkpt>
      <trkpt lat="47.335" lon="-1.8902">
        <ele>47</ele>
        <time>2016-01-02T14:30:02Z</time>
      </trkpt>
      <trkpt lat="47.33504" lon="-1.89023">
        <ele>47</ele>
        <time>2016-01-02T14:30:04Z</time>
      </trkpt>
      <trkpt lat="47.33509" lon="-1.89023">
        <ele>48</ele>
        <time>2016-01-02T14:30:06Z</time>
      </trkpt>
      <trkpt lat="47.33512" lon="-1.89021">
        <ele>48</ele>
        <time>2016-01-02T14:30:08Z</time>
      </trkpt>
      <trkpt lat="47.33515" lon="-1.8902">
        <ele>48</ele>
        <time>2016-01-02T14:30:10Z</time>
      </trkpt>
      <trkpt lat="47.33517" lon="-1.89017">
        <ele>48</ele>
        <time>2016-01-02T14:30:14Z</time>
      </trkpt>
      <trkpt lat="47.3352" lon="-1.89016">
        <ele>48</ele>
        <time>2016-01-02T14:30:16Z</time>
      </trkpt>
      <trkpt lat="47.33524" lon="-1.89015">
        <ele>48</ele>
        <time>2016-01-02T14:30:19Z</time>
      </trkpt>
      <trkpt lat="47.33527" lon="-1.89013">
        <ele>48</ele>
        <time>2016-01-02T14:30:22Z</time>
      </trkpt>
      <trkpt lat="47.33529" lon="-1.89015">
        <ele>49</ele>
        <time>2016-01-02T14:30:27Z</time>
      </trkpt>
      <trkpt lat="47.33532" lon="-1.89015">
        <ele>49</ele>
        <time>2016-01-02T14:30:36Z</time>
      </trkpt>
      <trkpt lat="47.33536" lon="-1.89014">
        <ele>49</ele>
        <time>2016-01-02T14:30:38Z</time>
      </trkpt>
      <trkpt lat="47.33539" lon="-1.89013">
        <ele>49</ele>
        <time>2016-01-02T14:30:40Z</time>
      </trkpt>
      <trkpt lat="47.33542" lon="-1.89013">
        <ele>50</ele>
        <time>2016-01-02T14:30:42Z</time>
      </trkpt>
      <trkpt lat="47.33545" lon="-1.89012">
        <ele>50</ele>
        <time>2016-01-02T14:30:44Z</time>
      </trkpt>
      <trkpt lat="47.33548" lon="-1.89011">
        <ele>50</ele>
        <time>2016-01-02T14:30:46Z</time>
      </trkpt>
      <trkpt lat="47.33553" lon="-1.89009">
        <ele>51</ele>
        <time>2016-01-02T14:30:49Z</time>
      </trkpt>
      <trkpt lat="47.33557" lon="-1.89008">
        <ele>51</ele>
        <time>2016-01-02T14:30:51Z</time>
      </trkpt>
      <trkpt lat="47.33561" lon="-1.89008">
        <ele>52</ele>
        <time>2016-01-02T14:30:53Z</time>
      </trkpt>
      <trkpt lat="47.33563" lon="-1.89005">
        <ele>52</ele>
        <time>2016-01-02T14:30:55Z</time>
      </trkpt>
      <trkpt lat="47.33564" lon="-1.89001">
        <ele>52</ele>
        <time>2016-01-02T14:30:57Z</time>
      </trkpt>
      <trkpt lat="47.33568" lon="-1.88999">
        <ele>53</ele>
        <time>2016-01-02T14:30:59Z</time>
      </trkpt>
      <trkpt lat="47.33572" lon="-1.88998">
        <ele>54</ele>
        <time>2016-01-02T14:31:03Z</time>
      </trkpt>
      <trkpt lat="47.33573" lon="-1.89003">
        <ele>53</ele>
        <time>2016-01-02T14:31:06Z</time>
      </trkpt>
      <trkpt lat="47.33571" lon="-1.89008">
        <ele>53</ele>
        <time>2016-01-02T14:31:07Z</time>
      </trkpt>
      <trkpt lat="47.3357" lon="-1.89012">
        <ele>52</ele>
        <time>2016-01-02T14:31:08Z</time>
      </trkpt>
      <trkpt lat="47.33568" lon="-1.89016">
        <ele>52</ele>
        <time>2016-01-02T14:31:10Z</time>
      </trkpt>
      <trkpt lat="47.33567" lon="-1.8902">
        <ele>52</ele>
        <time>2016-01-02T14:31:11Z</time>
      </trkpt>
      <trkpt lat="47.33563" lon="-1.89023">
        <ele>51</ele>
        <time>2016-01-02T14:31:13Z</time>
      </trkpt>
      <trkpt lat="47.33561" lon="-1.89027">
        <ele>51</ele>
        <time>2016-01-02T14:31:15Z</time>
      </trkpt>
      <trkpt lat="47.33561" lon="-1.89033">
        <ele>50</ele>
        <time>2016-01-02T14:31:17Z</time>
      </trkpt>
      <trkpt lat="47.33562" lon="-1.8904">
        <ele>50</ele>
        <time>2016-01-02T14:31:19Z</time>
      </trkpt>
      <trkpt lat="47.33562" lon="-1.89045">
        <ele>50</ele>
        <time>2016-01-02T14:31:21Z</time>
      </trkpt>
      <trkpt lat="47.33565" lon="-1.89048">
        <ele>50</ele>
        <time>2016-01-02T14:31:23Z</time>
      </trkpt>
      <trkpt lat="47.33564" lon="-1.89053">
        <ele>50</ele>
        <time>2016-01-02T14:31:25Z</time>
      </trkpt>
      <trkpt lat="47.3356" lon="-1.89055">
        <ele>50</ele>
        <time>2016-01-02T14:31:27Z</time>
      </trkpt>
      <trkpt lat="47.33556" lon="-1.89053">
        <ele>50</ele>
        <time>2016-01-02T14:31:29Z</time>
      </trkpt>
      <trkpt lat="47.33554" lon="-1.89046">
        <ele>50</ele>
        <time>2016-01-02T14:31:31Z</time>
      </trkpt>
      <trkpt lat="47.33556" lon="-1.8904">
        <ele>50</ele>
        <time>2016-01-02T14:31:33Z</time>
      </trkpt>
      <trkpt lat="47.33557" lon="-1.89035">
        <ele>50</ele>
        <time>2016-01-02T14:31:35Z</time>
      </trkpt>
      <trkpt lat="47.33556" lon="-1.8903">
        <ele>50</ele>
        <time>2016-01-02T14:31:37Z</time>
      </trkpt>
      <trkpt lat="47.33554" lon="-1.89032">
        <ele>50</ele>
        <time>2016-01-02T14:31:39Z</time>
      </trkpt>
      <trkpt lat="47.33553" lon="-1.89039">
        <ele>50</ele>
        <time>2016-01-02T14:31:41Z</time>
      </trkpt>
      <trkpt lat="47.33552" lon="-1.89047">
        <ele>50</ele>
        <time>2016-01-02T14:31:43Z</time>
      </trkpt>
      <trkpt lat="47.33553" lon="-1.89055">
        <ele>50</ele>
        <time>2016-01-02T14:31:44Z</time>
      </trkpt>
      <trkpt lat="47.33552" lon="-1.89067">
        <ele>49</ele>
        <time>2016-01-02T14:31:45Z</time>
      </trkpt>
      <trkpt lat="47.33551" lon="-1.89072">
        <ele>49</ele>
        <time>2016-01-02T14:31:46Z</time>
      </trkpt>
      <trkpt lat="47.3355" lon="-1.89081">
        <ele>49</ele>
        <time>2016-01-02T14:31:48Z</time>
      </trkpt>
      <trkpt lat="47.33542" lon="-1.89081">
        <ele>49</ele>
        <time>2016-01-02T14:31:49Z</time>
      </trkpt>
      <trkpt lat="47.33537" lon="-1.89081">
        <ele>48</ele>
        <time>2016-01-02T14:31:50Z</time>
      </trkpt>
      <trkpt lat="47.33532" lon="-1.8908">
        <ele>48</ele>
        <time>2016-01-02T14:31:51Z</time>
      </trkpt>
      <trkpt lat="47.33534" lon="-1.89076">
        <ele>48</ele>
        <time>2016-01-02T14:31:52Z</time>
      </trkpt>
      <trkpt lat="47.33533" lon="-1.89072">
        <ele>48</ele>
        <time>2016-01-02T14:31:53Z</time>
      </trkpt>
      <trkpt lat="47.33532" lon="-1.89065">
        <ele>48</ele>
        <time>2016-01-02T14:31:55Z</time>
      </trkpt>
      <trkpt lat="47.33532" lon="-1.89058">
        <ele>49</ele>
        <time>2016-01-02T14:31:57Z</time>
      </trkpt>
      <trkpt lat="47.33531" lon="-1.89052">
        <ele>49</ele>
        <time>2016-01-02T14:31:59Z</time>
      </trkpt>
      <trkpt lat="47.33529" lon="-1.8905">
        <ele>49</ele>
        <time>2016-01-02T14:32:01Z</time>
      </trkpt>
      <trkpt lat="47.33526" lon="-1.89052">
        <ele>48</ele>
        <time>2016-01-02T14:32:03Z</time>
      </trkpt>
      <trkpt lat="47.33525" lon="-1.89057">
        <ele>48</ele>
        <time>2016-01-02T14:32:05Z</time>
      </trkpt>
      <trkpt lat="47.33523" lon="-1.89062">
        <ele>48</ele>
        <time>2016-01-02T14:32:07Z</time>
      </trkpt>
      <trkpt lat="47.33524" lon="-1.89067">
        <ele>48</ele>
        <time>2016-01-02T14:32:09Z</time>
      </trkpt>
      <trkpt lat="47.33526" lon="-1.89072">
        <ele>48</ele>
        <time>2016-01-02T14:32:11Z</time>
      </trkpt>
      <trkpt lat="47.33529" lon="-1.89074">
        <ele>48</ele>
        <time>2016-01-02T14:32:13Z</time>
      </trkpt>
      <trkpt lat="47.33531" lon="-1.89079">
        <ele>48</ele>
        <time>2016-01-02T14:32:15Z</time>
      </trkpt>
      <trkpt lat="47.33531" lon="-1.89087">
        <ele>46</ele>
        <time>2016-01-02T14:32:17Z</time>
      </trkpt>
      <trkpt lat="47.33532" lon="-1.89093">
        <ele>46</ele>
        <time>2016-01-02T14:32:19Z</time>
      </trkpt>
      <trkpt lat="47.33533" lon="-1.89097">
        <ele>46</ele>
        <time>2016-01-02T14:32:21Z</time>
      </trkpt>
      <trkpt lat="47.33536" lon="-1.89097">
        <ele>46</ele>
        <time>2016-01-02T14:32:23Z</time>
      </trkpt>
      <trkpt lat="47.3354" lon="-1.89097">
        <ele>47</ele>
        <time>2016-01-02T14:32:26Z</time>
      </trkpt>
      <trkpt lat="47.33543" lon="-1.89099">
        <ele>47</ele>
        <time>2016-01-02T14:32:28Z</time>
      </trkpt>
      <trkpt lat="47.33546" lon="-1.89097">
        <ele>47</ele>
        <time>2016-01-02T14:32:30Z</time>
      </trkpt>
      <trkpt lat="47.33549" lon="-1.89094">
        <ele>47</ele>
        <time>2016-01-02T14:32:32Z</time>
      </trkpt>
      <trkpt lat="47.33551" lon="-1.89091">
        <ele>47</ele>
        <time>2016-01-02T14:32:34Z</time>
      </trkpt>
      <trkpt lat="47.33553" lon="-1.89088">
        <ele>47</ele>
        <time>2016-01-02T14:32:36Z</time>
      </trkpt>
      <trkpt lat="47.33556" lon="-1.89086">
        <ele>48</ele>
        <time>2016-01-02T14:32:38Z</time>
      </trkpt>
      <trkpt lat="47.3356" lon="-1.89088">
        <ele>48</ele>
        <time>2016-01-02T14:32:40Z</time>
      </trkpt>
      <trkpt lat="47.33563" lon="-1.89089">
        <ele>48</ele>
        <time>2016-01-02T14:32:42Z</time>
      </trkpt>
      <trkpt lat="47.33568" lon="-1.89089">
        <ele>49</ele>
        <time>2016-01-02T14:32:44Z</time>
      </trkpt>
      <trkpt lat="47.33572" lon="-1.89089">
        <ele>49</ele>
        <time>2016-01-02T14:32:46Z</time>
      </trkpt>
      <trkpt lat="47.33576" lon="-1.89088">
        <ele>49</ele>
        <time>2016-01-02T14:32:48Z</time>
      </trkpt>
      <trkpt lat="47.33578" lon="-1.89083">
        <ele>51</ele>
        <time>2016-01-02T14:32:50Z</time>
      </trkpt>
      <trkpt lat="47.33579" lon="-1.89079">
        <ele>51</ele>
        <time>2016-01-02T14:32:55Z</time>
      </trkpt>
      <trkpt lat="47.33583" lon="-1.89078">
        <ele>51</ele>
        <time>2016-01-02T14:32:57Z</time>
      </trkpt>
      <trkpt lat="47.33587" lon="-1.89077">
        <ele>52</ele>
        <time>2016-01-02T14:32:59Z</time>
      </trkpt>
      <trkpt lat="47.33589" lon="-1.89073">
        <ele>52</ele>
        <time>2016-01-02T14:33:01Z</time>
      </trkpt>
      <trkpt lat="47.33591" lon="-1.89074">
        <ele>52</ele>
        <time>2016-01-02T14:33:06Z</time>
      </trkpt>
      <trkpt lat="47.33597" lon="-1.89073">
        <ele>53</ele>
        <time>2016-01-02T14:34:28Z</time>
      </trkpt>
      <trkpt lat="47.33597" lon="-1.89068">
        <ele>53</ele>
        <time>2016-01-02T14:34:30Z</time>
      </trkpt>
      <trkpt lat="47.33596" lon="-1.89064">
        <ele>53</ele>
        <time>2016-01-02T14:34:32Z</time>
      </trkpt>
      <trkpt lat="47.33595" lon="-1.8906">
        <ele>53</ele>
        <time>2016-01-02T14:34:34Z</time>
      </trkpt>
      <trkpt lat="47.33594" lon="-1.89056">
        <ele>54</ele>
        <time>2016-01-02T14:34:36Z</time>
      </trkpt>
      <trkpt lat="47.33593" lon="-1.8905">
        <ele>54</ele>
        <time>2016-01-02T14:34:38Z</time>
      </trkpt>
      <trkpt lat="47.33592" lon="-1.89044">
        <ele>54</ele>
        <time>2016-01-02T14:34:40Z</time>
      </trkpt>
      <trkpt lat="47.33591" lon="-1.89037">
        <ele>54</ele>
        <time>2016-01-02T14:34:42Z</time>
      </trkpt>
      <trkpt lat="47.33589" lon="-1.8903">
        <ele>55</ele>
        <time>2016-01-02T14:34:44Z</time>
      </trkpt>
      <trkpt lat="47.33589" lon="-1.89024">
        <ele>55</ele>
        <time>2016-01-02T14:34:46Z</time>
      </trkpt>
      <trkpt lat="47.33588" lon="-1.89017">
        <ele>55</ele>
        <time>2016-01-02T14:34:48Z</time>
      </trkpt>
      <trkpt lat="47.33588" lon="-1.89011">
        <ele>55</ele>
        <time>2016-01-02T14:34:50Z</time>
      </trkpt>
      <trkpt lat="47.33589" lon="-1.89005">
        <ele>56</ele>
        <time>2016-01-02T14:34:52Z</time>
      </trkpt>
      <trkpt lat="47.33592" lon="-1.89">
        <ele>56</ele>
        <time>2016-01-02T14:34:54Z</time>
      </trkpt>
      <trkpt lat="47.33596" lon="-1.88995">
        <ele>56</ele>
        <time>2016-01-02T14:34:56Z</time>
      </trkpt>
      <trkpt lat="47.336" lon="-1.8899">
        <ele>56</ele>
        <time>2016-01-02T14:34:58Z</time>
      </trkpt>
      <trkpt lat="47.33604" lon="-1.88985">
        <ele>56</ele>
        <time>2016-01-02T14:35:00Z</time>
      </trkpt>
      <trkpt lat="47.33606" lon="-1.88982">
        <ele>56</ele>
        <time>2016-01-02T14:35:01Z</time>
      </trkpt>
      <trkpt lat="47.3361" lon="-1.88977">
        <ele>56</ele>
        <time>2016-01-02T14:35:03Z</time>
      </trkpt>
      <trkpt lat="47.33612" lon="-1.88974">
        <ele>56</ele>
        <time>2016-01-02T14:35:04Z</time>
      </trkpt>
      <trkpt lat="47.33617" lon="-1.88971">
        <ele>56</ele>
        <time>2016-01-02T14:35:06Z</time>
      </trkpt>
      <trkpt lat="47.33619" lon="-1.88969">
        <ele>56</ele>
        <time>2016-01-02T14:35:07Z</time>
      </trkpt>
      <trkpt lat="47.33623" lon="-1.88965">
        <ele>56</ele>
        <time>2016-01-02T14:35:09Z</time>
      </trkpt>
      <trkpt lat="47.33627" lon="-1.88961">
        <ele>57</ele>
        <time>2016-01-02T14:35:11Z</time>
      </trkpt>
      <trkpt lat="47.33631" lon="-1.88957">
        <ele>57</ele>
        <time>2016-01-02T14:35:13Z</time>
      </trkpt>
      <trkpt lat="47.33636" lon="-1.88954">
        <ele>57</ele>
        <time>2016-01-02T14:35:15Z</time>
      </trkpt>
      <trkpt lat="47.33641" lon="-1.88953">
        <ele>57</ele>
        <time>2016-01-02T14:35:17Z</time>
      </trkpt>
      <trkpt lat="47.33645" lon="-1.88951">
        <ele>57</ele>
        <time>2016-01-02T14:35:19Z</time>
      </trkpt>
      <trkpt lat="47.3365" lon="-1.88949">
        <ele>57</ele>
        <time>2016-01-02T14:35:21Z</time>
      </trkpt>
      <trkpt lat="47.33655" lon="-1.88947">
        <ele>57</ele>
        <time>2016-01-02T14:35:23Z</time>
      </trkpt>
      <trkpt lat="47.3366" lon="-1.88945">
        <ele>57</ele>
        <time>2016-01-02T14:35:25Z</time>
      </trkpt>
      <trkpt lat="47.33664" lon="-1.8894">
        <ele>57</ele>
        <time>2016-01-02T14:35:27Z</time>
      </trkpt>
      <trkpt lat="47.33668" lon="-1.88936">
        <ele>58</ele>
        <time>2016-01-02T14:35:29Z</time>
      </trkpt>
      <trkpt lat="47.33668" lon="-1.88932">
        <ele>58</ele>
        <time>2016-01-02T14:35:30Z</time>
      </trkpt>
      <trkpt lat="47.33668" lon="-1.88924">
        <ele>58</ele>
        <time>2016-01-02T14:35:32Z</time>
      </trkpt>
      <trkpt lat="47.33667" lon="-1.8892">
        <ele>58</ele>
        <time>2016-01-02T14:35:33Z</time>
      </trkpt>
      <trkpt lat="47.33666" lon="-1.88913">
        <ele>58</ele>
        <time>2016-01-02T14:35:35Z</time>
      </trkpt>
      <trkpt lat="47.33666" lon="-1.88908">
        <ele>57</ele>
        <time>2016-01-02T14:35:36Z</time>
      </trkpt>
      <trkpt lat="47.33666" lon="-1.88904">
        <ele>57</ele>
        <time>2016-01-02T14:35:37Z</time>
      </trkpt>
      <trkpt lat="47.33666" lon="-1.88899">
        <ele>57</ele>
        <time>2016-01-02T14:35:38Z</time>
      </trkpt>
      <trkpt lat="47.33666" lon="-1.88895">
        <ele>57</ele>
        <time>2016-01-02T14:35:39Z</time>
      </trkpt>
      <trkpt lat="47.33665" lon="-1.8889">
        <ele>57</ele>
        <time>2016-01-02T14:35:40Z</time>
      </trkpt>
      <trkpt lat="47.33665" lon="-1.88886">
        <ele>57</ele>
        <time>2016-01-02T14:35:41Z</time>
      </trkpt>
      <trkpt lat="47.33665" lon="-1.88881">
        <ele>57</ele>
        <time>2016-01-02T14:35:42Z</time>
      </trkpt>
      <trkpt lat="47.33665" lon="-1.88877">
        <ele>57</ele>
        <time>2016-01-02T14:35:43Z</time>
      </trkpt>
      <trkpt lat="47.33665" lon="-1.88873">
        <ele>57</ele>
        <time>2016-01-02T14:35:44Z</time>
      </trkpt>
      <trkpt lat="47.33665" lon="-1.88867">
        <ele>57</ele>
        <time>2016-01-02T14:35:46Z</time>
      </trkpt>
      <trkpt lat="47.33666" lon="-1.88861">
        <ele>57</ele>
        <time>2016-01-02T14:35:48Z</time>
      </trkpt>
      <trkpt lat="47.33667" lon="-1.88854">
        <ele>59</ele>
        <time>2016-01-02T14:35:50Z</time>
      </trkpt>
      <trkpt lat="47.33667" lon="-1.88847">
        <ele>59</ele>
        <time>2016-01-02T14:35:52Z</time>
      </trkpt>
      <trkpt lat="47.33668" lon="-1.88839">
        <ele>58</ele>
        <time>2016-01-02T14:35:54Z</time>
      </trkpt>
      <trkpt lat="47.33669" lon="-1.88832">
        <ele>58</ele>
        <time>2016-01-02T14:35:56Z</time>
      </trkpt>
      <trkpt lat="47.33669" lon="-1.88826">
        <ele>58</ele>
        <time>2016-01-02T14:35:57Z</time>
      </trkpt>
      <trkpt lat="47.33669" lon="-1.8882">
        <ele>59</ele>
        <time>2016-01-02T14:35:59Z</time>
      </trkpt>
      <trkpt lat="47.3367" lon="-1.88816">
        <ele>59</ele>
        <time>2016-01-02T14:36:00Z</time>
      </trkpt>
      <trkpt lat="47.3367" lon="-1.88811">
        <ele>59</ele>
        <time>2016-01-02T14:36:01Z</time>
      </trkpt>
      <trkpt lat="47.33671" lon="-1.88805">
        <ele>59</ele>
        <time>2016-01-02T14:36:02Z</time>
      </trkpt>
      <trkpt lat="47.33671" lon="-1.88799">
        <ele>59</ele>
        <time>2016-01-02T14:36:04Z</time>
      </trkpt>
      <trkpt lat="47.33671" lon="-1.88794">
        <ele>59</ele>
        <time>2016-01-02T14:36:05Z</time>
      </trkpt>
      <trkpt lat="47.33671" lon="-1.88788">
        <ele>59</ele>
        <time>2016-01-02T14:36:07Z</time>
      </trkpt>
      <trkpt lat="47.33671" lon="-1.88784">
        <ele>59</ele>
        <time>2016-01-02T14:36:08Z</time>
      </trkpt>
      <trkpt lat="47.33668" lon="-1.8878">
        <ele>59</ele>
        <time>2016-01-02T14:36:10Z</time>
      </trkpt>
      <trkpt lat="47.33665" lon="-1.88783">
        <ele>58</ele>
        <time>2016-01-02T14:36:12Z</time>
      </trkpt>
      <trkpt lat="47.33663" lon="-1.88784">
        <ele>58</ele>
        <time>2016-01-02T14:36:13Z</time>
      </trkpt>
      <trkpt lat="47.33658" lon="-1.88786">
        <ele>57</ele>
        <time>2016-01-02T14:36:15Z</time>
      </trkpt>
      <trkpt lat="47.33653" lon="-1.88785">
        <ele>57</ele>
        <time>2016-01-02T14:36:16Z</time>
      </trkpt>
      <trkpt lat="47.33648" lon="-1.88785">
        <ele>57</ele>
        <time>2016-01-02T14:36:18Z</time>
      </trkpt>
      <trkpt lat="47.33643" lon="-1.88783">
        <ele>57</ele>
        <time>2016-01-02T14:36:19Z</time>
      </trkpt>
      <trkpt lat="47.33639" lon="-1.88782">
        <ele>57</ele>
        <time>2016-01-02T14:36:20Z</time>
      </trkpt>
      <trkpt lat="47.33635" lon="-1.88779">
        <ele>57</ele>
        <time>2016-01-02T14:36:21Z</time>
      </trkpt>
      <trkpt lat="47.33632" lon="-1.88778">
        <ele>57</ele>
        <time>2016-01-02T14:36:22Z</time>
      </trkpt>
      <trkpt lat="47.33629" lon="-1.88776">
        <ele>57</ele>
        <time>2016-01-02T14:36:23Z</time>
      </trkpt>
      <trkpt lat="47.33624" lon="-1.88774">
        <ele>57</ele>
        <time>2016-01-02T14:36:24Z</time>
      </trkpt>
      <trkpt lat="47.33621" lon="-1.88772">
        <ele>57</ele>
        <time>2016-01-02T14:36:25Z</time>
      </trkpt>
      <trkpt lat="47.33618" lon="-1.88771">
        <ele>56</ele>
        <time>2016-01-02T14:36:26Z</time>
      </trkpt>
      <trkpt lat="47.33612" lon="-1.88769">
        <ele>56</ele>
        <time>2016-01-02T14:36:27Z</time>
      </trkpt>
      <trkpt lat="47.33608" lon="-1.88769">
        <ele>56</ele>
        <time>2016-01-02T14:36:28Z</time>
      </trkpt>
      <trkpt lat="47.33604" lon="-1.88768">
        <ele>56</ele>
        <time>2016-01-02T14:36:29Z</time>
      </trkpt>
      <trkpt lat="47.336" lon="-1.88766">
        <ele>56</ele>
        <time>2016-01-02T14:36:30Z</time>
      </trkpt>
      <trkpt lat="47.33597" lon="-1.88766">
        <ele>56</ele>
        <time>2016-01-02T14:36:31Z</time>
      </trkpt>
      <trkpt lat="47.33593" lon="-1.88764">
        <ele>56</ele>
        <time>2016-01-02T14:36:32Z</time>
      </trkpt>
      <trkpt lat="47.33589" lon="-1.88763">
        <ele>56</ele>
        <time>2016-01-02T14:36:33Z</time>
      </trkpt>
      <trkpt lat="47.33585" lon="-1.88762">
        <ele>56</ele>
        <time>2016-01-02T14:36:34Z</time>
      </trkpt>
      <trkpt lat="47.33581" lon="-1.88761">
        <ele>53</ele>
        <time>2016-01-02T14:36:35Z</time>
      </trkpt>
      <trkpt lat="47.33578" lon="-1.8876">
        <ele>53</ele>
        <time>2016-01-02T14:36:36Z</time>
      </trkpt>
      <trkpt lat="47.33574" lon="-1.88759">
        <ele>53</ele>
        <time>2016-01-02T14:36:37Z</time>
      </trkpt>
      <trkpt lat="47.33571" lon="-1.88759">
        <ele>52</ele>
        <time>2016-01-02T14:36:38Z</time>
      </trkpt>
      <trkpt lat="47.33568" lon="-1.88759">
        <ele>52</ele>
        <time>2016-01-02T14:36:39Z</time>
      </trkpt>
      <trkpt lat="47.33564" lon="-1.88758">
        <ele>52</ele>
        <time>2016-01-02T14:36:40Z</time>
      </trkpt>
      <trkpt lat="47.33561" lon="-1.88757">
        <ele>51</ele>
        <time>2016-01-02T14:36:41Z</time>
      </trkpt>
      <trkpt lat="47.33558" lon="-1.88754">
        <ele>51</ele>
        <time>2016-01-02T14:36:42Z</time>
      </trkpt>
      <trkpt lat="47.33555" lon="-1.88753">
        <ele>51</ele>
        <time>2016-01-02T14:36:43Z</time>
      </trkpt>
      <trkpt lat="47.33552" lon="-1.88753">
        <ele>51</ele>
        <time>2016-01-02T14:36:44Z</time>
      </trkpt>
      <trkpt lat="47.33548" lon="-1.8875">
        <ele>52</ele>
        <time>2016-01-02T14:36:45Z</time>
      </trkpt>
      <trkpt lat="47.33546" lon="-1.88749">
        <ele>51</ele>
        <time>2016-01-02T14:36:46Z</time>
      </trkpt>
      <trkpt lat="47.33543" lon="-1.88748">
        <ele>51</ele>
        <time>2016-01-02T14:36:47Z</time>
      </trkpt>
      <trkpt lat="47.33539" lon="-1.88746">
        <ele>51</ele>
        <time>2016-01-02T14:36:48Z</time>
      </trkpt>
      <trkpt lat="47.33536" lon="-1.88744">
        <ele>51</ele>
        <time>2016-01-02T14:36:49Z</time>
      </trkpt>
      <trkpt lat="47.33533" lon="-1.88741">
        <ele>50</ele>
        <time>2016-01-02T14:36:50Z</time>
      </trkpt>
      <trkpt lat="47.3353" lon="-1.88739">
        <ele>50</ele>
        <time>2016-01-02T14:36:51Z</time>
      </trkpt>
      <trkpt lat="47.33527" lon="-1.88737">
        <ele>50</ele>
        <time>2016-01-02T14:36:52Z</time>
      </trkpt>
      <trkpt lat="47.33523" lon="-1.88734">
        <ele>50</ele>
        <time>2016-01-02T14:36:53Z</time>
      </trkpt>
      <trkpt lat="47.3352" lon="-1.88732">
        <ele>50</ele>
        <time>2016-01-02T14:36:54Z</time>
      </trkpt>
      <trkpt lat="47.33517" lon="-1.88731">
        <ele>49</ele>
        <time>2016-01-02T14:36:55Z</time>
      </trkpt>
      <trkpt lat="47.33514" lon="-1.8873">
        <ele>49</ele>
        <time>2016-01-02T14:36:56Z</time>
      </trkpt>
      <trkpt lat="47.33511" lon="-1.88729">
        <ele>49</ele>
        <time>2016-01-02T14:36:57Z</time>
      </trkpt>
      <trkpt lat="47.33507" lon="-1.88727">
        <ele>49</ele>
        <time>2016-01-02T14:36:58Z</time>
      </trkpt>
      <trkpt lat="47.33504" lon="-1.88725">
        <ele>49</ele>
        <time>2016-01-02T14:36:59Z</time>
      </trkpt>
      <trkpt lat="47.33502" lon="-1.88724">
        <ele>49</ele>
        <time>2016-01-02T14:37:00Z</time>
      </trkpt>
      <trkpt lat="47.33499" lon="-1.88721">
        <ele>48</ele>
        <time>2016-01-02T14:37:01Z</time>
      </trkpt>
      <trkpt lat="47.33496" lon="-1.88716">
        <ele>48</ele>
        <time>2016-01-02T14:37:03Z</time>
      </trkpt>
      <trkpt lat="47.33493" lon="-1.88713">
        <ele>48</ele>
        <time>2016-01-02T14:37:05Z</time>
      </trkpt>
      <trkpt lat="47.33491" lon="-1.88716">
        <ele>48</ele>
        <time>2016-01-02T14:37:06Z</time>
      </trkpt>
      <trkpt lat="47.33487" lon="-1.8872">
        <ele>48</ele>
        <time>2016-01-02T14:37:08Z</time>
      </trkpt>
      <trkpt lat="47.33486" lon="-1.88725">
        <ele>48</ele>
        <time>2016-01-02T14:37:09Z</time>
      </trkpt>
      <trkpt lat="47.33484" lon="-1.88728">
        <ele>48</ele>
        <time>2016-01-02T14:37:10Z</time>
      </trkpt>
      <trkpt lat="47.33483" lon="-1.88731">
        <ele>48</ele>
        <time>2016-01-02T14:37:11Z</time>
      </trkpt>
      <trkpt lat="47.33481" lon="-1.88735">
        <ele>48</ele>
        <time>2016-01-02T14:37:12Z</time>
      </trkpt>
      <trkpt lat="47.3348" lon="-1.88738">
        <ele>47</ele>
        <time>2016-01-02T14:37:13Z</time>
      </trkpt>
      <trkpt lat="47.33478" lon="-1.88746">
        <ele>47</ele>
        <time>2016-01-02T14:37:15Z</time>
      </trkpt>
      <trkpt lat="47.33476" lon="-1.88752">
        <ele>46</ele>
        <time>2016-01-02T14:37:17Z</time>
      </trkpt>
      <trkpt lat="47.33473" lon="-1.88759">
        <ele>46</ele>
        <time>2016-01-02T14:37:19Z</time>
      </trkpt>
      <trkpt lat="47.33471" lon="-1.88762">
        <ele>46</ele>
        <time>2016-01-02T14:37:20Z</time>
      </trkpt>
      <trkpt lat="47.33466" lon="-1.88764">
        <ele>46</ele>
        <time>2016-01-02T14:37:22Z</time>
      </trkpt>
      <trkpt lat="47.33463" lon="-1.88764">
        <ele>46</ele>
        <time>2016-01-02T14:37:23Z</time>
      </trkpt>
      <trkpt lat="47.33458" lon="-1.88763">
        <ele>46</ele>
        <time>2016-01-02T14:37:25Z</time>
      </trkpt>
      <trkpt lat="47.33454" lon="-1.88761">
        <ele>47</ele>
        <time>2016-01-02T14:37:27Z</time>
      </trkpt>
      <trkpt lat="47.33451" lon="-1.8876">
        <ele>47</ele>
        <time>2016-01-02T14:37:30Z</time>
      </trkpt>
      <trkpt lat="47.33448" lon="-1.88757">
        <ele>47</ele>
        <time>2016-01-02T14:37:34Z</time>
      </trkpt>
      <trkpt lat="47.33446" lon="-1.88753">
        <ele>47</ele>
        <time>2016-01-02T14:37:37Z</time>
      </trkpt>
      <trkpt lat="47.33443" lon="-1.88754">
        <ele>47</ele>
        <time>2016-01-02T14:37:54Z</time>
      </trkpt>
      <trkpt lat="47.33441" lon="-1.88751">
        <ele>47</ele>
        <time>2016-01-02T14:37:58Z</time>
      </trkpt>
      <trkpt lat="47.33441" lon="-1.88747">
        <ele>49</ele>
        <time>2016-01-02T14:38:04Z</time>
      </trkpt>
      <trkpt lat="47.33441" lon="-1.88742">
        <ele>49</ele>
        <time>2016-01-02T14:38:09Z</time>
      </trkpt>
      <trkpt lat="47.33439" lon="-1.88739">
        <ele>49</ele>
        <time>2016-01-02T14:38:13Z</time>
      </trkpt>
      <trkpt lat="47.33437" lon="-1.88735">
        <ele>49</ele>
        <time>2016-01-02T14:38:17Z</time>
      </trkpt>
      <trkpt lat="47.33435" lon="-1.88732">
        <ele>49</ele>
        <time>2016-01-02T14:38:20Z</time>
      </trkpt>
      <trkpt lat="47.33434" lon="-1.88728">
        <ele>49</ele>
        <time>2016-01-02T14:38:23Z</time>
      </trkpt>
      <trkpt lat="47.33432" lon="-1.88725">
        <ele>49</ele>
        <time>2016-01-02T14:38:26Z</time>
      </trkpt>
      <trkpt lat="47.3343" lon="-1.88722">
        <ele>49</ele>
        <time>2016-01-02T14:38:30Z</time>
      </trkpt>
      <trkpt lat="47.33427" lon="-1.88722">
        <ele>49</ele>
        <time>2016-01-02T14:38:39Z</time>
      </trkpt>
      <trkpt lat="47.33423" lon="-1.88722">
        <ele>49</ele>
        <time>2016-01-02T14:38:48Z</time>
      </trkpt>
      <trkpt lat="47.33421" lon="-1.88725">
        <ele>49</ele>
        <time>2016-01-02T14:38:52Z</time>
      </trkpt>
      <trkpt lat="47.33418" lon="-1.88727">
        <ele>49</ele>
        <time>2016-01-02T14:38:57Z</time>
      </trkpt>
      <trkpt lat="47.33415" lon="-1.88728">
        <ele>50</ele>
        <time>2016-01-02T14:39:02Z</time>
      </trkpt>
      <trkpt lat="47.33412" lon="-1.8873">
        <ele>50</ele>
        <time>2016-01-02T14:39:12Z</time>
      </trkpt>
      <trkpt lat="47.33408" lon="-1.88731">
        <ele>50</ele>
        <time>2016-01-02T14:39:14Z</time>
      </trkpt>
      <trkpt lat="47.33405" lon="-1.88731">
        <ele>50</ele>
        <time>2016-01-02T14:39:16Z</time>
      </trkpt>
      <trkpt lat="47.33402" lon="-1.88729">
        <ele>50</ele>
        <time>2016-01-02T14:39:18Z</time>
      </trkpt>
      <trkpt lat="47.33399" lon="-1.88728">
        <ele>50</ele>
        <time>2016-01-02T14:39:20Z</time>
      </trkpt>
      <trkpt lat="47.33396" lon="-1.88726">
        <ele>50</ele>
        <time>2016-01-02T14:39:22Z</time>
      </trkpt>
      <trkpt lat="47.33393" lon="-1.88723">
        <ele>50</ele>
        <time>2016-01-02T14:39:25Z</time>
      </trkpt>
      <trkpt lat="47.3339" lon="-1.8872">
        <ele>50</ele>
        <time>2016-01-02T14:39:27Z</time>
      </trkpt>
      <trkpt lat="47.33388" lon="-1.88717">
        <ele>51</ele>
        <time>2016-01-02T14:39:29Z</time>
      </trkpt>
      <trkpt lat="47.33386" lon="-1.88714">
        <ele>51</ele>
        <time>2016-01-02T14:39:31Z</time>
      </trkpt>
      <trkpt lat="47.33383" lon="-1.88712">
        <ele>51</ele>
        <time>2016-01-02T14:39:33Z</time>
      </trkpt>
      <trkpt lat="47.33381" lon="-1.88709">
        <ele>51</ele>
        <time>2016-01-02T14:39:35Z</time>
      </trkpt>
      <trkpt lat="47.33378" lon="-1.88702">
        <ele>51</ele>
        <time>2016-01-02T14:39:38Z</time>
      </trkpt>
      <trkpt lat="47.33374" lon="-1.88694">
        <ele>51</ele>
        <time>2016-01-02T14:39:40Z</time>
      </trkpt>
      <trkpt lat="47.33373" lon="-1.88689">
        <ele>51</ele>
        <time>2016-01-02T14:39:41Z</time>
      </trkpt>
      <trkpt lat="47.3337" lon="-1.88683">
        <ele>51</ele>
        <time>2016-01-02T14:39:43Z</time>
      </trkpt>
      <trkpt lat="47.33368" lon="-1.88676">
        <ele>51</ele>
        <time>2016-01-02T14:39:44Z</time>
      </trkpt>
      <trkpt lat="47.33366" lon="-1.8867">
        <ele>51</ele>
        <time>2016-01-02T14:39:46Z</time>
      </trkpt>
      <trkpt lat="47.33364" lon="-1.88664">
        <ele>52</ele>
        <time>2016-01-02T14:39:47Z</time>
      </trkpt>
      <trkpt lat="47.33363" lon="-1.88659">
        <ele>52</ele>
        <time>2016-01-02T14:39:48Z</time>
      </trkpt>
      <trkpt lat="47.33361" lon="-1.88654">
        <ele>53</ele>
        <time>2016-01-02T14:39:49Z</time>
      </trkpt>
      <trkpt lat="47.3336" lon="-1.88649">
        <ele>53</ele>
        <time>2016-01-02T14:39:50Z</time>
      </trkpt>
      <trkpt lat="47.33358" lon="-1.88646">
        <ele>53</ele>
        <time>2016-01-02T14:39:51Z</time>
      </trkpt>
      <trkpt lat="47.33356" lon="-1.8864">
        <ele>53</ele>
        <time>2016-01-02T14:39:52Z</time>
      </trkpt>
      <trkpt lat="47.33353" lon="-1.88633">
        <ele>53</ele>
        <time>2016-01-02T14:39:54Z</time>
      </trkpt>
      <trkpt lat="47.3335" lon="-1.88627">
        <ele>53</ele>
        <time>2016-01-02T14:39:55Z</time>
      </trkpt>
      <trkpt lat="47.33347" lon="-1.88621">
        <ele>53</ele>
        <time>2016-01-02T14:39:57Z</time>
      </trkpt>
      <trkpt lat="47.33344" lon="-1.88617">
        <ele>53</ele>
        <time>2016-01-02T14:39:58Z</time>
      </trkpt>
      <trkpt lat="47.33342" lon="-1.88613">
        <ele>53</ele>
        <time>2016-01-02T14:39:59Z</time>
      </trkpt>
      <trkpt lat="47.33341" lon="-1.88609">
        <ele>53</ele>
        <time>2016-01-02T14:40:00Z</time>
      </trkpt>
      <trkpt lat="47.33339" lon="-1.88605">
        <ele>53</ele>
        <time>2016-01-02T14:40:01Z</time>
      </trkpt>
      <trkpt lat="47.33338" lon="-1.88601">
        <ele>53</ele>
        <time>2016-01-02T14:40:02Z</time>
      </trkpt>
      <trkpt lat="47.33335" lon="-1.88593">
        <ele>54</ele>
        <time>2016-01-02T14:40:04Z</time>
      </trkpt>
      <trkpt lat="47.33334" lon="-1.88589">
        <ele>54</ele>
        <time>2016-01-02T14:40:05Z</time>
      </trkpt>
      <trkpt lat="47.33332" lon="-1.88584">
        <ele>54</ele>
        <time>2016-01-02T14:40:06Z</time>
      </trkpt>
      <trkpt lat="47.33331" lon="-1.8858">
        <ele>54</ele>
        <time>2016-01-02T14:40:07Z</time>
      </trkpt>
      <trkpt lat="47.33329" lon="-1.88576">
        <ele>54</ele>
        <time>2016-01-02T14:40:08Z</time>
      </trkpt>
      <trkpt lat="47.33328" lon="-1.88572">
        <ele>54</ele>
        <time>2016-01-02T14:40:09Z</time>
      </trkpt>
      <trkpt lat="47.33326" lon="-1.88568">
        <ele>54</ele>
        <time>2016-01-02T14:40:10Z</time>
      </trkpt>
      <trkpt lat="47.33325" lon="-1.88564">
        <ele>54</ele>
        <time>2016-01-02T14:40:11Z</time>
      </trkpt>
      <trkpt lat="47.33325" lon="-1.88559">
        <ele>54</ele>
        <time>2016-01-02T14:40:12Z</time>
      </trkpt>
      <trkpt lat="47.33324" lon="-1.88554">
        <ele>54</ele>
        <time>2016-01-02T14:40:13Z</time>
      </trkpt>
      <trkpt lat="47.33323" lon="-1.8855">
        <ele>54</ele>
        <time>2016-01-02T14:40:14Z</time>
      </trkpt>
      <trkpt lat="47.33321" lon="-1.88546">
        <ele>54</ele>
        <time>2016-01-02T14:40:15Z</time>
      </trkpt>
      <trkpt lat="47.33318" lon="-1.88543">
        <ele>54</ele>
        <time>2016-01-02T14:40:16Z</time>
      </trkpt>
      <trkpt lat="47.33315" lon="-1.88543">
        <ele>54</ele>
        <time>2016-01-02T14:40:17Z</time>
      </trkpt>
      <trkpt lat="47.33311" lon="-1.88544">
        <ele>54</ele>
        <time>2016-01-02T14:40:18Z</time>
      </trkpt>
      <trkpt lat="47.33309" lon="-1.88547">
        <ele>54</ele>
        <time>2016-01-02T14:40:19Z</time>
      </trkpt>
      <trkpt lat="47.33305" lon="-1.8855">
        <ele>54</ele>
        <time>2016-01-02T14:40:20Z</time>
      </trkpt>
      <trkpt lat="47.33302" lon="-1.88553">
        <ele>54</ele>
        <time>2016-01-02T14:40:21Z</time>
      </trkpt>
      <trkpt lat="47.33299" lon="-1.88555">
        <ele>54</ele>
        <time>2016-01-02T14:40:22Z</time>
      </trkpt>
      <trkpt lat="47.33296" lon="-1.88559">
        <ele>54</ele>
        <time>2016-01-02T14:40:23Z</time>
      </trkpt>
      <trkpt lat="47.33293" lon="-1.88561">
        <ele>54</ele>
        <time>2016-01-02T14:40:24Z</time>
      </trkpt>
      <trkpt lat="47.3329" lon="-1.88563">
        <ele>54</ele>
        <time>2016-01-02T14:40:25Z</time>
      </trkpt>
      <trkpt lat="47.33285" lon="-1.88563">
        <ele>54</ele>
        <time>2016-01-02T14:40:26Z</time>
      </trkpt>
      <trkpt lat="47.33282" lon="-1.88563">
        <ele>54</ele>
        <time>2016-01-02T14:40:27Z</time>
      </trkpt>
      <trkpt lat="47.33278" lon="-1.88563">
        <ele>54</ele>
        <time>2016-01-02T14:40:28Z</time>
      </trkpt>
      <trkpt lat="47.33273" lon="-1.88558">
        <ele>54</ele>
        <time>2016-01-02T14:40:29Z</time>
      </trkpt>
      <trkpt lat="47.3327" lon="-1.88553">
        <ele>54</ele>
        <time>2016-01-02T14:40:30Z</time>
      </trkpt>
      <trkpt lat="47.33266" lon="-1.88546">
        <ele>54</ele>
        <time>2016-01-02T14:40:31Z</time>
      </trkpt>
      <trkpt lat="47.33263" lon="-1.88541">
        <ele>54</ele>
        <time>2016-01-02T14:40:32Z</time>
      </trkpt>
      <trkpt lat="47.33259" lon="-1.88539">
        <ele>54</ele>
        <time>2016-01-02T14:40:33Z</time>
      </trkpt>
      <trkpt lat="47.33255" lon="-1.88537">
        <ele>54</ele>
        <time>2016-01-02T14:40:34Z</time>
      </trkpt>
      <trkpt lat="47.33252" lon="-1.88536">
        <ele>54</ele>
        <time>2016-01-02T14:40:35Z</time>
      </trkpt>
      <trkpt lat="47.33252" lon="-1.88542">
        <ele>54</ele>
        <time>2016-01-02T14:40:36Z</time>
      </trkpt>
      <trkpt lat="47.3325" lon="-1.88546">
        <ele>52</ele>
        <time>2016-01-02T14:40:37Z</time>
      </trkpt>
      <trkpt lat="47.3325" lon="-1.88552">
        <ele>52</ele>
        <time>2016-01-02T14:40:38Z</time>
      </trkpt>
      <trkpt lat="47.33248" lon="-1.88555">
        <ele>52</ele>
        <time>2016-01-02T14:40:39Z</time>
      </trkpt>
      <trkpt lat="47.33246" lon="-1.88559">
        <ele>51</ele>
        <time>2016-01-02T14:40:40Z</time>
      </trkpt>
      <trkpt lat="47.33242" lon="-1.88557">
        <ele>51</ele>
        <time>2016-01-02T14:40:43Z</time>
      </trkpt>
      <trkpt lat="47.33239" lon="-1.88549">
        <ele>51</ele>
        <time>2016-01-02T14:40:45Z</time>
      </trkpt>
      <trkpt lat="47.33237" lon="-1.88545">
        <ele>52</ele>
        <time>2016-01-02T14:40:46Z</time>
      </trkpt>
      <trkpt lat="47.33236" lon="-1.88542">
        <ele>52</ele>
        <time>2016-01-02T14:40:47Z</time>
      </trkpt>
      <trkpt lat="47.33234" lon="-1.88538">
        <ele>52</ele>
        <time>2016-01-02T14:40:48Z</time>
      </trkpt>
      <trkpt lat="47.33232" lon="-1.88535">
        <ele>52</ele>
        <time>2016-01-02T14:40:49Z</time>
      </trkpt>
      <trkpt lat="47.3323" lon="-1.88531">
        <ele>52</ele>
        <time>2016-01-02T14:40:50Z</time>
      </trkpt>
      <trkpt lat="47.33228" lon="-1.88528">
        <ele>52</ele>
        <time>2016-01-02T14:40:51Z</time>
      </trkpt>
      <trkpt lat="47.33225" lon="-1.88526">
        <ele>52</ele>
        <time>2016-01-02T14:40:52Z</time>
      </trkpt>
      <trkpt lat="47.33221" lon="-1.88522">
        <ele>52</ele>
        <time>2016-01-02T14:40:54Z</time>
      </trkpt>
      <trkpt lat="47.33218" lon="-1.88517">
        <ele>52</ele>
        <time>2016-01-02T14:40:55Z</time>
      </trkpt>
      <trkpt lat="47.33217" lon="-1.88511">
        <ele>52</ele>
        <time>2016-01-02T14:40:56Z</time>
      </trkpt>
      <trkpt lat="47.33216" lon="-1.88506">
        <ele>52</ele>
        <time>2016-01-02T14:40:57Z</time>
      </trkpt>
      <trkpt lat="47.33217" lon="-1.88497">
        <ele>55</ele>
        <time>2016-01-02T14:40:59Z</time>
      </trkpt>
      <trkpt lat="47.33218" lon="-1.8849">
        <ele>55</ele>
        <time>2016-01-02T14:41:01Z</time>
      </trkpt>
      <trkpt lat="47.33222" lon="-1.88486">
        <ele>55</ele>
        <time>2016-01-02T14:41:02Z</time>
      </trkpt>
      <trkpt lat="47.33225" lon="-1.88482">
        <ele>55</ele>
        <time>2016-01-02T14:41:03Z</time>
      </trkpt>
      <trkpt lat="47.33227" lon="-1.88479">
        <ele>55</ele>
        <time>2016-01-02T14:41:04Z</time>
      </trkpt>
      <trkpt lat="47.3323" lon="-1.88476">
        <ele>55</ele>
        <time>2016-01-02T14:41:05Z</time>
      </trkpt>
      <trkpt lat="47.33233" lon="-1.88473">
        <ele>55</ele>
        <time>2016-01-02T14:41:06Z</time>
      </trkpt>
      <trkpt lat="47.33236" lon="-1.8847">
        <ele>55</ele>
        <time>2016-01-02T14:41:07Z</time>
      </trkpt>
      <trkpt lat="47.33238" lon="-1.88467">
        <ele>55</ele>
        <time>2016-01-02T14:41:08Z</time>
      </trkpt>
      <trkpt lat="47.33241" lon="-1.88463">
        <ele>56</ele>
        <time>2016-01-02T14:41:09Z</time>
      </trkpt>
      <trkpt lat="47.33243" lon="-1.88459">
        <ele>56</ele>
        <time>2016-01-02T14:41:10Z</time>
      </trkpt>
      <trkpt lat="47.33245" lon="-1.88456">
        <ele>56</ele>
        <time>2016-01-02T14:41:11Z</time>
      </trkpt>
      <trkpt lat="47.33248" lon="-1.88451">
        <ele>56</ele>
        <time>2016-01-02T14:41:12Z</time>
      </trkpt>
      <trkpt lat="47.3325" lon="-1.88448">
        <ele>57</ele>
        <time>2016-01-02T14:41:13Z</time>
      </trkpt>
      <trkpt lat="47.33253" lon="-1.88444">
        <ele>57</ele>
        <time>2016-01-02T14:41:14Z</time>
      </trkpt>
      <trkpt lat="47.33256" lon="-1.88441">
        <ele>57</ele>
        <time>2016-01-02T14:41:15Z</time>
      </trkpt>
      <trkpt lat="47.33259" lon="-1.88438">
        <ele>57</ele>
        <time>2016-01-02T14:41:16Z</time>
      </trkpt>
      <trkpt lat="47.33262" lon="-1.88435">
        <ele>57</ele>
        <time>2016-01-02T14:41:17Z</time>
      </trkpt>
      <trkpt lat="47.33264" lon="-1.88432">
        <ele>57</ele>
        <time>2016-01-02T14:41:18Z</time>
      </trkpt>
      <trkpt lat="47.33267" lon="-1.88429">
        <ele>57</ele>
        <time>2016-01-02T14:41:19Z</time>
      </trkpt>
      <trkpt lat="47.33269" lon="-1.88425">
        <ele>57</ele>
        <time>2016-01-02T14:41:20Z</time>
      </trkpt>
      <trkpt lat="47.33272" lon="-1.88422">
        <ele>57</ele>
        <time>2016-01-02T14:41:21Z</time>
      </trkpt>
      <trkpt lat="47.33274" lon="-1.88418">
        <ele>57</ele>
        <time>2016-01-02T14:41:22Z</time>
      </trkpt>
      <trkpt lat="47.33277" lon="-1.88415">
        <ele>59</ele>
        <time>2016-01-02T14:41:23Z</time>
      </trkpt>
      <trkpt lat="47.3328" lon="-1.88411">
        <ele>59</ele>
        <time>2016-01-02T14:41:24Z</time>
      </trkpt>
      <trkpt lat="47.33282" lon="-1.88408">
        <ele>59</ele>
        <time>2016-01-02T14:41:25Z</time>
      </trkpt>
      <trkpt lat="47.33284" lon="-1.88405">
        <ele>59</ele>
        <time>2016-01-02T14:41:26Z</time>
      </trkpt>
      <trkpt lat="47.33285" lon="-1.88399">
        <ele>59</ele>
        <time>2016-01-02T14:41:27Z</time>
      </trkpt>
      <trkpt lat="47.33286" lon="-1.88393">
        <ele>59</ele>
        <time>2016-01-02T14:41:28Z</time>
      </trkpt>
      <trkpt lat="47.33287" lon="-1.88389">
        <ele>59</ele>
        <time>2016-01-02T14:41:29Z</time>
      </trkpt>
      <trkpt lat="47.33288" lon="-1.88385">
        <ele>59</ele>
        <time>2016-01-02T14:41:30Z</time>
      </trkpt>
      <trkpt lat="47.3329" lon="-1.8838">
        <ele>59</ele>
        <time>2016-01-02T14:41:31Z</time>
      </trkpt>
      <trkpt lat="47.33291" lon="-1.88376">
        <ele>59</ele>
        <time>2016-01-02T14:41:32Z</time>
      </trkpt>
      <trkpt lat="47.33292" lon="-1.88372">
        <ele>59</ele>
        <time>2016-01-02T14:41:33Z</time>
      </trkpt>
      <trkpt lat="47.33293" lon="-1.88367">
        <ele>59</ele>
        <time>2016-01-02T14:41:34Z</time>
      </trkpt>
      <trkpt lat="47.33293" lon="-1.88363">
        <ele>59</ele>
        <time>2016-01-02T14:41:35Z</time>
      </trkpt>
      <trkpt lat="47.33294" lon="-1.88359">
        <ele>59</ele>
        <time>2016-01-02T14:41:36Z</time>
      </trkpt>
      <trkpt lat="47.33294" lon="-1.88354">
        <ele>59</ele>
        <time>2016-01-02T14:41:37Z</time>
      </trkpt>
      <trkpt lat="47.33295" lon="-1.8835">
        <ele>59</ele>
        <time>2016-01-02T14:41:38Z</time>
      </trkpt>
      <trkpt lat="47.33296" lon="-1.88342">
        <ele>60</ele>
        <time>2016-01-02T14:41:40Z</time>
      </trkpt>
      <trkpt lat="47.33298" lon="-1.88339">
        <ele>60</ele>
        <time>2016-01-02T14:41:41Z</time>
      </trkpt>
      <trkpt lat="47.333" lon="-1.88336">
        <ele>60</ele>
        <time>2016-01-02T14:41:42Z</time>
      </trkpt>
      <trkpt lat="47.33302" lon="-1.88333">
        <ele>60</ele>
        <time>2016-01-02T14:41:43Z</time>
      </trkpt>
      <trkpt lat="47.33304" lon="-1.88329">
        <ele>60</ele>
        <time>2016-01-02T14:41:44Z</time>
      </trkpt>
      <trkpt lat="47.33304" lon="-1.88321">
        <ele>60</ele>
        <time>2016-01-02T14:41:46Z</time>
      </trkpt>
      <trkpt lat="47.33301" lon="-1.88314">
        <ele>60</ele>
        <time>2016-01-02T14:41:48Z</time>
      </trkpt>
      <trkpt lat="47.33299" lon="-1.88311">
        <ele>60</ele>
        <time>2016-01-02T14:41:49Z</time>
      </trkpt>
      <trkpt lat="47.33297" lon="-1.88304">
        <ele>60</ele>
        <time>2016-01-02T14:41:51Z</time>
      </trkpt>
      <trkpt lat="47.33295" lon="-1.883">
        <ele>60</ele>
        <time>2016-01-02T14:41:52Z</time>
      </trkpt>
      <trkpt lat="47.33293" lon="-1.88297">
        <ele>60</ele>
        <time>2016-01-02T14:41:53Z</time>
      </trkpt>
      <trkpt lat="47.33291" lon="-1.88294">
        <ele>60</ele>
        <time>2016-01-02T14:41:54Z</time>
      </trkpt>
      <trkpt lat="47.3329" lon="-1.88291">
        <ele>60</ele>
        <time>2016-01-02T14:41:55Z</time>
      </trkpt>
      <trkpt lat="47.33288" lon="-1.88287">
        <ele>60</ele>
        <time>2016-01-02T14:41:56Z</time>
      </trkpt>
      <trkpt lat="47.33286" lon="-1.88284">
        <ele>60</ele>
        <time>2016-01-02T14:41:57Z</time>
      </trkpt>
      <trkpt lat="47.33283" lon="-1.88277">
        <ele>60</ele>
        <time>2016-01-02T14:41:59Z</time>
      </trkpt>
      <trkpt lat="47.33283" lon="-1.88271">
        <ele>59</ele>
        <time>2016-01-02T14:42:01Z</time>
      </trkpt>
      <trkpt lat="47.33282" lon="-1.88265">
        <ele>59</ele>
        <time>2016-01-02T14:42:03Z</time>
      </trkpt>
      <trkpt lat="47.3328" lon="-1.88261">
        <ele>59</ele>
        <time>2016-01-02T14:42:07Z</time>
      </trkpt>
      <trkpt lat="47.33278" lon="-1.88258">
        <ele>59</ele>
        <time>2016-01-02T14:42:08Z</time>
      </trkpt>
      <trkpt lat="47.33277" lon="-1.88254">
        <ele>59</ele>
        <time>2016-01-02T14:42:09Z</time>
      </trkpt>
      <trkpt lat="47.33275" lon="-1.8825">
        <ele>59</ele>
        <time>2016-01-02T14:42:10Z</time>
      </trkpt>
      <trkpt lat="47.33274" lon="-1.88246">
        <ele>59</ele>
        <time>2016-01-02T14:42:11Z</time>
      </trkpt>
      <trkpt lat="47.33273" lon="-1.88242">
        <ele>59</ele>
        <time>2016-01-02T14:42:12Z</time>
      </trkpt>
      <trkpt lat="47.33271" lon="-1.88238">
        <ele>59</ele>
        <time>2016-01-02T14:42:13Z</time>
      </trkpt>
      <trkpt lat="47.3327" lon="-1.88234">
        <ele>59</ele>
        <time>2016-01-02T14:42:14Z</time>
      </trkpt>
      <trkpt lat="47.33269" lon="-1.8823">
        <ele>59</ele>
        <time>2016-01-02T14:42:15Z</time>
      </trkpt>
      <trkpt lat="47.33268" lon="-1.88226">
        <ele>59</ele>
        <time>2016-01-02T14:42:16Z</time>
      </trkpt>
      <trkpt lat="47.33267" lon="-1.88222">
        <ele>59</ele>
        <time>2016-01-02T14:42:17Z</time>
      </trkpt>
      <trkpt lat="47.33265" lon="-1.8822">
        <ele>59</ele>
        <time>2016-01-02T14:42:18Z</time>
      </trkpt>
      <trkpt lat="47.33263" lon="-1.88213">
        <ele>59</ele>
        <time>2016-01-02T14:42:20Z</time>
      </trkpt>
      <trkpt lat="47.33262" lon="-1.88209">
        <ele>59</ele>
        <time>2016-01-02T14:42:21Z</time>
      </trkpt>
      <trkpt lat="47.33265" lon="-1.88203">
        <ele>59</ele>
        <time>2016-01-02T14:42:22Z</time>
      </trkpt>
      <trkpt lat="47.33265" lon="-1.88199">
        <ele>58</ele>
        <time>2016-01-02T14:42:23Z</time>
      </trkpt>
      <trkpt lat="47.33265" lon="-1.88195">
        <ele>58</ele>
        <time>2016-01-02T14:42:24Z</time>
      </trkpt>
      <trkpt lat="47.33268" lon="-1.88188">
        <ele>58</ele>
        <time>2016-01-02T14:42:25Z</time>
      </trkpt>
      <trkpt lat="47.3327" lon="-1.88183">
        <ele>58</ele>
        <time>2016-01-02T14:42:26Z</time>
      </trkpt>
      <trkpt lat="47.33272" lon="-1.88178">
        <ele>58</ele>
        <time>2016-01-02T14:42:27Z</time>
      </trkpt>
      <trkpt lat="47.33272" lon="-1.88174">
        <ele>58</ele>
        <time>2016-01-02T14:42:28Z</time>
      </trkpt>
      <trkpt lat="47.33273" lon="-1.8817">
        <ele>58</ele>
        <time>2016-01-02T14:42:29Z</time>
      </trkpt>
      <trkpt lat="47.33275" lon="-1.88167">
        <ele>58</ele>
        <time>2016-01-02T14:42:30Z</time>
      </trkpt>
      <trkpt lat="47.33277" lon="-1.88159">
        <ele>59</ele>
        <time>2016-01-02T14:42:32Z</time>
      </trkpt>
      <trkpt lat="47.33278" lon="-1.88155">
        <ele>59</ele>
        <time>2016-01-02T14:42:33Z</time>
      </trkpt>
      <trkpt lat="47.33279" lon="-1.88151">
        <ele>59</ele>
        <time>2016-01-02T14:42:34Z</time>
      </trkpt>
      <trkpt lat="47.3328" lon="-1.88144">
        <ele>59</ele>
        <time>2016-01-02T14:42:36Z</time>
      </trkpt>
      <trkpt lat="47.33283" lon="-1.88141">
        <ele>59</ele>
        <time>2016-01-02T14:42:37Z</time>
      </trkpt>
      <trkpt lat="47.33285" lon="-1.88138">
        <ele>59</ele>
        <time>2016-01-02T14:42:38Z</time>
      </trkpt>
      <trkpt lat="47.33288" lon="-1.88131">
        <ele>59</ele>
        <time>2016-01-02T14:42:40Z</time>
      </trkpt>
      <trkpt lat="47.33291" lon="-1.88125">
        <ele>59</ele>
        <time>2016-01-02T14:42:42Z</time>
      </trkpt>
      <trkpt lat="47.33296" lon="-1.88119">
        <ele>60</ele>
        <time>2016-01-02T14:42:44Z</time>
      </trkpt>
      <trkpt lat="47.33298" lon="-1.88115">
        <ele>60</ele>
        <time>2016-01-02T14:42:45Z</time>
      </trkpt>
      <trkpt lat="47.333" lon="-1.88113">
        <ele>60</ele>
        <time>2016-01-02T14:42:46Z</time>
      </trkpt>
      <trkpt lat="47.33303" lon="-1.88107">
        <ele>60</ele>
        <time>2016-01-02T14:42:48Z</time>
      </trkpt>
      <trkpt lat="47.33305" lon="-1.88101">
        <ele>60</ele>
        <time>2016-01-02T14:42:50Z</time>
      </trkpt>
      <trkpt lat="47.33308" lon="-1.88095">
        <ele>61</ele>
        <time>2016-01-02T14:42:52Z</time>
      </trkpt>
      <trkpt lat="47.3331" lon="-1.88088">
        <ele>61</ele>
        <time>2016-01-02T14:42:54Z</time>
      </trkpt>
      <trkpt lat="47.33312" lon="-1.88081">
        <ele>62</ele>
        <time>2016-01-02T14:42:56Z</time>
      </trkpt>
      <trkpt lat="47.33316" lon="-1.88077">
        <ele>62</ele>
        <time>2016-01-02T14:42:58Z</time>
      </trkpt>
      <trkpt lat="47.3332" lon="-1.88074">
        <ele>62</ele>
        <time>2016-01-02T14:43:00Z</time>
      </trkpt>
      <trkpt lat="47.33325" lon="-1.88073">
        <ele>63</ele>
        <time>2016-01-02T14:43:02Z</time>
      </trkpt>
      <trkpt lat="47.3333" lon="-1.88072">
        <ele>63</ele>
        <time>2016-01-02T14:43:04Z</time>
      </trkpt>
      <trkpt lat="47.33334" lon="-1.88073">
        <ele>64</ele>
        <time>2016-01-02T14:43:05Z</time>
      </trkpt>
      <trkpt lat="47.33339" lon="-1.88073">
        <ele>64</ele>
        <time>2016-01-02T14:43:07Z</time>
      </trkpt>
      <trkpt lat="47.33342" lon="-1.88073">
        <ele>64</ele>
        <time>2016-01-02T14:43:08Z</time>
      </trkpt>
      <trkpt lat="47.33346" lon="-1.88073">
        <ele>64</ele>
        <time>2016-01-02T14:43:09Z</time>
      </trkpt>
      <trkpt lat="47.33349" lon="-1.88073">
        <ele>64</ele>
        <time>2016-01-02T14:43:10Z</time>
      </trkpt>
      <trkpt lat="47.33352" lon="-1.88073">
        <ele>64</ele>
        <time>2016-01-02T14:43:11Z</time>
      </trkpt>
      <trkpt lat="47.33355" lon="-1.88073">
        <ele>64</ele>
        <time>2016-01-02T14:43:12Z</time>
      </trkpt>
      <trkpt lat="47.33358" lon="-1.88073">
        <ele>64</ele>
        <time>2016-01-02T14:43:13Z</time>
      </trkpt>
      <trkpt lat="47.33361" lon="-1.88073">
        <ele>64</ele>
        <time>2016-01-02T14:43:14Z</time>
      </trkpt>
      <trkpt lat="47.33364" lon="-1.88073">
        <ele>64</ele>
        <time>2016-01-02T14:43:15Z</time>
      </trkpt>
      <trkpt lat="47.33367" lon="-1.88073">
        <ele>64</ele>
        <time>2016-01-02T14:43:16Z</time>
      </trkpt>
      <trkpt lat="47.3337" lon="-1.88073">
        <ele>64</ele>
        <time>2016-01-02T14:43:17Z</time>
      </trkpt>
      <trkpt lat="47.33374" lon="-1.88072">
        <ele>65</ele>
        <time>2016-01-02T14:43:18Z</time>
      </trkpt>
      <trkpt lat="47.33377" lon="-1.88072">
        <ele>65</ele>
        <time>2016-01-02T14:43:19Z</time>
      </trkpt>
      <trkpt lat="47.33381" lon="-1.88071">
        <ele>65</ele>
        <time>2016-01-02T14:43:20Z</time>
      </trkpt>
      <trkpt lat="47.33384" lon="-1.88071">
        <ele>65</ele>
        <time>2016-01-02T14:43:21Z</time>
      </trkpt>
      <trkpt lat="47.33388" lon="-1.8807">
        <ele>65</ele>
        <time>2016-01-02T14:43:22Z</time>
      </trkpt>
      <trkpt lat="47.33391" lon="-1.88069">
        <ele>65</ele>
        <time>2016-01-02T14:43:23Z</time>
      </trkpt>
      <trkpt lat="47.33393" lon="-1.88068">
        <ele>65</ele>
        <time>2016-01-02T14:43:24Z</time>
      </trkpt>
      <trkpt lat="47.33396" lon="-1.88069">
        <ele>64</ele>
        <time>2016-01-02T14:43:25Z</time>
      </trkpt>
      <trkpt lat="47.33401" lon="-1.88069">
        <ele>64</ele>
        <time>2016-01-02T14:43:27Z</time>
      </trkpt>
      <trkpt lat="47.33406" lon="-1.88069">
        <ele>64</ele>
        <time>2016-01-02T14:43:29Z</time>
      </trkpt>
      <trkpt lat="47.33409" lon="-1.88069">
        <ele>64</ele>
        <time>2016-01-02T14:43:30Z</time>
      </trkpt>
      <trkpt lat="47.33413" lon="-1.88066">
        <ele>64</ele>
        <time>2016-01-02T14:43:32Z</time>
      </trkpt>
      <trkpt lat="47.33415" lon="-1.8806">
        <ele>65</ele>
        <time>2016-01-02T14:43:34Z</time>
      </trkpt>
      <trkpt lat="47.33414" lon="-1.88056">
        <ele>65</ele>
        <time>2016-01-02T14:43:35Z</time>
      </trkpt>
      <trkpt lat="47.33414" lon="-1.88051">
        <ele>65</ele>
        <time>2016-01-02T14:43:36Z</time>
      </trkpt>
      <trkpt lat="47.33413" lon="-1.88046">
        <ele>65</ele>
        <time>2016-01-02T14:43:37Z</time>
      </trkpt>
      <trkpt lat="47.33412" lon="-1.88041">
        <ele>65</ele>
        <time>2016-01-02T14:43:38Z</time>
      </trkpt>
      <trkpt lat="47.3341" lon="-1.88035">
        <ele>65</ele>
        <time>2016-01-02T14:43:39Z</time>
      </trkpt>
      <trkpt lat="47.33409" lon="-1.88031">
        <ele>65</ele>
        <time>2016-01-02T14:43:40Z</time>
      </trkpt>
      <trkpt lat="47.33408" lon="-1.88026">
        <ele>65</ele>
        <time>2016-01-02T14:43:41Z</time>
      </trkpt>
      <trkpt lat="47.33407" lon="-1.88021">
        <ele>65</ele>
        <time>2016-01-02T14:43:42Z</time>
      </trkpt>
      <trkpt lat="47.33406" lon="-1.88016">
        <ele>65</ele>
        <time>2016-01-02T14:43:43Z</time>
      </trkpt>
      <trkpt lat="47.33405" lon="-1.88011">
        <ele>65</ele>
        <time>2016-01-02T14:43:44Z</time>
      </trkpt>
      <trkpt lat="47.33404" lon="-1.88006">
        <ele>65</ele>
        <time>2016-01-02T14:43:45Z</time>
      </trkpt>
      <trkpt lat="47.33403" lon="-1.88001">
        <ele>65</ele>
        <time>2016-01-02T14:43:46Z</time>
      </trkpt>
      <trkpt lat="47.33402" lon="-1.87997">
        <ele>66</ele>
        <time>2016-01-02T14:43:47Z</time>
      </trkpt>
      <trkpt lat="47.33401" lon="-1.87992">
        <ele>65</ele>
        <time>2016-01-02T14:43:48Z</time>
      </trkpt>
      <trkpt lat="47.33401" lon="-1.87987">
        <ele>65</ele>
        <time>2016-01-02T14:43:49Z</time>
      </trkpt>
      <trkpt lat="47.334" lon="-1.87983">
        <ele>65</ele>
        <time>2016-01-02T14:43:50Z</time>
      </trkpt>
      <trkpt lat="47.33399" lon="-1.87976">
        <ele>65</ele>
        <time>2016-01-02T14:43:51Z</time>
      </trkpt>
      <trkpt lat="47.33399" lon="-1.87972">
        <ele>65</ele>
        <time>2016-01-02T14:43:52Z</time>
      </trkpt>
      <trkpt lat="47.33398" lon="-1.87967">
        <ele>65</ele>
        <time>2016-01-02T14:43:53Z</time>
      </trkpt>
      <trkpt lat="47.33397" lon="-1.8796">
        <ele>65</ele>
        <time>2016-01-02T14:43:54Z</time>
      </trkpt>
      <trkpt lat="47.33396" lon="-1.87955">
        <ele>65</ele>
        <time>2016-01-02T14:43:55Z</time>
      </trkpt>
      <trkpt lat="47.33395" lon="-1.87951">
        <ele>65</ele>
        <time>2016-01-02T14:43:56Z</time>
      </trkpt>
      <trkpt lat="47.33394" lon="-1.87945">
        <ele>65</ele>
        <time>2016-01-02T14:43:57Z</time>
      </trkpt>
      <trkpt lat="47.33393" lon="-1.87939">
        <ele>65</ele>
        <time>2016-01-02T14:43:58Z</time>
      </trkpt>
      <trkpt lat="47.33393" lon="-1.87933">
        <ele>65</ele>
        <time>2016-01-02T14:43:59Z</time>
      </trkpt>
      <trkpt lat="47.33392" lon="-1.87928">
        <ele>65</ele>
        <time>2016-01-02T14:44:00Z</time>
      </trkpt>
      <trkpt lat="47.33391" lon="-1.87922">
        <ele>65</ele>
        <time>2016-01-02T14:44:01Z</time>
      </trkpt>
      <trkpt lat="47.3339" lon="-1.87916">
        <ele>64</ele>
        <time>2016-01-02T14:44:02Z</time>
      </trkpt>
      <trkpt lat="47.33389" lon="-1.87911">
        <ele>64</ele>
        <time>2016-01-02T14:44:03Z</time>
      </trkpt>
      <trkpt lat="47.33385" lon="-1.87897">
        <ele>64</ele>
        <time>2016-01-02T14:44:04Z</time>
      </trkpt>
      <trkpt lat="47.33384" lon="-1.8789">
        <ele>63</ele>
        <time>2016-01-02T14:44:05Z</time>
      </trkpt>
      <trkpt lat="47.33383" lon="-1.87883">
        <ele>63</ele>
        <time>2016-01-02T14:44:06Z</time>
      </trkpt>
      <trkpt lat="47.33382" lon="-1.87874">
        <ele>63</ele>
        <time>2016-01-02T14:44:07Z</time>
      </trkpt>
      <trkpt lat="47.33381" lon="-1.87864">
        <ele>63</ele>
        <time>2016-01-02T14:44:08Z</time>
      </trkpt>
      <trkpt lat="47.33382" lon="-1.87855">
        <ele>63</ele>
        <time>2016-01-02T14:44:09Z</time>
      </trkpt>
      <trkpt lat="47.33382" lon="-1.87847">
        <ele>63</ele>
        <time>2016-01-02T14:44:10Z</time>
      </trkpt>
      <trkpt lat="47.33383" lon="-1.87839">
        <ele>63</ele>
        <time>2016-01-02T14:44:11Z</time>
      </trkpt>
      <trkpt lat="47.33383" lon="-1.87831">
        <ele>62</ele>
        <time>2016-01-02T14:44:12Z</time>
      </trkpt>
      <trkpt lat="47.33382" lon="-1.87821">
        <ele>62</ele>
        <time>2016-01-02T14:44:13Z</time>
      </trkpt>
      <trkpt lat="47.33382" lon="-1.87813">
        <ele>62</ele>
        <time>2016-01-02T14:44:14Z</time>
      </trkpt>
      <trkpt lat="47.33383" lon="-1.87805">
        <ele>62</ele>
        <time>2016-01-02T14:44:15Z</time>
      </trkpt>
      <trkpt lat="47.33384" lon="-1.87796">
        <ele>62</ele>
        <time>2016-01-02T14:44:16Z</time>
      </trkpt>
      <trkpt lat="47.33387" lon="-1.87792">
        <ele>62</ele>
        <time>2016-01-02T14:44:17Z</time>
      </trkpt>
      <trkpt lat="47.33392" lon="-1.87787">
        <ele>61</ele>
        <time>2016-01-02T14:44:18Z</time>
      </trkpt>
      <trkpt lat="47.33396" lon="-1.87785">
        <ele>61</ele>
        <time>2016-01-02T14:44:19Z</time>
      </trkpt>
      <trkpt lat="47.334" lon="-1.87783">
        <ele>61</ele>
        <time>2016-01-02T14:44:20Z</time>
      </trkpt>
      <trkpt lat="47.33405" lon="-1.87782">
        <ele>61</ele>
        <time>2016-01-02T14:44:21Z</time>
      </trkpt>
      <trkpt lat="47.33407" lon="-1.87782">
        <ele>61</ele>
        <time>2016-01-02T14:44:22Z</time>
      </trkpt>
      <trkpt lat="47.33413" lon="-1.87783">
        <ele>61</ele>
        <time>2016-01-02T14:44:23Z</time>
      </trkpt>
      <trkpt lat="47.33417" lon="-1.87782">
        <ele>62</ele>
        <time>2016-01-02T14:44:24Z</time>
      </trkpt>
      <trkpt lat="47.33421" lon="-1.87782">
        <ele>62</ele>
        <time>2016-01-02T14:44:25Z</time>
      </trkpt>
      <trkpt lat="47.33425" lon="-1.87782">
        <ele>62</ele>
        <time>2016-01-02T14:44:26Z</time>
      </trkpt>
      <trkpt lat="47.33429" lon="-1.87782">
        <ele>62</ele>
        <time>2016-01-02T14:44:27Z</time>
      </trkpt>
      <trkpt lat="47.33432" lon="-1.87781">
        <ele>62</ele>
        <time>2016-01-02T14:44:28Z</time>
      </trkpt>
      <trkpt lat="47.33435" lon="-1.87781">
        <ele>62</ele>
        <time>2016-01-02T14:44:29Z</time>
      </trkpt>
      <trkpt lat="47.33439" lon="-1.87781">
        <ele>62</ele>
        <time>2016-01-02T14:44:30Z</time>
      </trkpt>
      <trkpt lat="47.33442" lon="-1.8778">
        <ele>62</ele>
        <time>2016-01-02T14:44:31Z</time>
      </trkpt>
      <trkpt lat="47.33445" lon="-1.87779">
        <ele>62</ele>
        <time>2016-01-02T14:44:32Z</time>
      </trkpt>
      <trkpt lat="47.33448" lon="-1.87778">
        <ele>62</ele>
        <time>2016-01-02T14:44:33Z</time>
      </trkpt>
      <trkpt lat="47.33451" lon="-1.87776">
        <ele>62</ele>
        <time>2016-01-02T14:44:34Z</time>
      </trkpt>
      <trkpt lat="47.33454" lon="-1.87774">
        <ele>62</ele>
        <time>2016-01-02T14:44:35Z</time>
      </trkpt>
      <trkpt lat="47.33457" lon="-1.87772">
        <ele>62</ele>
        <time>2016-01-02T14:44:36Z</time>
      </trkpt>
      <trkpt lat="47.33461" lon="-1.8777">
        <ele>63</ele>
        <time>2016-01-02T14:44:37Z</time>
      </trkpt>
      <trkpt lat="47.33465" lon="-1.87768">
        <ele>63</ele>
        <time>2016-01-02T14:44:38Z</time>
      </trkpt>
      <trkpt lat="47.33469" lon="-1.87765">
        <ele>63</ele>
        <time>2016-01-02T14:44:39Z</time>
      </trkpt>
      <trkpt lat="47.33473" lon="-1.87762">
        <ele>63</ele>
        <time>2016-01-02T14:44:40Z</time>
      </trkpt>
      <trkpt lat="47.33478" lon="-1.87758">
        <ele>63</ele>
        <time>2016-01-02T14:44:41Z</time>
      </trkpt>
      <trkpt lat="47.33483" lon="-1.87754">
        <ele>63</ele>
        <time>2016-01-02T14:44:42Z</time>
      </trkpt>
      <trkpt lat="47.33487" lon="-1.87751">
        <ele>63</ele>
        <time>2016-01-02T14:44:43Z</time>
      </trkpt>
      <trkpt lat="47.33491" lon="-1.87749">
        <ele>64</ele>
        <time>2016-01-02T14:44:44Z</time>
      </trkpt>
      <trkpt lat="47.33495" lon="-1.87746">
        <ele>64</ele>
        <time>2016-01-02T14:44:45Z</time>
      </trkpt>
      <trkpt lat="47.33498" lon="-1.87743">
        <ele>64</ele>
        <time>2016-01-02T14:44:46Z</time>
      </trkpt>
      <trkpt lat="47.33502" lon="-1.87739">
        <ele>64</ele>
        <time>2016-01-02T14:44:47Z</time>
      </trkpt>
      <trkpt lat="47.33505" lon="-1.87733">
        <ele>64</ele>
        <time>2016-01-02T14:44:48Z</time>
      </trkpt>
      <trkpt lat="47.33507" lon="-1.87728">
        <ele>64</ele>
        <time>2016-01-02T14:44:49Z</time>
      </trkpt>
      <trkpt lat="47.33509" lon="-1.87721">
        <ele>64</ele>
        <time>2016-01-02T14:44:50Z</time>
      </trkpt>
      <trkpt lat="47.3351" lon="-1.87715">
        <ele>64</ele>
        <time>2016-01-02T14:44:51Z</time>
      </trkpt>
      <trkpt lat="47.33511" lon="-1.87709">
        <ele>64</ele>
        <time>2016-01-02T14:44:52Z</time>
      </trkpt>
      <trkpt lat="47.33513" lon="-1.87703">
        <ele>64</ele>
        <time>2016-01-02T14:44:53Z</time>
      </trkpt>
      <trkpt lat="47.33516" lon="-1.87698">
        <ele>64</ele>
        <time>2016-01-02T14:44:54Z</time>
      </trkpt>
      <trkpt lat="47.33519" lon="-1.87693">
        <ele>64</ele>
        <time>2016-01-02T14:44:55Z</time>
      </trkpt>
      <trkpt lat="47.33522" lon="-1.87689">
        <ele>64</ele>
        <time>2016-01-02T14:44:56Z</time>
      </trkpt>
      <trkpt lat="47.33524" lon="-1.87684">
        <ele>64</ele>
        <time>2016-01-02T14:44:57Z</time>
      </trkpt>
      <trkpt lat="47.33527" lon="-1.8768">
        <ele>64</ele>
        <time>2016-01-02T14:44:58Z</time>
      </trkpt>
      <trkpt lat="47.3353" lon="-1.87675">
        <ele>64</ele>
        <time>2016-01-02T14:44:59Z</time>
      </trkpt>
      <trkpt lat="47.33532" lon="-1.87669">
        <ele>64</ele>
        <time>2016-01-02T14:45:00Z</time>
      </trkpt>
      <trkpt lat="47.33536" lon="-1.87664">
        <ele>65</ele>
        <time>2016-01-02T14:45:01Z</time>
      </trkpt>
      <trkpt lat="47.33539" lon="-1.87659">
        <ele>65</ele>
        <time>2016-01-02T14:45:02Z</time>
      </trkpt>
      <trkpt lat="47.33542" lon="-1.87654">
        <ele>65</ele>
        <time>2016-01-02T14:45:03Z</time>
      </trkpt>
      <trkpt lat="47.33545" lon="-1.8765">
        <ele>65</ele>
        <time>2016-01-02T14:45:04Z</time>
      </trkpt>
      <trkpt lat="47.33549" lon="-1.87643">
        <ele>65</ele>
        <time>2016-01-02T14:45:06Z</time>
      </trkpt>
      <trkpt lat="47.33552" lon="-1.87639">
        <ele>65</ele>
        <time>2016-01-02T14:45:07Z</time>
      </trkpt>
      <trkpt lat="47.33557" lon="-1.87638">
        <ele>65</ele>
        <time>2016-01-02T14:45:08Z</time>
      </trkpt>
      <trkpt lat="47.33562" lon="-1.87634">
        <ele>65</ele>
        <time>2016-01-02T14:45:09Z</time>
      </trkpt>
      <trkpt lat="47.33566" lon="-1.87631">
        <ele>65</ele>
        <time>2016-01-02T14:45:10Z</time>
      </trkpt>
      <trkpt lat="47.33569" lon="-1.87628">
        <ele>65</ele>
        <time>2016-01-02T14:45:11Z</time>
      </trkpt>
      <trkpt lat="47.33572" lon="-1.87622">
        <ele>65</ele>
        <time>2016-01-02T14:45:12Z</time>
      </trkpt>
      <trkpt lat="47.33574" lon="-1.87618">
        <ele>65</ele>
        <time>2016-01-02T14:45:13Z</time>
      </trkpt>
      <trkpt lat="47.33578" lon="-1.87614">
        <ele>65</ele>
        <time>2016-01-02T14:45:14Z</time>
      </trkpt>
      <trkpt lat="47.33581" lon="-1.87611">
        <ele>65</ele>
        <time>2016-01-02T14:45:15Z</time>
      </trkpt>
      <trkpt lat="47.33583" lon="-1.87605">
        <ele>65</ele>
        <time>2016-01-02T14:45:16Z</time>
      </trkpt>
      <trkpt lat="47.33586" lon="-1.87601">
        <ele>67</ele>
        <time>2016-01-02T14:45:17Z</time>
      </trkpt>
      <trkpt lat="47.33589" lon="-1.87598">
        <ele>67</ele>
        <time>2016-01-02T14:45:18Z</time>
      </trkpt>
      <trkpt lat="47.33592" lon="-1.87594">
        <ele>67</ele>
        <time>2016-01-02T14:45:19Z</time>
      </trkpt>
      <trkpt lat="47.33595" lon="-1.8759">
        <ele>67</ele>
        <time>2016-01-02T14:45:20Z</time>
      </trkpt>
      <trkpt lat="47.33598" lon="-1.87587">
        <ele>67</ele>
        <time>2016-01-02T14:45:21Z</time>
      </trkpt>
      <trkpt lat="47.336" lon="-1.87584">
        <ele>67</ele>
        <time>2016-01-02T14:45:22Z</time>
      </trkpt>
      <trkpt lat="47.33603" lon="-1.8758">
        <ele>67</ele>
        <time>2016-01-02T14:45:23Z</time>
      </trkpt>
      <trkpt lat="47.33605" lon="-1.87575">
        <ele>67</ele>
        <time>2016-01-02T14:45:24Z</time>
      </trkpt>
      <trkpt lat="47.33607" lon="-1.87571">
        <ele>67</ele>
        <time>2016-01-02T14:45:25Z</time>
      </trkpt>
      <trkpt lat="47.33609" lon="-1.87567">
        <ele>68</ele>
        <time>2016-01-02T14:45:26Z</time>
      </trkpt>
      <trkpt lat="47.33611" lon="-1.87564">
        <ele>68</ele>
        <time>2016-01-02T14:45:27Z</time>
      </trkpt>
      <trkpt lat="47.33614" lon="-1.87561">
        <ele>68</ele>
        <time>2016-01-02T14:45:28Z</time>
      </trkpt>
      <trkpt lat="47.33617" lon="-1.87558">
        <ele>68</ele>
        <time>2016-01-02T14:45:29Z</time>
      </trkpt>
      <trkpt lat="47.3362" lon="-1.87555">
        <ele>68</ele>
        <time>2016-01-02T14:45:30Z</time>
      </trkpt>
      <trkpt lat="47.33623" lon="-1.87552">
        <ele>68</ele>
        <time>2016-01-02T14:45:31Z</time>
      </trkpt>
      <trkpt lat="47.33626" lon="-1.87551">
        <ele>68</ele>
        <time>2016-01-02T14:45:32Z</time>
      </trkpt>
      <trkpt lat="47.33629" lon="-1.87548">
        <ele>68</ele>
        <time>2016-01-02T14:45:33Z</time>
      </trkpt>
      <trkpt lat="47.33632" lon="-1.87546">
        <ele>68</ele>
        <time>2016-01-02T14:45:34Z</time>
      </trkpt>
      <trkpt lat="47.33635" lon="-1.87547">
        <ele>68</ele>
        <time>2016-01-02T14:45:35Z</time>
      </trkpt>
      <trkpt lat="47.33638" lon="-1.87545">
        <ele>68</ele>
        <time>2016-01-02T14:45:36Z</time>
      </trkpt>
      <trkpt lat="47.33641" lon="-1.87544">
        <ele>68</ele>
        <time>2016-01-02T14:45:37Z</time>
      </trkpt>
      <trkpt lat="47.33644" lon="-1.87542">
        <ele>68</ele>
        <time>2016-01-02T14:45:38Z</time>
      </trkpt>
      <trkpt lat="47.33646" lon="-1.87538">
        <ele>68</ele>
        <time>2016-01-02T14:45:39Z</time>
      </trkpt>
      <trkpt lat="47.33649" lon="-1.87535">
        <ele>68</ele>
        <time>2016-01-02T14:45:40Z</time>
      </trkpt>
      <trkpt lat="47.33652" lon="-1.87532">
        <ele>68</ele>
        <time>2016-01-02T14:45:41Z</time>
      </trkpt>
      <trkpt lat="47.3366" lon="-1.87533">
        <ele>68</ele>
        <time>2016-01-02T14:45:42Z</time>
      </trkpt>
      <trkpt lat="47.33663" lon="-1.87531">
        <ele>69</ele>
        <time>2016-01-02T14:45:43Z</time>
      </trkpt>
      <trkpt lat="47.33666" lon="-1.87528">
        <ele>69</ele>
        <time>2016-01-02T14:45:44Z</time>
      </trkpt>
      <trkpt lat="47.33674" lon="-1.87531">
        <ele>70</ele>
        <time>2016-01-02T14:45:45Z</time>
      </trkpt>
      <trkpt lat="47.33676" lon="-1.87528">
        <ele>70</ele>
        <time>2016-01-02T14:45:46Z</time>
      </trkpt>
      <trkpt lat="47.3368" lon="-1.87527">
        <ele>70</ele>
        <time>2016-01-02T14:45:47Z</time>
      </trkpt>
      <trkpt lat="47.33683" lon="-1.87526">
        <ele>70</ele>
        <time>2016-01-02T14:45:48Z</time>
      </trkpt>
      <trkpt lat="47.33687" lon="-1.87524">
        <ele>70</ele>
        <time>2016-01-02T14:45:49Z</time>
      </trkpt>
      <trkpt lat="47.3369" lon="-1.87522">
        <ele>70</ele>
        <time>2016-01-02T14:45:50Z</time>
      </trkpt>
      <trkpt lat="47.33693" lon="-1.8752">
        <ele>70</ele>
        <time>2016-01-02T14:45:51Z</time>
      </trkpt>
      <trkpt lat="47.33697" lon="-1.87517">
        <ele>70</ele>
        <time>2016-01-02T14:45:52Z</time>
      </trkpt>
      <trkpt lat="47.337" lon="-1.87515">
        <ele>70</ele>
        <time>2016-01-02T14:45:53Z</time>
      </trkpt>
      <trkpt lat="47.33704" lon="-1.87513">
        <ele>70</ele>
        <time>2016-01-02T14:45:54Z</time>
      </trkpt>
      <trkpt lat="47.33708" lon="-1.8751">
        <ele>70</ele>
        <time>2016-01-02T14:45:55Z</time>
      </trkpt>
      <trkpt lat="47.33712" lon="-1.87508">
        <ele>70</ele>
        <time>2016-01-02T14:45:56Z</time>
      </trkpt>
      <trkpt lat="47.33716" lon="-1.87506">
        <ele>70</ele>
        <time>2016-01-02T14:45:57Z</time>
      </trkpt>
      <trkpt lat="47.3372" lon="-1.87504">
        <ele>70</ele>
        <time>2016-01-02T14:45:58Z</time>
      </trkpt>
      <trkpt lat="47.33724" lon="-1.87502">
        <ele>70</ele>
        <time>2016-01-02T14:45:59Z</time>
      </trkpt>
      <trkpt lat="47.33728" lon="-1.87501">
        <ele>70</ele>
        <time>2016-01-02T14:46:00Z</time>
      </trkpt>
      <trkpt lat="47.33732" lon="-1.87499">
        <ele>70</ele>
        <time>2016-01-02T14:46:01Z</time>
      </trkpt>
      <trkpt lat="47.33737" lon="-1.87497">
        <ele>71</ele>
        <time>2016-01-02T14:46:02Z</time>
      </trkpt>
      <trkpt lat="47.33741" lon="-1.87495">
        <ele>71</ele>
        <time>2016-01-02T14:46:03Z</time>
      </trkpt>
      <trkpt lat="47.33744" lon="-1.87493">
        <ele>71</ele>
        <time>2016-01-02T14:46:04Z</time>
      </trkpt>
      <trkpt lat="47.33748" lon="-1.87492">
        <ele>71</ele>
        <time>2016-01-02T14:46:05Z</time>
      </trkpt>
      <trkpt lat="47.33752" lon="-1.8749">
        <ele>72</ele>
        <time>2016-01-02T14:46:06Z</time>
      </trkpt>
      <trkpt lat="47.33756" lon="-1.87487">
        <ele>72</ele>
        <time>2016-01-02T14:46:07Z</time>
      </trkpt>
      <trkpt lat="47.3376" lon="-1.87484">
        <ele>72</ele>
        <time>2016-01-02T14:46:08Z</time>
      </trkpt>
      <trkpt lat="47.33763" lon="-1.87481">
        <ele>72</ele>
        <time>2016-01-02T14:46:09Z</time>
      </trkpt>
      <trkpt lat="47.33767" lon="-1.87478">
        <ele>72</ele>
        <time>2016-01-02T14:46:10Z</time>
      </trkpt>
      <trkpt lat="47.3377" lon="-1.87475">
        <ele>72</ele>
        <time>2016-01-02T14:46:11Z</time>
      </trkpt>
      <trkpt lat="47.33774" lon="-1.87472">
        <ele>73</ele>
        <time>2016-01-02T14:46:12Z</time>
      </trkpt>
      <trkpt lat="47.33777" lon="-1.87469">
        <ele>73</ele>
        <time>2016-01-02T14:46:13Z</time>
      </trkpt>
      <trkpt lat="47.33781" lon="-1.87467">
        <ele>73</ele>
        <time>2016-01-02T14:46:14Z</time>
      </trkpt>
      <trkpt lat="47.33784" lon="-1.87464">
        <ele>73</ele>
        <time>2016-01-02T14:46:15Z</time>
      </trkpt>
      <trkpt lat="47.33788" lon="-1.87461">
        <ele>73</ele>
        <time>2016-01-02T14:46:16Z</time>
      </trkpt>
      <trkpt lat="47.33791" lon="-1.87458">
        <ele>73</ele>
        <time>2016-01-02T14:46:17Z</time>
      </trkpt>
      <trkpt lat="47.33795" lon="-1.87455">
        <ele>73</ele>
        <time>2016-01-02T14:46:18Z</time>
      </trkpt>
      <trkpt lat="47.33799" lon="-1.87453">
        <ele>73</ele>
        <time>2016-01-02T14:46:19Z</time>
      </trkpt>
      <trkpt lat="47.33803" lon="-1.8745">
        <ele>73</ele>
        <time>2016-01-02T14:46:20Z</time>
      </trkpt>
      <trkpt lat="47.33809" lon="-1.87446">
        <ele>73</ele>
        <time>2016-01-02T14:46:21Z</time>
      </trkpt>
      <trkpt lat="47.33813" lon="-1.87444">
        <ele>74</ele>
        <time>2016-01-02T14:46:22Z</time>
      </trkpt>
      <trkpt lat="47.33817" lon="-1.87441">
        <ele>74</ele>
        <time>2016-01-02T14:46:23Z</time>
      </trkpt>
      <trkpt lat="47.33821" lon="-1.8744">
        <ele>74</ele>
        <time>2016-01-02T14:46:24Z</time>
      </trkpt>
      <trkpt lat="47.33825" lon="-1.87438">
        <ele>74</ele>
        <time>2016-01-02T14:46:25Z</time>
      </trkpt>
      <trkpt lat="47.33829" lon="-1.87437">
        <ele>74</ele>
        <time>2016-01-02T14:46:26Z</time>
      </trkpt>
      <trkpt lat="47.33833" lon="-1.87435">
        <ele>74</ele>
        <time>2016-01-02T14:46:27Z</time>
      </trkpt>
      <trkpt lat="47.33837" lon="-1.87432">
        <ele>75</ele>
        <time>2016-01-02T14:46:28Z</time>
      </trkpt>
      <trkpt lat="47.33841" lon="-1.8743">
        <ele>75</ele>
        <time>2016-01-02T14:46:29Z</time>
      </trkpt>
      <trkpt lat="47.33845" lon="-1.87428">
        <ele>75</ele>
        <time>2016-01-02T14:46:30Z</time>
      </trkpt>
      <trkpt lat="47.33849" lon="-1.87426">
        <ele>76</ele>
        <time>2016-01-02T14:46:31Z</time>
      </trkpt>
      <trkpt lat="47.33853" lon="-1.87423">
        <ele>76</ele>
        <time>2016-01-02T14:46:32Z</time>
      </trkpt>
      <trkpt lat="47.33857" lon="-1.87421">
        <ele>76</ele>
        <time>2016-01-02T14:46:33Z</time>
      </trkpt>
      <trkpt lat="47.33861" lon="-1.87419">
        <ele>76</ele>
        <time>2016-01-02T14:46:34Z</time>
      </trkpt>
      <trkpt lat="47.33865" lon="-1.87417">
        <ele>76</ele>
        <time>2016-01-02T14:46:35Z</time>
      </trkpt>
      <trkpt lat="47.33868" lon="-1.87414">
        <ele>76</ele>
        <time>2016-01-02T14:46:36Z</time>
      </trkpt>
      <trkpt lat="47.33872" lon="-1.87411">
        <ele>76</ele>
        <time>2016-01-02T14:46:37Z</time>
      </trkpt>
      <trkpt lat="47.33876" lon="-1.8741">
        <ele>76</ele>
        <time>2016-01-02T14:46:38Z</time>
      </trkpt>
      <trkpt lat="47.33879" lon="-1.87408">
        <ele>76</ele>
        <time>2016-01-02T14:46:39Z</time>
      </trkpt>
      <trkpt lat="47.33883" lon="-1.87405">
        <ele>76</ele>
        <time>2016-01-02T14:46:40Z</time>
      </trkpt>
      <trkpt lat="47.33887" lon="-1.87404">
        <ele>76</ele>
        <time>2016-01-02T14:46:41Z</time>
      </trkpt>
      <trkpt lat="47.33891" lon="-1.87402">
        <ele>76</ele>
        <time>2016-01-02T14:46:42Z</time>
      </trkpt>
      <trkpt lat="47.33894" lon="-1.874">
        <ele>76</ele>
        <time>2016-01-02T14:46:43Z</time>
      </trkpt>
      <trkpt lat="47.33897" lon="-1.87397">
        <ele>76</ele>
        <time>2016-01-02T14:46:44Z</time>
      </trkpt>
      <trkpt lat="47.33901" lon="-1.87396">
        <ele>76</ele>
        <time>2016-01-02T14:46:45Z</time>
      </trkpt>
      <trkpt lat="47.33905" lon="-1.87394">
        <ele>76</ele>
        <time>2016-01-02T14:46:46Z</time>
      </trkpt>
      <trkpt lat="47.33909" lon="-1.87392">
        <ele>76</ele>
        <time>2016-01-02T14:46:47Z</time>
      </trkpt>
      <trkpt lat="47.33914" lon="-1.8739">
        <ele>76</ele>
        <time>2016-01-02T14:46:48Z</time>
      </trkpt>
      <trkpt lat="47.33917" lon="-1.87388">
        <ele>77</ele>
        <time>2016-01-02T14:46:49Z</time>
      </trkpt>
      <trkpt lat="47.33921" lon="-1.87386">
        <ele>77</ele>
        <time>2016-01-02T14:46:50Z</time>
      </trkpt>
      <trkpt lat="47.33925" lon="-1.87384">
        <ele>77</ele>
        <time>2016-01-02T14:46:51Z</time>
      </trkpt>
      <trkpt lat="47.33928" lon="-1.87383">
        <ele>77</ele>
        <time>2016-01-02T14:46:52Z</time>
      </trkpt>
      <trkpt lat="47.33932" lon="-1.87381">
        <ele>77</ele>
        <time>2016-01-02T14:46:53Z</time>
      </trkpt>
      <trkpt lat="47.33935" lon="-1.87379">
        <ele>77</ele>
        <time>2016-01-02T14:46:54Z</time>
      </trkpt>
      <trkpt lat="47.33939" lon="-1.87377">
        <ele>77</ele>
        <time>2016-01-02T14:46:55Z</time>
      </trkpt>
      <trkpt lat="47.33942" lon="-1.87375">
        <ele>77</ele>
        <time>2016-01-02T14:46:56Z</time>
      </trkpt>
      <trkpt lat="47.33945" lon="-1.87374">
        <ele>77</ele>
        <time>2016-01-02T14:46:57Z</time>
      </trkpt>
      <trkpt lat="47.33949" lon="-1.87372">
        <ele>77</ele>
        <time>2016-01-02T14:46:58Z</time>
      </trkpt>
      <trkpt lat="47.33952" lon="-1.87371">
        <ele>77</ele>
        <time>2016-01-02T14:46:59Z</time>
      </trkpt>
      <trkpt lat="47.33955" lon="-1.87369">
        <ele>77</ele>
        <time>2016-01-02T14:47:00Z</time>
      </trkpt>
      <trkpt lat="47.33957" lon="-1.87369">
        <ele>77</ele>
        <time>2016-01-02T14:47:01Z</time>
      </trkpt>
      <trkpt lat="47.33962" lon="-1.87368">
        <ele>77</ele>
        <time>2016-01-02T14:47:03Z</time>
      </trkpt>
      <trkpt lat="47.33967" lon="-1.87369">
        <ele>77</ele>
        <time>2016-01-02T14:47:05Z</time>
      </trkpt>
      <trkpt lat="47.33968" lon="-1.87373">
        <ele>77</ele>
        <time>2016-01-02T14:47:06Z</time>
      </trkpt>
      <trkpt lat="47.33971" lon="-1.87377">
        <ele>77</ele>
        <time>2016-01-02T14:47:08Z</time>
      </trkpt>
      <trkpt lat="47.33971" lon="-1.8738">
        <ele>77</ele>
        <time>2016-01-02T14:47:10Z</time>
      </trkpt>
      <trkpt lat="47.33968" lon="-1.87382">
        <ele>77</ele>
        <time>2016-01-02T14:47:15Z</time>
      </trkpt>
      <trkpt lat="47.33968" lon="-1.87378">
        <ele>77</ele>
        <time>2016-01-02T14:48:21Z</time>
      </trkpt>
      <trkpt lat="47.33969" lon="-1.87382">
        <ele>77</ele>
        <time>2016-01-02T14:50:26Z</time>
      </trkpt>
      <trkpt lat="47.3397" lon="-1.87377">
        <ele>77</ele>
        <time>2016-01-02T14:50:33Z</time>
      </trkpt>
      <trkpt lat="47.33969" lon="-1.87373">
        <ele>77</ele>
        <time>2016-01-02T14:50:36Z</time>
      </trkpt>
      <trkpt lat="47.33967" lon="-1.87367">
        <ele>77</ele>
        <time>2016-01-02T14:50:39Z</time>
      </trkpt>
      <trkpt lat="47.33967" lon="-1.87362">
        <ele>77</ele>
        <time>2016-01-02T14:50:40Z</time>
      </trkpt>
      <trkpt lat="47.33966" lon="-1.87355">
        <ele>77</ele>
        <time>2016-01-02T14:50:42Z</time>
      </trkpt>
      <trkpt lat="47.33965" lon="-1.87349">
        <ele>77</ele>
        <time>2016-01-02T14:50:43Z</time>
      </trkpt>
      <trkpt lat="47.33963" lon="-1.87342">
        <ele>77</ele>
        <time>2016-01-02T14:50:45Z</time>
      </trkpt>
      <trkpt lat="47.33963" lon="-1.87335">
        <ele>77</ele>
        <time>2016-01-02T14:50:46Z</time>
      </trkpt>
      <trkpt lat="47.33961" lon="-1.87325">
        <ele>77</ele>
        <time>2016-01-02T14:50:48Z</time>
      </trkpt>
      <trkpt lat="47.3396" lon="-1.87314">
        <ele>77</ele>
        <time>2016-01-02T14:50:50Z</time>
      </trkpt>
      <trkpt lat="47.3396" lon="-1.87309">
        <ele>77</ele>
        <time>2016-01-02T14:50:51Z</time>
      </trkpt>
      <trkpt lat="47.33959" lon="-1.87305">
        <ele>77</ele>
        <time>2016-01-02T14:50:52Z</time>
      </trkpt>
      <trkpt lat="47.3396" lon="-1.87295">
        <ele>77</ele>
        <time>2016-01-02T14:50:53Z</time>
      </trkpt>
      <trkpt lat="47.3396" lon="-1.87289">
        <ele>77</ele>
        <time>2016-01-02T14:50:54Z</time>
      </trkpt>
      <trkpt lat="47.3396" lon="-1.87282">
        <ele>77</ele>
        <time>2016-01-02T14:50:55Z</time>
      </trkpt>
      <trkpt lat="47.3396" lon="-1.87274">
        <ele>77</ele>
        <time>2016-01-02T14:50:56Z</time>
      </trkpt>
      <trkpt lat="47.3396" lon="-1.87268">
        <ele>77</ele>
        <time>2016-01-02T14:50:57Z</time>
      </trkpt>
      <trkpt lat="47.3396" lon="-1.87262">
        <ele>77</ele>
        <time>2016-01-02T14:50:58Z</time>
      </trkpt>
      <trkpt lat="47.3396" lon="-1.87252">
        <ele>77</ele>
        <time>2016-01-02T14:50:59Z</time>
      </trkpt>
      <trkpt lat="47.3396" lon="-1.87243">
        <ele>77</ele>
        <time>2016-01-02T14:51:00Z</time>
      </trkpt>
      <trkpt lat="47.33959" lon="-1.87236">
        <ele>77</ele>
        <time>2016-01-02T14:51:01Z</time>
      </trkpt>
      <trkpt lat="47.33959" lon="-1.87228">
        <ele>77</ele>
        <time>2016-01-02T14:51:02Z</time>
      </trkpt>
      <trkpt lat="47.3396" lon="-1.8722">
        <ele>77</ele>
        <time>2016-01-02T14:51:03Z</time>
      </trkpt>
      <trkpt lat="47.3396" lon="-1.87213">
        <ele>77</ele>
        <time>2016-01-02T14:51:04Z</time>
      </trkpt>
      <trkpt lat="47.3396" lon="-1.87206">
        <ele>77</ele>
        <time>2016-01-02T14:51:05Z</time>
      </trkpt>
      <trkpt lat="47.33962" lon="-1.872">
        <ele>77</ele>
        <time>2016-01-02T14:51:06Z</time>
      </trkpt>
      <trkpt lat="47.33962" lon="-1.87192">
        <ele>77</ele>
        <time>2016-01-02T14:51:07Z</time>
      </trkpt>
      <trkpt lat="47.33963" lon="-1.87185">
        <ele>77</ele>
        <time>2016-01-02T14:51:08Z</time>
      </trkpt>
      <trkpt lat="47.33959" lon="-1.87179">
        <ele>77</ele>
        <time>2016-01-02T14:51:09Z</time>
      </trkpt>
      <trkpt lat="47.33959" lon="-1.87171">
        <ele>77</ele>
        <time>2016-01-02T14:51:10Z</time>
      </trkpt>
      <trkpt lat="47.33959" lon="-1.87163">
        <ele>77</ele>
        <time>2016-01-02T14:51:11Z</time>
      </trkpt>
      <trkpt lat="47.33959" lon="-1.87156">
        <ele>77</ele>
        <time>2016-01-02T14:51:12Z</time>
      </trkpt>
      <trkpt lat="47.33957" lon="-1.87143">
        <ele>77</ele>
        <time>2016-01-02T14:51:13Z</time>
      </trkpt>
      <trkpt lat="47.33956" lon="-1.87133">
        <ele>77</ele>
        <time>2016-01-02T14:51:14Z</time>
      </trkpt>
      <trkpt lat="47.33956" lon="-1.87125">
        <ele>77</ele>
        <time>2016-01-02T14:51:15Z</time>
      </trkpt>
      <trkpt lat="47.33955" lon="-1.87115">
        <ele>77</ele>
        <time>2016-01-02T14:51:16Z</time>
      </trkpt>
      <trkpt lat="47.33953" lon="-1.87105">
        <ele>77</ele>
        <time>2016-01-02T14:51:17Z</time>
      </trkpt>
      <trkpt lat="47.33951" lon="-1.87096">
        <ele>77</ele>
        <time>2016-01-02T14:51:18Z</time>
      </trkpt>
      <trkpt lat="47.3395" lon="-1.87087">
        <ele>77</ele>
        <time>2016-01-02T14:51:19Z</time>
      </trkpt>
      <trkpt lat="47.33944" lon="-1.87076">
        <ele>77</ele>
        <time>2016-01-02T14:51:20Z</time>
      </trkpt>
      <trkpt lat="47.33942" lon="-1.87068">
        <ele>78</ele>
        <time>2016-01-02T14:51:21Z</time>
      </trkpt>
      <trkpt lat="47.33939" lon="-1.8706">
        <ele>78</ele>
        <time>2016-01-02T14:51:22Z</time>
      </trkpt>
      <trkpt lat="47.33936" lon="-1.87051">
        <ele>78</ele>
        <time>2016-01-02T14:51:23Z</time>
      </trkpt>
      <trkpt lat="47.33934" lon="-1.87046">
        <ele>78</ele>
        <time>2016-01-02T14:51:24Z</time>
      </trkpt>
      <trkpt lat="47.33933" lon="-1.87038">
        <ele>78</ele>
        <time>2016-01-02T14:51:25Z</time>
      </trkpt>
      <trkpt lat="47.33929" lon="-1.87032">
        <ele>78</ele>
        <time>2016-01-02T14:51:26Z</time>
      </trkpt>
      <trkpt lat="47.33926" lon="-1.87024">
        <ele>78</ele>
        <time>2016-01-02T14:51:27Z</time>
      </trkpt>
      <trkpt lat="47.33924" lon="-1.87016">
        <ele>79</ele>
        <time>2016-01-02T14:51:28Z</time>
      </trkpt>
      <trkpt lat="47.33921" lon="-1.87008">
        <ele>79</ele>
        <time>2016-01-02T14:51:29Z</time>
      </trkpt>
      <trkpt lat="47.33918" lon="-1.87">
        <ele>80</ele>
        <time>2016-01-02T14:51:30Z</time>
      </trkpt>
      <trkpt lat="47.33917" lon="-1.8699">
        <ele>80</ele>
        <time>2016-01-02T14:51:31Z</time>
      </trkpt>
      <trkpt lat="47.33914" lon="-1.86982">
        <ele>80</ele>
        <time>2016-01-02T14:51:32Z</time>
      </trkpt>
      <trkpt lat="47.33911" lon="-1.86974">
        <ele>80</ele>
        <time>2016-01-02T14:51:33Z</time>
      </trkpt>
      <trkpt lat="47.33908" lon="-1.86965">
        <ele>80</ele>
        <time>2016-01-02T14:51:34Z</time>
      </trkpt>
      <trkpt lat="47.33906" lon="-1.86959">
        <ele>80</ele>
        <time>2016-01-02T14:51:35Z</time>
      </trkpt>
      <trkpt lat="47.33904" lon="-1.86949">
        <ele>80</ele>
        <time>2016-01-02T14:51:36Z</time>
      </trkpt>
      <trkpt lat="47.33902" lon="-1.86942">
        <ele>80</ele>
        <time>2016-01-02T14:51:37Z</time>
      </trkpt>
      <trkpt lat="47.33901" lon="-1.86938">
        <ele>80</ele>
        <time>2016-01-02T14:51:38Z</time>
      </trkpt>
      <trkpt lat="47.33901" lon="-1.86931">
        <ele>81</ele>
        <time>2016-01-02T14:51:39Z</time>
      </trkpt>
      <trkpt lat="47.33899" lon="-1.86926">
        <ele>81</ele>
        <time>2016-01-02T14:51:40Z</time>
      </trkpt>
      <trkpt lat="47.33898" lon="-1.86921">
        <ele>81</ele>
        <time>2016-01-02T14:51:41Z</time>
      </trkpt>
      <trkpt lat="47.33897" lon="-1.86916">
        <ele>81</ele>
        <time>2016-01-02T14:51:42Z</time>
      </trkpt>
      <trkpt lat="47.33896" lon="-1.8691">
        <ele>81</ele>
        <time>2016-01-02T14:51:43Z</time>
      </trkpt>
      <trkpt lat="47.339" lon="-1.86907">
        <ele>81</ele>
        <time>2016-01-02T14:51:44Z</time>
      </trkpt>
      <trkpt lat="47.33904" lon="-1.86906">
        <ele>81</ele>
        <time>2016-01-02T14:51:45Z</time>
      </trkpt>
      <trkpt lat="47.33908" lon="-1.86905">
        <ele>81</ele>
        <time>2016-01-02T14:51:46Z</time>
      </trkpt>
      <trkpt lat="47.33911" lon="-1.86903">
        <ele>81</ele>
        <time>2016-01-02T14:51:47Z</time>
      </trkpt>
      <trkpt lat="47.33915" lon="-1.86903">
        <ele>81</ele>
        <time>2016-01-02T14:51:48Z</time>
      </trkpt>
      <trkpt lat="47.3392" lon="-1.86905">
        <ele>81</ele>
        <time>2016-01-02T14:51:49Z</time>
      </trkpt>
      <trkpt lat="47.33925" lon="-1.86904">
        <ele>81</ele>
        <time>2016-01-02T14:51:50Z</time>
      </trkpt>
      <trkpt lat="47.33931" lon="-1.86904">
        <ele>81</ele>
        <time>2016-01-02T14:51:51Z</time>
      </trkpt>
      <trkpt lat="47.33936" lon="-1.86904">
        <ele>81</ele>
        <time>2016-01-02T14:51:52Z</time>
      </trkpt>
      <trkpt lat="47.33943" lon="-1.86907">
        <ele>80</ele>
        <time>2016-01-02T14:51:53Z</time>
      </trkpt>
      <trkpt lat="47.33949" lon="-1.86909">
        <ele>80</ele>
        <time>2016-01-02T14:51:54Z</time>
      </trkpt>
      <trkpt lat="47.33955" lon="-1.8691">
        <ele>80</ele>
        <time>2016-01-02T14:51:55Z</time>
      </trkpt>
      <trkpt lat="47.33961" lon="-1.8691">
        <ele>80</ele>
        <time>2016-01-02T14:51:56Z</time>
      </trkpt>
      <trkpt lat="47.33966" lon="-1.8691">
        <ele>80</ele>
        <time>2016-01-02T14:51:57Z</time>
      </trkpt>
      <trkpt lat="47.33971" lon="-1.8691">
        <ele>80</ele>
        <time>2016-01-02T14:51:58Z</time>
      </trkpt>
      <trkpt lat="47.33976" lon="-1.86908">
        <ele>80</ele>
        <time>2016-01-02T14:51:59Z</time>
      </trkpt>
      <trkpt lat="47.33981" lon="-1.86909">
        <ele>79</ele>
        <time>2016-01-02T14:52:00Z</time>
      </trkpt>
      <trkpt lat="47.33986" lon="-1.86907">
        <ele>79</ele>
        <time>2016-01-02T14:52:01Z</time>
      </trkpt>
      <trkpt lat="47.33992" lon="-1.86906">
        <ele>79</ele>
        <time>2016-01-02T14:52:02Z</time>
      </trkpt>
      <trkpt lat="47.33997" lon="-1.86905">
        <ele>79</ele>
        <time>2016-01-02T14:52:03Z</time>
      </trkpt>
      <trkpt lat="47.34002" lon="-1.86904">
        <ele>79</ele>
        <time>2016-01-02T14:52:04Z</time>
      </trkpt>
      <trkpt lat="47.34008" lon="-1.86902">
        <ele>79</ele>
        <time>2016-01-02T14:52:05Z</time>
      </trkpt>
      <trkpt lat="47.34012" lon="-1.869">
        <ele>79</ele>
        <time>2016-01-02T14:52:06Z</time>
      </trkpt>
      <trkpt lat="47.34018" lon="-1.86899">
        <ele>79</ele>
        <time>2016-01-02T14:52:07Z</time>
      </trkpt>
      <trkpt lat="47.34025" lon="-1.86897">
        <ele>79</ele>
        <time>2016-01-02T14:52:08Z</time>
      </trkpt>
      <trkpt lat="47.3403" lon="-1.86895">
        <ele>79</ele>
        <time>2016-01-02T14:52:09Z</time>
      </trkpt>
      <trkpt lat="47.34037" lon="-1.86891">
        <ele>79</ele>
        <time>2016-01-02T14:52:10Z</time>
      </trkpt>
      <trkpt lat="47.34043" lon="-1.86889">
        <ele>79</ele>
        <time>2016-01-02T14:52:11Z</time>
      </trkpt>
      <trkpt lat="47.34048" lon="-1.86887">
        <ele>79</ele>
        <time>2016-01-02T14:52:12Z</time>
      </trkpt>
      <trkpt lat="47.34055" lon="-1.86882">
        <ele>79</ele>
        <time>2016-01-02T14:52:13Z</time>
      </trkpt>
      <trkpt lat="47.34061" lon="-1.86879">
        <ele>79</ele>
        <time>2016-01-02T14:52:14Z</time>
      </trkpt>
      <trkpt lat="47.34071" lon="-1.86872">
        <ele>80</ele>
        <time>2016-01-02T14:52:16Z</time>
      </trkpt>
      <trkpt lat="47.34077" lon="-1.86868">
        <ele>80</ele>
        <time>2016-01-02T14:52:17Z</time>
      </trkpt>
      <trkpt lat="47.34082" lon="-1.86864">
        <ele>80</ele>
        <time>2016-01-02T14:52:18Z</time>
      </trkpt>
      <trkpt lat="47.34088" lon="-1.86861">
        <ele>80</ele>
        <time>2016-01-02T14:52:19Z</time>
      </trkpt>
      <trkpt lat="47.34094" lon="-1.86858">
        <ele>80</ele>
        <time>2016-01-02T14:52:20Z</time>
      </trkpt>
      <trkpt lat="47.34099" lon="-1.86854">
        <ele>80</ele>
        <time>2016-01-02T14:52:21Z</time>
      </trkpt>
      <trkpt lat="47.34105" lon="-1.86851">
        <ele>80</ele>
        <time>2016-01-02T14:52:22Z</time>
      </trkpt>
      <trkpt lat="47.34111" lon="-1.86848">
        <ele>80</ele>
        <time>2016-01-02T14:52:23Z</time>
      </trkpt>
      <trkpt lat="47.34117" lon="-1.86844">
        <ele>80</ele>
        <time>2016-01-02T14:52:24Z</time>
      </trkpt>
      <trkpt lat="47.34123" lon="-1.86841">
        <ele>81</ele>
        <time>2016-01-02T14:52:25Z</time>
      </trkpt>
      <trkpt lat="47.3413" lon="-1.86839">
        <ele>81</ele>
        <time>2016-01-02T14:52:26Z</time>
      </trkpt>
      <trkpt lat="47.34137" lon="-1.86835">
        <ele>81</ele>
        <time>2016-01-02T14:52:27Z</time>
      </trkpt>
      <trkpt lat="47.34142" lon="-1.86832">
        <ele>81</ele>
        <time>2016-01-02T14:52:28Z</time>
      </trkpt>
      <trkpt lat="47.34148" lon="-1.86829">
        <ele>81</ele>
        <time>2016-01-02T14:52:29Z</time>
      </trkpt>
      <trkpt lat="47.34152" lon="-1.86826">
        <ele>81</ele>
        <time>2016-01-02T14:52:30Z</time>
      </trkpt>
      <trkpt lat="47.34158" lon="-1.86823">
        <ele>81</ele>
        <time>2016-01-02T14:52:31Z</time>
      </trkpt>
      <trkpt lat="47.34164" lon="-1.86819">
        <ele>81</ele>
        <time>2016-01-02T14:52:32Z</time>
      </trkpt>
      <trkpt lat="47.34172" lon="-1.86818">
        <ele>81</ele>
        <time>2016-01-02T14:52:33Z</time>
      </trkpt>
      <trkpt lat="47.34178" lon="-1.86814">
        <ele>81</ele>
        <time>2016-01-02T14:52:34Z</time>
      </trkpt>
      <trkpt lat="47.34183" lon="-1.86811">
        <ele>81</ele>
        <time>2016-01-02T14:52:35Z</time>
      </trkpt>
      <trkpt lat="47.34187" lon="-1.86806">
        <ele>81</ele>
        <time>2016-01-02T14:52:36Z</time>
      </trkpt>
      <trkpt lat="47.34193" lon="-1.86803">
        <ele>81</ele>
        <time>2016-01-02T14:52:37Z</time>
      </trkpt>
      <trkpt lat="47.34199" lon="-1.868">
        <ele>81</ele>
        <time>2016-01-02T14:52:38Z</time>
      </trkpt>
      <trkpt lat="47.34205" lon="-1.86795">
        <ele>81</ele>
        <time>2016-01-02T14:52:39Z</time>
      </trkpt>
      <trkpt lat="47.34211" lon="-1.86792">
        <ele>81</ele>
        <time>2016-01-02T14:52:40Z</time>
      </trkpt>
      <trkpt lat="47.34217" lon="-1.86789">
        <ele>81</ele>
        <time>2016-01-02T14:52:41Z</time>
      </trkpt>
      <trkpt lat="47.34222" lon="-1.86783">
        <ele>81</ele>
        <time>2016-01-02T14:52:42Z</time>
      </trkpt>
      <trkpt lat="47.34228" lon="-1.86779">
        <ele>81</ele>
        <time>2016-01-02T14:52:43Z</time>
      </trkpt>
      <trkpt lat="47.34241" lon="-1.86771">
        <ele>82</ele>
        <time>2016-01-02T14:52:45Z</time>
      </trkpt>
      <trkpt lat="47.34247" lon="-1.86769">
        <ele>82</ele>
        <time>2016-01-02T14:52:46Z</time>
      </trkpt>
      <trkpt lat="47.34253" lon="-1.86765">
        <ele>82</ele>
        <time>2016-01-02T14:52:47Z</time>
      </trkpt>
      <trkpt lat="47.3426" lon="-1.86764">
        <ele>82</ele>
        <time>2016-01-02T14:52:48Z</time>
      </trkpt>
      <trkpt lat="47.34271" lon="-1.86757">
        <ele>82</ele>
        <time>2016-01-02T14:52:50Z</time>
      </trkpt>
      <trkpt lat="47.34279" lon="-1.86756">
        <ele>82</ele>
        <time>2016-01-02T14:52:51Z</time>
      </trkpt>
      <trkpt lat="47.34284" lon="-1.86753">
        <ele>82</ele>
        <time>2016-01-02T14:52:52Z</time>
      </trkpt>
      <trkpt lat="47.3429" lon="-1.86749">
        <ele>84</ele>
        <time>2016-01-02T14:52:53Z</time>
      </trkpt>
      <trkpt lat="47.34295" lon="-1.86746">
        <ele>84</ele>
        <time>2016-01-02T14:52:54Z</time>
      </trkpt>
      <trkpt lat="47.34309" lon="-1.86742">
        <ele>84</ele>
        <time>2016-01-02T14:52:55Z</time>
      </trkpt>
      <trkpt lat="47.34314" lon="-1.86739">
        <ele>84</ele>
        <time>2016-01-02T14:52:56Z</time>
      </trkpt>
      <trkpt lat="47.34319" lon="-1.86735">
        <ele>84</ele>
        <time>2016-01-02T14:52:57Z</time>
      </trkpt>
      <trkpt lat="47.34325" lon="-1.86732">
        <ele>84</ele>
        <time>2016-01-02T14:52:58Z</time>
      </trkpt>
      <trkpt lat="47.34333" lon="-1.86732">
        <ele>84</ele>
        <time>2016-01-02T14:52:59Z</time>
      </trkpt>
      <trkpt lat="47.34338" lon="-1.86729">
        <ele>84</ele>
        <time>2016-01-02T14:53:00Z</time>
      </trkpt>
      <trkpt lat="47.34344" lon="-1.86726">
        <ele>84</ele>
        <time>2016-01-02T14:53:01Z</time>
      </trkpt>
      <trkpt lat="47.34348" lon="-1.8672">
        <ele>85</ele>
        <time>2016-01-02T14:53:02Z</time>
      </trkpt>
      <trkpt lat="47.34352" lon="-1.86716">
        <ele>85</ele>
        <time>2016-01-02T14:53:03Z</time>
      </trkpt>
      <trkpt lat="47.34358" lon="-1.86712">
        <ele>85</ele>
        <time>2016-01-02T14:53:04Z</time>
      </trkpt>
      <trkpt lat="47.34363" lon="-1.8671">
        <ele>85</ele>
        <time>2016-01-02T14:53:05Z</time>
      </trkpt>
      <trkpt lat="47.34368" lon="-1.86705">
        <ele>85</ele>
        <time>2016-01-02T14:53:06Z</time>
      </trkpt>
      <trkpt lat="47.34375" lon="-1.86702">
        <ele>85</ele>
        <time>2016-01-02T14:53:07Z</time>
      </trkpt>
      <trkpt lat="47.3438" lon="-1.86697">
        <ele>85</ele>
        <time>2016-01-02T14:53:08Z</time>
      </trkpt>
      <trkpt lat="47.34386" lon="-1.86694">
        <ele>86</ele>
        <time>2016-01-02T14:53:09Z</time>
      </trkpt>
      <trkpt lat="47.34391" lon="-1.86691">
        <ele>86</ele>
        <time>2016-01-02T14:53:10Z</time>
      </trkpt>
      <trkpt lat="47.34397" lon="-1.86689">
        <ele>86</ele>
        <time>2016-01-02T14:53:11Z</time>
      </trkpt>
      <trkpt lat="47.34403" lon="-1.86686">
        <ele>86</ele>
        <time>2016-01-02T14:53:12Z</time>
      </trkpt>
      <trkpt lat="47.34408" lon="-1.86683">
        <ele>86</ele>
        <time>2016-01-02T14:53:13Z</time>
      </trkpt>
      <trkpt lat="47.34412" lon="-1.86683">
        <ele>86</ele>
        <time>2016-01-02T14:53:14Z</time>
      </trkpt>
      <trkpt lat="47.34418" lon="-1.86679">
        <ele>87</ele>
        <time>2016-01-02T14:53:15Z</time>
      </trkpt>
      <trkpt lat="47.34423" lon="-1.86676">
        <ele>87</ele>
        <time>2016-01-02T14:53:16Z</time>
      </trkpt>
      <trkpt lat="47.3443" lon="-1.86675">
        <ele>87</ele>
        <time>2016-01-02T14:53:17Z</time>
      </trkpt>
      <trkpt lat="47.34435" lon="-1.86673">
        <ele>87</ele>
        <time>2016-01-02T14:53:18Z</time>
      </trkpt>
      <trkpt lat="47.34442" lon="-1.86672">
        <ele>87</ele>
        <time>2016-01-02T14:53:19Z</time>
      </trkpt>
      <trkpt lat="47.34447" lon="-1.86669">
        <ele>87</ele>
        <time>2016-01-02T14:53:20Z</time>
      </trkpt>
      <trkpt lat="47.34453" lon="-1.86667">
        <ele>87</ele>
        <time>2016-01-02T14:53:21Z</time>
      </trkpt>
      <trkpt lat="47.34458" lon="-1.86664">
        <ele>87</ele>
        <time>2016-01-02T14:53:22Z</time>
      </trkpt>
      <trkpt lat="47.34464" lon="-1.86662">
        <ele>87</ele>
        <time>2016-01-02T14:53:23Z</time>
      </trkpt>
      <trkpt lat="47.34469" lon="-1.86659">
        <ele>87</ele>
        <time>2016-01-02T14:53:24Z</time>
      </trkpt>
      <trkpt lat="47.34475" lon="-1.86653">
        <ele>87</ele>
        <time>2016-01-02T14:53:25Z</time>
      </trkpt>
      <trkpt lat="47.3448" lon="-1.86651">
        <ele>87</ele>
        <time>2016-01-02T14:53:26Z</time>
      </trkpt>
      <trkpt lat="47.34486" lon="-1.86649">
        <ele>87</ele>
        <time>2016-01-02T14:53:27Z</time>
      </trkpt>
      <trkpt lat="47.3449" lon="-1.86644">
        <ele>87</ele>
        <time>2016-01-02T14:53:28Z</time>
      </trkpt>
      <trkpt lat="47.34495" lon="-1.86643">
        <ele>87</ele>
        <time>2016-01-02T14:53:29Z</time>
      </trkpt>
      <trkpt lat="47.34501" lon="-1.86641">
        <ele>87</ele>
        <time>2016-01-02T14:53:30Z</time>
      </trkpt>
      <trkpt lat="47.34506" lon="-1.86639">
        <ele>87</ele>
        <time>2016-01-02T14:53:31Z</time>
      </trkpt>
      <trkpt lat="47.34516" lon="-1.86641">
        <ele>87</ele>
        <time>2016-01-02T14:53:33Z</time>
      </trkpt>
      <trkpt lat="47.34521" lon="-1.86641">
        <ele>87</ele>
        <time>2016-01-02T14:53:34Z</time>
      </trkpt>
      <trkpt lat="47.34526" lon="-1.86641">
        <ele>87</ele>
        <time>2016-01-02T14:53:35Z</time>
      </trkpt>
      <trkpt lat="47.34529" lon="-1.86655">
        <ele>87</ele>
        <time>2016-01-02T14:53:36Z</time>
      </trkpt>
      <trkpt lat="47.34532" lon="-1.86661">
        <ele>87</ele>
        <time>2016-01-02T14:53:37Z</time>
      </trkpt>
      <trkpt lat="47.34536" lon="-1.86667">
        <ele>87</ele>
        <time>2016-01-02T14:53:38Z</time>
      </trkpt>
      <trkpt lat="47.3454" lon="-1.86672">
        <ele>87</ele>
        <time>2016-01-02T14:53:39Z</time>
      </trkpt>
      <trkpt lat="47.34544" lon="-1.86672">
        <ele>87</ele>
        <time>2016-01-02T14:53:40Z</time>
      </trkpt>
      <trkpt lat="47.34548" lon="-1.86674">
        <ele>87</ele>
        <time>2016-01-02T14:53:41Z</time>
      </trkpt>
      <trkpt lat="47.34553" lon="-1.86677">
        <ele>87</ele>
        <time>2016-01-02T14:53:42Z</time>
      </trkpt>
      <trkpt lat="47.34558" lon="-1.86681">
        <ele>87</ele>
        <time>2016-01-02T14:53:43Z</time>
      </trkpt>
      <trkpt lat="47.34562" lon="-1.86682">
        <ele>88</ele>
        <time>2016-01-02T14:53:44Z</time>
      </trkpt>
      <trkpt lat="47.34566" lon="-1.86685">
        <ele>88</ele>
        <time>2016-01-02T14:53:45Z</time>
      </trkpt>
      <trkpt lat="47.34571" lon="-1.86688">
        <ele>88</ele>
        <time>2016-01-02T14:53:46Z</time>
      </trkpt>
      <trkpt lat="47.34577" lon="-1.86692">
        <ele>88</ele>
        <time>2016-01-02T14:53:47Z</time>
      </trkpt>
      <trkpt lat="47.34582" lon="-1.86695">
        <ele>88</ele>
        <time>2016-01-02T14:53:48Z</time>
      </trkpt>
      <trkpt lat="47.34587" lon="-1.86699">
        <ele>88</ele>
        <time>2016-01-02T14:53:49Z</time>
      </trkpt>
      <trkpt lat="47.3459" lon="-1.86703">
        <ele>88</ele>
        <time>2016-01-02T14:53:50Z</time>
      </trkpt>
      <trkpt lat="47.34595" lon="-1.86707">
        <ele>88</ele>
        <time>2016-01-02T14:53:51Z</time>
      </trkpt>
      <trkpt lat="47.34601" lon="-1.8671">
        <ele>88</ele>
        <time>2016-01-02T14:53:52Z</time>
      </trkpt>
      <trkpt lat="47.34606" lon="-1.86713">
        <ele>88</ele>
        <time>2016-01-02T14:53:53Z</time>
      </trkpt>
      <trkpt lat="47.34611" lon="-1.86716">
        <ele>88</ele>
        <time>2016-01-02T14:53:54Z</time>
      </trkpt>
      <trkpt lat="47.34619" lon="-1.86718">
        <ele>88</ele>
        <time>2016-01-02T14:53:55Z</time>
      </trkpt>
      <trkpt lat="47.34624" lon="-1.86719">
        <ele>88</ele>
        <time>2016-01-02T14:53:56Z</time>
      </trkpt>
      <trkpt lat="47.3463" lon="-1.86721">
        <ele>88</ele>
        <time>2016-01-02T14:53:57Z</time>
      </trkpt>
      <trkpt lat="47.34633" lon="-1.8672">
        <ele>88</ele>
        <time>2016-01-02T14:53:58Z</time>
      </trkpt>
      <trkpt lat="47.34639" lon="-1.86721">
        <ele>88</ele>
        <time>2016-01-02T14:53:59Z</time>
      </trkpt>
      <trkpt lat="47.34644" lon="-1.86722">
        <ele>88</ele>
        <time>2016-01-02T14:54:00Z</time>
      </trkpt>
      <trkpt lat="47.34651" lon="-1.86723">
        <ele>88</ele>
        <time>2016-01-02T14:54:01Z</time>
      </trkpt>
      <trkpt lat="47.34656" lon="-1.86724">
        <ele>88</ele>
        <time>2016-01-02T14:54:02Z</time>
      </trkpt>
      <trkpt lat="47.34662" lon="-1.86724">
        <ele>88</ele>
        <time>2016-01-02T14:54:03Z</time>
      </trkpt>
      <trkpt lat="47.34672" lon="-1.86723">
        <ele>88</ele>
        <time>2016-01-02T14:54:04Z</time>
      </trkpt>
      <trkpt lat="47.34676" lon="-1.86722">
        <ele>88</ele>
        <time>2016-01-02T14:54:05Z</time>
      </trkpt>
      <trkpt lat="47.34681" lon="-1.86721">
        <ele>88</ele>
        <time>2016-01-02T14:54:06Z</time>
      </trkpt>
      <trkpt lat="47.34686" lon="-1.8672">
        <ele>88</ele>
        <time>2016-01-02T14:54:07Z</time>
      </trkpt>
      <trkpt lat="47.34688" lon="-1.86716">
        <ele>88</ele>
        <time>2016-01-02T14:54:08Z</time>
      </trkpt>
      <trkpt lat="47.34692" lon="-1.86714">
        <ele>88</ele>
        <time>2016-01-02T14:54:09Z</time>
      </trkpt>
      <trkpt lat="47.34697" lon="-1.86712">
        <ele>88</ele>
        <time>2016-01-02T14:54:10Z</time>
      </trkpt>
      <trkpt lat="47.34701" lon="-1.86706">
        <ele>89</ele>
        <time>2016-01-02T14:54:11Z</time>
      </trkpt>
      <trkpt lat="47.34706" lon="-1.86703">
        <ele>89</ele>
        <time>2016-01-02T14:54:12Z</time>
      </trkpt>
      <trkpt lat="47.34711" lon="-1.867">
        <ele>89</ele>
        <time>2016-01-02T14:54:13Z</time>
      </trkpt>
      <trkpt lat="47.34712" lon="-1.86693">
        <ele>89</ele>
        <time>2016-01-02T14:54:14Z</time>
      </trkpt>
      <trkpt lat="47.34716" lon="-1.8669">
        <ele>89</ele>
        <time>2016-01-02T14:54:15Z</time>
      </trkpt>
      <trkpt lat="47.34721" lon="-1.86687">
        <ele>89</ele>
        <time>2016-01-02T14:54:16Z</time>
      </trkpt>
      <trkpt lat="47.34726" lon="-1.86685">
        <ele>89</ele>
        <time>2016-01-02T14:54:17Z</time>
      </trkpt>
      <trkpt lat="47.34731" lon="-1.86682">
        <ele>89</ele>
        <time>2016-01-02T14:54:18Z</time>
      </trkpt>
      <trkpt lat="47.34736" lon="-1.86678">
        <ele>89</ele>
        <time>2016-01-02T14:54:19Z</time>
      </trkpt>
      <trkpt lat="47.3474" lon="-1.86676">
        <ele>89</ele>
        <time>2016-01-02T14:54:20Z</time>
      </trkpt>
      <trkpt lat="47.34745" lon="-1.86673">
        <ele>89</ele>
        <time>2016-01-02T14:54:21Z</time>
      </trkpt>
      <trkpt lat="47.3475" lon="-1.86669">
        <ele>89</ele>
        <time>2016-01-02T14:54:22Z</time>
      </trkpt>
      <trkpt lat="47.34754" lon="-1.86664">
        <ele>89</ele>
        <time>2016-01-02T14:54:23Z</time>
      </trkpt>
      <trkpt lat="47.34759" lon="-1.86661">
        <ele>88</ele>
        <time>2016-01-02T14:54:24Z</time>
      </trkpt>
      <trkpt lat="47.34764" lon="-1.86657">
        <ele>88</ele>
        <time>2016-01-02T14:54:25Z</time>
      </trkpt>
      <trkpt lat="47.34769" lon="-1.86653">
        <ele>88</ele>
        <time>2016-01-02T14:54:26Z</time>
      </trkpt>
      <trkpt lat="47.34775" lon="-1.8665">
        <ele>88</ele>
        <time>2016-01-02T14:54:27Z</time>
      </trkpt>
      <trkpt lat="47.3478" lon="-1.86647">
        <ele>88</ele>
        <time>2016-01-02T14:54:28Z</time>
      </trkpt>
      <trkpt lat="47.34786" lon="-1.86643">
        <ele>88</ele>
        <time>2016-01-02T14:54:29Z</time>
      </trkpt>
      <trkpt lat="47.34791" lon="-1.8664">
        <ele>88</ele>
        <time>2016-01-02T14:54:30Z</time>
      </trkpt>
      <trkpt lat="47.34797" lon="-1.86635">
        <ele>87</ele>
        <time>2016-01-02T14:54:31Z</time>
      </trkpt>
      <trkpt lat="47.34806" lon="-1.86627">
        <ele>87</ele>
        <time>2016-01-02T14:54:32Z</time>
      </trkpt>
      <trkpt lat="47.34811" lon="-1.86623">
        <ele>87</ele>
        <time>2016-01-02T14:54:33Z</time>
      </trkpt>
      <trkpt lat="47.34818" lon="-1.86618">
        <ele>87</ele>
        <time>2016-01-02T14:54:34Z</time>
      </trkpt>
      <trkpt lat="47.34825" lon="-1.86612">
        <ele>87</ele>
        <time>2016-01-02T14:54:35Z</time>
      </trkpt>
      <trkpt lat="47.34831" lon="-1.86607">
        <ele>87</ele>
        <time>2016-01-02T14:54:36Z</time>
      </trkpt>
      <trkpt lat="47.34838" lon="-1.86601">
        <ele>87</ele>
        <time>2016-01-02T14:54:37Z</time>
      </trkpt>
      <trkpt lat="47.34844" lon="-1.86588">
        <ele>87</ele>
        <time>2016-01-02T14:54:38Z</time>
      </trkpt>
      <trkpt lat="47.34849" lon="-1.86576">
        <ele>87</ele>
        <time>2016-01-02T14:54:39Z</time>
      </trkpt>
      <trkpt lat="47.34855" lon="-1.86566">
        <ele>87</ele>
        <time>2016-01-02T14:54:40Z</time>
      </trkpt>
      <trkpt lat="47.34861" lon="-1.86557">
        <ele>87</ele>
        <time>2016-01-02T14:54:41Z</time>
      </trkpt>
      <trkpt lat="47.34867" lon="-1.86549">
        <ele>87</ele>
        <time>2016-01-02T14:54:42Z</time>
      </trkpt>
      <trkpt lat="47.34873" lon="-1.86541">
        <ele>87</ele>
        <time>2016-01-02T14:54:43Z</time>
      </trkpt>
      <trkpt lat="47.3488" lon="-1.86532">
        <ele>87</ele>
        <time>2016-01-02T14:54:44Z</time>
      </trkpt>
      <trkpt lat="47.34888" lon="-1.86529">
        <ele>87</ele>
        <time>2016-01-02T14:54:45Z</time>
      </trkpt>
      <trkpt lat="47.34896" lon="-1.86524">
        <ele>87</ele>
        <time>2016-01-02T14:54:46Z</time>
      </trkpt>
      <trkpt lat="47.34905" lon="-1.86521">
        <ele>87</ele>
        <time>2016-01-02T14:54:47Z</time>
      </trkpt>
      <trkpt lat="47.34914" lon="-1.86517">
        <ele>87</ele>
        <time>2016-01-02T14:54:48Z</time>
      </trkpt>
      <trkpt lat="47.34932" lon="-1.86516">
        <ele>86</ele>
        <time>2016-01-02T14:54:50Z</time>
      </trkpt>
      <trkpt lat="47.34942" lon="-1.86515">
        <ele>86</ele>
        <time>2016-01-02T14:54:51Z</time>
      </trkpt>
      <trkpt lat="47.3495" lon="-1.86513">
        <ele>85</ele>
        <time>2016-01-02T14:54:52Z</time>
      </trkpt>
      <trkpt lat="47.34958" lon="-1.86512">
        <ele>85</ele>
        <time>2016-01-02T14:54:53Z</time>
      </trkpt>
      <trkpt lat="47.34966" lon="-1.8651">
        <ele>85</ele>
        <time>2016-01-02T14:54:54Z</time>
      </trkpt>
      <trkpt lat="47.34975" lon="-1.86515">
        <ele>85</ele>
        <time>2016-01-02T14:54:55Z</time>
      </trkpt>
      <trkpt lat="47.34984" lon="-1.86514">
        <ele>85</ele>
        <time>2016-01-02T14:54:56Z</time>
      </trkpt>
      <trkpt lat="47.34992" lon="-1.86512">
        <ele>85</ele>
        <time>2016-01-02T14:54:57Z</time>
      </trkpt>
      <trkpt lat="47.35" lon="-1.86511">
        <ele>85</ele>
        <time>2016-01-02T14:54:58Z</time>
      </trkpt>
      <trkpt lat="47.35007" lon="-1.8651">
        <ele>85</ele>
        <time>2016-01-02T14:54:59Z</time>
      </trkpt>
      <trkpt lat="47.35015" lon="-1.86509">
        <ele>85</ele>
        <time>2016-01-02T14:55:00Z</time>
      </trkpt>
      <trkpt lat="47.35024" lon="-1.86508">
        <ele>85</ele>
        <time>2016-01-02T14:55:01Z</time>
      </trkpt>
      <trkpt lat="47.35031" lon="-1.86506">
        <ele>85</ele>
        <time>2016-01-02T14:55:02Z</time>
      </trkpt>
      <trkpt lat="47.35039" lon="-1.86505">
        <ele>85</ele>
        <time>2016-01-02T14:55:03Z</time>
      </trkpt>
      <trkpt lat="47.35047" lon="-1.86504">
        <ele>86</ele>
        <time>2016-01-02T14:55:04Z</time>
      </trkpt>
      <trkpt lat="47.35055" lon="-1.86503">
        <ele>86</ele>
        <time>2016-01-02T14:55:05Z</time>
      </trkpt>
      <trkpt lat="47.35063" lon="-1.86502">
        <ele>86</ele>
        <time>2016-01-02T14:55:06Z</time>
      </trkpt>
      <trkpt lat="47.35072" lon="-1.865">
        <ele>86</ele>
        <time>2016-01-02T14:55:07Z</time>
      </trkpt>
      <trkpt lat="47.35081" lon="-1.86499">
        <ele>87</ele>
        <time>2016-01-02T14:55:08Z</time>
      </trkpt>
      <trkpt lat="47.35089" lon="-1.86498">
        <ele>87</ele>
        <time>2016-01-02T14:55:09Z</time>
      </trkpt>
      <trkpt lat="47.35097" lon="-1.86497">
        <ele>87</ele>
        <time>2016-01-02T14:55:10Z</time>
      </trkpt>
      <trkpt lat="47.35106" lon="-1.86496">
        <ele>86</ele>
        <time>2016-01-02T14:55:11Z</time>
      </trkpt>
      <trkpt lat="47.35115" lon="-1.86496">
        <ele>86</ele>
        <time>2016-01-02T14:55:12Z</time>
      </trkpt>
      <trkpt lat="47.35122" lon="-1.86494">
        <ele>86</ele>
        <time>2016-01-02T14:55:13Z</time>
      </trkpt>
      <trkpt lat="47.3513" lon="-1.86493">
        <ele>86</ele>
        <time>2016-01-02T14:55:14Z</time>
      </trkpt>
      <trkpt lat="47.35138" lon="-1.86492">
        <ele>86</ele>
        <time>2016-01-02T14:55:15Z</time>
      </trkpt>
      <trkpt lat="47.35147" lon="-1.86491">
        <ele>86</ele>
        <time>2016-01-02T14:55:16Z</time>
      </trkpt>
      <trkpt lat="47.35155" lon="-1.8649">
        <ele>87</ele>
        <time>2016-01-02T14:55:17Z</time>
      </trkpt>
      <trkpt lat="47.35162" lon="-1.86488">
        <ele>87</ele>
        <time>2016-01-02T14:55:18Z</time>
      </trkpt>
      <trkpt lat="47.3517" lon="-1.86488">
        <ele>86</ele>
        <time>2016-01-02T14:55:19Z</time>
      </trkpt>
      <trkpt lat="47.35179" lon="-1.86486">
        <ele>86</ele>
        <time>2016-01-02T14:55:20Z</time>
      </trkpt>
      <trkpt lat="47.35188" lon="-1.86484">
        <ele>86</ele>
        <time>2016-01-02T14:55:21Z</time>
      </trkpt>
      <trkpt lat="47.35195" lon="-1.86482">
        <ele>86</ele>
        <time>2016-01-02T14:55:22Z</time>
      </trkpt>
      <trkpt lat="47.35203" lon="-1.86481">
        <ele>86</ele>
        <time>2016-01-02T14:55:23Z</time>
      </trkpt>
      <trkpt lat="47.3521" lon="-1.86479">
        <ele>86</ele>
        <time>2016-01-02T14:55:24Z</time>
      </trkpt>
      <trkpt lat="47.35217" lon="-1.86476">
        <ele>86</ele>
        <time>2016-01-02T14:55:25Z</time>
      </trkpt>
      <trkpt lat="47.35224" lon="-1.86474">
        <ele>86</ele>
        <time>2016-01-02T14:55:26Z</time>
      </trkpt>
      <trkpt lat="47.35231" lon="-1.86472">
        <ele>86</ele>
        <time>2016-01-02T14:55:27Z</time>
      </trkpt>
      <trkpt lat="47.35239" lon="-1.8647">
        <ele>86</ele>
        <time>2016-01-02T14:55:28Z</time>
      </trkpt>
      <trkpt lat="47.35244" lon="-1.86467">
        <ele>86</ele>
        <time>2016-01-02T14:55:29Z</time>
      </trkpt>
      <trkpt lat="47.35252" lon="-1.86465">
        <ele>86</ele>
        <time>2016-01-02T14:55:30Z</time>
      </trkpt>
      <trkpt lat="47.35259" lon="-1.86463">
        <ele>86</ele>
        <time>2016-01-02T14:55:31Z</time>
      </trkpt>
      <trkpt lat="47.35267" lon="-1.86461">
        <ele>86</ele>
        <time>2016-01-02T14:55:32Z</time>
      </trkpt>
      <trkpt lat="47.35275" lon="-1.86459">
        <ele>86</ele>
        <time>2016-01-02T14:55:33Z</time>
      </trkpt>
      <trkpt lat="47.35284" lon="-1.86457">
        <ele>86</ele>
        <time>2016-01-02T14:55:34Z</time>
      </trkpt>
      <trkpt lat="47.35292" lon="-1.86454">
        <ele>86</ele>
        <time>2016-01-02T14:55:35Z</time>
      </trkpt>
      <trkpt lat="47.35301" lon="-1.86451">
        <ele>86</ele>
        <time>2016-01-02T14:55:36Z</time>
      </trkpt>
      <trkpt lat="47.35306" lon="-1.86448">
        <ele>86</ele>
        <time>2016-01-02T14:55:37Z</time>
      </trkpt>
      <trkpt lat="47.35313" lon="-1.86444">
        <ele>86</ele>
        <time>2016-01-02T14:55:38Z</time>
      </trkpt>
      <trkpt lat="47.3532" lon="-1.86441">
        <ele>86</ele>
        <time>2016-01-02T14:55:39Z</time>
      </trkpt>
      <trkpt lat="47.35329" lon="-1.86438">
        <ele>86</ele>
        <time>2016-01-02T14:55:40Z</time>
      </trkpt>
      <trkpt lat="47.35337" lon="-1.86434">
        <ele>86</ele>
        <time>2016-01-02T14:55:41Z</time>
      </trkpt>
      <trkpt lat="47.35344" lon="-1.86431">
        <ele>86</ele>
        <time>2016-01-02T14:55:42Z</time>
      </trkpt>
      <trkpt lat="47.35352" lon="-1.86427">
        <ele>86</ele>
        <time>2016-01-02T14:55:43Z</time>
      </trkpt>
      <trkpt lat="47.35357" lon="-1.86423">
        <ele>86</ele>
        <time>2016-01-02T14:55:44Z</time>
      </trkpt>
      <trkpt lat="47.35365" lon="-1.86422">
        <ele>87</ele>
        <time>2016-01-02T14:55:45Z</time>
      </trkpt>
      <trkpt lat="47.35373" lon="-1.86416">
        <ele>86</ele>
        <time>2016-01-02T14:55:46Z</time>
      </trkpt>
      <trkpt lat="47.3538" lon="-1.86412">
        <ele>86</ele>
        <time>2016-01-02T14:55:47Z</time>
      </trkpt>
      <trkpt lat="47.35388" lon="-1.8641">
        <ele>86</ele>
        <time>2016-01-02T14:55:48Z</time>
      </trkpt>
      <trkpt lat="47.35395" lon="-1.86407">
        <ele>86</ele>
        <time>2016-01-02T14:55:49Z</time>
      </trkpt>
      <trkpt lat="47.354" lon="-1.86402">
        <ele>86</ele>
        <time>2016-01-02T14:55:50Z</time>
      </trkpt>
      <trkpt lat="47.35411" lon="-1.864">
        <ele>86</ele>
        <time>2016-01-02T14:55:51Z</time>
      </trkpt>
      <trkpt lat="47.35418" lon="-1.86397">
        <ele>86</ele>
        <time>2016-01-02T14:55:52Z</time>
      </trkpt>
      <trkpt lat="47.35425" lon="-1.86395">
        <ele>86</ele>
        <time>2016-01-02T14:55:53Z</time>
      </trkpt>
      <trkpt lat="47.35432" lon="-1.86392">
        <ele>86</ele>
        <time>2016-01-02T14:55:54Z</time>
      </trkpt>
      <trkpt lat="47.35438" lon="-1.86392">
        <ele>86</ele>
        <time>2016-01-02T14:55:55Z</time>
      </trkpt>
      <trkpt lat="47.35445" lon="-1.86389">
        <ele>85</ele>
        <time>2016-01-02T14:55:56Z</time>
      </trkpt>
      <trkpt lat="47.35452" lon="-1.86387">
        <ele>85</ele>
        <time>2016-01-02T14:55:57Z</time>
      </trkpt>
      <trkpt lat="47.35456" lon="-1.86384">
        <ele>85</ele>
        <time>2016-01-02T14:55:58Z</time>
      </trkpt>
      <trkpt lat="47.35463" lon="-1.86382">
        <ele>85</ele>
        <time>2016-01-02T14:55:59Z</time>
      </trkpt>
      <trkpt lat="47.3547" lon="-1.86378">
        <ele>85</ele>
        <time>2016-01-02T14:56:00Z</time>
      </trkpt>
      <trkpt lat="47.35476" lon="-1.86375">
        <ele>85</ele>
        <time>2016-01-02T14:56:01Z</time>
      </trkpt>
      <trkpt lat="47.35482" lon="-1.86371">
        <ele>85</ele>
        <time>2016-01-02T14:56:02Z</time>
      </trkpt>
      <trkpt lat="47.35483" lon="-1.8636">
        <ele>85</ele>
        <time>2016-01-02T14:56:03Z</time>
      </trkpt>
      <trkpt lat="47.35487" lon="-1.86352">
        <ele>85</ele>
        <time>2016-01-02T14:56:04Z</time>
      </trkpt>
      <trkpt lat="47.35491" lon="-1.86344">
        <ele>85</ele>
        <time>2016-01-02T14:56:05Z</time>
      </trkpt>
      <trkpt lat="47.35494" lon="-1.86333">
        <ele>85</ele>
        <time>2016-01-02T14:56:06Z</time>
      </trkpt>
      <trkpt lat="47.35497" lon="-1.86325">
        <ele>85</ele>
        <time>2016-01-02T14:56:07Z</time>
      </trkpt>
      <trkpt lat="47.35499" lon="-1.86316">
        <ele>85</ele>
        <time>2016-01-02T14:56:08Z</time>
      </trkpt>
      <trkpt lat="47.35502" lon="-1.86309">
        <ele>85</ele>
        <time>2016-01-02T14:56:09Z</time>
      </trkpt>
      <trkpt lat="47.35506" lon="-1.863">
        <ele>85</ele>
        <time>2016-01-02T14:56:10Z</time>
      </trkpt>
      <trkpt lat="47.35507" lon="-1.8629">
        <ele>85</ele>
        <time>2016-01-02T14:56:11Z</time>
      </trkpt>
      <trkpt lat="47.3551" lon="-1.86282">
        <ele>85</ele>
        <time>2016-01-02T14:56:12Z</time>
      </trkpt>
      <trkpt lat="47.35514" lon="-1.86271">
        <ele>85</ele>
        <time>2016-01-02T14:56:13Z</time>
      </trkpt>
      <trkpt lat="47.35516" lon="-1.86262">
        <ele>85</ele>
        <time>2016-01-02T14:56:14Z</time>
      </trkpt>
      <trkpt lat="47.35519" lon="-1.86253">
        <ele>85</ele>
        <time>2016-01-02T14:56:15Z</time>
      </trkpt>
      <trkpt lat="47.35523" lon="-1.86243">
        <ele>85</ele>
        <time>2016-01-02T14:56:16Z</time>
      </trkpt>
      <trkpt lat="47.35525" lon="-1.86236">
        <ele>85</ele>
        <time>2016-01-02T14:56:17Z</time>
      </trkpt>
      <trkpt lat="47.35528" lon="-1.86227">
        <ele>85</ele>
        <time>2016-01-02T14:56:18Z</time>
      </trkpt>
      <trkpt lat="47.3553" lon="-1.86219">
        <ele>85</ele>
        <time>2016-01-02T14:56:19Z</time>
      </trkpt>
      <trkpt lat="47.35533" lon="-1.86211">
        <ele>85</ele>
        <time>2016-01-02T14:56:20Z</time>
      </trkpt>
      <trkpt lat="47.35537" lon="-1.86203">
        <ele>85</ele>
        <time>2016-01-02T14:56:21Z</time>
      </trkpt>
      <trkpt lat="47.3554" lon="-1.86196">
        <ele>85</ele>
        <time>2016-01-02T14:56:22Z</time>
      </trkpt>
      <trkpt lat="47.35543" lon="-1.86188">
        <ele>85</ele>
        <time>2016-01-02T14:56:23Z</time>
      </trkpt>
      <trkpt lat="47.35545" lon="-1.86178">
        <ele>85</ele>
        <time>2016-01-02T14:56:24Z</time>
      </trkpt>
      <trkpt lat="47.35547" lon="-1.86169">
        <ele>85</ele>
        <time>2016-01-02T14:56:25Z</time>
      </trkpt>
      <trkpt lat="47.35547" lon="-1.86155">
        <ele>84</ele>
        <time>2016-01-02T14:56:26Z</time>
      </trkpt>
      <trkpt lat="47.35547" lon="-1.86146">
        <ele>84</ele>
        <time>2016-01-02T14:56:27Z</time>
      </trkpt>
      <trkpt lat="47.35548" lon="-1.86137">
        <ele>84</ele>
        <time>2016-01-02T14:56:28Z</time>
      </trkpt>
      <trkpt lat="47.35549" lon="-1.86127">
        <ele>84</ele>
        <time>2016-01-02T14:56:29Z</time>
      </trkpt>
      <trkpt lat="47.35549" lon="-1.86117">
        <ele>84</ele>
        <time>2016-01-02T14:56:30Z</time>
      </trkpt>
      <trkpt lat="47.3555" lon="-1.86108">
        <ele>84</ele>
        <time>2016-01-02T14:56:31Z</time>
      </trkpt>
      <trkpt lat="47.35552" lon="-1.86098">
        <ele>84</ele>
        <time>2016-01-02T14:56:32Z</time>
      </trkpt>
      <trkpt lat="47.35552" lon="-1.86089">
        <ele>83</ele>
        <time>2016-01-02T14:56:33Z</time>
      </trkpt>
      <trkpt lat="47.35553" lon="-1.86079">
        <ele>82</ele>
        <time>2016-01-02T14:56:34Z</time>
      </trkpt>
      <trkpt lat="47.35554" lon="-1.86069">
        <ele>82</ele>
        <time>2016-01-02T14:56:35Z</time>
      </trkpt>
      <trkpt lat="47.35556" lon="-1.86059">
        <ele>82</ele>
        <time>2016-01-02T14:56:36Z</time>
      </trkpt>
      <trkpt lat="47.35557" lon="-1.86049">
        <ele>82</ele>
        <time>2016-01-02T14:56:37Z</time>
      </trkpt>
      <trkpt lat="47.35557" lon="-1.8604">
        <ele>81</ele>
        <time>2016-01-02T14:56:38Z</time>
      </trkpt>
      <trkpt lat="47.35557" lon="-1.86031">
        <ele>81</ele>
        <time>2016-01-02T14:56:39Z</time>
      </trkpt>
      <trkpt lat="47.35557" lon="-1.86021">
        <ele>81</ele>
        <time>2016-01-02T14:56:40Z</time>
      </trkpt>
      <trkpt lat="47.35557" lon="-1.86012">
        <ele>81</ele>
        <time>2016-01-02T14:56:41Z</time>
      </trkpt>
      <trkpt lat="47.35559" lon="-1.86003">
        <ele>81</ele>
        <time>2016-01-02T14:56:42Z</time>
      </trkpt>
      <trkpt lat="47.3556" lon="-1.85995">
        <ele>80</ele>
        <time>2016-01-02T14:56:43Z</time>
      </trkpt>
      <trkpt lat="47.35562" lon="-1.85987">
        <ele>80</ele>
        <time>2016-01-02T14:56:44Z</time>
      </trkpt>
      <trkpt lat="47.35569" lon="-1.85986">
        <ele>80</ele>
        <time>2016-01-02T14:56:45Z</time>
      </trkpt>
      <trkpt lat="47.35575" lon="-1.85982">
        <ele>80</ele>
        <time>2016-01-02T14:56:46Z</time>
      </trkpt>
      <trkpt lat="47.3558" lon="-1.85978">
        <ele>80</ele>
        <time>2016-01-02T14:56:47Z</time>
      </trkpt>
      <trkpt lat="47.35587" lon="-1.85974">
        <ele>80</ele>
        <time>2016-01-02T14:56:48Z</time>
      </trkpt>
      <trkpt lat="47.35599" lon="-1.85965">
        <ele>80</ele>
        <time>2016-01-02T14:56:50Z</time>
      </trkpt>
      <trkpt lat="47.35604" lon="-1.85958">
        <ele>80</ele>
        <time>2016-01-02T14:56:51Z</time>
      </trkpt>
      <trkpt lat="47.35611" lon="-1.85954">
        <ele>80</ele>
        <time>2016-01-02T14:56:52Z</time>
      </trkpt>
      <trkpt lat="47.35618" lon="-1.85949">
        <ele>80</ele>
        <time>2016-01-02T14:56:53Z</time>
      </trkpt>
      <trkpt lat="47.35625" lon="-1.85946">
        <ele>80</ele>
        <time>2016-01-02T14:56:54Z</time>
      </trkpt>
      <trkpt lat="47.35632" lon="-1.85941">
        <ele>81</ele>
        <time>2016-01-02T14:56:55Z</time>
      </trkpt>
      <trkpt lat="47.35638" lon="-1.85937">
        <ele>81</ele>
        <time>2016-01-02T14:56:56Z</time>
      </trkpt>
      <trkpt lat="47.35644" lon="-1.85933">
        <ele>81</ele>
        <time>2016-01-02T14:56:57Z</time>
      </trkpt>
      <trkpt lat="47.3565" lon="-1.85929">
        <ele>81</ele>
        <time>2016-01-02T14:56:58Z</time>
      </trkpt>
      <trkpt lat="47.35656" lon="-1.85925">
        <ele>81</ele>
        <time>2016-01-02T14:56:59Z</time>
      </trkpt>
      <trkpt lat="47.35661" lon="-1.85922">
        <ele>82</ele>
        <time>2016-01-02T14:57:00Z</time>
      </trkpt>
      <trkpt lat="47.35667" lon="-1.8592">
        <ele>82</ele>
        <time>2016-01-02T14:57:01Z</time>
      </trkpt>
      <trkpt lat="47.35673" lon="-1.85917">
        <ele>82</ele>
        <time>2016-01-02T14:57:02Z</time>
      </trkpt>
      <trkpt lat="47.35678" lon="-1.85913">
        <ele>82</ele>
        <time>2016-01-02T14:57:03Z</time>
      </trkpt>
      <trkpt lat="47.35684" lon="-1.8591">
        <ele>82</ele>
        <time>2016-01-02T14:57:04Z</time>
      </trkpt>
      <trkpt lat="47.35688" lon="-1.85907">
        <ele>82</ele>
        <time>2016-01-02T14:57:05Z</time>
      </trkpt>
      <trkpt lat="47.35693" lon="-1.85903">
        <ele>82</ele>
        <time>2016-01-02T14:57:06Z</time>
      </trkpt>
      <trkpt lat="47.357" lon="-1.859">
        <ele>82</ele>
        <time>2016-01-02T14:57:07Z</time>
      </trkpt>
      <trkpt lat="47.35706" lon="-1.85897">
        <ele>82</ele>
        <time>2016-01-02T14:57:08Z</time>
      </trkpt>
      <trkpt lat="47.35711" lon="-1.85895">
        <ele>82</ele>
        <time>2016-01-02T14:57:09Z</time>
      </trkpt>
      <trkpt lat="47.35716" lon="-1.85891">
        <ele>82</ele>
        <time>2016-01-02T14:57:10Z</time>
      </trkpt>
      <trkpt lat="47.35721" lon="-1.85889">
        <ele>82</ele>
        <time>2016-01-02T14:57:11Z</time>
      </trkpt>
      <trkpt lat="47.35727" lon="-1.85885">
        <ele>82</ele>
        <time>2016-01-02T14:57:12Z</time>
      </trkpt>
      <trkpt lat="47.35732" lon="-1.85884">
        <ele>82</ele>
        <time>2016-01-02T14:57:13Z</time>
      </trkpt>
      <trkpt lat="47.35738" lon="-1.8588">
        <ele>82</ele>
        <time>2016-01-02T14:57:14Z</time>
      </trkpt>
      <trkpt lat="47.35742" lon="-1.85877">
        <ele>83</ele>
        <time>2016-01-02T14:57:15Z</time>
      </trkpt>
      <trkpt lat="47.35746" lon="-1.85875">
        <ele>83</ele>
        <time>2016-01-02T14:57:16Z</time>
      </trkpt>
      <trkpt lat="47.35751" lon="-1.85872">
        <ele>83</ele>
        <time>2016-01-02T14:57:17Z</time>
      </trkpt>
      <trkpt lat="47.35756" lon="-1.85869">
        <ele>83</ele>
        <time>2016-01-02T14:57:18Z</time>
      </trkpt>
      <trkpt lat="47.35761" lon="-1.85868">
        <ele>83</ele>
        <time>2016-01-02T14:57:19Z</time>
      </trkpt>
      <trkpt lat="47.35765" lon="-1.85866">
        <ele>83</ele>
        <time>2016-01-02T14:57:20Z</time>
      </trkpt>
      <trkpt lat="47.35769" lon="-1.85864">
        <ele>83</ele>
        <time>2016-01-02T14:57:21Z</time>
      </trkpt>
      <trkpt lat="47.35773" lon="-1.85863">
        <ele>83</ele>
        <time>2016-01-02T14:57:22Z</time>
      </trkpt>
      <trkpt lat="47.35776" lon="-1.85863">
        <ele>83</ele>
        <time>2016-01-02T14:57:23Z</time>
      </trkpt>
      <trkpt lat="47.3578" lon="-1.85862">
        <ele>83</ele>
        <time>2016-01-02T14:57:24Z</time>
      </trkpt>
      <trkpt lat="47.35784" lon="-1.8586">
        <ele>84</ele>
        <time>2016-01-02T14:57:25Z</time>
      </trkpt>
      <trkpt lat="47.35788" lon="-1.85853">
        <ele>84</ele>
        <time>2016-01-02T14:57:26Z</time>
      </trkpt>
      <trkpt lat="47.35791" lon="-1.85849">
        <ele>84</ele>
        <time>2016-01-02T14:57:27Z</time>
      </trkpt>
      <trkpt lat="47.35793" lon="-1.85845">
        <ele>84</ele>
        <time>2016-01-02T14:57:28Z</time>
      </trkpt>
      <trkpt lat="47.35794" lon="-1.8584">
        <ele>84</ele>
        <time>2016-01-02T14:57:29Z</time>
      </trkpt>
      <trkpt lat="47.35794" lon="-1.85835">
        <ele>84</ele>
        <time>2016-01-02T14:57:30Z</time>
      </trkpt>
      <trkpt lat="47.35796" lon="-1.8583">
        <ele>84</ele>
        <time>2016-01-02T14:57:31Z</time>
      </trkpt>
      <trkpt lat="47.35798" lon="-1.85826">
        <ele>84</ele>
        <time>2016-01-02T14:57:32Z</time>
      </trkpt>
      <trkpt lat="47.358" lon="-1.85821">
        <ele>84</ele>
        <time>2016-01-02T14:57:33Z</time>
      </trkpt>
      <trkpt lat="47.35801" lon="-1.85817">
        <ele>84</ele>
        <time>2016-01-02T14:57:34Z</time>
      </trkpt>
      <trkpt lat="47.35803" lon="-1.8581">
        <ele>84</ele>
        <time>2016-01-02T14:57:36Z</time>
      </trkpt>
      <trkpt lat="47.35807" lon="-1.85809">
        <ele>84</ele>
        <time>2016-01-02T14:57:37Z</time>
      </trkpt>
      <trkpt lat="47.35809" lon="-1.85804">
        <ele>84</ele>
        <time>2016-01-02T14:57:38Z</time>
      </trkpt>
      <trkpt lat="47.35812" lon="-1.85799">
        <ele>84</ele>
        <time>2016-01-02T14:57:39Z</time>
      </trkpt>
      <trkpt lat="47.35814" lon="-1.85795">
        <ele>84</ele>
        <time>2016-01-02T14:57:40Z</time>
      </trkpt>
      <trkpt lat="47.35816" lon="-1.85787">
        <ele>84</ele>
        <time>2016-01-02T14:57:41Z</time>
      </trkpt>
      <trkpt lat="47.35822" lon="-1.85785">
        <ele>85</ele>
        <time>2016-01-02T14:57:42Z</time>
      </trkpt>
      <trkpt lat="47.35826" lon="-1.85781">
        <ele>85</ele>
        <time>2016-01-02T14:57:43Z</time>
      </trkpt>
      <trkpt lat="47.35828" lon="-1.85775">
        <ele>85</ele>
        <time>2016-01-02T14:57:44Z</time>
      </trkpt>
      <trkpt lat="47.35834" lon="-1.85767">
        <ele>86</ele>
        <time>2016-01-02T14:57:46Z</time>
      </trkpt>
      <trkpt lat="47.35836" lon="-1.85763">
        <ele>86</ele>
        <time>2016-01-02T14:57:47Z</time>
      </trkpt>
      <trkpt lat="47.35842" lon="-1.85757">
        <ele>86</ele>
        <time>2016-01-02T14:57:49Z</time>
      </trkpt>
      <trkpt lat="47.35844" lon="-1.85753">
        <ele>86</ele>
        <time>2016-01-02T14:57:50Z</time>
      </trkpt>
      <trkpt lat="47.35848" lon="-1.85749">
        <ele>86</ele>
        <time>2016-01-02T14:57:51Z</time>
      </trkpt>
      <trkpt lat="47.35852" lon="-1.85745">
        <ele>86</ele>
        <time>2016-01-02T14:57:52Z</time>
      </trkpt>
      <trkpt lat="47.35855" lon="-1.85742">
        <ele>87</ele>
        <time>2016-01-02T14:57:53Z</time>
      </trkpt>
      <trkpt lat="47.35858" lon="-1.85738">
        <ele>87</ele>
        <time>2016-01-02T14:57:54Z</time>
      </trkpt>
      <trkpt lat="47.35861" lon="-1.85736">
        <ele>87</ele>
        <time>2016-01-02T14:57:55Z</time>
      </trkpt>
      <trkpt lat="47.35864" lon="-1.85734">
        <ele>87</ele>
        <time>2016-01-02T14:57:56Z</time>
      </trkpt>
      <trkpt lat="47.35867" lon="-1.85732">
        <ele>87</ele>
        <time>2016-01-02T14:57:57Z</time>
      </trkpt>
      <trkpt lat="47.3587" lon="-1.85728">
        <ele>87</ele>
        <time>2016-01-02T14:57:59Z</time>
      </trkpt>
      <trkpt lat="47.35873" lon="-1.85722">
        <ele>87</ele>
        <time>2016-01-02T14:58:01Z</time>
      </trkpt>
      <trkpt lat="47.35877" lon="-1.85717">
        <ele>87</ele>
        <time>2016-01-02T14:58:03Z</time>
      </trkpt>
      <trkpt lat="47.3588" lon="-1.85713">
        <ele>87</ele>
        <time>2016-01-02T14:58:05Z</time>
      </trkpt>
      <trkpt lat="47.35884" lon="-1.85708">
        <ele>87</ele>
        <time>2016-01-02T14:58:07Z</time>
      </trkpt>
      <trkpt lat="47.35887" lon="-1.85701">
        <ele>87</ele>
        <time>2016-01-02T14:58:09Z</time>
      </trkpt>
      <trkpt lat="47.35888" lon="-1.85697">
        <ele>87</ele>
        <time>2016-01-02T14:58:10Z</time>
      </trkpt>
      <trkpt lat="47.35889" lon="-1.85693">
        <ele>87</ele>
        <time>2016-01-02T14:58:11Z</time>
      </trkpt>
      <trkpt lat="47.35891" lon="-1.85685">
        <ele>87</ele>
        <time>2016-01-02T14:58:13Z</time>
      </trkpt>
      <trkpt lat="47.35894" lon="-1.85678">
        <ele>87</ele>
        <time>2016-01-02T14:58:15Z</time>
      </trkpt>
      <trkpt lat="47.35896" lon="-1.85673">
        <ele>87</ele>
        <time>2016-01-02T14:58:17Z</time>
      </trkpt>
      <trkpt lat="47.35898" lon="-1.85669">
        <ele>87</ele>
        <time>2016-01-02T14:58:19Z</time>
      </trkpt>
      <trkpt lat="47.359" lon="-1.85667">
        <ele>87</ele>
        <time>2016-01-02T14:58:25Z</time>
      </trkpt>
      <trkpt lat="47.359" lon="-1.85663">
        <ele>86</ele>
        <time>2016-01-02T14:58:39Z</time>
      </trkpt>
      <trkpt lat="47.35897" lon="-1.85662">
        <ele>86</ele>
        <time>2016-01-02T14:58:42Z</time>
      </trkpt>
      <trkpt lat="47.35895" lon="-1.85657">
        <ele>86</ele>
        <time>2016-01-02T14:58:45Z</time>
      </trkpt>
      <trkpt lat="47.35897" lon="-1.85651">
        <ele>86</ele>
        <time>2016-01-02T14:58:47Z</time>
      </trkpt>
      <trkpt lat="47.35898" lon="-1.85646">
        <ele>86</ele>
        <time>2016-01-02T14:58:49Z</time>
      </trkpt>
      <trkpt lat="47.35899" lon="-1.85641">
        <ele>86</ele>
        <time>2016-01-02T14:58:50Z</time>
      </trkpt>
      <trkpt lat="47.359" lon="-1.85637">
        <ele>86</ele>
        <time>2016-01-02T14:58:52Z</time>
      </trkpt>
      <trkpt lat="47.35901" lon="-1.85632">
        <ele>86</ele>
        <time>2016-01-02T14:58:53Z</time>
      </trkpt>
      <trkpt lat="47.35902" lon="-1.85626">
        <ele>86</ele>
        <time>2016-01-02T14:58:55Z</time>
      </trkpt>
      <trkpt lat="47.35902" lon="-1.85619">
        <ele>86</ele>
        <time>2016-01-02T14:58:57Z</time>
      </trkpt>
      <trkpt lat="47.359" lon="-1.85616">
        <ele>86</ele>
        <time>2016-01-02T14:58:59Z</time>
      </trkpt>
      <trkpt lat="47.35896" lon="-1.85612">
        <ele>86</ele>
        <time>2016-01-02T14:59:01Z</time>
      </trkpt>
      <trkpt lat="47.35892" lon="-1.85609">
        <ele>86</ele>
        <time>2016-01-02T14:59:03Z</time>
      </trkpt>
      <trkpt lat="47.3589" lon="-1.85606">
        <ele>86</ele>
        <time>2016-01-02T14:59:04Z</time>
      </trkpt>
      <trkpt lat="47.35887" lon="-1.85602">
        <ele>86</ele>
        <time>2016-01-02T14:59:06Z</time>
      </trkpt>
      <trkpt lat="47.35885" lon="-1.85599">
        <ele>86</ele>
        <time>2016-01-02T14:59:07Z</time>
      </trkpt>
      <trkpt lat="47.35883" lon="-1.85594">
        <ele>86</ele>
        <time>2016-01-02T14:59:09Z</time>
      </trkpt>
      <trkpt lat="47.3588" lon="-1.8559">
        <ele>85</ele>
        <time>2016-01-02T14:59:11Z</time>
      </trkpt>
      <trkpt lat="47.35877" lon="-1.85588">
        <ele>85</ele>
        <time>2016-01-02T14:59:12Z</time>
      </trkpt>
      <trkpt lat="47.35874" lon="-1.85586">
        <ele>85</ele>
        <time>2016-01-02T14:59:13Z</time>
      </trkpt>
      <trkpt lat="47.35869" lon="-1.85585">
        <ele>85</ele>
        <time>2016-01-02T14:59:14Z</time>
      </trkpt>
      <trkpt lat="47.35865" lon="-1.85584">
        <ele>85</ele>
        <time>2016-01-02T14:59:15Z</time>
      </trkpt>
      <trkpt lat="47.35861" lon="-1.85583">
        <ele>84</ele>
        <time>2016-01-02T14:59:16Z</time>
      </trkpt>
      <trkpt lat="47.35857" lon="-1.85582">
        <ele>84</ele>
        <time>2016-01-02T14:59:17Z</time>
      </trkpt>
      <trkpt lat="47.35853" lon="-1.85582">
        <ele>83</ele>
        <time>2016-01-02T14:59:19Z</time>
      </trkpt>
      <trkpt lat="47.35849" lon="-1.85581">
        <ele>83</ele>
        <time>2016-01-02T14:59:21Z</time>
      </trkpt>
      <trkpt lat="47.35845" lon="-1.85581">
        <ele>83</ele>
        <time>2016-01-02T14:59:23Z</time>
      </trkpt>
      <trkpt lat="47.35842" lon="-1.8558">
        <ele>83</ele>
        <time>2016-01-02T14:59:25Z</time>
      </trkpt>
      <trkpt lat="47.3584" lon="-1.85584">
        <ele>84</ele>
        <time>2016-01-02T14:59:27Z</time>
      </trkpt>
      <trkpt lat="47.35839" lon="-1.85589">
        <ele>84</ele>
        <time>2016-01-02T14:59:29Z</time>
      </trkpt>
      <trkpt lat="47.35839" lon="-1.85593">
        <ele>84</ele>
        <time>2016-01-02T14:59:31Z</time>
      </trkpt>
      <trkpt lat="47.3584" lon="-1.85598">
        <ele>84</ele>
        <time>2016-01-02T14:59:33Z</time>
      </trkpt>
      <trkpt lat="47.3584" lon="-1.85602">
        <ele>84</ele>
        <time>2016-01-02T14:59:35Z</time>
      </trkpt>
      <trkpt lat="47.35842" lon="-1.85606">
        <ele>85</ele>
        <time>2016-01-02T14:59:37Z</time>
      </trkpt>
      <trkpt lat="47.35843" lon="-1.85611">
        <ele>85</ele>
        <time>2016-01-02T14:59:39Z</time>
      </trkpt>
      <trkpt lat="47.35845" lon="-1.85615">
        <ele>85</ele>
        <time>2016-01-02T14:59:41Z</time>
      </trkpt>
      <trkpt lat="47.35847" lon="-1.85619">
        <ele>85</ele>
        <time>2016-01-02T14:59:43Z</time>
      </trkpt>
      <trkpt lat="47.35849" lon="-1.85625">
        <ele>85</ele>
        <time>2016-01-02T14:59:45Z</time>
      </trkpt>
      <trkpt lat="47.35849" lon="-1.85632">
        <ele>85</ele>
        <time>2016-01-02T14:59:47Z</time>
      </trkpt>
      <trkpt lat="47.35849" lon="-1.85639">
        <ele>85</ele>
        <time>2016-01-02T14:59:49Z</time>
      </trkpt>
      <trkpt lat="47.35851" lon="-1.85643">
        <ele>85</ele>
        <time>2016-01-02T14:59:51Z</time>
      </trkpt>
      <trkpt lat="47.35853" lon="-1.85647">
        <ele>85</ele>
        <time>2016-01-02T14:59:53Z</time>
      </trkpt>
      <trkpt lat="47.35853" lon="-1.85653">
        <ele>85</ele>
        <time>2016-01-02T14:59:55Z</time>
      </trkpt>
      <trkpt lat="47.35855" lon="-1.85657">
        <ele>85</ele>
        <time>2016-01-02T14:59:57Z</time>
      </trkpt>
      <trkpt lat="47.35856" lon="-1.85662">
        <ele>85</ele>
        <time>2016-01-02T14:59:59Z</time>
      </trkpt>
      <trkpt lat="47.35853" lon="-1.85667">
        <ele>86</ele>
        <time>2016-01-02T15:00:01Z</time>
      </trkpt>
      <trkpt lat="47.35852" lon="-1.85674">
        <ele>86</ele>
        <time>2016-01-02T15:00:03Z</time>
      </trkpt>
      <trkpt lat="47.3585" lon="-1.8568">
        <ele>86</ele>
        <time>2016-01-02T15:00:05Z</time>
      </trkpt>
      <trkpt lat="47.35849" lon="-1.85685">
        <ele>86</ele>
        <time>2016-01-02T15:00:08Z</time>
      </trkpt>
      <trkpt lat="47.35849" lon="-1.8569">
        <ele>86</ele>
        <time>2016-01-02T15:00:11Z</time>
      </trkpt>
      <trkpt lat="47.35851" lon="-1.85691">
        <ele>86</ele>
        <time>2016-01-02T15:00:13Z</time>
      </trkpt>
      <trkpt lat="47.35847" lon="-1.85695">
        <ele>86</ele>
        <time>2016-01-02T15:00:16Z</time>
      </trkpt>
      <trkpt lat="47.35844" lon="-1.85695">
        <ele>86</ele>
        <time>2016-01-02T15:00:17Z</time>
      </trkpt>
      <trkpt lat="47.35838" lon="-1.85695">
        <ele>86</ele>
        <time>2016-01-02T15:00:19Z</time>
      </trkpt>
      <trkpt lat="47.35834" lon="-1.85694">
        <ele>86</ele>
        <time>2016-01-02T15:00:21Z</time>
      </trkpt>
      <trkpt lat="47.35829" lon="-1.85692">
        <ele>84</ele>
        <time>2016-01-02T15:00:22Z</time>
      </trkpt>
      <trkpt lat="47.35827" lon="-1.85691">
        <ele>84</ele>
        <time>2016-01-02T15:00:23Z</time>
      </trkpt>
      <trkpt lat="47.35824" lon="-1.85686">
        <ele>84</ele>
        <time>2016-01-02T15:00:25Z</time>
      </trkpt>
      <trkpt lat="47.35826" lon="-1.85681">
        <ele>84</ele>
        <time>2016-01-02T15:00:27Z</time>
      </trkpt>
      <trkpt lat="47.35827" lon="-1.85675">
        <ele>84</ele>
        <time>2016-01-02T15:00:29Z</time>
      </trkpt>
      <trkpt lat="47.35827" lon="-1.8567">
        <ele>85</ele>
        <time>2016-01-02T15:00:31Z</time>
      </trkpt>
      <trkpt lat="47.35827" lon="-1.85664">
        <ele>84</ele>
        <time>2016-01-02T15:00:33Z</time>
      </trkpt>
      <trkpt lat="47.35825" lon="-1.85658">
        <ele>84</ele>
        <time>2016-01-02T15:00:35Z</time>
      </trkpt>
      <trkpt lat="47.35821" lon="-1.85656">
        <ele>84</ele>
        <time>2016-01-02T15:00:37Z</time>
      </trkpt>
      <trkpt lat="47.35818" lon="-1.85654">
        <ele>83</ele>
        <time>2016-01-02T15:00:39Z</time>
      </trkpt>
      <trkpt lat="47.35815" lon="-1.85653">
        <ele>83</ele>
        <time>2016-01-02T15:00:40Z</time>
      </trkpt>
      <trkpt lat="47.35811" lon="-1.85652">
        <ele>83</ele>
        <time>2016-01-02T15:00:42Z</time>
      </trkpt>
      <trkpt lat="47.35806" lon="-1.85651">
        <ele>83</ele>
        <time>2016-01-02T15:00:44Z</time>
      </trkpt>
      <trkpt lat="47.35803" lon="-1.85649">
        <ele>83</ele>
        <time>2016-01-02T15:00:46Z</time>
      </trkpt>
      <trkpt lat="47.35799" lon="-1.85644">
        <ele>83</ele>
        <time>2016-01-02T15:00:48Z</time>
      </trkpt>
      <trkpt lat="47.35797" lon="-1.85637">
        <ele>82</ele>
        <time>2016-01-02T15:00:50Z</time>
      </trkpt>
      <trkpt lat="47.35794" lon="-1.85633">
        <ele>82</ele>
        <time>2016-01-02T15:00:52Z</time>
      </trkpt>
      <trkpt lat="47.35794" lon="-1.85626">
        <ele>82</ele>
        <time>2016-01-02T15:00:53Z</time>
      </trkpt>
      <trkpt lat="47.35795" lon="-1.85621">
        <ele>82</ele>
        <time>2016-01-02T15:00:54Z</time>
      </trkpt>
      <trkpt lat="47.35796" lon="-1.85613">
        <ele>82</ele>
        <time>2016-01-02T15:00:55Z</time>
      </trkpt>
      <trkpt lat="47.35797" lon="-1.85608">
        <ele>82</ele>
        <time>2016-01-02T15:00:57Z</time>
      </trkpt>
      <trkpt lat="47.35797" lon="-1.85602">
        <ele>82</ele>
        <time>2016-01-02T15:00:58Z</time>
      </trkpt>
      <trkpt lat="47.35793" lon="-1.85599">
        <ele>82</ele>
        <time>2016-01-02T15:01:00Z</time>
      </trkpt>
      <trkpt lat="47.3579" lon="-1.85601">
        <ele>82</ele>
        <time>2016-01-02T15:01:02Z</time>
      </trkpt>
      <trkpt lat="47.35784" lon="-1.85604">
        <ele>82</ele>
        <time>2016-01-02T15:01:04Z</time>
      </trkpt>
      <trkpt lat="47.35781" lon="-1.85606">
        <ele>82</ele>
        <time>2016-01-02T15:01:05Z</time>
      </trkpt>
      <trkpt lat="47.35779" lon="-1.85608">
        <ele>82</ele>
        <time>2016-01-02T15:01:06Z</time>
      </trkpt>
      <trkpt lat="47.35776" lon="-1.85609">
        <ele>82</ele>
        <time>2016-01-02T15:01:07Z</time>
      </trkpt>
      <trkpt lat="47.35773" lon="-1.85611">
        <ele>82</ele>
        <time>2016-01-02T15:01:08Z</time>
      </trkpt>
      <trkpt lat="47.35771" lon="-1.85614">
        <ele>82</ele>
        <time>2016-01-02T15:01:09Z</time>
      </trkpt>
      <trkpt lat="47.35768" lon="-1.85617">
        <ele>82</ele>
        <time>2016-01-02T15:01:10Z</time>
      </trkpt>
      <trkpt lat="47.35764" lon="-1.85617">
        <ele>82</ele>
        <time>2016-01-02T15:01:11Z</time>
      </trkpt>
      <trkpt lat="47.35761" lon="-1.85616">
        <ele>82</ele>
        <time>2016-01-02T15:01:12Z</time>
      </trkpt>
      <trkpt lat="47.35759" lon="-1.85612">
        <ele>81</ele>
        <time>2016-01-02T15:01:13Z</time>
      </trkpt>
      <trkpt lat="47.35757" lon="-1.85607">
        <ele>81</ele>
        <time>2016-01-02T15:01:14Z</time>
      </trkpt>
      <trkpt lat="47.35757" lon="-1.85602">
        <ele>81</ele>
        <time>2016-01-02T15:01:15Z</time>
      </trkpt>
      <trkpt lat="47.35757" lon="-1.85596">
        <ele>81</ele>
        <time>2016-01-02T15:01:16Z</time>
      </trkpt>
      <trkpt lat="47.35758" lon="-1.8559">
        <ele>81</ele>
        <time>2016-01-02T15:01:17Z</time>
      </trkpt>
      <trkpt lat="47.35758" lon="-1.85586">
        <ele>81</ele>
        <time>2016-01-02T15:01:18Z</time>
      </trkpt>
      <trkpt lat="47.35758" lon="-1.85581">
        <ele>80</ele>
        <time>2016-01-02T15:01:19Z</time>
      </trkpt>
      <trkpt lat="47.35758" lon="-1.85575">
        <ele>80</ele>
        <time>2016-01-02T15:01:20Z</time>
      </trkpt>
      <trkpt lat="47.35757" lon="-1.85568">
        <ele>80</ele>
        <time>2016-01-02T15:01:21Z</time>
      </trkpt>
      <trkpt lat="47.35757" lon="-1.85563">
        <ele>80</ele>
        <time>2016-01-02T15:01:22Z</time>
      </trkpt>
      <trkpt lat="47.35756" lon="-1.85557">
        <ele>80</ele>
        <time>2016-01-02T15:01:23Z</time>
      </trkpt>
      <trkpt lat="47.35756" lon="-1.85552">
        <ele>80</ele>
        <time>2016-01-02T15:01:24Z</time>
      </trkpt>
      <trkpt lat="47.35755" lon="-1.85548">
        <ele>80</ele>
        <time>2016-01-02T15:01:25Z</time>
      </trkpt>
      <trkpt lat="47.35755" lon="-1.85541">
        <ele>80</ele>
        <time>2016-01-02T15:01:26Z</time>
      </trkpt>
      <trkpt lat="47.35754" lon="-1.85536">
        <ele>80</ele>
        <time>2016-01-02T15:01:27Z</time>
      </trkpt>
      <trkpt lat="47.35754" lon="-1.85531">
        <ele>80</ele>
        <time>2016-01-02T15:01:28Z</time>
      </trkpt>
      <trkpt lat="47.3575" lon="-1.85502">
        <ele>78</ele>
        <time>2016-01-02T15:01:30Z</time>
      </trkpt>
      <trkpt lat="47.35749" lon="-1.85494">
        <ele>77</ele>
        <time>2016-01-02T15:01:32Z</time>
      </trkpt>
      <trkpt lat="47.35752" lon="-1.85487">
        <ele>79</ele>
        <time>2016-01-02T15:01:33Z</time>
      </trkpt>
      <trkpt lat="47.35754" lon="-1.85483">
        <ele>79</ele>
        <time>2016-01-02T15:01:34Z</time>
      </trkpt>
      <trkpt lat="47.3576" lon="-1.85478">
        <ele>79</ele>
        <time>2016-01-02T15:01:36Z</time>
      </trkpt>
      <trkpt lat="47.35763" lon="-1.85472">
        <ele>79</ele>
        <time>2016-01-02T15:01:38Z</time>
      </trkpt>
      <trkpt lat="47.35767" lon="-1.85474">
        <ele>79</ele>
        <time>2016-01-02T15:01:40Z</time>
      </trkpt>
      <trkpt lat="47.35769" lon="-1.85476">
        <ele>79</ele>
        <time>2016-01-02T15:01:42Z</time>
      </trkpt>
      <trkpt lat="47.35774" lon="-1.85476">
        <ele>79</ele>
        <time>2016-01-02T15:01:44Z</time>
      </trkpt>
      <trkpt lat="47.35778" lon="-1.85474">
        <ele>79</ele>
        <time>2016-01-02T15:01:46Z</time>
      </trkpt>
      <trkpt lat="47.3578" lon="-1.8547">
        <ele>79</ele>
        <time>2016-01-02T15:01:48Z</time>
      </trkpt>
      <trkpt lat="47.35778" lon="-1.85464">
        <ele>79</ele>
        <time>2016-01-02T15:01:50Z</time>
      </trkpt>
      <trkpt lat="47.35777" lon="-1.85456">
        <ele>79</ele>
        <time>2016-01-02T15:01:52Z</time>
      </trkpt>
      <trkpt lat="47.35776" lon="-1.85451">
        <ele>79</ele>
        <time>2016-01-02T15:01:53Z</time>
      </trkpt>
      <trkpt lat="47.35775" lon="-1.85447">
        <ele>79</ele>
        <time>2016-01-02T15:01:54Z</time>
      </trkpt>
      <trkpt lat="47.35775" lon="-1.85443">
        <ele>79</ele>
        <time>2016-01-02T15:01:55Z</time>
      </trkpt>
      <trkpt lat="47.35774" lon="-1.85439">
        <ele>79</ele>
        <time>2016-01-02T15:01:56Z</time>
      </trkpt>
      <trkpt lat="47.35774" lon="-1.85434">
        <ele>79</ele>
        <time>2016-01-02T15:01:57Z</time>
      </trkpt>
      <trkpt lat="47.35774" lon="-1.85429">
        <ele>78</ele>
        <time>2016-01-02T15:01:58Z</time>
      </trkpt>
      <trkpt lat="47.35774" lon="-1.85424">
        <ele>78</ele>
        <time>2016-01-02T15:01:59Z</time>
      </trkpt>
      <trkpt lat="47.35773" lon="-1.85418">
        <ele>78</ele>
        <time>2016-01-02T15:02:00Z</time>
      </trkpt>
      <trkpt lat="47.35771" lon="-1.85414">
        <ele>78</ele>
        <time>2016-01-02T15:02:01Z</time>
      </trkpt>
      <trkpt lat="47.35769" lon="-1.85411">
        <ele>78</ele>
        <time>2016-01-02T15:02:02Z</time>
      </trkpt>
      <trkpt lat="47.35767" lon="-1.85407">
        <ele>78</ele>
        <time>2016-01-02T15:02:03Z</time>
      </trkpt>
      <trkpt lat="47.35768" lon="-1.85402">
        <ele>78</ele>
        <time>2016-01-02T15:02:04Z</time>
      </trkpt>
      <trkpt lat="47.35769" lon="-1.85397">
        <ele>78</ele>
        <time>2016-01-02T15:02:05Z</time>
      </trkpt>
      <trkpt lat="47.3577" lon="-1.85392">
        <ele>78</ele>
        <time>2016-01-02T15:02:06Z</time>
      </trkpt>
      <trkpt lat="47.35771" lon="-1.85387">
        <ele>78</ele>
        <time>2016-01-02T15:02:07Z</time>
      </trkpt>
      <trkpt lat="47.35771" lon="-1.85382">
        <ele>78</ele>
        <time>2016-01-02T15:02:08Z</time>
      </trkpt>
      <trkpt lat="47.35771" lon="-1.85378">
        <ele>78</ele>
        <time>2016-01-02T15:02:09Z</time>
      </trkpt>
      <trkpt lat="47.3577" lon="-1.85373">
        <ele>78</ele>
        <time>2016-01-02T15:02:10Z</time>
      </trkpt>
      <trkpt lat="47.3577" lon="-1.85368">
        <ele>78</ele>
        <time>2016-01-02T15:02:11Z</time>
      </trkpt>
      <trkpt lat="47.3577" lon="-1.85363">
        <ele>78</ele>
        <time>2016-01-02T15:02:12Z</time>
      </trkpt>
      <trkpt lat="47.35773" lon="-1.85359">
        <ele>78</ele>
        <time>2016-01-02T15:02:13Z</time>
      </trkpt>
      <trkpt lat="47.35776" lon="-1.85352">
        <ele>78</ele>
        <time>2016-01-02T15:02:15Z</time>
      </trkpt>
      <trkpt lat="47.35777" lon="-1.85345">
        <ele>78</ele>
        <time>2016-01-02T15:02:17Z</time>
      </trkpt>
      <trkpt lat="47.35775" lon="-1.85342">
        <ele>78</ele>
        <time>2016-01-02T15:02:19Z</time>
      </trkpt>
      <trkpt lat="47.35773" lon="-1.85338">
        <ele>77</ele>
        <time>2016-01-02T15:02:21Z</time>
      </trkpt>
      <trkpt lat="47.35773" lon="-1.85334">
        <ele>77</ele>
        <time>2016-01-02T15:02:22Z</time>
      </trkpt>
      <trkpt lat="47.35774" lon="-1.8533">
        <ele>76</ele>
        <time>2016-01-02T15:02:23Z</time>
      </trkpt>
      <trkpt lat="47.35776" lon="-1.85325">
        <ele>76</ele>
        <time>2016-01-02T15:02:24Z</time>
      </trkpt>
      <trkpt lat="47.35779" lon="-1.85321">
        <ele>76</ele>
        <time>2016-01-02T15:02:25Z</time>
      </trkpt>
      <trkpt lat="47.35781" lon="-1.85317">
        <ele>76</ele>
        <time>2016-01-02T15:02:27Z</time>
      </trkpt>
      <trkpt lat="47.35783" lon="-1.85308">
        <ele>76</ele>
        <time>2016-01-02T15:02:29Z</time>
      </trkpt>
      <trkpt lat="47.35783" lon="-1.85302">
        <ele>76</ele>
        <time>2016-01-02T15:02:31Z</time>
      </trkpt>
      <trkpt lat="47.35782" lon="-1.85295">
        <ele>76</ele>
        <time>2016-01-02T15:02:32Z</time>
      </trkpt>
      <trkpt lat="47.35782" lon="-1.8529">
        <ele>76</ele>
        <time>2016-01-02T15:02:33Z</time>
      </trkpt>
      <trkpt lat="47.35784" lon="-1.85283">
        <ele>76</ele>
        <time>2016-01-02T15:02:34Z</time>
      </trkpt>
      <trkpt lat="47.35785" lon="-1.85276">
        <ele>76</ele>
        <time>2016-01-02T15:02:36Z</time>
      </trkpt>
      <trkpt lat="47.35788" lon="-1.85272">
        <ele>76</ele>
        <time>2016-01-02T15:02:37Z</time>
      </trkpt>
      <trkpt lat="47.3579" lon="-1.85267">
        <ele>76</ele>
        <time>2016-01-02T15:02:38Z</time>
      </trkpt>
      <trkpt lat="47.35794" lon="-1.85262">
        <ele>76</ele>
        <time>2016-01-02T15:02:40Z</time>
      </trkpt>
      <trkpt lat="47.35797" lon="-1.85258">
        <ele>76</ele>
        <time>2016-01-02T15:02:42Z</time>
      </trkpt>
      <trkpt lat="47.35801" lon="-1.85262">
        <ele>76</ele>
        <time>2016-01-02T15:02:44Z</time>
      </trkpt>
      <trkpt lat="47.35803" lon="-1.8527">
        <ele>76</ele>
        <time>2016-01-02T15:02:46Z</time>
      </trkpt>
      <trkpt lat="47.35805" lon="-1.85274">
        <ele>76</ele>
        <time>2016-01-02T15:02:47Z</time>
      </trkpt>
      <trkpt lat="47.35807" lon="-1.85278">
        <ele>76</ele>
        <time>2016-01-02T15:02:48Z</time>
      </trkpt>
      <trkpt lat="47.35809" lon="-1.85282">
        <ele>77</ele>
        <time>2016-01-02T15:02:49Z</time>
      </trkpt>
      <trkpt lat="47.35811" lon="-1.85285">
        <ele>77</ele>
        <time>2016-01-02T15:02:50Z</time>
      </trkpt>
      <trkpt lat="47.35814" lon="-1.85289">
        <ele>77</ele>
        <time>2016-01-02T15:02:52Z</time>
      </trkpt>
      <trkpt lat="47.35818" lon="-1.85286">
        <ele>77</ele>
        <time>2016-01-02T15:02:54Z</time>
      </trkpt>
      <trkpt lat="47.35819" lon="-1.85279">
        <ele>77</ele>
        <time>2016-01-02T15:02:56Z</time>
      </trkpt>
      <trkpt lat="47.3582" lon="-1.85273">
        <ele>77</ele>
        <time>2016-01-02T15:02:58Z</time>
      </trkpt>
      <trkpt lat="47.35822" lon="-1.85265">
        <ele>77</ele>
        <time>2016-01-02T15:03:00Z</time>
      </trkpt>
      <trkpt lat="47.35823" lon="-1.85259">
        <ele>77</ele>
        <time>2016-01-02T15:03:02Z</time>
      </trkpt>
      <trkpt lat="47.35824" lon="-1.85255">
        <ele>77</ele>
        <time>2016-01-02T15:03:03Z</time>
      </trkpt>
      <trkpt lat="47.35826" lon="-1.8525">
        <ele>77</ele>
        <time>2016-01-02T15:03:04Z</time>
      </trkpt>
      <trkpt lat="47.35827" lon="-1.85244">
        <ele>75</ele>
        <time>2016-01-02T15:03:06Z</time>
      </trkpt>
      <trkpt lat="47.35827" lon="-1.85239">
        <ele>75</ele>
        <time>2016-01-02T15:03:07Z</time>
      </trkpt>
      <trkpt lat="47.35827" lon="-1.85234">
        <ele>74</ele>
        <time>2016-01-02T15:03:09Z</time>
      </trkpt>
      <trkpt lat="47.35828" lon="-1.85229">
        <ele>74</ele>
        <time>2016-01-02T15:03:11Z</time>
      </trkpt>
      <trkpt lat="47.35829" lon="-1.85225">
        <ele>73</ele>
        <time>2016-01-02T15:03:12Z</time>
      </trkpt>
      <trkpt lat="47.35831" lon="-1.85222">
        <ele>73</ele>
        <time>2016-01-02T15:03:13Z</time>
      </trkpt>
      <trkpt lat="47.35834" lon="-1.85217">
        <ele>74</ele>
        <time>2016-01-02T15:03:14Z</time>
      </trkpt>
      <trkpt lat="47.35837" lon="-1.85214">
        <ele>74</ele>
        <time>2016-01-02T15:03:15Z</time>
      </trkpt>
      <trkpt lat="47.35839" lon="-1.85211">
        <ele>74</ele>
        <time>2016-01-02T15:03:16Z</time>
      </trkpt>
      <trkpt lat="47.35843" lon="-1.85208">
        <ele>74</ele>
        <time>2016-01-02T15:03:18Z</time>
      </trkpt>
      <trkpt lat="47.35845" lon="-1.85206">
        <ele>74</ele>
        <time>2016-01-02T15:03:20Z</time>
      </trkpt>
      <trkpt lat="47.35847" lon="-1.85204">
        <ele>73</ele>
        <time>2016-01-02T15:03:29Z</time>
      </trkpt>
      <trkpt lat="47.35849" lon="-1.85201">
        <ele>73</ele>
        <time>2016-01-02T15:03:37Z</time>
      </trkpt>
      <trkpt lat="47.35853" lon="-1.85203">
        <ele>73</ele>
        <time>2016-01-02T15:03:39Z</time>
      </trkpt>
      <trkpt lat="47.35855" lon="-1.85206">
        <ele>74</ele>
        <time>2016-01-02T15:03:42Z</time>
      </trkpt>
      <trkpt lat="47.35858" lon="-1.85209">
        <ele>74</ele>
        <time>2016-01-02T15:03:45Z</time>
      </trkpt>
      <trkpt lat="47.35861" lon="-1.8521">
        <ele>74</ele>
        <time>2016-01-02T15:03:51Z</time>
      </trkpt>
      <trkpt lat="47.35861" lon="-1.85215">
        <ele>74</ele>
        <time>2016-01-02T15:04:15Z</time>
      </trkpt>
      <trkpt lat="47.35859" lon="-1.85221">
        <ele>74</ele>
        <time>2016-01-02T15:04:17Z</time>
      </trkpt>
      <trkpt lat="47.3586" lon="-1.85227">
        <ele>74</ele>
        <time>2016-01-02T15:04:19Z</time>
      </trkpt>
      <trkpt lat="47.35861" lon="-1.85233">
        <ele>75</ele>
        <time>2016-01-02T15:04:21Z</time>
      </trkpt>
      <trkpt lat="47.35862" lon="-1.8524">
        <ele>75</ele>
        <time>2016-01-02T15:04:23Z</time>
      </trkpt>
      <trkpt lat="47.35863" lon="-1.85246">
        <ele>75</ele>
        <time>2016-01-02T15:04:25Z</time>
      </trkpt>
      <trkpt lat="47.35864" lon="-1.85251">
        <ele>77</ele>
        <time>2016-01-02T15:04:27Z</time>
      </trkpt>
      <trkpt lat="47.35864" lon="-1.85256">
        <ele>77</ele>
        <time>2016-01-02T15:04:29Z</time>
      </trkpt>
      <trkpt lat="47.35862" lon="-1.85261">
        <ele>77</ele>
        <time>2016-01-02T15:04:31Z</time>
      </trkpt>
      <trkpt lat="47.35859" lon="-1.85266">
        <ele>77</ele>
        <time>2016-01-02T15:04:33Z</time>
      </trkpt>
      <trkpt lat="47.35857" lon="-1.85269">
        <ele>77</ele>
        <time>2016-01-02T15:04:35Z</time>
      </trkpt>
      <trkpt lat="47.35856" lon="-1.85273">
        <ele>77</ele>
        <time>2016-01-02T15:04:37Z</time>
      </trkpt>
      <trkpt lat="47.35854" lon="-1.85277">
        <ele>78</ele>
        <time>2016-01-02T15:04:39Z</time>
      </trkpt>
      <trkpt lat="47.35853" lon="-1.85282">
        <ele>78</ele>
        <time>2016-01-02T15:04:41Z</time>
      </trkpt>
      <trkpt lat="47.35853" lon="-1.85287">
        <ele>78</ele>
        <time>2016-01-02T15:04:43Z</time>
      </trkpt>
      <trkpt lat="47.35853" lon="-1.85291">
        <ele>78</ele>
        <time>2016-01-02T15:04:44Z</time>
      </trkpt>
      <trkpt lat="47.35851" lon="-1.85302">
        <ele>78</ele>
        <time>2016-01-02T15:04:47Z</time>
      </trkpt>
      <trkpt lat="47.35845" lon="-1.8531">
        <ele>79</ele>
        <time>2016-01-02T15:04:49Z</time>
      </trkpt>
      <trkpt lat="47.35842" lon="-1.85314">
        <ele>79</ele>
        <time>2016-01-02T15:04:50Z</time>
      </trkpt>
      <trkpt lat="47.35841" lon="-1.85318">
        <ele>80</ele>
        <time>2016-01-02T15:04:51Z</time>
      </trkpt>
      <trkpt lat="47.35839" lon="-1.85323">
        <ele>80</ele>
        <time>2016-01-02T15:04:52Z</time>
      </trkpt>
      <trkpt lat="47.35838" lon="-1.85328">
        <ele>81</ele>
        <time>2016-01-02T15:04:53Z</time>
      </trkpt>
      <trkpt lat="47.35838" lon="-1.85333">
        <ele>81</ele>
        <time>2016-01-02T15:04:54Z</time>
      </trkpt>
      <trkpt lat="47.35838" lon="-1.85338">
        <ele>81</ele>
        <time>2016-01-02T15:04:55Z</time>
      </trkpt>
      <trkpt lat="47.35838" lon="-1.85344">
        <ele>81</ele>
        <time>2016-01-02T15:04:56Z</time>
      </trkpt>
      <trkpt lat="47.35838" lon="-1.85348">
        <ele>81</ele>
        <time>2016-01-02T15:04:57Z</time>
      </trkpt>
      <trkpt lat="47.35838" lon="-1.85353">
        <ele>81</ele>
        <time>2016-01-02T15:04:58Z</time>
      </trkpt>
      <trkpt lat="47.35839" lon="-1.85359">
        <ele>81</ele>
        <time>2016-01-02T15:04:59Z</time>
      </trkpt>
      <trkpt lat="47.35839" lon="-1.85364">
        <ele>80</ele>
        <time>2016-01-02T15:05:00Z</time>
      </trkpt>
      <trkpt lat="47.3584" lon="-1.85369">
        <ele>80</ele>
        <time>2016-01-02T15:05:01Z</time>
      </trkpt>
      <trkpt lat="47.35841" lon="-1.85374">
        <ele>80</ele>
        <time>2016-01-02T15:05:02Z</time>
      </trkpt>
      <trkpt lat="47.35842" lon="-1.85378">
        <ele>80</ele>
        <time>2016-01-02T15:05:03Z</time>
      </trkpt>
      <trkpt lat="47.35843" lon="-1.85382">
        <ele>80</ele>
        <time>2016-01-02T15:05:04Z</time>
      </trkpt>
      <trkpt lat="47.35844" lon="-1.8539">
        <ele>80</ele>
        <time>2016-01-02T15:05:06Z</time>
      </trkpt>
      <trkpt lat="47.35844" lon="-1.85398">
        <ele>81</ele>
        <time>2016-01-02T15:05:08Z</time>
      </trkpt>
      <trkpt lat="47.35845" lon="-1.85402">
        <ele>81</ele>
        <time>2016-01-02T15:05:09Z</time>
      </trkpt>
      <trkpt lat="47.35845" lon="-1.8541">
        <ele>81</ele>
        <time>2016-01-02T15:05:11Z</time>
      </trkpt>
      <trkpt lat="47.35847" lon="-1.85417">
        <ele>81</ele>
        <time>2016-01-02T15:05:13Z</time>
      </trkpt>
      <trkpt lat="47.35847" lon="-1.85421">
        <ele>81</ele>
        <time>2016-01-02T15:05:14Z</time>
      </trkpt>
      <trkpt lat="47.35847" lon="-1.85425">
        <ele>81</ele>
        <time>2016-01-02T15:05:15Z</time>
      </trkpt>
      <trkpt lat="47.35847" lon="-1.85432">
        <ele>81</ele>
        <time>2016-01-02T15:05:17Z</time>
      </trkpt>
      <trkpt lat="47.35848" lon="-1.85441">
        <ele>81</ele>
        <time>2016-01-02T15:05:19Z</time>
      </trkpt>
      <trkpt lat="47.35848" lon="-1.85445">
        <ele>81</ele>
        <time>2016-01-02T15:05:20Z</time>
      </trkpt>
      <trkpt lat="47.35848" lon="-1.85449">
        <ele>81</ele>
        <time>2016-01-02T15:05:21Z</time>
      </trkpt>
      <trkpt lat="47.35849" lon="-1.85454">
        <ele>81</ele>
        <time>2016-01-02T15:05:22Z</time>
      </trkpt>
      <trkpt lat="47.35849" lon="-1.85461">
        <ele>81</ele>
        <time>2016-01-02T15:05:24Z</time>
      </trkpt>
      <trkpt lat="47.3585" lon="-1.85466">
        <ele>81</ele>
        <time>2016-01-02T15:05:27Z</time>
      </trkpt>
      <trkpt lat="47.35852" lon="-1.85468">
        <ele>81</ele>
        <time>2016-01-02T15:05:29Z</time>
      </trkpt>
      <trkpt lat="47.35856" lon="-1.85469">
        <ele>81</ele>
        <time>2016-01-02T15:05:31Z</time>
      </trkpt>
      <trkpt lat="47.35861" lon="-1.8547">
        <ele>81</ele>
        <time>2016-01-02T15:05:33Z</time>
      </trkpt>
      <trkpt lat="47.35864" lon="-1.8547">
        <ele>81</ele>
        <time>2016-01-02T15:05:34Z</time>
      </trkpt>
      <trkpt lat="47.35868" lon="-1.85468">
        <ele>81</ele>
        <time>2016-01-02T15:05:36Z</time>
      </trkpt>
      <trkpt lat="47.35873" lon="-1.85465">
        <ele>81</ele>
        <time>2016-01-02T15:05:38Z</time>
      </trkpt>
      <trkpt lat="47.35877" lon="-1.85462">
        <ele>81</ele>
        <time>2016-01-02T15:05:40Z</time>
      </trkpt>
      <trkpt lat="47.35881" lon="-1.85462">
        <ele>81</ele>
        <time>2016-01-02T15:05:42Z</time>
      </trkpt>
      <trkpt lat="47.35886" lon="-1.85464">
        <ele>81</ele>
        <time>2016-01-02T15:05:44Z</time>
      </trkpt>
      <trkpt lat="47.3589" lon="-1.85465">
        <ele>81</ele>
        <time>2016-01-02T15:05:46Z</time>
      </trkpt>
      <trkpt lat="47.35894" lon="-1.85463">
        <ele>81</ele>
        <time>2016-01-02T15:05:49Z</time>
      </trkpt>
      <trkpt lat="47.35898" lon="-1.85461">
        <ele>81</ele>
        <time>2016-01-02T15:05:51Z</time>
      </trkpt>
      <trkpt lat="47.35903" lon="-1.85463">
        <ele>81</ele>
        <time>2016-01-02T15:05:53Z</time>
      </trkpt>
      <trkpt lat="47.35907" lon="-1.85465">
        <ele>81</ele>
        <time>2016-01-02T15:05:55Z</time>
      </trkpt>
      <trkpt lat="47.3591" lon="-1.85463">
        <ele>81</ele>
        <time>2016-01-02T15:05:57Z</time>
      </trkpt>
      <trkpt lat="47.35914" lon="-1.85461">
        <ele>81</ele>
        <time>2016-01-02T15:05:59Z</time>
      </trkpt>
      <trkpt lat="47.35917" lon="-1.85461">
        <ele>79</ele>
        <time>2016-01-02T15:06:01Z</time>
      </trkpt>
      <trkpt lat="47.35921" lon="-1.8546">
        <ele>79</ele>
        <time>2016-01-02T15:06:04Z</time>
      </trkpt>
      <trkpt lat="47.35926" lon="-1.85458">
        <ele>78</ele>
        <time>2016-01-02T15:06:06Z</time>
      </trkpt>
      <trkpt lat="47.35929" lon="-1.85457">
        <ele>78</ele>
        <time>2016-01-02T15:06:07Z</time>
      </trkpt>
      <trkpt lat="47.35933" lon="-1.85458">
        <ele>78</ele>
        <time>2016-01-02T15:06:08Z</time>
      </trkpt>
      <trkpt lat="47.35936" lon="-1.85459">
        <ele>78</ele>
        <time>2016-01-02T15:06:09Z</time>
      </trkpt>
      <trkpt lat="47.35938" lon="-1.85462">
        <ele>78</ele>
        <time>2016-01-02T15:06:10Z</time>
      </trkpt>
      <trkpt lat="47.3594" lon="-1.85468">
        <ele>79</ele>
        <time>2016-01-02T15:06:12Z</time>
      </trkpt>
      <trkpt lat="47.35941" lon="-1.85474">
        <ele>79</ele>
        <time>2016-01-02T15:06:14Z</time>
      </trkpt>
      <trkpt lat="47.35941" lon="-1.8548">
        <ele>79</ele>
        <time>2016-01-02T15:06:16Z</time>
      </trkpt>
      <trkpt lat="47.35941" lon="-1.85486">
        <ele>79</ele>
        <time>2016-01-02T15:06:18Z</time>
      </trkpt>
      <trkpt lat="47.35941" lon="-1.85491">
        <ele>79</ele>
        <time>2016-01-02T15:06:19Z</time>
      </trkpt>
      <trkpt lat="47.3594" lon="-1.85499">
        <ele>79</ele>
        <time>2016-01-02T15:06:21Z</time>
      </trkpt>
      <trkpt lat="47.35937" lon="-1.85504">
        <ele>82</ele>
        <time>2016-01-02T15:06:23Z</time>
      </trkpt>
      <trkpt lat="47.35935" lon="-1.85507">
        <ele>82</ele>
        <time>2016-01-02T15:06:24Z</time>
      </trkpt>
      <trkpt lat="47.35933" lon="-1.85513">
        <ele>82</ele>
        <time>2016-01-02T15:06:26Z</time>
      </trkpt>
      <trkpt lat="47.35931" lon="-1.8552">
        <ele>82</ele>
        <time>2016-01-02T15:06:28Z</time>
      </trkpt>
      <trkpt lat="47.3593" lon="-1.85525">
        <ele>82</ele>
        <time>2016-01-02T15:06:30Z</time>
      </trkpt>
      <trkpt lat="47.35931" lon="-1.85529">
        <ele>82</ele>
        <time>2016-01-02T15:06:36Z</time>
      </trkpt>
      <trkpt lat="47.35931" lon="-1.85534">
        <ele>82</ele>
        <time>2016-01-02T15:06:39Z</time>
      </trkpt>
      <trkpt lat="47.35929" lon="-1.85539">
        <ele>83</ele>
        <time>2016-01-02T15:06:41Z</time>
      </trkpt>
      <trkpt lat="47.35927" lon="-1.85543">
        <ele>83</ele>
        <time>2016-01-02T15:06:42Z</time>
      </trkpt>
      <trkpt lat="47.35926" lon="-1.85546">
        <ele>83</ele>
        <time>2016-01-02T15:06:43Z</time>
      </trkpt>
      <trkpt lat="47.35924" lon="-1.85549">
        <ele>83</ele>
        <time>2016-01-02T15:06:44Z</time>
      </trkpt>
      <trkpt lat="47.35922" lon="-1.85553">
        <ele>83</ele>
        <time>2016-01-02T15:06:45Z</time>
      </trkpt>
      <trkpt lat="47.3592" lon="-1.8556">
        <ele>84</ele>
        <time>2016-01-02T15:06:47Z</time>
      </trkpt>
      <trkpt lat="47.3592" lon="-1.85567">
        <ele>84</ele>
        <time>2016-01-02T15:06:49Z</time>
      </trkpt>
      <trkpt lat="47.35921" lon="-1.85573">
        <ele>85</ele>
        <time>2016-01-02T15:06:51Z</time>
      </trkpt>
      <trkpt lat="47.35922" lon="-1.85578">
        <ele>86</ele>
        <time>2016-01-02T15:06:53Z</time>
      </trkpt>
      <trkpt lat="47.35919" lon="-1.85582">
        <ele>86</ele>
        <time>2016-01-02T15:06:56Z</time>
      </trkpt>
      <trkpt lat="47.35918" lon="-1.85587">
        <ele>87</ele>
        <time>2016-01-02T15:06:58Z</time>
      </trkpt>
      <trkpt lat="47.35917" lon="-1.85592">
        <ele>86</ele>
        <time>2016-01-02T15:07:00Z</time>
      </trkpt>
      <trkpt lat="47.35916" lon="-1.85598">
        <ele>86</ele>
        <time>2016-01-02T15:07:02Z</time>
      </trkpt>
      <trkpt lat="47.35918" lon="-1.85603">
        <ele>86</ele>
        <time>2016-01-02T15:07:04Z</time>
      </trkpt>
      <trkpt lat="47.35919" lon="-1.85606">
        <ele>86</ele>
        <time>2016-01-02T15:07:06Z</time>
      </trkpt>
      <trkpt lat="47.3592" lon="-1.85611">
        <ele>86</ele>
        <time>2016-01-02T15:07:08Z</time>
      </trkpt>
      <trkpt lat="47.35921" lon="-1.85616">
        <ele>86</ele>
        <time>2016-01-02T15:07:10Z</time>
      </trkpt>
      <trkpt lat="47.35922" lon="-1.85622">
        <ele>86</ele>
        <time>2016-01-02T15:07:12Z</time>
      </trkpt>
      <trkpt lat="47.35923" lon="-1.85628">
        <ele>86</ele>
        <time>2016-01-02T15:07:14Z</time>
      </trkpt>
      <trkpt lat="47.35925" lon="-1.85632">
        <ele>86</ele>
        <time>2016-01-02T15:07:16Z</time>
      </trkpt>
      <trkpt lat="47.35928" lon="-1.85634">
        <ele>86</ele>
        <time>2016-01-02T15:07:18Z</time>
      </trkpt>
      <trkpt lat="47.35931" lon="-1.85635">
        <ele>85</ele>
        <time>2016-01-02T15:07:20Z</time>
      </trkpt>
      <trkpt lat="47.35935" lon="-1.85636">
        <ele>85</ele>
        <time>2016-01-02T15:07:21Z</time>
      </trkpt>
      <trkpt lat="47.35939" lon="-1.8564">
        <ele>85</ele>
        <time>2016-01-02T15:07:22Z</time>
      </trkpt>
      <trkpt lat="47.35942" lon="-1.85643">
        <ele>85</ele>
        <time>2016-01-02T15:07:23Z</time>
      </trkpt>
      <trkpt lat="47.35946" lon="-1.85644">
        <ele>85</ele>
        <time>2016-01-02T15:07:24Z</time>
      </trkpt>
      <trkpt lat="47.35949" lon="-1.85643">
        <ele>85</ele>
        <time>2016-01-02T15:07:25Z</time>
      </trkpt>
      <trkpt lat="47.35951" lon="-1.85641">
        <ele>85</ele>
        <time>2016-01-02T15:07:26Z</time>
      </trkpt>
      <trkpt lat="47.35956" lon="-1.8564">
        <ele>85</ele>
        <time>2016-01-02T15:07:28Z</time>
      </trkpt>
      <trkpt lat="47.35959" lon="-1.85641">
        <ele>85</ele>
        <time>2016-01-02T15:07:29Z</time>
      </trkpt>
      <trkpt lat="47.35962" lon="-1.85643">
        <ele>85</ele>
        <time>2016-01-02T15:07:30Z</time>
      </trkpt>
      <trkpt lat="47.35965" lon="-1.85644">
        <ele>85</ele>
        <time>2016-01-02T15:07:31Z</time>
      </trkpt>
      <trkpt lat="47.35968" lon="-1.85646">
        <ele>85</ele>
        <time>2016-01-02T15:07:32Z</time>
      </trkpt>
      <trkpt lat="47.35971" lon="-1.85645">
        <ele>85</ele>
        <time>2016-01-02T15:07:33Z</time>
      </trkpt>
      <trkpt lat="47.35976" lon="-1.85642">
        <ele>84</ele>
        <time>2016-01-02T15:07:35Z</time>
      </trkpt>
      <trkpt lat="47.3598" lon="-1.8564">
        <ele>84</ele>
        <time>2016-01-02T15:07:36Z</time>
      </trkpt>
      <trkpt lat="47.35983" lon="-1.85639">
        <ele>84</ele>
        <time>2016-01-02T15:07:37Z</time>
      </trkpt>
      <trkpt lat="47.35987" lon="-1.85638">
        <ele>84</ele>
        <time>2016-01-02T15:07:38Z</time>
      </trkpt>
      <trkpt lat="47.35992" lon="-1.85638">
        <ele>84</ele>
        <time>2016-01-02T15:07:39Z</time>
      </trkpt>
      <trkpt lat="47.35996" lon="-1.85638">
        <ele>84</ele>
        <time>2016-01-02T15:07:40Z</time>
      </trkpt>
      <trkpt lat="47.36001" lon="-1.85637">
        <ele>80</ele>
        <time>2016-01-02T15:07:41Z</time>
      </trkpt>
      <trkpt lat="47.36005" lon="-1.85637">
        <ele>80</ele>
        <time>2016-01-02T15:07:42Z</time>
      </trkpt>
      <trkpt lat="47.36009" lon="-1.85637">
        <ele>80</ele>
        <time>2016-01-02T15:07:43Z</time>
      </trkpt>
      <trkpt lat="47.36013" lon="-1.85636">
        <ele>80</ele>
        <time>2016-01-02T15:07:44Z</time>
      </trkpt>
      <trkpt lat="47.36016" lon="-1.85636">
        <ele>80</ele>
        <time>2016-01-02T15:07:45Z</time>
      </trkpt>
      <trkpt lat="47.36019" lon="-1.85636">
        <ele>79</ele>
        <time>2016-01-02T15:07:46Z</time>
      </trkpt>
      <trkpt lat="47.36022" lon="-1.85639">
        <ele>79</ele>
        <time>2016-01-02T15:07:47Z</time>
      </trkpt>
      <trkpt lat="47.36024" lon="-1.85643">
        <ele>79</ele>
        <time>2016-01-02T15:07:48Z</time>
      </trkpt>
      <trkpt lat="47.36026" lon="-1.85647">
        <ele>79</ele>
        <time>2016-01-02T15:07:49Z</time>
      </trkpt>
      <trkpt lat="47.36027" lon="-1.85652">
        <ele>79</ele>
        <time>2016-01-02T15:07:50Z</time>
      </trkpt>
      <trkpt lat="47.36029" lon="-1.85657">
        <ele>79</ele>
        <time>2016-01-02T15:07:51Z</time>
      </trkpt>
      <trkpt lat="47.36029" lon="-1.85662">
        <ele>80</ele>
        <time>2016-01-02T15:07:52Z</time>
      </trkpt>
      <trkpt lat="47.36029" lon="-1.85666">
        <ele>80</ele>
        <time>2016-01-02T15:07:53Z</time>
      </trkpt>
      <trkpt lat="47.36027" lon="-1.85671">
        <ele>80</ele>
        <time>2016-01-02T15:07:55Z</time>
      </trkpt>
      <trkpt lat="47.36024" lon="-1.85672">
        <ele>80</ele>
        <time>2016-01-02T15:07:57Z</time>
      </trkpt>
      <trkpt lat="47.36021" lon="-1.85675">
        <ele>80</ele>
        <time>2016-01-02T15:07:59Z</time>
      </trkpt>
      <trkpt lat="47.36018" lon="-1.85681">
        <ele>80</ele>
        <time>2016-01-02T15:08:01Z</time>
      </trkpt>
      <trkpt lat="47.36017" lon="-1.85684">
        <ele>80</ele>
        <time>2016-01-02T15:08:02Z</time>
      </trkpt>
      <trkpt lat="47.36012" lon="-1.85689">
        <ele>80</ele>
        <time>2016-01-02T15:08:04Z</time>
      </trkpt>
      <trkpt lat="47.36009" lon="-1.85691">
        <ele>80</ele>
        <time>2016-01-02T15:08:05Z</time>
      </trkpt>
      <trkpt lat="47.36006" lon="-1.85692">
        <ele>80</ele>
        <time>2016-01-02T15:08:06Z</time>
      </trkpt>
      <trkpt lat="47.36002" lon="-1.85695">
        <ele>80</ele>
        <time>2016-01-02T15:08:07Z</time>
      </trkpt>
      <trkpt lat="47.35998" lon="-1.85698">
        <ele>85</ele>
        <time>2016-01-02T15:08:08Z</time>
      </trkpt>
      <trkpt lat="47.35995" lon="-1.85701">
        <ele>85</ele>
        <time>2016-01-02T15:08:09Z</time>
      </trkpt>
      <trkpt lat="47.35993" lon="-1.85704">
        <ele>85</ele>
        <time>2016-01-02T15:08:10Z</time>
      </trkpt>
      <trkpt lat="47.35991" lon="-1.85707">
        <ele>85</ele>
        <time>2016-01-02T15:08:11Z</time>
      </trkpt>
      <trkpt lat="47.35989" lon="-1.8571">
        <ele>85</ele>
        <time>2016-01-02T15:08:12Z</time>
      </trkpt>
      <trkpt lat="47.35986" lon="-1.85714">
        <ele>85</ele>
        <time>2016-01-02T15:08:13Z</time>
      </trkpt>
      <trkpt lat="47.35982" lon="-1.85717">
        <ele>85</ele>
        <time>2016-01-02T15:08:15Z</time>
      </trkpt>
      <trkpt lat="47.35978" lon="-1.85718">
        <ele>85</ele>
        <time>2016-01-02T15:08:17Z</time>
      </trkpt>
      <trkpt lat="47.35975" lon="-1.8572">
        <ele>85</ele>
        <time>2016-01-02T15:08:18Z</time>
      </trkpt>
      <trkpt lat="47.35973" lon="-1.85722">
        <ele>85</ele>
        <time>2016-01-02T15:08:19Z</time>
      </trkpt>
      <trkpt lat="47.35971" lon="-1.85726">
        <ele>85</ele>
        <time>2016-01-02T15:08:20Z</time>
      </trkpt>
      <trkpt lat="47.35968" lon="-1.85729">
        <ele>85</ele>
        <time>2016-01-02T15:08:21Z</time>
      </trkpt>
      <trkpt lat="47.35966" lon="-1.85732">
        <ele>85</ele>
        <time>2016-01-02T15:08:22Z</time>
      </trkpt>
      <trkpt lat="47.35964" lon="-1.85734">
        <ele>85</ele>
        <time>2016-01-02T15:08:23Z</time>
      </trkpt>
      <trkpt lat="47.35961" lon="-1.85738">
        <ele>85</ele>
        <time>2016-01-02T15:08:24Z</time>
      </trkpt>
      <trkpt lat="47.35959" lon="-1.85741">
        <ele>85</ele>
        <time>2016-01-02T15:08:25Z</time>
      </trkpt>
      <trkpt lat="47.35956" lon="-1.85744">
        <ele>86</ele>
        <time>2016-01-02T15:08:26Z</time>
      </trkpt>
      <trkpt lat="47.35954" lon="-1.85748">
        <ele>86</ele>
        <time>2016-01-02T15:08:27Z</time>
      </trkpt>
      <trkpt lat="47.35951" lon="-1.85751">
        <ele>85</ele>
        <time>2016-01-02T15:08:28Z</time>
      </trkpt>
      <trkpt lat="47.35949" lon="-1.85755">
        <ele>85</ele>
        <time>2016-01-02T15:08:29Z</time>
      </trkpt>
      <trkpt lat="47.35948" lon="-1.85758">
        <ele>86</ele>
        <time>2016-01-02T15:08:30Z</time>
      </trkpt>
      <trkpt lat="47.35947" lon="-1.85763">
        <ele>86</ele>
        <time>2016-01-02T15:08:31Z</time>
      </trkpt>
      <trkpt lat="47.35946" lon="-1.85767">
        <ele>85</ele>
        <time>2016-01-02T15:08:32Z</time>
      </trkpt>
      <trkpt lat="47.35947" lon="-1.85773">
        <ele>85</ele>
        <time>2016-01-02T15:08:33Z</time>
      </trkpt>
      <trkpt lat="47.35947" lon="-1.85778">
        <ele>85</ele>
        <time>2016-01-02T15:08:34Z</time>
      </trkpt>
      <trkpt lat="47.35946" lon="-1.85783">
        <ele>85</ele>
        <time>2016-01-02T15:08:35Z</time>
      </trkpt>
      <trkpt lat="47.35946" lon="-1.85789">
        <ele>85</ele>
        <time>2016-01-02T15:08:36Z</time>
      </trkpt>
      <trkpt lat="47.35945" lon="-1.85795">
        <ele>85</ele>
        <time>2016-01-02T15:08:37Z</time>
      </trkpt>
      <trkpt lat="47.35945" lon="-1.858">
        <ele>85</ele>
        <time>2016-01-02T15:08:38Z</time>
      </trkpt>
      <trkpt lat="47.35945" lon="-1.85806">
        <ele>85</ele>
        <time>2016-01-02T15:08:39Z</time>
      </trkpt>
      <trkpt lat="47.35945" lon="-1.85812">
        <ele>85</ele>
        <time>2016-01-02T15:08:40Z</time>
      </trkpt>
      <trkpt lat="47.35945" lon="-1.85817">
        <ele>85</ele>
        <time>2016-01-02T15:08:41Z</time>
      </trkpt>
      <trkpt lat="47.35945" lon="-1.85823">
        <ele>85</ele>
        <time>2016-01-02T15:08:42Z</time>
      </trkpt>
      <trkpt lat="47.35945" lon="-1.85828">
        <ele>85</ele>
        <time>2016-01-02T15:08:43Z</time>
      </trkpt>
      <trkpt lat="47.35944" lon="-1.85832">
        <ele>85</ele>
        <time>2016-01-02T15:08:44Z</time>
      </trkpt>
      <trkpt lat="47.35944" lon="-1.85837">
        <ele>84</ele>
        <time>2016-01-02T15:08:45Z</time>
      </trkpt>
      <trkpt lat="47.35944" lon="-1.85841">
        <ele>84</ele>
        <time>2016-01-02T15:08:46Z</time>
      </trkpt>
      <trkpt lat="47.35944" lon="-1.85846">
        <ele>84</ele>
        <time>2016-01-02T15:08:47Z</time>
      </trkpt>
      <trkpt lat="47.35944" lon="-1.85851">
        <ele>84</ele>
        <time>2016-01-02T15:08:48Z</time>
      </trkpt>
      <trkpt lat="47.35943" lon="-1.85855">
        <ele>84</ele>
        <time>2016-01-02T15:08:49Z</time>
      </trkpt>
      <trkpt lat="47.35943" lon="-1.8586">
        <ele>84</ele>
        <time>2016-01-02T15:08:50Z</time>
      </trkpt>
      <trkpt lat="47.35943" lon="-1.85865">
        <ele>83</ele>
        <time>2016-01-02T15:08:51Z</time>
      </trkpt>
      <trkpt lat="47.35943" lon="-1.85869">
        <ele>83</ele>
        <time>2016-01-02T15:08:52Z</time>
      </trkpt>
      <trkpt lat="47.35943" lon="-1.85875">
        <ele>83</ele>
        <time>2016-01-02T15:08:53Z</time>
      </trkpt>
      <trkpt lat="47.35943" lon="-1.8588">
        <ele>83</ele>
        <time>2016-01-02T15:08:54Z</time>
      </trkpt>
      <trkpt lat="47.35943" lon="-1.85885">
        <ele>83</ele>
        <time>2016-01-02T15:08:55Z</time>
      </trkpt>
      <trkpt lat="47.35944" lon="-1.85891">
        <ele>83</ele>
        <time>2016-01-02T15:08:56Z</time>
      </trkpt>
      <trkpt lat="47.35944" lon="-1.85897">
        <ele>83</ele>
        <time>2016-01-02T15:08:57Z</time>
      </trkpt>
      <trkpt lat="47.35945" lon="-1.85903">
        <ele>83</ele>
        <time>2016-01-02T15:08:58Z</time>
      </trkpt>
      <trkpt lat="47.35945" lon="-1.85909">
        <ele>83</ele>
        <time>2016-01-02T15:08:59Z</time>
      </trkpt>
      <trkpt lat="47.35945" lon="-1.85915">
        <ele>83</ele>
        <time>2016-01-02T15:09:00Z</time>
      </trkpt>
      <trkpt lat="47.35945" lon="-1.8592">
        <ele>83</ele>
        <time>2016-01-02T15:09:01Z</time>
      </trkpt>
      <trkpt lat="47.35944" lon="-1.85928">
        <ele>83</ele>
        <time>2016-01-02T15:09:03Z</time>
      </trkpt>
      <trkpt lat="47.35942" lon="-1.85933">
        <ele>83</ele>
        <time>2016-01-02T15:09:05Z</time>
      </trkpt>
      <trkpt lat="47.3594" lon="-1.85936">
        <ele>83</ele>
        <time>2016-01-02T15:09:06Z</time>
      </trkpt>
      <trkpt lat="47.35937" lon="-1.85939">
        <ele>83</ele>
        <time>2016-01-02T15:09:07Z</time>
      </trkpt>
      <trkpt lat="47.35935" lon="-1.85941">
        <ele>83</ele>
        <time>2016-01-02T15:09:08Z</time>
      </trkpt>
      <trkpt lat="47.35932" lon="-1.85943">
        <ele>83</ele>
        <time>2016-01-02T15:09:09Z</time>
      </trkpt>
      <trkpt lat="47.35928" lon="-1.85946">
        <ele>83</ele>
        <time>2016-01-02T15:09:11Z</time>
      </trkpt>
      <trkpt lat="47.35925" lon="-1.85948">
        <ele>83</ele>
        <time>2016-01-02T15:09:13Z</time>
      </trkpt>
      <trkpt lat="47.35923" lon="-1.85951">
        <ele>83</ele>
        <time>2016-01-02T15:09:15Z</time>
      </trkpt>
      <trkpt lat="47.35919" lon="-1.85951">
        <ele>83</ele>
        <time>2016-01-02T15:09:18Z</time>
      </trkpt>
      <trkpt lat="47.35915" lon="-1.8595">
        <ele>84</ele>
        <time>2016-01-02T15:09:20Z</time>
      </trkpt>
      <trkpt lat="47.35912" lon="-1.8595">
        <ele>84</ele>
        <time>2016-01-02T15:09:21Z</time>
      </trkpt>
      <trkpt lat="47.35909" lon="-1.85951">
        <ele>84</ele>
        <time>2016-01-02T15:09:22Z</time>
      </trkpt>
      <trkpt lat="47.35906" lon="-1.85952">
        <ele>84</ele>
        <time>2016-01-02T15:09:23Z</time>
      </trkpt>
      <trkpt lat="47.35902" lon="-1.85953">
        <ele>84</ele>
        <time>2016-01-02T15:09:24Z</time>
      </trkpt>
      <trkpt lat="47.35899" lon="-1.85954">
        <ele>84</ele>
        <time>2016-01-02T15:09:25Z</time>
      </trkpt>
      <trkpt lat="47.35895" lon="-1.85954">
        <ele>84</ele>
        <time>2016-01-02T15:09:26Z</time>
      </trkpt>
      <trkpt lat="47.35892" lon="-1.85954">
        <ele>84</ele>
        <time>2016-01-02T15:09:27Z</time>
      </trkpt>
      <trkpt lat="47.35889" lon="-1.85956">
        <ele>84</ele>
        <time>2016-01-02T15:09:28Z</time>
      </trkpt>
      <trkpt lat="47.35887" lon="-1.85958">
        <ele>84</ele>
        <time>2016-01-02T15:09:29Z</time>
      </trkpt>
      <trkpt lat="47.35884" lon="-1.8596">
        <ele>84</ele>
        <time>2016-01-02T15:09:30Z</time>
      </trkpt>
      <trkpt lat="47.35882" lon="-1.85963">
        <ele>84</ele>
        <time>2016-01-02T15:09:31Z</time>
      </trkpt>
      <trkpt lat="47.35878" lon="-1.85968">
        <ele>84</ele>
        <time>2016-01-02T15:09:33Z</time>
      </trkpt>
      <trkpt lat="47.35876" lon="-1.85974">
        <ele>84</ele>
        <time>2016-01-02T15:09:35Z</time>
      </trkpt>
      <trkpt lat="47.35879" lon="-1.85971">
        <ele>84</ele>
        <time>2016-01-02T15:09:39Z</time>
      </trkpt>
      <trkpt lat="47.35881" lon="-1.85968">
        <ele>84</ele>
        <time>2016-01-02T15:09:41Z</time>
      </trkpt>
      <trkpt lat="47.35885" lon="-1.85964">
        <ele>84</ele>
        <time>2016-01-02T15:09:44Z</time>
      </trkpt>
      <trkpt lat="47.35889" lon="-1.85967">
        <ele>84</ele>
        <time>2016-01-02T15:09:46Z</time>
      </trkpt>
      <trkpt lat="47.35892" lon="-1.85971">
        <ele>84</ele>
        <time>2016-01-02T15:09:47Z</time>
      </trkpt>
      <trkpt lat="47.35895" lon="-1.85973">
        <ele>84</ele>
        <time>2016-01-02T15:09:48Z</time>
      </trkpt>
      <trkpt lat="47.35898" lon="-1.85974">
        <ele>84</ele>
        <time>2016-01-02T15:09:49Z</time>
      </trkpt>
      <trkpt lat="47.35901" lon="-1.85973">
        <ele>84</ele>
        <time>2016-01-02T15:09:50Z</time>
      </trkpt>
      <trkpt lat="47.35904" lon="-1.85971">
        <ele>84</ele>
        <time>2016-01-02T15:09:51Z</time>
      </trkpt>
      <trkpt lat="47.35906" lon="-1.85968">
        <ele>84</ele>
        <time>2016-01-02T15:09:52Z</time>
      </trkpt>
      <trkpt lat="47.35908" lon="-1.85963">
        <ele>84</ele>
        <time>2016-01-02T15:09:54Z</time>
      </trkpt>
      <trkpt lat="47.35911" lon="-1.85962">
        <ele>84</ele>
        <time>2016-01-02T15:09:57Z</time>
      </trkpt>
      <trkpt lat="47.35915" lon="-1.85961">
        <ele>84</ele>
        <time>2016-01-02T15:10:00Z</time>
      </trkpt>
      <trkpt lat="47.35918" lon="-1.85964">
        <ele>83</ele>
        <time>2016-01-02T15:10:02Z</time>
      </trkpt>
      <trkpt lat="47.3592" lon="-1.85967">
        <ele>83</ele>
        <time>2016-01-02T15:10:04Z</time>
      </trkpt>
      <trkpt lat="47.35923" lon="-1.85972">
        <ele>83</ele>
        <time>2016-01-02T15:10:07Z</time>
      </trkpt>
      <trkpt lat="47.35926" lon="-1.8597">
        <ele>83</ele>
        <time>2016-01-02T15:10:09Z</time>
      </trkpt>
      <trkpt lat="47.3593" lon="-1.85972">
        <ele>83</ele>
        <time>2016-01-02T15:10:11Z</time>
      </trkpt>
      <trkpt lat="47.35933" lon="-1.85975">
        <ele>83</ele>
        <time>2016-01-02T15:10:13Z</time>
      </trkpt>
      <trkpt lat="47.35932" lon="-1.85981">
        <ele>83</ele>
        <time>2016-01-02T15:10:15Z</time>
      </trkpt>
      <trkpt lat="47.3593" lon="-1.85983">
        <ele>83</ele>
        <time>2016-01-02T15:10:16Z</time>
      </trkpt>
      <trkpt lat="47.35926" lon="-1.85983">
        <ele>83</ele>
        <time>2016-01-02T15:10:18Z</time>
      </trkpt>
      <trkpt lat="47.35923" lon="-1.85982">
        <ele>83</ele>
        <time>2016-01-02T15:10:19Z</time>
      </trkpt>
      <trkpt lat="47.3592" lon="-1.85984">
        <ele>83</ele>
        <time>2016-01-02T15:10:21Z</time>
      </trkpt>
      <trkpt lat="47.35916" lon="-1.85987">
        <ele>84</ele>
        <time>2016-01-02T15:10:23Z</time>
      </trkpt>
      <trkpt lat="47.35911" lon="-1.85987">
        <ele>84</ele>
        <time>2016-01-02T15:10:25Z</time>
      </trkpt>
      <trkpt lat="47.35907" lon="-1.85988">
        <ele>84</ele>
        <time>2016-01-02T15:10:27Z</time>
      </trkpt>
      <trkpt lat="47.35903" lon="-1.85989">
        <ele>84</ele>
        <time>2016-01-02T15:10:29Z</time>
      </trkpt>
      <trkpt lat="47.35899" lon="-1.8599">
        <ele>84</ele>
        <time>2016-01-02T15:10:31Z</time>
      </trkpt>
      <trkpt lat="47.35895" lon="-1.8599">
        <ele>84</ele>
        <time>2016-01-02T15:10:33Z</time>
      </trkpt>
      <trkpt lat="47.35891" lon="-1.85992">
        <ele>84</ele>
        <time>2016-01-02T15:10:35Z</time>
      </trkpt>
      <trkpt lat="47.35886" lon="-1.85992">
        <ele>84</ele>
        <time>2016-01-02T15:10:37Z</time>
      </trkpt>
      <trkpt lat="47.35881" lon="-1.8599">
        <ele>84</ele>
        <time>2016-01-02T15:10:39Z</time>
      </trkpt>
      <trkpt lat="47.35877" lon="-1.85991">
        <ele>84</ele>
        <time>2016-01-02T15:10:41Z</time>
      </trkpt>
      <trkpt lat="47.35873" lon="-1.85993">
        <ele>83</ele>
        <time>2016-01-02T15:10:43Z</time>
      </trkpt>
      <trkpt lat="47.35867" lon="-1.85995">
        <ele>83</ele>
        <time>2016-01-02T15:10:45Z</time>
      </trkpt>
      <trkpt lat="47.35865" lon="-1.85997">
        <ele>83</ele>
        <time>2016-01-02T15:10:46Z</time>
      </trkpt>
      <trkpt lat="47.35862" lon="-1.86">
        <ele>83</ele>
        <time>2016-01-02T15:10:47Z</time>
      </trkpt>
      <trkpt lat="47.35861" lon="-1.86005">
        <ele>83</ele>
        <time>2016-01-02T15:10:48Z</time>
      </trkpt>
      <trkpt lat="47.35863" lon="-1.86012">
        <ele>83</ele>
        <time>2016-01-02T15:10:50Z</time>
      </trkpt>
      <trkpt lat="47.35867" lon="-1.86011">
        <ele>83</ele>
        <time>2016-01-02T15:10:52Z</time>
      </trkpt>
      <trkpt lat="47.35871" lon="-1.86009">
        <ele>83</ele>
        <time>2016-01-02T15:10:54Z</time>
      </trkpt>
      <trkpt lat="47.35874" lon="-1.86009">
        <ele>83</ele>
        <time>2016-01-02T15:10:55Z</time>
      </trkpt>
      <trkpt lat="47.35877" lon="-1.8601">
        <ele>83</ele>
        <time>2016-01-02T15:10:56Z</time>
      </trkpt>
      <trkpt lat="47.3588" lon="-1.8601">
        <ele>83</ele>
        <time>2016-01-02T15:10:57Z</time>
      </trkpt>
      <trkpt lat="47.35883" lon="-1.86008">
        <ele>83</ele>
        <time>2016-01-02T15:10:58Z</time>
      </trkpt>
      <trkpt lat="47.35886" lon="-1.86007">
        <ele>83</ele>
        <time>2016-01-02T15:10:59Z</time>
      </trkpt>
      <trkpt lat="47.35889" lon="-1.86004">
        <ele>83</ele>
        <time>2016-01-02T15:11:00Z</time>
      </trkpt>
      <trkpt lat="47.35892" lon="-1.86002">
        <ele>83</ele>
        <time>2016-01-02T15:11:01Z</time>
      </trkpt>
      <trkpt lat="47.35895" lon="-1.86001">
        <ele>83</ele>
        <time>2016-01-02T15:11:02Z</time>
      </trkpt>
      <trkpt lat="47.35898" lon="-1.85999">
        <ele>84</ele>
        <time>2016-01-02T15:11:03Z</time>
      </trkpt>
      <trkpt lat="47.35901" lon="-1.86002">
        <ele>83</ele>
        <time>2016-01-02T15:11:04Z</time>
      </trkpt>
      <trkpt lat="47.35903" lon="-1.86003">
        <ele>83</ele>
        <time>2016-01-02T15:11:05Z</time>
      </trkpt>
      <trkpt lat="47.35906" lon="-1.86004">
        <ele>84</ele>
        <time>2016-01-02T15:11:06Z</time>
      </trkpt>
      <trkpt lat="47.35909" lon="-1.86005">
        <ele>84</ele>
        <time>2016-01-02T15:11:07Z</time>
      </trkpt>
      <trkpt lat="47.35912" lon="-1.86005">
        <ele>84</ele>
        <time>2016-01-02T15:11:08Z</time>
      </trkpt>
      <trkpt lat="47.35916" lon="-1.86007">
        <ele>84</ele>
        <time>2016-01-02T15:11:10Z</time>
      </trkpt>
      <trkpt lat="47.35919" lon="-1.86007">
        <ele>84</ele>
        <time>2016-01-02T15:11:11Z</time>
      </trkpt>
      <trkpt lat="47.35925" lon="-1.86007">
        <ele>83</ele>
        <time>2016-01-02T15:11:13Z</time>
      </trkpt>
      <trkpt lat="47.35927" lon="-1.86007">
        <ele>83</ele>
        <time>2016-01-02T15:11:14Z</time>
      </trkpt>
      <trkpt lat="47.35931" lon="-1.86009">
        <ele>83</ele>
        <time>2016-01-02T15:11:15Z</time>
      </trkpt>
      <trkpt lat="47.35933" lon="-1.8601">
        <ele>83</ele>
        <time>2016-01-02T15:11:16Z</time>
      </trkpt>
      <trkpt lat="47.35936" lon="-1.86013">
        <ele>83</ele>
        <time>2016-01-02T15:11:17Z</time>
      </trkpt>
      <trkpt lat="47.35938" lon="-1.86017">
        <ele>83</ele>
        <time>2016-01-02T15:11:18Z</time>
      </trkpt>
      <trkpt lat="47.3594" lon="-1.86022">
        <ele>83</ele>
        <time>2016-01-02T15:11:19Z</time>
      </trkpt>
      <trkpt lat="47.35941" lon="-1.86027">
        <ele>83</ele>
        <time>2016-01-02T15:11:20Z</time>
      </trkpt>
      <trkpt lat="47.35941" lon="-1.86031">
        <ele>83</ele>
        <time>2016-01-02T15:11:21Z</time>
      </trkpt>
      <trkpt lat="47.35941" lon="-1.86036">
        <ele>82</ele>
        <time>2016-01-02T15:11:22Z</time>
      </trkpt>
      <trkpt lat="47.35941" lon="-1.86042">
        <ele>82</ele>
        <time>2016-01-02T15:11:23Z</time>
      </trkpt>
      <trkpt lat="47.35942" lon="-1.86046">
        <ele>82</ele>
        <time>2016-01-02T15:11:24Z</time>
      </trkpt>
      <trkpt lat="47.35942" lon="-1.86052">
        <ele>82</ele>
        <time>2016-01-02T15:11:25Z</time>
      </trkpt>
      <trkpt lat="47.35942" lon="-1.86056">
        <ele>82</ele>
        <time>2016-01-02T15:11:26Z</time>
      </trkpt>
      <trkpt lat="47.35943" lon="-1.86061">
        <ele>82</ele>
        <time>2016-01-02T15:11:27Z</time>
      </trkpt>
      <trkpt lat="47.35943" lon="-1.86066">
        <ele>82</ele>
        <time>2016-01-02T15:11:28Z</time>
      </trkpt>
      <trkpt lat="47.35944" lon="-1.86071">
        <ele>82</ele>
        <time>2016-01-02T15:11:29Z</time>
      </trkpt>
      <trkpt lat="47.35944" lon="-1.86076">
        <ele>82</ele>
        <time>2016-01-02T15:11:30Z</time>
      </trkpt>
      <trkpt lat="47.35945" lon="-1.86081">
        <ele>82</ele>
        <time>2016-01-02T15:11:31Z</time>
      </trkpt>
      <trkpt lat="47.35945" lon="-1.86085">
        <ele>81</ele>
        <time>2016-01-02T15:11:32Z</time>
      </trkpt>
      <trkpt lat="47.35946" lon="-1.8609">
        <ele>81</ele>
        <time>2016-01-02T15:11:33Z</time>
      </trkpt>
      <trkpt lat="47.35946" lon="-1.86095">
        <ele>81</ele>
        <time>2016-01-02T15:11:34Z</time>
      </trkpt>
      <trkpt lat="47.35947" lon="-1.86104">
        <ele>81</ele>
        <time>2016-01-02T15:11:36Z</time>
      </trkpt>
      <trkpt lat="47.35948" lon="-1.86108">
        <ele>81</ele>
        <time>2016-01-02T15:11:37Z</time>
      </trkpt>
      <trkpt lat="47.35948" lon="-1.86112">
        <ele>81</ele>
        <time>2016-01-02T15:11:38Z</time>
      </trkpt>
      <trkpt lat="47.35949" lon="-1.86116">
        <ele>81</ele>
        <time>2016-01-02T15:11:39Z</time>
      </trkpt>
      <trkpt lat="47.3595" lon="-1.8612">
        <ele>81</ele>
        <time>2016-01-02T15:11:40Z</time>
      </trkpt>
      <trkpt lat="47.35951" lon="-1.86125">
        <ele>81</ele>
        <time>2016-01-02T15:11:41Z</time>
      </trkpt>
      <trkpt lat="47.35951" lon="-1.86129">
        <ele>81</ele>
        <time>2016-01-02T15:11:42Z</time>
      </trkpt>
      <trkpt lat="47.35951" lon="-1.86134">
        <ele>81</ele>
        <time>2016-01-02T15:11:43Z</time>
      </trkpt>
      <trkpt lat="47.35951" lon="-1.86139">
        <ele>81</ele>
        <time>2016-01-02T15:11:44Z</time>
      </trkpt>
      <trkpt lat="47.35952" lon="-1.86143">
        <ele>81</ele>
        <time>2016-01-02T15:11:45Z</time>
      </trkpt>
      <trkpt lat="47.35952" lon="-1.86149">
        <ele>81</ele>
        <time>2016-01-02T15:11:46Z</time>
      </trkpt>
      <trkpt lat="47.35953" lon="-1.86154">
        <ele>81</ele>
        <time>2016-01-02T15:11:47Z</time>
      </trkpt>
      <trkpt lat="47.35954" lon="-1.86159">
        <ele>81</ele>
        <time>2016-01-02T15:11:48Z</time>
      </trkpt>
      <trkpt lat="47.35955" lon="-1.86164">
        <ele>81</ele>
        <time>2016-01-02T15:11:49Z</time>
      </trkpt>
      <trkpt lat="47.35956" lon="-1.86169">
        <ele>80</ele>
        <time>2016-01-02T15:11:50Z</time>
      </trkpt>
      <trkpt lat="47.35957" lon="-1.86175">
        <ele>80</ele>
        <time>2016-01-02T15:11:51Z</time>
      </trkpt>
      <trkpt lat="47.35957" lon="-1.8618">
        <ele>80</ele>
        <time>2016-01-02T15:11:52Z</time>
      </trkpt>
      <trkpt lat="47.35957" lon="-1.86184">
        <ele>80</ele>
        <time>2016-01-02T15:11:53Z</time>
      </trkpt>
      <trkpt lat="47.35958" lon="-1.8619">
        <ele>80</ele>
        <time>2016-01-02T15:11:54Z</time>
      </trkpt>
      <trkpt lat="47.35958" lon="-1.86195">
        <ele>80</ele>
        <time>2016-01-02T15:11:55Z</time>
      </trkpt>
      <trkpt lat="47.35959" lon="-1.86199">
        <ele>80</ele>
        <time>2016-01-02T15:11:56Z</time>
      </trkpt>
      <trkpt lat="47.3596" lon="-1.86203">
        <ele>80</ele>
        <time>2016-01-02T15:11:57Z</time>
      </trkpt>
      <trkpt lat="47.35961" lon="-1.86207">
        <ele>79</ele>
        <time>2016-01-02T15:11:58Z</time>
      </trkpt>
      <trkpt lat="47.35961" lon="-1.86202">
        <ele>80</ele>
        <time>2016-01-02T15:12:00Z</time>
      </trkpt>
      <trkpt lat="47.35964" lon="-1.86203">
        <ele>79</ele>
        <time>2016-01-02T15:12:41Z</time>
      </trkpt>
      <trkpt lat="47.35966" lon="-1.86206">
        <ele>79</ele>
        <time>2016-01-02T15:12:42Z</time>
      </trkpt>
      <trkpt lat="47.35968" lon="-1.8621">
        <ele>79</ele>
        <time>2016-01-02T15:12:43Z</time>
      </trkpt>
      <trkpt lat="47.35969" lon="-1.86214">
        <ele>79</ele>
        <time>2016-01-02T15:12:44Z</time>
      </trkpt>
      <trkpt lat="47.35969" lon="-1.86219">
        <ele>79</ele>
        <time>2016-01-02T15:12:45Z</time>
      </trkpt>
      <trkpt lat="47.35969" lon="-1.86226">
        <ele>79</ele>
        <time>2016-01-02T15:12:47Z</time>
      </trkpt>
      <trkpt lat="47.35969" lon="-1.86232">
        <ele>79</ele>
        <time>2016-01-02T15:12:49Z</time>
      </trkpt>
      <trkpt lat="47.35969" lon="-1.86238">
        <ele>79</ele>
        <time>2016-01-02T15:12:51Z</time>
      </trkpt>
      <trkpt lat="47.3597" lon="-1.86244">
        <ele>79</ele>
        <time>2016-01-02T15:12:53Z</time>
      </trkpt>
      <trkpt lat="47.3597" lon="-1.86249">
        <ele>79</ele>
        <time>2016-01-02T15:12:55Z</time>
      </trkpt>
      <trkpt lat="47.35971" lon="-1.86255">
        <ele>78</ele>
        <time>2016-01-02T15:12:57Z</time>
      </trkpt>
      <trkpt lat="47.35972" lon="-1.8626">
        <ele>78</ele>
        <time>2016-01-02T15:12:58Z</time>
      </trkpt>
      <trkpt lat="47.35973" lon="-1.86264">
        <ele>78</ele>
        <time>2016-01-02T15:12:59Z</time>
      </trkpt>
      <trkpt lat="47.35973" lon="-1.86268">
        <ele>78</ele>
        <time>2016-01-02T15:13:00Z</time>
      </trkpt>
      <trkpt lat="47.35974" lon="-1.86273">
        <ele>77</ele>
        <time>2016-01-02T15:13:01Z</time>
      </trkpt>
      <trkpt lat="47.35975" lon="-1.86278">
        <ele>77</ele>
        <time>2016-01-02T15:13:02Z</time>
      </trkpt>
      <trkpt lat="47.35975" lon="-1.86284">
        <ele>77</ele>
        <time>2016-01-02T15:13:03Z</time>
      </trkpt>
      <trkpt lat="47.35976" lon="-1.8629">
        <ele>77</ele>
        <time>2016-01-02T15:13:04Z</time>
      </trkpt>
      <trkpt lat="47.35977" lon="-1.86295">
        <ele>77</ele>
        <time>2016-01-02T15:13:05Z</time>
      </trkpt>
      <trkpt lat="47.35977" lon="-1.86301">
        <ele>77</ele>
        <time>2016-01-02T15:13:06Z</time>
      </trkpt>
      <trkpt lat="47.35977" lon="-1.86306">
        <ele>77</ele>
        <time>2016-01-02T15:13:07Z</time>
      </trkpt>
      <trkpt lat="47.35977" lon="-1.8631">
        <ele>77</ele>
        <time>2016-01-02T15:13:08Z</time>
      </trkpt>
      <trkpt lat="47.35975" lon="-1.86314">
        <ele>77</ele>
        <time>2016-01-02T15:13:11Z</time>
      </trkpt>
      <trkpt lat="47.35977" lon="-1.8631">
        <ele>77</ele>
        <time>2016-01-02T15:13:17Z</time>
      </trkpt>
      <trkpt lat="47.35973" lon="-1.86314">
        <ele>77</ele>
        <time>2016-01-02T15:13:30Z</time>
      </trkpt>
      <trkpt lat="47.3597" lon="-1.86319">
        <ele>77</ele>
        <time>2016-01-02T15:13:32Z</time>
      </trkpt>
      <trkpt lat="47.35965" lon="-1.86321">
        <ele>77</ele>
        <time>2016-01-02T15:13:34Z</time>
      </trkpt>
      <trkpt lat="47.35961" lon="-1.86322">
        <ele>77</ele>
        <time>2016-01-02T15:13:36Z</time>
      </trkpt>
      <trkpt lat="47.35958" lon="-1.86322">
        <ele>77</ele>
        <time>2016-01-02T15:13:37Z</time>
      </trkpt>
      <trkpt lat="47.35955" lon="-1.86322">
        <ele>77</ele>
        <time>2016-01-02T15:13:38Z</time>
      </trkpt>
      <trkpt lat="47.35952" lon="-1.86322">
        <ele>77</ele>
        <time>2016-01-02T15:13:39Z</time>
      </trkpt>
      <trkpt lat="47.35949" lon="-1.86322">
        <ele>77</ele>
        <time>2016-01-02T15:13:40Z</time>
      </trkpt>
      <trkpt lat="47.35946" lon="-1.86322">
        <ele>77</ele>
        <time>2016-01-02T15:13:41Z</time>
      </trkpt>
      <trkpt lat="47.35943" lon="-1.86322">
        <ele>77</ele>
        <time>2016-01-02T15:13:42Z</time>
      </trkpt>
      <trkpt lat="47.35939" lon="-1.86322">
        <ele>77</ele>
        <time>2016-01-02T15:13:43Z</time>
      </trkpt>
      <trkpt lat="47.35936" lon="-1.86322">
        <ele>77</ele>
        <time>2016-01-02T15:13:44Z</time>
      </trkpt>
      <trkpt lat="47.35932" lon="-1.86322">
        <ele>77</ele>
        <time>2016-01-02T15:13:45Z</time>
      </trkpt>
      <trkpt lat="47.35929" lon="-1.86322">
        <ele>77</ele>
        <time>2016-01-02T15:13:46Z</time>
      </trkpt>
      <trkpt lat="47.35925" lon="-1.86322">
        <ele>77</ele>
        <time>2016-01-02T15:13:47Z</time>
      </trkpt>
      <trkpt lat="47.35922" lon="-1.86322">
        <ele>77</ele>
        <time>2016-01-02T15:13:48Z</time>
      </trkpt>
      <trkpt lat="47.35919" lon="-1.86321">
        <ele>77</ele>
        <time>2016-01-02T15:13:49Z</time>
      </trkpt>
      <trkpt lat="47.35914" lon="-1.86321">
        <ele>77</ele>
        <time>2016-01-02T15:13:50Z</time>
      </trkpt>
      <trkpt lat="47.35911" lon="-1.86321">
        <ele>77</ele>
        <time>2016-01-02T15:13:51Z</time>
      </trkpt>
      <trkpt lat="47.35907" lon="-1.86321">
        <ele>77</ele>
        <time>2016-01-02T15:13:52Z</time>
      </trkpt>
      <trkpt lat="47.35901" lon="-1.86321">
        <ele>77</ele>
        <time>2016-01-02T15:13:53Z</time>
      </trkpt>
      <trkpt lat="47.35896" lon="-1.8632">
        <ele>77</ele>
        <time>2016-01-02T15:13:54Z</time>
      </trkpt>
      <trkpt lat="47.35891" lon="-1.8632">
        <ele>78</ele>
        <time>2016-01-02T15:13:55Z</time>
      </trkpt>
      <trkpt lat="47.35877" lon="-1.8632">
        <ele>78</ele>
        <time>2016-01-02T15:13:58Z</time>
      </trkpt>
      <trkpt lat="47.35873" lon="-1.86319">
        <ele>78</ele>
        <time>2016-01-02T15:13:59Z</time>
      </trkpt>
      <trkpt lat="47.35869" lon="-1.86318">
        <ele>78</ele>
        <time>2016-01-02T15:14:00Z</time>
      </trkpt>
      <trkpt lat="47.35872" lon="-1.86314">
        <ele>78</ele>
        <time>2016-01-02T15:14:01Z</time>
      </trkpt>
      <trkpt lat="47.35869" lon="-1.86314">
        <ele>78</ele>
        <time>2016-01-02T15:14:03Z</time>
      </trkpt>
      <trkpt lat="47.35865" lon="-1.86315">
        <ele>78</ele>
        <time>2016-01-02T15:16:13Z</time>
      </trkpt>
      <trkpt lat="47.35861" lon="-1.86313">
        <ele>78</ele>
        <time>2016-01-02T15:16:15Z</time>
      </trkpt>
      <trkpt lat="47.35856" lon="-1.86312">
        <ele>78</ele>
        <time>2016-01-02T15:16:17Z</time>
      </trkpt>
      <trkpt lat="47.35852" lon="-1.86312">
        <ele>78</ele>
        <time>2016-01-02T15:16:19Z</time>
      </trkpt>
      <trkpt lat="47.35849" lon="-1.86311">
        <ele>78</ele>
        <time>2016-01-02T15:16:20Z</time>
      </trkpt>
      <trkpt lat="47.35844" lon="-1.86309">
        <ele>78</ele>
        <time>2016-01-02T15:16:22Z</time>
      </trkpt>
      <trkpt lat="47.35839" lon="-1.86307">
        <ele>78</ele>
        <time>2016-01-02T15:16:23Z</time>
      </trkpt>
      <trkpt lat="47.35836" lon="-1.86306">
        <ele>78</ele>
        <time>2016-01-02T15:16:24Z</time>
      </trkpt>
      <trkpt lat="47.35834" lon="-1.86305">
        <ele>78</ele>
        <time>2016-01-02T15:16:25Z</time>
      </trkpt>
      <trkpt lat="47.35829" lon="-1.86302">
        <ele>79</ele>
        <time>2016-01-02T15:16:26Z</time>
      </trkpt>
      <trkpt lat="47.35824" lon="-1.86299">
        <ele>79</ele>
        <time>2016-01-02T15:16:27Z</time>
      </trkpt>
      <trkpt lat="47.3582" lon="-1.86297">
        <ele>79</ele>
        <time>2016-01-02T15:16:28Z</time>
      </trkpt>
      <trkpt lat="47.35816" lon="-1.86295">
        <ele>79</ele>
        <time>2016-01-02T15:16:29Z</time>
      </trkpt>
      <trkpt lat="47.35812" lon="-1.86294">
        <ele>79</ele>
        <time>2016-01-02T15:16:30Z</time>
      </trkpt>
      <trkpt lat="47.35808" lon="-1.86292">
        <ele>79</ele>
        <time>2016-01-02T15:16:31Z</time>
      </trkpt>
      <trkpt lat="47.35804" lon="-1.86289">
        <ele>79</ele>
        <time>2016-01-02T15:16:32Z</time>
      </trkpt>
      <trkpt lat="47.35801" lon="-1.86288">
        <ele>79</ele>
        <time>2016-01-02T15:16:33Z</time>
      </trkpt>
      <trkpt lat="47.35797" lon="-1.86286">
        <ele>80</ele>
        <time>2016-01-02T15:16:34Z</time>
      </trkpt>
      <trkpt lat="47.35795" lon="-1.86283">
        <ele>80</ele>
        <time>2016-01-02T15:16:35Z</time>
      </trkpt>
      <trkpt lat="47.35792" lon="-1.86281">
        <ele>80</ele>
        <time>2016-01-02T15:16:36Z</time>
      </trkpt>
      <trkpt lat="47.35788" lon="-1.86279">
        <ele>80</ele>
        <time>2016-01-02T15:16:37Z</time>
      </trkpt>
      <trkpt lat="47.35785" lon="-1.86277">
        <ele>80</ele>
        <time>2016-01-02T15:16:38Z</time>
      </trkpt>
      <trkpt lat="47.35782" lon="-1.86275">
        <ele>80</ele>
        <time>2016-01-02T15:16:39Z</time>
      </trkpt>
      <trkpt lat="47.35778" lon="-1.86274">
        <ele>80</ele>
        <time>2016-01-02T15:16:40Z</time>
      </trkpt>
      <trkpt lat="47.35775" lon="-1.86273">
        <ele>80</ele>
        <time>2016-01-02T15:16:41Z</time>
      </trkpt>
      <trkpt lat="47.35771" lon="-1.86272">
        <ele>80</ele>
        <time>2016-01-02T15:16:42Z</time>
      </trkpt>
      <trkpt lat="47.35766" lon="-1.86274">
        <ele>80</ele>
        <time>2016-01-02T15:16:43Z</time>
      </trkpt>
      <trkpt lat="47.35762" lon="-1.86275">
        <ele>80</ele>
        <time>2016-01-02T15:16:44Z</time>
      </trkpt>
      <trkpt lat="47.35758" lon="-1.86277">
        <ele>80</ele>
        <time>2016-01-02T15:16:45Z</time>
      </trkpt>
      <trkpt lat="47.35754" lon="-1.86278">
        <ele>80</ele>
        <time>2016-01-02T15:16:46Z</time>
      </trkpt>
      <trkpt lat="47.3575" lon="-1.8628">
        <ele>81</ele>
        <time>2016-01-02T15:16:47Z</time>
      </trkpt>
      <trkpt lat="47.35746" lon="-1.86282">
        <ele>81</ele>
        <time>2016-01-02T15:16:48Z</time>
      </trkpt>
      <trkpt lat="47.35742" lon="-1.86284">
        <ele>81</ele>
        <time>2016-01-02T15:16:49Z</time>
      </trkpt>
      <trkpt lat="47.35738" lon="-1.86286">
        <ele>81</ele>
        <time>2016-01-02T15:16:50Z</time>
      </trkpt>
      <trkpt lat="47.35734" lon="-1.86288">
        <ele>81</ele>
        <time>2016-01-02T15:16:51Z</time>
      </trkpt>
      <trkpt lat="47.3573" lon="-1.86289">
        <ele>81</ele>
        <time>2016-01-02T15:16:52Z</time>
      </trkpt>
      <trkpt lat="47.35726" lon="-1.86291">
        <ele>81</ele>
        <time>2016-01-02T15:16:53Z</time>
      </trkpt>
      <trkpt lat="47.35722" lon="-1.86292">
        <ele>81</ele>
        <time>2016-01-02T15:16:54Z</time>
      </trkpt>
      <trkpt lat="47.35718" lon="-1.86294">
        <ele>81</ele>
        <time>2016-01-02T15:16:55Z</time>
      </trkpt>
      <trkpt lat="47.35714" lon="-1.86297">
        <ele>81</ele>
        <time>2016-01-02T15:16:56Z</time>
      </trkpt>
      <trkpt lat="47.35712" lon="-1.86301">
        <ele>81</ele>
        <time>2016-01-02T15:16:57Z</time>
      </trkpt>
      <trkpt lat="47.3571" lon="-1.86307">
        <ele>81</ele>
        <time>2016-01-02T15:16:58Z</time>
      </trkpt>
      <trkpt lat="47.35708" lon="-1.86312">
        <ele>81</ele>
        <time>2016-01-02T15:16:59Z</time>
      </trkpt>
      <trkpt lat="47.35706" lon="-1.86317">
        <ele>81</ele>
        <time>2016-01-02T15:17:00Z</time>
      </trkpt>
      <trkpt lat="47.35705" lon="-1.86323">
        <ele>81</ele>
        <time>2016-01-02T15:17:01Z</time>
      </trkpt>
      <trkpt lat="47.35704" lon="-1.86329">
        <ele>81</ele>
        <time>2016-01-02T15:17:02Z</time>
      </trkpt>
      <trkpt lat="47.35703" lon="-1.86336">
        <ele>80</ele>
        <time>2016-01-02T15:17:03Z</time>
      </trkpt>
      <trkpt lat="47.35701" lon="-1.86341">
        <ele>80</ele>
        <time>2016-01-02T15:17:04Z</time>
      </trkpt>
      <trkpt lat="47.35699" lon="-1.86346">
        <ele>80</ele>
        <time>2016-01-02T15:17:05Z</time>
      </trkpt>
      <trkpt lat="47.35696" lon="-1.86351">
        <ele>81</ele>
        <time>2016-01-02T15:17:06Z</time>
      </trkpt>
      <trkpt lat="47.35694" lon="-1.86355">
        <ele>81</ele>
        <time>2016-01-02T15:17:07Z</time>
      </trkpt>
      <trkpt lat="47.35692" lon="-1.8636">
        <ele>81</ele>
        <time>2016-01-02T15:17:08Z</time>
      </trkpt>
      <trkpt lat="47.3569" lon="-1.86365">
        <ele>81</ele>
        <time>2016-01-02T15:17:09Z</time>
      </trkpt>
      <trkpt lat="47.35689" lon="-1.86371">
        <ele>81</ele>
        <time>2016-01-02T15:17:10Z</time>
      </trkpt>
      <trkpt lat="47.35688" lon="-1.86376">
        <ele>81</ele>
        <time>2016-01-02T15:17:11Z</time>
      </trkpt>
      <trkpt lat="47.3569" lon="-1.86383">
        <ele>81</ele>
        <time>2016-01-02T15:17:12Z</time>
      </trkpt>
      <trkpt lat="47.3569" lon="-1.86389">
        <ele>81</ele>
        <time>2016-01-02T15:17:13Z</time>
      </trkpt>
      <trkpt lat="47.3569" lon="-1.86395">
        <ele>81</ele>
        <time>2016-01-02T15:17:14Z</time>
      </trkpt>
      <trkpt lat="47.35691" lon="-1.86402">
        <ele>81</ele>
        <time>2016-01-02T15:17:15Z</time>
      </trkpt>
      <trkpt lat="47.35691" lon="-1.86408">
        <ele>81</ele>
        <time>2016-01-02T15:17:16Z</time>
      </trkpt>
      <trkpt lat="47.35691" lon="-1.86414">
        <ele>81</ele>
        <time>2016-01-02T15:17:17Z</time>
      </trkpt>
      <trkpt lat="47.35692" lon="-1.86422">
        <ele>81</ele>
        <time>2016-01-02T15:17:18Z</time>
      </trkpt>
      <trkpt lat="47.35691" lon="-1.86428">
        <ele>81</ele>
        <time>2016-01-02T15:17:19Z</time>
      </trkpt>
      <trkpt lat="47.3569" lon="-1.86435">
        <ele>81</ele>
        <time>2016-01-02T15:17:20Z</time>
      </trkpt>
      <trkpt lat="47.35691" lon="-1.86442">
        <ele>81</ele>
        <time>2016-01-02T15:17:21Z</time>
      </trkpt>
      <trkpt lat="47.3569" lon="-1.86449">
        <ele>81</ele>
        <time>2016-01-02T15:17:22Z</time>
      </trkpt>
      <trkpt lat="47.3569" lon="-1.86455">
        <ele>81</ele>
        <time>2016-01-02T15:17:23Z</time>
      </trkpt>
      <trkpt lat="47.3569" lon="-1.86461">
        <ele>81</ele>
        <time>2016-01-02T15:17:24Z</time>
      </trkpt>
      <trkpt lat="47.35689" lon="-1.86468">
        <ele>81</ele>
        <time>2016-01-02T15:17:25Z</time>
      </trkpt>
      <trkpt lat="47.35688" lon="-1.86475">
        <ele>81</ele>
        <time>2016-01-02T15:17:26Z</time>
      </trkpt>
      <trkpt lat="47.35688" lon="-1.86481">
        <ele>81</ele>
        <time>2016-01-02T15:17:27Z</time>
      </trkpt>
      <trkpt lat="47.35687" lon="-1.86488">
        <ele>82</ele>
        <time>2016-01-02T15:17:28Z</time>
      </trkpt>
      <trkpt lat="47.35687" lon="-1.86494">
        <ele>82</ele>
        <time>2016-01-02T15:17:29Z</time>
      </trkpt>
      <trkpt lat="47.35687" lon="-1.86501">
        <ele>81</ele>
        <time>2016-01-02T15:17:30Z</time>
      </trkpt>
      <trkpt lat="47.35686" lon="-1.86508">
        <ele>81</ele>
        <time>2016-01-02T15:17:31Z</time>
      </trkpt>
      <trkpt lat="47.35686" lon="-1.86516">
        <ele>81</ele>
        <time>2016-01-02T15:17:32Z</time>
      </trkpt>
      <trkpt lat="47.35685" lon="-1.86523">
        <ele>81</ele>
        <time>2016-01-02T15:17:33Z</time>
      </trkpt>
      <trkpt lat="47.35685" lon="-1.8653">
        <ele>81</ele>
        <time>2016-01-02T15:17:34Z</time>
      </trkpt>
      <trkpt lat="47.35684" lon="-1.86536">
        <ele>81</ele>
        <time>2016-01-02T15:17:35Z</time>
      </trkpt>
      <trkpt lat="47.35685" lon="-1.86544">
        <ele>81</ele>
        <time>2016-01-02T15:17:36Z</time>
      </trkpt>
      <trkpt lat="47.35686" lon="-1.86551">
        <ele>81</ele>
        <time>2016-01-02T15:17:37Z</time>
      </trkpt>
      <trkpt lat="47.35686" lon="-1.86559">
        <ele>81</ele>
        <time>2016-01-02T15:17:38Z</time>
      </trkpt>
      <trkpt lat="47.35688" lon="-1.86568">
        <ele>81</ele>
        <time>2016-01-02T15:17:39Z</time>
      </trkpt>
      <trkpt lat="47.35688" lon="-1.86575">
        <ele>81</ele>
        <time>2016-01-02T15:17:40Z</time>
      </trkpt>
      <trkpt lat="47.35689" lon="-1.86585">
        <ele>80</ele>
        <time>2016-01-02T15:17:41Z</time>
      </trkpt>
      <trkpt lat="47.35688" lon="-1.86594">
        <ele>80</ele>
        <time>2016-01-02T15:17:42Z</time>
      </trkpt>
      <trkpt lat="47.35686" lon="-1.86601">
        <ele>80</ele>
        <time>2016-01-02T15:17:43Z</time>
      </trkpt>
      <trkpt lat="47.35686" lon="-1.8661">
        <ele>80</ele>
        <time>2016-01-02T15:17:44Z</time>
      </trkpt>
      <trkpt lat="47.35686" lon="-1.86617">
        <ele>80</ele>
        <time>2016-01-02T15:17:45Z</time>
      </trkpt>
      <trkpt lat="47.35685" lon="-1.86625">
        <ele>80</ele>
        <time>2016-01-02T15:17:46Z</time>
      </trkpt>
      <trkpt lat="47.35687" lon="-1.86635">
        <ele>80</ele>
        <time>2016-01-02T15:17:47Z</time>
      </trkpt>
      <trkpt lat="47.35686" lon="-1.86642">
        <ele>80</ele>
        <time>2016-01-02T15:17:48Z</time>
      </trkpt>
      <trkpt lat="47.35687" lon="-1.86651">
        <ele>80</ele>
        <time>2016-01-02T15:17:49Z</time>
      </trkpt>
      <trkpt lat="47.35686" lon="-1.86659">
        <ele>80</ele>
        <time>2016-01-02T15:17:50Z</time>
      </trkpt>
      <trkpt lat="47.35687" lon="-1.86668">
        <ele>79</ele>
        <time>2016-01-02T15:17:51Z</time>
      </trkpt>
      <trkpt lat="47.35686" lon="-1.86678">
        <ele>79</ele>
        <time>2016-01-02T15:17:52Z</time>
      </trkpt>
      <trkpt lat="47.35686" lon="-1.86686">
        <ele>79</ele>
        <time>2016-01-02T15:17:53Z</time>
      </trkpt>
      <trkpt lat="47.35685" lon="-1.86694">
        <ele>79</ele>
        <time>2016-01-02T15:17:54Z</time>
      </trkpt>
      <trkpt lat="47.35685" lon="-1.86701">
        <ele>79</ele>
        <time>2016-01-02T15:17:55Z</time>
      </trkpt>
      <trkpt lat="47.35685" lon="-1.86709">
        <ele>79</ele>
        <time>2016-01-02T15:17:56Z</time>
      </trkpt>
      <trkpt lat="47.35684" lon="-1.86718">
        <ele>79</ele>
        <time>2016-01-02T15:17:57Z</time>
      </trkpt>
      <trkpt lat="47.35684" lon="-1.86724">
        <ele>79</ele>
        <time>2016-01-02T15:17:58Z</time>
      </trkpt>
      <trkpt lat="47.35684" lon="-1.86732">
        <ele>79</ele>
        <time>2016-01-02T15:17:59Z</time>
      </trkpt>
      <trkpt lat="47.35683" lon="-1.86741">
        <ele>79</ele>
        <time>2016-01-02T15:18:00Z</time>
      </trkpt>
      <trkpt lat="47.35682" lon="-1.86749">
        <ele>79</ele>
        <time>2016-01-02T15:18:01Z</time>
      </trkpt>
      <trkpt lat="47.35682" lon="-1.86758">
        <ele>78</ele>
        <time>2016-01-02T15:18:02Z</time>
      </trkpt>
      <trkpt lat="47.35682" lon="-1.86765">
        <ele>78</ele>
        <time>2016-01-02T15:18:03Z</time>
      </trkpt>
      <trkpt lat="47.35682" lon="-1.86771">
        <ele>78</ele>
        <time>2016-01-02T15:18:04Z</time>
      </trkpt>
      <trkpt lat="47.3569" lon="-1.86783">
        <ele>77</ele>
        <time>2016-01-02T15:18:06Z</time>
      </trkpt>
      <trkpt lat="47.35695" lon="-1.86788">
        <ele>77</ele>
        <time>2016-01-02T15:18:07Z</time>
      </trkpt>
      <trkpt lat="47.357" lon="-1.86789">
        <ele>77</ele>
        <time>2016-01-02T15:18:08Z</time>
      </trkpt>
      <trkpt lat="47.35706" lon="-1.86788">
        <ele>77</ele>
        <time>2016-01-02T15:18:09Z</time>
      </trkpt>
      <trkpt lat="47.35711" lon="-1.86788">
        <ele>77</ele>
        <time>2016-01-02T15:18:10Z</time>
      </trkpt>
      <trkpt lat="47.35718" lon="-1.86788">
        <ele>77</ele>
        <time>2016-01-02T15:18:11Z</time>
      </trkpt>
      <trkpt lat="47.35725" lon="-1.86788">
        <ele>76</ele>
        <time>2016-01-02T15:18:12Z</time>
      </trkpt>
      <trkpt lat="47.35734" lon="-1.86789">
        <ele>76</ele>
        <time>2016-01-02T15:18:13Z</time>
      </trkpt>
      <trkpt lat="47.35737" lon="-1.8679">
        <ele>76</ele>
        <time>2016-01-02T15:18:14Z</time>
      </trkpt>
      <trkpt lat="47.35745" lon="-1.8679">
        <ele>76</ele>
        <time>2016-01-02T15:18:15Z</time>
      </trkpt>
      <trkpt lat="47.35751" lon="-1.86787">
        <ele>74</ele>
        <time>2016-01-02T15:18:16Z</time>
      </trkpt>
      <trkpt lat="47.35758" lon="-1.86785">
        <ele>74</ele>
        <time>2016-01-02T15:18:17Z</time>
      </trkpt>
      <trkpt lat="47.35762" lon="-1.86786">
        <ele>74</ele>
        <time>2016-01-02T15:18:18Z</time>
      </trkpt>
      <trkpt lat="47.35767" lon="-1.86787">
        <ele>74</ele>
        <time>2016-01-02T15:18:19Z</time>
      </trkpt>
      <trkpt lat="47.35771" lon="-1.86786">
        <ele>73</ele>
        <time>2016-01-02T15:18:20Z</time>
      </trkpt>
      <trkpt lat="47.35776" lon="-1.86785">
        <ele>73</ele>
        <time>2016-01-02T15:18:21Z</time>
      </trkpt>
      <trkpt lat="47.35782" lon="-1.86787">
        <ele>73</ele>
        <time>2016-01-02T15:18:24Z</time>
      </trkpt>
      <trkpt lat="47.35786" lon="-1.86786">
        <ele>73</ele>
        <time>2016-01-02T15:18:25Z</time>
      </trkpt>
      <trkpt lat="47.35789" lon="-1.86787">
        <ele>73</ele>
        <time>2016-01-02T15:18:26Z</time>
      </trkpt>
      <trkpt lat="47.35791" lon="-1.86787">
        <ele>73</ele>
        <time>2016-01-02T15:18:27Z</time>
      </trkpt>
      <trkpt lat="47.35791" lon="-1.86795">
        <ele>73</ele>
        <time>2016-01-02T15:18:28Z</time>
      </trkpt>
      <trkpt lat="47.35796" lon="-1.86797">
        <ele>73</ele>
        <time>2016-01-02T15:18:29Z</time>
      </trkpt>
      <trkpt lat="47.35801" lon="-1.86803">
        <ele>73</ele>
        <time>2016-01-02T15:18:30Z</time>
      </trkpt>
      <trkpt lat="47.35807" lon="-1.8681">
        <ele>73</ele>
        <time>2016-01-02T15:18:31Z</time>
      </trkpt>
      <trkpt lat="47.35811" lon="-1.86814">
        <ele>72</ele>
        <time>2016-01-02T15:18:32Z</time>
      </trkpt>
      <trkpt lat="47.35816" lon="-1.86819">
        <ele>72</ele>
        <time>2016-01-02T15:18:33Z</time>
      </trkpt>
      <trkpt lat="47.35821" lon="-1.86824">
        <ele>72</ele>
        <time>2016-01-02T15:18:34Z</time>
      </trkpt>
      <trkpt lat="47.35827" lon="-1.86828">
        <ele>72</ele>
        <time>2016-01-02T15:18:35Z</time>
      </trkpt>
      <trkpt lat="47.35831" lon="-1.86833">
        <ele>71</ele>
        <time>2016-01-02T15:18:36Z</time>
      </trkpt>
      <trkpt lat="47.35841" lon="-1.86848">
        <ele>70</ele>
        <time>2016-01-02T15:18:37Z</time>
      </trkpt>
      <trkpt lat="47.35846" lon="-1.86854">
        <ele>70</ele>
        <time>2016-01-02T15:18:38Z</time>
      </trkpt>
      <trkpt lat="47.3585" lon="-1.86859">
        <ele>70</ele>
        <time>2016-01-02T15:18:39Z</time>
      </trkpt>
      <trkpt lat="47.35855" lon="-1.86865">
        <ele>70</ele>
        <time>2016-01-02T15:18:40Z</time>
      </trkpt>
      <trkpt lat="47.35861" lon="-1.86868">
        <ele>70</ele>
        <time>2016-01-02T15:18:41Z</time>
      </trkpt>
      <trkpt lat="47.35867" lon="-1.86873">
        <ele>70</ele>
        <time>2016-01-02T15:18:42Z</time>
      </trkpt>
      <trkpt lat="47.35872" lon="-1.8688">
        <ele>70</ele>
        <time>2016-01-02T15:18:43Z</time>
      </trkpt>
      <trkpt lat="47.35877" lon="-1.86886">
        <ele>70</ele>
        <time>2016-01-02T15:18:44Z</time>
      </trkpt>
      <trkpt lat="47.3588" lon="-1.86891">
        <ele>70</ele>
        <time>2016-01-02T15:18:45Z</time>
      </trkpt>
      <trkpt lat="47.35883" lon="-1.86897">
        <ele>70</ele>
        <time>2016-01-02T15:18:46Z</time>
      </trkpt>
      <trkpt lat="47.35887" lon="-1.86899">
        <ele>70</ele>
        <time>2016-01-02T15:18:47Z</time>
      </trkpt>
      <trkpt lat="47.35888" lon="-1.86903">
        <ele>70</ele>
        <time>2016-01-02T15:18:48Z</time>
      </trkpt>
      <trkpt lat="47.35891" lon="-1.86912">
        <ele>70</ele>
        <time>2016-01-02T15:18:50Z</time>
      </trkpt>
      <trkpt lat="47.35894" lon="-1.86918">
        <ele>71</ele>
        <time>2016-01-02T15:18:52Z</time>
      </trkpt>
      <trkpt lat="47.35897" lon="-1.86928">
        <ele>71</ele>
        <time>2016-01-02T15:18:54Z</time>
      </trkpt>
      <trkpt lat="47.35899" lon="-1.86933">
        <ele>71</ele>
        <time>2016-01-02T15:18:55Z</time>
      </trkpt>
      <trkpt lat="47.35902" lon="-1.86938">
        <ele>71</ele>
        <time>2016-01-02T15:18:56Z</time>
      </trkpt>
      <trkpt lat="47.35903" lon="-1.86942">
        <ele>71</ele>
        <time>2016-01-02T15:18:57Z</time>
      </trkpt>
      <trkpt lat="47.35905" lon="-1.86946">
        <ele>71</ele>
        <time>2016-01-02T15:18:59Z</time>
      </trkpt>
      <trkpt lat="47.35909" lon="-1.86952">
        <ele>71</ele>
        <time>2016-01-02T15:19:01Z</time>
      </trkpt>
      <trkpt lat="47.35912" lon="-1.86955">
        <ele>71</ele>
        <time>2016-01-02T15:19:02Z</time>
      </trkpt>
      <trkpt lat="47.35916" lon="-1.86957">
        <ele>71</ele>
        <time>2016-01-02T15:19:03Z</time>
      </trkpt>
      <trkpt lat="47.3592" lon="-1.8696">
        <ele>72</ele>
        <time>2016-01-02T15:19:04Z</time>
      </trkpt>
      <trkpt lat="47.35923" lon="-1.86962">
        <ele>73</ele>
        <time>2016-01-02T15:19:05Z</time>
      </trkpt>
      <trkpt lat="47.35928" lon="-1.86965">
        <ele>73</ele>
        <time>2016-01-02T15:19:06Z</time>
      </trkpt>
      <trkpt lat="47.35932" lon="-1.86969">
        <ele>73</ele>
        <time>2016-01-02T15:19:07Z</time>
      </trkpt>
      <trkpt lat="47.35937" lon="-1.86973">
        <ele>73</ele>
        <time>2016-01-02T15:19:08Z</time>
      </trkpt>
      <trkpt lat="47.35941" lon="-1.86978">
        <ele>73</ele>
        <time>2016-01-02T15:19:09Z</time>
      </trkpt>
      <trkpt lat="47.35944" lon="-1.86981">
        <ele>73</ele>
        <time>2016-01-02T15:19:10Z</time>
      </trkpt>
      <trkpt lat="47.35948" lon="-1.86985">
        <ele>73</ele>
        <time>2016-01-02T15:19:11Z</time>
      </trkpt>
      <trkpt lat="47.3595" lon="-1.86989">
        <ele>73</ele>
        <time>2016-01-02T15:19:12Z</time>
      </trkpt>
      <trkpt lat="47.35951" lon="-1.86992">
        <ele>73</ele>
        <time>2016-01-02T15:19:13Z</time>
      </trkpt>
      <trkpt lat="47.35953" lon="-1.86996">
        <ele>73</ele>
        <time>2016-01-02T15:19:14Z</time>
      </trkpt>
      <trkpt lat="47.35956" lon="-1.86999">
        <ele>73</ele>
        <time>2016-01-02T15:19:17Z</time>
      </trkpt>
      <trkpt lat="47.35958" lon="-1.87001">
        <ele>74</ele>
        <time>2016-01-02T15:19:19Z</time>
      </trkpt>
      <trkpt lat="47.35962" lon="-1.87002">
        <ele>74</ele>
        <time>2016-01-02T15:19:21Z</time>
      </trkpt>
      <trkpt lat="47.35966" lon="-1.87002">
        <ele>74</ele>
        <time>2016-01-02T15:19:23Z</time>
      </trkpt>
      <trkpt lat="47.35971" lon="-1.87">
        <ele>74</ele>
        <time>2016-01-02T15:19:25Z</time>
      </trkpt>
      <trkpt lat="47.35974" lon="-1.86999">
        <ele>74</ele>
        <time>2016-01-02T15:19:26Z</time>
      </trkpt>
      <trkpt lat="47.35977" lon="-1.86998">
        <ele>74</ele>
        <time>2016-01-02T15:19:27Z</time>
      </trkpt>
      <trkpt lat="47.35979" lon="-1.86998">
        <ele>74</ele>
        <time>2016-01-02T15:19:28Z</time>
      </trkpt>
      <trkpt lat="47.35984" lon="-1.87002">
        <ele>75</ele>
        <time>2016-01-02T15:19:30Z</time>
      </trkpt>
      <trkpt lat="47.35987" lon="-1.87004">
        <ele>75</ele>
        <time>2016-01-02T15:19:31Z</time>
      </trkpt>
      <trkpt lat="47.3599" lon="-1.87005">
        <ele>75</ele>
        <time>2016-01-02T15:19:32Z</time>
      </trkpt>
      <trkpt lat="47.35994" lon="-1.87004">
        <ele>75</ele>
        <time>2016-01-02T15:19:34Z</time>
      </trkpt>
      <trkpt lat="47.35998" lon="-1.87002">
        <ele>75</ele>
        <time>2016-01-02T15:19:36Z</time>
      </trkpt>
      <trkpt lat="47.36001" lon="-1.87001">
        <ele>75</ele>
        <time>2016-01-02T15:19:38Z</time>
      </trkpt>
      <trkpt lat="47.36005" lon="-1.87002">
        <ele>75</ele>
        <time>2016-01-02T15:19:40Z</time>
      </trkpt>
      <trkpt lat="47.36009" lon="-1.87006">
        <ele>75</ele>
        <time>2016-01-02T15:19:42Z</time>
      </trkpt>
      <trkpt lat="47.36013" lon="-1.87008">
        <ele>75</ele>
        <time>2016-01-02T15:19:44Z</time>
      </trkpt>
      <trkpt lat="47.36018" lon="-1.87006">
        <ele>75</ele>
        <time>2016-01-02T15:19:46Z</time>
      </trkpt>
      <trkpt lat="47.36021" lon="-1.87003">
        <ele>75</ele>
        <time>2016-01-02T15:19:48Z</time>
      </trkpt>
      <trkpt lat="47.36022" lon="-1.86998">
        <ele>75</ele>
        <time>2016-01-02T15:19:51Z</time>
      </trkpt>
      <trkpt lat="47.36022" lon="-1.86993">
        <ele>75</ele>
        <time>2016-01-02T15:19:54Z</time>
      </trkpt>
      <trkpt lat="47.36025" lon="-1.86989">
        <ele>75</ele>
        <time>2016-01-02T15:19:57Z</time>
      </trkpt>
      <trkpt lat="47.36028" lon="-1.86985">
        <ele>75</ele>
        <time>2016-01-02T15:19:59Z</time>
      </trkpt>
      <trkpt lat="47.36029" lon="-1.8698">
        <ele>75</ele>
        <time>2016-01-02T15:20:01Z</time>
      </trkpt>
      <trkpt lat="47.36027" lon="-1.86973">
        <ele>75</ele>
        <time>2016-01-02T15:20:03Z</time>
      </trkpt>
      <trkpt lat="47.36026" lon="-1.86969">
        <ele>75</ele>
        <time>2016-01-02T15:20:04Z</time>
      </trkpt>
      <trkpt lat="47.36025" lon="-1.86966">
        <ele>75</ele>
        <time>2016-01-02T15:20:05Z</time>
      </trkpt>
      <trkpt lat="47.36024" lon="-1.86961">
        <ele>75</ele>
        <time>2016-01-02T15:20:06Z</time>
      </trkpt>
      <trkpt lat="47.36024" lon="-1.86957">
        <ele>74</ele>
        <time>2016-01-02T15:20:07Z</time>
      </trkpt>
      <trkpt lat="47.36025" lon="-1.86952">
        <ele>74</ele>
        <time>2016-01-02T15:20:08Z</time>
      </trkpt>
      <trkpt lat="47.36025" lon="-1.86948">
        <ele>74</ele>
        <time>2016-01-02T15:20:09Z</time>
      </trkpt>
      <trkpt lat="47.36024" lon="-1.86944">
        <ele>74</ele>
        <time>2016-01-02T15:20:10Z</time>
      </trkpt>
      <trkpt lat="47.36027" lon="-1.86932">
        <ele>74</ele>
        <time>2016-01-02T15:20:13Z</time>
      </trkpt>
      <trkpt lat="47.3603" lon="-1.8693">
        <ele>74</ele>
        <time>2016-01-02T15:20:14Z</time>
      </trkpt>
      <trkpt lat="47.36032" lon="-1.86927">
        <ele>74</ele>
        <time>2016-01-02T15:20:15Z</time>
      </trkpt>
      <trkpt lat="47.36034" lon="-1.86923">
        <ele>74</ele>
        <time>2016-01-02T15:20:16Z</time>
      </trkpt>
      <trkpt lat="47.36036" lon="-1.8692">
        <ele>74</ele>
        <time>2016-01-02T15:20:17Z</time>
      </trkpt>
      <trkpt lat="47.36039" lon="-1.86918">
        <ele>75</ele>
        <time>2016-01-02T15:20:18Z</time>
      </trkpt>
      <trkpt lat="47.36042" lon="-1.86916">
        <ele>74</ele>
        <time>2016-01-02T15:20:19Z</time>
      </trkpt>
      <trkpt lat="47.36045" lon="-1.86914">
        <ele>74</ele>
        <time>2016-01-02T15:20:20Z</time>
      </trkpt>
      <trkpt lat="47.36048" lon="-1.86912">
        <ele>74</ele>
        <time>2016-01-02T15:20:21Z</time>
      </trkpt>
      <trkpt lat="47.36051" lon="-1.86911">
        <ele>74</ele>
        <time>2016-01-02T15:20:22Z</time>
      </trkpt>
      <trkpt lat="47.36053" lon="-1.86912">
        <ele>74</ele>
        <time>2016-01-02T15:20:23Z</time>
      </trkpt>
      <trkpt lat="47.36056" lon="-1.86913">
        <ele>74</ele>
        <time>2016-01-02T15:20:24Z</time>
      </trkpt>
      <trkpt lat="47.36061" lon="-1.86916">
        <ele>75</ele>
        <time>2016-01-02T15:20:26Z</time>
      </trkpt>
      <trkpt lat="47.36065" lon="-1.86919">
        <ele>76</ele>
        <time>2016-01-02T15:20:28Z</time>
      </trkpt>
      <trkpt lat="47.3607" lon="-1.86921">
        <ele>76</ele>
        <time>2016-01-02T15:20:30Z</time>
      </trkpt>
      <trkpt lat="47.36075" lon="-1.86923">
        <ele>76</ele>
        <time>2016-01-02T15:20:32Z</time>
      </trkpt>
      <trkpt lat="47.3608" lon="-1.86925">
        <ele>76</ele>
        <time>2016-01-02T15:20:34Z</time>
      </trkpt>
      <trkpt lat="47.36086" lon="-1.86928">
        <ele>77</ele>
        <time>2016-01-02T15:20:36Z</time>
      </trkpt>
      <trkpt lat="47.3609" lon="-1.8693">
        <ele>77</ele>
        <time>2016-01-02T15:20:37Z</time>
      </trkpt>
      <trkpt lat="47.36093" lon="-1.86931">
        <ele>77</ele>
        <time>2016-01-02T15:20:38Z</time>
      </trkpt>
      <trkpt lat="47.36097" lon="-1.86933">
        <ele>77</ele>
        <time>2016-01-02T15:20:39Z</time>
      </trkpt>
      <trkpt lat="47.361" lon="-1.86934">
        <ele>77</ele>
        <time>2016-01-02T15:20:40Z</time>
      </trkpt>
      <trkpt lat="47.36102" lon="-1.86936">
        <ele>77</ele>
        <time>2016-01-02T15:20:41Z</time>
      </trkpt>
      <trkpt lat="47.36105" lon="-1.86938">
        <ele>77</ele>
        <time>2016-01-02T15:20:42Z</time>
      </trkpt>
      <trkpt lat="47.36107" lon="-1.8694">
        <ele>77</ele>
        <time>2016-01-02T15:20:43Z</time>
      </trkpt>
      <trkpt lat="47.36112" lon="-1.86944">
        <ele>77</ele>
        <time>2016-01-02T15:20:45Z</time>
      </trkpt>
      <trkpt lat="47.36115" lon="-1.86948">
        <ele>77</ele>
        <time>2016-01-02T15:20:47Z</time>
      </trkpt>
      <trkpt lat="47.36117" lon="-1.8695">
        <ele>77</ele>
        <time>2016-01-02T15:20:48Z</time>
      </trkpt>
      <trkpt lat="47.36122" lon="-1.86954">
        <ele>77</ele>
        <time>2016-01-02T15:20:50Z</time>
      </trkpt>
      <trkpt lat="47.36125" lon="-1.86954">
        <ele>77</ele>
        <time>2016-01-02T15:20:51Z</time>
      </trkpt>
      <trkpt lat="47.3613" lon="-1.86955">
        <ele>77</ele>
        <time>2016-01-02T15:20:53Z</time>
      </trkpt>
      <trkpt lat="47.36135" lon="-1.86958">
        <ele>77</ele>
        <time>2016-01-02T15:20:55Z</time>
      </trkpt>
      <trkpt lat="47.36138" lon="-1.8696">
        <ele>77</ele>
        <time>2016-01-02T15:20:56Z</time>
      </trkpt>
      <trkpt lat="47.36141" lon="-1.86961">
        <ele>77</ele>
        <time>2016-01-02T15:20:57Z</time>
      </trkpt>
      <trkpt lat="47.36145" lon="-1.86963">
        <ele>77</ele>
        <time>2016-01-02T15:20:58Z</time>
      </trkpt>
      <trkpt lat="47.36148" lon="-1.86965">
        <ele>77</ele>
        <time>2016-01-02T15:20:59Z</time>
      </trkpt>
      <trkpt lat="47.36151" lon="-1.86966">
        <ele>77</ele>
        <time>2016-01-02T15:21:00Z</time>
      </trkpt>
      <trkpt lat="47.36155" lon="-1.86969">
        <ele>77</ele>
        <time>2016-01-02T15:21:01Z</time>
      </trkpt>
      <trkpt lat="47.36158" lon="-1.86972">
        <ele>77</ele>
        <time>2016-01-02T15:21:02Z</time>
      </trkpt>
      <trkpt lat="47.36161" lon="-1.86975">
        <ele>77</ele>
        <time>2016-01-02T15:21:03Z</time>
      </trkpt>
      <trkpt lat="47.36165" lon="-1.86978">
        <ele>77</ele>
        <time>2016-01-02T15:21:04Z</time>
      </trkpt>
      <trkpt lat="47.36168" lon="-1.8698">
        <ele>78</ele>
        <time>2016-01-02T15:21:05Z</time>
      </trkpt>
      <trkpt lat="47.36171" lon="-1.86982">
        <ele>78</ele>
        <time>2016-01-02T15:21:06Z</time>
      </trkpt>
      <trkpt lat="47.36174" lon="-1.86983">
        <ele>78</ele>
        <time>2016-01-02T15:21:07Z</time>
      </trkpt>
      <trkpt lat="47.36176" lon="-1.86981">
        <ele>78</ele>
        <time>2016-01-02T15:21:08Z</time>
      </trkpt>
      <trkpt lat="47.36178" lon="-1.86977">
        <ele>78</ele>
        <time>2016-01-02T15:21:09Z</time>
      </trkpt>
      <trkpt lat="47.3618" lon="-1.86973">
        <ele>79</ele>
        <time>2016-01-02T15:21:10Z</time>
      </trkpt>
      <trkpt lat="47.36182" lon="-1.86969">
        <ele>79</ele>
        <time>2016-01-02T15:21:11Z</time>
      </trkpt>
      <trkpt lat="47.36184" lon="-1.86965">
        <ele>79</ele>
        <time>2016-01-02T15:21:12Z</time>
      </trkpt>
      <trkpt lat="47.36185" lon="-1.86962">
        <ele>79</ele>
        <time>2016-01-02T15:21:13Z</time>
      </trkpt>
      <trkpt lat="47.36188" lon="-1.86959">
        <ele>79</ele>
        <time>2016-01-02T15:21:14Z</time>
      </trkpt>
      <trkpt lat="47.36191" lon="-1.86957">
        <ele>79</ele>
        <time>2016-01-02T15:21:15Z</time>
      </trkpt>
      <trkpt lat="47.36193" lon="-1.86954">
        <ele>79</ele>
        <time>2016-01-02T15:21:16Z</time>
      </trkpt>
      <trkpt lat="47.36197" lon="-1.86953">
        <ele>79</ele>
        <time>2016-01-02T15:21:17Z</time>
      </trkpt>
      <trkpt lat="47.362" lon="-1.86952">
        <ele>79</ele>
        <time>2016-01-02T15:21:18Z</time>
      </trkpt>
      <trkpt lat="47.36203" lon="-1.86951">
        <ele>79</ele>
        <time>2016-01-02T15:21:19Z</time>
      </trkpt>
      <trkpt lat="47.36206" lon="-1.86951">
        <ele>79</ele>
        <time>2016-01-02T15:21:20Z</time>
      </trkpt>
      <trkpt lat="47.36208" lon="-1.8695">
        <ele>79</ele>
        <time>2016-01-02T15:21:21Z</time>
      </trkpt>
      <trkpt lat="47.36211" lon="-1.86949">
        <ele>79</ele>
        <time>2016-01-02T15:21:22Z</time>
      </trkpt>
      <trkpt lat="47.36216" lon="-1.8695">
        <ele>79</ele>
        <time>2016-01-02T15:21:24Z</time>
      </trkpt>
      <trkpt lat="47.36219" lon="-1.86949">
        <ele>79</ele>
        <time>2016-01-02T15:21:27Z</time>
      </trkpt>
      <trkpt lat="47.36223" lon="-1.86947">
        <ele>80</ele>
        <time>2016-01-02T15:21:29Z</time>
      </trkpt>
      <trkpt lat="47.36225" lon="-1.86946">
        <ele>80</ele>
        <time>2016-01-02T15:21:30Z</time>
      </trkpt>
      <trkpt lat="47.36232" lon="-1.86945">
        <ele>80</ele>
        <time>2016-01-02T15:21:32Z</time>
      </trkpt>
      <trkpt lat="47.36236" lon="-1.86942">
        <ele>80</ele>
        <time>2016-01-02T15:21:34Z</time>
      </trkpt>
      <trkpt lat="47.36241" lon="-1.86944">
        <ele>80</ele>
        <time>2016-01-02T15:21:35Z</time>
      </trkpt>
      <trkpt lat="47.36244" lon="-1.86945">
        <ele>80</ele>
        <time>2016-01-02T15:21:36Z</time>
      </trkpt>
      <trkpt lat="47.36247" lon="-1.86947">
        <ele>80</ele>
        <time>2016-01-02T15:21:37Z</time>
      </trkpt>
      <trkpt lat="47.36251" lon="-1.86948">
        <ele>80</ele>
        <time>2016-01-02T15:21:38Z</time>
      </trkpt>
      <trkpt lat="47.36254" lon="-1.86948">
        <ele>80</ele>
        <time>2016-01-02T15:21:39Z</time>
      </trkpt>
      <trkpt lat="47.36259" lon="-1.8695">
        <ele>80</ele>
        <time>2016-01-02T15:21:41Z</time>
      </trkpt>
      <trkpt lat="47.36263" lon="-1.86953">
        <ele>80</ele>
        <time>2016-01-02T15:21:43Z</time>
      </trkpt>
      <trkpt lat="47.36268" lon="-1.86956">
        <ele>80</ele>
        <time>2016-01-02T15:21:44Z</time>
      </trkpt>
      <trkpt lat="47.36272" lon="-1.86958">
        <ele>80</ele>
        <time>2016-01-02T15:21:45Z</time>
      </trkpt>
      <trkpt lat="47.36276" lon="-1.86959">
        <ele>80</ele>
        <time>2016-01-02T15:21:46Z</time>
      </trkpt>
      <trkpt lat="47.36279" lon="-1.86958">
        <ele>80</ele>
        <time>2016-01-02T15:21:47Z</time>
      </trkpt>
      <trkpt lat="47.36283" lon="-1.86956">
        <ele>80</ele>
        <time>2016-01-02T15:21:48Z</time>
      </trkpt>
      <trkpt lat="47.36286" lon="-1.86951">
        <ele>80</ele>
        <time>2016-01-02T15:21:50Z</time>
      </trkpt>
      <trkpt lat="47.36292" lon="-1.8695">
        <ele>80</ele>
        <time>2016-01-02T15:21:51Z</time>
      </trkpt>
      <trkpt lat="47.36296" lon="-1.86947">
        <ele>80</ele>
        <time>2016-01-02T15:21:53Z</time>
      </trkpt>
      <trkpt lat="47.36299" lon="-1.86946">
        <ele>80</ele>
        <time>2016-01-02T15:21:54Z</time>
      </trkpt>
      <trkpt lat="47.36303" lon="-1.86944">
        <ele>80</ele>
        <time>2016-01-02T15:21:55Z</time>
      </trkpt>
      <trkpt lat="47.36307" lon="-1.86941">
        <ele>80</ele>
        <time>2016-01-02T15:21:57Z</time>
      </trkpt>
      <trkpt lat="47.3631" lon="-1.86943">
        <ele>80</ele>
        <time>2016-01-02T15:22:00Z</time>
      </trkpt>
      <trkpt lat="47.36315" lon="-1.8694">
        <ele>80</ele>
        <time>2016-01-02T15:22:05Z</time>
      </trkpt>
      <trkpt lat="47.36319" lon="-1.86933">
        <ele>80</ele>
        <time>2016-01-02T15:22:08Z</time>
      </trkpt>
      <trkpt lat="47.36322" lon="-1.86928">
        <ele>80</ele>
        <time>2016-01-02T15:22:09Z</time>
      </trkpt>
      <trkpt lat="47.36335" lon="-1.86915">
        <ele>80</ele>
        <time>2016-01-02T15:22:13Z</time>
      </trkpt>
      <trkpt lat="47.36338" lon="-1.86912">
        <ele>79</ele>
        <time>2016-01-02T15:22:14Z</time>
      </trkpt>
      <trkpt lat="47.36342" lon="-1.86909">
        <ele>78</ele>
        <time>2016-01-02T15:22:15Z</time>
      </trkpt>
      <trkpt lat="47.36345" lon="-1.86908">
        <ele>78</ele>
        <time>2016-01-02T15:22:16Z</time>
      </trkpt>
      <trkpt lat="47.36348" lon="-1.86908">
        <ele>78</ele>
        <time>2016-01-02T15:22:17Z</time>
      </trkpt>
      <trkpt lat="47.36353" lon="-1.86908">
        <ele>77</ele>
        <time>2016-01-02T15:22:19Z</time>
      </trkpt>
      <trkpt lat="47.36358" lon="-1.86906">
        <ele>77</ele>
        <time>2016-01-02T15:22:21Z</time>
      </trkpt>
      <trkpt lat="47.36361" lon="-1.86905">
        <ele>77</ele>
        <time>2016-01-02T15:22:22Z</time>
      </trkpt>
      <trkpt lat="47.36366" lon="-1.86902">
        <ele>76</ele>
        <time>2016-01-02T15:22:24Z</time>
      </trkpt>
      <trkpt lat="47.36372" lon="-1.86902">
        <ele>76</ele>
        <time>2016-01-02T15:22:26Z</time>
      </trkpt>
      <trkpt lat="47.36379" lon="-1.869">
        <ele>76</ele>
        <time>2016-01-02T15:22:28Z</time>
      </trkpt>
      <trkpt lat="47.36383" lon="-1.86899">
        <ele>76</ele>
        <time>2016-01-02T15:22:29Z</time>
      </trkpt>
      <trkpt lat="47.36386" lon="-1.86897">
        <ele>76</ele>
        <time>2016-01-02T15:22:30Z</time>
      </trkpt>
      <trkpt lat="47.36389" lon="-1.86894">
        <ele>75</ele>
        <time>2016-01-02T15:22:31Z</time>
      </trkpt>
      <trkpt lat="47.36392" lon="-1.86891">
        <ele>75</ele>
        <time>2016-01-02T15:22:32Z</time>
      </trkpt>
      <trkpt lat="47.36394" lon="-1.86889">
        <ele>75</ele>
        <time>2016-01-02T15:22:33Z</time>
      </trkpt>
      <trkpt lat="47.36397" lon="-1.86886">
        <ele>75</ele>
        <time>2016-01-02T15:22:34Z</time>
      </trkpt>
      <trkpt lat="47.364" lon="-1.86884">
        <ele>75</ele>
        <time>2016-01-02T15:22:35Z</time>
      </trkpt>
      <trkpt lat="47.36402" lon="-1.86882">
        <ele>75</ele>
        <time>2016-01-02T15:22:36Z</time>
      </trkpt>
      <trkpt lat="47.36405" lon="-1.8688">
        <ele>75</ele>
        <time>2016-01-02T15:22:37Z</time>
      </trkpt>
      <trkpt lat="47.36408" lon="-1.86879">
        <ele>75</ele>
        <time>2016-01-02T15:22:38Z</time>
      </trkpt>
      <trkpt lat="47.36411" lon="-1.86876">
        <ele>75</ele>
        <time>2016-01-02T15:22:39Z</time>
      </trkpt>
      <trkpt lat="47.36414" lon="-1.86874">
        <ele>75</ele>
        <time>2016-01-02T15:22:40Z</time>
      </trkpt>
      <trkpt lat="47.36416" lon="-1.86872">
        <ele>74</ele>
        <time>2016-01-02T15:22:41Z</time>
      </trkpt>
      <trkpt lat="47.36419" lon="-1.86869">
        <ele>70</ele>
        <time>2016-01-02T15:22:42Z</time>
      </trkpt>
      <trkpt lat="47.36422" lon="-1.86868">
        <ele>70</ele>
        <time>2016-01-02T15:22:43Z</time>
      </trkpt>
      <trkpt lat="47.36425" lon="-1.86866">
        <ele>70</ele>
        <time>2016-01-02T15:22:44Z</time>
      </trkpt>
      <trkpt lat="47.3643" lon="-1.86865">
        <ele>70</ele>
        <time>2016-01-02T15:22:46Z</time>
      </trkpt>
      <trkpt lat="47.36432" lon="-1.86868">
        <ele>70</ele>
        <time>2016-01-02T15:22:49Z</time>
      </trkpt>
      <trkpt lat="47.36433" lon="-1.86873">
        <ele>70</ele>
        <time>2016-01-02T15:22:51Z</time>
      </trkpt>
      <trkpt lat="47.36434" lon="-1.86879">
        <ele>70</ele>
        <time>2016-01-02T15:22:53Z</time>
      </trkpt>
      <trkpt lat="47.36435" lon="-1.86885">
        <ele>71</ele>
        <time>2016-01-02T15:22:55Z</time>
      </trkpt>
      <trkpt lat="47.36439" lon="-1.86888">
        <ele>70</ele>
        <time>2016-01-02T15:22:57Z</time>
      </trkpt>
      <trkpt lat="47.36443" lon="-1.86891">
        <ele>70</ele>
        <time>2016-01-02T15:22:59Z</time>
      </trkpt>
      <trkpt lat="47.36445" lon="-1.86896">
        <ele>70</ele>
        <time>2016-01-02T15:23:01Z</time>
      </trkpt>
      <trkpt lat="47.36445" lon="-1.86902">
        <ele>71</ele>
        <time>2016-01-02T15:23:03Z</time>
      </trkpt>
      <trkpt lat="47.36442" lon="-1.86905">
        <ele>71</ele>
        <time>2016-01-02T15:23:05Z</time>
      </trkpt>
      <trkpt lat="47.3644" lon="-1.86909">
        <ele>71</ele>
        <time>2016-01-02T15:23:07Z</time>
      </trkpt>
      <trkpt lat="47.36437" lon="-1.8691">
        <ele>72</ele>
        <time>2016-01-02T15:23:10Z</time>
      </trkpt>
      <trkpt lat="47.36434" lon="-1.86913">
        <ele>72</ele>
        <time>2016-01-02T15:23:13Z</time>
      </trkpt>
      <trkpt lat="47.36432" lon="-1.86914">
        <ele>72</ele>
        <time>2016-01-02T15:23:16Z</time>
      </trkpt>
      <trkpt lat="47.36429" lon="-1.86919">
        <ele>73</ele>
        <time>2016-01-02T15:23:20Z</time>
      </trkpt>
      <trkpt lat="47.36428" lon="-1.86924">
        <ele>73</ele>
        <time>2016-01-02T15:23:23Z</time>
      </trkpt>
      <trkpt lat="47.36428" lon="-1.8693">
        <ele>73</ele>
        <time>2016-01-02T15:23:25Z</time>
      </trkpt>
      <trkpt lat="47.36428" lon="-1.86936">
        <ele>72</ele>
        <time>2016-01-02T15:23:27Z</time>
      </trkpt>
      <trkpt lat="47.36428" lon="-1.86943">
        <ele>72</ele>
        <time>2016-01-02T15:23:29Z</time>
      </trkpt>
      <trkpt lat="47.36429" lon="-1.86949">
        <ele>72</ele>
        <time>2016-01-02T15:23:31Z</time>
      </trkpt>
      <trkpt lat="47.36429" lon="-1.86954">
        <ele>72</ele>
        <time>2016-01-02T15:23:33Z</time>
      </trkpt>
      <trkpt lat="47.36429" lon="-1.86959">
        <ele>72</ele>
        <time>2016-01-02T15:23:35Z</time>
      </trkpt>
      <trkpt lat="47.3643" lon="-1.86965">
        <ele>72</ele>
        <time>2016-01-02T15:23:37Z</time>
      </trkpt>
      <trkpt lat="47.3643" lon="-1.86971">
        <ele>72</ele>
        <time>2016-01-02T15:23:39Z</time>
      </trkpt>
      <trkpt lat="47.36429" lon="-1.86978">
        <ele>72</ele>
        <time>2016-01-02T15:23:41Z</time>
      </trkpt>
      <trkpt lat="47.36427" lon="-1.86985">
        <ele>73</ele>
        <time>2016-01-02T15:23:43Z</time>
      </trkpt>
      <trkpt lat="47.36426" lon="-1.8699">
        <ele>73</ele>
        <time>2016-01-02T15:23:44Z</time>
      </trkpt>
      <trkpt lat="47.36425" lon="-1.86995">
        <ele>74</ele>
        <time>2016-01-02T15:23:45Z</time>
      </trkpt>
      <trkpt lat="47.36423" lon="-1.87001">
        <ele>74</ele>
        <time>2016-01-02T15:23:46Z</time>
      </trkpt>
      <trkpt lat="47.36422" lon="-1.87005">
        <ele>74</ele>
        <time>2016-01-02T15:23:47Z</time>
      </trkpt>
      <trkpt lat="47.36421" lon="-1.87009">
        <ele>73</ele>
        <time>2016-01-02T15:23:48Z</time>
      </trkpt>
      <trkpt lat="47.36421" lon="-1.87015">
        <ele>73</ele>
        <time>2016-01-02T15:23:50Z</time>
      </trkpt>
      <trkpt lat="47.36423" lon="-1.87018">
        <ele>73</ele>
        <time>2016-01-02T15:23:54Z</time>
      </trkpt>
      <trkpt lat="47.36427" lon="-1.87019">
        <ele>72</ele>
        <time>2016-01-02T15:23:58Z</time>
      </trkpt>
      <trkpt lat="47.3643" lon="-1.87022">
        <ele>72</ele>
        <time>2016-01-02T15:24:00Z</time>
      </trkpt>
      <trkpt lat="47.36432" lon="-1.87025">
        <ele>72</ele>
        <time>2016-01-02T15:24:02Z</time>
      </trkpt>
      <trkpt lat="47.36434" lon="-1.87028">
        <ele>72</ele>
        <time>2016-01-02T15:24:04Z</time>
      </trkpt>
      <trkpt lat="47.36437" lon="-1.87032">
        <ele>72</ele>
        <time>2016-01-02T15:24:06Z</time>
      </trkpt>
      <trkpt lat="47.36438" lon="-1.87037">
        <ele>71</ele>
        <time>2016-01-02T15:24:08Z</time>
      </trkpt>
      <trkpt lat="47.36437" lon="-1.87042">
        <ele>71</ele>
        <time>2016-01-02T15:24:10Z</time>
      </trkpt>
      <trkpt lat="47.36435" lon="-1.87048">
        <ele>71</ele>
        <time>2016-01-02T15:24:12Z</time>
      </trkpt>
      <trkpt lat="47.36433" lon="-1.87053">
        <ele>71</ele>
        <time>2016-01-02T15:24:14Z</time>
      </trkpt>
      <trkpt lat="47.36432" lon="-1.87057">
        <ele>71</ele>
        <time>2016-01-02T15:24:16Z</time>
      </trkpt>
      <trkpt lat="47.36428" lon="-1.87058">
        <ele>71</ele>
        <time>2016-01-02T15:24:18Z</time>
      </trkpt>
      <trkpt lat="47.36425" lon="-1.87057">
        <ele>72</ele>
        <time>2016-01-02T15:24:20Z</time>
      </trkpt>
      <trkpt lat="47.36423" lon="-1.87057">
        <ele>72</ele>
        <time>2016-01-02T15:24:22Z</time>
      </trkpt>
      <trkpt lat="47.3642" lon="-1.87058">
        <ele>72</ele>
        <time>2016-01-02T15:24:24Z</time>
      </trkpt>
      <trkpt lat="47.36418" lon="-1.87053">
        <ele>72</ele>
        <time>2016-01-02T15:24:27Z</time>
      </trkpt>
      <trkpt lat="47.36416" lon="-1.87048">
        <ele>75</ele>
        <time>2016-01-02T15:24:29Z</time>
      </trkpt>
      <trkpt lat="47.36413" lon="-1.87046">
        <ele>76</ele>
        <time>2016-01-02T15:24:31Z</time>
      </trkpt>
      <trkpt lat="47.36411" lon="-1.87051">
        <ele>75</ele>
        <time>2016-01-02T15:24:36Z</time>
      </trkpt>
      <trkpt lat="47.36412" lon="-1.87058">
        <ele>75</ele>
        <time>2016-01-02T15:24:38Z</time>
      </trkpt>
      <trkpt lat="47.36414" lon="-1.87064">
        <ele>75</ele>
        <time>2016-01-02T15:24:40Z</time>
      </trkpt>
      <trkpt lat="47.36415" lon="-1.87068">
        <ele>74</ele>
        <time>2016-01-02T15:24:42Z</time>
      </trkpt>
      <trkpt lat="47.36416" lon="-1.87072">
        <ele>74</ele>
        <time>2016-01-02T15:24:50Z</time>
      </trkpt>
      <trkpt lat="47.36415" lon="-1.87077">
        <ele>73</ele>
        <time>2016-01-02T15:24:53Z</time>
      </trkpt>
      <trkpt lat="47.36412" lon="-1.87079">
        <ele>73</ele>
        <time>2016-01-02T15:24:56Z</time>
      </trkpt>
      <trkpt lat="47.36408" lon="-1.8708">
        <ele>74</ele>
        <time>2016-01-02T15:24:59Z</time>
      </trkpt>
      <trkpt lat="47.36405" lon="-1.87079">
        <ele>74</ele>
        <time>2016-01-02T15:25:03Z</time>
      </trkpt>
      <trkpt lat="47.36402" lon="-1.87078">
        <ele>74</ele>
        <time>2016-01-02T15:25:07Z</time>
      </trkpt>
      <trkpt lat="47.36399" lon="-1.87077">
        <ele>75</ele>
        <time>2016-01-02T15:25:09Z</time>
      </trkpt>
      <trkpt lat="47.36394" lon="-1.87077">
        <ele>75</ele>
        <time>2016-01-02T15:25:12Z</time>
      </trkpt>
      <trkpt lat="47.3639" lon="-1.87076">
        <ele>76</ele>
        <time>2016-01-02T15:25:14Z</time>
      </trkpt>
      <trkpt lat="47.36387" lon="-1.87074">
        <ele>76</ele>
        <time>2016-01-02T15:25:16Z</time>
      </trkpt>
      <trkpt lat="47.36384" lon="-1.87073">
        <ele>76</ele>
        <time>2016-01-02T15:25:18Z</time>
      </trkpt>
      <trkpt lat="47.36381" lon="-1.87076">
        <ele>76</ele>
        <time>2016-01-02T15:25:21Z</time>
      </trkpt>
      <trkpt lat="47.36379" lon="-1.87081">
        <ele>76</ele>
        <time>2016-01-02T15:25:24Z</time>
      </trkpt>
      <trkpt lat="47.36378" lon="-1.87087">
        <ele>75</ele>
        <time>2016-01-02T15:25:27Z</time>
      </trkpt>
      <trkpt lat="47.36379" lon="-1.87092">
        <ele>75</ele>
        <time>2016-01-02T15:25:30Z</time>
      </trkpt>
      <trkpt lat="47.36382" lon="-1.87094">
        <ele>75</ele>
        <time>2016-01-02T15:25:32Z</time>
      </trkpt>
      <trkpt lat="47.36385" lon="-1.87095">
        <ele>75</ele>
        <time>2016-01-02T15:25:35Z</time>
      </trkpt>
      <trkpt lat="47.36387" lon="-1.87099">
        <ele>75</ele>
        <time>2016-01-02T15:25:37Z</time>
      </trkpt>
      <trkpt lat="47.36389" lon="-1.87105">
        <ele>75</ele>
        <time>2016-01-02T15:25:39Z</time>
      </trkpt>
      <trkpt lat="47.36389" lon="-1.87109">
        <ele>75</ele>
        <time>2016-01-02T15:25:40Z</time>
      </trkpt>
      <trkpt lat="47.36388" lon="-1.87115">
        <ele>75</ele>
        <time>2016-01-02T15:25:41Z</time>
      </trkpt>
      <trkpt lat="47.36387" lon="-1.87119">
        <ele>75</ele>
        <time>2016-01-02T15:25:42Z</time>
      </trkpt>
      <trkpt lat="47.36386" lon="-1.87124">
        <ele>75</ele>
        <time>2016-01-02T15:25:43Z</time>
      </trkpt>
      <trkpt lat="47.36386" lon="-1.87129">
        <ele>75</ele>
        <time>2016-01-02T15:25:44Z</time>
      </trkpt>
      <trkpt lat="47.36384" lon="-1.87133">
        <ele>75</ele>
        <time>2016-01-02T15:25:45Z</time>
      </trkpt>
      <trkpt lat="47.36382" lon="-1.87136">
        <ele>75</ele>
        <time>2016-01-02T15:25:46Z</time>
      </trkpt>
      <trkpt lat="47.3638" lon="-1.87142">
        <ele>75</ele>
        <time>2016-01-02T15:25:48Z</time>
      </trkpt>
      <trkpt lat="47.36379" lon="-1.87146">
        <ele>75</ele>
        <time>2016-01-02T15:25:52Z</time>
      </trkpt>
      <trkpt lat="47.36378" lon="-1.87151">
        <ele>75</ele>
        <time>2016-01-02T15:25:54Z</time>
      </trkpt>
      <trkpt lat="47.36377" lon="-1.87156">
        <ele>75</ele>
        <time>2016-01-02T15:25:56Z</time>
      </trkpt>
      <trkpt lat="47.36374" lon="-1.8716">
        <ele>75</ele>
        <time>2016-01-02T15:25:58Z</time>
      </trkpt>
      <trkpt lat="47.36372" lon="-1.87163">
        <ele>76</ele>
        <time>2016-01-02T15:26:00Z</time>
      </trkpt>
      <trkpt lat="47.3637" lon="-1.87165">
        <ele>76</ele>
        <time>2016-01-02T15:26:02Z</time>
      </trkpt>
      <trkpt lat="47.36367" lon="-1.87168">
        <ele>76</ele>
        <time>2016-01-02T15:26:04Z</time>
      </trkpt>
      <trkpt lat="47.36364" lon="-1.87172">
        <ele>76</ele>
        <time>2016-01-02T15:26:06Z</time>
      </trkpt>
      <trkpt lat="47.36362" lon="-1.87178">
        <ele>77</ele>
        <time>2016-01-02T15:26:08Z</time>
      </trkpt>
      <trkpt lat="47.36364" lon="-1.87182">
        <ele>76</ele>
        <time>2016-01-02T15:26:10Z</time>
      </trkpt>
      <trkpt lat="47.36367" lon="-1.87185">
        <ele>76</ele>
        <time>2016-01-02T15:26:13Z</time>
      </trkpt>
      <trkpt lat="47.3637" lon="-1.87188">
        <ele>76</ele>
        <time>2016-01-02T15:26:16Z</time>
      </trkpt>
      <trkpt lat="47.36371" lon="-1.87195">
        <ele>76</ele>
        <time>2016-01-02T15:26:18Z</time>
      </trkpt>
      <trkpt lat="47.36372" lon="-1.87201">
        <ele>76</ele>
        <time>2016-01-02T15:26:20Z</time>
      </trkpt>
      <trkpt lat="47.36372" lon="-1.87206">
        <ele>76</ele>
        <time>2016-01-02T15:26:22Z</time>
      </trkpt>
      <trkpt lat="47.36372" lon="-1.8721">
        <ele>76</ele>
        <time>2016-01-02T15:26:24Z</time>
      </trkpt>
      <trkpt lat="47.3637" lon="-1.87213">
        <ele>76</ele>
        <time>2016-01-02T15:26:27Z</time>
      </trkpt>
      <trkpt lat="47.36367" lon="-1.87214">
        <ele>76</ele>
        <time>2016-01-02T15:26:30Z</time>
      </trkpt>
      <trkpt lat="47.36364" lon="-1.87217">
        <ele>76</ele>
        <time>2016-01-02T15:26:33Z</time>
      </trkpt>
      <trkpt lat="47.36362" lon="-1.8722">
        <ele>77</ele>
        <time>2016-01-02T15:26:34Z</time>
      </trkpt>
      <trkpt lat="47.36361" lon="-1.87224">
        <ele>77</ele>
        <time>2016-01-02T15:26:35Z</time>
      </trkpt>
      <trkpt lat="47.3636" lon="-1.87231">
        <ele>77</ele>
        <time>2016-01-02T15:26:37Z</time>
      </trkpt>
      <trkpt lat="47.36361" lon="-1.87239">
        <ele>77</ele>
        <time>2016-01-02T15:26:39Z</time>
      </trkpt>
      <trkpt lat="47.36362" lon="-1.87243">
        <ele>77</ele>
        <time>2016-01-02T15:26:40Z</time>
      </trkpt>
      <trkpt lat="47.36362" lon="-1.87247">
        <ele>77</ele>
        <time>2016-01-02T15:26:41Z</time>
      </trkpt>
      <trkpt lat="47.36363" lon="-1.87253">
        <ele>77</ele>
        <time>2016-01-02T15:26:42Z</time>
      </trkpt>
      <trkpt lat="47.36364" lon="-1.87259">
        <ele>77</ele>
        <time>2016-01-02T15:26:43Z</time>
      </trkpt>
      <trkpt lat="47.36366" lon="-1.87265">
        <ele>77</ele>
        <time>2016-01-02T15:26:44Z</time>
      </trkpt>
      <trkpt lat="47.36366" lon="-1.87273">
        <ele>77</ele>
        <time>2016-01-02T15:26:45Z</time>
      </trkpt>
      <trkpt lat="47.36366" lon="-1.8728">
        <ele>77</ele>
        <time>2016-01-02T15:26:46Z</time>
      </trkpt>
      <trkpt lat="47.36366" lon="-1.87287">
        <ele>77</ele>
        <time>2016-01-02T15:26:47Z</time>
      </trkpt>
      <trkpt lat="47.36364" lon="-1.87294">
        <ele>77</ele>
        <time>2016-01-02T15:26:48Z</time>
      </trkpt>
      <trkpt lat="47.36361" lon="-1.873">
        <ele>77</ele>
        <time>2016-01-02T15:26:50Z</time>
      </trkpt>
      <trkpt lat="47.36357" lon="-1.87304">
        <ele>77</ele>
        <time>2016-01-02T15:26:52Z</time>
      </trkpt>
      <trkpt lat="47.36354" lon="-1.87306">
        <ele>77</ele>
        <time>2016-01-02T15:26:53Z</time>
      </trkpt>
      <trkpt lat="47.36349" lon="-1.87308">
        <ele>78</ele>
        <time>2016-01-02T15:26:55Z</time>
      </trkpt>
      <trkpt lat="47.36346" lon="-1.87309">
        <ele>78</ele>
        <time>2016-01-02T15:26:56Z</time>
      </trkpt>
      <trkpt lat="47.36342" lon="-1.87312">
        <ele>78</ele>
        <time>2016-01-02T15:26:58Z</time>
      </trkpt>
      <trkpt lat="47.36339" lon="-1.87313">
        <ele>78</ele>
        <time>2016-01-02T15:27:00Z</time>
      </trkpt>
      <trkpt lat="47.36339" lon="-1.87318">
        <ele>78</ele>
        <time>2016-01-02T15:27:05Z</time>
      </trkpt>
      <trkpt lat="47.36339" lon="-1.87323">
        <ele>79</ele>
        <time>2016-01-02T15:27:08Z</time>
      </trkpt>
      <trkpt lat="47.36338" lon="-1.8733">
        <ele>79</ele>
        <time>2016-01-02T15:27:11Z</time>
      </trkpt>
      <trkpt lat="47.36336" lon="-1.87336">
        <ele>79</ele>
        <time>2016-01-02T15:27:13Z</time>
      </trkpt>
      <trkpt lat="47.36335" lon="-1.8734">
        <ele>79</ele>
        <time>2016-01-02T15:27:14Z</time>
      </trkpt>
      <trkpt lat="47.36333" lon="-1.87347">
        <ele>80</ele>
        <time>2016-01-02T15:27:16Z</time>
      </trkpt>
      <trkpt lat="47.36331" lon="-1.87352">
        <ele>80</ele>
        <time>2016-01-02T15:27:18Z</time>
      </trkpt>
      <trkpt lat="47.36328" lon="-1.87358">
        <ele>79</ele>
        <time>2016-01-02T15:27:20Z</time>
      </trkpt>
      <trkpt lat="47.36325" lon="-1.87363">
        <ele>79</ele>
        <time>2016-01-02T15:27:22Z</time>
      </trkpt>
      <trkpt lat="47.36321" lon="-1.87369">
        <ele>79</ele>
        <time>2016-01-02T15:27:24Z</time>
      </trkpt>
      <trkpt lat="47.36318" lon="-1.87375">
        <ele>79</ele>
        <time>2016-01-02T15:27:26Z</time>
      </trkpt>
      <trkpt lat="47.36316" lon="-1.87381">
        <ele>79</ele>
        <time>2016-01-02T15:27:28Z</time>
      </trkpt>
      <trkpt lat="47.36313" lon="-1.87386">
        <ele>79</ele>
        <time>2016-01-02T15:27:30Z</time>
      </trkpt>
      <trkpt lat="47.36313" lon="-1.87391">
        <ele>79</ele>
        <time>2016-01-02T15:27:32Z</time>
      </trkpt>
      <trkpt lat="47.36319" lon="-1.87389">
        <ele>79</ele>
        <time>2016-01-02T15:27:34Z</time>
      </trkpt>
      <trkpt lat="47.36322" lon="-1.87389">
        <ele>79</ele>
        <time>2016-01-02T15:27:36Z</time>
      </trkpt>
      <trkpt lat="47.36325" lon="-1.87388">
        <ele>79</ele>
        <time>2016-01-02T15:27:38Z</time>
      </trkpt>
      <trkpt lat="47.36329" lon="-1.87386">
        <ele>79</ele>
        <time>2016-01-02T15:27:40Z</time>
      </trkpt>
      <trkpt lat="47.36333" lon="-1.87384">
        <ele>79</ele>
        <time>2016-01-02T15:27:42Z</time>
      </trkpt>
      <trkpt lat="47.36336" lon="-1.87385">
        <ele>77</ele>
        <time>2016-01-02T15:27:43Z</time>
      </trkpt>
      <trkpt lat="47.36341" lon="-1.87389">
        <ele>77</ele>
        <time>2016-01-02T15:27:45Z</time>
      </trkpt>
      <trkpt lat="47.36343" lon="-1.87392">
        <ele>77</ele>
        <time>2016-01-02T15:27:46Z</time>
      </trkpt>
      <trkpt lat="47.36346" lon="-1.87396">
        <ele>77</ele>
        <time>2016-01-02T15:27:47Z</time>
      </trkpt>
      <trkpt lat="47.36348" lon="-1.87401">
        <ele>77</ele>
        <time>2016-01-02T15:27:48Z</time>
      </trkpt>
      <trkpt lat="47.36351" lon="-1.87405">
        <ele>77</ele>
        <time>2016-01-02T15:27:49Z</time>
      </trkpt>
      <trkpt lat="47.36354" lon="-1.8741">
        <ele>77</ele>
        <time>2016-01-02T15:27:50Z</time>
      </trkpt>
      <trkpt lat="47.36358" lon="-1.87415">
        <ele>76</ele>
        <time>2016-01-02T15:27:51Z</time>
      </trkpt>
      <trkpt lat="47.36362" lon="-1.87422">
        <ele>76</ele>
        <time>2016-01-02T15:27:52Z</time>
      </trkpt>
      <trkpt lat="47.36364" lon="-1.87429">
        <ele>76</ele>
        <time>2016-01-02T15:27:53Z</time>
      </trkpt>
      <trkpt lat="47.36366" lon="-1.87436">
        <ele>75</ele>
        <time>2016-01-02T15:27:54Z</time>
      </trkpt>
      <trkpt lat="47.36368" lon="-1.87443">
        <ele>75</ele>
        <time>2016-01-02T15:27:55Z</time>
      </trkpt>
      <trkpt lat="47.3637" lon="-1.87449">
        <ele>75</ele>
        <time>2016-01-02T15:27:56Z</time>
      </trkpt>
      <trkpt lat="47.36373" lon="-1.87455">
        <ele>75</ele>
        <time>2016-01-02T15:27:57Z</time>
      </trkpt>
      <trkpt lat="47.36376" lon="-1.8746">
        <ele>75</ele>
        <time>2016-01-02T15:27:58Z</time>
      </trkpt>
      <trkpt lat="47.36378" lon="-1.87466">
        <ele>75</ele>
        <time>2016-01-02T15:27:59Z</time>
      </trkpt>
      <trkpt lat="47.3638" lon="-1.87473">
        <ele>75</ele>
        <time>2016-01-02T15:28:00Z</time>
      </trkpt>
      <trkpt lat="47.3638" lon="-1.87478">
        <ele>75</ele>
        <time>2016-01-02T15:28:01Z</time>
      </trkpt>
      <trkpt lat="47.36381" lon="-1.87483">
        <ele>75</ele>
        <time>2016-01-02T15:28:02Z</time>
      </trkpt>
      <trkpt lat="47.3638" lon="-1.87491">
        <ele>75</ele>
        <time>2016-01-02T15:28:04Z</time>
      </trkpt>
      <trkpt lat="47.36381" lon="-1.87498">
        <ele>75</ele>
        <time>2016-01-02T15:28:06Z</time>
      </trkpt>
      <trkpt lat="47.36383" lon="-1.87505">
        <ele>74</ele>
        <time>2016-01-02T15:28:08Z</time>
      </trkpt>
      <trkpt lat="47.36383" lon="-1.87509">
        <ele>74</ele>
        <time>2016-01-02T15:28:10Z</time>
      </trkpt>
      <trkpt lat="47.36382" lon="-1.87516">
        <ele>74</ele>
        <time>2016-01-02T15:28:12Z</time>
      </trkpt>
      <trkpt lat="47.36381" lon="-1.8752">
        <ele>74</ele>
        <time>2016-01-02T15:28:13Z</time>
      </trkpt>
      <trkpt lat="47.36379" lon="-1.87524">
        <ele>74</ele>
        <time>2016-01-02T15:28:14Z</time>
      </trkpt>
      <trkpt lat="47.36377" lon="-1.87527">
        <ele>74</ele>
        <time>2016-01-02T15:28:15Z</time>
      </trkpt>
      <trkpt lat="47.36375" lon="-1.87534">
        <ele>74</ele>
        <time>2016-01-02T15:28:17Z</time>
      </trkpt>
      <trkpt lat="47.36373" lon="-1.87541">
        <ele>74</ele>
        <time>2016-01-02T15:28:19Z</time>
      </trkpt>
      <trkpt lat="47.36369" lon="-1.87545">
        <ele>74</ele>
        <time>2016-01-02T15:28:21Z</time>
      </trkpt>
      <trkpt lat="47.36366" lon="-1.87549">
        <ele>74</ele>
        <time>2016-01-02T15:28:23Z</time>
      </trkpt>
      <trkpt lat="47.36365" lon="-1.87554">
        <ele>74</ele>
        <time>2016-01-02T15:28:26Z</time>
      </trkpt>
      <trkpt lat="47.36365" lon="-1.87561">
        <ele>74</ele>
        <time>2016-01-02T15:28:28Z</time>
      </trkpt>
      <trkpt lat="47.36364" lon="-1.87567">
        <ele>74</ele>
        <time>2016-01-02T15:28:30Z</time>
      </trkpt>
      <trkpt lat="47.36364" lon="-1.87573">
        <ele>74</ele>
        <time>2016-01-02T15:28:32Z</time>
      </trkpt>
      <trkpt lat="47.36364" lon="-1.87579">
        <ele>74</ele>
        <time>2016-01-02T15:28:35Z</time>
      </trkpt>
      <trkpt lat="47.36364" lon="-1.87585">
        <ele>73</ele>
        <time>2016-01-02T15:28:37Z</time>
      </trkpt>
      <trkpt lat="47.36365" lon="-1.8759">
        <ele>73</ele>
        <time>2016-01-02T15:28:39Z</time>
      </trkpt>
      <trkpt lat="47.36365" lon="-1.87594">
        <ele>73</ele>
        <time>2016-01-02T15:28:43Z</time>
      </trkpt>
      <trkpt lat="47.36365" lon="-1.87599">
        <ele>74</ele>
        <time>2016-01-02T15:28:52Z</time>
      </trkpt>
      <trkpt lat="47.36367" lon="-1.87605">
        <ele>74</ele>
        <time>2016-01-02T15:28:56Z</time>
      </trkpt>
      <trkpt lat="47.36368" lon="-1.87609">
        <ele>74</ele>
        <time>2016-01-02T15:29:00Z</time>
      </trkpt>
      <trkpt lat="47.36368" lon="-1.87614">
        <ele>74</ele>
        <time>2016-01-02T15:29:02Z</time>
      </trkpt>
      <trkpt lat="47.36368" lon="-1.87619">
        <ele>74</ele>
        <time>2016-01-02T15:29:04Z</time>
      </trkpt>
      <trkpt lat="47.36367" lon="-1.87625">
        <ele>74</ele>
        <time>2016-01-02T15:29:06Z</time>
      </trkpt>
      <trkpt lat="47.36365" lon="-1.8763">
        <ele>74</ele>
        <time>2016-01-02T15:29:08Z</time>
      </trkpt>
      <trkpt lat="47.36362" lon="-1.87632">
        <ele>74</ele>
        <time>2016-01-02T15:29:15Z</time>
      </trkpt>
      <trkpt lat="47.3636" lon="-1.87639">
        <ele>74</ele>
        <time>2016-01-02T15:30:23Z</time>
      </trkpt>
      <trkpt lat="47.36362" lon="-1.87643">
        <ele>74</ele>
        <time>2016-01-02T15:30:25Z</time>
      </trkpt>
      <trkpt lat="47.36363" lon="-1.87648">
        <ele>74</ele>
        <time>2016-01-02T15:30:27Z</time>
      </trkpt>
      <trkpt lat="47.36365" lon="-1.87654">
        <ele>74</ele>
        <time>2016-01-02T15:30:30Z</time>
      </trkpt>
      <trkpt lat="47.36367" lon="-1.87659">
        <ele>74</ele>
        <time>2016-01-02T15:30:32Z</time>
      </trkpt>
      <trkpt lat="47.36368" lon="-1.87663">
        <ele>74</ele>
        <time>2016-01-02T15:30:34Z</time>
      </trkpt>
      <trkpt lat="47.3637" lon="-1.87668">
        <ele>74</ele>
        <time>2016-01-02T15:30:36Z</time>
      </trkpt>
      <trkpt lat="47.36371" lon="-1.87673">
        <ele>74</ele>
        <time>2016-01-02T15:30:38Z</time>
      </trkpt>
      <trkpt lat="47.36374" lon="-1.87678">
        <ele>74</ele>
        <time>2016-01-02T15:30:40Z</time>
      </trkpt>
      <trkpt lat="47.36375" lon="-1.87683">
        <ele>74</ele>
        <time>2016-01-02T15:30:42Z</time>
      </trkpt>
      <trkpt lat="47.36378" lon="-1.87687">
        <ele>74</ele>
        <time>2016-01-02T15:30:44Z</time>
      </trkpt>
      <trkpt lat="47.36381" lon="-1.87692">
        <ele>74</ele>
        <time>2016-01-02T15:30:46Z</time>
      </trkpt>
      <trkpt lat="47.36383" lon="-1.87696">
        <ele>74</ele>
        <time>2016-01-02T15:30:48Z</time>
      </trkpt>
      <trkpt lat="47.36385" lon="-1.87701">
        <ele>74</ele>
        <time>2016-01-02T15:30:50Z</time>
      </trkpt>
      <trkpt lat="47.36387" lon="-1.87705">
        <ele>74</ele>
        <time>2016-01-02T15:30:52Z</time>
      </trkpt>
      <trkpt lat="47.36389" lon="-1.87709">
        <ele>74</ele>
        <time>2016-01-02T15:30:54Z</time>
      </trkpt>
      <trkpt lat="47.36391" lon="-1.87715">
        <ele>74</ele>
        <time>2016-01-02T15:30:56Z</time>
      </trkpt>
      <trkpt lat="47.36393" lon="-1.8772">
        <ele>74</ele>
        <time>2016-01-02T15:30:58Z</time>
      </trkpt>
      <trkpt lat="47.36395" lon="-1.87726">
        <ele>74</ele>
        <time>2016-01-02T15:31:00Z</time>
      </trkpt>
      <trkpt lat="47.36397" lon="-1.87731">
        <ele>74</ele>
        <time>2016-01-02T15:31:01Z</time>
      </trkpt>
      <trkpt lat="47.36398" lon="-1.87734">
        <ele>74</ele>
        <time>2016-01-02T15:31:02Z</time>
      </trkpt>
      <trkpt lat="47.364" lon="-1.87738">
        <ele>74</ele>
        <time>2016-01-02T15:31:04Z</time>
      </trkpt>
      <trkpt lat="47.36401" lon="-1.87742">
        <ele>74</ele>
        <time>2016-01-02T15:31:05Z</time>
      </trkpt>
      <trkpt lat="47.36403" lon="-1.87747">
        <ele>74</ele>
        <time>2016-01-02T15:31:06Z</time>
      </trkpt>
      <trkpt lat="47.36404" lon="-1.87752">
        <ele>74</ele>
        <time>2016-01-02T15:31:08Z</time>
      </trkpt>
      <trkpt lat="47.36408" lon="-1.87757">
        <ele>74</ele>
        <time>2016-01-02T15:31:09Z</time>
      </trkpt>
      <trkpt lat="47.3641" lon="-1.87762">
        <ele>74</ele>
        <time>2016-01-02T15:31:11Z</time>
      </trkpt>
      <trkpt lat="47.36412" lon="-1.87767">
        <ele>74</ele>
        <time>2016-01-02T15:31:12Z</time>
      </trkpt>
      <trkpt lat="47.36413" lon="-1.87771">
        <ele>74</ele>
        <time>2016-01-02T15:31:13Z</time>
      </trkpt>
      <trkpt lat="47.36415" lon="-1.87775">
        <ele>74</ele>
        <time>2016-01-02T15:31:14Z</time>
      </trkpt>
      <trkpt lat="47.36415" lon="-1.8778">
        <ele>74</ele>
        <time>2016-01-02T15:31:16Z</time>
      </trkpt>
      <trkpt lat="47.36418" lon="-1.87786">
        <ele>74</ele>
        <time>2016-01-02T15:31:17Z</time>
      </trkpt>
      <trkpt lat="47.3642" lon="-1.8779">
        <ele>74</ele>
        <time>2016-01-02T15:31:18Z</time>
      </trkpt>
      <trkpt lat="47.36423" lon="-1.87796">
        <ele>74</ele>
        <time>2016-01-02T15:31:19Z</time>
      </trkpt>
      <trkpt lat="47.36426" lon="-1.87801">
        <ele>74</ele>
        <time>2016-01-02T15:31:20Z</time>
      </trkpt>
      <trkpt lat="47.36429" lon="-1.87805">
        <ele>74</ele>
        <time>2016-01-02T15:31:21Z</time>
      </trkpt>
      <trkpt lat="47.36431" lon="-1.87812">
        <ele>74</ele>
        <time>2016-01-02T15:31:23Z</time>
      </trkpt>
      <trkpt lat="47.36435" lon="-1.87818">
        <ele>74</ele>
        <time>2016-01-02T15:31:24Z</time>
      </trkpt>
      <trkpt lat="47.36436" lon="-1.87821">
        <ele>74</ele>
        <time>2016-01-02T15:31:25Z</time>
      </trkpt>
      <trkpt lat="47.36438" lon="-1.87825">
        <ele>74</ele>
        <time>2016-01-02T15:31:26Z</time>
      </trkpt>
      <trkpt lat="47.36441" lon="-1.87833">
        <ele>74</ele>
        <time>2016-01-02T15:31:27Z</time>
      </trkpt>
      <trkpt lat="47.36444" lon="-1.87839">
        <ele>74</ele>
        <time>2016-01-02T15:31:28Z</time>
      </trkpt>
      <trkpt lat="47.36445" lon="-1.87843">
        <ele>74</ele>
        <time>2016-01-02T15:31:29Z</time>
      </trkpt>
      <trkpt lat="47.36447" lon="-1.87847">
        <ele>74</ele>
        <time>2016-01-02T15:31:30Z</time>
      </trkpt>
      <trkpt lat="47.36448" lon="-1.87854">
        <ele>74</ele>
        <time>2016-01-02T15:31:31Z</time>
      </trkpt>
      <trkpt lat="47.3645" lon="-1.87858">
        <ele>74</ele>
        <time>2016-01-02T15:31:32Z</time>
      </trkpt>
      <trkpt lat="47.36451" lon="-1.87862">
        <ele>74</ele>
        <time>2016-01-02T15:31:33Z</time>
      </trkpt>
      <trkpt lat="47.36454" lon="-1.87872">
        <ele>74</ele>
        <time>2016-01-02T15:31:34Z</time>
      </trkpt>
      <trkpt lat="47.36455" lon="-1.87877">
        <ele>74</ele>
        <time>2016-01-02T15:31:35Z</time>
      </trkpt>
      <trkpt lat="47.36457" lon="-1.87882">
        <ele>74</ele>
        <time>2016-01-02T15:31:36Z</time>
      </trkpt>
      <trkpt lat="47.36458" lon="-1.87892">
        <ele>74</ele>
        <time>2016-01-02T15:31:37Z</time>
      </trkpt>
      <trkpt lat="47.3646" lon="-1.87897">
        <ele>74</ele>
        <time>2016-01-02T15:31:38Z</time>
      </trkpt>
      <trkpt lat="47.36462" lon="-1.87902">
        <ele>74</ele>
        <time>2016-01-02T15:31:39Z</time>
      </trkpt>
      <trkpt lat="47.36464" lon="-1.87911">
        <ele>74</ele>
        <time>2016-01-02T15:31:40Z</time>
      </trkpt>
      <trkpt lat="47.36465" lon="-1.87916">
        <ele>74</ele>
        <time>2016-01-02T15:31:41Z</time>
      </trkpt>
      <trkpt lat="47.36466" lon="-1.8792">
        <ele>75</ele>
        <time>2016-01-02T15:31:42Z</time>
      </trkpt>
      <trkpt lat="47.36469" lon="-1.87928">
        <ele>75</ele>
        <time>2016-01-02T15:31:43Z</time>
      </trkpt>
      <trkpt lat="47.36471" lon="-1.87934">
        <ele>75</ele>
        <time>2016-01-02T15:31:44Z</time>
      </trkpt>
      <trkpt lat="47.36472" lon="-1.87939">
        <ele>75</ele>
        <time>2016-01-02T15:31:45Z</time>
      </trkpt>
      <trkpt lat="47.36473" lon="-1.87944">
        <ele>75</ele>
        <time>2016-01-02T15:31:46Z</time>
      </trkpt>
      <trkpt lat="47.36475" lon="-1.87951">
        <ele>75</ele>
        <time>2016-01-02T15:31:47Z</time>
      </trkpt>
      <trkpt lat="47.36476" lon="-1.87956">
        <ele>75</ele>
        <time>2016-01-02T15:31:48Z</time>
      </trkpt>
      <trkpt lat="47.36477" lon="-1.87961">
        <ele>75</ele>
        <time>2016-01-02T15:31:49Z</time>
      </trkpt>
      <trkpt lat="47.36479" lon="-1.8797">
        <ele>75</ele>
        <time>2016-01-02T15:31:50Z</time>
      </trkpt>
      <trkpt lat="47.36479" lon="-1.87975">
        <ele>75</ele>
        <time>2016-01-02T15:31:51Z</time>
      </trkpt>
      <trkpt lat="47.3648" lon="-1.87981">
        <ele>75</ele>
        <time>2016-01-02T15:31:52Z</time>
      </trkpt>
      <trkpt lat="47.36481" lon="-1.8799">
        <ele>75</ele>
        <time>2016-01-02T15:31:53Z</time>
      </trkpt>
      <trkpt lat="47.36481" lon="-1.87996">
        <ele>75</ele>
        <time>2016-01-02T15:31:54Z</time>
      </trkpt>
      <trkpt lat="47.36482" lon="-1.88001">
        <ele>75</ele>
        <time>2016-01-02T15:31:55Z</time>
      </trkpt>
      <trkpt lat="47.36483" lon="-1.88009">
        <ele>75</ele>
        <time>2016-01-02T15:31:56Z</time>
      </trkpt>
      <trkpt lat="47.36484" lon="-1.88016">
        <ele>75</ele>
        <time>2016-01-02T15:31:57Z</time>
      </trkpt>
      <trkpt lat="47.36484" lon="-1.88022">
        <ele>75</ele>
        <time>2016-01-02T15:31:58Z</time>
      </trkpt>
      <trkpt lat="47.36486" lon="-1.88028">
        <ele>75</ele>
        <time>2016-01-02T15:31:59Z</time>
      </trkpt>
      <trkpt lat="47.36486" lon="-1.88034">
        <ele>75</ele>
        <time>2016-01-02T15:32:00Z</time>
      </trkpt>
      <trkpt lat="47.36487" lon="-1.88039">
        <ele>75</ele>
        <time>2016-01-02T15:32:01Z</time>
      </trkpt>
      <trkpt lat="47.36489" lon="-1.88046">
        <ele>75</ele>
        <time>2016-01-02T15:32:02Z</time>
      </trkpt>
      <trkpt lat="47.3649" lon="-1.88051">
        <ele>75</ele>
        <time>2016-01-02T15:32:03Z</time>
      </trkpt>
      <trkpt lat="47.36491" lon="-1.88057">
        <ele>75</ele>
        <time>2016-01-02T15:32:04Z</time>
      </trkpt>
      <trkpt lat="47.36492" lon="-1.88062">
        <ele>75</ele>
        <time>2016-01-02T15:32:05Z</time>
      </trkpt>
      <trkpt lat="47.36493" lon="-1.88068">
        <ele>75</ele>
        <time>2016-01-02T15:32:06Z</time>
      </trkpt>
      <trkpt lat="47.36495" lon="-1.88074">
        <ele>75</ele>
        <time>2016-01-02T15:32:07Z</time>
      </trkpt>
      <trkpt lat="47.36496" lon="-1.88079">
        <ele>74</ele>
        <time>2016-01-02T15:32:08Z</time>
      </trkpt>
      <trkpt lat="47.36496" lon="-1.88085">
        <ele>74</ele>
        <time>2016-01-02T15:32:09Z</time>
      </trkpt>
      <trkpt lat="47.36498" lon="-1.88091">
        <ele>74</ele>
        <time>2016-01-02T15:32:10Z</time>
      </trkpt>
      <trkpt lat="47.36499" lon="-1.88097">
        <ele>74</ele>
        <time>2016-01-02T15:32:11Z</time>
      </trkpt>
      <trkpt lat="47.365" lon="-1.88102">
        <ele>75</ele>
        <time>2016-01-02T15:32:12Z</time>
      </trkpt>
      <trkpt lat="47.365" lon="-1.88109">
        <ele>74</ele>
        <time>2016-01-02T15:32:13Z</time>
      </trkpt>
      <trkpt lat="47.36501" lon="-1.88114">
        <ele>74</ele>
        <time>2016-01-02T15:32:14Z</time>
      </trkpt>
      <trkpt lat="47.36502" lon="-1.8812">
        <ele>74</ele>
        <time>2016-01-02T15:32:15Z</time>
      </trkpt>
      <trkpt lat="47.36503" lon="-1.88126">
        <ele>74</ele>
        <time>2016-01-02T15:32:16Z</time>
      </trkpt>
      <trkpt lat="47.36503" lon="-1.88132">
        <ele>74</ele>
        <time>2016-01-02T15:32:17Z</time>
      </trkpt>
      <trkpt lat="47.36504" lon="-1.88138">
        <ele>74</ele>
        <time>2016-01-02T15:32:18Z</time>
      </trkpt>
      <trkpt lat="47.36505" lon="-1.88143">
        <ele>74</ele>
        <time>2016-01-02T15:32:19Z</time>
      </trkpt>
      <trkpt lat="47.36506" lon="-1.88151">
        <ele>74</ele>
        <time>2016-01-02T15:32:20Z</time>
      </trkpt>
      <trkpt lat="47.36507" lon="-1.88158">
        <ele>75</ele>
        <time>2016-01-02T15:32:21Z</time>
      </trkpt>
      <trkpt lat="47.36508" lon="-1.88164">
        <ele>75</ele>
        <time>2016-01-02T15:32:22Z</time>
      </trkpt>
      <trkpt lat="47.36509" lon="-1.8817">
        <ele>75</ele>
        <time>2016-01-02T15:32:23Z</time>
      </trkpt>
      <trkpt lat="47.3651" lon="-1.88176">
        <ele>75</ele>
        <time>2016-01-02T15:32:24Z</time>
      </trkpt>
      <trkpt lat="47.36511" lon="-1.88182">
        <ele>75</ele>
        <time>2016-01-02T15:32:25Z</time>
      </trkpt>
      <trkpt lat="47.36512" lon="-1.88188">
        <ele>75</ele>
        <time>2016-01-02T15:32:26Z</time>
      </trkpt>
      <trkpt lat="47.36512" lon="-1.88193">
        <ele>75</ele>
        <time>2016-01-02T15:32:27Z</time>
      </trkpt>
      <trkpt lat="47.36513" lon="-1.88199">
        <ele>75</ele>
        <time>2016-01-02T15:32:28Z</time>
      </trkpt>
      <trkpt lat="47.36514" lon="-1.88204">
        <ele>75</ele>
        <time>2016-01-02T15:32:29Z</time>
      </trkpt>
      <trkpt lat="47.36515" lon="-1.88209">
        <ele>75</ele>
        <time>2016-01-02T15:32:30Z</time>
      </trkpt>
      <trkpt lat="47.36516" lon="-1.88214">
        <ele>75</ele>
        <time>2016-01-02T15:32:31Z</time>
      </trkpt>
      <trkpt lat="47.36517" lon="-1.88219">
        <ele>75</ele>
        <time>2016-01-02T15:32:32Z</time>
      </trkpt>
      <trkpt lat="47.36519" lon="-1.88225">
        <ele>75</ele>
        <time>2016-01-02T15:32:33Z</time>
      </trkpt>
      <trkpt lat="47.3652" lon="-1.8823">
        <ele>75</ele>
        <time>2016-01-02T15:32:34Z</time>
      </trkpt>
      <trkpt lat="47.36521" lon="-1.88235">
        <ele>75</ele>
        <time>2016-01-02T15:32:35Z</time>
      </trkpt>
      <trkpt lat="47.36522" lon="-1.8824">
        <ele>75</ele>
        <time>2016-01-02T15:32:36Z</time>
      </trkpt>
      <trkpt lat="47.36523" lon="-1.88246">
        <ele>75</ele>
        <time>2016-01-02T15:32:37Z</time>
      </trkpt>
      <trkpt lat="47.36524" lon="-1.88252">
        <ele>76</ele>
        <time>2016-01-02T15:32:38Z</time>
      </trkpt>
      <trkpt lat="47.36525" lon="-1.88257">
        <ele>76</ele>
        <time>2016-01-02T15:32:39Z</time>
      </trkpt>
      <trkpt lat="47.36527" lon="-1.88263">
        <ele>76</ele>
        <time>2016-01-02T15:32:40Z</time>
      </trkpt>
      <trkpt lat="47.36528" lon="-1.88269">
        <ele>76</ele>
        <time>2016-01-02T15:32:41Z</time>
      </trkpt>
      <trkpt lat="47.36529" lon="-1.88274">
        <ele>76</ele>
        <time>2016-01-02T15:32:42Z</time>
      </trkpt>
      <trkpt lat="47.3653" lon="-1.88279">
        <ele>76</ele>
        <time>2016-01-02T15:32:43Z</time>
      </trkpt>
      <trkpt lat="47.36531" lon="-1.88285">
        <ele>76</ele>
        <time>2016-01-02T15:32:44Z</time>
      </trkpt>
      <trkpt lat="47.36532" lon="-1.8829">
        <ele>76</ele>
        <time>2016-01-02T15:32:45Z</time>
      </trkpt>
      <trkpt lat="47.36533" lon="-1.88295">
        <ele>76</ele>
        <time>2016-01-02T15:32:46Z</time>
      </trkpt>
      <trkpt lat="47.36532" lon="-1.883">
        <ele>76</ele>
        <time>2016-01-02T15:32:47Z</time>
      </trkpt>
      <trkpt lat="47.36532" lon="-1.88305">
        <ele>76</ele>
        <time>2016-01-02T15:32:48Z</time>
      </trkpt>
      <trkpt lat="47.36532" lon="-1.8831">
        <ele>76</ele>
        <time>2016-01-02T15:32:49Z</time>
      </trkpt>
      <trkpt lat="47.36528" lon="-1.88311">
        <ele>76</ele>
        <time>2016-01-02T15:32:50Z</time>
      </trkpt>
      <trkpt lat="47.36527" lon="-1.88314">
        <ele>76</ele>
        <time>2016-01-02T15:32:51Z</time>
      </trkpt>
      <trkpt lat="47.36523" lon="-1.88313">
        <ele>76</ele>
        <time>2016-01-02T15:32:52Z</time>
      </trkpt>
      <trkpt lat="47.3652" lon="-1.88315">
        <ele>76</ele>
        <time>2016-01-02T15:32:53Z</time>
      </trkpt>
      <trkpt lat="47.36517" lon="-1.88317">
        <ele>76</ele>
        <time>2016-01-02T15:32:54Z</time>
      </trkpt>
      <trkpt lat="47.36514" lon="-1.88318">
        <ele>76</ele>
        <time>2016-01-02T15:32:55Z</time>
      </trkpt>
      <trkpt lat="47.36511" lon="-1.8832">
        <ele>76</ele>
        <time>2016-01-02T15:32:56Z</time>
      </trkpt>
      <trkpt lat="47.36508" lon="-1.88322">
        <ele>77</ele>
        <time>2016-01-02T15:32:57Z</time>
      </trkpt>
      <trkpt lat="47.36504" lon="-1.88325">
        <ele>77</ele>
        <time>2016-01-02T15:32:58Z</time>
      </trkpt>
      <trkpt lat="47.36501" lon="-1.88327">
        <ele>77</ele>
        <time>2016-01-02T15:32:59Z</time>
      </trkpt>
      <trkpt lat="47.36498" lon="-1.88329">
        <ele>77</ele>
        <time>2016-01-02T15:33:00Z</time>
      </trkpt>
      <trkpt lat="47.36494" lon="-1.88331">
        <ele>77</ele>
        <time>2016-01-02T15:33:01Z</time>
      </trkpt>
      <trkpt lat="47.36491" lon="-1.88333">
        <ele>77</ele>
        <time>2016-01-02T15:33:02Z</time>
      </trkpt>
      <trkpt lat="47.36488" lon="-1.88334">
        <ele>77</ele>
        <time>2016-01-02T15:33:03Z</time>
      </trkpt>
      <trkpt lat="47.36484" lon="-1.88337">
        <ele>77</ele>
        <time>2016-01-02T15:33:04Z</time>
      </trkpt>
      <trkpt lat="47.36481" lon="-1.88339">
        <ele>78</ele>
        <time>2016-01-02T15:33:05Z</time>
      </trkpt>
      <trkpt lat="47.36478" lon="-1.88341">
        <ele>78</ele>
        <time>2016-01-02T15:33:06Z</time>
      </trkpt>
      <trkpt lat="47.36474" lon="-1.88343">
        <ele>78</ele>
        <time>2016-01-02T15:33:07Z</time>
      </trkpt>
      <trkpt lat="47.3647" lon="-1.88345">
        <ele>78</ele>
        <time>2016-01-02T15:33:08Z</time>
      </trkpt>
      <trkpt lat="47.36467" lon="-1.88346">
        <ele>78</ele>
        <time>2016-01-02T15:33:09Z</time>
      </trkpt>
      <trkpt lat="47.36462" lon="-1.88349">
        <ele>78</ele>
        <time>2016-01-02T15:33:10Z</time>
      </trkpt>
      <trkpt lat="47.36458" lon="-1.88351">
        <ele>78</ele>
        <time>2016-01-02T15:33:11Z</time>
      </trkpt>
      <trkpt lat="47.36455" lon="-1.88353">
        <ele>78</ele>
        <time>2016-01-02T15:33:12Z</time>
      </trkpt>
      <trkpt lat="47.36449" lon="-1.88356">
        <ele>78</ele>
        <time>2016-01-02T15:33:13Z</time>
      </trkpt>
      <trkpt lat="47.36446" lon="-1.88357">
        <ele>78</ele>
        <time>2016-01-02T15:33:14Z</time>
      </trkpt>
      <trkpt lat="47.36442" lon="-1.88359">
        <ele>78</ele>
        <time>2016-01-02T15:33:15Z</time>
      </trkpt>
      <trkpt lat="47.36436" lon="-1.88362">
        <ele>78</ele>
        <time>2016-01-02T15:33:16Z</time>
      </trkpt>
      <trkpt lat="47.36433" lon="-1.88364">
        <ele>78</ele>
        <time>2016-01-02T15:33:17Z</time>
      </trkpt>
      <trkpt lat="47.36429" lon="-1.88366">
        <ele>78</ele>
        <time>2016-01-02T15:33:18Z</time>
      </trkpt>
      <trkpt lat="47.36424" lon="-1.8837">
        <ele>78</ele>
        <time>2016-01-02T15:33:19Z</time>
      </trkpt>
      <trkpt lat="47.36419" lon="-1.88372">
        <ele>78</ele>
        <time>2016-01-02T15:33:20Z</time>
      </trkpt>
      <trkpt lat="47.36415" lon="-1.88375">
        <ele>78</ele>
        <time>2016-01-02T15:33:21Z</time>
      </trkpt>
      <trkpt lat="47.36412" lon="-1.88377">
        <ele>78</ele>
        <time>2016-01-02T15:33:22Z</time>
      </trkpt>
      <trkpt lat="47.36409" lon="-1.88379">
        <ele>78</ele>
        <time>2016-01-02T15:33:23Z</time>
      </trkpt>
      <trkpt lat="47.36404" lon="-1.88383">
        <ele>78</ele>
        <time>2016-01-02T15:33:24Z</time>
      </trkpt>
      <trkpt lat="47.36395" lon="-1.88389">
        <ele>78</ele>
        <time>2016-01-02T15:33:26Z</time>
      </trkpt>
      <trkpt lat="47.36392" lon="-1.88391">
        <ele>78</ele>
        <time>2016-01-02T15:33:27Z</time>
      </trkpt>
      <trkpt lat="47.36388" lon="-1.88394">
        <ele>78</ele>
        <time>2016-01-02T15:33:28Z</time>
      </trkpt>
      <trkpt lat="47.36383" lon="-1.88398">
        <ele>78</ele>
        <time>2016-01-02T15:33:29Z</time>
      </trkpt>
      <trkpt lat="47.36379" lon="-1.884">
        <ele>78</ele>
        <time>2016-01-02T15:33:30Z</time>
      </trkpt>
      <trkpt lat="47.36375" lon="-1.88403">
        <ele>78</ele>
        <time>2016-01-02T15:33:31Z</time>
      </trkpt>
      <trkpt lat="47.36372" lon="-1.88405">
        <ele>78</ele>
        <time>2016-01-02T15:33:32Z</time>
      </trkpt>
      <trkpt lat="47.36364" lon="-1.88407">
        <ele>78</ele>
        <time>2016-01-02T15:33:33Z</time>
      </trkpt>
      <trkpt lat="47.36361" lon="-1.88409">
        <ele>78</ele>
        <time>2016-01-02T15:33:34Z</time>
      </trkpt>
      <trkpt lat="47.36357" lon="-1.88411">
        <ele>78</ele>
        <time>2016-01-02T15:33:35Z</time>
      </trkpt>
      <trkpt lat="47.36348" lon="-1.88411">
        <ele>78</ele>
        <time>2016-01-02T15:33:36Z</time>
      </trkpt>
      <trkpt lat="47.36344" lon="-1.88413">
        <ele>78</ele>
        <time>2016-01-02T15:33:37Z</time>
      </trkpt>
      <trkpt lat="47.36341" lon="-1.88415">
        <ele>78</ele>
        <time>2016-01-02T15:33:38Z</time>
      </trkpt>
      <trkpt lat="47.36335" lon="-1.88416">
        <ele>78</ele>
        <time>2016-01-02T15:33:40Z</time>
      </trkpt>
      <trkpt lat="47.36332" lon="-1.88417">
        <ele>78</ele>
        <time>2016-01-02T15:33:41Z</time>
      </trkpt>
      <trkpt lat="47.36327" lon="-1.88422">
        <ele>78</ele>
        <time>2016-01-02T15:33:42Z</time>
      </trkpt>
      <trkpt lat="47.36323" lon="-1.88426">
        <ele>79</ele>
        <time>2016-01-02T15:33:43Z</time>
      </trkpt>
      <trkpt lat="47.36319" lon="-1.88429">
        <ele>79</ele>
        <time>2016-01-02T15:33:44Z</time>
      </trkpt>
      <trkpt lat="47.36316" lon="-1.88432">
        <ele>79</ele>
        <time>2016-01-02T15:33:45Z</time>
      </trkpt>
      <trkpt lat="47.36311" lon="-1.88437">
        <ele>79</ele>
        <time>2016-01-02T15:33:47Z</time>
      </trkpt>
      <trkpt lat="47.36307" lon="-1.88439">
        <ele>79</ele>
        <time>2016-01-02T15:33:48Z</time>
      </trkpt>
      <trkpt lat="47.36303" lon="-1.8844">
        <ele>79</ele>
        <time>2016-01-02T15:33:49Z</time>
      </trkpt>
      <trkpt lat="47.363" lon="-1.88442">
        <ele>79</ele>
        <time>2016-01-02T15:33:50Z</time>
      </trkpt>
      <trkpt lat="47.36296" lon="-1.88445">
        <ele>79</ele>
        <time>2016-01-02T15:33:51Z</time>
      </trkpt>
      <trkpt lat="47.36292" lon="-1.88447">
        <ele>79</ele>
        <time>2016-01-02T15:33:52Z</time>
      </trkpt>
      <trkpt lat="47.36289" lon="-1.88449">
        <ele>79</ele>
        <time>2016-01-02T15:33:53Z</time>
      </trkpt>
      <trkpt lat="47.36285" lon="-1.88451">
        <ele>80</ele>
        <time>2016-01-02T15:33:54Z</time>
      </trkpt>
      <trkpt lat="47.36282" lon="-1.88454">
        <ele>80</ele>
        <time>2016-01-02T15:33:55Z</time>
      </trkpt>
      <trkpt lat="47.36278" lon="-1.88456">
        <ele>80</ele>
        <time>2016-01-02T15:33:56Z</time>
      </trkpt>
      <trkpt lat="47.36275" lon="-1.88459">
        <ele>80</ele>
        <time>2016-01-02T15:33:57Z</time>
      </trkpt>
      <trkpt lat="47.36272" lon="-1.88461">
        <ele>80</ele>
        <time>2016-01-02T15:33:58Z</time>
      </trkpt>
      <trkpt lat="47.36268" lon="-1.88463">
        <ele>80</ele>
        <time>2016-01-02T15:33:59Z</time>
      </trkpt>
      <trkpt lat="47.36264" lon="-1.88465">
        <ele>80</ele>
        <time>2016-01-02T15:34:00Z</time>
      </trkpt>
      <trkpt lat="47.36258" lon="-1.88467">
        <ele>80</ele>
        <time>2016-01-02T15:34:01Z</time>
      </trkpt>
      <trkpt lat="47.36254" lon="-1.88469">
        <ele>80</ele>
        <time>2016-01-02T15:34:02Z</time>
      </trkpt>
      <trkpt lat="47.36251" lon="-1.88472">
        <ele>80</ele>
        <time>2016-01-02T15:34:03Z</time>
      </trkpt>
      <trkpt lat="47.36246" lon="-1.88474">
        <ele>81</ele>
        <time>2016-01-02T15:34:04Z</time>
      </trkpt>
      <trkpt lat="47.36243" lon="-1.88476">
        <ele>81</ele>
        <time>2016-01-02T15:34:05Z</time>
      </trkpt>
      <trkpt lat="47.36239" lon="-1.88479">
        <ele>81</ele>
        <time>2016-01-02T15:34:06Z</time>
      </trkpt>
      <trkpt lat="47.36237" lon="-1.88482">
        <ele>81</ele>
        <time>2016-01-02T15:34:07Z</time>
      </trkpt>
      <trkpt lat="47.36234" lon="-1.88484">
        <ele>81</ele>
        <time>2016-01-02T15:34:08Z</time>
      </trkpt>
      <trkpt lat="47.3623" lon="-1.88486">
        <ele>81</ele>
        <time>2016-01-02T15:34:09Z</time>
      </trkpt>
      <trkpt lat="47.36226" lon="-1.88486">
        <ele>81</ele>
        <time>2016-01-02T15:34:10Z</time>
      </trkpt>
      <trkpt lat="47.36222" lon="-1.88488">
        <ele>81</ele>
        <time>2016-01-02T15:34:11Z</time>
      </trkpt>
      <trkpt lat="47.36219" lon="-1.8849">
        <ele>81</ele>
        <time>2016-01-02T15:34:12Z</time>
      </trkpt>
      <trkpt lat="47.36216" lon="-1.88492">
        <ele>81</ele>
        <time>2016-01-02T15:34:13Z</time>
      </trkpt>
      <trkpt lat="47.36213" lon="-1.88495">
        <ele>81</ele>
        <time>2016-01-02T15:34:14Z</time>
      </trkpt>
      <trkpt lat="47.36209" lon="-1.88497">
        <ele>81</ele>
        <time>2016-01-02T15:34:15Z</time>
      </trkpt>
      <trkpt lat="47.36206" lon="-1.885">
        <ele>81</ele>
        <time>2016-01-02T15:34:16Z</time>
      </trkpt>
      <trkpt lat="47.362" lon="-1.88504">
        <ele>81</ele>
        <time>2016-01-02T15:34:17Z</time>
      </trkpt>
      <trkpt lat="47.36197" lon="-1.88506">
        <ele>81</ele>
        <time>2016-01-02T15:34:18Z</time>
      </trkpt>
      <trkpt lat="47.36194" lon="-1.88508">
        <ele>81</ele>
        <time>2016-01-02T15:34:19Z</time>
      </trkpt>
      <trkpt lat="47.36191" lon="-1.8851">
        <ele>81</ele>
        <time>2016-01-02T15:34:20Z</time>
      </trkpt>
      <trkpt lat="47.36188" lon="-1.88513">
        <ele>81</ele>
        <time>2016-01-02T15:34:21Z</time>
      </trkpt>
      <trkpt lat="47.36183" lon="-1.88516">
        <ele>81</ele>
        <time>2016-01-02T15:34:22Z</time>
      </trkpt>
      <trkpt lat="47.36176" lon="-1.88518">
        <ele>81</ele>
        <time>2016-01-02T15:34:23Z</time>
      </trkpt>
      <trkpt lat="47.36173" lon="-1.88521">
        <ele>81</ele>
        <time>2016-01-02T15:34:24Z</time>
      </trkpt>
      <trkpt lat="47.36169" lon="-1.88523">
        <ele>81</ele>
        <time>2016-01-02T15:34:25Z</time>
      </trkpt>
      <trkpt lat="47.36165" lon="-1.88525">
        <ele>81</ele>
        <time>2016-01-02T15:34:26Z</time>
      </trkpt>
      <trkpt lat="47.36159" lon="-1.88528">
        <ele>81</ele>
        <time>2016-01-02T15:34:27Z</time>
      </trkpt>
      <trkpt lat="47.36155" lon="-1.8853">
        <ele>81</ele>
        <time>2016-01-02T15:34:28Z</time>
      </trkpt>
      <trkpt lat="47.36151" lon="-1.88532">
        <ele>81</ele>
        <time>2016-01-02T15:34:29Z</time>
      </trkpt>
      <trkpt lat="47.36147" lon="-1.88534">
        <ele>81</ele>
        <time>2016-01-02T15:34:30Z</time>
      </trkpt>
      <trkpt lat="47.36143" lon="-1.88536">
        <ele>81</ele>
        <time>2016-01-02T15:34:31Z</time>
      </trkpt>
      <trkpt lat="47.36138" lon="-1.88538">
        <ele>81</ele>
        <time>2016-01-02T15:34:32Z</time>
      </trkpt>
      <trkpt lat="47.36134" lon="-1.8854">
        <ele>81</ele>
        <time>2016-01-02T15:34:33Z</time>
      </trkpt>
      <trkpt lat="47.36132" lon="-1.88542">
        <ele>81</ele>
        <time>2016-01-02T15:34:34Z</time>
      </trkpt>
      <trkpt lat="47.36128" lon="-1.88544">
        <ele>81</ele>
        <time>2016-01-02T15:34:35Z</time>
      </trkpt>
      <trkpt lat="47.36124" lon="-1.88547">
        <ele>82</ele>
        <time>2016-01-02T15:34:36Z</time>
      </trkpt>
      <trkpt lat="47.3612" lon="-1.88548">
        <ele>82</ele>
        <time>2016-01-02T15:34:37Z</time>
      </trkpt>
      <trkpt lat="47.36117" lon="-1.88551">
        <ele>82</ele>
        <time>2016-01-02T15:34:38Z</time>
      </trkpt>
      <trkpt lat="47.36113" lon="-1.88553">
        <ele>82</ele>
        <time>2016-01-02T15:34:39Z</time>
      </trkpt>
      <trkpt lat="47.3611" lon="-1.88556">
        <ele>82</ele>
        <time>2016-01-02T15:34:40Z</time>
      </trkpt>
      <trkpt lat="47.36107" lon="-1.88558">
        <ele>82</ele>
        <time>2016-01-02T15:34:41Z</time>
      </trkpt>
      <trkpt lat="47.36103" lon="-1.8856">
        <ele>82</ele>
        <time>2016-01-02T15:34:42Z</time>
      </trkpt>
      <trkpt lat="47.36099" lon="-1.88562">
        <ele>82</ele>
        <time>2016-01-02T15:34:43Z</time>
      </trkpt>
      <trkpt lat="47.36095" lon="-1.88564">
        <ele>82</ele>
        <time>2016-01-02T15:34:44Z</time>
      </trkpt>
      <trkpt lat="47.36091" lon="-1.88567">
        <ele>82</ele>
        <time>2016-01-02T15:34:45Z</time>
      </trkpt>
      <trkpt lat="47.36087" lon="-1.88569">
        <ele>82</ele>
        <time>2016-01-02T15:34:46Z</time>
      </trkpt>
      <trkpt lat="47.36083" lon="-1.88571">
        <ele>83</ele>
        <time>2016-01-02T15:34:47Z</time>
      </trkpt>
      <trkpt lat="47.36079" lon="-1.88573">
        <ele>83</ele>
        <time>2016-01-02T15:34:48Z</time>
      </trkpt>
      <trkpt lat="47.36075" lon="-1.88574">
        <ele>83</ele>
        <time>2016-01-02T15:34:49Z</time>
      </trkpt>
      <trkpt lat="47.36071" lon="-1.88576">
        <ele>83</ele>
        <time>2016-01-02T15:34:50Z</time>
      </trkpt>
      <trkpt lat="47.36067" lon="-1.88579">
        <ele>83</ele>
        <time>2016-01-02T15:34:51Z</time>
      </trkpt>
      <trkpt lat="47.36064" lon="-1.88581">
        <ele>83</ele>
        <time>2016-01-02T15:34:52Z</time>
      </trkpt>
      <trkpt lat="47.3606" lon="-1.88582">
        <ele>83</ele>
        <time>2016-01-02T15:34:53Z</time>
      </trkpt>
      <trkpt lat="47.36056" lon="-1.88584">
        <ele>83</ele>
        <time>2016-01-02T15:34:54Z</time>
      </trkpt>
      <trkpt lat="47.36052" lon="-1.88586">
        <ele>83</ele>
        <time>2016-01-02T15:34:55Z</time>
      </trkpt>
      <trkpt lat="47.36048" lon="-1.88588">
        <ele>83</ele>
        <time>2016-01-02T15:34:56Z</time>
      </trkpt>
      <trkpt lat="47.36045" lon="-1.8859">
        <ele>83</ele>
        <time>2016-01-02T15:34:57Z</time>
      </trkpt>
      <trkpt lat="47.36042" lon="-1.88593">
        <ele>83</ele>
        <time>2016-01-02T15:34:58Z</time>
      </trkpt>
      <trkpt lat="47.3604" lon="-1.88595">
        <ele>84</ele>
        <time>2016-01-02T15:34:59Z</time>
      </trkpt>
      <trkpt lat="47.36038" lon="-1.88598">
        <ele>84</ele>
        <time>2016-01-02T15:35:00Z</time>
      </trkpt>
      <trkpt lat="47.36035" lon="-1.886">
        <ele>84</ele>
        <time>2016-01-02T15:35:01Z</time>
      </trkpt>
      <trkpt lat="47.36031" lon="-1.88602">
        <ele>84</ele>
        <time>2016-01-02T15:35:02Z</time>
      </trkpt>
      <trkpt lat="47.36028" lon="-1.88604">
        <ele>84</ele>
        <time>2016-01-02T15:35:03Z</time>
      </trkpt>
      <trkpt lat="47.36025" lon="-1.88606">
        <ele>84</ele>
        <time>2016-01-02T15:35:04Z</time>
      </trkpt>
      <trkpt lat="47.36021" lon="-1.88607">
        <ele>84</ele>
        <time>2016-01-02T15:35:05Z</time>
      </trkpt>
      <trkpt lat="47.36017" lon="-1.88609">
        <ele>84</ele>
        <time>2016-01-02T15:35:06Z</time>
      </trkpt>
      <trkpt lat="47.36013" lon="-1.88611">
        <ele>84</ele>
        <time>2016-01-02T15:35:07Z</time>
      </trkpt>
      <trkpt lat="47.36009" lon="-1.88613">
        <ele>84</ele>
        <time>2016-01-02T15:35:08Z</time>
      </trkpt>
      <trkpt lat="47.36005" lon="-1.88615">
        <ele>84</ele>
        <time>2016-01-02T15:35:09Z</time>
      </trkpt>
      <trkpt lat="47.36002" lon="-1.88617">
        <ele>84</ele>
        <time>2016-01-02T15:35:10Z</time>
      </trkpt>
      <trkpt lat="47.35997" lon="-1.88619">
        <ele>84</ele>
        <time>2016-01-02T15:35:11Z</time>
      </trkpt>
      <trkpt lat="47.35993" lon="-1.88622">
        <ele>84</ele>
        <time>2016-01-02T15:35:12Z</time>
      </trkpt>
      <trkpt lat="47.3599" lon="-1.88624">
        <ele>84</ele>
        <time>2016-01-02T15:35:13Z</time>
      </trkpt>
      <trkpt lat="47.35986" lon="-1.88626">
        <ele>84</ele>
        <time>2016-01-02T15:35:14Z</time>
      </trkpt>
      <trkpt lat="47.35982" lon="-1.88629">
        <ele>84</ele>
        <time>2016-01-02T15:35:15Z</time>
      </trkpt>
      <trkpt lat="47.35978" lon="-1.88632">
        <ele>84</ele>
        <time>2016-01-02T15:35:16Z</time>
      </trkpt>
      <trkpt lat="47.35974" lon="-1.88635">
        <ele>84</ele>
        <time>2016-01-02T15:35:17Z</time>
      </trkpt>
      <trkpt lat="47.35971" lon="-1.88636">
        <ele>84</ele>
        <time>2016-01-02T15:35:18Z</time>
      </trkpt>
      <trkpt lat="47.35966" lon="-1.8864">
        <ele>85</ele>
        <time>2016-01-02T15:35:19Z</time>
      </trkpt>
      <trkpt lat="47.35963" lon="-1.88643">
        <ele>85</ele>
        <time>2016-01-02T15:35:20Z</time>
      </trkpt>
      <trkpt lat="47.35959" lon="-1.88645">
        <ele>85</ele>
        <time>2016-01-02T15:35:21Z</time>
      </trkpt>
      <trkpt lat="47.35956" lon="-1.88649">
        <ele>85</ele>
        <time>2016-01-02T15:35:22Z</time>
      </trkpt>
      <trkpt lat="47.35952" lon="-1.88652">
        <ele>85</ele>
        <time>2016-01-02T15:35:23Z</time>
      </trkpt>
      <trkpt lat="47.35948" lon="-1.88654">
        <ele>85</ele>
        <time>2016-01-02T15:35:24Z</time>
      </trkpt>
      <trkpt lat="47.35945" lon="-1.88656">
        <ele>85</ele>
        <time>2016-01-02T15:35:25Z</time>
      </trkpt>
      <trkpt lat="47.3594" lon="-1.88658">
        <ele>85</ele>
        <time>2016-01-02T15:35:26Z</time>
      </trkpt>
      <trkpt lat="47.35936" lon="-1.8866">
        <ele>85</ele>
        <time>2016-01-02T15:35:27Z</time>
      </trkpt>
      <trkpt lat="47.35932" lon="-1.88662">
        <ele>85</ele>
        <time>2016-01-02T15:35:28Z</time>
      </trkpt>
      <trkpt lat="47.35929" lon="-1.88664">
        <ele>85</ele>
        <time>2016-01-02T15:35:29Z</time>
      </trkpt>
      <trkpt lat="47.35924" lon="-1.88668">
        <ele>86</ele>
        <time>2016-01-02T15:35:30Z</time>
      </trkpt>
      <trkpt lat="47.3592" lon="-1.88671">
        <ele>86</ele>
        <time>2016-01-02T15:35:31Z</time>
      </trkpt>
      <trkpt lat="47.35915" lon="-1.88674">
        <ele>86</ele>
        <time>2016-01-02T15:35:32Z</time>
      </trkpt>
      <trkpt lat="47.35911" lon="-1.88676">
        <ele>86</ele>
        <time>2016-01-02T15:35:33Z</time>
      </trkpt>
      <trkpt lat="47.35906" lon="-1.88678">
        <ele>86</ele>
        <time>2016-01-02T15:35:34Z</time>
      </trkpt>
      <trkpt lat="47.35902" lon="-1.8868">
        <ele>86</ele>
        <time>2016-01-02T15:35:35Z</time>
      </trkpt>
      <trkpt lat="47.35897" lon="-1.88682">
        <ele>86</ele>
        <time>2016-01-02T15:35:36Z</time>
      </trkpt>
      <trkpt lat="47.35894" lon="-1.88684">
        <ele>86</ele>
        <time>2016-01-02T15:35:37Z</time>
      </trkpt>
      <trkpt lat="47.3589" lon="-1.88687">
        <ele>86</ele>
        <time>2016-01-02T15:35:38Z</time>
      </trkpt>
      <trkpt lat="47.35886" lon="-1.88689">
        <ele>86</ele>
        <time>2016-01-02T15:35:39Z</time>
      </trkpt>
      <trkpt lat="47.35882" lon="-1.88691">
        <ele>86</ele>
        <time>2016-01-02T15:35:40Z</time>
      </trkpt>
      <trkpt lat="47.35878" lon="-1.88693">
        <ele>86</ele>
        <time>2016-01-02T15:35:41Z</time>
      </trkpt>
      <trkpt lat="47.35874" lon="-1.88695">
        <ele>85</ele>
        <time>2016-01-02T15:35:42Z</time>
      </trkpt>
      <trkpt lat="47.3587" lon="-1.88697">
        <ele>85</ele>
        <time>2016-01-02T15:35:43Z</time>
      </trkpt>
      <trkpt lat="47.35867" lon="-1.887">
        <ele>85</ele>
        <time>2016-01-02T15:35:44Z</time>
      </trkpt>
      <trkpt lat="47.35863" lon="-1.88703">
        <ele>85</ele>
        <time>2016-01-02T15:35:45Z</time>
      </trkpt>
      <trkpt lat="47.35859" lon="-1.88706">
        <ele>85</ele>
        <time>2016-01-02T15:35:46Z</time>
      </trkpt>
      <trkpt lat="47.35855" lon="-1.88708">
        <ele>85</ele>
        <time>2016-01-02T15:35:47Z</time>
      </trkpt>
      <trkpt lat="47.35849" lon="-1.88712">
        <ele>85</ele>
        <time>2016-01-02T15:35:48Z</time>
      </trkpt>
      <trkpt lat="47.35846" lon="-1.88714">
        <ele>85</ele>
        <time>2016-01-02T15:35:49Z</time>
      </trkpt>
      <trkpt lat="47.35842" lon="-1.88716">
        <ele>85</ele>
        <time>2016-01-02T15:35:50Z</time>
      </trkpt>
      <trkpt lat="47.35837" lon="-1.88718">
        <ele>85</ele>
        <time>2016-01-02T15:35:51Z</time>
      </trkpt>
      <trkpt lat="47.35833" lon="-1.8872">
        <ele>85</ele>
        <time>2016-01-02T15:35:52Z</time>
      </trkpt>
      <trkpt lat="47.35829" lon="-1.88722">
        <ele>85</ele>
        <time>2016-01-02T15:35:53Z</time>
      </trkpt>
      <trkpt lat="47.35825" lon="-1.88727">
        <ele>85</ele>
        <time>2016-01-02T15:35:54Z</time>
      </trkpt>
      <trkpt lat="47.35821" lon="-1.8873">
        <ele>85</ele>
        <time>2016-01-02T15:35:55Z</time>
      </trkpt>
      <trkpt lat="47.35817" lon="-1.88733">
        <ele>85</ele>
        <time>2016-01-02T15:35:56Z</time>
      </trkpt>
      <trkpt lat="47.35811" lon="-1.88736">
        <ele>86</ele>
        <time>2016-01-02T15:35:58Z</time>
      </trkpt>
      <trkpt lat="47.35808" lon="-1.88738">
        <ele>86</ele>
        <time>2016-01-02T15:35:59Z</time>
      </trkpt>
      <trkpt lat="47.35803" lon="-1.88739">
        <ele>86</ele>
        <time>2016-01-02T15:36:00Z</time>
      </trkpt>
      <trkpt lat="47.35799" lon="-1.88743">
        <ele>86</ele>
        <time>2016-01-02T15:36:01Z</time>
      </trkpt>
      <trkpt lat="47.35795" lon="-1.88745">
        <ele>86</ele>
        <time>2016-01-02T15:36:02Z</time>
      </trkpt>
      <trkpt lat="47.35791" lon="-1.88747">
        <ele>86</ele>
        <time>2016-01-02T15:36:03Z</time>
      </trkpt>
      <trkpt lat="47.35783" lon="-1.88752">
        <ele>86</ele>
        <time>2016-01-02T15:36:05Z</time>
      </trkpt>
      <trkpt lat="47.3578" lon="-1.88754">
        <ele>86</ele>
        <time>2016-01-02T15:36:06Z</time>
      </trkpt>
      <trkpt lat="47.35776" lon="-1.88757">
        <ele>86</ele>
        <time>2016-01-02T15:36:07Z</time>
      </trkpt>
      <trkpt lat="47.35772" lon="-1.88759">
        <ele>86</ele>
        <time>2016-01-02T15:36:08Z</time>
      </trkpt>
      <trkpt lat="47.35769" lon="-1.88763">
        <ele>87</ele>
        <time>2016-01-02T15:36:09Z</time>
      </trkpt>
      <trkpt lat="47.35766" lon="-1.88766">
        <ele>87</ele>
        <time>2016-01-02T15:36:10Z</time>
      </trkpt>
      <trkpt lat="47.35762" lon="-1.88768">
        <ele>87</ele>
        <time>2016-01-02T15:36:11Z</time>
      </trkpt>
      <trkpt lat="47.35759" lon="-1.88771">
        <ele>87</ele>
        <time>2016-01-02T15:36:12Z</time>
      </trkpt>
      <trkpt lat="47.35755" lon="-1.88772">
        <ele>87</ele>
        <time>2016-01-02T15:36:13Z</time>
      </trkpt>
      <trkpt lat="47.35751" lon="-1.88773">
        <ele>87</ele>
        <time>2016-01-02T15:36:14Z</time>
      </trkpt>
      <trkpt lat="47.35747" lon="-1.88775">
        <ele>87</ele>
        <time>2016-01-02T15:36:15Z</time>
      </trkpt>
      <trkpt lat="47.35743" lon="-1.88777">
        <ele>87</ele>
        <time>2016-01-02T15:36:16Z</time>
      </trkpt>
      <trkpt lat="47.3574" lon="-1.8878">
        <ele>87</ele>
        <time>2016-01-02T15:36:17Z</time>
      </trkpt>
      <trkpt lat="47.35738" lon="-1.88785">
        <ele>86</ele>
        <time>2016-01-02T15:36:18Z</time>
      </trkpt>
      <trkpt lat="47.35737" lon="-1.8879">
        <ele>86</ele>
        <time>2016-01-02T15:36:19Z</time>
      </trkpt>
      <trkpt lat="47.35737" lon="-1.88795">
        <ele>86</ele>
        <time>2016-01-02T15:36:20Z</time>
      </trkpt>
      <trkpt lat="47.35736" lon="-1.888">
        <ele>86</ele>
        <time>2016-01-02T15:36:21Z</time>
      </trkpt>
      <trkpt lat="47.35736" lon="-1.88806">
        <ele>87</ele>
        <time>2016-01-02T15:36:22Z</time>
      </trkpt>
      <trkpt lat="47.35736" lon="-1.88812">
        <ele>87</ele>
        <time>2016-01-02T15:36:23Z</time>
      </trkpt>
      <trkpt lat="47.35736" lon="-1.88818">
        <ele>87</ele>
        <time>2016-01-02T15:36:24Z</time>
      </trkpt>
      <trkpt lat="47.35736" lon="-1.88823">
        <ele>87</ele>
        <time>2016-01-02T15:36:25Z</time>
      </trkpt>
      <trkpt lat="47.35736" lon="-1.88829">
        <ele>87</ele>
        <time>2016-01-02T15:36:26Z</time>
      </trkpt>
      <trkpt lat="47.35737" lon="-1.88835">
        <ele>86</ele>
        <time>2016-01-02T15:36:27Z</time>
      </trkpt>
      <trkpt lat="47.35737" lon="-1.8884">
        <ele>86</ele>
        <time>2016-01-02T15:36:28Z</time>
      </trkpt>
      <trkpt lat="47.35736" lon="-1.88846">
        <ele>86</ele>
        <time>2016-01-02T15:36:29Z</time>
      </trkpt>
      <trkpt lat="47.35736" lon="-1.88851">
        <ele>86</ele>
        <time>2016-01-02T15:36:30Z</time>
      </trkpt>
      <trkpt lat="47.35736" lon="-1.88857">
        <ele>86</ele>
        <time>2016-01-02T15:36:31Z</time>
      </trkpt>
      <trkpt lat="47.35736" lon="-1.88863">
        <ele>86</ele>
        <time>2016-01-02T15:36:32Z</time>
      </trkpt>
      <trkpt lat="47.35736" lon="-1.88868">
        <ele>86</ele>
        <time>2016-01-02T15:36:33Z</time>
      </trkpt>
      <trkpt lat="47.35735" lon="-1.88873">
        <ele>86</ele>
        <time>2016-01-02T15:36:34Z</time>
      </trkpt>
      <trkpt lat="47.35735" lon="-1.88878">
        <ele>86</ele>
        <time>2016-01-02T15:36:35Z</time>
      </trkpt>
      <trkpt lat="47.35734" lon="-1.88883">
        <ele>86</ele>
        <time>2016-01-02T15:36:36Z</time>
      </trkpt>
      <trkpt lat="47.35733" lon="-1.88888">
        <ele>85</ele>
        <time>2016-01-02T15:36:37Z</time>
      </trkpt>
      <trkpt lat="47.35732" lon="-1.88893">
        <ele>85</ele>
        <time>2016-01-02T15:36:38Z</time>
      </trkpt>
      <trkpt lat="47.3573" lon="-1.88898">
        <ele>85</ele>
        <time>2016-01-02T15:36:39Z</time>
      </trkpt>
      <trkpt lat="47.35729" lon="-1.88903">
        <ele>85</ele>
        <time>2016-01-02T15:36:40Z</time>
      </trkpt>
      <trkpt lat="47.35726" lon="-1.88911">
        <ele>85</ele>
        <time>2016-01-02T15:36:41Z</time>
      </trkpt>
      <trkpt lat="47.35724" lon="-1.88915">
        <ele>85</ele>
        <time>2016-01-02T15:36:42Z</time>
      </trkpt>
      <trkpt lat="47.35722" lon="-1.8892">
        <ele>85</ele>
        <time>2016-01-02T15:36:43Z</time>
      </trkpt>
      <trkpt lat="47.3572" lon="-1.88923">
        <ele>85</ele>
        <time>2016-01-02T15:36:44Z</time>
      </trkpt>
      <trkpt lat="47.35718" lon="-1.88927">
        <ele>85</ele>
        <time>2016-01-02T15:36:45Z</time>
      </trkpt>
      <trkpt lat="47.35715" lon="-1.88931">
        <ele>85</ele>
        <time>2016-01-02T15:36:46Z</time>
      </trkpt>
      <trkpt lat="47.35712" lon="-1.88933">
        <ele>85</ele>
        <time>2016-01-02T15:36:47Z</time>
      </trkpt>
      <trkpt lat="47.35709" lon="-1.88937">
        <ele>85</ele>
        <time>2016-01-02T15:36:48Z</time>
      </trkpt>
      <trkpt lat="47.35707" lon="-1.88941">
        <ele>85</ele>
        <time>2016-01-02T15:36:49Z</time>
      </trkpt>
      <trkpt lat="47.35703" lon="-1.88945">
        <ele>85</ele>
        <time>2016-01-02T15:36:50Z</time>
      </trkpt>
      <trkpt lat="47.35701" lon="-1.88948">
        <ele>85</ele>
        <time>2016-01-02T15:36:51Z</time>
      </trkpt>
      <trkpt lat="47.35698" lon="-1.88952">
        <ele>85</ele>
        <time>2016-01-02T15:36:52Z</time>
      </trkpt>
      <trkpt lat="47.35696" lon="-1.88956">
        <ele>85</ele>
        <time>2016-01-02T15:36:53Z</time>
      </trkpt>
      <trkpt lat="47.35695" lon="-1.8896">
        <ele>85</ele>
        <time>2016-01-02T15:36:54Z</time>
      </trkpt>
      <trkpt lat="47.35693" lon="-1.88964">
        <ele>85</ele>
        <time>2016-01-02T15:36:55Z</time>
      </trkpt>
      <trkpt lat="47.35693" lon="-1.8897">
        <ele>85</ele>
        <time>2016-01-02T15:36:56Z</time>
      </trkpt>
      <trkpt lat="47.35692" lon="-1.88974">
        <ele>85</ele>
        <time>2016-01-02T15:36:57Z</time>
      </trkpt>
      <trkpt lat="47.35691" lon="-1.88979">
        <ele>85</ele>
        <time>2016-01-02T15:36:58Z</time>
      </trkpt>
      <trkpt lat="47.35691" lon="-1.88987">
        <ele>85</ele>
        <time>2016-01-02T15:37:00Z</time>
      </trkpt>
      <trkpt lat="47.35692" lon="-1.88992">
        <ele>85</ele>
        <time>2016-01-02T15:37:01Z</time>
      </trkpt>
      <trkpt lat="47.35693" lon="-1.89">
        <ele>85</ele>
        <time>2016-01-02T15:37:03Z</time>
      </trkpt>
      <trkpt lat="47.35693" lon="-1.89004">
        <ele>85</ele>
        <time>2016-01-02T15:37:04Z</time>
      </trkpt>
      <trkpt lat="47.35695" lon="-1.89008">
        <ele>85</ele>
        <time>2016-01-02T15:37:05Z</time>
      </trkpt>
      <trkpt lat="47.35696" lon="-1.89013">
        <ele>85</ele>
        <time>2016-01-02T15:37:06Z</time>
      </trkpt>
      <trkpt lat="47.35697" lon="-1.89017">
        <ele>85</ele>
        <time>2016-01-02T15:37:07Z</time>
      </trkpt>
      <trkpt lat="47.35697" lon="-1.89025">
        <ele>84</ele>
        <time>2016-01-02T15:37:08Z</time>
      </trkpt>
      <trkpt lat="47.35697" lon="-1.89029">
        <ele>84</ele>
        <time>2016-01-02T15:37:09Z</time>
      </trkpt>
      <trkpt lat="47.35697" lon="-1.89033">
        <ele>84</ele>
        <time>2016-01-02T15:37:10Z</time>
      </trkpt>
      <trkpt lat="47.35695" lon="-1.89029">
        <ele>84</ele>
        <time>2016-01-02T15:37:13Z</time>
      </trkpt>
      <trkpt lat="47.35694" lon="-1.89022">
        <ele>85</ele>
        <time>2016-01-02T15:37:15Z</time>
      </trkpt>
      <trkpt lat="47.35693" lon="-1.89016">
        <ele>85</ele>
        <time>2016-01-02T15:37:16Z</time>
      </trkpt>
      <trkpt lat="47.35692" lon="-1.89012">
        <ele>85</ele>
        <time>2016-01-02T15:37:17Z</time>
      </trkpt>
      <trkpt lat="47.35691" lon="-1.89009">
        <ele>85</ele>
        <time>2016-01-02T15:37:18Z</time>
      </trkpt>
      <trkpt lat="47.35686" lon="-1.89005">
        <ele>85</ele>
        <time>2016-01-02T15:37:20Z</time>
      </trkpt>
      <trkpt lat="47.35684" lon="-1.89002">
        <ele>85</ele>
        <time>2016-01-02T15:37:21Z</time>
      </trkpt>
      <trkpt lat="47.3568" lon="-1.89">
        <ele>85</ele>
        <time>2016-01-02T15:37:23Z</time>
      </trkpt>
      <trkpt lat="47.35677" lon="-1.88999">
        <ele>86</ele>
        <time>2016-01-02T15:37:24Z</time>
      </trkpt>
      <trkpt lat="47.35674" lon="-1.88999">
        <ele>86</ele>
        <time>2016-01-02T15:37:25Z</time>
      </trkpt>
      <trkpt lat="47.3567" lon="-1.89001">
        <ele>86</ele>
        <time>2016-01-02T15:37:26Z</time>
      </trkpt>
      <trkpt lat="47.35667" lon="-1.89002">
        <ele>86</ele>
        <time>2016-01-02T15:37:27Z</time>
      </trkpt>
      <trkpt lat="47.35664" lon="-1.89004">
        <ele>86</ele>
        <time>2016-01-02T15:37:28Z</time>
      </trkpt>
      <trkpt lat="47.35661" lon="-1.89006">
        <ele>86</ele>
        <time>2016-01-02T15:37:29Z</time>
      </trkpt>
      <trkpt lat="47.35657" lon="-1.8901">
        <ele>86</ele>
        <time>2016-01-02T15:37:30Z</time>
      </trkpt>
      <trkpt lat="47.35654" lon="-1.89014">
        <ele>86</ele>
        <time>2016-01-02T15:37:31Z</time>
      </trkpt>
      <trkpt lat="47.35652" lon="-1.89017">
        <ele>86</ele>
        <time>2016-01-02T15:37:32Z</time>
      </trkpt>
      <trkpt lat="47.35647" lon="-1.89023">
        <ele>86</ele>
        <time>2016-01-02T15:37:33Z</time>
      </trkpt>
      <trkpt lat="47.35645" lon="-1.89028">
        <ele>86</ele>
        <time>2016-01-02T15:37:34Z</time>
      </trkpt>
      <trkpt lat="47.35643" lon="-1.89032">
        <ele>86</ele>
        <time>2016-01-02T15:37:35Z</time>
      </trkpt>
      <trkpt lat="47.35642" lon="-1.89037">
        <ele>86</ele>
        <time>2016-01-02T15:37:36Z</time>
      </trkpt>
      <trkpt lat="47.3564" lon="-1.89042">
        <ele>86</ele>
        <time>2016-01-02T15:37:37Z</time>
      </trkpt>
      <trkpt lat="47.35638" lon="-1.89047">
        <ele>86</ele>
        <time>2016-01-02T15:37:38Z</time>
      </trkpt>
      <trkpt lat="47.35635" lon="-1.89054">
        <ele>86</ele>
        <time>2016-01-02T15:37:39Z</time>
      </trkpt>
      <trkpt lat="47.35634" lon="-1.89059">
        <ele>85</ele>
        <time>2016-01-02T15:37:40Z</time>
      </trkpt>
      <trkpt lat="47.35632" lon="-1.89064">
        <ele>85</ele>
        <time>2016-01-02T15:37:41Z</time>
      </trkpt>
      <trkpt lat="47.35629" lon="-1.89068">
        <ele>85</ele>
        <time>2016-01-02T15:37:42Z</time>
      </trkpt>
      <trkpt lat="47.35627" lon="-1.89073">
        <ele>85</ele>
        <time>2016-01-02T15:37:43Z</time>
      </trkpt>
      <trkpt lat="47.35625" lon="-1.89078">
        <ele>85</ele>
        <time>2016-01-02T15:37:44Z</time>
      </trkpt>
      <trkpt lat="47.35625" lon="-1.89083">
        <ele>85</ele>
        <time>2016-01-02T15:37:45Z</time>
      </trkpt>
      <trkpt lat="47.35623" lon="-1.89087">
        <ele>85</ele>
        <time>2016-01-02T15:37:46Z</time>
      </trkpt>
      <trkpt lat="47.35621" lon="-1.89092">
        <ele>85</ele>
        <time>2016-01-02T15:37:47Z</time>
      </trkpt>
      <trkpt lat="47.35619" lon="-1.89097">
        <ele>85</ele>
        <time>2016-01-02T15:37:48Z</time>
      </trkpt>
      <trkpt lat="47.35616" lon="-1.89102">
        <ele>85</ele>
        <time>2016-01-02T15:37:49Z</time>
      </trkpt>
      <trkpt lat="47.35615" lon="-1.89106">
        <ele>85</ele>
        <time>2016-01-02T15:37:50Z</time>
      </trkpt>
      <trkpt lat="47.35614" lon="-1.89111">
        <ele>85</ele>
        <time>2016-01-02T15:37:51Z</time>
      </trkpt>
      <trkpt lat="47.35612" lon="-1.89116">
        <ele>84</ele>
        <time>2016-01-02T15:37:52Z</time>
      </trkpt>
      <trkpt lat="47.3561" lon="-1.89121">
        <ele>84</ele>
        <time>2016-01-02T15:37:53Z</time>
      </trkpt>
      <trkpt lat="47.35608" lon="-1.89126">
        <ele>84</ele>
        <time>2016-01-02T15:37:54Z</time>
      </trkpt>
      <trkpt lat="47.35606" lon="-1.89131">
        <ele>84</ele>
        <time>2016-01-02T15:37:55Z</time>
      </trkpt>
      <trkpt lat="47.35604" lon="-1.89135">
        <ele>84</ele>
        <time>2016-01-02T15:37:56Z</time>
      </trkpt>
      <trkpt lat="47.35602" lon="-1.8914">
        <ele>84</ele>
        <time>2016-01-02T15:37:57Z</time>
      </trkpt>
      <trkpt lat="47.356" lon="-1.89145">
        <ele>84</ele>
        <time>2016-01-02T15:37:58Z</time>
      </trkpt>
      <trkpt lat="47.35598" lon="-1.8915">
        <ele>84</ele>
        <time>2016-01-02T15:37:59Z</time>
      </trkpt>
      <trkpt lat="47.35597" lon="-1.89155">
        <ele>84</ele>
        <time>2016-01-02T15:38:00Z</time>
      </trkpt>
      <trkpt lat="47.35595" lon="-1.89159">
        <ele>84</ele>
        <time>2016-01-02T15:38:01Z</time>
      </trkpt>
      <trkpt lat="47.35592" lon="-1.89165">
        <ele>84</ele>
        <time>2016-01-02T15:38:02Z</time>
      </trkpt>
      <trkpt lat="47.35591" lon="-1.8917">
        <ele>84</ele>
        <time>2016-01-02T15:38:03Z</time>
      </trkpt>
      <trkpt lat="47.35589" lon="-1.89175">
        <ele>84</ele>
        <time>2016-01-02T15:38:04Z</time>
      </trkpt>
      <trkpt lat="47.35587" lon="-1.89181">
        <ele>84</ele>
        <time>2016-01-02T15:38:05Z</time>
      </trkpt>
      <trkpt lat="47.35585" lon="-1.89185">
        <ele>84</ele>
        <time>2016-01-02T15:38:06Z</time>
      </trkpt>
      <trkpt lat="47.35583" lon="-1.8919">
        <ele>85</ele>
        <time>2016-01-02T15:38:07Z</time>
      </trkpt>
      <trkpt lat="47.35581" lon="-1.89196">
        <ele>85</ele>
        <time>2016-01-02T15:38:08Z</time>
      </trkpt>
      <trkpt lat="47.35579" lon="-1.89201">
        <ele>85</ele>
        <time>2016-01-02T15:38:09Z</time>
      </trkpt>
      <trkpt lat="47.35577" lon="-1.89207">
        <ele>85</ele>
        <time>2016-01-02T15:38:10Z</time>
      </trkpt>
      <trkpt lat="47.35576" lon="-1.89212">
        <ele>85</ele>
        <time>2016-01-02T15:38:11Z</time>
      </trkpt>
      <trkpt lat="47.35574" lon="-1.89219">
        <ele>85</ele>
        <time>2016-01-02T15:38:12Z</time>
      </trkpt>
      <trkpt lat="47.35572" lon="-1.89225">
        <ele>85</ele>
        <time>2016-01-02T15:38:13Z</time>
      </trkpt>
      <trkpt lat="47.35572" lon="-1.8923">
        <ele>85</ele>
        <time>2016-01-02T15:38:14Z</time>
      </trkpt>
      <trkpt lat="47.3557" lon="-1.89236">
        <ele>85</ele>
        <time>2016-01-02T15:38:15Z</time>
      </trkpt>
      <trkpt lat="47.35569" lon="-1.89242">
        <ele>85</ele>
        <time>2016-01-02T15:38:16Z</time>
      </trkpt>
      <trkpt lat="47.35568" lon="-1.89248">
        <ele>85</ele>
        <time>2016-01-02T15:38:17Z</time>
      </trkpt>
      <trkpt lat="47.35567" lon="-1.89254">
        <ele>85</ele>
        <time>2016-01-02T15:38:18Z</time>
      </trkpt>
      <trkpt lat="47.35566" lon="-1.8926">
        <ele>85</ele>
        <time>2016-01-02T15:38:19Z</time>
      </trkpt>
      <trkpt lat="47.3557" lon="-1.89264">
        <ele>85</ele>
        <time>2016-01-02T15:38:20Z</time>
      </trkpt>
      <trkpt lat="47.3557" lon="-1.8927">
        <ele>85</ele>
        <time>2016-01-02T15:38:21Z</time>
      </trkpt>
      <trkpt lat="47.3557" lon="-1.89276">
        <ele>85</ele>
        <time>2016-01-02T15:38:22Z</time>
      </trkpt>
      <trkpt lat="47.35568" lon="-1.89281">
        <ele>85</ele>
        <time>2016-01-02T15:38:23Z</time>
      </trkpt>
      <trkpt lat="47.35565" lon="-1.89287">
        <ele>85</ele>
        <time>2016-01-02T15:38:24Z</time>
      </trkpt>
      <trkpt lat="47.35564" lon="-1.89293">
        <ele>85</ele>
        <time>2016-01-02T15:38:25Z</time>
      </trkpt>
      <trkpt lat="47.35563" lon="-1.89299">
        <ele>85</ele>
        <time>2016-01-02T15:38:26Z</time>
      </trkpt>
      <trkpt lat="47.35558" lon="-1.89303">
        <ele>85</ele>
        <time>2016-01-02T15:38:27Z</time>
      </trkpt>
      <trkpt lat="47.35554" lon="-1.89307">
        <ele>85</ele>
        <time>2016-01-02T15:38:28Z</time>
      </trkpt>
      <trkpt lat="47.3555" lon="-1.8931">
        <ele>85</ele>
        <time>2016-01-02T15:38:29Z</time>
      </trkpt>
      <trkpt lat="47.35544" lon="-1.89305">
        <ele>85</ele>
        <time>2016-01-02T15:38:30Z</time>
      </trkpt>
      <trkpt lat="47.35539" lon="-1.89304">
        <ele>86</ele>
        <time>2016-01-02T15:38:31Z</time>
      </trkpt>
      <trkpt lat="47.35534" lon="-1.89301">
        <ele>86</ele>
        <time>2016-01-02T15:38:32Z</time>
      </trkpt>
      <trkpt lat="47.3553" lon="-1.89297">
        <ele>86</ele>
        <time>2016-01-02T15:38:33Z</time>
      </trkpt>
      <trkpt lat="47.35527" lon="-1.89293">
        <ele>86</ele>
        <time>2016-01-02T15:38:34Z</time>
      </trkpt>
      <trkpt lat="47.35523" lon="-1.89288">
        <ele>86</ele>
        <time>2016-01-02T15:38:35Z</time>
      </trkpt>
      <trkpt lat="47.35519" lon="-1.89284">
        <ele>86</ele>
        <time>2016-01-02T15:38:36Z</time>
      </trkpt>
      <trkpt lat="47.35516" lon="-1.8928">
        <ele>86</ele>
        <time>2016-01-02T15:38:37Z</time>
      </trkpt>
      <trkpt lat="47.35513" lon="-1.89277">
        <ele>86</ele>
        <time>2016-01-02T15:38:38Z</time>
      </trkpt>
      <trkpt lat="47.35508" lon="-1.89274">
        <ele>86</ele>
        <time>2016-01-02T15:38:39Z</time>
      </trkpt>
      <trkpt lat="47.35504" lon="-1.89272">
        <ele>86</ele>
        <time>2016-01-02T15:38:40Z</time>
      </trkpt>
      <trkpt lat="47.355" lon="-1.89272">
        <ele>86</ele>
        <time>2016-01-02T15:38:41Z</time>
      </trkpt>
      <trkpt lat="47.35495" lon="-1.8927">
        <ele>86</ele>
        <time>2016-01-02T15:38:42Z</time>
      </trkpt>
      <trkpt lat="47.3549" lon="-1.89269">
        <ele>86</ele>
        <time>2016-01-02T15:38:43Z</time>
      </trkpt>
      <trkpt lat="47.35485" lon="-1.89266">
        <ele>86</ele>
        <time>2016-01-02T15:38:44Z</time>
      </trkpt>
      <trkpt lat="47.35479" lon="-1.89265">
        <ele>86</ele>
        <time>2016-01-02T15:38:45Z</time>
      </trkpt>
      <trkpt lat="47.35474" lon="-1.89265">
        <ele>87</ele>
        <time>2016-01-02T15:38:46Z</time>
      </trkpt>
      <trkpt lat="47.35468" lon="-1.89264">
        <ele>87</ele>
        <time>2016-01-02T15:38:47Z</time>
      </trkpt>
      <trkpt lat="47.35461" lon="-1.89272">
        <ele>87</ele>
        <time>2016-01-02T15:38:48Z</time>
      </trkpt>
      <trkpt lat="47.35456" lon="-1.89275">
        <ele>87</ele>
        <time>2016-01-02T15:38:49Z</time>
      </trkpt>
      <trkpt lat="47.3545" lon="-1.89278">
        <ele>87</ele>
        <time>2016-01-02T15:38:50Z</time>
      </trkpt>
      <trkpt lat="47.35446" lon="-1.89284">
        <ele>87</ele>
        <time>2016-01-02T15:38:51Z</time>
      </trkpt>
      <trkpt lat="47.35446" lon="-1.8929">
        <ele>87</ele>
        <time>2016-01-02T15:38:52Z</time>
      </trkpt>
      <trkpt lat="47.35445" lon="-1.89298">
        <ele>87</ele>
        <time>2016-01-02T15:38:53Z</time>
      </trkpt>
      <trkpt lat="47.35446" lon="-1.89302">
        <ele>87</ele>
        <time>2016-01-02T15:38:54Z</time>
      </trkpt>
      <trkpt lat="47.35447" lon="-1.89308">
        <ele>87</ele>
        <time>2016-01-02T15:38:55Z</time>
      </trkpt>
      <trkpt lat="47.35447" lon="-1.89319">
        <ele>87</ele>
        <time>2016-01-02T15:38:56Z</time>
      </trkpt>
      <trkpt lat="47.35448" lon="-1.89325">
        <ele>87</ele>
        <time>2016-01-02T15:38:57Z</time>
      </trkpt>
      <trkpt lat="47.35449" lon="-1.89332">
        <ele>87</ele>
        <time>2016-01-02T15:38:58Z</time>
      </trkpt>
      <trkpt lat="47.3545" lon="-1.89338">
        <ele>87</ele>
        <time>2016-01-02T15:38:59Z</time>
      </trkpt>
      <trkpt lat="47.35451" lon="-1.89345">
        <ele>87</ele>
        <time>2016-01-02T15:39:00Z</time>
      </trkpt>
      <trkpt lat="47.35453" lon="-1.89349">
        <ele>87</ele>
        <time>2016-01-02T15:39:01Z</time>
      </trkpt>
      <trkpt lat="47.35454" lon="-1.89355">
        <ele>87</ele>
        <time>2016-01-02T15:39:02Z</time>
      </trkpt>
      <trkpt lat="47.35455" lon="-1.8936">
        <ele>87</ele>
        <time>2016-01-02T15:39:03Z</time>
      </trkpt>
      <trkpt lat="47.35455" lon="-1.89365">
        <ele>87</ele>
        <time>2016-01-02T15:39:04Z</time>
      </trkpt>
      <trkpt lat="47.35456" lon="-1.89371">
        <ele>87</ele>
        <time>2016-01-02T15:39:05Z</time>
      </trkpt>
      <trkpt lat="47.35457" lon="-1.89376">
        <ele>87</ele>
        <time>2016-01-02T15:39:06Z</time>
      </trkpt>
      <trkpt lat="47.35458" lon="-1.89381">
        <ele>87</ele>
        <time>2016-01-02T15:39:07Z</time>
      </trkpt>
      <trkpt lat="47.35459" lon="-1.89388">
        <ele>87</ele>
        <time>2016-01-02T15:39:08Z</time>
      </trkpt>
      <trkpt lat="47.3546" lon="-1.89395">
        <ele>87</ele>
        <time>2016-01-02T15:39:09Z</time>
      </trkpt>
      <trkpt lat="47.35462" lon="-1.89401">
        <ele>87</ele>
        <time>2016-01-02T15:39:10Z</time>
      </trkpt>
      <trkpt lat="47.35463" lon="-1.89407">
        <ele>87</ele>
        <time>2016-01-02T15:39:11Z</time>
      </trkpt>
      <trkpt lat="47.35464" lon="-1.89413">
        <ele>87</ele>
        <time>2016-01-02T15:39:12Z</time>
      </trkpt>
      <trkpt lat="47.35464" lon="-1.89419">
        <ele>87</ele>
        <time>2016-01-02T15:39:13Z</time>
      </trkpt>
      <trkpt lat="47.35465" lon="-1.89425">
        <ele>87</ele>
        <time>2016-01-02T15:39:14Z</time>
      </trkpt>
      <trkpt lat="47.35465" lon="-1.89429">
        <ele>87</ele>
        <time>2016-01-02T15:39:15Z</time>
      </trkpt>
      <trkpt lat="47.35465" lon="-1.89435">
        <ele>87</ele>
        <time>2016-01-02T15:39:16Z</time>
      </trkpt>
      <trkpt lat="47.35466" lon="-1.89441">
        <ele>87</ele>
        <time>2016-01-02T15:39:17Z</time>
      </trkpt>
      <trkpt lat="47.35467" lon="-1.89447">
        <ele>87</ele>
        <time>2016-01-02T15:39:18Z</time>
      </trkpt>
      <trkpt lat="47.35467" lon="-1.89453">
        <ele>87</ele>
        <time>2016-01-02T15:39:19Z</time>
      </trkpt>
      <trkpt lat="47.35468" lon="-1.89464">
        <ele>87</ele>
        <time>2016-01-02T15:39:22Z</time>
      </trkpt>
      <trkpt lat="47.35468" lon="-1.89468">
        <ele>87</ele>
        <time>2016-01-02T15:39:23Z</time>
      </trkpt>
      <trkpt lat="47.35467" lon="-1.89477">
        <ele>87</ele>
        <time>2016-01-02T15:39:24Z</time>
      </trkpt>
      <trkpt lat="47.35468" lon="-1.89485">
        <ele>87</ele>
        <time>2016-01-02T15:39:25Z</time>
      </trkpt>
      <trkpt lat="47.35468" lon="-1.8949">
        <ele>87</ele>
        <time>2016-01-02T15:39:26Z</time>
      </trkpt>
      <trkpt lat="47.35468" lon="-1.89496">
        <ele>87</ele>
        <time>2016-01-02T15:39:27Z</time>
      </trkpt>
      <trkpt lat="47.35475" lon="-1.89505">
        <ele>87</ele>
        <time>2016-01-02T15:39:28Z</time>
      </trkpt>
      <trkpt lat="47.35476" lon="-1.8951">
        <ele>87</ele>
        <time>2016-01-02T15:39:29Z</time>
      </trkpt>
      <trkpt lat="47.35477" lon="-1.89517">
        <ele>87</ele>
        <time>2016-01-02T15:39:30Z</time>
      </trkpt>
      <trkpt lat="47.35478" lon="-1.89523">
        <ele>87</ele>
        <time>2016-01-02T15:39:31Z</time>
      </trkpt>
      <trkpt lat="47.35479" lon="-1.89529">
        <ele>87</ele>
        <time>2016-01-02T15:39:32Z</time>
      </trkpt>
      <trkpt lat="47.35481" lon="-1.89536">
        <ele>87</ele>
        <time>2016-01-02T15:39:33Z</time>
      </trkpt>
      <trkpt lat="47.35482" lon="-1.89541">
        <ele>87</ele>
        <time>2016-01-02T15:39:34Z</time>
      </trkpt>
      <trkpt lat="47.35483" lon="-1.89547">
        <ele>87</ele>
        <time>2016-01-02T15:39:35Z</time>
      </trkpt>
      <trkpt lat="47.35479" lon="-1.89554">
        <ele>86</ele>
        <time>2016-01-02T15:39:36Z</time>
      </trkpt>
      <trkpt lat="47.35477" lon="-1.89559">
        <ele>86</ele>
        <time>2016-01-02T15:39:37Z</time>
      </trkpt>
      <trkpt lat="47.35475" lon="-1.89564">
        <ele>86</ele>
        <time>2016-01-02T15:39:38Z</time>
      </trkpt>
      <trkpt lat="47.35473" lon="-1.89569">
        <ele>86</ele>
        <time>2016-01-02T15:39:39Z</time>
      </trkpt>
      <trkpt lat="47.35475" lon="-1.89574">
        <ele>86</ele>
        <time>2016-01-02T15:39:40Z</time>
      </trkpt>
      <trkpt lat="47.35474" lon="-1.89578">
        <ele>86</ele>
        <time>2016-01-02T15:39:41Z</time>
      </trkpt>
      <trkpt lat="47.35477" lon="-1.89589">
        <ele>86</ele>
        <time>2016-01-02T15:39:43Z</time>
      </trkpt>
      <trkpt lat="47.35477" lon="-1.89596">
        <ele>86</ele>
        <time>2016-01-02T15:39:44Z</time>
      </trkpt>
      <trkpt lat="47.35478" lon="-1.89601">
        <ele>86</ele>
        <time>2016-01-02T15:39:45Z</time>
      </trkpt>
      <trkpt lat="47.35479" lon="-1.89607">
        <ele>86</ele>
        <time>2016-01-02T15:39:46Z</time>
      </trkpt>
      <trkpt lat="47.35478" lon="-1.89616">
        <ele>86</ele>
        <time>2016-01-02T15:39:47Z</time>
      </trkpt>
      <trkpt lat="47.35479" lon="-1.89622">
        <ele>86</ele>
        <time>2016-01-02T15:39:48Z</time>
      </trkpt>
      <trkpt lat="47.3548" lon="-1.89627">
        <ele>86</ele>
        <time>2016-01-02T15:39:49Z</time>
      </trkpt>
      <trkpt lat="47.35484" lon="-1.89638">
        <ele>86</ele>
        <time>2016-01-02T15:39:50Z</time>
      </trkpt>
      <trkpt lat="47.35485" lon="-1.89644">
        <ele>86</ele>
        <time>2016-01-02T15:39:51Z</time>
      </trkpt>
      <trkpt lat="47.35487" lon="-1.8965">
        <ele>86</ele>
        <time>2016-01-02T15:39:52Z</time>
      </trkpt>
      <trkpt lat="47.35487" lon="-1.89657">
        <ele>86</ele>
        <time>2016-01-02T15:39:53Z</time>
      </trkpt>
      <trkpt lat="47.35489" lon="-1.89664">
        <ele>86</ele>
        <time>2016-01-02T15:39:54Z</time>
      </trkpt>
      <trkpt lat="47.3549" lon="-1.89671">
        <ele>86</ele>
        <time>2016-01-02T15:39:55Z</time>
      </trkpt>
      <trkpt lat="47.35492" lon="-1.89677">
        <ele>86</ele>
        <time>2016-01-02T15:39:56Z</time>
      </trkpt>
      <trkpt lat="47.35493" lon="-1.89685">
        <ele>86</ele>
        <time>2016-01-02T15:39:57Z</time>
      </trkpt>
      <trkpt lat="47.35495" lon="-1.89691">
        <ele>86</ele>
        <time>2016-01-02T15:39:58Z</time>
      </trkpt>
      <trkpt lat="47.35496" lon="-1.89697">
        <ele>86</ele>
        <time>2016-01-02T15:39:59Z</time>
      </trkpt>
      <trkpt lat="47.35498" lon="-1.89704">
        <ele>86</ele>
        <time>2016-01-02T15:40:00Z</time>
      </trkpt>
      <trkpt lat="47.355" lon="-1.89707">
        <ele>86</ele>
        <time>2016-01-02T15:40:01Z</time>
      </trkpt>
      <trkpt lat="47.35503" lon="-1.89716">
        <ele>86</ele>
        <time>2016-01-02T15:40:02Z</time>
      </trkpt>
      <trkpt lat="47.35506" lon="-1.89722">
        <ele>86</ele>
        <time>2016-01-02T15:40:03Z</time>
      </trkpt>
      <trkpt lat="47.35508" lon="-1.89729">
        <ele>86</ele>
        <time>2016-01-02T15:40:04Z</time>
      </trkpt>
      <trkpt lat="47.35508" lon="-1.89742">
        <ele>86</ele>
        <time>2016-01-02T15:40:05Z</time>
      </trkpt>
      <trkpt lat="47.35509" lon="-1.89748">
        <ele>86</ele>
        <time>2016-01-02T15:40:06Z</time>
      </trkpt>
      <trkpt lat="47.35511" lon="-1.89754">
        <ele>86</ele>
        <time>2016-01-02T15:40:07Z</time>
      </trkpt>
      <trkpt lat="47.35514" lon="-1.8976">
        <ele>86</ele>
        <time>2016-01-02T15:40:08Z</time>
      </trkpt>
      <trkpt lat="47.35516" lon="-1.89766">
        <ele>86</ele>
        <time>2016-01-02T15:40:10Z</time>
      </trkpt>
      <trkpt lat="47.35519" lon="-1.89774">
        <ele>86</ele>
        <time>2016-01-02T15:40:12Z</time>
      </trkpt>
      <trkpt lat="47.35521" lon="-1.8978">
        <ele>86</ele>
        <time>2016-01-02T15:40:13Z</time>
      </trkpt>
      <trkpt lat="47.35522" lon="-1.89783">
        <ele>86</ele>
        <time>2016-01-02T15:40:14Z</time>
      </trkpt>
      <trkpt lat="47.35523" lon="-1.89791">
        <ele>86</ele>
        <time>2016-01-02T15:40:17Z</time>
      </trkpt>
      <trkpt lat="47.35525" lon="-1.89795">
        <ele>86</ele>
        <time>2016-01-02T15:40:18Z</time>
      </trkpt>
      <trkpt lat="47.35526" lon="-1.89802">
        <ele>86</ele>
        <time>2016-01-02T15:40:20Z</time>
      </trkpt>
      <trkpt lat="47.35527" lon="-1.8981">
        <ele>86</ele>
        <time>2016-01-02T15:40:21Z</time>
      </trkpt>
      <trkpt lat="47.35528" lon="-1.89814">
        <ele>86</ele>
        <time>2016-01-02T15:40:22Z</time>
      </trkpt>
      <trkpt lat="47.3553" lon="-1.89823">
        <ele>86</ele>
        <time>2016-01-02T15:40:23Z</time>
      </trkpt>
      <trkpt lat="47.35532" lon="-1.89829">
        <ele>86</ele>
        <time>2016-01-02T15:40:24Z</time>
      </trkpt>
      <trkpt lat="47.35534" lon="-1.89834">
        <ele>85</ele>
        <time>2016-01-02T15:40:25Z</time>
      </trkpt>
      <trkpt lat="47.35537" lon="-1.89844">
        <ele>85</ele>
        <time>2016-01-02T15:40:26Z</time>
      </trkpt>
      <trkpt lat="47.35539" lon="-1.8985">
        <ele>85</ele>
        <time>2016-01-02T15:40:27Z</time>
      </trkpt>
      <trkpt lat="47.3554" lon="-1.89855">
        <ele>85</ele>
        <time>2016-01-02T15:40:28Z</time>
      </trkpt>
      <trkpt lat="47.35542" lon="-1.89864">
        <ele>85</ele>
        <time>2016-01-02T15:40:29Z</time>
      </trkpt>
      <trkpt lat="47.35543" lon="-1.89873">
        <ele>85</ele>
        <time>2016-01-02T15:40:30Z</time>
      </trkpt>
      <trkpt lat="47.35545" lon="-1.89881">
        <ele>85</ele>
        <time>2016-01-02T15:40:31Z</time>
      </trkpt>
      <trkpt lat="47.35545" lon="-1.89892">
        <ele>85</ele>
        <time>2016-01-02T15:40:32Z</time>
      </trkpt>
      <trkpt lat="47.35547" lon="-1.89899">
        <ele>85</ele>
        <time>2016-01-02T15:40:33Z</time>
      </trkpt>
      <trkpt lat="47.35549" lon="-1.89907">
        <ele>85</ele>
        <time>2016-01-02T15:40:34Z</time>
      </trkpt>
      <trkpt lat="47.3555" lon="-1.89912">
        <ele>85</ele>
        <time>2016-01-02T15:40:35Z</time>
      </trkpt>
      <trkpt lat="47.3555" lon="-1.89923">
        <ele>85</ele>
        <time>2016-01-02T15:40:36Z</time>
      </trkpt>
      <trkpt lat="47.35549" lon="-1.89933">
        <ele>85</ele>
        <time>2016-01-02T15:40:37Z</time>
      </trkpt>
      <trkpt lat="47.35549" lon="-1.89942">
        <ele>85</ele>
        <time>2016-01-02T15:40:38Z</time>
      </trkpt>
      <trkpt lat="47.3555" lon="-1.89951">
        <ele>85</ele>
        <time>2016-01-02T15:40:39Z</time>
      </trkpt>
      <trkpt lat="47.35553" lon="-1.8996">
        <ele>85</ele>
        <time>2016-01-02T15:40:40Z</time>
      </trkpt>
      <trkpt lat="47.35554" lon="-1.89967">
        <ele>85</ele>
        <time>2016-01-02T15:40:41Z</time>
      </trkpt>
      <trkpt lat="47.35555" lon="-1.89972">
        <ele>85</ele>
        <time>2016-01-02T15:40:42Z</time>
      </trkpt>
      <trkpt lat="47.35555" lon="-1.89977">
        <ele>85</ele>
        <time>2016-01-02T15:40:43Z</time>
      </trkpt>
      <trkpt lat="47.35555" lon="-1.89988">
        <ele>85</ele>
        <time>2016-01-02T15:40:44Z</time>
      </trkpt>
      <trkpt lat="47.35556" lon="-1.89997">
        <ele>85</ele>
        <time>2016-01-02T15:40:45Z</time>
      </trkpt>
      <trkpt lat="47.35556" lon="-1.90004">
        <ele>84</ele>
        <time>2016-01-02T15:40:46Z</time>
      </trkpt>
      <trkpt lat="47.35557" lon="-1.90012">
        <ele>84</ele>
        <time>2016-01-02T15:40:47Z</time>
      </trkpt>
      <trkpt lat="47.35558" lon="-1.9002">
        <ele>84</ele>
        <time>2016-01-02T15:40:48Z</time>
      </trkpt>
      <trkpt lat="47.35558" lon="-1.9003">
        <ele>84</ele>
        <time>2016-01-02T15:40:49Z</time>
      </trkpt>
      <trkpt lat="47.35558" lon="-1.90038">
        <ele>84</ele>
        <time>2016-01-02T15:40:50Z</time>
      </trkpt>
      <trkpt lat="47.35558" lon="-1.90046">
        <ele>84</ele>
        <time>2016-01-02T15:40:51Z</time>
      </trkpt>
      <trkpt lat="47.35558" lon="-1.90056">
        <ele>84</ele>
        <time>2016-01-02T15:40:52Z</time>
      </trkpt>
      <trkpt lat="47.35558" lon="-1.90064">
        <ele>84</ele>
        <time>2016-01-02T15:40:53Z</time>
      </trkpt>
      <trkpt lat="47.35558" lon="-1.90073">
        <ele>84</ele>
        <time>2016-01-02T15:40:54Z</time>
      </trkpt>
      <trkpt lat="47.3556" lon="-1.90082">
        <ele>84</ele>
        <time>2016-01-02T15:40:55Z</time>
      </trkpt>
      <trkpt lat="47.35561" lon="-1.90088">
        <ele>83</ele>
        <time>2016-01-02T15:40:56Z</time>
      </trkpt>
      <trkpt lat="47.35561" lon="-1.90096">
        <ele>83</ele>
        <time>2016-01-02T15:40:57Z</time>
      </trkpt>
      <trkpt lat="47.35561" lon="-1.90104">
        <ele>83</ele>
        <time>2016-01-02T15:40:58Z</time>
      </trkpt>
      <trkpt lat="47.35561" lon="-1.90112">
        <ele>83</ele>
        <time>2016-01-02T15:40:59Z</time>
      </trkpt>
      <trkpt lat="47.35561" lon="-1.9012">
        <ele>83</ele>
        <time>2016-01-02T15:41:00Z</time>
      </trkpt>
      <trkpt lat="47.35561" lon="-1.90127">
        <ele>83</ele>
        <time>2016-01-02T15:41:01Z</time>
      </trkpt>
      <trkpt lat="47.35562" lon="-1.90134">
        <ele>83</ele>
        <time>2016-01-02T15:41:02Z</time>
      </trkpt>
      <trkpt lat="47.35562" lon="-1.90142">
        <ele>83</ele>
        <time>2016-01-02T15:41:03Z</time>
      </trkpt>
      <trkpt lat="47.35564" lon="-1.90149">
        <ele>83</ele>
        <time>2016-01-02T15:41:04Z</time>
      </trkpt>
      <trkpt lat="47.35565" lon="-1.90158">
        <ele>83</ele>
        <time>2016-01-02T15:41:06Z</time>
      </trkpt>
      <trkpt lat="47.35565" lon="-1.90164">
        <ele>84</ele>
        <time>2016-01-02T15:41:07Z</time>
      </trkpt>
      <trkpt lat="47.35565" lon="-1.90171">
        <ele>83</ele>
        <time>2016-01-02T15:41:08Z</time>
      </trkpt>
      <trkpt lat="47.35569" lon="-1.90177">
        <ele>83</ele>
        <time>2016-01-02T15:41:09Z</time>
      </trkpt>
      <trkpt lat="47.3557" lon="-1.90183">
        <ele>83</ele>
        <time>2016-01-02T15:41:10Z</time>
      </trkpt>
      <trkpt lat="47.35571" lon="-1.90189">
        <ele>83</ele>
        <time>2016-01-02T15:41:11Z</time>
      </trkpt>
      <trkpt lat="47.35572" lon="-1.90194">
        <ele>83</ele>
        <time>2016-01-02T15:41:12Z</time>
      </trkpt>
      <trkpt lat="47.35573" lon="-1.902">
        <ele>83</ele>
        <time>2016-01-02T15:41:13Z</time>
      </trkpt>
      <trkpt lat="47.35575" lon="-1.90208">
        <ele>83</ele>
        <time>2016-01-02T15:41:14Z</time>
      </trkpt>
      <trkpt lat="47.35576" lon="-1.90214">
        <ele>83</ele>
        <time>2016-01-02T15:41:15Z</time>
      </trkpt>
      <trkpt lat="47.35575" lon="-1.90219">
        <ele>83</ele>
        <time>2016-01-02T15:41:16Z</time>
      </trkpt>
      <trkpt lat="47.35576" lon="-1.90229">
        <ele>83</ele>
        <time>2016-01-02T15:41:17Z</time>
      </trkpt>
      <trkpt lat="47.35575" lon="-1.90245">
        <ele>83</ele>
        <time>2016-01-02T15:41:19Z</time>
      </trkpt>
      <trkpt lat="47.35574" lon="-1.90253">
        <ele>83</ele>
        <time>2016-01-02T15:41:20Z</time>
      </trkpt>
      <trkpt lat="47.35573" lon="-1.90259">
        <ele>82</ele>
        <time>2016-01-02T15:41:21Z</time>
      </trkpt>
      <trkpt lat="47.35573" lon="-1.90266">
        <ele>82</ele>
        <time>2016-01-02T15:41:22Z</time>
      </trkpt>
      <trkpt lat="47.35575" lon="-1.90278">
        <ele>81</ele>
        <time>2016-01-02T15:41:23Z</time>
      </trkpt>
      <trkpt lat="47.35576" lon="-1.90286">
        <ele>81</ele>
        <time>2016-01-02T15:41:24Z</time>
      </trkpt>
      <trkpt lat="47.35577" lon="-1.90293">
        <ele>81</ele>
        <time>2016-01-02T15:41:25Z</time>
      </trkpt>
      <trkpt lat="47.35577" lon="-1.903">
        <ele>81</ele>
        <time>2016-01-02T15:41:26Z</time>
      </trkpt>
      <trkpt lat="47.35579" lon="-1.90306">
        <ele>81</ele>
        <time>2016-01-02T15:41:27Z</time>
      </trkpt>
      <trkpt lat="47.35579" lon="-1.9031">
        <ele>81</ele>
        <time>2016-01-02T15:41:28Z</time>
      </trkpt>
      <trkpt lat="47.35579" lon="-1.90315">
        <ele>80</ele>
        <time>2016-01-02T15:41:29Z</time>
      </trkpt>
      <trkpt lat="47.3558" lon="-1.9032">
        <ele>80</ele>
        <time>2016-01-02T15:41:30Z</time>
      </trkpt>
      <trkpt lat="47.35585" lon="-1.90329">
        <ele>80</ele>
        <time>2016-01-02T15:41:31Z</time>
      </trkpt>
      <trkpt lat="47.35586" lon="-1.90336">
        <ele>80</ele>
        <time>2016-01-02T15:41:32Z</time>
      </trkpt>
      <trkpt lat="47.35585" lon="-1.90344">
        <ele>80</ele>
        <time>2016-01-02T15:41:33Z</time>
      </trkpt>
      <trkpt lat="47.35587" lon="-1.90353">
        <ele>80</ele>
        <time>2016-01-02T15:41:34Z</time>
      </trkpt>
      <trkpt lat="47.35588" lon="-1.9036">
        <ele>80</ele>
        <time>2016-01-02T15:41:35Z</time>
      </trkpt>
      <trkpt lat="47.35591" lon="-1.90368">
        <ele>80</ele>
        <time>2016-01-02T15:41:36Z</time>
      </trkpt>
      <trkpt lat="47.35592" lon="-1.90375">
        <ele>80</ele>
        <time>2016-01-02T15:41:37Z</time>
      </trkpt>
      <trkpt lat="47.35594" lon="-1.90382">
        <ele>80</ele>
        <time>2016-01-02T15:41:38Z</time>
      </trkpt>
      <trkpt lat="47.35596" lon="-1.90389">
        <ele>80</ele>
        <time>2016-01-02T15:41:39Z</time>
      </trkpt>
      <trkpt lat="47.35598" lon="-1.90396">
        <ele>80</ele>
        <time>2016-01-02T15:41:40Z</time>
      </trkpt>
      <trkpt lat="47.356" lon="-1.90404">
        <ele>80</ele>
        <time>2016-01-02T15:41:41Z</time>
      </trkpt>
      <trkpt lat="47.35602" lon="-1.90411">
        <ele>80</ele>
        <time>2016-01-02T15:41:42Z</time>
      </trkpt>
      <trkpt lat="47.35604" lon="-1.90419">
        <ele>80</ele>
        <time>2016-01-02T15:41:43Z</time>
      </trkpt>
      <trkpt lat="47.35608" lon="-1.90421">
        <ele>80</ele>
        <time>2016-01-02T15:41:44Z</time>
      </trkpt>
      <trkpt lat="47.35611" lon="-1.90426">
        <ele>80</ele>
        <time>2016-01-02T15:41:45Z</time>
      </trkpt>
      <trkpt lat="47.35614" lon="-1.90431">
        <ele>80</ele>
        <time>2016-01-02T15:41:46Z</time>
      </trkpt>
      <trkpt lat="47.35612" lon="-1.90439">
        <ele>80</ele>
        <time>2016-01-02T15:41:47Z</time>
      </trkpt>
      <trkpt lat="47.35614" lon="-1.90444">
        <ele>80</ele>
        <time>2016-01-02T15:41:48Z</time>
      </trkpt>
      <trkpt lat="47.35617" lon="-1.90449">
        <ele>80</ele>
        <time>2016-01-02T15:41:49Z</time>
      </trkpt>
      <trkpt lat="47.35619" lon="-1.90454">
        <ele>80</ele>
        <time>2016-01-02T15:41:50Z</time>
      </trkpt>
      <trkpt lat="47.3562" lon="-1.90461">
        <ele>80</ele>
        <time>2016-01-02T15:41:51Z</time>
      </trkpt>
      <trkpt lat="47.35622" lon="-1.90465">
        <ele>80</ele>
        <time>2016-01-02T15:41:52Z</time>
      </trkpt>
      <trkpt lat="47.35623" lon="-1.9047">
        <ele>80</ele>
        <time>2016-01-02T15:41:53Z</time>
      </trkpt>
      <trkpt lat="47.35628" lon="-1.90474">
        <ele>80</ele>
        <time>2016-01-02T15:41:54Z</time>
      </trkpt>
      <trkpt lat="47.35631" lon="-1.90482">
        <ele>80</ele>
        <time>2016-01-02T15:41:55Z</time>
      </trkpt>
      <trkpt lat="47.35636" lon="-1.90492">
        <ele>80</ele>
        <time>2016-01-02T15:41:56Z</time>
      </trkpt>
      <trkpt lat="47.35637" lon="-1.905">
        <ele>80</ele>
        <time>2016-01-02T15:41:57Z</time>
      </trkpt>
      <trkpt lat="47.35639" lon="-1.90505">
        <ele>79</ele>
        <time>2016-01-02T15:41:58Z</time>
      </trkpt>
      <trkpt lat="47.35641" lon="-1.9051">
        <ele>79</ele>
        <time>2016-01-02T15:41:59Z</time>
      </trkpt>
      <trkpt lat="47.35642" lon="-1.90519">
        <ele>79</ele>
        <time>2016-01-02T15:42:00Z</time>
      </trkpt>
      <trkpt lat="47.35644" lon="-1.90525">
        <ele>79</ele>
        <time>2016-01-02T15:42:01Z</time>
      </trkpt>
      <trkpt lat="47.35646" lon="-1.90531">
        <ele>79</ele>
        <time>2016-01-02T15:42:02Z</time>
      </trkpt>
      <trkpt lat="47.35651" lon="-1.90539">
        <ele>79</ele>
        <time>2016-01-02T15:42:03Z</time>
      </trkpt>
      <trkpt lat="47.3565" lon="-1.90546">
        <ele>79</ele>
        <time>2016-01-02T15:42:04Z</time>
      </trkpt>
      <trkpt lat="47.35651" lon="-1.90551">
        <ele>79</ele>
        <time>2016-01-02T15:42:05Z</time>
      </trkpt>
      <trkpt lat="47.35652" lon="-1.90555">
        <ele>79</ele>
        <time>2016-01-02T15:42:06Z</time>
      </trkpt>
      <trkpt lat="47.35654" lon="-1.90568">
        <ele>79</ele>
        <time>2016-01-02T15:42:07Z</time>
      </trkpt>
      <trkpt lat="47.35655" lon="-1.90575">
        <ele>79</ele>
        <time>2016-01-02T15:42:08Z</time>
      </trkpt>
      <trkpt lat="47.35656" lon="-1.90582">
        <ele>79</ele>
        <time>2016-01-02T15:42:09Z</time>
      </trkpt>
      <trkpt lat="47.35663" lon="-1.90592">
        <ele>78</ele>
        <time>2016-01-02T15:42:10Z</time>
      </trkpt>
      <trkpt lat="47.35668" lon="-1.90596">
        <ele>79</ele>
        <time>2016-01-02T15:42:11Z</time>
      </trkpt>
      <trkpt lat="47.35671" lon="-1.90599">
        <ele>79</ele>
        <time>2016-01-02T15:42:12Z</time>
      </trkpt>
      <trkpt lat="47.35676" lon="-1.90601">
        <ele>79</ele>
        <time>2016-01-02T15:42:13Z</time>
      </trkpt>
      <trkpt lat="47.35679" lon="-1.906">
        <ele>79</ele>
        <time>2016-01-02T15:42:14Z</time>
      </trkpt>
      <trkpt lat="47.35684" lon="-1.90599">
        <ele>79</ele>
        <time>2016-01-02T15:42:15Z</time>
      </trkpt>
      <trkpt lat="47.35687" lon="-1.90598">
        <ele>79</ele>
        <time>2016-01-02T15:42:16Z</time>
      </trkpt>
      <trkpt lat="47.3569" lon="-1.90598">
        <ele>79</ele>
        <time>2016-01-02T15:42:17Z</time>
      </trkpt>
      <trkpt lat="47.35694" lon="-1.90597">
        <ele>79</ele>
        <time>2016-01-02T15:42:18Z</time>
      </trkpt>
      <trkpt lat="47.35697" lon="-1.90593">
        <ele>79</ele>
        <time>2016-01-02T15:42:20Z</time>
      </trkpt>
      <trkpt lat="47.357" lon="-1.9059">
        <ele>79</ele>
        <time>2016-01-02T15:42:21Z</time>
      </trkpt>
      <trkpt lat="47.35702" lon="-1.90588">
        <ele>79</ele>
        <time>2016-01-02T15:42:22Z</time>
      </trkpt>
      <trkpt lat="47.35705" lon="-1.9059">
        <ele>79</ele>
        <time>2016-01-02T15:42:23Z</time>
      </trkpt>
      <trkpt lat="47.3571" lon="-1.90593">
        <ele>79</ele>
        <time>2016-01-02T15:42:25Z</time>
      </trkpt>
      <trkpt lat="47.35713" lon="-1.90595">
        <ele>79</ele>
        <time>2016-01-02T15:42:26Z</time>
      </trkpt>
      <trkpt lat="47.35715" lon="-1.90596">
        <ele>79</ele>
        <time>2016-01-02T15:42:27Z</time>
      </trkpt>
      <trkpt lat="47.35718" lon="-1.90593">
        <ele>79</ele>
        <time>2016-01-02T15:42:28Z</time>
      </trkpt>
      <trkpt lat="47.35723" lon="-1.90593">
        <ele>79</ele>
        <time>2016-01-02T15:42:30Z</time>
      </trkpt>
      <trkpt lat="47.35727" lon="-1.90598">
        <ele>79</ele>
        <time>2016-01-02T15:42:31Z</time>
      </trkpt>
      <trkpt lat="47.35729" lon="-1.9061">
        <ele>79</ele>
        <time>2016-01-02T15:42:32Z</time>
      </trkpt>
      <trkpt lat="47.35732" lon="-1.90613">
        <ele>79</ele>
        <time>2016-01-02T15:42:33Z</time>
      </trkpt>
      <trkpt lat="47.35735" lon="-1.90616">
        <ele>79</ele>
        <time>2016-01-02T15:42:34Z</time>
      </trkpt>
      <trkpt lat="47.3574" lon="-1.9062">
        <ele>78</ele>
        <time>2016-01-02T15:42:35Z</time>
      </trkpt>
      <trkpt lat="47.35743" lon="-1.90625">
        <ele>78</ele>
        <time>2016-01-02T15:42:36Z</time>
      </trkpt>
      <trkpt lat="47.35748" lon="-1.90629">
        <ele>78</ele>
        <time>2016-01-02T15:42:37Z</time>
      </trkpt>
      <trkpt lat="47.35752" lon="-1.90635">
        <ele>78</ele>
        <time>2016-01-02T15:42:38Z</time>
      </trkpt>
      <trkpt lat="47.35755" lon="-1.90639">
        <ele>78</ele>
        <time>2016-01-02T15:42:39Z</time>
      </trkpt>
      <trkpt lat="47.35758" lon="-1.90643">
        <ele>78</ele>
        <time>2016-01-02T15:42:40Z</time>
      </trkpt>
      <trkpt lat="47.35762" lon="-1.90644">
        <ele>78</ele>
        <time>2016-01-02T15:42:41Z</time>
      </trkpt>
      <trkpt lat="47.35765" lon="-1.90647">
        <ele>78</ele>
        <time>2016-01-02T15:42:42Z</time>
      </trkpt>
      <trkpt lat="47.35769" lon="-1.90649">
        <ele>78</ele>
        <time>2016-01-02T15:42:43Z</time>
      </trkpt>
      <trkpt lat="47.35772" lon="-1.9065">
        <ele>78</ele>
        <time>2016-01-02T15:42:44Z</time>
      </trkpt>
      <trkpt lat="47.35779" lon="-1.90649">
        <ele>78</ele>
        <time>2016-01-02T15:42:45Z</time>
      </trkpt>
      <trkpt lat="47.35784" lon="-1.90645">
        <ele>78</ele>
        <time>2016-01-02T15:42:46Z</time>
      </trkpt>
      <trkpt lat="47.35789" lon="-1.90643">
        <ele>78</ele>
        <time>2016-01-02T15:42:47Z</time>
      </trkpt>
      <trkpt lat="47.35793" lon="-1.90639">
        <ele>78</ele>
        <time>2016-01-02T15:42:48Z</time>
      </trkpt>
      <trkpt lat="47.35798" lon="-1.90636">
        <ele>78</ele>
        <time>2016-01-02T15:42:49Z</time>
      </trkpt>
      <trkpt lat="47.35802" lon="-1.90632">
        <ele>78</ele>
        <time>2016-01-02T15:42:50Z</time>
      </trkpt>
      <trkpt lat="47.35808" lon="-1.90628">
        <ele>78</ele>
        <time>2016-01-02T15:42:51Z</time>
      </trkpt>
      <trkpt lat="47.35813" lon="-1.90623">
        <ele>79</ele>
        <time>2016-01-02T15:42:52Z</time>
      </trkpt>
      <trkpt lat="47.35816" lon="-1.90619">
        <ele>79</ele>
        <time>2016-01-02T15:42:53Z</time>
      </trkpt>
      <trkpt lat="47.3582" lon="-1.90615">
        <ele>79</ele>
        <time>2016-01-02T15:42:54Z</time>
      </trkpt>
      <trkpt lat="47.35837" lon="-1.90594">
        <ele>79</ele>
        <time>2016-01-02T15:42:57Z</time>
      </trkpt>
      <trkpt lat="47.35841" lon="-1.90589">
        <ele>79</ele>
        <time>2016-01-02T15:42:58Z</time>
      </trkpt>
      <trkpt lat="47.35846" lon="-1.90584">
        <ele>79</ele>
        <time>2016-01-02T15:42:59Z</time>
      </trkpt>
      <trkpt lat="47.35852" lon="-1.90576">
        <ele>78</ele>
        <time>2016-01-02T15:43:00Z</time>
      </trkpt>
      <trkpt lat="47.35856" lon="-1.9057">
        <ele>78</ele>
        <time>2016-01-02T15:43:01Z</time>
      </trkpt>
      <trkpt lat="47.3586" lon="-1.90564">
        <ele>77</ele>
        <time>2016-01-02T15:43:02Z</time>
      </trkpt>
      <trkpt lat="47.35865" lon="-1.9056">
        <ele>77</ele>
        <time>2016-01-02T15:43:03Z</time>
      </trkpt>
      <trkpt lat="47.35869" lon="-1.90552">
        <ele>77</ele>
        <time>2016-01-02T15:43:04Z</time>
      </trkpt>
      <trkpt lat="47.35872" lon="-1.90546">
        <ele>77</ele>
        <time>2016-01-02T15:43:05Z</time>
      </trkpt>
      <trkpt lat="47.35876" lon="-1.90536">
        <ele>77</ele>
        <time>2016-01-02T15:43:06Z</time>
      </trkpt>
      <trkpt lat="47.3588" lon="-1.90528">
        <ele>76</ele>
        <time>2016-01-02T15:43:07Z</time>
      </trkpt>
      <trkpt lat="47.35884" lon="-1.90522">
        <ele>76</ele>
        <time>2016-01-02T15:43:08Z</time>
      </trkpt>
      <trkpt lat="47.3589" lon="-1.90516">
        <ele>76</ele>
        <time>2016-01-02T15:43:09Z</time>
      </trkpt>
      <trkpt lat="47.35892" lon="-1.90507">
        <ele>76</ele>
        <time>2016-01-02T15:43:10Z</time>
      </trkpt>
      <trkpt lat="47.35896" lon="-1.905">
        <ele>75</ele>
        <time>2016-01-02T15:43:11Z</time>
      </trkpt>
      <trkpt lat="47.359" lon="-1.90492">
        <ele>75</ele>
        <time>2016-01-02T15:43:12Z</time>
      </trkpt>
      <trkpt lat="47.35904" lon="-1.90485">
        <ele>75</ele>
        <time>2016-01-02T15:43:13Z</time>
      </trkpt>
      <trkpt lat="47.35908" lon="-1.90475">
        <ele>75</ele>
        <time>2016-01-02T15:43:14Z</time>
      </trkpt>
      <trkpt lat="47.35913" lon="-1.90468">
        <ele>75</ele>
        <time>2016-01-02T15:43:15Z</time>
      </trkpt>
      <trkpt lat="47.35916" lon="-1.90459">
        <ele>75</ele>
        <time>2016-01-02T15:43:16Z</time>
      </trkpt>
      <trkpt lat="47.3592" lon="-1.9045">
        <ele>72</ele>
        <time>2016-01-02T15:43:17Z</time>
      </trkpt>
      <trkpt lat="47.35924" lon="-1.90441">
        <ele>73</ele>
        <time>2016-01-02T15:43:18Z</time>
      </trkpt>
      <trkpt lat="47.35928" lon="-1.90432">
        <ele>73</ele>
        <time>2016-01-02T15:43:19Z</time>
      </trkpt>
      <trkpt lat="47.35933" lon="-1.90425">
        <ele>73</ele>
        <time>2016-01-02T15:43:20Z</time>
      </trkpt>
      <trkpt lat="47.35938" lon="-1.90415">
        <ele>73</ele>
        <time>2016-01-02T15:43:21Z</time>
      </trkpt>
      <trkpt lat="47.35943" lon="-1.90405">
        <ele>72</ele>
        <time>2016-01-02T15:43:22Z</time>
      </trkpt>
      <trkpt lat="47.35947" lon="-1.9039">
        <ele>72</ele>
        <time>2016-01-02T15:43:23Z</time>
      </trkpt>
      <trkpt lat="47.3595" lon="-1.9038">
        <ele>72</ele>
        <time>2016-01-02T15:43:24Z</time>
      </trkpt>
      <trkpt lat="47.35954" lon="-1.90372">
        <ele>72</ele>
        <time>2016-01-02T15:43:25Z</time>
      </trkpt>
      <trkpt lat="47.35957" lon="-1.90363">
        <ele>72</ele>
        <time>2016-01-02T15:43:26Z</time>
      </trkpt>
      <trkpt lat="47.35964" lon="-1.9035">
        <ele>72</ele>
        <time>2016-01-02T15:43:27Z</time>
      </trkpt>
      <trkpt lat="47.35968" lon="-1.90341">
        <ele>72</ele>
        <time>2016-01-02T15:43:28Z</time>
      </trkpt>
      <trkpt lat="47.35972" lon="-1.90333">
        <ele>73</ele>
        <time>2016-01-02T15:43:29Z</time>
      </trkpt>
      <trkpt lat="47.35975" lon="-1.90322">
        <ele>73</ele>
        <time>2016-01-02T15:43:30Z</time>
      </trkpt>
      <trkpt lat="47.35982" lon="-1.90312">
        <ele>73</ele>
        <time>2016-01-02T15:43:31Z</time>
      </trkpt>
      <trkpt lat="47.35986" lon="-1.903">
        <ele>73</ele>
        <time>2016-01-02T15:43:32Z</time>
      </trkpt>
      <trkpt lat="47.35992" lon="-1.9029">
        <ele>73</ele>
        <time>2016-01-02T15:43:33Z</time>
      </trkpt>
      <trkpt lat="47.35998" lon="-1.9028">
        <ele>73</ele>
        <time>2016-01-02T15:43:34Z</time>
      </trkpt>
      <trkpt lat="47.36004" lon="-1.90275">
        <ele>74</ele>
        <time>2016-01-02T15:43:35Z</time>
      </trkpt>
      <trkpt lat="47.36008" lon="-1.90268">
        <ele>74</ele>
        <time>2016-01-02T15:43:36Z</time>
      </trkpt>
      <trkpt lat="47.36014" lon="-1.9026">
        <ele>74</ele>
        <time>2016-01-02T15:43:37Z</time>
      </trkpt>
      <trkpt lat="47.3602" lon="-1.90253">
        <ele>75</ele>
        <time>2016-01-02T15:43:38Z</time>
      </trkpt>
      <trkpt lat="47.36025" lon="-1.90248">
        <ele>76</ele>
        <time>2016-01-02T15:43:39Z</time>
      </trkpt>
      <trkpt lat="47.3603" lon="-1.90243">
        <ele>76</ele>
        <time>2016-01-02T15:43:40Z</time>
      </trkpt>
      <trkpt lat="47.36034" lon="-1.90241">
        <ele>77</ele>
        <time>2016-01-02T15:43:41Z</time>
      </trkpt>
      <trkpt lat="47.36037" lon="-1.90236">
        <ele>77</ele>
        <time>2016-01-02T15:43:42Z</time>
      </trkpt>
      <trkpt lat="47.36041" lon="-1.90231">
        <ele>77</ele>
        <time>2016-01-02T15:43:43Z</time>
      </trkpt>
      <trkpt lat="47.36045" lon="-1.90226">
        <ele>77</ele>
        <time>2016-01-02T15:43:44Z</time>
      </trkpt>
      <trkpt lat="47.36047" lon="-1.9022">
        <ele>77</ele>
        <time>2016-01-02T15:43:45Z</time>
      </trkpt>
      <trkpt lat="47.36051" lon="-1.90215">
        <ele>77</ele>
        <time>2016-01-02T15:43:46Z</time>
      </trkpt>
      <trkpt lat="47.36054" lon="-1.9021">
        <ele>78</ele>
        <time>2016-01-02T15:43:47Z</time>
      </trkpt>
      <trkpt lat="47.36059" lon="-1.90205">
        <ele>78</ele>
        <time>2016-01-02T15:43:49Z</time>
      </trkpt>
      <trkpt lat="47.36061" lon="-1.902">
        <ele>78</ele>
        <time>2016-01-02T15:43:50Z</time>
      </trkpt>
      <trkpt lat="47.36064" lon="-1.90195">
        <ele>78</ele>
        <time>2016-01-02T15:43:51Z</time>
      </trkpt>
      <trkpt lat="47.36067" lon="-1.9019">
        <ele>78</ele>
        <time>2016-01-02T15:43:52Z</time>
      </trkpt>
      <trkpt lat="47.3607" lon="-1.90185">
        <ele>78</ele>
        <time>2016-01-02T15:43:53Z</time>
      </trkpt>
      <trkpt lat="47.36072" lon="-1.90182">
        <ele>79</ele>
        <time>2016-01-02T15:43:54Z</time>
      </trkpt>
      <trkpt lat="47.36074" lon="-1.90178">
        <ele>79</ele>
        <time>2016-01-02T15:43:55Z</time>
      </trkpt>
      <trkpt lat="47.36077" lon="-1.90175">
        <ele>79</ele>
        <time>2016-01-02T15:43:56Z</time>
      </trkpt>
      <trkpt lat="47.36078" lon="-1.90172">
        <ele>79</ele>
        <time>2016-01-02T15:43:57Z</time>
      </trkpt>
      <trkpt lat="47.36082" lon="-1.90168">
        <ele>80</ele>
        <time>2016-01-02T15:43:59Z</time>
      </trkpt>
      <trkpt lat="47.36086" lon="-1.90166">
        <ele>80</ele>
        <time>2016-01-02T15:44:01Z</time>
      </trkpt>
      <trkpt lat="47.3609" lon="-1.90166">
        <ele>80</ele>
        <time>2016-01-02T15:44:03Z</time>
      </trkpt>
      <trkpt lat="47.36093" lon="-1.90165">
        <ele>79</ele>
        <time>2016-01-02T15:44:06Z</time>
      </trkpt>
      <trkpt lat="47.36091" lon="-1.90168">
        <ele>79</ele>
        <time>2016-01-02T15:44:07Z</time>
      </trkpt>
      <trkpt lat="47.36092" lon="-1.90176">
        <ele>79</ele>
        <time>2016-01-02T15:44:50Z</time>
      </trkpt>
      <trkpt lat="47.36095" lon="-1.90183">
        <ele>79</ele>
        <time>2016-01-02T15:44:52Z</time>
      </trkpt>
      <trkpt lat="47.36096" lon="-1.90187">
        <ele>78</ele>
        <time>2016-01-02T15:44:53Z</time>
      </trkpt>
      <trkpt lat="47.36098" lon="-1.90192">
        <ele>78</ele>
        <time>2016-01-02T15:44:54Z</time>
      </trkpt>
      <trkpt lat="47.36101" lon="-1.90205">
        <ele>78</ele>
        <time>2016-01-02T15:44:55Z</time>
      </trkpt>
      <trkpt lat="47.36103" lon="-1.90213">
        <ele>78</ele>
        <time>2016-01-02T15:44:56Z</time>
      </trkpt>
      <trkpt lat="47.36104" lon="-1.90219">
        <ele>78</ele>
        <time>2016-01-02T15:44:57Z</time>
      </trkpt>
      <trkpt lat="47.36106" lon="-1.90228">
        <ele>78</ele>
        <time>2016-01-02T15:44:58Z</time>
      </trkpt>
      <trkpt lat="47.36107" lon="-1.90234">
        <ele>78</ele>
        <time>2016-01-02T15:44:59Z</time>
      </trkpt>
      <trkpt lat="47.36108" lon="-1.90239">
        <ele>78</ele>
        <time>2016-01-02T15:45:00Z</time>
      </trkpt>
      <trkpt lat="47.36107" lon="-1.90246">
        <ele>78</ele>
        <time>2016-01-02T15:45:01Z</time>
      </trkpt>
      <trkpt lat="47.36108" lon="-1.90251">
        <ele>77</ele>
        <time>2016-01-02T15:45:02Z</time>
      </trkpt>
      <trkpt lat="47.36109" lon="-1.90258">
        <ele>77</ele>
        <time>2016-01-02T15:45:03Z</time>
      </trkpt>
      <trkpt lat="47.36115" lon="-1.90264">
        <ele>76</ele>
        <time>2016-01-02T15:45:04Z</time>
      </trkpt>
      <trkpt lat="47.36116" lon="-1.90273">
        <ele>76</ele>
        <time>2016-01-02T15:45:05Z</time>
      </trkpt>
      <trkpt lat="47.36117" lon="-1.9028">
        <ele>76</ele>
        <time>2016-01-02T15:45:06Z</time>
      </trkpt>
      <trkpt lat="47.36118" lon="-1.90286">
        <ele>76</ele>
        <time>2016-01-02T15:45:07Z</time>
      </trkpt>
      <trkpt lat="47.36121" lon="-1.90297">
        <ele>76</ele>
        <time>2016-01-02T15:45:08Z</time>
      </trkpt>
      <trkpt lat="47.36122" lon="-1.90305">
        <ele>76</ele>
        <time>2016-01-02T15:45:09Z</time>
      </trkpt>
      <trkpt lat="47.36123" lon="-1.9031">
        <ele>76</ele>
        <time>2016-01-02T15:45:10Z</time>
      </trkpt>
      <trkpt lat="47.36124" lon="-1.90319">
        <ele>76</ele>
        <time>2016-01-02T15:45:11Z</time>
      </trkpt>
      <trkpt lat="47.36125" lon="-1.90326">
        <ele>75</ele>
        <time>2016-01-02T15:45:12Z</time>
      </trkpt>
      <trkpt lat="47.36126" lon="-1.90332">
        <ele>75</ele>
        <time>2016-01-02T15:45:13Z</time>
      </trkpt>
      <trkpt lat="47.36126" lon="-1.90339">
        <ele>75</ele>
        <time>2016-01-02T15:45:14Z</time>
      </trkpt>
      <trkpt lat="47.36129" lon="-1.90349">
        <ele>75</ele>
        <time>2016-01-02T15:45:15Z</time>
      </trkpt>
      <trkpt lat="47.36129" lon="-1.90357">
        <ele>75</ele>
        <time>2016-01-02T15:45:16Z</time>
      </trkpt>
      <trkpt lat="47.3613" lon="-1.90364">
        <ele>75</ele>
        <time>2016-01-02T15:45:17Z</time>
      </trkpt>
      <trkpt lat="47.36133" lon="-1.90369">
        <ele>75</ele>
        <time>2016-01-02T15:45:18Z</time>
      </trkpt>
      <trkpt lat="47.36134" lon="-1.90376">
        <ele>74</ele>
        <time>2016-01-02T15:45:19Z</time>
      </trkpt>
      <trkpt lat="47.36136" lon="-1.90384">
        <ele>74</ele>
        <time>2016-01-02T15:45:20Z</time>
      </trkpt>
      <trkpt lat="47.36137" lon="-1.90391">
        <ele>74</ele>
        <time>2016-01-02T15:45:21Z</time>
      </trkpt>
      <trkpt lat="47.36137" lon="-1.90396">
        <ele>74</ele>
        <time>2016-01-02T15:45:22Z</time>
      </trkpt>
      <trkpt lat="47.36139" lon="-1.90403">
        <ele>74</ele>
        <time>2016-01-02T15:45:23Z</time>
      </trkpt>
      <trkpt lat="47.36139" lon="-1.90411">
        <ele>74</ele>
        <time>2016-01-02T15:45:24Z</time>
      </trkpt>
      <trkpt lat="47.36139" lon="-1.90417">
        <ele>74</ele>
        <time>2016-01-02T15:45:25Z</time>
      </trkpt>
      <trkpt lat="47.3614" lon="-1.90424">
        <ele>74</ele>
        <time>2016-01-02T15:45:26Z</time>
      </trkpt>
      <trkpt lat="47.36142" lon="-1.90434">
        <ele>74</ele>
        <time>2016-01-02T15:45:27Z</time>
      </trkpt>
      <trkpt lat="47.36145" lon="-1.90442">
        <ele>74</ele>
        <time>2016-01-02T15:45:28Z</time>
      </trkpt>
      <trkpt lat="47.36146" lon="-1.90447">
        <ele>74</ele>
        <time>2016-01-02T15:45:29Z</time>
      </trkpt>
      <trkpt lat="47.36148" lon="-1.90454">
        <ele>74</ele>
        <time>2016-01-02T15:45:30Z</time>
      </trkpt>
      <trkpt lat="47.36149" lon="-1.90458">
        <ele>74</ele>
        <time>2016-01-02T15:45:31Z</time>
      </trkpt>
      <trkpt lat="47.36151" lon="-1.90463">
        <ele>74</ele>
        <time>2016-01-02T15:45:32Z</time>
      </trkpt>
      <trkpt lat="47.36152" lon="-1.9047">
        <ele>74</ele>
        <time>2016-01-02T15:45:33Z</time>
      </trkpt>
      <trkpt lat="47.36152" lon="-1.90476">
        <ele>74</ele>
        <time>2016-01-02T15:45:34Z</time>
      </trkpt>
      <trkpt lat="47.36154" lon="-1.90485">
        <ele>74</ele>
        <time>2016-01-02T15:45:35Z</time>
      </trkpt>
      <trkpt lat="47.36153" lon="-1.90494">
        <ele>74</ele>
        <time>2016-01-02T15:45:36Z</time>
      </trkpt>
      <trkpt lat="47.36154" lon="-1.905">
        <ele>74</ele>
        <time>2016-01-02T15:45:37Z</time>
      </trkpt>
      <trkpt lat="47.36154" lon="-1.90507">
        <ele>74</ele>
        <time>2016-01-02T15:45:38Z</time>
      </trkpt>
      <trkpt lat="47.36158" lon="-1.90516">
        <ele>74</ele>
        <time>2016-01-02T15:45:39Z</time>
      </trkpt>
      <trkpt lat="47.36158" lon="-1.90522">
        <ele>73</ele>
        <time>2016-01-02T15:45:40Z</time>
      </trkpt>
      <trkpt lat="47.36159" lon="-1.90529">
        <ele>73</ele>
        <time>2016-01-02T15:45:41Z</time>
      </trkpt>
      <trkpt lat="47.36156" lon="-1.90526">
        <ele>73</ele>
        <time>2016-01-02T15:45:42Z</time>
      </trkpt>
      <trkpt lat="47.36158" lon="-1.90531">
        <ele>73</ele>
        <time>2016-01-02T15:45:43Z</time>
      </trkpt>
      <trkpt lat="47.3616" lon="-1.90534">
        <ele>73</ele>
        <time>2016-01-02T15:45:44Z</time>
      </trkpt>
      <trkpt lat="47.36161" lon="-1.9054">
        <ele>74</ele>
        <time>2016-01-02T15:45:46Z</time>
      </trkpt>
      <trkpt lat="47.36163" lon="-1.90548">
        <ele>74</ele>
        <time>2016-01-02T15:45:47Z</time>
      </trkpt>
      <trkpt lat="47.36162" lon="-1.90551">
        <ele>74</ele>
        <time>2016-01-02T15:45:48Z</time>
      </trkpt>
      <trkpt lat="47.36159" lon="-1.90553">
        <ele>74</ele>
        <time>2016-01-02T15:45:49Z</time>
      </trkpt>
      <trkpt lat="47.36155" lon="-1.90556">
        <ele>74</ele>
        <time>2016-01-02T15:45:51Z</time>
      </trkpt>
      <trkpt lat="47.36151" lon="-1.9056">
        <ele>74</ele>
        <time>2016-01-02T15:45:52Z</time>
      </trkpt>
      <trkpt lat="47.36147" lon="-1.90562">
        <ele>74</ele>
        <time>2016-01-02T15:45:53Z</time>
      </trkpt>
      <trkpt lat="47.36144" lon="-1.90568">
        <ele>74</ele>
        <time>2016-01-02T15:45:54Z</time>
      </trkpt>
      <trkpt lat="47.36141" lon="-1.90572">
        <ele>74</ele>
        <time>2016-01-02T15:45:55Z</time>
      </trkpt>
      <trkpt lat="47.36136" lon="-1.90574">
        <ele>73</ele>
        <time>2016-01-02T15:45:56Z</time>
      </trkpt>
      <trkpt lat="47.36132" lon="-1.90578">
        <ele>73</ele>
        <time>2016-01-02T15:45:58Z</time>
      </trkpt>
      <trkpt lat="47.36127" lon="-1.90577">
        <ele>73</ele>
        <time>2016-01-02T15:46:00Z</time>
      </trkpt>
      <trkpt lat="47.36124" lon="-1.90571">
        <ele>73</ele>
        <time>2016-01-02T15:46:02Z</time>
      </trkpt>
      <trkpt lat="47.36123" lon="-1.90564">
        <ele>73</ele>
        <time>2016-01-02T15:46:04Z</time>
      </trkpt>
      <trkpt lat="47.3612" lon="-1.90559">
        <ele>73</ele>
        <time>2016-01-02T15:46:06Z</time>
      </trkpt>
      <trkpt lat="47.36116" lon="-1.90558">
        <ele>73</ele>
        <time>2016-01-02T15:46:07Z</time>
      </trkpt>
      <trkpt lat="47.36112" lon="-1.90557">
        <ele>73</ele>
        <time>2016-01-02T15:46:08Z</time>
      </trkpt>
      <trkpt lat="47.36105" lon="-1.90554">
        <ele>73</ele>
        <time>2016-01-02T15:46:10Z</time>
      </trkpt>
      <trkpt lat="47.361" lon="-1.90552">
        <ele>73</ele>
        <time>2016-01-02T15:46:12Z</time>
      </trkpt>
      <trkpt lat="47.36098" lon="-1.9055">
        <ele>72</ele>
        <time>2016-01-02T15:46:13Z</time>
      </trkpt>
      <trkpt lat="47.36094" lon="-1.90546">
        <ele>72</ele>
        <time>2016-01-02T15:46:15Z</time>
      </trkpt>
      <trkpt lat="47.36094" lon="-1.90542">
        <ele>73</ele>
        <time>2016-01-02T15:46:18Z</time>
      </trkpt>
      <trkpt lat="47.36098" lon="-1.90539">
        <ele>73</ele>
        <time>2016-01-02T15:46:21Z</time>
      </trkpt>
      <trkpt lat="47.361" lon="-1.90537">
        <ele>73</ele>
        <time>2016-01-02T15:46:23Z</time>
      </trkpt>
      <trkpt lat="47.361" lon="-1.90532">
        <ele>73</ele>
        <time>2016-01-02T15:46:26Z</time>
      </trkpt>
      <trkpt lat="47.36097" lon="-1.90529">
        <ele>73</ele>
        <time>2016-01-02T15:46:28Z</time>
      </trkpt>
      <trkpt lat="47.36094" lon="-1.90526">
        <ele>73</ele>
        <time>2016-01-02T15:46:29Z</time>
      </trkpt>
      <trkpt lat="47.36091" lon="-1.90524">
        <ele>73</ele>
        <time>2016-01-02T15:46:30Z</time>
      </trkpt>
      <trkpt lat="47.36088" lon="-1.90522">
        <ele>72</ele>
        <time>2016-01-02T15:46:31Z</time>
      </trkpt>
      <trkpt lat="47.36085" lon="-1.9052">
        <ele>72</ele>
        <time>2016-01-02T15:46:32Z</time>
      </trkpt>
      <trkpt lat="47.36083" lon="-1.90518">
        <ele>72</ele>
        <time>2016-01-02T15:46:33Z</time>
      </trkpt>
      <trkpt lat="47.3608" lon="-1.90515">
        <ele>72</ele>
        <time>2016-01-02T15:46:34Z</time>
      </trkpt>
      <trkpt lat="47.3608" lon="-1.90511">
        <ele>72</ele>
        <time>2016-01-02T15:46:35Z</time>
      </trkpt>
      <trkpt lat="47.3608" lon="-1.90505">
        <ele>72</ele>
        <time>2016-01-02T15:46:37Z</time>
      </trkpt>
      <trkpt lat="47.3608" lon="-1.90499">
        <ele>72</ele>
        <time>2016-01-02T15:46:40Z</time>
      </trkpt>
      <trkpt lat="47.36082" lon="-1.90494">
        <ele>72</ele>
        <time>2016-01-02T15:46:43Z</time>
      </trkpt>
      <trkpt lat="47.36084" lon="-1.90487">
        <ele>73</ele>
        <time>2016-01-02T15:46:45Z</time>
      </trkpt>
      <trkpt lat="47.36085" lon="-1.90479">
        <ele>73</ele>
        <time>2016-01-02T15:46:47Z</time>
      </trkpt>
      <trkpt lat="47.36086" lon="-1.90476">
        <ele>73</ele>
        <time>2016-01-02T15:46:48Z</time>
      </trkpt>
      <trkpt lat="47.36087" lon="-1.90469">
        <ele>73</ele>
        <time>2016-01-02T15:46:50Z</time>
      </trkpt>
      <trkpt lat="47.36084" lon="-1.90465">
        <ele>73</ele>
        <time>2016-01-02T15:46:52Z</time>
      </trkpt>
      <trkpt lat="47.36081" lon="-1.90463">
        <ele>72</ele>
        <time>2016-01-02T15:46:54Z</time>
      </trkpt>
      <trkpt lat="47.36078" lon="-1.90465">
        <ele>72</ele>
        <time>2016-01-02T15:46:56Z</time>
      </trkpt>
      <trkpt lat="47.36075" lon="-1.90465">
        <ele>72</ele>
        <time>2016-01-02T15:46:58Z</time>
      </trkpt>
      <trkpt lat="47.36073" lon="-1.90461">
        <ele>72</ele>
        <time>2016-01-02T15:47:00Z</time>
      </trkpt>
      <trkpt lat="47.36071" lon="-1.90459">
        <ele>72</ele>
        <time>2016-01-02T15:47:02Z</time>
      </trkpt>
      <trkpt lat="47.36067" lon="-1.90459">
        <ele>72</ele>
        <time>2016-01-02T15:47:04Z</time>
      </trkpt>
      <trkpt lat="47.36065" lon="-1.90461">
        <ele>71</ele>
        <time>2016-01-02T15:47:05Z</time>
      </trkpt>
      <trkpt lat="47.36063" lon="-1.90465">
        <ele>71</ele>
        <time>2016-01-02T15:47:07Z</time>
      </trkpt>
      <trkpt lat="47.36062" lon="-1.90469">
        <ele>71</ele>
        <time>2016-01-02T15:47:09Z</time>
      </trkpt>
      <trkpt lat="47.36062" lon="-1.90475">
        <ele>71</ele>
        <time>2016-01-02T15:47:11Z</time>
      </trkpt>
      <trkpt lat="47.36062" lon="-1.90479">
        <ele>71</ele>
        <time>2016-01-02T15:47:12Z</time>
      </trkpt>
      <trkpt lat="47.36061" lon="-1.90484">
        <ele>71</ele>
        <time>2016-01-02T15:47:13Z</time>
      </trkpt>
      <trkpt lat="47.36061" lon="-1.90488">
        <ele>71</ele>
        <time>2016-01-02T15:47:14Z</time>
      </trkpt>
      <trkpt lat="47.36062" lon="-1.90494">
        <ele>71</ele>
        <time>2016-01-02T15:47:16Z</time>
      </trkpt>
      <trkpt lat="47.36064" lon="-1.90497">
        <ele>71</ele>
        <time>2016-01-02T15:47:22Z</time>
      </trkpt>
      <trkpt lat="47.36064" lon="-1.90501">
        <ele>72</ele>
        <time>2016-01-02T15:47:23Z</time>
      </trkpt>
      <trkpt lat="47.36066" lon="-1.90505">
        <ele>72</ele>
        <time>2016-01-02T15:47:25Z</time>
      </trkpt>
      <trkpt lat="47.36067" lon="-1.90509">
        <ele>72</ele>
        <time>2016-01-02T15:47:28Z</time>
      </trkpt>
      <trkpt lat="47.36066" lon="-1.90513">
        <ele>72</ele>
        <time>2016-01-02T15:47:34Z</time>
      </trkpt>
      <trkpt lat="47.36069" lon="-1.90517">
        <ele>72</ele>
        <time>2016-01-02T15:47:48Z</time>
      </trkpt>
      <trkpt lat="47.36072" lon="-1.90517">
        <ele>72</ele>
        <time>2016-01-02T15:47:51Z</time>
      </trkpt>
      <trkpt lat="47.36074" lon="-1.90515">
        <ele>72</ele>
        <time>2016-01-02T15:47:54Z</time>
      </trkpt>
      <trkpt lat="47.36076" lon="-1.90519">
        <ele>72</ele>
        <time>2016-01-02T15:47:56Z</time>
      </trkpt>
      <trkpt lat="47.36076" lon="-1.90523">
        <ele>72</ele>
        <time>2016-01-02T15:47:57Z</time>
      </trkpt>
      <trkpt lat="47.36077" lon="-1.9053">
        <ele>72</ele>
        <time>2016-01-02T15:47:59Z</time>
      </trkpt>
      <trkpt lat="47.36078" lon="-1.90536">
        <ele>72</ele>
        <time>2016-01-02T15:48:01Z</time>
      </trkpt>
      <trkpt lat="47.36081" lon="-1.90541">
        <ele>72</ele>
        <time>2016-01-02T15:48:03Z</time>
      </trkpt>
      <trkpt lat="47.36085" lon="-1.90542">
        <ele>72</ele>
        <time>2016-01-02T15:48:05Z</time>
      </trkpt>
      <trkpt lat="47.36087" lon="-1.90544">
        <ele>72</ele>
        <time>2016-01-02T15:48:07Z</time>
      </trkpt>
      <trkpt lat="47.36089" lon="-1.90551">
        <ele>72</ele>
        <time>2016-01-02T15:48:10Z</time>
      </trkpt>
      <trkpt lat="47.36089" lon="-1.90555">
        <ele>72</ele>
        <time>2016-01-02T15:48:11Z</time>
      </trkpt>
      <trkpt lat="47.36088" lon="-1.90561">
        <ele>72</ele>
        <time>2016-01-02T15:48:12Z</time>
      </trkpt>
      <trkpt lat="47.36087" lon="-1.90567">
        <ele>72</ele>
        <time>2016-01-02T15:48:14Z</time>
      </trkpt>
      <trkpt lat="47.36086" lon="-1.90572">
        <ele>72</ele>
        <time>2016-01-02T15:48:15Z</time>
      </trkpt>
      <trkpt lat="47.36085" lon="-1.90577">
        <ele>71</ele>
        <time>2016-01-02T15:48:17Z</time>
      </trkpt>
      <trkpt lat="47.36085" lon="-1.90582">
        <ele>71</ele>
        <time>2016-01-02T15:48:19Z</time>
      </trkpt>
      <trkpt lat="47.36088" lon="-1.90582">
        <ele>71</ele>
        <time>2016-01-02T15:48:26Z</time>
      </trkpt>
      <trkpt lat="47.36091" lon="-1.90581">
        <ele>72</ele>
        <time>2016-01-02T15:48:29Z</time>
      </trkpt>
      <trkpt lat="47.36094" lon="-1.90582">
        <ele>72</ele>
        <time>2016-01-02T15:48:32Z</time>
      </trkpt>
      <trkpt lat="47.36097" lon="-1.90584">
        <ele>72</ele>
        <time>2016-01-02T15:48:34Z</time>
      </trkpt>
      <trkpt lat="47.36101" lon="-1.90587">
        <ele>72</ele>
        <time>2016-01-02T15:48:36Z</time>
      </trkpt>
      <trkpt lat="47.36103" lon="-1.90592">
        <ele>72</ele>
        <time>2016-01-02T15:48:38Z</time>
      </trkpt>
      <trkpt lat="47.36104" lon="-1.90596">
        <ele>72</ele>
        <time>2016-01-02T15:48:39Z</time>
      </trkpt>
      <trkpt lat="47.36104" lon="-1.90601">
        <ele>72</ele>
        <time>2016-01-02T15:48:40Z</time>
      </trkpt>
      <trkpt lat="47.36104" lon="-1.90606">
        <ele>72</ele>
        <time>2016-01-02T15:48:41Z</time>
      </trkpt>
      <trkpt lat="47.36103" lon="-1.9061">
        <ele>72</ele>
        <time>2016-01-02T15:48:42Z</time>
      </trkpt>
      <trkpt lat="47.36103" lon="-1.90615">
        <ele>72</ele>
        <time>2016-01-02T15:48:43Z</time>
      </trkpt>
      <trkpt lat="47.36103" lon="-1.9062">
        <ele>72</ele>
        <time>2016-01-02T15:48:44Z</time>
      </trkpt>
      <trkpt lat="47.36104" lon="-1.90628">
        <ele>72</ele>
        <time>2016-01-02T15:48:46Z</time>
      </trkpt>
      <trkpt lat="47.36106" lon="-1.90632">
        <ele>72</ele>
        <time>2016-01-02T15:48:47Z</time>
      </trkpt>
      <trkpt lat="47.36108" lon="-1.90636">
        <ele>72</ele>
        <time>2016-01-02T15:48:48Z</time>
      </trkpt>
      <trkpt lat="47.3611" lon="-1.90644">
        <ele>72</ele>
        <time>2016-01-02T15:48:50Z</time>
      </trkpt>
      <trkpt lat="47.36111" lon="-1.90648">
        <ele>72</ele>
        <time>2016-01-02T15:48:51Z</time>
      </trkpt>
      <trkpt lat="47.36112" lon="-1.90652">
        <ele>72</ele>
        <time>2016-01-02T15:48:52Z</time>
      </trkpt>
      <trkpt lat="47.36114" lon="-1.90659">
        <ele>72</ele>
        <time>2016-01-02T15:48:54Z</time>
      </trkpt>
      <trkpt lat="47.36118" lon="-1.90664">
        <ele>72</ele>
        <time>2016-01-02T15:48:56Z</time>
      </trkpt>
      <trkpt lat="47.3612" lon="-1.90669">
        <ele>71</ele>
        <time>2016-01-02T15:48:58Z</time>
      </trkpt>
      <trkpt lat="47.36123" lon="-1.90676">
        <ele>71</ele>
        <time>2016-01-02T15:49:00Z</time>
      </trkpt>
      <trkpt lat="47.36124" lon="-1.90679">
        <ele>71</ele>
        <time>2016-01-02T15:49:01Z</time>
      </trkpt>
      <trkpt lat="47.36127" lon="-1.90686">
        <ele>71</ele>
        <time>2016-01-02T15:49:03Z</time>
      </trkpt>
      <trkpt lat="47.36131" lon="-1.90691">
        <ele>71</ele>
        <time>2016-01-02T15:49:05Z</time>
      </trkpt>
      <trkpt lat="47.36133" lon="-1.90694">
        <ele>71</ele>
        <time>2016-01-02T15:49:06Z</time>
      </trkpt>
      <trkpt lat="47.36136" lon="-1.907">
        <ele>71</ele>
        <time>2016-01-02T15:49:08Z</time>
      </trkpt>
      <trkpt lat="47.36136" lon="-1.90706">
        <ele>71</ele>
        <time>2016-01-02T15:49:10Z</time>
      </trkpt>
      <trkpt lat="47.36136" lon="-1.9071">
        <ele>71</ele>
        <time>2016-01-02T15:49:12Z</time>
      </trkpt>
      <trkpt lat="47.36136" lon="-1.90715">
        <ele>71</ele>
        <time>2016-01-02T15:49:14Z</time>
      </trkpt>
      <trkpt lat="47.36137" lon="-1.9072">
        <ele>71</ele>
        <time>2016-01-02T15:49:15Z</time>
      </trkpt>
      <trkpt lat="47.36138" lon="-1.90723">
        <ele>71</ele>
        <time>2016-01-02T15:49:17Z</time>
      </trkpt>
      <trkpt lat="47.36139" lon="-1.90729">
        <ele>71</ele>
        <time>2016-01-02T15:49:19Z</time>
      </trkpt>
      <trkpt lat="47.36139" lon="-1.90734">
        <ele>71</ele>
        <time>2016-01-02T15:49:21Z</time>
      </trkpt>
      <trkpt lat="47.36139" lon="-1.90742">
        <ele>71</ele>
        <time>2016-01-02T15:49:23Z</time>
      </trkpt>
      <trkpt lat="47.36141" lon="-1.90747">
        <ele>71</ele>
        <time>2016-01-02T15:49:24Z</time>
      </trkpt>
      <trkpt lat="47.36142" lon="-1.90752">
        <ele>69</ele>
        <time>2016-01-02T15:49:25Z</time>
      </trkpt>
      <trkpt lat="47.36144" lon="-1.90757">
        <ele>70</ele>
        <time>2016-01-02T15:49:26Z</time>
      </trkpt>
      <trkpt lat="47.36145" lon="-1.90762">
        <ele>69</ele>
        <time>2016-01-02T15:49:27Z</time>
      </trkpt>
      <trkpt lat="47.36145" lon="-1.90768">
        <ele>69</ele>
        <time>2016-01-02T15:49:28Z</time>
      </trkpt>
      <trkpt lat="47.36145" lon="-1.90772">
        <ele>69</ele>
        <time>2016-01-02T15:49:29Z</time>
      </trkpt>
      <trkpt lat="47.36146" lon="-1.90777">
        <ele>69</ele>
        <time>2016-01-02T15:49:30Z</time>
      </trkpt>
      <trkpt lat="47.36147" lon="-1.9078">
        <ele>69</ele>
        <time>2016-01-02T15:49:31Z</time>
      </trkpt>
      <trkpt lat="47.36151" lon="-1.90784">
        <ele>69</ele>
        <time>2016-01-02T15:49:33Z</time>
      </trkpt>
      <trkpt lat="47.36156" lon="-1.90787">
        <ele>69</ele>
        <time>2016-01-02T15:49:35Z</time>
      </trkpt>
      <trkpt lat="47.3616" lon="-1.9079">
        <ele>69</ele>
        <time>2016-01-02T15:49:37Z</time>
      </trkpt>
      <trkpt lat="47.36164" lon="-1.90794">
        <ele>69</ele>
        <time>2016-01-02T15:49:39Z</time>
      </trkpt>
      <trkpt lat="47.36166" lon="-1.90798">
        <ele>68</ele>
        <time>2016-01-02T15:49:40Z</time>
      </trkpt>
      <trkpt lat="47.36167" lon="-1.90803">
        <ele>69</ele>
        <time>2016-01-02T15:49:41Z</time>
      </trkpt>
      <trkpt lat="47.36168" lon="-1.90809">
        <ele>69</ele>
        <time>2016-01-02T15:49:42Z</time>
      </trkpt>
      <trkpt lat="47.36168" lon="-1.90814">
        <ele>69</ele>
        <time>2016-01-02T15:49:43Z</time>
      </trkpt>
      <trkpt lat="47.36168" lon="-1.90821">
        <ele>68</ele>
        <time>2016-01-02T15:49:44Z</time>
      </trkpt>
      <trkpt lat="47.36169" lon="-1.90826">
        <ele>68</ele>
        <time>2016-01-02T15:49:45Z</time>
      </trkpt>
      <trkpt lat="47.36171" lon="-1.90832">
        <ele>67</ele>
        <time>2016-01-02T15:49:46Z</time>
      </trkpt>
      <trkpt lat="47.36172" lon="-1.90837">
        <ele>67</ele>
        <time>2016-01-02T15:49:47Z</time>
      </trkpt>
      <trkpt lat="47.36177" lon="-1.90841">
        <ele>66</ele>
        <time>2016-01-02T15:49:49Z</time>
      </trkpt>
      <trkpt lat="47.36179" lon="-1.90844">
        <ele>66</ele>
        <time>2016-01-02T15:49:50Z</time>
      </trkpt>
      <trkpt lat="47.36183" lon="-1.90841">
        <ele>66</ele>
        <time>2016-01-02T15:49:51Z</time>
      </trkpt>
      <trkpt lat="47.36187" lon="-1.90839">
        <ele>66</ele>
        <time>2016-01-02T15:49:53Z</time>
      </trkpt>
      <trkpt lat="47.36189" lon="-1.90835">
        <ele>66</ele>
        <time>2016-01-02T15:49:55Z</time>
      </trkpt>
      <trkpt lat="47.36191" lon="-1.90829">
        <ele>69</ele>
        <time>2016-01-02T15:49:57Z</time>
      </trkpt>
      <trkpt lat="47.36193" lon="-1.90823">
        <ele>69</ele>
        <time>2016-01-02T15:49:59Z</time>
      </trkpt>
      <trkpt lat="47.36193" lon="-1.90818">
        <ele>69</ele>
        <time>2016-01-02T15:50:01Z</time>
      </trkpt>
      <trkpt lat="47.36189" lon="-1.90817">
        <ele>69</ele>
        <time>2016-01-02T15:50:03Z</time>
      </trkpt>
      <trkpt lat="47.36185" lon="-1.90814">
        <ele>69</ele>
        <time>2016-01-02T15:50:05Z</time>
      </trkpt>
      <trkpt lat="47.36183" lon="-1.90809">
        <ele>69</ele>
        <time>2016-01-02T15:50:07Z</time>
      </trkpt>
      <trkpt lat="47.3618" lon="-1.90805">
        <ele>69</ele>
        <time>2016-01-02T15:50:09Z</time>
      </trkpt>
      <trkpt lat="47.36177" lon="-1.90801">
        <ele>69</ele>
        <time>2016-01-02T15:50:11Z</time>
      </trkpt>
      <trkpt lat="47.36175" lon="-1.90796">
        <ele>70</ele>
        <time>2016-01-02T15:50:13Z</time>
      </trkpt>
      <trkpt lat="47.36175" lon="-1.90789">
        <ele>70</ele>
        <time>2016-01-02T15:50:15Z</time>
      </trkpt>
      <trkpt lat="47.36174" lon="-1.90784">
        <ele>70</ele>
        <time>2016-01-02T15:50:17Z</time>
      </trkpt>
      <trkpt lat="47.36173" lon="-1.90779">
        <ele>70</ele>
        <time>2016-01-02T15:50:19Z</time>
      </trkpt>
      <trkpt lat="47.36172" lon="-1.90774">
        <ele>70</ele>
        <time>2016-01-02T15:50:21Z</time>
      </trkpt>
      <trkpt lat="47.36168" lon="-1.90771">
        <ele>71</ele>
        <time>2016-01-02T15:50:23Z</time>
      </trkpt>
      <trkpt lat="47.36165" lon="-1.90768">
        <ele>70</ele>
        <time>2016-01-02T15:50:25Z</time>
      </trkpt>
      <trkpt lat="47.36163" lon="-1.90762">
        <ele>70</ele>
        <time>2016-01-02T15:50:27Z</time>
      </trkpt>
      <trkpt lat="47.36163" lon="-1.90755">
        <ele>71</ele>
        <time>2016-01-02T15:50:29Z</time>
      </trkpt>
      <trkpt lat="47.36164" lon="-1.90747">
        <ele>72</ele>
        <time>2016-01-02T15:50:31Z</time>
      </trkpt>
      <trkpt lat="47.36164" lon="-1.90743">
        <ele>72</ele>
        <time>2016-01-02T15:50:32Z</time>
      </trkpt>
      <trkpt lat="47.36164" lon="-1.90736">
        <ele>71</ele>
        <time>2016-01-02T15:50:34Z</time>
      </trkpt>
      <trkpt lat="47.36164" lon="-1.90732">
        <ele>71</ele>
        <time>2016-01-02T15:50:35Z</time>
      </trkpt>
      <trkpt lat="47.36163" lon="-1.90725">
        <ele>71</ele>
        <time>2016-01-02T15:50:37Z</time>
      </trkpt>
      <trkpt lat="47.36163" lon="-1.90717">
        <ele>71</ele>
        <time>2016-01-02T15:50:39Z</time>
      </trkpt>
      <trkpt lat="47.36163" lon="-1.90713">
        <ele>71</ele>
        <time>2016-01-02T15:50:40Z</time>
      </trkpt>
      <trkpt lat="47.36163" lon="-1.90709">
        <ele>72</ele>
        <time>2016-01-02T15:50:41Z</time>
      </trkpt>
      <trkpt lat="47.36163" lon="-1.90705">
        <ele>72</ele>
        <time>2016-01-02T15:50:42Z</time>
      </trkpt>
      <trkpt lat="47.36163" lon="-1.90698">
        <ele>72</ele>
        <time>2016-01-02T15:50:44Z</time>
      </trkpt>
      <trkpt lat="47.36162" lon="-1.90691">
        <ele>72</ele>
        <time>2016-01-02T15:50:46Z</time>
      </trkpt>
      <trkpt lat="47.36162" lon="-1.90684">
        <ele>73</ele>
        <time>2016-01-02T15:50:48Z</time>
      </trkpt>
      <trkpt lat="47.36161" lon="-1.90678">
        <ele>73</ele>
        <time>2016-01-02T15:50:50Z</time>
      </trkpt>
      <trkpt lat="47.36162" lon="-1.90674">
        <ele>74</ele>
        <time>2016-01-02T15:50:51Z</time>
      </trkpt>
      <trkpt lat="47.36163" lon="-1.90668">
        <ele>74</ele>
        <time>2016-01-02T15:50:53Z</time>
      </trkpt>
      <trkpt lat="47.36161" lon="-1.90663">
        <ele>74</ele>
        <time>2016-01-02T15:50:55Z</time>
      </trkpt>
      <trkpt lat="47.36156" lon="-1.90661">
        <ele>74</ele>
        <time>2016-01-02T15:50:57Z</time>
      </trkpt>
      <trkpt lat="47.36153" lon="-1.90659">
        <ele>74</ele>
        <time>2016-01-02T15:50:59Z</time>
      </trkpt>
      <trkpt lat="47.3615" lon="-1.90662">
        <ele>74</ele>
        <time>2016-01-02T15:51:01Z</time>
      </trkpt>
      <trkpt lat="47.36149" lon="-1.90666">
        <ele>74</ele>
        <time>2016-01-02T15:51:03Z</time>
      </trkpt>
      <trkpt lat="47.36147" lon="-1.90671">
        <ele>72</ele>
        <time>2016-01-02T15:51:05Z</time>
      </trkpt>
      <trkpt lat="47.36146" lon="-1.90675">
        <ele>72</ele>
        <time>2016-01-02T15:51:06Z</time>
      </trkpt>
      <trkpt lat="47.36143" lon="-1.90677">
        <ele>72</ele>
        <time>2016-01-02T15:51:08Z</time>
      </trkpt>
      <trkpt lat="47.36141" lon="-1.90672">
        <ele>72</ele>
        <time>2016-01-02T15:51:10Z</time>
      </trkpt>
      <trkpt lat="47.36138" lon="-1.90669">
        <ele>72</ele>
        <time>2016-01-02T15:51:12Z</time>
      </trkpt>
      <trkpt lat="47.36135" lon="-1.90668">
        <ele>72</ele>
        <time>2016-01-02T15:51:14Z</time>
      </trkpt>
      <trkpt lat="47.36131" lon="-1.90664">
        <ele>73</ele>
        <time>2016-01-02T15:51:16Z</time>
      </trkpt>
      <trkpt lat="47.36129" lon="-1.90659">
        <ele>73</ele>
        <time>2016-01-02T15:51:18Z</time>
      </trkpt>
      <trkpt lat="47.36129" lon="-1.90654">
        <ele>73</ele>
        <time>2016-01-02T15:51:20Z</time>
      </trkpt>
      <trkpt lat="47.36128" lon="-1.9065">
        <ele>73</ele>
        <time>2016-01-02T15:51:23Z</time>
      </trkpt>
      <trkpt lat="47.36128" lon="-1.90645">
        <ele>72</ele>
        <time>2016-01-02T15:51:26Z</time>
      </trkpt>
      <trkpt lat="47.36129" lon="-1.90638">
        <ele>73</ele>
        <time>2016-01-02T15:51:28Z</time>
      </trkpt>
      <trkpt lat="47.3613" lon="-1.90633">
        <ele>73</ele>
        <time>2016-01-02T15:51:30Z</time>
      </trkpt>
      <trkpt lat="47.36132" lon="-1.90628">
        <ele>73</ele>
        <time>2016-01-02T15:51:32Z</time>
      </trkpt>
      <trkpt lat="47.36134" lon="-1.90622">
        <ele>73</ele>
        <time>2016-01-02T15:51:34Z</time>
      </trkpt>
      <trkpt lat="47.36137" lon="-1.90618">
        <ele>73</ele>
        <time>2016-01-02T15:51:36Z</time>
      </trkpt>
      <trkpt lat="47.36141" lon="-1.90618">
        <ele>73</ele>
        <time>2016-01-02T15:51:38Z</time>
      </trkpt>
      <trkpt lat="47.36144" lon="-1.90621">
        <ele>73</ele>
        <time>2016-01-02T15:51:40Z</time>
      </trkpt>
      <trkpt lat="47.36147" lon="-1.90624">
        <ele>73</ele>
        <time>2016-01-02T15:51:42Z</time>
      </trkpt>
      <trkpt lat="47.36149" lon="-1.90626">
        <ele>73</ele>
        <time>2016-01-02T15:51:44Z</time>
      </trkpt>
      <trkpt lat="47.36152" lon="-1.90624">
        <ele>73</ele>
        <time>2016-01-02T15:51:47Z</time>
      </trkpt>
      <trkpt lat="47.36154" lon="-1.9062">
        <ele>73</ele>
        <time>2016-01-02T15:51:49Z</time>
      </trkpt>
      <trkpt lat="47.36156" lon="-1.90617">
        <ele>73</ele>
        <time>2016-01-02T15:51:51Z</time>
      </trkpt>
      <trkpt lat="47.36156" lon="-1.90613">
        <ele>73</ele>
        <time>2016-01-02T15:51:53Z</time>
      </trkpt>
      <trkpt lat="47.36154" lon="-1.90609">
        <ele>73</ele>
        <time>2016-01-02T15:51:56Z</time>
      </trkpt>
      <trkpt lat="47.36151" lon="-1.90607">
        <ele>73</ele>
        <time>2016-01-02T15:51:58Z</time>
      </trkpt>
      <trkpt lat="47.36149" lon="-1.90604">
        <ele>73</ele>
        <time>2016-01-02T15:52:00Z</time>
      </trkpt>
      <trkpt lat="47.36151" lon="-1.906">
        <ele>74</ele>
        <time>2016-01-02T15:52:02Z</time>
      </trkpt>
      <trkpt lat="47.36155" lon="-1.90599">
        <ele>74</ele>
        <time>2016-01-02T15:52:03Z</time>
      </trkpt>
      <trkpt lat="47.36158" lon="-1.90596">
        <ele>74</ele>
        <time>2016-01-02T15:52:05Z</time>
      </trkpt>
      <trkpt lat="47.36163" lon="-1.90594">
        <ele>74</ele>
        <time>2016-01-02T15:52:07Z</time>
      </trkpt>
      <trkpt lat="47.36165" lon="-1.9059">
        <ele>74</ele>
        <time>2016-01-02T15:52:09Z</time>
      </trkpt>
      <trkpt lat="47.36164" lon="-1.90585">
        <ele>75</ele>
        <time>2016-01-02T15:52:12Z</time>
      </trkpt>
      <trkpt lat="47.36163" lon="-1.90579">
        <ele>75</ele>
        <time>2016-01-02T15:52:15Z</time>
      </trkpt>
      <trkpt lat="47.36161" lon="-1.90575">
        <ele>74</ele>
        <time>2016-01-02T15:52:17Z</time>
      </trkpt>
      <trkpt lat="47.3616" lon="-1.90571">
        <ele>74</ele>
        <time>2016-01-02T15:52:19Z</time>
      </trkpt>
      <trkpt lat="47.36158" lon="-1.90566">
        <ele>74</ele>
        <time>2016-01-02T15:52:21Z</time>
      </trkpt>
      <trkpt lat="47.36157" lon="-1.9056">
        <ele>74</ele>
        <time>2016-01-02T15:52:23Z</time>
      </trkpt>
      <trkpt lat="47.36157" lon="-1.90554">
        <ele>74</ele>
        <time>2016-01-02T15:52:25Z</time>
      </trkpt>
      <trkpt lat="47.36156" lon="-1.90548">
        <ele>74</ele>
        <time>2016-01-02T15:52:27Z</time>
      </trkpt>
      <trkpt lat="47.36156" lon="-1.90542">
        <ele>73</ele>
        <time>2016-01-02T15:52:29Z</time>
      </trkpt>
      <trkpt lat="47.36155" lon="-1.90536">
        <ele>73</ele>
        <time>2016-01-02T15:52:31Z</time>
      </trkpt>
      <trkpt lat="47.36154" lon="-1.90532">
        <ele>73</ele>
        <time>2016-01-02T15:52:33Z</time>
      </trkpt>
      <trkpt lat="47.36156" lon="-1.90537">
        <ele>73</ele>
        <time>2016-01-02T15:52:37Z</time>
      </trkpt>
      <trkpt lat="47.36157" lon="-1.90543">
        <ele>74</ele>
        <time>2016-01-02T15:52:39Z</time>
      </trkpt>
      <trkpt lat="47.36156" lon="-1.90548">
        <ele>74</ele>
        <time>2016-01-02T15:52:41Z</time>
      </trkpt>
      <trkpt lat="47.36153" lon="-1.90552">
        <ele>74</ele>
        <time>2016-01-02T15:52:43Z</time>
      </trkpt>
      <trkpt lat="47.3615" lon="-1.90555">
        <ele>74</ele>
        <time>2016-01-02T15:52:45Z</time>
      </trkpt>
      <trkpt lat="47.36147" lon="-1.90557">
        <ele>73</ele>
        <time>2016-01-02T15:52:46Z</time>
      </trkpt>
      <trkpt lat="47.36142" lon="-1.90559">
        <ele>73</ele>
        <time>2016-01-02T15:52:48Z</time>
      </trkpt>
      <trkpt lat="47.36138" lon="-1.90559">
        <ele>73</ele>
        <time>2016-01-02T15:52:50Z</time>
      </trkpt>
      <trkpt lat="47.36133" lon="-1.90559">
        <ele>73</ele>
        <time>2016-01-02T15:52:52Z</time>
      </trkpt>
      <trkpt lat="47.3613" lon="-1.90558">
        <ele>73</ele>
        <time>2016-01-02T15:52:53Z</time>
      </trkpt>
      <trkpt lat="47.36126" lon="-1.90554">
        <ele>73</ele>
        <time>2016-01-02T15:52:55Z</time>
      </trkpt>
      <trkpt lat="47.36122" lon="-1.90551">
        <ele>73</ele>
        <time>2016-01-02T15:52:57Z</time>
      </trkpt>
      <trkpt lat="47.36118" lon="-1.90548">
        <ele>73</ele>
        <time>2016-01-02T15:52:59Z</time>
      </trkpt>
      <trkpt lat="47.36115" lon="-1.90547">
        <ele>73</ele>
        <time>2016-01-02T15:53:00Z</time>
      </trkpt>
      <trkpt lat="47.36113" lon="-1.90544">
        <ele>73</ele>
        <time>2016-01-02T15:53:02Z</time>
      </trkpt>
      <trkpt lat="47.36113" lon="-1.9054">
        <ele>73</ele>
        <time>2016-01-02T15:53:03Z</time>
      </trkpt>
      <trkpt lat="47.36111" lon="-1.90534">
        <ele>73</ele>
        <time>2016-01-02T15:53:05Z</time>
      </trkpt>
      <trkpt lat="47.3611" lon="-1.90528">
        <ele>73</ele>
        <time>2016-01-02T15:53:07Z</time>
      </trkpt>
      <trkpt lat="47.36107" lon="-1.90523">
        <ele>73</ele>
        <time>2016-01-02T15:53:09Z</time>
      </trkpt>
      <trkpt lat="47.36105" lon="-1.90518">
        <ele>73</ele>
        <time>2016-01-02T15:53:11Z</time>
      </trkpt>
      <trkpt lat="47.36103" lon="-1.90512">
        <ele>73</ele>
        <time>2016-01-02T15:53:13Z</time>
      </trkpt>
      <trkpt lat="47.36101" lon="-1.90506">
        <ele>73</ele>
        <time>2016-01-02T15:53:15Z</time>
      </trkpt>
      <trkpt lat="47.36099" lon="-1.90501">
        <ele>72</ele>
        <time>2016-01-02T15:53:17Z</time>
      </trkpt>
      <trkpt lat="47.36097" lon="-1.90493">
        <ele>73</ele>
        <time>2016-01-02T15:53:19Z</time>
      </trkpt>
      <trkpt lat="47.36097" lon="-1.90489">
        <ele>73</ele>
        <time>2016-01-02T15:53:20Z</time>
      </trkpt>
      <trkpt lat="47.36096" lon="-1.90481">
        <ele>73</ele>
        <time>2016-01-02T15:53:22Z</time>
      </trkpt>
      <trkpt lat="47.36096" lon="-1.90474">
        <ele>73</ele>
        <time>2016-01-02T15:53:24Z</time>
      </trkpt>
      <trkpt lat="47.36095" lon="-1.90467">
        <ele>73</ele>
        <time>2016-01-02T15:53:26Z</time>
      </trkpt>
      <trkpt lat="47.36095" lon="-1.90463">
        <ele>73</ele>
        <time>2016-01-02T15:53:27Z</time>
      </trkpt>
      <trkpt lat="47.36094" lon="-1.90456">
        <ele>73</ele>
        <time>2016-01-02T15:53:29Z</time>
      </trkpt>
      <trkpt lat="47.36093" lon="-1.90452">
        <ele>73</ele>
        <time>2016-01-02T15:53:30Z</time>
      </trkpt>
      <trkpt lat="47.36092" lon="-1.90446">
        <ele>74</ele>
        <time>2016-01-02T15:53:32Z</time>
      </trkpt>
      <trkpt lat="47.3609" lon="-1.90444">
        <ele>74</ele>
        <time>2016-01-02T15:53:34Z</time>
      </trkpt>
      <trkpt lat="47.36086" lon="-1.90443">
        <ele>74</ele>
        <time>2016-01-02T15:53:36Z</time>
      </trkpt>
      <trkpt lat="47.36085" lon="-1.90447">
        <ele>73</ele>
        <time>2016-01-02T15:53:37Z</time>
      </trkpt>
      <trkpt lat="47.3608" lon="-1.9045">
        <ele>72</ele>
        <time>2016-01-02T15:53:39Z</time>
      </trkpt>
      <trkpt lat="47.36077" lon="-1.90451">
        <ele>72</ele>
        <time>2016-01-02T15:53:40Z</time>
      </trkpt>
      <trkpt lat="47.36074" lon="-1.90452">
        <ele>72</ele>
        <time>2016-01-02T15:53:41Z</time>
      </trkpt>
      <trkpt lat="47.3607" lon="-1.90454">
        <ele>72</ele>
        <time>2016-01-02T15:53:43Z</time>
      </trkpt>
      <trkpt lat="47.36067" lon="-1.90452">
        <ele>72</ele>
        <time>2016-01-02T15:53:47Z</time>
      </trkpt>
      <trkpt lat="47.36064" lon="-1.90451">
        <ele>72</ele>
        <time>2016-01-02T15:53:49Z</time>
      </trkpt>
      <trkpt lat="47.36059" lon="-1.90451">
        <ele>71</ele>
        <time>2016-01-02T15:53:51Z</time>
      </trkpt>
      <trkpt lat="47.36054" lon="-1.90451">
        <ele>71</ele>
        <time>2016-01-02T15:53:53Z</time>
      </trkpt>
      <trkpt lat="47.36051" lon="-1.90452">
        <ele>71</ele>
        <time>2016-01-02T15:53:55Z</time>
      </trkpt>
      <trkpt lat="47.36047" lon="-1.90454">
        <ele>71</ele>
        <time>2016-01-02T15:53:57Z</time>
      </trkpt>
      <trkpt lat="47.36044" lon="-1.90455">
        <ele>71</ele>
        <time>2016-01-02T15:54:01Z</time>
      </trkpt>
      <trkpt lat="47.3604" lon="-1.90457">
        <ele>71</ele>
        <time>2016-01-02T15:54:04Z</time>
      </trkpt>
      <trkpt lat="47.36039" lon="-1.9046">
        <ele>71</ele>
        <time>2016-01-02T15:54:07Z</time>
      </trkpt>
      <trkpt lat="47.36041" lon="-1.90463">
        <ele>71</ele>
        <time>2016-01-02T15:54:10Z</time>
      </trkpt>
      <trkpt lat="47.36044" lon="-1.90465">
        <ele>71</ele>
        <time>2016-01-02T15:54:13Z</time>
      </trkpt>
      <trkpt lat="47.36047" lon="-1.90469">
        <ele>71</ele>
        <time>2016-01-02T15:54:15Z</time>
      </trkpt>
      <trkpt lat="47.36047" lon="-1.90475">
        <ele>71</ele>
        <time>2016-01-02T15:54:17Z</time>
      </trkpt>
      <trkpt lat="47.36047" lon="-1.90482">
        <ele>71</ele>
        <time>2016-01-02T15:54:20Z</time>
      </trkpt>
      <trkpt lat="47.3605" lon="-1.90483">
        <ele>71</ele>
        <time>2016-01-02T15:54:23Z</time>
      </trkpt>
      <trkpt lat="47.36052" lon="-1.90486">
        <ele>71</ele>
        <time>2016-01-02T15:54:25Z</time>
      </trkpt>
      <trkpt lat="47.36053" lon="-1.90493">
        <ele>71</ele>
        <time>2016-01-02T15:54:27Z</time>
      </trkpt>
      <trkpt lat="47.36052" lon="-1.90498">
        <ele>71</ele>
        <time>2016-01-02T15:54:28Z</time>
      </trkpt>
      <trkpt lat="47.36053" lon="-1.90502">
        <ele>72</ele>
        <time>2016-01-02T15:54:29Z</time>
      </trkpt>
      <trkpt lat="47.36056" lon="-1.9051">
        <ele>72</ele>
        <time>2016-01-02T15:54:31Z</time>
      </trkpt>
      <trkpt lat="47.36057" lon="-1.90514">
        <ele>72</ele>
        <time>2016-01-02T15:54:32Z</time>
      </trkpt>
      <trkpt lat="47.3606" lon="-1.9052">
        <ele>72</ele>
        <time>2016-01-02T15:54:34Z</time>
      </trkpt>
      <trkpt lat="47.36064" lon="-1.90521">
        <ele>72</ele>
        <time>2016-01-02T15:54:36Z</time>
      </trkpt>
      <trkpt lat="47.36068" lon="-1.90524">
        <ele>72</ele>
        <time>2016-01-02T15:54:38Z</time>
      </trkpt>
      <trkpt lat="47.36073" lon="-1.90533">
        <ele>72</ele>
        <time>2016-01-02T15:54:40Z</time>
      </trkpt>
      <trkpt lat="47.36075" lon="-1.90537">
        <ele>72</ele>
        <time>2016-01-02T15:54:41Z</time>
      </trkpt>
      <trkpt lat="47.36078" lon="-1.90541">
        <ele>72</ele>
        <time>2016-01-02T15:54:42Z</time>
      </trkpt>
      <trkpt lat="47.36081" lon="-1.90549">
        <ele>72</ele>
        <time>2016-01-02T15:54:44Z</time>
      </trkpt>
      <trkpt lat="47.36082" lon="-1.90553">
        <ele>72</ele>
        <time>2016-01-02T15:54:45Z</time>
      </trkpt>
      <trkpt lat="47.36082" lon="-1.90558">
        <ele>72</ele>
        <time>2016-01-02T15:54:46Z</time>
      </trkpt>
      <trkpt lat="47.36083" lon="-1.90565">
        <ele>71</ele>
        <time>2016-01-02T15:54:48Z</time>
      </trkpt>
      <trkpt lat="47.36082" lon="-1.9057">
        <ele>71</ele>
        <time>2016-01-02T15:54:49Z</time>
      </trkpt>
      <trkpt lat="47.36081" lon="-1.90575">
        <ele>71</ele>
        <time>2016-01-02T15:54:50Z</time>
      </trkpt>
      <trkpt lat="47.36083" lon="-1.90584">
        <ele>71</ele>
        <time>2016-01-02T15:54:52Z</time>
      </trkpt>
      <trkpt lat="47.36087" lon="-1.90613">
        <ele>72</ele>
        <time>2016-01-02T15:54:55Z</time>
      </trkpt>
      <trkpt lat="47.36088" lon="-1.90619">
        <ele>72</ele>
        <time>2016-01-02T15:54:56Z</time>
      </trkpt>
      <trkpt lat="47.36094" lon="-1.90619">
        <ele>72</ele>
        <time>2016-01-02T15:54:57Z</time>
      </trkpt>
      <trkpt lat="47.36094" lon="-1.90624">
        <ele>72</ele>
        <time>2016-01-02T15:54:58Z</time>
      </trkpt>
      <trkpt lat="47.36096" lon="-1.90629">
        <ele>72</ele>
        <time>2016-01-02T15:54:59Z</time>
      </trkpt>
      <trkpt lat="47.36097" lon="-1.90635">
        <ele>72</ele>
        <time>2016-01-02T15:55:01Z</time>
      </trkpt>
      <trkpt lat="47.36097" lon="-1.90642">
        <ele>71</ele>
        <time>2016-01-02T15:55:02Z</time>
      </trkpt>
      <trkpt lat="47.36099" lon="-1.90647">
        <ele>71</ele>
        <time>2016-01-02T15:55:04Z</time>
      </trkpt>
      <trkpt lat="47.36102" lon="-1.9065">
        <ele>71</ele>
        <time>2016-01-02T15:55:06Z</time>
      </trkpt>
      <trkpt lat="47.36105" lon="-1.90653">
        <ele>71</ele>
        <time>2016-01-02T15:55:08Z</time>
      </trkpt>
      <trkpt lat="47.36108" lon="-1.90657">
        <ele>71</ele>
        <time>2016-01-02T15:55:10Z</time>
      </trkpt>
      <trkpt lat="47.36108" lon="-1.90661">
        <ele>71</ele>
        <time>2016-01-02T15:55:12Z</time>
      </trkpt>
      <trkpt lat="47.3611" lon="-1.90664">
        <ele>71</ele>
        <time>2016-01-02T15:55:14Z</time>
      </trkpt>
      <trkpt lat="47.36113" lon="-1.90667">
        <ele>70</ele>
        <time>2016-01-02T15:55:17Z</time>
      </trkpt>
      <trkpt lat="47.36113" lon="-1.90672">
        <ele>70</ele>
        <time>2016-01-02T15:55:19Z</time>
      </trkpt>
      <trkpt lat="47.36112" lon="-1.90676">
        <ele>70</ele>
        <time>2016-01-02T15:55:21Z</time>
      </trkpt>
      <trkpt lat="47.36114" lon="-1.9068">
        <ele>70</ele>
        <time>2016-01-02T15:55:23Z</time>
      </trkpt>
      <trkpt lat="47.36116" lon="-1.90683">
        <ele>70</ele>
        <time>2016-01-02T15:55:25Z</time>
      </trkpt>
      <trkpt lat="47.36119" lon="-1.90691">
        <ele>71</ele>
        <time>2016-01-02T15:55:27Z</time>
      </trkpt>
      <trkpt lat="47.36121" lon="-1.90696">
        <ele>71</ele>
        <time>2016-01-02T15:55:28Z</time>
      </trkpt>
      <trkpt lat="47.36123" lon="-1.90702">
        <ele>71</ele>
        <time>2016-01-02T15:55:29Z</time>
      </trkpt>
      <trkpt lat="47.36125" lon="-1.90705">
        <ele>71</ele>
        <time>2016-01-02T15:55:30Z</time>
      </trkpt>
      <trkpt lat="47.3613" lon="-1.90714">
        <ele>71</ele>
        <time>2016-01-02T15:55:32Z</time>
      </trkpt>
      <trkpt lat="47.36132" lon="-1.90717">
        <ele>71</ele>
        <time>2016-01-02T15:55:33Z</time>
      </trkpt>
      <trkpt lat="47.36133" lon="-1.90721">
        <ele>71</ele>
        <time>2016-01-02T15:55:34Z</time>
      </trkpt>
      <trkpt lat="47.36135" lon="-1.90724">
        <ele>71</ele>
        <time>2016-01-02T15:55:35Z</time>
      </trkpt>
      <trkpt lat="47.36137" lon="-1.9073">
        <ele>71</ele>
        <time>2016-01-02T15:55:37Z</time>
      </trkpt>
      <trkpt lat="47.36138" lon="-1.90736">
        <ele>71</ele>
        <time>2016-01-02T15:55:39Z</time>
      </trkpt>
      <trkpt lat="47.36137" lon="-1.90744">
        <ele>71</ele>
        <time>2016-01-02T15:55:41Z</time>
      </trkpt>
      <trkpt lat="47.36139" lon="-1.9075">
        <ele>71</ele>
        <time>2016-01-02T15:55:43Z</time>
      </trkpt>
      <trkpt lat="47.36141" lon="-1.90755">
        <ele>69</ele>
        <time>2016-01-02T15:55:45Z</time>
      </trkpt>
      <trkpt lat="47.36143" lon="-1.90759">
        <ele>69</ele>
        <time>2016-01-02T15:55:47Z</time>
      </trkpt>
      <trkpt lat="47.36144" lon="-1.90764">
        <ele>69</ele>
        <time>2016-01-02T15:55:49Z</time>
      </trkpt>
      <trkpt lat="47.36143" lon="-1.90769">
        <ele>69</ele>
        <time>2016-01-02T15:55:51Z</time>
      </trkpt>
      <trkpt lat="47.36142" lon="-1.90775">
        <ele>69</ele>
        <time>2016-01-02T15:55:53Z</time>
      </trkpt>
      <trkpt lat="47.36143" lon="-1.90779">
        <ele>69</ele>
        <time>2016-01-02T15:55:55Z</time>
      </trkpt>
      <trkpt lat="47.36145" lon="-1.90782">
        <ele>69</ele>
        <time>2016-01-02T15:55:57Z</time>
      </trkpt>
      <trkpt lat="47.36148" lon="-1.90785">
        <ele>69</ele>
        <time>2016-01-02T15:55:59Z</time>
      </trkpt>
      <trkpt lat="47.3615" lon="-1.90789">
        <ele>69</ele>
        <time>2016-01-02T15:56:01Z</time>
      </trkpt>
      <trkpt lat="47.36152" lon="-1.90794">
        <ele>69</ele>
        <time>2016-01-02T15:56:04Z</time>
      </trkpt>
      <trkpt lat="47.36152" lon="-1.908">
        <ele>68</ele>
        <time>2016-01-02T15:56:06Z</time>
      </trkpt>
      <trkpt lat="47.36153" lon="-1.90804">
        <ele>68</ele>
        <time>2016-01-02T15:56:08Z</time>
      </trkpt>
      <trkpt lat="47.36155" lon="-1.90808">
        <ele>68</ele>
        <time>2016-01-02T15:56:10Z</time>
      </trkpt>
      <trkpt lat="47.36155" lon="-1.90813">
        <ele>68</ele>
        <time>2016-01-02T15:56:12Z</time>
      </trkpt>
      <trkpt lat="47.36155" lon="-1.90818">
        <ele>68</ele>
        <time>2016-01-02T15:56:14Z</time>
      </trkpt>
      <trkpt lat="47.36156" lon="-1.90823">
        <ele>68</ele>
        <time>2016-01-02T15:56:16Z</time>
      </trkpt>
      <trkpt lat="47.36154" lon="-1.90827">
        <ele>68</ele>
        <time>2016-01-02T15:56:19Z</time>
      </trkpt>
      <trkpt lat="47.36145" lon="-1.9083">
        <ele>68</ele>
        <time>2016-01-02T15:57:34Z</time>
      </trkpt>
      <trkpt lat="47.36143" lon="-1.90827">
        <ele>68</ele>
        <time>2016-01-02T15:57:35Z</time>
      </trkpt>
      <trkpt lat="47.36141" lon="-1.90822">
        <ele>68</ele>
        <time>2016-01-02T15:57:36Z</time>
      </trkpt>
      <trkpt lat="47.3614" lon="-1.90817">
        <ele>68</ele>
        <time>2016-01-02T15:57:37Z</time>
      </trkpt>
      <trkpt lat="47.36139" lon="-1.90812">
        <ele>68</ele>
        <time>2016-01-02T15:57:38Z</time>
      </trkpt>
      <trkpt lat="47.36138" lon="-1.90806">
        <ele>68</ele>
        <time>2016-01-02T15:57:40Z</time>
      </trkpt>
      <trkpt lat="47.36136" lon="-1.90801">
        <ele>68</ele>
        <time>2016-01-02T15:57:43Z</time>
      </trkpt>
      <trkpt lat="47.36133" lon="-1.90797">
        <ele>68</ele>
        <time>2016-01-02T15:57:45Z</time>
      </trkpt>
      <trkpt lat="47.3613" lon="-1.90792">
        <ele>68</ele>
        <time>2016-01-02T15:57:47Z</time>
      </trkpt>
      <trkpt lat="47.36128" lon="-1.90789">
        <ele>68</ele>
        <time>2016-01-02T15:57:49Z</time>
      </trkpt>
      <trkpt lat="47.36125" lon="-1.90784">
        <ele>68</ele>
        <time>2016-01-02T15:57:51Z</time>
      </trkpt>
      <trkpt lat="47.36122" lon="-1.9078">
        <ele>68</ele>
        <time>2016-01-02T15:57:53Z</time>
      </trkpt>
      <trkpt lat="47.3612" lon="-1.90776">
        <ele>68</ele>
        <time>2016-01-02T15:57:55Z</time>
      </trkpt>
      <trkpt lat="47.36117" lon="-1.90773">
        <ele>68</ele>
        <time>2016-01-02T15:57:57Z</time>
      </trkpt>
      <trkpt lat="47.36115" lon="-1.90769">
        <ele>68</ele>
        <time>2016-01-02T15:57:59Z</time>
      </trkpt>
      <trkpt lat="47.36114" lon="-1.90763">
        <ele>68</ele>
        <time>2016-01-02T15:58:01Z</time>
      </trkpt>
      <trkpt lat="47.36114" lon="-1.90755">
        <ele>68</ele>
        <time>2016-01-02T15:58:03Z</time>
      </trkpt>
      <trkpt lat="47.36113" lon="-1.90749">
        <ele>69</ele>
        <time>2016-01-02T15:58:05Z</time>
      </trkpt>
      <trkpt lat="47.36113" lon="-1.90742">
        <ele>69</ele>
        <time>2016-01-02T15:58:07Z</time>
      </trkpt>
      <trkpt lat="47.36111" lon="-1.90736">
        <ele>69</ele>
        <time>2016-01-02T15:58:09Z</time>
      </trkpt>
      <trkpt lat="47.36109" lon="-1.9073">
        <ele>69</ele>
        <time>2016-01-02T15:58:10Z</time>
      </trkpt>
      <trkpt lat="47.36107" lon="-1.90726">
        <ele>69</ele>
        <time>2016-01-02T15:58:11Z</time>
      </trkpt>
      <trkpt lat="47.36104" lon="-1.90721">
        <ele>69</ele>
        <time>2016-01-02T15:58:13Z</time>
      </trkpt>
      <trkpt lat="47.36102" lon="-1.90715">
        <ele>70</ele>
        <time>2016-01-02T15:58:14Z</time>
      </trkpt>
      <trkpt lat="47.36101" lon="-1.90711">
        <ele>70</ele>
        <time>2016-01-02T15:58:15Z</time>
      </trkpt>
      <trkpt lat="47.36099" lon="-1.90706">
        <ele>70</ele>
        <time>2016-01-02T15:58:16Z</time>
      </trkpt>
      <trkpt lat="47.36099" lon="-1.90701">
        <ele>70</ele>
        <time>2016-01-02T15:58:17Z</time>
      </trkpt>
      <trkpt lat="47.36099" lon="-1.90692">
        <ele>70</ele>
        <time>2016-01-02T15:58:18Z</time>
      </trkpt>
      <trkpt lat="47.36098" lon="-1.90686">
        <ele>70</ele>
        <time>2016-01-02T15:58:19Z</time>
      </trkpt>
      <trkpt lat="47.36097" lon="-1.90682">
        <ele>70</ele>
        <time>2016-01-02T15:58:20Z</time>
      </trkpt>
      <trkpt lat="47.36094" lon="-1.90676">
        <ele>70</ele>
        <time>2016-01-02T15:58:22Z</time>
      </trkpt>
      <trkpt lat="47.3609" lon="-1.90673">
        <ele>69</ele>
        <time>2016-01-02T15:58:23Z</time>
      </trkpt>
      <trkpt lat="47.36086" lon="-1.90671">
        <ele>69</ele>
        <time>2016-01-02T15:58:24Z</time>
      </trkpt>
      <trkpt lat="47.36083" lon="-1.90669">
        <ele>69</ele>
        <time>2016-01-02T15:58:25Z</time>
      </trkpt>
      <trkpt lat="47.3608" lon="-1.90669">
        <ele>69</ele>
        <time>2016-01-02T15:58:26Z</time>
      </trkpt>
      <trkpt lat="47.36077" lon="-1.90667">
        <ele>69</ele>
        <time>2016-01-02T15:58:27Z</time>
      </trkpt>
      <trkpt lat="47.36074" lon="-1.90666">
        <ele>70</ele>
        <time>2016-01-02T15:58:28Z</time>
      </trkpt>
      <trkpt lat="47.36071" lon="-1.90665">
        <ele>70</ele>
        <time>2016-01-02T15:58:29Z</time>
      </trkpt>
      <trkpt lat="47.36068" lon="-1.90666">
        <ele>70</ele>
        <time>2016-01-02T15:58:30Z</time>
      </trkpt>
      <trkpt lat="47.36063" lon="-1.90666">
        <ele>71</ele>
        <time>2016-01-02T15:58:32Z</time>
      </trkpt>
      <trkpt lat="47.3606" lon="-1.90666">
        <ele>71</ele>
        <time>2016-01-02T15:58:33Z</time>
      </trkpt>
      <trkpt lat="47.36057" lon="-1.90667">
        <ele>70</ele>
        <time>2016-01-02T15:58:34Z</time>
      </trkpt>
      <trkpt lat="47.36054" lon="-1.90668">
        <ele>70</ele>
        <time>2016-01-02T15:58:35Z</time>
      </trkpt>
      <trkpt lat="47.36049" lon="-1.90667">
        <ele>70</ele>
        <time>2016-01-02T15:58:37Z</time>
      </trkpt>
      <trkpt lat="47.36044" lon="-1.90669">
        <ele>70</ele>
        <time>2016-01-02T15:58:39Z</time>
      </trkpt>
      <trkpt lat="47.3604" lon="-1.9067">
        <ele>71</ele>
        <time>2016-01-02T15:58:41Z</time>
      </trkpt>
      <trkpt lat="47.36037" lon="-1.9067">
        <ele>71</ele>
        <time>2016-01-02T15:58:42Z</time>
      </trkpt>
      <trkpt lat="47.36032" lon="-1.90671">
        <ele>71</ele>
        <time>2016-01-02T15:58:44Z</time>
      </trkpt>
      <trkpt lat="47.36029" lon="-1.90669">
        <ele>71</ele>
        <time>2016-01-02T15:58:45Z</time>
      </trkpt>
      <trkpt lat="47.36024" lon="-1.90668">
        <ele>72</ele>
        <time>2016-01-02T15:58:47Z</time>
      </trkpt>
      <trkpt lat="47.36019" lon="-1.90667">
        <ele>72</ele>
        <time>2016-01-02T15:58:49Z</time>
      </trkpt>
      <trkpt lat="47.36015" lon="-1.90666">
        <ele>73</ele>
        <time>2016-01-02T15:58:51Z</time>
      </trkpt>
      <trkpt lat="47.3601" lon="-1.90666">
        <ele>73</ele>
        <time>2016-01-02T15:58:53Z</time>
      </trkpt>
      <trkpt lat="47.36005" lon="-1.90667">
        <ele>73</ele>
        <time>2016-01-02T15:58:55Z</time>
      </trkpt>
      <trkpt lat="47.35999" lon="-1.90668">
        <ele>74</ele>
        <time>2016-01-02T15:58:57Z</time>
      </trkpt>
      <trkpt lat="47.35995" lon="-1.90668">
        <ele>74</ele>
        <time>2016-01-02T15:58:58Z</time>
      </trkpt>
      <trkpt lat="47.35992" lon="-1.90668">
        <ele>74</ele>
        <time>2016-01-02T15:58:59Z</time>
      </trkpt>
      <trkpt lat="47.35986" lon="-1.90668">
        <ele>75</ele>
        <time>2016-01-02T15:59:01Z</time>
      </trkpt>
      <trkpt lat="47.35981" lon="-1.90668">
        <ele>75</ele>
        <time>2016-01-02T15:59:03Z</time>
      </trkpt>
      <trkpt lat="47.35976" lon="-1.90667">
        <ele>75</ele>
        <time>2016-01-02T15:59:05Z</time>
      </trkpt>
      <trkpt lat="47.35974" lon="-1.90663">
        <ele>75</ele>
        <time>2016-01-02T15:59:06Z</time>
      </trkpt>
      <trkpt lat="47.35973" lon="-1.90656">
        <ele>75</ele>
        <time>2016-01-02T15:59:08Z</time>
      </trkpt>
      <trkpt lat="47.35971" lon="-1.90649">
        <ele>75</ele>
        <time>2016-01-02T15:59:10Z</time>
      </trkpt>
      <trkpt lat="47.3597" lon="-1.90644">
        <ele>75</ele>
        <time>2016-01-02T15:59:11Z</time>
      </trkpt>
      <trkpt lat="47.35968" lon="-1.90638">
        <ele>76</ele>
        <time>2016-01-02T15:59:13Z</time>
      </trkpt>
      <trkpt lat="47.35967" lon="-1.90631">
        <ele>76</ele>
        <time>2016-01-02T15:59:15Z</time>
      </trkpt>
      <trkpt lat="47.35965" lon="-1.90624">
        <ele>76</ele>
        <time>2016-01-02T15:59:17Z</time>
      </trkpt>
      <trkpt lat="47.35964" lon="-1.90617">
        <ele>76</ele>
        <time>2016-01-02T15:59:19Z</time>
      </trkpt>
      <trkpt lat="47.35963" lon="-1.90612">
        <ele>76</ele>
        <time>2016-01-02T15:59:20Z</time>
      </trkpt>
      <trkpt lat="47.35963" lon="-1.90608">
        <ele>76</ele>
        <time>2016-01-02T15:59:21Z</time>
      </trkpt>
      <trkpt lat="47.35962" lon="-1.90603">
        <ele>76</ele>
        <time>2016-01-02T15:59:22Z</time>
      </trkpt>
      <trkpt lat="47.35961" lon="-1.90598">
        <ele>76</ele>
        <time>2016-01-02T15:59:23Z</time>
      </trkpt>
      <trkpt lat="47.35961" lon="-1.90593">
        <ele>76</ele>
        <time>2016-01-02T15:59:24Z</time>
      </trkpt>
      <trkpt lat="47.35959" lon="-1.90589">
        <ele>76</ele>
        <time>2016-01-02T15:59:25Z</time>
      </trkpt>
      <trkpt lat="47.35957" lon="-1.90582">
        <ele>74</ele>
        <time>2016-01-02T15:59:27Z</time>
      </trkpt>
      <trkpt lat="47.35954" lon="-1.90578">
        <ele>74</ele>
        <time>2016-01-02T15:59:28Z</time>
      </trkpt>
      <trkpt lat="47.35953" lon="-1.90574">
        <ele>74</ele>
        <time>2016-01-02T15:59:29Z</time>
      </trkpt>
      <trkpt lat="47.35952" lon="-1.90569">
        <ele>74</ele>
        <time>2016-01-02T15:59:30Z</time>
      </trkpt>
      <trkpt lat="47.3595" lon="-1.90565">
        <ele>74</ele>
        <time>2016-01-02T15:59:31Z</time>
      </trkpt>
      <trkpt lat="47.35947" lon="-1.90561">
        <ele>74</ele>
        <time>2016-01-02T15:59:32Z</time>
      </trkpt>
      <trkpt lat="47.35944" lon="-1.90559">
        <ele>74</ele>
        <time>2016-01-02T15:59:33Z</time>
      </trkpt>
      <trkpt lat="47.35942" lon="-1.90557">
        <ele>74</ele>
        <time>2016-01-02T15:59:34Z</time>
      </trkpt>
      <trkpt lat="47.35938" lon="-1.90555">
        <ele>75</ele>
        <time>2016-01-02T15:59:35Z</time>
      </trkpt>
      <trkpt lat="47.35935" lon="-1.90555">
        <ele>75</ele>
        <time>2016-01-02T15:59:36Z</time>
      </trkpt>
      <trkpt lat="47.35932" lon="-1.90555">
        <ele>75</ele>
        <time>2016-01-02T15:59:37Z</time>
      </trkpt>
      <trkpt lat="47.35929" lon="-1.90556">
        <ele>75</ele>
        <time>2016-01-02T15:59:38Z</time>
      </trkpt>
      <trkpt lat="47.35926" lon="-1.90557">
        <ele>75</ele>
        <time>2016-01-02T15:59:39Z</time>
      </trkpt>
      <trkpt lat="47.35923" lon="-1.90557">
        <ele>75</ele>
        <time>2016-01-02T15:59:40Z</time>
      </trkpt>
      <trkpt lat="47.35919" lon="-1.90557">
        <ele>75</ele>
        <time>2016-01-02T15:59:41Z</time>
      </trkpt>
      <trkpt lat="47.35916" lon="-1.90557">
        <ele>77</ele>
        <time>2016-01-02T15:59:42Z</time>
      </trkpt>
      <trkpt lat="47.35913" lon="-1.90557">
        <ele>77</ele>
        <time>2016-01-02T15:59:43Z</time>
      </trkpt>
      <trkpt lat="47.3591" lon="-1.90557">
        <ele>77</ele>
        <time>2016-01-02T15:59:44Z</time>
      </trkpt>
      <trkpt lat="47.35907" lon="-1.90557">
        <ele>77</ele>
        <time>2016-01-02T15:59:45Z</time>
      </trkpt>
      <trkpt lat="47.35903" lon="-1.90556">
        <ele>77</ele>
        <time>2016-01-02T15:59:46Z</time>
      </trkpt>
      <trkpt lat="47.359" lon="-1.90555">
        <ele>77</ele>
        <time>2016-01-02T15:59:47Z</time>
      </trkpt>
      <trkpt lat="47.35897" lon="-1.90554">
        <ele>77</ele>
        <time>2016-01-02T15:59:48Z</time>
      </trkpt>
      <trkpt lat="47.35893" lon="-1.90551">
        <ele>77</ele>
        <time>2016-01-02T15:59:49Z</time>
      </trkpt>
      <trkpt lat="47.3589" lon="-1.90549">
        <ele>77</ele>
        <time>2016-01-02T15:59:50Z</time>
      </trkpt>
      <trkpt lat="47.35887" lon="-1.90547">
        <ele>77</ele>
        <time>2016-01-02T15:59:51Z</time>
      </trkpt>
      <trkpt lat="47.35884" lon="-1.90544">
        <ele>77</ele>
        <time>2016-01-02T15:59:52Z</time>
      </trkpt>
      <trkpt lat="47.35882" lon="-1.90542">
        <ele>77</ele>
        <time>2016-01-02T15:59:53Z</time>
      </trkpt>
      <trkpt lat="47.35879" lon="-1.9054">
        <ele>77</ele>
        <time>2016-01-02T15:59:54Z</time>
      </trkpt>
      <trkpt lat="47.35878" lon="-1.90534">
        <ele>77</ele>
        <time>2016-01-02T15:59:55Z</time>
      </trkpt>
      <trkpt lat="47.35877" lon="-1.90528">
        <ele>77</ele>
        <time>2016-01-02T15:59:57Z</time>
      </trkpt>
      <trkpt lat="47.35878" lon="-1.90522">
        <ele>76</ele>
        <time>2016-01-02T15:59:59Z</time>
      </trkpt>
      <trkpt lat="47.35881" lon="-1.90517">
        <ele>76</ele>
        <time>2016-01-02T16:00:01Z</time>
      </trkpt>
      <trkpt lat="47.35885" lon="-1.90513">
        <ele>76</ele>
        <time>2016-01-02T16:00:03Z</time>
      </trkpt>
      <trkpt lat="47.35887" lon="-1.90508">
        <ele>76</ele>
        <time>2016-01-02T16:00:05Z</time>
      </trkpt>
      <trkpt lat="47.35889" lon="-1.90503">
        <ele>76</ele>
        <time>2016-01-02T16:00:07Z</time>
      </trkpt>
      <trkpt lat="47.35891" lon="-1.90499">
        <ele>75</ele>
        <time>2016-01-02T16:00:09Z</time>
      </trkpt>
      <trkpt lat="47.35895" lon="-1.9049">
        <ele>75</ele>
        <time>2016-01-02T16:00:11Z</time>
      </trkpt>
      <trkpt lat="47.35897" lon="-1.90486">
        <ele>75</ele>
        <time>2016-01-02T16:00:12Z</time>
      </trkpt>
      <trkpt lat="47.35899" lon="-1.90482">
        <ele>75</ele>
        <time>2016-01-02T16:00:13Z</time>
      </trkpt>
      <trkpt lat="47.35901" lon="-1.90479">
        <ele>75</ele>
        <time>2016-01-02T16:00:14Z</time>
      </trkpt>
      <trkpt lat="47.35904" lon="-1.90472">
        <ele>75</ele>
        <time>2016-01-02T16:00:16Z</time>
      </trkpt>
      <trkpt lat="47.35906" lon="-1.90469">
        <ele>75</ele>
        <time>2016-01-02T16:00:17Z</time>
      </trkpt>
      <trkpt lat="47.35908" lon="-1.90465">
        <ele>75</ele>
        <time>2016-01-02T16:00:18Z</time>
      </trkpt>
      <trkpt lat="47.3591" lon="-1.9046">
        <ele>75</ele>
        <time>2016-01-02T16:00:19Z</time>
      </trkpt>
      <trkpt lat="47.35912" lon="-1.90456">
        <ele>75</ele>
        <time>2016-01-02T16:00:20Z</time>
      </trkpt>
      <trkpt lat="47.35914" lon="-1.90451">
        <ele>75</ele>
        <time>2016-01-02T16:00:21Z</time>
      </trkpt>
      <trkpt lat="47.35916" lon="-1.90446">
        <ele>75</ele>
        <time>2016-01-02T16:00:22Z</time>
      </trkpt>
      <trkpt lat="47.35919" lon="-1.90442">
        <ele>73</ele>
        <time>2016-01-02T16:00:23Z</time>
      </trkpt>
      <trkpt lat="47.35928" lon="-1.90431">
        <ele>73</ele>
        <time>2016-01-02T16:00:24Z</time>
      </trkpt>
      <trkpt lat="47.35931" lon="-1.90424">
        <ele>73</ele>
        <time>2016-01-02T16:00:25Z</time>
      </trkpt>
      <trkpt lat="47.35934" lon="-1.90418">
        <ele>73</ele>
        <time>2016-01-02T16:00:26Z</time>
      </trkpt>
      <trkpt lat="47.35936" lon="-1.90408">
        <ele>73</ele>
        <time>2016-01-02T16:00:27Z</time>
      </trkpt>
      <trkpt lat="47.35938" lon="-1.90401">
        <ele>73</ele>
        <time>2016-01-02T16:00:28Z</time>
      </trkpt>
      <trkpt lat="47.35941" lon="-1.90394">
        <ele>72</ele>
        <time>2016-01-02T16:00:29Z</time>
      </trkpt>
      <trkpt lat="47.35944" lon="-1.90386">
        <ele>72</ele>
        <time>2016-01-02T16:00:30Z</time>
      </trkpt>
      <trkpt lat="47.35947" lon="-1.90379">
        <ele>72</ele>
        <time>2016-01-02T16:00:31Z</time>
      </trkpt>
      <trkpt lat="47.35946" lon="-1.9037">
        <ele>72</ele>
        <time>2016-01-02T16:00:32Z</time>
      </trkpt>
      <trkpt lat="47.35949" lon="-1.90362">
        <ele>72</ele>
        <time>2016-01-02T16:00:33Z</time>
      </trkpt>
      <trkpt lat="47.35951" lon="-1.90354">
        <ele>72</ele>
        <time>2016-01-02T16:00:34Z</time>
      </trkpt>
      <trkpt lat="47.35957" lon="-1.90347">
        <ele>72</ele>
        <time>2016-01-02T16:00:35Z</time>
      </trkpt>
      <trkpt lat="47.3596" lon="-1.90338">
        <ele>72</ele>
        <time>2016-01-02T16:00:36Z</time>
      </trkpt>
      <trkpt lat="47.35963" lon="-1.9033">
        <ele>73</ele>
        <time>2016-01-02T16:00:37Z</time>
      </trkpt>
      <trkpt lat="47.35972" lon="-1.90319">
        <ele>73</ele>
        <time>2016-01-02T16:00:38Z</time>
      </trkpt>
      <trkpt lat="47.35976" lon="-1.9031">
        <ele>73</ele>
        <time>2016-01-02T16:00:39Z</time>
      </trkpt>
      <trkpt lat="47.3598" lon="-1.90301">
        <ele>73</ele>
        <time>2016-01-02T16:00:40Z</time>
      </trkpt>
      <trkpt lat="47.35985" lon="-1.90301">
        <ele>73</ele>
        <time>2016-01-02T16:00:41Z</time>
      </trkpt>
      <trkpt lat="47.35987" lon="-1.90291">
        <ele>73</ele>
        <time>2016-01-02T16:00:42Z</time>
      </trkpt>
      <trkpt lat="47.35992" lon="-1.90284">
        <ele>73</ele>
        <time>2016-01-02T16:00:43Z</time>
      </trkpt>
      <trkpt lat="47.35996" lon="-1.90277">
        <ele>73</ele>
        <time>2016-01-02T16:00:44Z</time>
      </trkpt>
      <trkpt lat="47.36002" lon="-1.90271">
        <ele>74</ele>
        <time>2016-01-02T16:00:45Z</time>
      </trkpt>
      <trkpt lat="47.36006" lon="-1.90265">
        <ele>74</ele>
        <time>2016-01-02T16:00:46Z</time>
      </trkpt>
      <trkpt lat="47.36011" lon="-1.90259">
        <ele>74</ele>
        <time>2016-01-02T16:00:47Z</time>
      </trkpt>
      <trkpt lat="47.36015" lon="-1.90254">
        <ele>74</ele>
        <time>2016-01-02T16:00:48Z</time>
      </trkpt>
      <trkpt lat="47.36027" lon="-1.90242">
        <ele>76</ele>
        <time>2016-01-02T16:00:51Z</time>
      </trkpt>
      <trkpt lat="47.36036" lon="-1.90232">
        <ele>77</ele>
        <time>2016-01-02T16:00:53Z</time>
      </trkpt>
      <trkpt lat="47.3604" lon="-1.9023">
        <ele>77</ele>
        <time>2016-01-02T16:00:55Z</time>
      </trkpt>
      <trkpt lat="47.36043" lon="-1.90227">
        <ele>77</ele>
        <time>2016-01-02T16:00:57Z</time>
      </trkpt>
      <trkpt lat="47.36046" lon="-1.90224">
        <ele>77</ele>
        <time>2016-01-02T16:00:58Z</time>
      </trkpt>
      <trkpt lat="47.36049" lon="-1.90221">
        <ele>77</ele>
        <time>2016-01-02T16:00:59Z</time>
      </trkpt>
      <trkpt lat="47.3605" lon="-1.90217">
        <ele>77</ele>
        <time>2016-01-02T16:01:00Z</time>
      </trkpt>
      <trkpt lat="47.36056" lon="-1.90211">
        <ele>78</ele>
        <time>2016-01-02T16:01:01Z</time>
      </trkpt>
      <trkpt lat="47.36059" lon="-1.90206">
        <ele>78</ele>
        <time>2016-01-02T16:01:02Z</time>
      </trkpt>
      <trkpt lat="47.36063" lon="-1.902">
        <ele>78</ele>
        <time>2016-01-02T16:01:03Z</time>
      </trkpt>
      <trkpt lat="47.36067" lon="-1.90194">
        <ele>78</ele>
        <time>2016-01-02T16:01:04Z</time>
      </trkpt>
      <trkpt lat="47.3607" lon="-1.9019">
        <ele>78</ele>
        <time>2016-01-02T16:01:05Z</time>
      </trkpt>
      <trkpt lat="47.36077" lon="-1.90183">
        <ele>79</ele>
        <time>2016-01-02T16:01:06Z</time>
      </trkpt>
      <trkpt lat="47.36082" lon="-1.90179">
        <ele>79</ele>
        <time>2016-01-02T16:01:07Z</time>
      </trkpt>
      <trkpt lat="47.36085" lon="-1.90173">
        <ele>79</ele>
        <time>2016-01-02T16:01:08Z</time>
      </trkpt>
      <trkpt lat="47.36089" lon="-1.90169">
        <ele>79</ele>
        <time>2016-01-02T16:01:09Z</time>
      </trkpt>
      <trkpt lat="47.36092" lon="-1.90165">
        <ele>79</ele>
        <time>2016-01-02T16:01:10Z</time>
      </trkpt>
      <trkpt lat="47.36094" lon="-1.90159">
        <ele>79</ele>
        <time>2016-01-02T16:01:11Z</time>
      </trkpt>
      <trkpt lat="47.36097" lon="-1.90155">
        <ele>79</ele>
        <time>2016-01-02T16:01:12Z</time>
      </trkpt>
      <trkpt lat="47.361" lon="-1.90151">
        <ele>79</ele>
        <time>2016-01-02T16:01:13Z</time>
      </trkpt>
      <trkpt lat="47.36104" lon="-1.90153">
        <ele>79</ele>
        <time>2016-01-02T16:01:14Z</time>
      </trkpt>
      <trkpt lat="47.3611" lon="-1.90154">
        <ele>78</ele>
        <time>2016-01-02T16:01:15Z</time>
      </trkpt>
      <trkpt lat="47.36115" lon="-1.90155">
        <ele>78</ele>
        <time>2016-01-02T16:01:16Z</time>
      </trkpt>
      <trkpt lat="47.36119" lon="-1.90157">
        <ele>78</ele>
        <time>2016-01-02T16:01:17Z</time>
      </trkpt>
      <trkpt lat="47.36126" lon="-1.90158">
        <ele>78</ele>
        <time>2016-01-02T16:01:18Z</time>
      </trkpt>
      <trkpt lat="47.36132" lon="-1.90159">
        <ele>78</ele>
        <time>2016-01-02T16:01:19Z</time>
      </trkpt>
      <trkpt lat="47.36138" lon="-1.9016">
        <ele>78</ele>
        <time>2016-01-02T16:01:20Z</time>
      </trkpt>
      <trkpt lat="47.36147" lon="-1.90163">
        <ele>77</ele>
        <time>2016-01-02T16:01:21Z</time>
      </trkpt>
      <trkpt lat="47.36155" lon="-1.90167">
        <ele>76</ele>
        <time>2016-01-02T16:01:22Z</time>
      </trkpt>
      <trkpt lat="47.36163" lon="-1.90169">
        <ele>76</ele>
        <time>2016-01-02T16:01:23Z</time>
      </trkpt>
      <trkpt lat="47.36171" lon="-1.90172">
        <ele>75</ele>
        <time>2016-01-02T16:01:24Z</time>
      </trkpt>
      <trkpt lat="47.36178" lon="-1.90175">
        <ele>75</ele>
        <time>2016-01-02T16:01:25Z</time>
      </trkpt>
      <trkpt lat="47.36185" lon="-1.90179">
        <ele>74</ele>
        <time>2016-01-02T16:01:26Z</time>
      </trkpt>
      <trkpt lat="47.36193" lon="-1.90184">
        <ele>74</ele>
        <time>2016-01-02T16:01:27Z</time>
      </trkpt>
      <trkpt lat="47.36201" lon="-1.90188">
        <ele>73</ele>
        <time>2016-01-02T16:01:28Z</time>
      </trkpt>
      <trkpt lat="47.36208" lon="-1.90193">
        <ele>73</ele>
        <time>2016-01-02T16:01:29Z</time>
      </trkpt>
      <trkpt lat="47.36215" lon="-1.902">
        <ele>73</ele>
        <time>2016-01-02T16:01:30Z</time>
      </trkpt>
      <trkpt lat="47.36221" lon="-1.90207">
        <ele>72</ele>
        <time>2016-01-02T16:01:31Z</time>
      </trkpt>
      <trkpt lat="47.36227" lon="-1.90216">
        <ele>72</ele>
        <time>2016-01-02T16:01:32Z</time>
      </trkpt>
      <trkpt lat="47.36233" lon="-1.90225">
        <ele>72</ele>
        <time>2016-01-02T16:01:33Z</time>
      </trkpt>
      <trkpt lat="47.36238" lon="-1.90233">
        <ele>72</ele>
        <time>2016-01-02T16:01:34Z</time>
      </trkpt>
      <trkpt lat="47.36243" lon="-1.90242">
        <ele>71</ele>
        <time>2016-01-02T16:01:35Z</time>
      </trkpt>
      <trkpt lat="47.36249" lon="-1.90251">
        <ele>70</ele>
        <time>2016-01-02T16:01:36Z</time>
      </trkpt>
      <trkpt lat="47.36253" lon="-1.90259">
        <ele>70</ele>
        <time>2016-01-02T16:01:37Z</time>
      </trkpt>
      <trkpt lat="47.36259" lon="-1.90267">
        <ele>70</ele>
        <time>2016-01-02T16:01:38Z</time>
      </trkpt>
      <trkpt lat="47.36266" lon="-1.90279">
        <ele>70</ele>
        <time>2016-01-02T16:01:39Z</time>
      </trkpt>
      <trkpt lat="47.36271" lon="-1.90287">
        <ele>70</ele>
        <time>2016-01-02T16:01:40Z</time>
      </trkpt>
      <trkpt lat="47.36276" lon="-1.90295">
        <ele>70</ele>
        <time>2016-01-02T16:01:41Z</time>
      </trkpt>
      <trkpt lat="47.36281" lon="-1.90303">
        <ele>70</ele>
        <time>2016-01-02T16:01:42Z</time>
      </trkpt>
      <trkpt lat="47.36286" lon="-1.90311">
        <ele>70</ele>
        <time>2016-01-02T16:01:43Z</time>
      </trkpt>
      <trkpt lat="47.36292" lon="-1.9032">
        <ele>70</ele>
        <time>2016-01-02T16:01:44Z</time>
      </trkpt>
      <trkpt lat="47.36298" lon="-1.90325">
        <ele>70</ele>
        <time>2016-01-02T16:01:45Z</time>
      </trkpt>
      <trkpt lat="47.36303" lon="-1.90334">
        <ele>70</ele>
        <time>2016-01-02T16:01:46Z</time>
      </trkpt>
      <trkpt lat="47.36308" lon="-1.90342">
        <ele>70</ele>
        <time>2016-01-02T16:01:47Z</time>
      </trkpt>
      <trkpt lat="47.36313" lon="-1.9035">
        <ele>70</ele>
        <time>2016-01-02T16:01:48Z</time>
      </trkpt>
      <trkpt lat="47.36318" lon="-1.90358">
        <ele>70</ele>
        <time>2016-01-02T16:01:49Z</time>
      </trkpt>
      <trkpt lat="47.36323" lon="-1.90366">
        <ele>70</ele>
        <time>2016-01-02T16:01:50Z</time>
      </trkpt>
      <trkpt lat="47.36328" lon="-1.90375">
        <ele>70</ele>
        <time>2016-01-02T16:01:51Z</time>
      </trkpt>
      <trkpt lat="47.36335" lon="-1.90382">
        <ele>69</ele>
        <time>2016-01-02T16:01:52Z</time>
      </trkpt>
      <trkpt lat="47.3634" lon="-1.90389">
        <ele>69</ele>
        <time>2016-01-02T16:01:53Z</time>
      </trkpt>
      <trkpt lat="47.36345" lon="-1.90398">
        <ele>69</ele>
        <time>2016-01-02T16:01:54Z</time>
      </trkpt>
      <trkpt lat="47.36348" lon="-1.90405">
        <ele>68</ele>
        <time>2016-01-02T16:01:55Z</time>
      </trkpt>
      <trkpt lat="47.36352" lon="-1.90412">
        <ele>69</ele>
        <time>2016-01-02T16:01:56Z</time>
      </trkpt>
      <trkpt lat="47.36357" lon="-1.90419">
        <ele>68</ele>
        <time>2016-01-02T16:01:57Z</time>
      </trkpt>
      <trkpt lat="47.36362" lon="-1.90426">
        <ele>68</ele>
        <time>2016-01-02T16:01:58Z</time>
      </trkpt>
      <trkpt lat="47.36368" lon="-1.90433">
        <ele>68</ele>
        <time>2016-01-02T16:01:59Z</time>
      </trkpt>
      <trkpt lat="47.36373" lon="-1.9044">
        <ele>68</ele>
        <time>2016-01-02T16:02:00Z</time>
      </trkpt>
      <trkpt lat="47.36377" lon="-1.90447">
        <ele>68</ele>
        <time>2016-01-02T16:02:01Z</time>
      </trkpt>
      <trkpt lat="47.3638" lon="-1.90454">
        <ele>68</ele>
        <time>2016-01-02T16:02:02Z</time>
      </trkpt>
      <trkpt lat="47.36385" lon="-1.90462">
        <ele>68</ele>
        <time>2016-01-02T16:02:03Z</time>
      </trkpt>
      <trkpt lat="47.3639" lon="-1.90469">
        <ele>67</ele>
        <time>2016-01-02T16:02:04Z</time>
      </trkpt>
      <trkpt lat="47.36395" lon="-1.90476">
        <ele>67</ele>
        <time>2016-01-02T16:02:05Z</time>
      </trkpt>
      <trkpt lat="47.364" lon="-1.90483">
        <ele>67</ele>
        <time>2016-01-02T16:02:06Z</time>
      </trkpt>
      <trkpt lat="47.36404" lon="-1.9049">
        <ele>67</ele>
        <time>2016-01-02T16:02:07Z</time>
      </trkpt>
      <trkpt lat="47.36409" lon="-1.90497">
        <ele>67</ele>
        <time>2016-01-02T16:02:08Z</time>
      </trkpt>
      <trkpt lat="47.36413" lon="-1.90504">
        <ele>67</ele>
        <time>2016-01-02T16:02:09Z</time>
      </trkpt>
      <trkpt lat="47.36418" lon="-1.9051">
        <ele>67</ele>
        <time>2016-01-02T16:02:10Z</time>
      </trkpt>
      <trkpt lat="47.36422" lon="-1.90516">
        <ele>67</ele>
        <time>2016-01-02T16:02:11Z</time>
      </trkpt>
      <trkpt lat="47.36427" lon="-1.90523">
        <ele>67</ele>
        <time>2016-01-02T16:02:12Z</time>
      </trkpt>
      <trkpt lat="47.36432" lon="-1.90531">
        <ele>67</ele>
        <time>2016-01-02T16:02:13Z</time>
      </trkpt>
      <trkpt lat="47.36436" lon="-1.90538">
        <ele>67</ele>
        <time>2016-01-02T16:02:14Z</time>
      </trkpt>
      <trkpt lat="47.36442" lon="-1.90543">
        <ele>67</ele>
        <time>2016-01-02T16:02:15Z</time>
      </trkpt>
      <trkpt lat="47.36446" lon="-1.9055">
        <ele>67</ele>
        <time>2016-01-02T16:02:16Z</time>
      </trkpt>
      <trkpt lat="47.36449" lon="-1.90559">
        <ele>67</ele>
        <time>2016-01-02T16:02:17Z</time>
      </trkpt>
      <trkpt lat="47.36454" lon="-1.90567">
        <ele>67</ele>
        <time>2016-01-02T16:02:18Z</time>
      </trkpt>
      <trkpt lat="47.36457" lon="-1.90576">
        <ele>67</ele>
        <time>2016-01-02T16:02:19Z</time>
      </trkpt>
      <trkpt lat="47.36462" lon="-1.90584">
        <ele>66</ele>
        <time>2016-01-02T16:02:20Z</time>
      </trkpt>
      <trkpt lat="47.36467" lon="-1.90594">
        <ele>66</ele>
        <time>2016-01-02T16:02:21Z</time>
      </trkpt>
      <trkpt lat="47.36471" lon="-1.90603">
        <ele>66</ele>
        <time>2016-01-02T16:02:22Z</time>
      </trkpt>
      <trkpt lat="47.36476" lon="-1.90611">
        <ele>66</ele>
        <time>2016-01-02T16:02:23Z</time>
      </trkpt>
      <trkpt lat="47.36481" lon="-1.90619">
        <ele>66</ele>
        <time>2016-01-02T16:02:24Z</time>
      </trkpt>
      <trkpt lat="47.36485" lon="-1.90626">
        <ele>66</ele>
        <time>2016-01-02T16:02:25Z</time>
      </trkpt>
      <trkpt lat="47.36491" lon="-1.90633">
        <ele>66</ele>
        <time>2016-01-02T16:02:26Z</time>
      </trkpt>
      <trkpt lat="47.36495" lon="-1.9064">
        <ele>67</ele>
        <time>2016-01-02T16:02:27Z</time>
      </trkpt>
      <trkpt lat="47.365" lon="-1.90648">
        <ele>70</ele>
        <time>2016-01-02T16:02:28Z</time>
      </trkpt>
      <trkpt lat="47.36507" lon="-1.90655">
        <ele>69</ele>
        <time>2016-01-02T16:02:29Z</time>
      </trkpt>
      <trkpt lat="47.36511" lon="-1.90662">
        <ele>69</ele>
        <time>2016-01-02T16:02:30Z</time>
      </trkpt>
      <trkpt lat="47.36515" lon="-1.90669">
        <ele>71</ele>
        <time>2016-01-02T16:02:31Z</time>
      </trkpt>
      <trkpt lat="47.36519" lon="-1.90676">
        <ele>71</ele>
        <time>2016-01-02T16:02:32Z</time>
      </trkpt>
      <trkpt lat="47.36522" lon="-1.90683">
        <ele>72</ele>
        <time>2016-01-02T16:02:33Z</time>
      </trkpt>
      <trkpt lat="47.36526" lon="-1.90691">
        <ele>72</ele>
        <time>2016-01-02T16:02:34Z</time>
      </trkpt>
      <trkpt lat="47.36529" lon="-1.90698">
        <ele>73</ele>
        <time>2016-01-02T16:02:35Z</time>
      </trkpt>
      <trkpt lat="47.36529" lon="-1.90709">
        <ele>73</ele>
        <time>2016-01-02T16:02:36Z</time>
      </trkpt>
      <trkpt lat="47.36532" lon="-1.90716">
        <ele>73</ele>
        <time>2016-01-02T16:02:37Z</time>
      </trkpt>
      <trkpt lat="47.36535" lon="-1.90721">
        <ele>74</ele>
        <time>2016-01-02T16:02:38Z</time>
      </trkpt>
      <trkpt lat="47.36539" lon="-1.90727">
        <ele>74</ele>
        <time>2016-01-02T16:02:39Z</time>
      </trkpt>
      <trkpt lat="47.36541" lon="-1.90733">
        <ele>74</ele>
        <time>2016-01-02T16:02:40Z</time>
      </trkpt>
      <trkpt lat="47.36544" lon="-1.90739">
        <ele>74</ele>
        <time>2016-01-02T16:02:41Z</time>
      </trkpt>
      <trkpt lat="47.36547" lon="-1.90745">
        <ele>75</ele>
        <time>2016-01-02T16:02:42Z</time>
      </trkpt>
      <trkpt lat="47.3655" lon="-1.90754">
        <ele>76</ele>
        <time>2016-01-02T16:02:44Z</time>
      </trkpt>
      <trkpt lat="47.36552" lon="-1.90759">
        <ele>77</ele>
        <time>2016-01-02T16:02:45Z</time>
      </trkpt>
      <trkpt lat="47.36555" lon="-1.90764">
        <ele>77</ele>
        <time>2016-01-02T16:02:46Z</time>
      </trkpt>
      <trkpt lat="47.36557" lon="-1.9077">
        <ele>77</ele>
        <time>2016-01-02T16:02:47Z</time>
      </trkpt>
      <trkpt lat="47.36559" lon="-1.90774">
        <ele>77</ele>
        <time>2016-01-02T16:02:48Z</time>
      </trkpt>
      <trkpt lat="47.36561" lon="-1.90778">
        <ele>77</ele>
        <time>2016-01-02T16:02:49Z</time>
      </trkpt>
      <trkpt lat="47.36562" lon="-1.90782">
        <ele>77</ele>
        <time>2016-01-02T16:02:50Z</time>
      </trkpt>
      <trkpt lat="47.36564" lon="-1.90787">
        <ele>77</ele>
        <time>2016-01-02T16:02:51Z</time>
      </trkpt>
      <trkpt lat="47.36564" lon="-1.90792">
        <ele>77</ele>
        <time>2016-01-02T16:02:53Z</time>
      </trkpt>
      <trkpt lat="47.36564" lon="-1.90797">
        <ele>77</ele>
        <time>2016-01-02T16:02:54Z</time>
      </trkpt>
      <trkpt lat="47.36564" lon="-1.90802">
        <ele>77</ele>
        <time>2016-01-02T16:02:55Z</time>
      </trkpt>
      <trkpt lat="47.36564" lon="-1.90807">
        <ele>78</ele>
        <time>2016-01-02T16:02:56Z</time>
      </trkpt>
      <trkpt lat="47.36568" lon="-1.90809">
        <ele>78</ele>
        <time>2016-01-02T16:02:57Z</time>
      </trkpt>
      <trkpt lat="47.36568" lon="-1.90814">
        <ele>78</ele>
        <time>2016-01-02T16:02:58Z</time>
      </trkpt>
      <trkpt lat="47.36568" lon="-1.90819">
        <ele>79</ele>
        <time>2016-01-02T16:02:59Z</time>
      </trkpt>
      <trkpt lat="47.36568" lon="-1.90824">
        <ele>79</ele>
        <time>2016-01-02T16:03:00Z</time>
      </trkpt>
      <trkpt lat="47.36565" lon="-1.9083">
        <ele>79</ele>
        <time>2016-01-02T16:03:01Z</time>
      </trkpt>
      <trkpt lat="47.36564" lon="-1.90835">
        <ele>79</ele>
        <time>2016-01-02T16:03:02Z</time>
      </trkpt>
      <trkpt lat="47.36565" lon="-1.90845">
        <ele>79</ele>
        <time>2016-01-02T16:03:03Z</time>
      </trkpt>
      <trkpt lat="47.36566" lon="-1.9085">
        <ele>79</ele>
        <time>2016-01-02T16:03:04Z</time>
      </trkpt>
      <trkpt lat="47.36565" lon="-1.90856">
        <ele>78</ele>
        <time>2016-01-02T16:03:05Z</time>
      </trkpt>
      <trkpt lat="47.36565" lon="-1.90861">
        <ele>78</ele>
        <time>2016-01-02T16:03:06Z</time>
      </trkpt>
      <trkpt lat="47.36565" lon="-1.90868">
        <ele>78</ele>
        <time>2016-01-02T16:03:07Z</time>
      </trkpt>
      <trkpt lat="47.36565" lon="-1.90873">
        <ele>78</ele>
        <time>2016-01-02T16:03:08Z</time>
      </trkpt>
      <trkpt lat="47.36564" lon="-1.90879">
        <ele>78</ele>
        <time>2016-01-02T16:03:09Z</time>
      </trkpt>
      <trkpt lat="47.36568" lon="-1.90884">
        <ele>78</ele>
        <time>2016-01-02T16:03:10Z</time>
      </trkpt>
      <trkpt lat="47.36568" lon="-1.90889">
        <ele>78</ele>
        <time>2016-01-02T16:03:11Z</time>
      </trkpt>
      <trkpt lat="47.3657" lon="-1.90894">
        <ele>78</ele>
        <time>2016-01-02T16:03:12Z</time>
      </trkpt>
      <trkpt lat="47.36571" lon="-1.90898">
        <ele>78</ele>
        <time>2016-01-02T16:03:13Z</time>
      </trkpt>
      <trkpt lat="47.36572" lon="-1.90905">
        <ele>78</ele>
        <time>2016-01-02T16:03:14Z</time>
      </trkpt>
      <trkpt lat="47.36574" lon="-1.9091">
        <ele>79</ele>
        <time>2016-01-02T16:03:15Z</time>
      </trkpt>
      <trkpt lat="47.36576" lon="-1.90915">
        <ele>79</ele>
        <time>2016-01-02T16:03:16Z</time>
      </trkpt>
      <trkpt lat="47.36577" lon="-1.90921">
        <ele>79</ele>
        <time>2016-01-02T16:03:17Z</time>
      </trkpt>
      <trkpt lat="47.36579" lon="-1.90926">
        <ele>79</ele>
        <time>2016-01-02T16:03:18Z</time>
      </trkpt>
      <trkpt lat="47.36581" lon="-1.90931">
        <ele>78</ele>
        <time>2016-01-02T16:03:19Z</time>
      </trkpt>
      <trkpt lat="47.36583" lon="-1.90935">
        <ele>78</ele>
        <time>2016-01-02T16:03:20Z</time>
      </trkpt>
      <trkpt lat="47.36585" lon="-1.9094">
        <ele>80</ele>
        <time>2016-01-02T16:03:21Z</time>
      </trkpt>
      <trkpt lat="47.36587" lon="-1.90945">
        <ele>80</ele>
        <time>2016-01-02T16:03:22Z</time>
      </trkpt>
      <trkpt lat="47.36589" lon="-1.9095">
        <ele>80</ele>
        <time>2016-01-02T16:03:23Z</time>
      </trkpt>
      <trkpt lat="47.36591" lon="-1.90954">
        <ele>80</ele>
        <time>2016-01-02T16:03:24Z</time>
      </trkpt>
      <trkpt lat="47.36593" lon="-1.90958">
        <ele>80</ele>
        <time>2016-01-02T16:03:25Z</time>
      </trkpt>
      <trkpt lat="47.36595" lon="-1.90963">
        <ele>80</ele>
        <time>2016-01-02T16:03:26Z</time>
      </trkpt>
      <trkpt lat="47.36597" lon="-1.90968">
        <ele>80</ele>
        <time>2016-01-02T16:03:27Z</time>
      </trkpt>
      <trkpt lat="47.36599" lon="-1.90973">
        <ele>80</ele>
        <time>2016-01-02T16:03:28Z</time>
      </trkpt>
      <trkpt lat="47.36602" lon="-1.9098">
        <ele>80</ele>
        <time>2016-01-02T16:03:29Z</time>
      </trkpt>
      <trkpt lat="47.36603" lon="-1.90984">
        <ele>80</ele>
        <time>2016-01-02T16:03:30Z</time>
      </trkpt>
      <trkpt lat="47.36606" lon="-1.90989">
        <ele>80</ele>
        <time>2016-01-02T16:03:31Z</time>
      </trkpt>
      <trkpt lat="47.36608" lon="-1.90993">
        <ele>80</ele>
        <time>2016-01-02T16:03:32Z</time>
      </trkpt>
      <trkpt lat="47.36609" lon="-1.91001">
        <ele>79</ele>
        <time>2016-01-02T16:03:34Z</time>
      </trkpt>
      <trkpt lat="47.36611" lon="-1.91005">
        <ele>79</ele>
        <time>2016-01-02T16:03:35Z</time>
      </trkpt>
      <trkpt lat="47.36612" lon="-1.91008">
        <ele>79</ele>
        <time>2016-01-02T16:03:36Z</time>
      </trkpt>
      <trkpt lat="47.36613" lon="-1.91012">
        <ele>79</ele>
        <time>2016-01-02T16:03:37Z</time>
      </trkpt>
      <trkpt lat="47.36618" lon="-1.91011">
        <ele>79</ele>
        <time>2016-01-02T16:03:38Z</time>
      </trkpt>
      <trkpt lat="47.36623" lon="-1.91008">
        <ele>79</ele>
        <time>2016-01-02T16:03:39Z</time>
      </trkpt>
      <trkpt lat="47.36626" lon="-1.91006">
        <ele>79</ele>
        <time>2016-01-02T16:03:40Z</time>
      </trkpt>
      <trkpt lat="47.36631" lon="-1.91005">
        <ele>79</ele>
        <time>2016-01-02T16:03:41Z</time>
      </trkpt>
      <trkpt lat="47.36634" lon="-1.91004">
        <ele>80</ele>
        <time>2016-01-02T16:03:42Z</time>
      </trkpt>
      <trkpt lat="47.36638" lon="-1.91003">
        <ele>80</ele>
        <time>2016-01-02T16:03:43Z</time>
      </trkpt>
      <trkpt lat="47.36642" lon="-1.91001">
        <ele>80</ele>
        <time>2016-01-02T16:03:44Z</time>
      </trkpt>
      <trkpt lat="47.36645" lon="-1.91">
        <ele>80</ele>
        <time>2016-01-02T16:03:45Z</time>
      </trkpt>
      <trkpt lat="47.36649" lon="-1.91">
        <ele>81</ele>
        <time>2016-01-02T16:03:46Z</time>
      </trkpt>
      <trkpt lat="47.36653" lon="-1.90999">
        <ele>81</ele>
        <time>2016-01-02T16:03:47Z</time>
      </trkpt>
      <trkpt lat="47.36657" lon="-1.90998">
        <ele>81</ele>
        <time>2016-01-02T16:03:48Z</time>
      </trkpt>
      <trkpt lat="47.3666" lon="-1.90997">
        <ele>81</ele>
        <time>2016-01-02T16:03:49Z</time>
      </trkpt>
      <trkpt lat="47.36664" lon="-1.90995">
        <ele>81</ele>
        <time>2016-01-02T16:03:50Z</time>
      </trkpt>
      <trkpt lat="47.36669" lon="-1.90995">
        <ele>81</ele>
        <time>2016-01-02T16:03:51Z</time>
      </trkpt>
      <trkpt lat="47.36674" lon="-1.90995">
        <ele>81</ele>
        <time>2016-01-02T16:03:52Z</time>
      </trkpt>
      <trkpt lat="47.36677" lon="-1.90995">
        <ele>81</ele>
        <time>2016-01-02T16:03:53Z</time>
      </trkpt>
      <trkpt lat="47.36682" lon="-1.90995">
        <ele>82</ele>
        <time>2016-01-02T16:03:54Z</time>
      </trkpt>
      <trkpt lat="47.36686" lon="-1.90994">
        <ele>82</ele>
        <time>2016-01-02T16:03:55Z</time>
      </trkpt>
      <trkpt lat="47.3669" lon="-1.90993">
        <ele>82</ele>
        <time>2016-01-02T16:03:56Z</time>
      </trkpt>
      <trkpt lat="47.36695" lon="-1.90993">
        <ele>82</ele>
        <time>2016-01-02T16:03:57Z</time>
      </trkpt>
      <trkpt lat="47.367" lon="-1.90994">
        <ele>82</ele>
        <time>2016-01-02T16:03:58Z</time>
      </trkpt>
      <trkpt lat="47.36704" lon="-1.90995">
        <ele>82</ele>
        <time>2016-01-02T16:03:59Z</time>
      </trkpt>
      <trkpt lat="47.36707" lon="-1.90998">
        <ele>82</ele>
        <time>2016-01-02T16:04:00Z</time>
      </trkpt>
      <trkpt lat="47.36711" lon="-1.91">
        <ele>82</ele>
        <time>2016-01-02T16:04:01Z</time>
      </trkpt>
      <trkpt lat="47.36715" lon="-1.91002">
        <ele>82</ele>
        <time>2016-01-02T16:04:02Z</time>
      </trkpt>
      <trkpt lat="47.36716" lon="-1.91007">
        <ele>82</ele>
        <time>2016-01-02T16:04:03Z</time>
      </trkpt>
      <trkpt lat="47.36718" lon="-1.91012">
        <ele>82</ele>
        <time>2016-01-02T16:04:04Z</time>
      </trkpt>
      <trkpt lat="47.36722" lon="-1.91017">
        <ele>82</ele>
        <time>2016-01-02T16:04:05Z</time>
      </trkpt>
      <trkpt lat="47.36725" lon="-1.91021">
        <ele>82</ele>
        <time>2016-01-02T16:04:06Z</time>
      </trkpt>
      <trkpt lat="47.36728" lon="-1.91026">
        <ele>82</ele>
        <time>2016-01-02T16:04:07Z</time>
      </trkpt>
      <trkpt lat="47.36731" lon="-1.91032">
        <ele>82</ele>
        <time>2016-01-02T16:04:08Z</time>
      </trkpt>
      <trkpt lat="47.36734" lon="-1.91037">
        <ele>82</ele>
        <time>2016-01-02T16:04:09Z</time>
      </trkpt>
      <trkpt lat="47.36738" lon="-1.91042">
        <ele>82</ele>
        <time>2016-01-02T16:04:10Z</time>
      </trkpt>
      <trkpt lat="47.3674" lon="-1.91048">
        <ele>82</ele>
        <time>2016-01-02T16:04:11Z</time>
      </trkpt>
      <trkpt lat="47.36743" lon="-1.91053">
        <ele>82</ele>
        <time>2016-01-02T16:04:12Z</time>
      </trkpt>
      <trkpt lat="47.36747" lon="-1.91059">
        <ele>82</ele>
        <time>2016-01-02T16:04:13Z</time>
      </trkpt>
      <trkpt lat="47.3675" lon="-1.91063">
        <ele>82</ele>
        <time>2016-01-02T16:04:14Z</time>
      </trkpt>
      <trkpt lat="47.36753" lon="-1.91069">
        <ele>82</ele>
        <time>2016-01-02T16:04:15Z</time>
      </trkpt>
      <trkpt lat="47.36755" lon="-1.91076">
        <ele>82</ele>
        <time>2016-01-02T16:04:16Z</time>
      </trkpt>
      <trkpt lat="47.36758" lon="-1.91082">
        <ele>82</ele>
        <time>2016-01-02T16:04:17Z</time>
      </trkpt>
      <trkpt lat="47.36761" lon="-1.91088">
        <ele>82</ele>
        <time>2016-01-02T16:04:18Z</time>
      </trkpt>
      <trkpt lat="47.36763" lon="-1.91094">
        <ele>82</ele>
        <time>2016-01-02T16:04:19Z</time>
      </trkpt>
      <trkpt lat="47.36766" lon="-1.91101">
        <ele>82</ele>
        <time>2016-01-02T16:04:20Z</time>
      </trkpt>
      <trkpt lat="47.36771" lon="-1.91109">
        <ele>82</ele>
        <time>2016-01-02T16:04:21Z</time>
      </trkpt>
      <trkpt lat="47.36773" lon="-1.91115">
        <ele>82</ele>
        <time>2016-01-02T16:04:22Z</time>
      </trkpt>
      <trkpt lat="47.36776" lon="-1.91123">
        <ele>82</ele>
        <time>2016-01-02T16:04:23Z</time>
      </trkpt>
      <trkpt lat="47.36778" lon="-1.91129">
        <ele>82</ele>
        <time>2016-01-02T16:04:24Z</time>
      </trkpt>
      <trkpt lat="47.36779" lon="-1.91136">
        <ele>82</ele>
        <time>2016-01-02T16:04:25Z</time>
      </trkpt>
      <trkpt lat="47.36781" lon="-1.91143">
        <ele>82</ele>
        <time>2016-01-02T16:04:26Z</time>
      </trkpt>
      <trkpt lat="47.36783" lon="-1.91151">
        <ele>82</ele>
        <time>2016-01-02T16:04:27Z</time>
      </trkpt>
      <trkpt lat="47.36786" lon="-1.91157">
        <ele>82</ele>
        <time>2016-01-02T16:04:28Z</time>
      </trkpt>
      <trkpt lat="47.36788" lon="-1.91163">
        <ele>82</ele>
        <time>2016-01-02T16:04:29Z</time>
      </trkpt>
      <trkpt lat="47.36788" lon="-1.91168">
        <ele>81</ele>
        <time>2016-01-02T16:04:30Z</time>
      </trkpt>
      <trkpt lat="47.36789" lon="-1.91173">
        <ele>81</ele>
        <time>2016-01-02T16:04:31Z</time>
      </trkpt>
      <trkpt lat="47.36791" lon="-1.91178">
        <ele>81</ele>
        <time>2016-01-02T16:04:32Z</time>
      </trkpt>
      <trkpt lat="47.36793" lon="-1.91192">
        <ele>81</ele>
        <time>2016-01-02T16:04:33Z</time>
      </trkpt>
      <trkpt lat="47.36795" lon="-1.912">
        <ele>81</ele>
        <time>2016-01-02T16:04:34Z</time>
      </trkpt>
      <trkpt lat="47.36796" lon="-1.91208">
        <ele>80</ele>
        <time>2016-01-02T16:04:35Z</time>
      </trkpt>
      <trkpt lat="47.36798" lon="-1.91218">
        <ele>80</ele>
        <time>2016-01-02T16:04:36Z</time>
      </trkpt>
      <trkpt lat="47.36802" lon="-1.91224">
        <ele>80</ele>
        <time>2016-01-02T16:04:37Z</time>
      </trkpt>
      <trkpt lat="47.36804" lon="-1.91229">
        <ele>80</ele>
        <time>2016-01-02T16:04:38Z</time>
      </trkpt>
      <trkpt lat="47.36807" lon="-1.91234">
        <ele>80</ele>
        <time>2016-01-02T16:04:39Z</time>
      </trkpt>
      <trkpt lat="47.3681" lon="-1.91239">
        <ele>80</ele>
        <time>2016-01-02T16:04:40Z</time>
      </trkpt>
      <trkpt lat="47.36816" lon="-1.91245">
        <ele>79</ele>
        <time>2016-01-02T16:04:41Z</time>
      </trkpt>
      <trkpt lat="47.3682" lon="-1.91251">
        <ele>77</ele>
        <time>2016-01-02T16:04:42Z</time>
      </trkpt>
      <trkpt lat="47.36824" lon="-1.91258">
        <ele>77</ele>
        <time>2016-01-02T16:04:43Z</time>
      </trkpt>
      <trkpt lat="47.36829" lon="-1.91267">
        <ele>77</ele>
        <time>2016-01-02T16:04:44Z</time>
      </trkpt>
      <trkpt lat="47.36832" lon="-1.91274">
        <ele>77</ele>
        <time>2016-01-02T16:04:45Z</time>
      </trkpt>
      <trkpt lat="47.36835" lon="-1.91281">
        <ele>77</ele>
        <time>2016-01-02T16:04:46Z</time>
      </trkpt>
      <trkpt lat="47.36839" lon="-1.91291">
        <ele>77</ele>
        <time>2016-01-02T16:04:47Z</time>
      </trkpt>
      <trkpt lat="47.36843" lon="-1.91299">
        <ele>77</ele>
        <time>2016-01-02T16:04:48Z</time>
      </trkpt>
      <trkpt lat="47.36846" lon="-1.91306">
        <ele>77</ele>
        <time>2016-01-02T16:04:49Z</time>
      </trkpt>
      <trkpt lat="47.36849" lon="-1.91316">
        <ele>76</ele>
        <time>2016-01-02T16:04:50Z</time>
      </trkpt>
      <trkpt lat="47.36852" lon="-1.91322">
        <ele>76</ele>
        <time>2016-01-02T16:04:51Z</time>
      </trkpt>
      <trkpt lat="47.36853" lon="-1.9133">
        <ele>76</ele>
        <time>2016-01-02T16:04:52Z</time>
      </trkpt>
      <trkpt lat="47.36856" lon="-1.91338">
        <ele>76</ele>
        <time>2016-01-02T16:04:53Z</time>
      </trkpt>
      <trkpt lat="47.36858" lon="-1.91345">
        <ele>76</ele>
        <time>2016-01-02T16:04:54Z</time>
      </trkpt>
      <trkpt lat="47.3686" lon="-1.91354">
        <ele>76</ele>
        <time>2016-01-02T16:04:55Z</time>
      </trkpt>
      <trkpt lat="47.36862" lon="-1.91362">
        <ele>76</ele>
        <time>2016-01-02T16:04:56Z</time>
      </trkpt>
      <trkpt lat="47.36864" lon="-1.91369">
        <ele>76</ele>
        <time>2016-01-02T16:04:57Z</time>
      </trkpt>
      <trkpt lat="47.36865" lon="-1.91377">
        <ele>76</ele>
        <time>2016-01-02T16:04:58Z</time>
      </trkpt>
      <trkpt lat="47.36868" lon="-1.91383">
        <ele>76</ele>
        <time>2016-01-02T16:04:59Z</time>
      </trkpt>
      <trkpt lat="47.3687" lon="-1.91391">
        <ele>77</ele>
        <time>2016-01-02T16:05:00Z</time>
      </trkpt>
      <trkpt lat="47.36873" lon="-1.914">
        <ele>77</ele>
        <time>2016-01-02T16:05:01Z</time>
      </trkpt>
      <trkpt lat="47.36874" lon="-1.91406">
        <ele>77</ele>
        <time>2016-01-02T16:05:02Z</time>
      </trkpt>
      <trkpt lat="47.36876" lon="-1.91415">
        <ele>77</ele>
        <time>2016-01-02T16:05:03Z</time>
      </trkpt>
      <trkpt lat="47.36879" lon="-1.91423">
        <ele>77</ele>
        <time>2016-01-02T16:05:04Z</time>
      </trkpt>
      <trkpt lat="47.36882" lon="-1.91432">
        <ele>78</ele>
        <time>2016-01-02T16:05:05Z</time>
      </trkpt>
      <trkpt lat="47.36884" lon="-1.9144">
        <ele>78</ele>
        <time>2016-01-02T16:05:06Z</time>
      </trkpt>
      <trkpt lat="47.36885" lon="-1.91448">
        <ele>78</ele>
        <time>2016-01-02T16:05:07Z</time>
      </trkpt>
      <trkpt lat="47.36887" lon="-1.91458">
        <ele>78</ele>
        <time>2016-01-02T16:05:08Z</time>
      </trkpt>
      <trkpt lat="47.36888" lon="-1.91465">
        <ele>78</ele>
        <time>2016-01-02T16:05:09Z</time>
      </trkpt>
      <trkpt lat="47.36888" lon="-1.91472">
        <ele>78</ele>
        <time>2016-01-02T16:05:10Z</time>
      </trkpt>
      <trkpt lat="47.3689" lon="-1.9148">
        <ele>78</ele>
        <time>2016-01-02T16:05:11Z</time>
      </trkpt>
      <trkpt lat="47.36891" lon="-1.91488">
        <ele>78</ele>
        <time>2016-01-02T16:05:12Z</time>
      </trkpt>
      <trkpt lat="47.36892" lon="-1.91495">
        <ele>78</ele>
        <time>2016-01-02T16:05:13Z</time>
      </trkpt>
      <trkpt lat="47.36893" lon="-1.91502">
        <ele>79</ele>
        <time>2016-01-02T16:05:14Z</time>
      </trkpt>
      <trkpt lat="47.36894" lon="-1.9151">
        <ele>79</ele>
        <time>2016-01-02T16:05:15Z</time>
      </trkpt>
      <trkpt lat="47.36895" lon="-1.91518">
        <ele>79</ele>
        <time>2016-01-02T16:05:16Z</time>
      </trkpt>
      <trkpt lat="47.36896" lon="-1.91525">
        <ele>79</ele>
        <time>2016-01-02T16:05:17Z</time>
      </trkpt>
      <trkpt lat="47.36898" lon="-1.91533">
        <ele>79</ele>
        <time>2016-01-02T16:05:18Z</time>
      </trkpt>
      <trkpt lat="47.369" lon="-1.9154">
        <ele>79</ele>
        <time>2016-01-02T16:05:19Z</time>
      </trkpt>
      <trkpt lat="47.36901" lon="-1.91548">
        <ele>79</ele>
        <time>2016-01-02T16:05:20Z</time>
      </trkpt>
      <trkpt lat="47.36903" lon="-1.91555">
        <ele>79</ele>
        <time>2016-01-02T16:05:21Z</time>
      </trkpt>
      <trkpt lat="47.36904" lon="-1.91563">
        <ele>79</ele>
        <time>2016-01-02T16:05:22Z</time>
      </trkpt>
      <trkpt lat="47.36905" lon="-1.9157">
        <ele>79</ele>
        <time>2016-01-02T16:05:23Z</time>
      </trkpt>
      <trkpt lat="47.36906" lon="-1.91578">
        <ele>80</ele>
        <time>2016-01-02T16:05:24Z</time>
      </trkpt>
      <trkpt lat="47.36907" lon="-1.91586">
        <ele>80</ele>
        <time>2016-01-02T16:05:25Z</time>
      </trkpt>
      <trkpt lat="47.36909" lon="-1.91595">
        <ele>80</ele>
        <time>2016-01-02T16:05:26Z</time>
      </trkpt>
      <trkpt lat="47.36909" lon="-1.91604">
        <ele>80</ele>
        <time>2016-01-02T16:05:27Z</time>
      </trkpt>
      <trkpt lat="47.36909" lon="-1.91613">
        <ele>80</ele>
        <time>2016-01-02T16:05:28Z</time>
      </trkpt>
      <trkpt lat="47.36911" lon="-1.9162">
        <ele>80</ele>
        <time>2016-01-02T16:05:29Z</time>
      </trkpt>
      <trkpt lat="47.36912" lon="-1.91628">
        <ele>80</ele>
        <time>2016-01-02T16:05:30Z</time>
      </trkpt>
      <trkpt lat="47.36912" lon="-1.91636">
        <ele>80</ele>
        <time>2016-01-02T16:05:31Z</time>
      </trkpt>
      <trkpt lat="47.36911" lon="-1.91643">
        <ele>80</ele>
        <time>2016-01-02T16:05:32Z</time>
      </trkpt>
      <trkpt lat="47.36912" lon="-1.9165">
        <ele>80</ele>
        <time>2016-01-02T16:05:33Z</time>
      </trkpt>
      <trkpt lat="47.36913" lon="-1.91658">
        <ele>79</ele>
        <time>2016-01-02T16:05:34Z</time>
      </trkpt>
      <trkpt lat="47.36912" lon="-1.91665">
        <ele>79</ele>
        <time>2016-01-02T16:05:35Z</time>
      </trkpt>
      <trkpt lat="47.36913" lon="-1.91673">
        <ele>79</ele>
        <time>2016-01-02T16:05:36Z</time>
      </trkpt>
      <trkpt lat="47.36913" lon="-1.9168">
        <ele>80</ele>
        <time>2016-01-02T16:05:37Z</time>
      </trkpt>
      <trkpt lat="47.36914" lon="-1.91688">
        <ele>80</ele>
        <time>2016-01-02T16:05:38Z</time>
      </trkpt>
      <trkpt lat="47.36914" lon="-1.91695">
        <ele>80</ele>
        <time>2016-01-02T16:05:39Z</time>
      </trkpt>
      <trkpt lat="47.36912" lon="-1.91704">
        <ele>80</ele>
        <time>2016-01-02T16:05:40Z</time>
      </trkpt>
      <trkpt lat="47.36912" lon="-1.91711">
        <ele>80</ele>
        <time>2016-01-02T16:05:41Z</time>
      </trkpt>
      <trkpt lat="47.36912" lon="-1.91718">
        <ele>80</ele>
        <time>2016-01-02T16:05:42Z</time>
      </trkpt>
      <trkpt lat="47.36911" lon="-1.91725">
        <ele>81</ele>
        <time>2016-01-02T16:05:43Z</time>
      </trkpt>
      <trkpt lat="47.36911" lon="-1.91731">
        <ele>81</ele>
        <time>2016-01-02T16:05:44Z</time>
      </trkpt>
      <trkpt lat="47.3691" lon="-1.91737">
        <ele>81</ele>
        <time>2016-01-02T16:05:45Z</time>
      </trkpt>
      <trkpt lat="47.36907" lon="-1.91743">
        <ele>81</ele>
        <time>2016-01-02T16:05:46Z</time>
      </trkpt>
      <trkpt lat="47.36906" lon="-1.9175">
        <ele>81</ele>
        <time>2016-01-02T16:05:47Z</time>
      </trkpt>
      <trkpt lat="47.36906" lon="-1.91756">
        <ele>81</ele>
        <time>2016-01-02T16:05:48Z</time>
      </trkpt>
      <trkpt lat="47.36907" lon="-1.91762">
        <ele>81</ele>
        <time>2016-01-02T16:05:49Z</time>
      </trkpt>
      <trkpt lat="47.36907" lon="-1.91768">
        <ele>81</ele>
        <time>2016-01-02T16:05:50Z</time>
      </trkpt>
      <trkpt lat="47.36906" lon="-1.91774">
        <ele>81</ele>
        <time>2016-01-02T16:05:51Z</time>
      </trkpt>
      <trkpt lat="47.36906" lon="-1.91781">
        <ele>81</ele>
        <time>2016-01-02T16:05:52Z</time>
      </trkpt>
      <trkpt lat="47.36906" lon="-1.91787">
        <ele>81</ele>
        <time>2016-01-02T16:05:53Z</time>
      </trkpt>
      <trkpt lat="47.36906" lon="-1.91794">
        <ele>82</ele>
        <time>2016-01-02T16:05:54Z</time>
      </trkpt>
      <trkpt lat="47.36905" lon="-1.91801">
        <ele>82</ele>
        <time>2016-01-02T16:05:55Z</time>
      </trkpt>
      <trkpt lat="47.36905" lon="-1.91808">
        <ele>82</ele>
        <time>2016-01-02T16:05:56Z</time>
      </trkpt>
      <trkpt lat="47.36904" lon="-1.91814">
        <ele>82</ele>
        <time>2016-01-02T16:05:57Z</time>
      </trkpt>
      <trkpt lat="47.36903" lon="-1.91821">
        <ele>82</ele>
        <time>2016-01-02T16:05:58Z</time>
      </trkpt>
      <trkpt lat="47.36902" lon="-1.91828">
        <ele>82</ele>
        <time>2016-01-02T16:05:59Z</time>
      </trkpt>
      <trkpt lat="47.36902" lon="-1.91836">
        <ele>82</ele>
        <time>2016-01-02T16:06:00Z</time>
      </trkpt>
      <trkpt lat="47.36901" lon="-1.91843">
        <ele>82</ele>
        <time>2016-01-02T16:06:01Z</time>
      </trkpt>
      <trkpt lat="47.369" lon="-1.9185">
        <ele>82</ele>
        <time>2016-01-02T16:06:02Z</time>
      </trkpt>
      <trkpt lat="47.36899" lon="-1.91857">
        <ele>82</ele>
        <time>2016-01-02T16:06:03Z</time>
      </trkpt>
      <trkpt lat="47.36898" lon="-1.91864">
        <ele>81</ele>
        <time>2016-01-02T16:06:04Z</time>
      </trkpt>
      <trkpt lat="47.36898" lon="-1.91872">
        <ele>81</ele>
        <time>2016-01-02T16:06:05Z</time>
      </trkpt>
      <trkpt lat="47.36898" lon="-1.91878">
        <ele>81</ele>
        <time>2016-01-02T16:06:06Z</time>
      </trkpt>
      <trkpt lat="47.36897" lon="-1.91884">
        <ele>81</ele>
        <time>2016-01-02T16:06:07Z</time>
      </trkpt>
      <trkpt lat="47.36897" lon="-1.91892">
        <ele>81</ele>
        <time>2016-01-02T16:06:08Z</time>
      </trkpt>
      <trkpt lat="47.36897" lon="-1.91899">
        <ele>81</ele>
        <time>2016-01-02T16:06:09Z</time>
      </trkpt>
      <trkpt lat="47.36897" lon="-1.91906">
        <ele>82</ele>
        <time>2016-01-02T16:06:10Z</time>
      </trkpt>
      <trkpt lat="47.36899" lon="-1.91912">
        <ele>82</ele>
        <time>2016-01-02T16:06:11Z</time>
      </trkpt>
      <trkpt lat="47.36899" lon="-1.9192">
        <ele>81</ele>
        <time>2016-01-02T16:06:12Z</time>
      </trkpt>
      <trkpt lat="47.36896" lon="-1.91928">
        <ele>81</ele>
        <time>2016-01-02T16:06:13Z</time>
      </trkpt>
      <trkpt lat="47.36895" lon="-1.91935">
        <ele>81</ele>
        <time>2016-01-02T16:06:14Z</time>
      </trkpt>
      <trkpt lat="47.36893" lon="-1.91943">
        <ele>80</ele>
        <time>2016-01-02T16:06:15Z</time>
      </trkpt>
      <trkpt lat="47.36893" lon="-1.91952">
        <ele>80</ele>
        <time>2016-01-02T16:06:16Z</time>
      </trkpt>
      <trkpt lat="47.36892" lon="-1.91959">
        <ele>80</ele>
        <time>2016-01-02T16:06:17Z</time>
      </trkpt>
      <trkpt lat="47.3689" lon="-1.91968">
        <ele>80</ele>
        <time>2016-01-02T16:06:18Z</time>
      </trkpt>
      <trkpt lat="47.36889" lon="-1.91977">
        <ele>80</ele>
        <time>2016-01-02T16:06:19Z</time>
      </trkpt>
      <trkpt lat="47.36889" lon="-1.91986">
        <ele>80</ele>
        <time>2016-01-02T16:06:20Z</time>
      </trkpt>
      <trkpt lat="47.36888" lon="-1.91996">
        <ele>80</ele>
        <time>2016-01-02T16:06:21Z</time>
      </trkpt>
      <trkpt lat="47.36886" lon="-1.92005">
        <ele>80</ele>
        <time>2016-01-02T16:06:22Z</time>
      </trkpt>
      <trkpt lat="47.36883" lon="-1.92014">
        <ele>80</ele>
        <time>2016-01-02T16:06:23Z</time>
      </trkpt>
      <trkpt lat="47.36882" lon="-1.92024">
        <ele>79</ele>
        <time>2016-01-02T16:06:24Z</time>
      </trkpt>
      <trkpt lat="47.36881" lon="-1.92033">
        <ele>79</ele>
        <time>2016-01-02T16:06:25Z</time>
      </trkpt>
      <trkpt lat="47.36882" lon="-1.92044">
        <ele>79</ele>
        <time>2016-01-02T16:06:26Z</time>
      </trkpt>
      <trkpt lat="47.36884" lon="-1.92054">
        <ele>79</ele>
        <time>2016-01-02T16:06:27Z</time>
      </trkpt>
      <trkpt lat="47.36885" lon="-1.92064">
        <ele>79</ele>
        <time>2016-01-02T16:06:28Z</time>
      </trkpt>
      <trkpt lat="47.36885" lon="-1.92075">
        <ele>79</ele>
        <time>2016-01-02T16:06:29Z</time>
      </trkpt>
      <trkpt lat="47.36881" lon="-1.92081">
        <ele>79</ele>
        <time>2016-01-02T16:06:30Z</time>
      </trkpt>
      <trkpt lat="47.3688" lon="-1.92092">
        <ele>79</ele>
        <time>2016-01-02T16:06:31Z</time>
      </trkpt>
      <trkpt lat="47.3688" lon="-1.92103">
        <ele>79</ele>
        <time>2016-01-02T16:06:32Z</time>
      </trkpt>
      <trkpt lat="47.3688" lon="-1.92112">
        <ele>79</ele>
        <time>2016-01-02T16:06:33Z</time>
      </trkpt>
      <trkpt lat="47.3688" lon="-1.92121">
        <ele>79</ele>
        <time>2016-01-02T16:06:34Z</time>
      </trkpt>
      <trkpt lat="47.3688" lon="-1.9213">
        <ele>79</ele>
        <time>2016-01-02T16:06:35Z</time>
      </trkpt>
      <trkpt lat="47.3688" lon="-1.92139">
        <ele>79</ele>
        <time>2016-01-02T16:06:36Z</time>
      </trkpt>
      <trkpt lat="47.3688" lon="-1.92147">
        <ele>79</ele>
        <time>2016-01-02T16:06:37Z</time>
      </trkpt>
      <trkpt lat="47.3688" lon="-1.92155">
        <ele>79</ele>
        <time>2016-01-02T16:06:38Z</time>
      </trkpt>
      <trkpt lat="47.36879" lon="-1.92163">
        <ele>79</ele>
        <time>2016-01-02T16:06:39Z</time>
      </trkpt>
      <trkpt lat="47.3688" lon="-1.92173">
        <ele>79</ele>
        <time>2016-01-02T16:06:40Z</time>
      </trkpt>
      <trkpt lat="47.36878" lon="-1.92182">
        <ele>79</ele>
        <time>2016-01-02T16:06:41Z</time>
      </trkpt>
      <trkpt lat="47.36878" lon="-1.92191">
        <ele>79</ele>
        <time>2016-01-02T16:06:42Z</time>
      </trkpt>
      <trkpt lat="47.36879" lon="-1.92198">
        <ele>79</ele>
        <time>2016-01-02T16:06:43Z</time>
      </trkpt>
      <trkpt lat="47.36879" lon="-1.92208">
        <ele>79</ele>
        <time>2016-01-02T16:06:44Z</time>
      </trkpt>
      <trkpt lat="47.36878" lon="-1.92216">
        <ele>79</ele>
        <time>2016-01-02T16:06:45Z</time>
      </trkpt>
      <trkpt lat="47.36879" lon="-1.92222">
        <ele>79</ele>
        <time>2016-01-02T16:06:46Z</time>
      </trkpt>
      <trkpt lat="47.36879" lon="-1.92229">
        <ele>79</ele>
        <time>2016-01-02T16:06:47Z</time>
      </trkpt>
      <trkpt lat="47.3688" lon="-1.9224">
        <ele>79</ele>
        <time>2016-01-02T16:06:48Z</time>
      </trkpt>
      <trkpt lat="47.3688" lon="-1.92247">
        <ele>79</ele>
        <time>2016-01-02T16:06:49Z</time>
      </trkpt>
      <trkpt lat="47.3688" lon="-1.92256">
        <ele>80</ele>
        <time>2016-01-02T16:06:50Z</time>
      </trkpt>
      <trkpt lat="47.36881" lon="-1.92263">
        <ele>80</ele>
        <time>2016-01-02T16:06:51Z</time>
      </trkpt>
      <trkpt lat="47.36882" lon="-1.92272">
        <ele>80</ele>
        <time>2016-01-02T16:06:52Z</time>
      </trkpt>
      <trkpt lat="47.36884" lon="-1.9228">
        <ele>80</ele>
        <time>2016-01-02T16:06:53Z</time>
      </trkpt>
      <trkpt lat="47.36885" lon="-1.92287">
        <ele>80</ele>
        <time>2016-01-02T16:06:54Z</time>
      </trkpt>
      <trkpt lat="47.36887" lon="-1.92293">
        <ele>80</ele>
        <time>2016-01-02T16:06:55Z</time>
      </trkpt>
      <trkpt lat="47.36888" lon="-1.92298">
        <ele>80</ele>
        <time>2016-01-02T16:06:56Z</time>
      </trkpt>
      <trkpt lat="47.36889" lon="-1.92303">
        <ele>80</ele>
        <time>2016-01-02T16:06:57Z</time>
      </trkpt>
      <trkpt lat="47.36891" lon="-1.92309">
        <ele>80</ele>
        <time>2016-01-02T16:06:58Z</time>
      </trkpt>
      <trkpt lat="47.36891" lon="-1.92313">
        <ele>80</ele>
        <time>2016-01-02T16:06:59Z</time>
      </trkpt>
      <trkpt lat="47.36892" lon="-1.92319">
        <ele>80</ele>
        <time>2016-01-02T16:07:00Z</time>
      </trkpt>
      <trkpt lat="47.36891" lon="-1.92325">
        <ele>80</ele>
        <time>2016-01-02T16:07:01Z</time>
      </trkpt>
      <trkpt lat="47.36892" lon="-1.92331">
        <ele>80</ele>
        <time>2016-01-02T16:07:02Z</time>
      </trkpt>
      <trkpt lat="47.36893" lon="-1.92337">
        <ele>81</ele>
        <time>2016-01-02T16:07:03Z</time>
      </trkpt>
      <trkpt lat="47.36893" lon="-1.92348">
        <ele>80</ele>
        <time>2016-01-02T16:07:05Z</time>
      </trkpt>
      <trkpt lat="47.36893" lon="-1.92355">
        <ele>80</ele>
        <time>2016-01-02T16:07:06Z</time>
      </trkpt>
      <trkpt lat="47.36893" lon="-1.92362">
        <ele>80</ele>
        <time>2016-01-02T16:07:07Z</time>
      </trkpt>
      <trkpt lat="47.36893" lon="-1.92368">
        <ele>80</ele>
        <time>2016-01-02T16:07:08Z</time>
      </trkpt>
      <trkpt lat="47.36893" lon="-1.92377">
        <ele>80</ele>
        <time>2016-01-02T16:07:10Z</time>
      </trkpt>
      <trkpt lat="47.36893" lon="-1.92384">
        <ele>80</ele>
        <time>2016-01-02T16:07:11Z</time>
      </trkpt>
      <trkpt lat="47.36894" lon="-1.92391">
        <ele>80</ele>
        <time>2016-01-02T16:07:12Z</time>
      </trkpt>
      <trkpt lat="47.36894" lon="-1.92396">
        <ele>80</ele>
        <time>2016-01-02T16:07:13Z</time>
      </trkpt>
      <trkpt lat="47.36895" lon="-1.92403">
        <ele>80</ele>
        <time>2016-01-02T16:07:14Z</time>
      </trkpt>
      <trkpt lat="47.36895" lon="-1.92409">
        <ele>80</ele>
        <time>2016-01-02T16:07:15Z</time>
      </trkpt>
      <trkpt lat="47.36895" lon="-1.92416">
        <ele>80</ele>
        <time>2016-01-02T16:07:16Z</time>
      </trkpt>
      <trkpt lat="47.36895" lon="-1.92424">
        <ele>80</ele>
        <time>2016-01-02T16:07:17Z</time>
      </trkpt>
      <trkpt lat="47.36895" lon="-1.92431">
        <ele>80</ele>
        <time>2016-01-02T16:07:18Z</time>
      </trkpt>
      <trkpt lat="47.36894" lon="-1.92437">
        <ele>80</ele>
        <time>2016-01-02T16:07:19Z</time>
      </trkpt>
      <trkpt lat="47.36893" lon="-1.92443">
        <ele>80</ele>
        <time>2016-01-02T16:07:20Z</time>
      </trkpt>
      <trkpt lat="47.36889" lon="-1.92447">
        <ele>80</ele>
        <time>2016-01-02T16:07:21Z</time>
      </trkpt>
      <trkpt lat="47.36888" lon="-1.92452">
        <ele>80</ele>
        <time>2016-01-02T16:07:22Z</time>
      </trkpt>
      <trkpt lat="47.36887" lon="-1.92458">
        <ele>80</ele>
        <time>2016-01-02T16:07:23Z</time>
      </trkpt>
      <trkpt lat="47.36884" lon="-1.92463">
        <ele>80</ele>
        <time>2016-01-02T16:07:24Z</time>
      </trkpt>
      <trkpt lat="47.36882" lon="-1.92468">
        <ele>80</ele>
        <time>2016-01-02T16:07:25Z</time>
      </trkpt>
      <trkpt lat="47.36877" lon="-1.92474">
        <ele>80</ele>
        <time>2016-01-02T16:07:26Z</time>
      </trkpt>
      <trkpt lat="47.36873" lon="-1.92479">
        <ele>79</ele>
        <time>2016-01-02T16:07:27Z</time>
      </trkpt>
      <trkpt lat="47.36868" lon="-1.92484">
        <ele>79</ele>
        <time>2016-01-02T16:07:28Z</time>
      </trkpt>
      <trkpt lat="47.36865" lon="-1.92489">
        <ele>79</ele>
        <time>2016-01-02T16:07:29Z</time>
      </trkpt>
      <trkpt lat="47.36861" lon="-1.92494">
        <ele>79</ele>
        <time>2016-01-02T16:07:30Z</time>
      </trkpt>
      <trkpt lat="47.36856" lon="-1.92496">
        <ele>79</ele>
        <time>2016-01-02T16:07:31Z</time>
      </trkpt>
      <trkpt lat="47.36852" lon="-1.92499">
        <ele>79</ele>
        <time>2016-01-02T16:07:32Z</time>
      </trkpt>
      <trkpt lat="47.36847" lon="-1.92502">
        <ele>79</ele>
        <time>2016-01-02T16:07:33Z</time>
      </trkpt>
      <trkpt lat="47.36844" lon="-1.92506">
        <ele>79</ele>
        <time>2016-01-02T16:07:34Z</time>
      </trkpt>
      <trkpt lat="47.36839" lon="-1.92508">
        <ele>79</ele>
        <time>2016-01-02T16:07:35Z</time>
      </trkpt>
      <trkpt lat="47.36834" lon="-1.9251">
        <ele>79</ele>
        <time>2016-01-02T16:07:36Z</time>
      </trkpt>
      <trkpt lat="47.36829" lon="-1.92509">
        <ele>79</ele>
        <time>2016-01-02T16:07:37Z</time>
      </trkpt>
      <trkpt lat="47.36824" lon="-1.9251">
        <ele>79</ele>
        <time>2016-01-02T16:07:38Z</time>
      </trkpt>
      <trkpt lat="47.36819" lon="-1.9251">
        <ele>79</ele>
        <time>2016-01-02T16:07:39Z</time>
      </trkpt>
      <trkpt lat="47.36814" lon="-1.9251">
        <ele>79</ele>
        <time>2016-01-02T16:07:40Z</time>
      </trkpt>
      <trkpt lat="47.36808" lon="-1.92508">
        <ele>79</ele>
        <time>2016-01-02T16:07:41Z</time>
      </trkpt>
      <trkpt lat="47.36803" lon="-1.92509">
        <ele>79</ele>
        <time>2016-01-02T16:07:42Z</time>
      </trkpt>
      <trkpt lat="47.36798" lon="-1.92511">
        <ele>79</ele>
        <time>2016-01-02T16:07:43Z</time>
      </trkpt>
      <trkpt lat="47.36792" lon="-1.92512">
        <ele>79</ele>
        <time>2016-01-02T16:07:44Z</time>
      </trkpt>
      <trkpt lat="47.36785" lon="-1.92511">
        <ele>79</ele>
        <time>2016-01-02T16:07:45Z</time>
      </trkpt>
      <trkpt lat="47.36779" lon="-1.92511">
        <ele>79</ele>
        <time>2016-01-02T16:07:46Z</time>
      </trkpt>
      <trkpt lat="47.36773" lon="-1.9251">
        <ele>79</ele>
        <time>2016-01-02T16:07:47Z</time>
      </trkpt>
      <trkpt lat="47.36767" lon="-1.92509">
        <ele>79</ele>
        <time>2016-01-02T16:07:48Z</time>
      </trkpt>
      <trkpt lat="47.36762" lon="-1.92506">
        <ele>79</ele>
        <time>2016-01-02T16:07:49Z</time>
      </trkpt>
      <trkpt lat="47.36757" lon="-1.92504">
        <ele>79</ele>
        <time>2016-01-02T16:07:50Z</time>
      </trkpt>
      <trkpt lat="47.3675" lon="-1.92504">
        <ele>79</ele>
        <time>2016-01-02T16:07:51Z</time>
      </trkpt>
      <trkpt lat="47.36745" lon="-1.92502">
        <ele>79</ele>
        <time>2016-01-02T16:07:52Z</time>
      </trkpt>
      <trkpt lat="47.36741" lon="-1.92502">
        <ele>79</ele>
        <time>2016-01-02T16:07:53Z</time>
      </trkpt>
      <trkpt lat="47.36737" lon="-1.92501">
        <ele>79</ele>
        <time>2016-01-02T16:07:54Z</time>
      </trkpt>
      <trkpt lat="47.36732" lon="-1.925">
        <ele>79</ele>
        <time>2016-01-02T16:07:55Z</time>
      </trkpt>
      <trkpt lat="47.36727" lon="-1.92501">
        <ele>79</ele>
        <time>2016-01-02T16:07:56Z</time>
      </trkpt>
      <trkpt lat="47.36722" lon="-1.92502">
        <ele>79</ele>
        <time>2016-01-02T16:07:57Z</time>
      </trkpt>
      <trkpt lat="47.36718" lon="-1.92503">
        <ele>79</ele>
        <time>2016-01-02T16:07:58Z</time>
      </trkpt>
      <trkpt lat="47.36714" lon="-1.92506">
        <ele>79</ele>
        <time>2016-01-02T16:07:59Z</time>
      </trkpt>
      <trkpt lat="47.36709" lon="-1.92509">
        <ele>79</ele>
        <time>2016-01-02T16:08:00Z</time>
      </trkpt>
      <trkpt lat="47.36707" lon="-1.92512">
        <ele>79</ele>
        <time>2016-01-02T16:08:01Z</time>
      </trkpt>
      <trkpt lat="47.36703" lon="-1.92517">
        <ele>79</ele>
        <time>2016-01-02T16:08:02Z</time>
      </trkpt>
      <trkpt lat="47.367" lon="-1.92519">
        <ele>79</ele>
        <time>2016-01-02T16:08:03Z</time>
      </trkpt>
      <trkpt lat="47.36695" lon="-1.92523">
        <ele>79</ele>
        <time>2016-01-02T16:08:04Z</time>
      </trkpt>
      <trkpt lat="47.36691" lon="-1.92524">
        <ele>79</ele>
        <time>2016-01-02T16:08:05Z</time>
      </trkpt>
      <trkpt lat="47.36687" lon="-1.92526">
        <ele>79</ele>
        <time>2016-01-02T16:08:06Z</time>
      </trkpt>
      <trkpt lat="47.36681" lon="-1.92529">
        <ele>79</ele>
        <time>2016-01-02T16:08:07Z</time>
      </trkpt>
      <trkpt lat="47.36675" lon="-1.92531">
        <ele>79</ele>
        <time>2016-01-02T16:08:08Z</time>
      </trkpt>
      <trkpt lat="47.36669" lon="-1.92532">
        <ele>79</ele>
        <time>2016-01-02T16:08:09Z</time>
      </trkpt>
      <trkpt lat="47.36663" lon="-1.92533">
        <ele>78</ele>
        <time>2016-01-02T16:08:10Z</time>
      </trkpt>
      <trkpt lat="47.36657" lon="-1.92534">
        <ele>78</ele>
        <time>2016-01-02T16:08:11Z</time>
      </trkpt>
      <trkpt lat="47.36653" lon="-1.92535">
        <ele>78</ele>
        <time>2016-01-02T16:08:12Z</time>
      </trkpt>
      <trkpt lat="47.36647" lon="-1.92535">
        <ele>77</ele>
        <time>2016-01-02T16:08:13Z</time>
      </trkpt>
      <trkpt lat="47.36642" lon="-1.92536">
        <ele>77</ele>
        <time>2016-01-02T16:08:14Z</time>
      </trkpt>
      <trkpt lat="47.36638" lon="-1.92541">
        <ele>77</ele>
        <time>2016-01-02T16:08:15Z</time>
      </trkpt>
      <trkpt lat="47.36634" lon="-1.92547">
        <ele>77</ele>
        <time>2016-01-02T16:08:16Z</time>
      </trkpt>
      <trkpt lat="47.36632" lon="-1.92554">
        <ele>77</ele>
        <time>2016-01-02T16:08:17Z</time>
      </trkpt>
      <trkpt lat="47.3663" lon="-1.92561">
        <ele>77</ele>
        <time>2016-01-02T16:08:18Z</time>
      </trkpt>
      <trkpt lat="47.36629" lon="-1.92567">
        <ele>77</ele>
        <time>2016-01-02T16:08:19Z</time>
      </trkpt>
      <trkpt lat="47.36626" lon="-1.92575">
        <ele>77</ele>
        <time>2016-01-02T16:08:20Z</time>
      </trkpt>
      <trkpt lat="47.36623" lon="-1.92583">
        <ele>77</ele>
        <time>2016-01-02T16:08:21Z</time>
      </trkpt>
      <trkpt lat="47.36621" lon="-1.92589">
        <ele>76</ele>
        <time>2016-01-02T16:08:22Z</time>
      </trkpt>
      <trkpt lat="47.36618" lon="-1.92597">
        <ele>76</ele>
        <time>2016-01-02T16:08:23Z</time>
      </trkpt>
      <trkpt lat="47.36615" lon="-1.92604">
        <ele>76</ele>
        <time>2016-01-02T16:08:24Z</time>
      </trkpt>
      <trkpt lat="47.36614" lon="-1.92611">
        <ele>76</ele>
        <time>2016-01-02T16:08:25Z</time>
      </trkpt>
      <trkpt lat="47.36611" lon="-1.92618">
        <ele>76</ele>
        <time>2016-01-02T16:08:26Z</time>
      </trkpt>
      <trkpt lat="47.36609" lon="-1.92626">
        <ele>75</ele>
        <time>2016-01-02T16:08:27Z</time>
      </trkpt>
      <trkpt lat="47.36607" lon="-1.92632">
        <ele>75</ele>
        <time>2016-01-02T16:08:28Z</time>
      </trkpt>
      <trkpt lat="47.36606" lon="-1.92637">
        <ele>75</ele>
        <time>2016-01-02T16:08:29Z</time>
      </trkpt>
      <trkpt lat="47.36605" lon="-1.92644">
        <ele>75</ele>
        <time>2016-01-02T16:08:30Z</time>
      </trkpt>
      <trkpt lat="47.36604" lon="-1.92652">
        <ele>75</ele>
        <time>2016-01-02T16:08:31Z</time>
      </trkpt>
      <trkpt lat="47.36602" lon="-1.92659">
        <ele>74</ele>
        <time>2016-01-02T16:08:32Z</time>
      </trkpt>
      <trkpt lat="47.36604" lon="-1.92667">
        <ele>73</ele>
        <time>2016-01-02T16:08:33Z</time>
      </trkpt>
      <trkpt lat="47.36603" lon="-1.92674">
        <ele>73</ele>
        <time>2016-01-02T16:08:34Z</time>
      </trkpt>
      <trkpt lat="47.36603" lon="-1.9268">
        <ele>74</ele>
        <time>2016-01-02T16:08:35Z</time>
      </trkpt>
      <trkpt lat="47.36603" lon="-1.92688">
        <ele>74</ele>
        <time>2016-01-02T16:08:36Z</time>
      </trkpt>
      <trkpt lat="47.36603" lon="-1.92696">
        <ele>74</ele>
        <time>2016-01-02T16:08:37Z</time>
      </trkpt>
      <trkpt lat="47.36602" lon="-1.92701">
        <ele>74</ele>
        <time>2016-01-02T16:08:38Z</time>
      </trkpt>
      <trkpt lat="47.36602" lon="-1.92709">
        <ele>74</ele>
        <time>2016-01-02T16:08:39Z</time>
      </trkpt>
      <trkpt lat="47.36602" lon="-1.92716">
        <ele>74</ele>
        <time>2016-01-02T16:08:40Z</time>
      </trkpt>
      <trkpt lat="47.36602" lon="-1.92722">
        <ele>74</ele>
        <time>2016-01-02T16:08:41Z</time>
      </trkpt>
      <trkpt lat="47.36602" lon="-1.92729">
        <ele>74</ele>
        <time>2016-01-02T16:08:42Z</time>
      </trkpt>
      <trkpt lat="47.36601" lon="-1.92738">
        <ele>74</ele>
        <time>2016-01-02T16:08:43Z</time>
      </trkpt>
      <trkpt lat="47.36599" lon="-1.92744">
        <ele>74</ele>
        <time>2016-01-02T16:08:44Z</time>
      </trkpt>
      <trkpt lat="47.36596" lon="-1.9275">
        <ele>73</ele>
        <time>2016-01-02T16:08:45Z</time>
      </trkpt>
      <trkpt lat="47.36593" lon="-1.92755">
        <ele>73</ele>
        <time>2016-01-02T16:08:46Z</time>
      </trkpt>
      <trkpt lat="47.3659" lon="-1.9276">
        <ele>73</ele>
        <time>2016-01-02T16:08:47Z</time>
      </trkpt>
      <trkpt lat="47.36584" lon="-1.92758">
        <ele>73</ele>
        <time>2016-01-02T16:08:48Z</time>
      </trkpt>
      <trkpt lat="47.36578" lon="-1.92758">
        <ele>72</ele>
        <time>2016-01-02T16:08:49Z</time>
      </trkpt>
      <trkpt lat="47.36573" lon="-1.92758">
        <ele>72</ele>
        <time>2016-01-02T16:08:50Z</time>
      </trkpt>
      <trkpt lat="47.36568" lon="-1.92759">
        <ele>72</ele>
        <time>2016-01-02T16:08:51Z</time>
      </trkpt>
      <trkpt lat="47.36563" lon="-1.92762">
        <ele>72</ele>
        <time>2016-01-02T16:08:52Z</time>
      </trkpt>
      <trkpt lat="47.36558" lon="-1.92763">
        <ele>72</ele>
        <time>2016-01-02T16:08:53Z</time>
      </trkpt>
      <trkpt lat="47.36552" lon="-1.92763">
        <ele>72</ele>
        <time>2016-01-02T16:08:54Z</time>
      </trkpt>
      <trkpt lat="47.36546" lon="-1.92763">
        <ele>71</ele>
        <time>2016-01-02T16:08:55Z</time>
      </trkpt>
      <trkpt lat="47.36539" lon="-1.92763">
        <ele>71</ele>
        <time>2016-01-02T16:08:56Z</time>
      </trkpt>
      <trkpt lat="47.36534" lon="-1.92762">
        <ele>71</ele>
        <time>2016-01-02T16:08:57Z</time>
      </trkpt>
      <trkpt lat="47.36529" lon="-1.92761">
        <ele>71</ele>
        <time>2016-01-02T16:08:58Z</time>
      </trkpt>
      <trkpt lat="47.36524" lon="-1.9276">
        <ele>71</ele>
        <time>2016-01-02T16:08:59Z</time>
      </trkpt>
      <trkpt lat="47.36519" lon="-1.92762">
        <ele>71</ele>
        <time>2016-01-02T16:09:00Z</time>
      </trkpt>
      <trkpt lat="47.36514" lon="-1.92765">
        <ele>71</ele>
        <time>2016-01-02T16:09:01Z</time>
      </trkpt>
      <trkpt lat="47.3651" lon="-1.92768">
        <ele>71</ele>
        <time>2016-01-02T16:09:02Z</time>
      </trkpt>
      <trkpt lat="47.36505" lon="-1.92772">
        <ele>71</ele>
        <time>2016-01-02T16:09:03Z</time>
      </trkpt>
      <trkpt lat="47.36505" lon="-1.92783">
        <ele>71</ele>
        <time>2016-01-02T16:09:04Z</time>
      </trkpt>
      <trkpt lat="47.36505" lon="-1.9279">
        <ele>71</ele>
        <time>2016-01-02T16:09:05Z</time>
      </trkpt>
      <trkpt lat="47.36504" lon="-1.92797">
        <ele>71</ele>
        <time>2016-01-02T16:09:06Z</time>
      </trkpt>
      <trkpt lat="47.36504" lon="-1.92804">
        <ele>70</ele>
        <time>2016-01-02T16:09:07Z</time>
      </trkpt>
      <trkpt lat="47.36503" lon="-1.92811">
        <ele>70</ele>
        <time>2016-01-02T16:09:08Z</time>
      </trkpt>
      <trkpt lat="47.36499" lon="-1.92819">
        <ele>69</ele>
        <time>2016-01-02T16:09:09Z</time>
      </trkpt>
      <trkpt lat="47.36495" lon="-1.92826">
        <ele>69</ele>
        <time>2016-01-02T16:09:10Z</time>
      </trkpt>
      <trkpt lat="47.3649" lon="-1.92831">
        <ele>69</ele>
        <time>2016-01-02T16:09:11Z</time>
      </trkpt>
      <trkpt lat="47.36484" lon="-1.92837">
        <ele>68</ele>
        <time>2016-01-02T16:09:12Z</time>
      </trkpt>
      <trkpt lat="47.36478" lon="-1.92842">
        <ele>68</ele>
        <time>2016-01-02T16:09:13Z</time>
      </trkpt>
      <trkpt lat="47.36472" lon="-1.92848">
        <ele>67</ele>
        <time>2016-01-02T16:09:14Z</time>
      </trkpt>
      <trkpt lat="47.36465" lon="-1.92853">
        <ele>67</ele>
        <time>2016-01-02T16:09:15Z</time>
      </trkpt>
      <trkpt lat="47.36461" lon="-1.92858">
        <ele>67</ele>
        <time>2016-01-02T16:09:16Z</time>
      </trkpt>
      <trkpt lat="47.36459" lon="-1.92861">
        <ele>67</ele>
        <time>2016-01-02T16:09:17Z</time>
      </trkpt>
      <trkpt lat="47.36458" lon="-1.92865">
        <ele>67</ele>
        <time>2016-01-02T16:09:18Z</time>
      </trkpt>
      <trkpt lat="47.36456" lon="-1.92869">
        <ele>67</ele>
        <time>2016-01-02T16:09:19Z</time>
      </trkpt>
      <trkpt lat="47.36453" lon="-1.92875">
        <ele>67</ele>
        <time>2016-01-02T16:09:20Z</time>
      </trkpt>
      <trkpt lat="47.3645" lon="-1.9288">
        <ele>67</ele>
        <time>2016-01-02T16:09:21Z</time>
      </trkpt>
      <trkpt lat="47.36447" lon="-1.92887">
        <ele>66</ele>
        <time>2016-01-02T16:09:22Z</time>
      </trkpt>
      <trkpt lat="47.36443" lon="-1.92894">
        <ele>66</ele>
        <time>2016-01-02T16:09:23Z</time>
      </trkpt>
      <trkpt lat="47.3644" lon="-1.92901">
        <ele>66</ele>
        <time>2016-01-02T16:09:24Z</time>
      </trkpt>
      <trkpt lat="47.36435" lon="-1.92909">
        <ele>66</ele>
        <time>2016-01-02T16:09:25Z</time>
      </trkpt>
      <trkpt lat="47.36431" lon="-1.92916">
        <ele>66</ele>
        <time>2016-01-02T16:09:26Z</time>
      </trkpt>
      <trkpt lat="47.36428" lon="-1.92923">
        <ele>65</ele>
        <time>2016-01-02T16:09:27Z</time>
      </trkpt>
      <trkpt lat="47.36424" lon="-1.92929">
        <ele>65</ele>
        <time>2016-01-02T16:09:28Z</time>
      </trkpt>
      <trkpt lat="47.36421" lon="-1.92935">
        <ele>65</ele>
        <time>2016-01-02T16:09:29Z</time>
      </trkpt>
      <trkpt lat="47.36418" lon="-1.92941">
        <ele>65</ele>
        <time>2016-01-02T16:09:30Z</time>
      </trkpt>
      <trkpt lat="47.36406" lon="-1.92948">
        <ele>65</ele>
        <time>2016-01-02T16:09:33Z</time>
      </trkpt>
      <trkpt lat="47.364" lon="-1.92947">
        <ele>65</ele>
        <time>2016-01-02T16:09:34Z</time>
      </trkpt>
      <trkpt lat="47.36394" lon="-1.92947">
        <ele>65</ele>
        <time>2016-01-02T16:09:35Z</time>
      </trkpt>
      <trkpt lat="47.36389" lon="-1.92948">
        <ele>65</ele>
        <time>2016-01-02T16:09:36Z</time>
      </trkpt>
      <trkpt lat="47.36386" lon="-1.92949">
        <ele>65</ele>
        <time>2016-01-02T16:09:37Z</time>
      </trkpt>
      <trkpt lat="47.36379" lon="-1.9295">
        <ele>65</ele>
        <time>2016-01-02T16:09:38Z</time>
      </trkpt>
      <trkpt lat="47.36374" lon="-1.92951">
        <ele>66</ele>
        <time>2016-01-02T16:09:39Z</time>
      </trkpt>
      <trkpt lat="47.36368" lon="-1.92953">
        <ele>66</ele>
        <time>2016-01-02T16:09:40Z</time>
      </trkpt>
      <trkpt lat="47.36362" lon="-1.92953">
        <ele>66</ele>
        <time>2016-01-02T16:09:41Z</time>
      </trkpt>
      <trkpt lat="47.36356" lon="-1.92956">
        <ele>66</ele>
        <time>2016-01-02T16:09:42Z</time>
      </trkpt>
      <trkpt lat="47.36349" lon="-1.9296">
        <ele>66</ele>
        <time>2016-01-02T16:09:43Z</time>
      </trkpt>
      <trkpt lat="47.36343" lon="-1.92963">
        <ele>66</ele>
        <time>2016-01-02T16:09:44Z</time>
      </trkpt>
      <trkpt lat="47.36337" lon="-1.92965">
        <ele>66</ele>
        <time>2016-01-02T16:09:45Z</time>
      </trkpt>
      <trkpt lat="47.36333" lon="-1.92972">
        <ele>65</ele>
        <time>2016-01-02T16:09:46Z</time>
      </trkpt>
      <trkpt lat="47.36328" lon="-1.92978">
        <ele>65</ele>
        <time>2016-01-02T16:09:47Z</time>
      </trkpt>
      <trkpt lat="47.36324" lon="-1.92984">
        <ele>65</ele>
        <time>2016-01-02T16:09:48Z</time>
      </trkpt>
      <trkpt lat="47.36319" lon="-1.9299">
        <ele>65</ele>
        <time>2016-01-02T16:09:49Z</time>
      </trkpt>
      <trkpt lat="47.36314" lon="-1.92996">
        <ele>65</ele>
        <time>2016-01-02T16:09:50Z</time>
      </trkpt>
      <trkpt lat="47.3631" lon="-1.92999">
        <ele>65</ele>
        <time>2016-01-02T16:09:51Z</time>
      </trkpt>
      <trkpt lat="47.36304" lon="-1.93007">
        <ele>64</ele>
        <time>2016-01-02T16:09:52Z</time>
      </trkpt>
      <trkpt lat="47.36299" lon="-1.93014">
        <ele>63</ele>
        <time>2016-01-02T16:09:53Z</time>
      </trkpt>
      <trkpt lat="47.36293" lon="-1.93021">
        <ele>63</ele>
        <time>2016-01-02T16:09:54Z</time>
      </trkpt>
      <trkpt lat="47.3629" lon="-1.93031">
        <ele>63</ele>
        <time>2016-01-02T16:09:55Z</time>
      </trkpt>
      <trkpt lat="47.36284" lon="-1.93039">
        <ele>63</ele>
        <time>2016-01-02T16:09:56Z</time>
      </trkpt>
      <trkpt lat="47.36279" lon="-1.93047">
        <ele>62</ele>
        <time>2016-01-02T16:09:57Z</time>
      </trkpt>
      <trkpt lat="47.36273" lon="-1.93057">
        <ele>62</ele>
        <time>2016-01-02T16:09:58Z</time>
      </trkpt>
      <trkpt lat="47.36268" lon="-1.93067">
        <ele>62</ele>
        <time>2016-01-02T16:09:59Z</time>
      </trkpt>
      <trkpt lat="47.36262" lon="-1.93076">
        <ele>61</ele>
        <time>2016-01-02T16:10:00Z</time>
      </trkpt>
      <trkpt lat="47.36257" lon="-1.93085">
        <ele>60</ele>
        <time>2016-01-02T16:10:01Z</time>
      </trkpt>
      <trkpt lat="47.36251" lon="-1.93095">
        <ele>60</ele>
        <time>2016-01-02T16:10:02Z</time>
      </trkpt>
      <trkpt lat="47.36246" lon="-1.93109">
        <ele>58</ele>
        <time>2016-01-02T16:10:03Z</time>
      </trkpt>
      <trkpt lat="47.36242" lon="-1.93118">
        <ele>57</ele>
        <time>2016-01-02T16:10:04Z</time>
      </trkpt>
      <trkpt lat="47.36237" lon="-1.93128">
        <ele>57</ele>
        <time>2016-01-02T16:10:05Z</time>
      </trkpt>
      <trkpt lat="47.36231" lon="-1.93137">
        <ele>57</ele>
        <time>2016-01-02T16:10:06Z</time>
      </trkpt>
      <trkpt lat="47.36226" lon="-1.93149">
        <ele>56</ele>
        <time>2016-01-02T16:10:07Z</time>
      </trkpt>
      <trkpt lat="47.36222" lon="-1.93161">
        <ele>56</ele>
        <time>2016-01-02T16:10:08Z</time>
      </trkpt>
      <trkpt lat="47.36218" lon="-1.93172">
        <ele>56</ele>
        <time>2016-01-02T16:10:09Z</time>
      </trkpt>
      <trkpt lat="47.36214" lon="-1.93182">
        <ele>56</ele>
        <time>2016-01-02T16:10:10Z</time>
      </trkpt>
      <trkpt lat="47.36211" lon="-1.93194">
        <ele>56</ele>
        <time>2016-01-02T16:10:11Z</time>
      </trkpt>
      <trkpt lat="47.36209" lon="-1.93205">
        <ele>56</ele>
        <time>2016-01-02T16:10:12Z</time>
      </trkpt>
      <trkpt lat="47.36207" lon="-1.93216">
        <ele>55</ele>
        <time>2016-01-02T16:10:13Z</time>
      </trkpt>
      <trkpt lat="47.36204" lon="-1.93226">
        <ele>55</ele>
        <time>2016-01-02T16:10:14Z</time>
      </trkpt>
      <trkpt lat="47.36202" lon="-1.93235">
        <ele>55</ele>
        <time>2016-01-02T16:10:15Z</time>
      </trkpt>
      <trkpt lat="47.362" lon="-1.93245">
        <ele>55</ele>
        <time>2016-01-02T16:10:16Z</time>
      </trkpt>
      <trkpt lat="47.36197" lon="-1.93254">
        <ele>56</ele>
        <time>2016-01-02T16:10:17Z</time>
      </trkpt>
      <trkpt lat="47.36196" lon="-1.93263">
        <ele>56</ele>
        <time>2016-01-02T16:10:18Z</time>
      </trkpt>
      <trkpt lat="47.36195" lon="-1.93272">
        <ele>56</ele>
        <time>2016-01-02T16:10:19Z</time>
      </trkpt>
      <trkpt lat="47.36193" lon="-1.93281">
        <ele>56</ele>
        <time>2016-01-02T16:10:20Z</time>
      </trkpt>
      <trkpt lat="47.36192" lon="-1.93289">
        <ele>56</ele>
        <time>2016-01-02T16:10:21Z</time>
      </trkpt>
      <trkpt lat="47.3619" lon="-1.93297">
        <ele>56</ele>
        <time>2016-01-02T16:10:22Z</time>
      </trkpt>
      <trkpt lat="47.36189" lon="-1.93305">
        <ele>56</ele>
        <time>2016-01-02T16:10:23Z</time>
      </trkpt>
      <trkpt lat="47.36187" lon="-1.93314">
        <ele>56</ele>
        <time>2016-01-02T16:10:24Z</time>
      </trkpt>
      <trkpt lat="47.36185" lon="-1.93322">
        <ele>55</ele>
        <time>2016-01-02T16:10:25Z</time>
      </trkpt>
      <trkpt lat="47.36184" lon="-1.93331">
        <ele>55</ele>
        <time>2016-01-02T16:10:26Z</time>
      </trkpt>
      <trkpt lat="47.36183" lon="-1.93339">
        <ele>56</ele>
        <time>2016-01-02T16:10:27Z</time>
      </trkpt>
      <trkpt lat="47.36182" lon="-1.93348">
        <ele>56</ele>
        <time>2016-01-02T16:10:28Z</time>
      </trkpt>
      <trkpt lat="47.36179" lon="-1.93356">
        <ele>56</ele>
        <time>2016-01-02T16:10:29Z</time>
      </trkpt>
      <trkpt lat="47.36178" lon="-1.93364">
        <ele>56</ele>
        <time>2016-01-02T16:10:30Z</time>
      </trkpt>
      <trkpt lat="47.36176" lon="-1.93372">
        <ele>57</ele>
        <time>2016-01-02T16:10:31Z</time>
      </trkpt>
      <trkpt lat="47.36174" lon="-1.93381">
        <ele>57</ele>
        <time>2016-01-02T16:10:32Z</time>
      </trkpt>
      <trkpt lat="47.36172" lon="-1.93388">
        <ele>57</ele>
        <time>2016-01-02T16:10:33Z</time>
      </trkpt>
      <trkpt lat="47.3617" lon="-1.93396">
        <ele>57</ele>
        <time>2016-01-02T16:10:34Z</time>
      </trkpt>
      <trkpt lat="47.36168" lon="-1.93405">
        <ele>57</ele>
        <time>2016-01-02T16:10:35Z</time>
      </trkpt>
      <trkpt lat="47.36167" lon="-1.93413">
        <ele>56</ele>
        <time>2016-01-02T16:10:36Z</time>
      </trkpt>
      <trkpt lat="47.36164" lon="-1.93421">
        <ele>56</ele>
        <time>2016-01-02T16:10:37Z</time>
      </trkpt>
      <trkpt lat="47.36162" lon="-1.93429">
        <ele>56</ele>
        <time>2016-01-02T16:10:38Z</time>
      </trkpt>
      <trkpt lat="47.36161" lon="-1.93434">
        <ele>56</ele>
        <time>2016-01-02T16:10:39Z</time>
      </trkpt>
      <trkpt lat="47.36158" lon="-1.9344">
        <ele>56</ele>
        <time>2016-01-02T16:10:40Z</time>
      </trkpt>
      <trkpt lat="47.36155" lon="-1.93446">
        <ele>56</ele>
        <time>2016-01-02T16:10:41Z</time>
      </trkpt>
      <trkpt lat="47.36153" lon="-1.93452">
        <ele>56</ele>
        <time>2016-01-02T16:10:42Z</time>
      </trkpt>
      <trkpt lat="47.36149" lon="-1.93452">
        <ele>56</ele>
        <time>2016-01-02T16:10:43Z</time>
      </trkpt>
      <trkpt lat="47.36145" lon="-1.93454">
        <ele>56</ele>
        <time>2016-01-02T16:10:44Z</time>
      </trkpt>
      <trkpt lat="47.3614" lon="-1.93455">
        <ele>56</ele>
        <time>2016-01-02T16:10:45Z</time>
      </trkpt>
      <trkpt lat="47.36136" lon="-1.93455">
        <ele>56</ele>
        <time>2016-01-02T16:10:46Z</time>
      </trkpt>
      <trkpt lat="47.36132" lon="-1.93463">
        <ele>56</ele>
        <time>2016-01-02T16:10:47Z</time>
      </trkpt>
      <trkpt lat="47.36132" lon="-1.93469">
        <ele>56</ele>
        <time>2016-01-02T16:10:48Z</time>
      </trkpt>
      <trkpt lat="47.36131" lon="-1.93475">
        <ele>56</ele>
        <time>2016-01-02T16:10:49Z</time>
      </trkpt>
      <trkpt lat="47.3613" lon="-1.9348">
        <ele>56</ele>
        <time>2016-01-02T16:10:50Z</time>
      </trkpt>
      <trkpt lat="47.36127" lon="-1.93485">
        <ele>56</ele>
        <time>2016-01-02T16:10:51Z</time>
      </trkpt>
      <trkpt lat="47.36123" lon="-1.9349">
        <ele>56</ele>
        <time>2016-01-02T16:10:52Z</time>
      </trkpt>
      <trkpt lat="47.36119" lon="-1.93493">
        <ele>56</ele>
        <time>2016-01-02T16:10:53Z</time>
      </trkpt>
      <trkpt lat="47.36115" lon="-1.93491">
        <ele>56</ele>
        <time>2016-01-02T16:10:54Z</time>
      </trkpt>
      <trkpt lat="47.3611" lon="-1.93492">
        <ele>55</ele>
        <time>2016-01-02T16:10:55Z</time>
      </trkpt>
      <trkpt lat="47.36106" lon="-1.93494">
        <ele>55</ele>
        <time>2016-01-02T16:10:56Z</time>
      </trkpt>
      <trkpt lat="47.36106" lon="-1.93489">
        <ele>55</ele>
        <time>2016-01-02T16:10:57Z</time>
      </trkpt>
      <trkpt lat="47.36103" lon="-1.93488">
        <ele>55</ele>
        <time>2016-01-02T16:10:58Z</time>
      </trkpt>
      <trkpt lat="47.36096" lon="-1.93488">
        <ele>55</ele>
        <time>2016-01-02T16:11:00Z</time>
      </trkpt>
      <trkpt lat="47.36092" lon="-1.93489">
        <ele>55</ele>
        <time>2016-01-02T16:11:01Z</time>
      </trkpt>
      <trkpt lat="47.36088" lon="-1.93489">
        <ele>55</ele>
        <time>2016-01-02T16:11:02Z</time>
      </trkpt>
      <trkpt lat="47.36083" lon="-1.93489">
        <ele>54</ele>
        <time>2016-01-02T16:11:03Z</time>
      </trkpt>
      <trkpt lat="47.36076" lon="-1.9349">
        <ele>54</ele>
        <time>2016-01-02T16:11:04Z</time>
      </trkpt>
      <trkpt lat="47.3607" lon="-1.9349">
        <ele>54</ele>
        <time>2016-01-02T16:11:05Z</time>
      </trkpt>
      <trkpt lat="47.36065" lon="-1.9349">
        <ele>54</ele>
        <time>2016-01-02T16:11:06Z</time>
      </trkpt>
      <trkpt lat="47.36059" lon="-1.93491">
        <ele>54</ele>
        <time>2016-01-02T16:11:07Z</time>
      </trkpt>
      <trkpt lat="47.36052" lon="-1.93495">
        <ele>53</ele>
        <time>2016-01-02T16:11:08Z</time>
      </trkpt>
      <trkpt lat="47.36046" lon="-1.93496">
        <ele>53</ele>
        <time>2016-01-02T16:11:09Z</time>
      </trkpt>
      <trkpt lat="47.36039" lon="-1.93498">
        <ele>53</ele>
        <time>2016-01-02T16:11:10Z</time>
      </trkpt>
      <trkpt lat="47.36033" lon="-1.93499">
        <ele>53</ele>
        <time>2016-01-02T16:11:11Z</time>
      </trkpt>
      <trkpt lat="47.36026" lon="-1.93501">
        <ele>53</ele>
        <time>2016-01-02T16:11:12Z</time>
      </trkpt>
      <trkpt lat="47.36021" lon="-1.93499">
        <ele>53</ele>
        <time>2016-01-02T16:11:13Z</time>
      </trkpt>
      <trkpt lat="47.36015" lon="-1.93502">
        <ele>53</ele>
        <time>2016-01-02T16:11:14Z</time>
      </trkpt>
      <trkpt lat="47.3601" lon="-1.93505">
        <ele>53</ele>
        <time>2016-01-02T16:11:15Z</time>
      </trkpt>
      <trkpt lat="47.36006" lon="-1.9351">
        <ele>53</ele>
        <time>2016-01-02T16:11:16Z</time>
      </trkpt>
      <trkpt lat="47.36001" lon="-1.93516">
        <ele>53</ele>
        <time>2016-01-02T16:11:17Z</time>
      </trkpt>
      <trkpt lat="47.35999" lon="-1.93523">
        <ele>53</ele>
        <time>2016-01-02T16:11:18Z</time>
      </trkpt>
      <trkpt lat="47.35996" lon="-1.93531">
        <ele>53</ele>
        <time>2016-01-02T16:11:19Z</time>
      </trkpt>
      <trkpt lat="47.35993" lon="-1.93538">
        <ele>53</ele>
        <time>2016-01-02T16:11:20Z</time>
      </trkpt>
      <trkpt lat="47.35996" lon="-1.93542">
        <ele>53</ele>
        <time>2016-01-02T16:11:21Z</time>
      </trkpt>
      <trkpt lat="47.35995" lon="-1.93548">
        <ele>53</ele>
        <time>2016-01-02T16:11:22Z</time>
      </trkpt>
      <trkpt lat="47.35995" lon="-1.93555">
        <ele>53</ele>
        <time>2016-01-02T16:11:23Z</time>
      </trkpt>
      <trkpt lat="47.35995" lon="-1.93561">
        <ele>53</ele>
        <time>2016-01-02T16:11:24Z</time>
      </trkpt>
      <trkpt lat="47.35996" lon="-1.93567">
        <ele>52</ele>
        <time>2016-01-02T16:11:25Z</time>
      </trkpt>
      <trkpt lat="47.35996" lon="-1.93576">
        <ele>52</ele>
        <time>2016-01-02T16:11:26Z</time>
      </trkpt>
      <trkpt lat="47.35997" lon="-1.93584">
        <ele>52</ele>
        <time>2016-01-02T16:11:27Z</time>
      </trkpt>
      <trkpt lat="47.35998" lon="-1.93591">
        <ele>53</ele>
        <time>2016-01-02T16:11:28Z</time>
      </trkpt>
      <trkpt lat="47.35998" lon="-1.93597">
        <ele>53</ele>
        <time>2016-01-02T16:11:29Z</time>
      </trkpt>
      <trkpt lat="47.35998" lon="-1.93604">
        <ele>53</ele>
        <time>2016-01-02T16:11:30Z</time>
      </trkpt>
      <trkpt lat="47.35998" lon="-1.9361">
        <ele>53</ele>
        <time>2016-01-02T16:11:31Z</time>
      </trkpt>
      <trkpt lat="47.35998" lon="-1.93617">
        <ele>53</ele>
        <time>2016-01-02T16:11:32Z</time>
      </trkpt>
      <trkpt lat="47.35997" lon="-1.93631">
        <ele>54</ele>
        <time>2016-01-02T16:11:34Z</time>
      </trkpt>
      <trkpt lat="47.35994" lon="-1.93637">
        <ele>54</ele>
        <time>2016-01-02T16:11:35Z</time>
      </trkpt>
      <trkpt lat="47.35989" lon="-1.93639">
        <ele>54</ele>
        <time>2016-01-02T16:11:36Z</time>
      </trkpt>
      <trkpt lat="47.35983" lon="-1.9364">
        <ele>54</ele>
        <time>2016-01-02T16:11:37Z</time>
      </trkpt>
      <trkpt lat="47.35978" lon="-1.9364">
        <ele>54</ele>
        <time>2016-01-02T16:11:38Z</time>
      </trkpt>
      <trkpt lat="47.35974" lon="-1.93641">
        <ele>54</ele>
        <time>2016-01-02T16:11:39Z</time>
      </trkpt>
      <trkpt lat="47.35971" lon="-1.93642">
        <ele>54</ele>
        <time>2016-01-02T16:11:40Z</time>
      </trkpt>
      <trkpt lat="47.35967" lon="-1.93643">
        <ele>54</ele>
        <time>2016-01-02T16:11:41Z</time>
      </trkpt>
      <trkpt lat="47.35962" lon="-1.93643">
        <ele>54</ele>
        <time>2016-01-02T16:11:42Z</time>
      </trkpt>
      <trkpt lat="47.35958" lon="-1.93644">
        <ele>54</ele>
        <time>2016-01-02T16:11:43Z</time>
      </trkpt>
      <trkpt lat="47.35953" lon="-1.93644">
        <ele>54</ele>
        <time>2016-01-02T16:11:44Z</time>
      </trkpt>
      <trkpt lat="47.35949" lon="-1.93645">
        <ele>54</ele>
        <time>2016-01-02T16:11:45Z</time>
      </trkpt>
      <trkpt lat="47.35946" lon="-1.93645">
        <ele>54</ele>
        <time>2016-01-02T16:11:46Z</time>
      </trkpt>
      <trkpt lat="47.35942" lon="-1.93646">
        <ele>54</ele>
        <time>2016-01-02T16:11:47Z</time>
      </trkpt>
      <trkpt lat="47.35938" lon="-1.93647">
        <ele>54</ele>
        <time>2016-01-02T16:11:48Z</time>
      </trkpt>
      <trkpt lat="47.35934" lon="-1.93648">
        <ele>54</ele>
        <time>2016-01-02T16:11:49Z</time>
      </trkpt>
      <trkpt lat="47.3593" lon="-1.93649">
        <ele>54</ele>
        <time>2016-01-02T16:11:50Z</time>
      </trkpt>
      <trkpt lat="47.35926" lon="-1.93649">
        <ele>55</ele>
        <time>2016-01-02T16:11:51Z</time>
      </trkpt>
      <trkpt lat="47.35921" lon="-1.9365">
        <ele>55</ele>
        <time>2016-01-02T16:11:52Z</time>
      </trkpt>
      <trkpt lat="47.35918" lon="-1.93651">
        <ele>55</ele>
        <time>2016-01-02T16:11:53Z</time>
      </trkpt>
      <trkpt lat="47.35914" lon="-1.93652">
        <ele>56</ele>
        <time>2016-01-02T16:11:54Z</time>
      </trkpt>
      <trkpt lat="47.3591" lon="-1.93654">
        <ele>56</ele>
        <time>2016-01-02T16:11:55Z</time>
      </trkpt>
      <trkpt lat="47.35906" lon="-1.93655">
        <ele>56</ele>
        <time>2016-01-02T16:11:56Z</time>
      </trkpt>
      <trkpt lat="47.35902" lon="-1.93657">
        <ele>56</ele>
        <time>2016-01-02T16:11:57Z</time>
      </trkpt>
      <trkpt lat="47.35898" lon="-1.93658">
        <ele>56</ele>
        <time>2016-01-02T16:11:58Z</time>
      </trkpt>
      <trkpt lat="47.35894" lon="-1.93659">
        <ele>56</ele>
        <time>2016-01-02T16:11:59Z</time>
      </trkpt>
      <trkpt lat="47.3589" lon="-1.9366">
        <ele>56</ele>
        <time>2016-01-02T16:12:00Z</time>
      </trkpt>
      <trkpt lat="47.35884" lon="-1.93656">
        <ele>57</ele>
        <time>2016-01-02T16:12:02Z</time>
      </trkpt>
      <trkpt lat="47.35881" lon="-1.93653">
        <ele>57</ele>
        <time>2016-01-02T16:12:03Z</time>
      </trkpt>
      <trkpt lat="47.35878" lon="-1.93651">
        <ele>57</ele>
        <time>2016-01-02T16:12:04Z</time>
      </trkpt>
      <trkpt lat="47.35874" lon="-1.9365">
        <ele>57</ele>
        <time>2016-01-02T16:12:05Z</time>
      </trkpt>
      <trkpt lat="47.35871" lon="-1.93651">
        <ele>57</ele>
        <time>2016-01-02T16:12:06Z</time>
      </trkpt>
      <trkpt lat="47.35867" lon="-1.93651">
        <ele>57</ele>
        <time>2016-01-02T16:12:07Z</time>
      </trkpt>
      <trkpt lat="47.35863" lon="-1.93651">
        <ele>57</ele>
        <time>2016-01-02T16:12:08Z</time>
      </trkpt>
      <trkpt lat="47.3586" lon="-1.93652">
        <ele>57</ele>
        <time>2016-01-02T16:12:09Z</time>
      </trkpt>
      <trkpt lat="47.35856" lon="-1.93653">
        <ele>57</ele>
        <time>2016-01-02T16:12:10Z</time>
      </trkpt>
      <trkpt lat="47.35852" lon="-1.93654">
        <ele>58</ele>
        <time>2016-01-02T16:12:11Z</time>
      </trkpt>
      <trkpt lat="47.35848" lon="-1.93656">
        <ele>58</ele>
        <time>2016-01-02T16:12:12Z</time>
      </trkpt>
      <trkpt lat="47.35844" lon="-1.93658">
        <ele>58</ele>
        <time>2016-01-02T16:12:13Z</time>
      </trkpt>
      <trkpt lat="47.35841" lon="-1.93659">
        <ele>58</ele>
        <time>2016-01-02T16:12:14Z</time>
      </trkpt>
      <trkpt lat="47.35837" lon="-1.9366">
        <ele>58</ele>
        <time>2016-01-02T16:12:15Z</time>
      </trkpt>
      <trkpt lat="47.35833" lon="-1.93661">
        <ele>59</ele>
        <time>2016-01-02T16:12:16Z</time>
      </trkpt>
      <trkpt lat="47.3583" lon="-1.93662">
        <ele>59</ele>
        <time>2016-01-02T16:12:17Z</time>
      </trkpt>
      <trkpt lat="47.35826" lon="-1.93663">
        <ele>59</ele>
        <time>2016-01-02T16:12:18Z</time>
      </trkpt>
      <trkpt lat="47.35822" lon="-1.93663">
        <ele>59</ele>
        <time>2016-01-02T16:12:19Z</time>
      </trkpt>
      <trkpt lat="47.35818" lon="-1.93664">
        <ele>59</ele>
        <time>2016-01-02T16:12:20Z</time>
      </trkpt>
      <trkpt lat="47.35814" lon="-1.93665">
        <ele>59</ele>
        <time>2016-01-02T16:12:21Z</time>
      </trkpt>
      <trkpt lat="47.35811" lon="-1.93667">
        <ele>59</ele>
        <time>2016-01-02T16:12:22Z</time>
      </trkpt>
      <trkpt lat="47.35807" lon="-1.93668">
        <ele>59</ele>
        <time>2016-01-02T16:12:23Z</time>
      </trkpt>
      <trkpt lat="47.35804" lon="-1.9367">
        <ele>59</ele>
        <time>2016-01-02T16:12:24Z</time>
      </trkpt>
      <trkpt lat="47.358" lon="-1.93671">
        <ele>59</ele>
        <time>2016-01-02T16:12:25Z</time>
      </trkpt>
      <trkpt lat="47.35799" lon="-1.93676">
        <ele>59</ele>
        <time>2016-01-02T16:12:26Z</time>
      </trkpt>
      <trkpt lat="47.35797" lon="-1.93684">
        <ele>59</ele>
        <time>2016-01-02T16:12:28Z</time>
      </trkpt>
      <trkpt lat="47.35796" lon="-1.93688">
        <ele>59</ele>
        <time>2016-01-02T16:12:29Z</time>
      </trkpt>
      <trkpt lat="47.358" lon="-1.93691">
        <ele>59</ele>
        <time>2016-01-02T16:12:30Z</time>
      </trkpt>
      <trkpt lat="47.35802" lon="-1.93697">
        <ele>59</ele>
        <time>2016-01-02T16:12:32Z</time>
      </trkpt>
      <trkpt lat="47.35804" lon="-1.93702">
        <ele>59</ele>
        <time>2016-01-02T16:12:34Z</time>
      </trkpt>
      <trkpt lat="47.35807" lon="-1.93706">
        <ele>59</ele>
        <time>2016-01-02T16:12:36Z</time>
      </trkpt>
      <trkpt lat="47.35809" lon="-1.93709">
        <ele>60</ele>
        <time>2016-01-02T16:12:38Z</time>
      </trkpt>
      <trkpt lat="47.35811" lon="-1.93706">
        <ele>59</ele>
        <time>2016-01-02T16:12:41Z</time>
      </trkpt>
      <trkpt lat="47.35814" lon="-1.93704">
        <ele>59</ele>
        <time>2016-01-02T16:12:44Z</time>
      </trkpt>
      <trkpt lat="47.35817" lon="-1.93702">
        <ele>59</ele>
        <time>2016-01-02T16:12:47Z</time>
      </trkpt>
      <trkpt lat="47.3582" lon="-1.93702">
        <ele>59</ele>
        <time>2016-01-02T16:12:51Z</time>
      </trkpt>
      <trkpt lat="47.35823" lon="-1.93701">
        <ele>59</ele>
        <time>2016-01-02T16:12:55Z</time>
      </trkpt>
      <trkpt lat="47.3582" lon="-1.93699">
        <ele>59</ele>
        <time>2016-01-02T16:13:08Z</time>
      </trkpt>
      <trkpt lat="47.35818" lon="-1.93698">
        <ele>59</ele>
        <time>2016-01-02T16:13:13Z</time>
      </trkpt>
    </trkseg>
  </trk>
</gpx>